<?xml version='1.0' encoding='UTF-8'?><gpx version="1.1" creator="JPX - https://github.com/jenetics/jpx" xmlns="http://www.topografix.com/GPX/1/1"><trk><trkseg><trkpt lat="40.8189317" lon="8.4671467"><ele>0.0</ele><time>2026-03-28T11:05:09.385Z</time></trkpt><trkpt lat="40.8187933" lon="8.467115"><ele>0.0</ele><time>2026-03-28T11:05:11.386Z</time></trkpt><trkpt lat="40.8187083" lon="8.46711"><ele>0.0</ele><time>2026-03-28T11:05:12.386Z</time></trkpt><trkpt lat="40.8186183" lon="8.4671183"><ele>0.0</ele><time>2026-03-28T11:05:13.386Z</time></trkpt><trkpt lat="40.818535" lon="8.46713"><ele>0.0</ele><time>2026-03-28T11:05:14.386Z</time></trkpt><trkpt lat="40.818455" lon="8.46714"><ele>0.2857142857142857</ele><time>2026-03-28T11:05:15.386Z</time></trkpt><trkpt lat="40.8183833" lon="8.4671383"><ele>0.5714285714285714</ele><time>2026-03-28T11:05:16.386Z</time></trkpt><trkpt lat="40.8183117" lon="8.467125"><ele>0.8571428571428571</ele><time>2026-03-28T11:05:17.385Z</time></trkpt><trkpt lat="40.818245" lon="8.4671067"><ele>1.1428571428571428</ele><time>2026-03-28T11:05:18.385Z</time></trkpt><trkpt lat="40.8181783" lon="8.467065"><ele>1.4285714285714284</ele><time>2026-03-28T11:05:19.386Z</time></trkpt><trkpt lat="40.81812" lon="8.4670017"><ele>1.7142857142857142</ele><time>2026-03-28T11:05:20.386Z</time></trkpt><trkpt lat="40.81808" lon="8.4669233"><ele>2.0</ele><time>2026-03-28T11:05:21.386Z</time></trkpt><trkpt lat="40.8180683" lon="8.46683"><ele>2.2</ele><time>2026-03-28T11:05:22.386Z</time></trkpt><trkpt lat="40.8180967" lon="8.4667217"><ele>2.4000000000000004</ele><time>2026-03-28T11:05:23.386Z</time></trkpt><trkpt lat="40.8181383" lon="8.4666017"><ele>2.5999999999999996</ele><time>2026-03-28T11:05:24.386Z</time></trkpt><trkpt lat="40.8181983" lon="8.466485"><ele>2.8</ele><time>2026-03-28T11:05:25.386Z</time></trkpt><trkpt lat="40.8182433" lon="8.4663817"><ele>3.0</ele><time>2026-03-28T11:05:26.385Z</time></trkpt><trkpt lat="40.8182867" lon="8.4662933"><ele>3.0</ele><time>2026-03-28T11:05:27.386Z</time></trkpt><trkpt lat="40.8183183" lon="8.4661933"><ele>3.0</ele><time>2026-03-28T11:05:28.386Z</time></trkpt><trkpt lat="40.818345" lon="8.4660817"><ele>3.0</ele><time>2026-03-28T11:05:29.386Z</time></trkpt><trkpt lat="40.81836" lon="8.4659683"><ele>3.0</ele><time>2026-03-28T11:05:30.386Z</time></trkpt><trkpt lat="40.81836" lon="8.4658467"><ele>3.0</ele><time>2026-03-28T11:05:31.386Z</time></trkpt><trkpt lat="40.8183483" lon="8.4657117"><ele>3.0</ele><time>2026-03-28T11:05:32.386Z</time></trkpt><trkpt lat="40.8183217" lon="8.465565"><ele>3.0</ele><time>2026-03-28T11:05:33.386Z</time></trkpt><trkpt lat="40.8182883" lon="8.4654083"><ele>3.0</ele><time>2026-03-28T11:05:34.385Z</time></trkpt><trkpt lat="40.8182533" lon="8.4652483"><ele>3.0</ele><time>2026-03-28T11:05:35.386Z</time></trkpt><trkpt lat="40.8182267" lon="8.46508"><ele>3.25</ele><time>2026-03-28T11:05:36.386Z</time></trkpt><trkpt lat="40.8181883" lon="8.4649117"><ele>3.5</ele><time>2026-03-28T11:05:37.386Z</time></trkpt><trkpt lat="40.8181567" lon="8.4647417"><ele>3.75</ele><time>2026-03-28T11:05:38.386Z</time></trkpt><trkpt lat="40.8181417" lon="8.4645583"><ele>4.0</ele><time>2026-03-28T11:05:39.386Z</time></trkpt><trkpt lat="40.8181233" lon="8.4643633"><ele>4.0</ele><time>2026-03-28T11:05:40.386Z</time></trkpt><trkpt lat="40.8181033" lon="8.4641617"><ele>4.0</ele><time>2026-03-28T11:05:41.386Z</time></trkpt><trkpt lat="40.8181" lon="8.463975"><ele>4.0</ele><time>2026-03-28T11:05:42.386Z</time></trkpt><trkpt lat="40.818085" lon="8.463805"><ele>4.0</ele><time>2026-03-28T11:05:43.386Z</time></trkpt><trkpt lat="40.8180567" lon="8.4636317"><ele>4.25</ele><time>2026-03-28T11:05:44.386Z</time></trkpt><trkpt lat="40.8180383" lon="8.4634617"><ele>4.5</ele><time>2026-03-28T11:05:45.386Z</time></trkpt><trkpt lat="40.8180367" lon="8.4632967"><ele>4.75</ele><time>2026-03-28T11:05:46.386Z</time></trkpt><trkpt lat="40.8180433" lon="8.4631583"><ele>5.0</ele><time>2026-03-28T11:05:47.386Z</time></trkpt><trkpt lat="40.8180783" lon="8.4630133"><ele>5.75</ele><time>2026-03-28T11:05:48.386Z</time></trkpt><trkpt lat="40.81815" lon="8.4629"><ele>6.5</ele><time>2026-03-28T11:05:49.385Z</time></trkpt><trkpt lat="40.81826" lon="8.4628183"><ele>7.25</ele><time>2026-03-28T11:05:50.386Z</time></trkpt><trkpt lat="40.81838" lon="8.4627517"><ele>8.0</ele><time>2026-03-28T11:05:51.385Z</time></trkpt><trkpt lat="40.8184917" lon="8.4626633"><ele>6.25</ele><time>2026-03-28T11:05:52.386Z</time></trkpt><trkpt lat="40.8185867" lon="8.4625733"><ele>4.5</ele><time>2026-03-28T11:05:53.386Z</time></trkpt><trkpt lat="40.8186417" lon="8.462445"><ele>2.75</ele><time>2026-03-28T11:05:54.386Z</time></trkpt><trkpt lat="40.8186867" lon="8.4622733"><ele>1.0</ele><time>2026-03-28T11:05:55.386Z</time></trkpt><trkpt lat="40.818715" lon="8.4621"><ele>1.0</ele><time>2026-03-28T11:05:56.385Z</time></trkpt><trkpt lat="40.8187367" lon="8.4619133"><ele>1.0</ele><time>2026-03-28T11:05:57.386Z</time></trkpt><trkpt lat="40.8187667" lon="8.4617217"><ele>1.0</ele><time>2026-03-28T11:05:58.386Z</time></trkpt><trkpt lat="40.8187917" lon="8.4615317"><ele>1.0</ele><time>2026-03-28T11:05:59.386Z</time></trkpt><trkpt lat="40.8188133" lon="8.461345"><ele>1.25</ele><time>2026-03-28T11:06:00.386Z</time></trkpt><trkpt lat="40.8188383" lon="8.4611567"><ele>1.5</ele><time>2026-03-28T11:06:01.386Z</time></trkpt><trkpt lat="40.8188617" lon="8.4609733"><ele>1.75</ele><time>2026-03-28T11:06:02.385Z</time></trkpt><trkpt lat="40.818885" lon="8.4608017"><ele>2.0</ele><time>2026-03-28T11:06:03.386Z</time></trkpt><trkpt lat="40.8189017" lon="8.460645"><ele>1.9999999999999998</ele><time>2026-03-28T11:06:04.386Z</time></trkpt><trkpt lat="40.8189267" lon="8.4604967"><ele>2.0</ele><time>2026-03-28T11:06:05.386Z</time></trkpt><trkpt lat="40.8189467" lon="8.4603767"><ele>2.0</ele><time>2026-03-28T11:06:06.386Z</time></trkpt><trkpt lat="40.8189567" lon="8.4602833"><ele>2.0</ele><time>2026-03-28T11:06:07.385Z</time></trkpt><trkpt lat="40.8189683" lon="8.4601767"><ele>1.9999999999999998</ele><time>2026-03-28T11:06:08.386Z</time></trkpt><trkpt lat="40.8189567" lon="8.4600667"><ele>2.0</ele><time>2026-03-28T11:06:09.385Z</time></trkpt><trkpt lat="40.8189183" lon="8.4599667"><ele>2.5</ele><time>2026-03-28T11:06:10.386Z</time></trkpt><trkpt lat="40.8188367" lon="8.4599133"><ele>3.0</ele><time>2026-03-28T11:06:11.386Z</time></trkpt><trkpt lat="40.8187483" lon="8.459885"><ele>3.5</ele><time>2026-03-28T11:06:12.386Z</time></trkpt><trkpt lat="40.818675" lon="8.4598433"><ele>4.0</ele><time>2026-03-28T11:06:13.386Z</time></trkpt><trkpt lat="40.81863" lon="8.4597567"><ele>4.5</ele><time>2026-03-28T11:06:14.386Z</time></trkpt><trkpt lat="40.818605" lon="8.459645"><ele>5.0</ele><time>2026-03-28T11:06:15.385Z</time></trkpt><trkpt lat="40.8185883" lon="8.4594967"><ele>5.0</ele><time>2026-03-28T11:06:16.386Z</time></trkpt><trkpt lat="40.818575" lon="8.45932"><ele>5.0</ele><time>2026-03-28T11:06:17.386Z</time></trkpt><trkpt lat="40.8185567" lon="8.4591283"><ele>5.0</ele><time>2026-03-28T11:06:18.386Z</time></trkpt><trkpt lat="40.8185317" lon="8.45891"><ele>5.0</ele><time>2026-03-28T11:06:19.385Z</time></trkpt><trkpt lat="40.8185033" lon="8.4587133"><ele>7.666666666666666</ele><time>2026-03-28T11:06:20.386Z</time></trkpt><trkpt lat="40.81848" lon="8.4584967"><ele>10.333333333333332</ele><time>2026-03-28T11:06:21.386Z</time></trkpt><trkpt lat="40.8184533" lon="8.458285"><ele>13.0</ele><time>2026-03-28T11:06:22.386Z</time></trkpt><trkpt lat="40.8184467" lon="8.458075"><ele>12.666666666666666</ele><time>2026-03-28T11:06:23.386Z</time></trkpt><trkpt lat="40.8184683" lon="8.4578783"><ele>12.333333333333332</ele><time>2026-03-28T11:06:24.386Z</time></trkpt><trkpt lat="40.81854" lon="8.4576567"><ele>12.0</ele><time>2026-03-28T11:06:25.385Z</time></trkpt><trkpt lat="40.81864" lon="8.457465"><ele>12.0</ele><time>2026-03-28T11:06:26.385Z</time></trkpt><trkpt lat="40.8187517" lon="8.45728"><ele>12.0</ele><time>2026-03-28T11:06:27.386Z</time></trkpt><trkpt lat="40.8188567" lon="8.457105"><ele>12.0</ele><time>2026-03-28T11:06:28.386Z</time></trkpt><trkpt lat="40.818955" lon="8.4569133"><ele>13.333333333333332</ele><time>2026-03-28T11:06:29.386Z</time></trkpt><trkpt lat="40.8190417" lon="8.4567067"><ele>14.666666666666666</ele><time>2026-03-28T11:06:30.386Z</time></trkpt><trkpt lat="40.819125" lon="8.4565067"><ele>16.0</ele><time>2026-03-28T11:06:31.386Z</time></trkpt><trkpt lat="40.8191983" lon="8.45629"><ele>17.666666666666664</ele><time>2026-03-28T11:06:32.385Z</time></trkpt><trkpt lat="40.8192683" lon="8.4560733"><ele>19.333333333333332</ele><time>2026-03-28T11:06:33.385Z</time></trkpt><trkpt lat="40.8193317" lon="8.4558633"><ele>21.0</ele><time>2026-03-28T11:06:34.386Z</time></trkpt><trkpt lat="40.8193967" lon="8.455645"><ele>17.666666666666668</ele><time>2026-03-28T11:06:35.386Z</time></trkpt><trkpt lat="40.8194583" lon="8.455435"><ele>14.333333333333332</ele><time>2026-03-28T11:06:36.386Z</time></trkpt><trkpt lat="40.81953" lon="8.455235"><ele>11.0</ele><time>2026-03-28T11:06:37.385Z</time></trkpt><trkpt lat="40.8195883" lon="8.4550333"><ele>11.0</ele><time>2026-03-28T11:06:38.385Z</time></trkpt><trkpt lat="40.819645" lon="8.4548333"><ele>11.0</ele><time>2026-03-28T11:06:39.386Z</time></trkpt><trkpt lat="40.8197067" lon="8.4546267"><ele>11.0</ele><time>2026-03-28T11:06:40.386Z</time></trkpt><trkpt lat="40.81977" lon="8.454415"><ele>12.0</ele><time>2026-03-28T11:06:41.386Z</time></trkpt><trkpt lat="40.8198217" lon="8.454205"><ele>13.0</ele><time>2026-03-28T11:06:42.386Z</time></trkpt><trkpt lat="40.8198667" lon="8.4539967"><ele>14.0</ele><time>2026-03-28T11:06:43.386Z</time></trkpt><trkpt lat="40.81992" lon="8.453785"><ele>15.666666666666668</ele><time>2026-03-28T11:06:44.386Z</time></trkpt><trkpt lat="40.8199867" lon="8.4535667"><ele>17.333333333333332</ele><time>2026-03-28T11:06:45.386Z</time></trkpt><trkpt lat="40.820045" lon="8.4533467"><ele>19.0</ele><time>2026-03-28T11:06:46.386Z</time></trkpt><trkpt lat="40.8201183" lon="8.453115"><ele>15.333333333333332</ele><time>2026-03-28T11:06:47.385Z</time></trkpt><trkpt lat="40.8201833" lon="8.452895"><ele>11.666666666666666</ele><time>2026-03-28T11:06:48.386Z</time></trkpt><trkpt lat="40.8202517" lon="8.4526667"><ele>8.0</ele><time>2026-03-28T11:06:49.386Z</time></trkpt><trkpt lat="40.820315" lon="8.4524417"><ele>8.0</ele><time>2026-03-28T11:06:50.386Z</time></trkpt><trkpt lat="40.8203833" lon="8.4522167"><ele>8.0</ele><time>2026-03-28T11:06:51.386Z</time></trkpt><trkpt lat="40.8204517" lon="8.4519917"><ele>8.0</ele><time>2026-03-28T11:06:52.386Z</time></trkpt><trkpt lat="40.82052" lon="8.4517733"><ele>8.333333333333332</ele><time>2026-03-28T11:06:53.386Z</time></trkpt><trkpt lat="40.820595" lon="8.4515567"><ele>8.666666666666666</ele><time>2026-03-28T11:06:54.386Z</time></trkpt><trkpt lat="40.82065" lon="8.4513283"><ele>9.0</ele><time>2026-03-28T11:06:55.386Z</time></trkpt><trkpt lat="40.8207083" lon="8.4511"><ele>10.666666666666668</ele><time>2026-03-28T11:06:56.386Z</time></trkpt><trkpt lat="40.8207617" lon="8.4508733"><ele>12.333333333333334</ele><time>2026-03-28T11:06:57.386Z</time></trkpt><trkpt lat="40.8208" lon="8.4506483"><ele>14.0</ele><time>2026-03-28T11:06:58.386Z</time></trkpt><trkpt lat="40.82084" lon="8.45041"><ele>17.333333333333336</ele><time>2026-03-28T11:06:59.386Z</time></trkpt><trkpt lat="40.8208867" lon="8.45018"><ele>20.666666666666668</ele><time>2026-03-28T11:07:00.385Z</time></trkpt><trkpt lat="40.82093" lon="8.4499383"><ele>24.0</ele><time>2026-03-28T11:07:01.386Z</time></trkpt><trkpt lat="40.820985" lon="8.4497067"><ele>18.0</ele><time>2026-03-28T11:07:02.386Z</time></trkpt><trkpt lat="40.8210383" lon="8.4494733"><ele>12.0</ele><time>2026-03-28T11:07:03.386Z</time></trkpt><trkpt lat="40.82109" lon="8.4492567"><ele>6.0</ele><time>2026-03-28T11:07:04.386Z</time></trkpt><trkpt lat="40.8211383" lon="8.44905"><ele>6.0</ele><time>2026-03-28T11:07:05.386Z</time></trkpt><trkpt lat="40.8211967" lon="8.4488383"><ele>6.0</ele><time>2026-03-28T11:07:06.386Z</time></trkpt><trkpt lat="40.8212617" lon="8.4486317"><ele>6.0</ele><time>2026-03-28T11:07:07.386Z</time></trkpt><trkpt lat="40.821345" lon="8.4484317"><ele>8.0</ele><time>2026-03-28T11:07:08.386Z</time></trkpt><trkpt lat="40.8214267" lon="8.4482283"><ele>10.0</ele><time>2026-03-28T11:07:09.386Z</time></trkpt><trkpt lat="40.821525" lon="8.44802"><ele>12.0</ele><time>2026-03-28T11:07:10.386Z</time></trkpt><trkpt lat="40.8216267" lon="8.447815"><ele>14.666666666666668</ele><time>2026-03-28T11:07:11.386Z</time></trkpt><trkpt lat="40.82173" lon="8.4476067"><ele>17.333333333333336</ele><time>2026-03-28T11:07:12.386Z</time></trkpt><trkpt lat="40.8218317" lon="8.44741"><ele>20.0</ele><time>2026-03-28T11:07:13.385Z</time></trkpt><trkpt lat="40.82193" lon="8.4471933"><ele>16.333333333333336</ele><time>2026-03-28T11:07:14.386Z</time></trkpt><trkpt lat="40.8220367" lon="8.4469817"><ele>12.666666666666668</ele><time>2026-03-28T11:07:15.385Z</time></trkpt><trkpt lat="40.8221467" lon="8.4467667"><ele>9.0</ele><time>2026-03-28T11:07:16.386Z</time></trkpt><trkpt lat="40.8222567" lon="8.4465333"><ele>9.0</ele><time>2026-03-28T11:07:17.386Z</time></trkpt><trkpt lat="40.8223733" lon="8.4462967"><ele>9.0</ele><time>2026-03-28T11:07:18.385Z</time></trkpt><trkpt lat="40.8225017" lon="8.4460667"><ele>9.0</ele><time>2026-03-28T11:07:19.386Z</time></trkpt><trkpt lat="40.8226283" lon="8.4458533"><ele>9.666666666666666</ele><time>2026-03-28T11:07:20.385Z</time></trkpt><trkpt lat="40.82276" lon="8.4456367"><ele>10.333333333333332</ele><time>2026-03-28T11:07:21.386Z</time></trkpt><trkpt lat="40.8229017" lon="8.4454217"><ele>11.0</ele><time>2026-03-28T11:07:22.386Z</time></trkpt><trkpt lat="40.8230367" lon="8.445205"><ele>11.0</ele><time>2026-03-28T11:07:23.386Z</time></trkpt><trkpt lat="40.8231733" lon="8.4450017"><ele>11.0</ele><time>2026-03-28T11:07:24.386Z</time></trkpt><trkpt lat="40.8233117" lon="8.4447933"><ele>11.0</ele><time>2026-03-28T11:07:25.386Z</time></trkpt><trkpt lat="40.82345" lon="8.4445817"><ele>9.0</ele><time>2026-03-28T11:07:26.385Z</time></trkpt><trkpt lat="40.8235833" lon="8.4443567"><ele>7.0</ele><time>2026-03-28T11:07:27.386Z</time></trkpt><trkpt lat="40.8237067" lon="8.4441367"><ele>5.0</ele><time>2026-03-28T11:07:28.386Z</time></trkpt><trkpt lat="40.8238117" lon="8.44391"><ele>7.0</ele><time>2026-03-28T11:07:29.386Z</time></trkpt><trkpt lat="40.82391" lon="8.4436683"><ele>9.0</ele><time>2026-03-28T11:07:30.386Z</time></trkpt><trkpt lat="40.82401" lon="8.4434183"><ele>11.0</ele><time>2026-03-28T11:07:31.386Z</time></trkpt><trkpt lat="40.8241017" lon="8.443155"><ele>12.0</ele><time>2026-03-28T11:07:32.385Z</time></trkpt><trkpt lat="40.8241967" lon="8.4428933"><ele>13.0</ele><time>2026-03-28T11:07:33.386Z</time></trkpt><trkpt lat="40.8242867" lon="8.44265"><ele>14.0</ele><time>2026-03-28T11:07:34.386Z</time></trkpt><trkpt lat="40.8243817" lon="8.4424133"><ele>12.333333333333334</ele><time>2026-03-28T11:07:35.386Z</time></trkpt><trkpt lat="40.8244717" lon="8.4421767"><ele>10.666666666666668</ele><time>2026-03-28T11:07:36.386Z</time></trkpt><trkpt lat="40.8245617" lon="8.4419317"><ele>9.0</ele><time>2026-03-28T11:07:37.386Z</time></trkpt><trkpt lat="40.8246567" lon="8.4416817"><ele>9.0</ele><time>2026-03-28T11:07:38.386Z</time></trkpt><trkpt lat="40.8247667" lon="8.4414317"><ele>9.0</ele><time>2026-03-28T11:07:39.386Z</time></trkpt><trkpt lat="40.824865" lon="8.4412"><ele>9.0</ele><time>2026-03-28T11:07:40.386Z</time></trkpt><trkpt lat="40.8249633" lon="8.44097"><ele>8.0</ele><time>2026-03-28T11:07:41.385Z</time></trkpt><trkpt lat="40.8250683" lon="8.4407383"><ele>7.0</ele><time>2026-03-28T11:07:42.386Z</time></trkpt><trkpt lat="40.825185" lon="8.4405017"><ele>6.0</ele><time>2026-03-28T11:07:43.386Z</time></trkpt><trkpt lat="40.8253033" lon="8.4402817"><ele>6.0</ele><time>2026-03-28T11:07:44.385Z</time></trkpt><trkpt lat="40.8254183" lon="8.4400617"><ele>6.0</ele><time>2026-03-28T11:07:45.386Z</time></trkpt><trkpt lat="40.825535" lon="8.4398417"><ele>6.0</ele><time>2026-03-28T11:07:46.386Z</time></trkpt><trkpt lat="40.8256567" lon="8.43962"><ele>4.333333333333333</ele><time>2026-03-28T11:07:47.385Z</time></trkpt><trkpt lat="40.8257817" lon="8.4394"><ele>2.6666666666666665</ele><time>2026-03-28T11:07:48.385Z</time></trkpt><trkpt lat="40.8259117" lon="8.4391683"><ele>1.0</ele><time>2026-03-28T11:07:49.386Z</time></trkpt><trkpt lat="40.8260233" lon="8.438945"><ele>2.3333333333333335</ele><time>2026-03-28T11:07:50.386Z</time></trkpt><trkpt lat="40.8261417" lon="8.4387283"><ele>3.666666666666667</ele><time>2026-03-28T11:07:51.385Z</time></trkpt><trkpt lat="40.8262567" lon="8.4385167"><ele>5.0</ele><time>2026-03-28T11:07:52.385Z</time></trkpt><trkpt lat="40.82638" lon="8.4383067"><ele>5.0</ele><time>2026-03-28T11:07:53.386Z</time></trkpt><trkpt lat="40.8265033" lon="8.438095"><ele>5.0</ele><time>2026-03-28T11:07:54.386Z</time></trkpt><trkpt lat="40.826625" lon="8.4378967"><ele>5.0</ele><time>2026-03-28T11:07:55.386Z</time></trkpt><trkpt lat="40.8267383" lon="8.4376867"><ele>3.666666666666667</ele><time>2026-03-28T11:07:56.386Z</time></trkpt><trkpt lat="40.8268517" lon="8.4374817"><ele>2.3333333333333335</ele><time>2026-03-28T11:07:57.386Z</time></trkpt><trkpt lat="40.82697" lon="8.437275"><ele>1.0</ele><time>2026-03-28T11:07:58.385Z</time></trkpt><trkpt lat="40.827075" lon="8.4370767"><ele>4.0</ele><time>2026-03-28T11:07:59.386Z</time></trkpt><trkpt lat="40.8271783" lon="8.436875"><ele>7.0</ele><time>2026-03-28T11:08:00.386Z</time></trkpt><trkpt lat="40.8272767" lon="8.43667"><ele>10.0</ele><time>2026-03-28T11:08:01.385Z</time></trkpt><trkpt lat="40.8273633" lon="8.4364733"><ele>14.666666666666668</ele><time>2026-03-28T11:08:02.386Z</time></trkpt><trkpt lat="40.82744" lon="8.4362533"><ele>19.333333333333332</ele><time>2026-03-28T11:08:03.386Z</time></trkpt><trkpt lat="40.8275083" lon="8.4360367"><ele>24.0</ele><time>2026-03-28T11:08:04.386Z</time></trkpt><trkpt lat="40.82758" lon="8.43581"><ele>20.0</ele><time>2026-03-28T11:08:05.386Z</time></trkpt><trkpt lat="40.827645" lon="8.4355883"><ele>16.0</ele><time>2026-03-28T11:08:06.386Z</time></trkpt><trkpt lat="40.8277167" lon="8.43537"><ele>12.0</ele><time>2026-03-28T11:08:07.386Z</time></trkpt><trkpt lat="40.8277833" lon="8.4351433"><ele>12.0</ele><time>2026-03-28T11:08:08.385Z</time></trkpt><trkpt lat="40.827855" lon="8.43492"><ele>12.0</ele><time>2026-03-28T11:08:09.385Z</time></trkpt><trkpt lat="40.8279183" lon="8.4346983"><ele>12.0</ele><time>2026-03-28T11:08:10.386Z</time></trkpt><trkpt lat="40.8279783" lon="8.4344883"><ele>16.0</ele><time>2026-03-28T11:08:11.386Z</time></trkpt><trkpt lat="40.8280467" lon="8.43427"><ele>20.0</ele><time>2026-03-28T11:08:12.386Z</time></trkpt><trkpt lat="40.8281183" lon="8.4340483"><ele>24.0</ele><time>2026-03-28T11:08:13.385Z</time></trkpt><trkpt lat="40.8281817" lon="8.4338233"><ele>26.666666666666664</ele><time>2026-03-28T11:08:14.386Z</time></trkpt><trkpt lat="40.8282517" lon="8.4336017"><ele>29.333333333333332</ele><time>2026-03-28T11:08:15.386Z</time></trkpt><trkpt lat="40.82833" lon="8.43338"><ele>32.0</ele><time>2026-03-28T11:08:16.386Z</time></trkpt><trkpt lat="40.8284117" lon="8.433165"><ele>27.0</ele><time>2026-03-28T11:08:17.386Z</time></trkpt><trkpt lat="40.8285033" lon="8.4329483"><ele>22.0</ele><time>2026-03-28T11:08:18.386Z</time></trkpt><trkpt lat="40.8285967" lon="8.43274"><ele>17.0</ele><time>2026-03-28T11:08:19.385Z</time></trkpt><trkpt lat="40.8286933" lon="8.4325383"><ele>17.0</ele><time>2026-03-28T11:08:20.386Z</time></trkpt><trkpt lat="40.8287933" lon="8.4323283"><ele>17.0</ele><time>2026-03-28T11:08:21.386Z</time></trkpt><trkpt lat="40.8288867" lon="8.4321333"><ele>17.0</ele><time>2026-03-28T11:08:22.386Z</time></trkpt><trkpt lat="40.8289867" lon="8.43193"><ele>16.666666666666668</ele><time>2026-03-28T11:08:23.385Z</time></trkpt><trkpt lat="40.8290917" lon="8.4317217"><ele>16.333333333333332</ele><time>2026-03-28T11:08:24.386Z</time></trkpt><trkpt lat="40.8291983" lon="8.431525"><ele>16.0</ele><time>2026-03-28T11:08:25.385Z</time></trkpt><trkpt lat="40.8293133" lon="8.4313333"><ele>18.333333333333332</ele><time>2026-03-28T11:08:26.386Z</time></trkpt><trkpt lat="40.8294333" lon="8.4311383"><ele>20.666666666666668</ele><time>2026-03-28T11:08:27.386Z</time></trkpt><trkpt lat="40.8295433" lon="8.4309517"><ele>23.0</ele><time>2026-03-28T11:08:28.385Z</time></trkpt><trkpt lat="40.829665" lon="8.4307483"><ele>23.0</ele><time>2026-03-28T11:08:29.385Z</time></trkpt><trkpt lat="40.8297833" lon="8.430545"><ele>23.0</ele><time>2026-03-28T11:08:30.386Z</time></trkpt><trkpt lat="40.8298983" lon="8.43034"><ele>23.0</ele><time>2026-03-28T11:08:31.385Z</time></trkpt><trkpt lat="40.8300117" lon="8.4301433"><ele>22.333333333333336</ele><time>2026-03-28T11:08:32.386Z</time></trkpt><trkpt lat="40.8301233" lon="8.4299533"><ele>21.666666666666668</ele><time>2026-03-28T11:08:33.386Z</time></trkpt><trkpt lat="40.8302383" lon="8.4297617"><ele>21.0</ele><time>2026-03-28T11:08:34.385Z</time></trkpt><trkpt lat="40.8303483" lon="8.4295667"><ele>23.666666666666664</ele><time>2026-03-28T11:08:35.385Z</time></trkpt><trkpt lat="40.8304633" lon="8.429365"><ele>26.333333333333332</ele><time>2026-03-28T11:08:36.386Z</time></trkpt><trkpt lat="40.8305817" lon="8.42917"><ele>29.0</ele><time>2026-03-28T11:08:37.385Z</time></trkpt><trkpt lat="40.8307033" lon="8.4289817"><ele>28.666666666666664</ele><time>2026-03-28T11:08:38.386Z</time></trkpt><trkpt lat="40.830805" lon="8.4287983"><ele>28.333333333333336</ele><time>2026-03-28T11:08:39.386Z</time></trkpt><trkpt lat="40.83091" lon="8.42861"><ele>28.0</ele><time>2026-03-28T11:08:40.385Z</time></trkpt><trkpt lat="40.8310117" lon="8.4284333"><ele>28.0</ele><time>2026-03-28T11:08:41.385Z</time></trkpt><trkpt lat="40.83112" lon="8.4282517"><ele>28.0</ele><time>2026-03-28T11:08:42.385Z</time></trkpt><trkpt lat="40.8312217" lon="8.428075"><ele>28.0</ele><time>2026-03-28T11:08:43.386Z</time></trkpt><trkpt lat="40.8313283" lon="8.4278917"><ele>28.0</ele><time>2026-03-28T11:08:44.386Z</time></trkpt><trkpt lat="40.831425" lon="8.4277133"><ele>28.0</ele><time>2026-03-28T11:08:45.386Z</time></trkpt><trkpt lat="40.8315267" lon="8.4275433"><ele>28.0</ele><time>2026-03-28T11:08:46.386Z</time></trkpt><trkpt lat="40.8316317" lon="8.42736"><ele>28.0</ele><time>2026-03-28T11:08:47.386Z</time></trkpt><trkpt lat="40.8317367" lon="8.42718"><ele>28.0</ele><time>2026-03-28T11:08:48.386Z</time></trkpt><trkpt lat="40.8318317" lon="8.4270217"><ele>28.0</ele><time>2026-03-28T11:08:49.386Z</time></trkpt><trkpt lat="40.83193" lon="8.4268783"><ele>23.0</ele><time>2026-03-28T11:08:50.386Z</time></trkpt><trkpt lat="40.8320117" lon="8.4267433"><ele>18.0</ele><time>2026-03-28T11:08:51.386Z</time></trkpt><trkpt lat="40.8320967" lon="8.426625"><ele>13.0</ele><time>2026-03-28T11:08:52.385Z</time></trkpt><trkpt lat="40.8321767" lon="8.4265167"><ele>8.0</ele><time>2026-03-28T11:08:53.385Z</time></trkpt><trkpt lat="40.8322383" lon="8.4264267"><ele>8.0</ele><time>2026-03-28T11:08:54.386Z</time></trkpt><trkpt lat="40.83229" lon="8.42633"><ele>8.0</ele><time>2026-03-28T11:08:55.385Z</time></trkpt><trkpt lat="40.8323167" lon="8.4262317"><ele>8.0</ele><time>2026-03-28T11:08:56.386Z</time></trkpt><trkpt lat="40.8322583" lon="8.4260917"><ele>8.0</ele><time>2026-03-28T11:08:58.386Z</time></trkpt><trkpt lat="40.8321733" lon="8.4260767"><ele>8.0</ele><time>2026-03-28T11:08:59.386Z</time></trkpt><trkpt lat="40.8320783" lon="8.42607"><ele>11.75</ele><time>2026-03-28T11:09:00.386Z</time></trkpt><trkpt lat="40.83198" lon="8.42605"><ele>15.5</ele><time>2026-03-28T11:09:01.385Z</time></trkpt><trkpt lat="40.8318567" lon="8.425995"><ele>19.25</ele><time>2026-03-28T11:09:02.386Z</time></trkpt><trkpt lat="40.8317017" lon="8.4258933"><ele>23.0</ele><time>2026-03-28T11:09:03.385Z</time></trkpt><trkpt lat="40.8315483" lon="8.4257683"><ele>23.666666666666668</ele><time>2026-03-28T11:09:04.385Z</time></trkpt><trkpt lat="40.83139" lon="8.4256167"><ele>24.333333333333336</ele><time>2026-03-28T11:09:05.386Z</time></trkpt><trkpt lat="40.831225" lon="8.4254783"><ele>25.0</ele><time>2026-03-28T11:09:06.386Z</time></trkpt><trkpt lat="40.8310383" lon="8.425325"><ele>25.0</ele><time>2026-03-28T11:09:07.386Z</time></trkpt><trkpt lat="40.830855" lon="8.4251717"><ele>25.0</ele><time>2026-03-28T11:09:08.386Z</time></trkpt><trkpt lat="40.8306683" lon="8.42502"><ele>25.0</ele><time>2026-03-28T11:09:09.386Z</time></trkpt><trkpt lat="40.8304783" lon="8.424855"><ele>25.0</ele><time>2026-03-28T11:09:10.386Z</time></trkpt><trkpt lat="40.83029" lon="8.4246917"><ele>25.0</ele><time>2026-03-28T11:09:11.386Z</time></trkpt><trkpt lat="40.8300883" lon="8.42453"><ele>24.0</ele><time>2026-03-28T11:09:12.385Z</time></trkpt><trkpt lat="40.82989" lon="8.4243767"><ele>23.0</ele><time>2026-03-28T11:09:13.385Z</time></trkpt><trkpt lat="40.8297033" lon="8.4242317"><ele>22.0</ele><time>2026-03-28T11:09:14.386Z</time></trkpt><trkpt lat="40.8295017" lon="8.4240783"><ele>22.0</ele><time>2026-03-28T11:09:15.386Z</time></trkpt><trkpt lat="40.8293" lon="8.423925"><ele>22.0</ele><time>2026-03-28T11:09:16.386Z</time></trkpt><trkpt lat="40.8291067" lon="8.4237633"><ele>22.0</ele><time>2026-03-28T11:09:17.386Z</time></trkpt><trkpt lat="40.828905" lon="8.423615"><ele>22.0</ele><time>2026-03-28T11:09:18.385Z</time></trkpt><trkpt lat="40.8287133" lon="8.4234683"><ele>22.0</ele><time>2026-03-28T11:09:19.386Z</time></trkpt><trkpt lat="40.8285033" lon="8.42331"><ele>22.0</ele><time>2026-03-28T11:09:20.386Z</time></trkpt><trkpt lat="40.8283133" lon="8.42315"><ele>22.0</ele><time>2026-03-28T11:09:21.386Z</time></trkpt><trkpt lat="40.828115" lon="8.42299"><ele>22.0</ele><time>2026-03-28T11:09:22.386Z</time></trkpt><trkpt lat="40.8279317" lon="8.422815"><ele>22.666666666666664</ele><time>2026-03-28T11:09:23.386Z</time></trkpt><trkpt lat="40.827765" lon="8.42263"><ele>23.333333333333332</ele><time>2026-03-28T11:09:24.386Z</time></trkpt><trkpt lat="40.82761" lon="8.4224233"><ele>24.0</ele><time>2026-03-28T11:09:25.386Z</time></trkpt><trkpt lat="40.827465" lon="8.4222"><ele>24.333333333333336</ele><time>2026-03-28T11:09:26.385Z</time></trkpt><trkpt lat="40.82732" lon="8.4219733"><ele>24.666666666666668</ele><time>2026-03-28T11:09:27.386Z</time></trkpt><trkpt lat="40.8271867" lon="8.4217367"><ele>25.0</ele><time>2026-03-28T11:09:28.385Z</time></trkpt><trkpt lat="40.827035" lon="8.4215033"><ele>25.0</ele><time>2026-03-28T11:09:29.386Z</time></trkpt><trkpt lat="40.8268883" lon="8.4212783"><ele>25.0</ele><time>2026-03-28T11:09:30.386Z</time></trkpt><trkpt lat="40.82674" lon="8.4210667"><ele>25.0</ele><time>2026-03-28T11:09:31.386Z</time></trkpt><trkpt lat="40.8265983" lon="8.4208667"><ele>25.25</ele><time>2026-03-28T11:09:32.386Z</time></trkpt><trkpt lat="40.8264717" lon="8.4206917"><ele>25.5</ele><time>2026-03-28T11:09:33.386Z</time></trkpt><trkpt lat="40.8263817" lon="8.4205683"><ele>25.75</ele><time>2026-03-28T11:09:34.385Z</time></trkpt><trkpt lat="40.8263033" lon="8.4204467"><ele>26.0</ele><time>2026-03-28T11:09:35.386Z</time></trkpt><trkpt lat="40.8262383" lon="8.4203133"><ele>26.0</ele><time>2026-03-28T11:09:36.386Z</time></trkpt><trkpt lat="40.8261733" lon="8.4201533"><ele>26.0</ele><time>2026-03-28T11:09:37.386Z</time></trkpt><trkpt lat="40.826125" lon="8.419995"><ele>26.0</ele><time>2026-03-28T11:09:38.386Z</time></trkpt><trkpt lat="40.8260817" lon="8.419855"><ele>26.0</ele><time>2026-03-28T11:09:39.386Z</time></trkpt><trkpt lat="40.8260967" lon="8.41974"><ele>26.0</ele><time>2026-03-28T11:09:40.385Z</time></trkpt><trkpt lat="40.82614" lon="8.4196517"><ele>26.0</ele><time>2026-03-28T11:09:41.386Z</time></trkpt><trkpt lat="40.8261883" lon="8.4195883"><ele>26.0</ele><time>2026-03-28T11:09:42.386Z</time></trkpt><trkpt lat="40.8262383" lon="8.4195317"><ele>26.0</ele><time>2026-03-28T11:09:43.386Z</time></trkpt><trkpt lat="40.82629" lon="8.4194717"><ele>26.0</ele><time>2026-03-28T11:09:44.386Z</time></trkpt><trkpt lat="40.8263383" lon="8.4194017"><ele>26.0</ele><time>2026-03-28T11:09:45.386Z</time></trkpt><trkpt lat="40.8263867" lon="8.4193283"><ele>26.0</ele><time>2026-03-28T11:09:46.386Z</time></trkpt><trkpt lat="40.82643" lon="8.419255"><ele>25.999999999999996</ele><time>2026-03-28T11:09:47.385Z</time></trkpt><trkpt lat="40.82647" lon="8.41918"><ele>26.0</ele><time>2026-03-28T11:09:48.386Z</time></trkpt><trkpt lat="40.8264983" lon="8.4191017"><ele>26.0</ele><time>2026-03-28T11:09:49.386Z</time></trkpt><trkpt lat="40.82653" lon="8.41902"><ele>26.0</ele><time>2026-03-28T11:09:50.386Z</time></trkpt><trkpt lat="40.82656" lon="8.4189433"><ele>25.999999999999996</ele><time>2026-03-28T11:09:51.386Z</time></trkpt><trkpt lat="40.826595" lon="8.4187883"><ele>26.0</ele><time>2026-03-28T11:09:53.386Z</time></trkpt><trkpt lat="40.8265617" lon="8.4186917"><ele>26.0</ele><time>2026-03-28T11:09:55.386Z</time></trkpt><trkpt lat="40.826505" lon="8.4187283"><ele>26.0</ele><time>2026-03-28T11:09:57.385Z</time></trkpt><trkpt lat="40.8264367" lon="8.4188783"><ele>26.0</ele><time>2026-03-28T11:09:59.386Z</time></trkpt><trkpt lat="40.826375" lon="8.418975"><ele>26.0</ele><time>2026-03-28T11:10:00.386Z</time></trkpt><trkpt lat="40.8263" lon="8.4190633"><ele>26.0</ele><time>2026-03-28T11:10:01.386Z</time></trkpt><trkpt lat="40.8262267" lon="8.4191283"><ele>26.0</ele><time>2026-03-28T11:10:02.385Z</time></trkpt><trkpt lat="40.8261317" lon="8.4191167"><ele>26.0</ele><time>2026-03-28T11:10:03.386Z</time></trkpt><trkpt lat="40.8260517" lon="8.4190883"><ele>26.0</ele><time>2026-03-28T11:10:04.386Z</time></trkpt><trkpt lat="40.825965" lon="8.4189917"><ele>26.0</ele><time>2026-03-28T11:10:05.386Z</time></trkpt><trkpt lat="40.8258683" lon="8.418865"><ele>26.0</ele><time>2026-03-28T11:10:06.386Z</time></trkpt><trkpt lat="40.825765" lon="8.41873"><ele>26.5</ele><time>2026-03-28T11:10:07.386Z</time></trkpt><trkpt lat="40.8256667" lon="8.4185983"><ele>27.0</ele><time>2026-03-28T11:10:08.386Z</time></trkpt><trkpt lat="40.825585" lon="8.4184733"><ele>27.5</ele><time>2026-03-28T11:10:09.386Z</time></trkpt><trkpt lat="40.8255133" lon="8.418355"><ele>28.0</ele><time>2026-03-28T11:10:10.386Z</time></trkpt><trkpt lat="40.8254383" lon="8.4182517"><ele>28.000000000000004</ele><time>2026-03-28T11:10:11.386Z</time></trkpt><trkpt lat="40.8253667" lon="8.41816"><ele>28.0</ele><time>2026-03-28T11:10:12.385Z</time></trkpt><trkpt lat="40.8253133" lon="8.4181"><ele>28.0</ele><time>2026-03-28T11:10:13.386Z</time></trkpt><trkpt lat="40.8252233" lon="8.41806"><ele>28.0</ele><time>2026-03-28T11:10:15.386Z</time></trkpt><trkpt lat="40.8251617" lon="8.4181217"><ele>28.000000000000004</ele><time>2026-03-28T11:10:16.386Z</time></trkpt><trkpt lat="40.825085" lon="8.4182183"><ele>28.0</ele><time>2026-03-28T11:10:17.386Z</time></trkpt><trkpt lat="40.8249917" lon="8.4183467"><ele>27.666666666666668</ele><time>2026-03-28T11:10:18.386Z</time></trkpt><trkpt lat="40.8248867" lon="8.4185"><ele>27.333333333333336</ele><time>2026-03-28T11:10:19.385Z</time></trkpt><trkpt lat="40.82477" lon="8.4186617"><ele>27.0</ele><time>2026-03-28T11:10:20.386Z</time></trkpt><trkpt lat="40.8246567" lon="8.41881"><ele>27.0</ele><time>2026-03-28T11:10:21.386Z</time></trkpt><trkpt lat="40.8245617" lon="8.4189417"><ele>27.0</ele><time>2026-03-28T11:10:22.386Z</time></trkpt><trkpt lat="40.8244667" lon="8.4190567"><ele>27.0</ele><time>2026-03-28T11:10:23.386Z</time></trkpt><trkpt lat="40.8243733" lon="8.4191333"><ele>27.0</ele><time>2026-03-28T11:10:24.386Z</time></trkpt><trkpt lat="40.82427" lon="8.4191783"><ele>27.5</ele><time>2026-03-28T11:10:25.386Z</time></trkpt><trkpt lat="40.824155" lon="8.4191983"><ele>28.0</ele><time>2026-03-28T11:10:26.386Z</time></trkpt><trkpt lat="40.8240183" lon="8.4192033"><ele>28.5</ele><time>2026-03-28T11:10:27.385Z</time></trkpt><trkpt lat="40.8238583" lon="8.4192033"><ele>29.0</ele><time>2026-03-28T11:10:28.385Z</time></trkpt><trkpt lat="40.8237117" lon="8.4192017"><ele>29.0</ele><time>2026-03-28T11:10:29.386Z</time></trkpt><trkpt lat="40.8235483" lon="8.4192083"><ele>29.0</ele><time>2026-03-28T11:10:30.386Z</time></trkpt><trkpt lat="40.82338" lon="8.4192083"><ele>29.0</ele><time>2026-03-28T11:10:31.386Z</time></trkpt><trkpt lat="40.8232133" lon="8.41922"><ele>29.25</ele><time>2026-03-28T11:10:32.386Z</time></trkpt><trkpt lat="40.82306" lon="8.4192083"><ele>29.5</ele><time>2026-03-28T11:10:33.385Z</time></trkpt><trkpt lat="40.822915" lon="8.4191817"><ele>29.75</ele><time>2026-03-28T11:10:34.386Z</time></trkpt><trkpt lat="40.8227833" lon="8.419135"><ele>30.0</ele><time>2026-03-28T11:10:35.386Z</time></trkpt><trkpt lat="40.82265" lon="8.4190483"><ele>31.0</ele><time>2026-03-28T11:10:36.386Z</time></trkpt><trkpt lat="40.8225067" lon="8.4189367"><ele>32.0</ele><time>2026-03-28T11:10:37.386Z</time></trkpt><trkpt lat="40.8223683" lon="8.4188133"><ele>33.0</ele><time>2026-03-28T11:10:38.386Z</time></trkpt><trkpt lat="40.82224" lon="8.4186683"><ele>33.0</ele><time>2026-03-28T11:10:39.386Z</time></trkpt><trkpt lat="40.822115" lon="8.418525"><ele>33.0</ele><time>2026-03-28T11:10:40.386Z</time></trkpt><trkpt lat="40.8220033" lon="8.4183967"><ele>33.0</ele><time>2026-03-28T11:10:41.385Z</time></trkpt><trkpt lat="40.8219" lon="8.4182783"><ele>33.6</ele><time>2026-03-28T11:10:42.386Z</time></trkpt><trkpt lat="40.8218083" lon="8.418185"><ele>34.199999999999996</ele><time>2026-03-28T11:10:43.386Z</time></trkpt><trkpt lat="40.8217333" lon="8.4180883"><ele>34.8</ele><time>2026-03-28T11:10:44.385Z</time></trkpt><trkpt lat="40.8216867" lon="8.41801"><ele>35.4</ele><time>2026-03-28T11:10:45.386Z</time></trkpt><trkpt lat="40.82165" lon="8.417865"><ele>36.0</ele><time>2026-03-28T11:10:47.386Z</time></trkpt><trkpt lat="40.82165" lon="8.4177717"><ele>36.2</ele><time>2026-03-28T11:10:48.386Z</time></trkpt><trkpt lat="40.8216633" lon="8.4176617"><ele>36.400000000000006</ele><time>2026-03-28T11:10:49.386Z</time></trkpt><trkpt lat="40.82169" lon="8.4175317"><ele>36.6</ele><time>2026-03-28T11:10:50.386Z</time></trkpt><trkpt lat="40.821735" lon="8.4174033"><ele>36.800000000000004</ele><time>2026-03-28T11:10:51.386Z</time></trkpt><trkpt lat="40.8218133" lon="8.4172767"><ele>37.0</ele><time>2026-03-28T11:10:52.386Z</time></trkpt><trkpt lat="40.8219017" lon="8.4171567"><ele>36.0</ele><time>2026-03-28T11:10:53.386Z</time></trkpt><trkpt lat="40.8219967" lon="8.4170267"><ele>35.0</ele><time>2026-03-28T11:10:54.386Z</time></trkpt><trkpt lat="40.8220983" lon="8.4168867"><ele>34.0</ele><time>2026-03-28T11:10:55.386Z</time></trkpt><trkpt lat="40.8221967" lon="8.41674"><ele>33.0</ele><time>2026-03-28T11:10:56.385Z</time></trkpt><trkpt lat="40.8223017" lon="8.4165633"><ele>33.0</ele><time>2026-03-28T11:10:57.386Z</time></trkpt><trkpt lat="40.822415" lon="8.4163717"><ele>33.0</ele><time>2026-03-28T11:10:58.386Z</time></trkpt><trkpt lat="40.822545" lon="8.4161767"><ele>33.0</ele><time>2026-03-28T11:10:59.386Z</time></trkpt><trkpt lat="40.8226733" lon="8.4159883"><ele>31.666666666666664</ele><time>2026-03-28T11:11:00.386Z</time></trkpt><trkpt lat="40.8228" lon="8.4158033"><ele>30.333333333333332</ele><time>2026-03-28T11:11:01.386Z</time></trkpt><trkpt lat="40.8229367" lon="8.4156033"><ele>29.0</ele><time>2026-03-28T11:11:02.386Z</time></trkpt><trkpt lat="40.8230667" lon="8.4154033"><ele>28.666666666666664</ele><time>2026-03-28T11:11:03.385Z</time></trkpt><trkpt lat="40.8231933" lon="8.41522"><ele>28.333333333333336</ele><time>2026-03-28T11:11:04.386Z</time></trkpt><trkpt lat="40.823305" lon="8.415035"><ele>28.0</ele><time>2026-03-28T11:11:05.386Z</time></trkpt><trkpt lat="40.8234033" lon="8.4148717"><ele>28.0</ele><time>2026-03-28T11:11:06.386Z</time></trkpt><trkpt lat="40.8235017" lon="8.4147133"><ele>28.0</ele><time>2026-03-28T11:11:07.386Z</time></trkpt><trkpt lat="40.823595" lon="8.4145717"><ele>28.0</ele><time>2026-03-28T11:11:08.385Z</time></trkpt><trkpt lat="40.8236733" lon="8.414455"><ele>28.0</ele><time>2026-03-28T11:11:09.385Z</time></trkpt><trkpt lat="40.823725" lon="8.4143483"><ele>28.000000000000004</ele><time>2026-03-28T11:11:10.386Z</time></trkpt><trkpt lat="40.8237433" lon="8.4142583"><ele>28.0</ele><time>2026-03-28T11:11:11.386Z</time></trkpt><trkpt lat="40.82373" lon="8.4141667"><ele>28.0</ele><time>2026-03-28T11:11:12.386Z</time></trkpt><trkpt lat="40.82369" lon="8.4140717"><ele>28.0</ele><time>2026-03-28T11:11:13.386Z</time></trkpt><trkpt lat="40.82362" lon="8.413995"><ele>28.000000000000004</ele><time>2026-03-28T11:11:14.385Z</time></trkpt><trkpt lat="40.8235433" lon="8.41389"><ele>28.0</ele><time>2026-03-28T11:11:15.385Z</time></trkpt><trkpt lat="40.82346" lon="8.4137467"><ele>28.0</ele><time>2026-03-28T11:11:16.386Z</time></trkpt><trkpt lat="40.82339" lon="8.4135583"><ele>28.0</ele><time>2026-03-28T11:11:17.386Z</time></trkpt><trkpt lat="40.823335" lon="8.413355"><ele>28.0</ele><time>2026-03-28T11:11:18.386Z</time></trkpt><trkpt lat="40.8232917" lon="8.4131367"><ele>27.666666666666668</ele><time>2026-03-28T11:11:19.386Z</time></trkpt><trkpt lat="40.82327" lon="8.4129067"><ele>27.333333333333336</ele><time>2026-03-28T11:11:20.386Z</time></trkpt><trkpt lat="40.8232367" lon="8.4126767"><ele>27.0</ele><time>2026-03-28T11:11:21.386Z</time></trkpt><trkpt lat="40.82324" lon="8.412455"><ele>27.0</ele><time>2026-03-28T11:11:22.386Z</time></trkpt><trkpt lat="40.8232483" lon="8.4122317"><ele>27.0</ele><time>2026-03-28T11:11:23.386Z</time></trkpt><trkpt lat="40.8232717" lon="8.41201"><ele>27.0</ele><time>2026-03-28T11:11:24.386Z</time></trkpt><trkpt lat="40.82331" lon="8.411805"><ele>26.25</ele><time>2026-03-28T11:11:25.385Z</time></trkpt><trkpt lat="40.82336" lon="8.411625"><ele>25.5</ele><time>2026-03-28T11:11:26.386Z</time></trkpt><trkpt lat="40.823425" lon="8.4114567"><ele>24.75</ele><time>2026-03-28T11:11:27.386Z</time></trkpt><trkpt lat="40.8235167" lon="8.4112933"><ele>24.0</ele><time>2026-03-28T11:11:28.385Z</time></trkpt><trkpt lat="40.823615" lon="8.4111117"><ele>23.666666666666668</ele><time>2026-03-28T11:11:29.386Z</time></trkpt><trkpt lat="40.8237467" lon="8.4109167"><ele>23.333333333333336</ele><time>2026-03-28T11:11:30.386Z</time></trkpt><trkpt lat="40.8238933" lon="8.4107183"><ele>23.0</ele><time>2026-03-28T11:11:31.386Z</time></trkpt><trkpt lat="40.8240367" lon="8.410515"><ele>23.0</ele><time>2026-03-28T11:11:32.386Z</time></trkpt><trkpt lat="40.8241767" lon="8.4102833"><ele>23.0</ele><time>2026-03-28T11:11:33.386Z</time></trkpt><trkpt lat="40.82433" lon="8.4100517"><ele>23.0</ele><time>2026-03-28T11:11:34.385Z</time></trkpt><trkpt lat="40.8244783" lon="8.4098183"><ele>23.0</ele><time>2026-03-28T11:11:35.386Z</time></trkpt><trkpt lat="40.82464" lon="8.4095967"><ele>21.5</ele><time>2026-03-28T11:11:36.386Z</time></trkpt><trkpt lat="40.8247883" lon="8.409375"><ele>20.0</ele><time>2026-03-28T11:11:37.386Z</time></trkpt><trkpt lat="40.8249333" lon="8.40914"><ele>20.0</ele><time>2026-03-28T11:11:38.386Z</time></trkpt><trkpt lat="40.8250833" lon="8.4089017"><ele>20.0</ele><time>2026-03-28T11:11:39.386Z</time></trkpt><trkpt lat="40.8252333" lon="8.4086633"><ele>21.5</ele><time>2026-03-28T11:11:40.385Z</time></trkpt><trkpt lat="40.82538" lon="8.408435"><ele>23.0</ele><time>2026-03-28T11:11:41.386Z</time></trkpt><trkpt lat="40.825525" lon="8.40821"><ele>23.0</ele><time>2026-03-28T11:11:42.386Z</time></trkpt><trkpt lat="40.825665" lon="8.407985"><ele>23.0</ele><time>2026-03-28T11:11:43.385Z</time></trkpt><trkpt lat="40.8257983" lon="8.407765"><ele>23.0</ele><time>2026-03-28T11:11:44.386Z</time></trkpt><trkpt lat="40.825925" lon="8.4075483"><ele>23.666666666666668</ele><time>2026-03-28T11:11:45.386Z</time></trkpt><trkpt lat="40.8260467" lon="8.4073533"><ele>24.333333333333336</ele><time>2026-03-28T11:11:46.385Z</time></trkpt><trkpt lat="40.826155" lon="8.407165"><ele>25.0</ele><time>2026-03-28T11:11:47.385Z</time></trkpt><trkpt lat="40.82626" lon="8.406995"><ele>25.0</ele><time>2026-03-28T11:11:48.386Z</time></trkpt><trkpt lat="40.826355" lon="8.40684"><ele>25.0</ele><time>2026-03-28T11:11:49.385Z</time></trkpt><trkpt lat="40.8264483" lon="8.406685"><ele>25.0</ele><time>2026-03-28T11:11:50.385Z</time></trkpt><trkpt lat="40.8265483" lon="8.406515"><ele>25.0</ele><time>2026-03-28T11:11:51.386Z</time></trkpt><trkpt lat="40.8266583" lon="8.4063317"><ele>25.0</ele><time>2026-03-28T11:11:52.386Z</time></trkpt><trkpt lat="40.826765" lon="8.40615"><ele>25.0</ele><time>2026-03-28T11:11:53.385Z</time></trkpt><trkpt lat="40.826875" lon="8.4059783"><ele>25.0</ele><time>2026-03-28T11:11:54.386Z</time></trkpt><trkpt lat="40.8269783" lon="8.4057883"><ele>25.0</ele><time>2026-03-28T11:11:55.386Z</time></trkpt><trkpt lat="40.82709" lon="8.405585"><ele>25.0</ele><time>2026-03-28T11:11:56.386Z</time></trkpt><trkpt lat="40.8272017" lon="8.4053883"><ele>25.0</ele><time>2026-03-28T11:11:57.386Z</time></trkpt><trkpt lat="40.827315" lon="8.405175"><ele>25.0</ele><time>2026-03-28T11:11:58.386Z</time></trkpt><trkpt lat="40.8274183" lon="8.4049517"><ele>25.0</ele><time>2026-03-28T11:11:59.386Z</time></trkpt><trkpt lat="40.8275233" lon="8.4047333"><ele>23.666666666666668</ele><time>2026-03-28T11:12:00.386Z</time></trkpt><trkpt lat="40.8276283" lon="8.4045"><ele>22.333333333333336</ele><time>2026-03-28T11:12:01.386Z</time></trkpt><trkpt lat="40.8277233" lon="8.4042667"><ele>21.0</ele><time>2026-03-28T11:12:02.386Z</time></trkpt><trkpt lat="40.8278133" lon="8.4040317"><ele>20.0</ele><time>2026-03-28T11:12:03.385Z</time></trkpt><trkpt lat="40.8278967" lon="8.4038"><ele>19.0</ele><time>2026-03-28T11:12:04.386Z</time></trkpt><trkpt lat="40.8279783" lon="8.4035567"><ele>18.0</ele><time>2026-03-28T11:12:05.386Z</time></trkpt><trkpt lat="40.8280533" lon="8.40331"><ele>18.0</ele><time>2026-03-28T11:12:06.386Z</time></trkpt><trkpt lat="40.8281283" lon="8.4030617"><ele>18.0</ele><time>2026-03-28T11:12:07.386Z</time></trkpt><trkpt lat="40.8281833" lon="8.40281"><ele>18.0</ele><time>2026-03-28T11:12:08.386Z</time></trkpt><trkpt lat="40.82824" lon="8.4025583"><ele>17.666666666666668</ele><time>2026-03-28T11:12:09.385Z</time></trkpt><trkpt lat="40.8282933" lon="8.4023133"><ele>17.333333333333336</ele><time>2026-03-28T11:12:10.386Z</time></trkpt><trkpt lat="40.82835" lon="8.4020667"><ele>17.0</ele><time>2026-03-28T11:12:11.385Z</time></trkpt><trkpt lat="40.8283917" lon="8.40181"><ele>15.666666666666668</ele><time>2026-03-28T11:12:12.386Z</time></trkpt><trkpt lat="40.8284483" lon="8.4015533"><ele>14.333333333333332</ele><time>2026-03-28T11:12:13.385Z</time></trkpt><trkpt lat="40.82851" lon="8.40129"><ele>13.0</ele><time>2026-03-28T11:12:14.385Z</time></trkpt><trkpt lat="40.8285567" lon="8.4010167"><ele>12.666666666666666</ele><time>2026-03-28T11:12:15.386Z</time></trkpt><trkpt lat="40.8285983" lon="8.40076"><ele>12.333333333333332</ele><time>2026-03-28T11:12:16.386Z</time></trkpt><trkpt lat="40.8286367" lon="8.4004983"><ele>12.0</ele><time>2026-03-28T11:12:17.386Z</time></trkpt><trkpt lat="40.8286833" lon="8.4002533"><ele>11.333333333333334</ele><time>2026-03-28T11:12:18.386Z</time></trkpt><trkpt lat="40.8287317" lon="8.4000067"><ele>10.666666666666668</ele><time>2026-03-28T11:12:19.386Z</time></trkpt><trkpt lat="40.8287767" lon="8.3997667"><ele>10.0</ele><time>2026-03-28T11:12:20.385Z</time></trkpt><trkpt lat="40.8288233" lon="8.399525"><ele>10.0</ele><time>2026-03-28T11:12:21.386Z</time></trkpt><trkpt lat="40.8288617" lon="8.3992683"><ele>10.0</ele><time>2026-03-28T11:12:22.385Z</time></trkpt><trkpt lat="40.828905" lon="8.3990083"><ele>10.0</ele><time>2026-03-28T11:12:23.386Z</time></trkpt><trkpt lat="40.82896" lon="8.3987467"><ele>10.0</ele><time>2026-03-28T11:12:24.386Z</time></trkpt><trkpt lat="40.8290133" lon="8.3984933"><ele>10.0</ele><time>2026-03-28T11:12:25.386Z</time></trkpt><trkpt lat="40.82907" lon="8.39824"><ele>10.0</ele><time>2026-03-28T11:12:26.386Z</time></trkpt><trkpt lat="40.8291233" lon="8.3979883"><ele>10.0</ele><time>2026-03-28T11:12:27.386Z</time></trkpt><trkpt lat="40.82918" lon="8.39774"><ele>10.0</ele><time>2026-03-28T11:12:28.386Z</time></trkpt><trkpt lat="40.829245" lon="8.3975033"><ele>10.0</ele><time>2026-03-28T11:12:29.386Z</time></trkpt><trkpt lat="40.82933" lon="8.3972667"><ele>11.666666666666668</ele><time>2026-03-28T11:12:30.385Z</time></trkpt><trkpt lat="40.8294117" lon="8.3970333"><ele>13.333333333333334</ele><time>2026-03-28T11:12:31.386Z</time></trkpt><trkpt lat="40.829505" lon="8.3968"><ele>15.0</ele><time>2026-03-28T11:12:32.385Z</time></trkpt><trkpt lat="40.82961" lon="8.3965733"><ele>15.0</ele><time>2026-03-28T11:12:33.385Z</time></trkpt><trkpt lat="40.829725" lon="8.3963483"><ele>15.0</ele><time>2026-03-28T11:12:34.386Z</time></trkpt><trkpt lat="40.829835" lon="8.396135"><ele>15.0</ele><time>2026-03-28T11:12:35.386Z</time></trkpt><trkpt lat="40.8299633" lon="8.3959083"><ele>13.0</ele><time>2026-03-28T11:12:36.385Z</time></trkpt><trkpt lat="40.8300933" lon="8.3956783"><ele>11.0</ele><time>2026-03-28T11:12:37.386Z</time></trkpt><trkpt lat="40.8302167" lon="8.3954517"><ele>9.0</ele><time>2026-03-28T11:12:38.386Z</time></trkpt><trkpt lat="40.8303467" lon="8.3952233"><ele>8.333333333333334</ele><time>2026-03-28T11:12:39.385Z</time></trkpt><trkpt lat="40.830475" lon="8.3949883"><ele>7.666666666666667</ele><time>2026-03-28T11:12:40.386Z</time></trkpt><trkpt lat="40.830605" lon="8.394745"><ele>7.0</ele><time>2026-03-28T11:12:41.386Z</time></trkpt><trkpt lat="40.8307217" lon="8.3945033"><ele>7.0</ele><time>2026-03-28T11:12:42.386Z</time></trkpt><trkpt lat="40.8308383" lon="8.3942767"><ele>7.0</ele><time>2026-03-28T11:12:43.386Z</time></trkpt><trkpt lat="40.8309617" lon="8.3940583"><ele>7.0</ele><time>2026-03-28T11:12:44.386Z</time></trkpt><trkpt lat="40.8310767" lon="8.3938433"><ele>10.0</ele><time>2026-03-28T11:12:45.386Z</time></trkpt><trkpt lat="40.8311883" lon="8.3936333"><ele>13.0</ele><time>2026-03-28T11:12:46.385Z</time></trkpt><trkpt lat="40.8313" lon="8.39343"><ele>16.0</ele><time>2026-03-28T11:12:47.386Z</time></trkpt><trkpt lat="40.8314167" lon="8.39322"><ele>16.0</ele><time>2026-03-28T11:12:48.386Z</time></trkpt><trkpt lat="40.8315183" lon="8.393025"><ele>16.0</ele><time>2026-03-28T11:12:49.385Z</time></trkpt><trkpt lat="40.83162" lon="8.3928433"><ele>16.0</ele><time>2026-03-28T11:12:50.386Z</time></trkpt><trkpt lat="40.831725" lon="8.392655"><ele>17.0</ele><time>2026-03-28T11:12:51.386Z</time></trkpt><trkpt lat="40.8318317" lon="8.3924383"><ele>18.0</ele><time>2026-03-28T11:12:52.385Z</time></trkpt><trkpt lat="40.8319367" lon="8.3922267"><ele>19.0</ele><time>2026-03-28T11:12:53.385Z</time></trkpt><trkpt lat="40.832055" lon="8.3920233"><ele>19.333333333333332</ele><time>2026-03-28T11:12:54.386Z</time></trkpt><trkpt lat="40.8321667" lon="8.3918283"><ele>19.666666666666668</ele><time>2026-03-28T11:12:55.386Z</time></trkpt><trkpt lat="40.83228" lon="8.39163"><ele>20.0</ele><time>2026-03-28T11:12:56.385Z</time></trkpt><trkpt lat="40.8323817" lon="8.391425"><ele>20.333333333333336</ele><time>2026-03-28T11:12:57.385Z</time></trkpt><trkpt lat="40.832485" lon="8.3912217"><ele>20.666666666666668</ele><time>2026-03-28T11:12:58.386Z</time></trkpt><trkpt lat="40.832585" lon="8.3910167"><ele>21.0</ele><time>2026-03-28T11:12:59.386Z</time></trkpt><trkpt lat="40.8326767" lon="8.390815"><ele>21.0</ele><time>2026-03-28T11:13:00.386Z</time></trkpt><trkpt lat="40.8328017" lon="8.390615"><ele>21.0</ele><time>2026-03-28T11:13:01.386Z</time></trkpt><trkpt lat="40.8329133" lon="8.3904217"><ele>21.0</ele><time>2026-03-28T11:13:02.385Z</time></trkpt><trkpt lat="40.8330467" lon="8.3902417"><ele>21.333333333333332</ele><time>2026-03-28T11:13:03.385Z</time></trkpt><trkpt lat="40.8331717" lon="8.39007"><ele>21.666666666666664</ele><time>2026-03-28T11:13:04.385Z</time></trkpt><trkpt lat="40.8332967" lon="8.3899133"><ele>22.0</ele><time>2026-03-28T11:13:05.386Z</time></trkpt><trkpt lat="40.8334217" lon="8.38975"><ele>21.0</ele><time>2026-03-28T11:13:06.385Z</time></trkpt><trkpt lat="40.83355" lon="8.3896017"><ele>20.0</ele><time>2026-03-28T11:13:07.386Z</time></trkpt><trkpt lat="40.8336767" lon="8.3894583"><ele>19.0</ele><time>2026-03-28T11:13:08.386Z</time></trkpt><trkpt lat="40.8338083" lon="8.3893217"><ele>19.0</ele><time>2026-03-28T11:13:09.385Z</time></trkpt><trkpt lat="40.83395" lon="8.389195"><ele>19.0</ele><time>2026-03-28T11:13:10.385Z</time></trkpt><trkpt lat="40.8340833" lon="8.3890667"><ele>19.0</ele><time>2026-03-28T11:13:11.386Z</time></trkpt><trkpt lat="40.8342117" lon="8.38895"><ele>18.5</ele><time>2026-03-28T11:13:12.386Z</time></trkpt><trkpt lat="40.8343367" lon="8.3888417"><ele>18.0</ele><time>2026-03-28T11:13:13.385Z</time></trkpt><trkpt lat="40.8344517" lon="8.388745"><ele>17.5</ele><time>2026-03-28T11:13:14.385Z</time></trkpt><trkpt lat="40.834565" lon="8.388645"><ele>17.0</ele><time>2026-03-28T11:13:15.386Z</time></trkpt><trkpt lat="40.8346667" lon="8.388585"><ele>17.0</ele><time>2026-03-28T11:13:16.386Z</time></trkpt><trkpt lat="40.83477" lon="8.38855"><ele>17.0</ele><time>2026-03-28T11:13:17.386Z</time></trkpt><trkpt lat="40.8348783" lon="8.3885217"><ele>17.0</ele><time>2026-03-28T11:13:18.386Z</time></trkpt><trkpt lat="40.83497" lon="8.3885"><ele>17.0</ele><time>2026-03-28T11:13:19.386Z</time></trkpt><trkpt lat="40.83503" lon="8.388455"><ele>17.0</ele><time>2026-03-28T11:13:20.386Z</time></trkpt><trkpt lat="40.8350367" lon="8.3882933"><ele>17.0</ele><time>2026-03-28T11:13:22.386Z</time></trkpt><trkpt lat="40.8349933" lon="8.3882033"><ele>17.0</ele><time>2026-03-28T11:13:23.385Z</time></trkpt><trkpt lat="40.83492" lon="8.3881133"><ele>17.0</ele><time>2026-03-28T11:13:24.386Z</time></trkpt><trkpt lat="40.834835" lon="8.3879967"><ele>17.0</ele><time>2026-03-28T11:13:25.386Z</time></trkpt><trkpt lat="40.8347483" lon="8.3878667"><ele>17.0</ele><time>2026-03-28T11:13:26.386Z</time></trkpt><trkpt lat="40.8346467" lon="8.387715"><ele>17.0</ele><time>2026-03-28T11:13:27.386Z</time></trkpt><trkpt lat="40.83454" lon="8.3875533"><ele>17.0</ele><time>2026-03-28T11:13:28.386Z</time></trkpt><trkpt lat="40.8344167" lon="8.3873667"><ele>17.0</ele><time>2026-03-28T11:13:29.385Z</time></trkpt><trkpt lat="40.83429" lon="8.3871717"><ele>17.0</ele><time>2026-03-28T11:13:30.386Z</time></trkpt><trkpt lat="40.8341483" lon="8.3869867"><ele>17.0</ele><time>2026-03-28T11:13:31.386Z</time></trkpt><trkpt lat="40.8339933" lon="8.3868033"><ele>17.0</ele><time>2026-03-28T11:13:32.386Z</time></trkpt><trkpt lat="40.8338333" lon="8.3866317"><ele>17.0</ele><time>2026-03-28T11:13:33.386Z</time></trkpt><trkpt lat="40.833685" lon="8.3864533"><ele>17.0</ele><time>2026-03-28T11:13:34.386Z</time></trkpt><trkpt lat="40.83354" lon="8.3862967"><ele>17.0</ele><time>2026-03-28T11:13:35.385Z</time></trkpt><trkpt lat="40.8333917" lon="8.38614"><ele>17.0</ele><time>2026-03-28T11:13:36.386Z</time></trkpt><trkpt lat="40.83324" lon="8.3859933"><ele>17.0</ele><time>2026-03-28T11:13:37.386Z</time></trkpt><trkpt lat="40.8331083" lon="8.38584"><ele>17.0</ele><time>2026-03-28T11:13:38.386Z</time></trkpt><trkpt lat="40.8329933" lon="8.3857083"><ele>17.0</ele><time>2026-03-28T11:13:39.386Z</time></trkpt><trkpt lat="40.83292" lon="8.3856"><ele>17.0</ele><time>2026-03-28T11:13:40.385Z</time></trkpt><trkpt lat="40.8328717" lon="8.385485"><ele>17.0</ele><time>2026-03-28T11:13:41.386Z</time></trkpt><trkpt lat="40.8328083" lon="8.38539"><ele>17.0</ele><time>2026-03-28T11:13:42.385Z</time></trkpt><trkpt lat="40.832725" lon="8.3853"><ele>17.0</ele><time>2026-03-28T11:13:43.386Z</time></trkpt><trkpt lat="40.8326167" lon="8.3852183"><ele>17.0</ele><time>2026-03-28T11:13:44.385Z</time></trkpt><trkpt lat="40.8324883" lon="8.3851083"><ele>17.0</ele><time>2026-03-28T11:13:45.386Z</time></trkpt><trkpt lat="40.8323617" lon="8.3849567"><ele>17.0</ele><time>2026-03-28T11:13:46.385Z</time></trkpt><trkpt lat="40.8322317" lon="8.384775"><ele>17.0</ele><time>2026-03-28T11:13:47.386Z</time></trkpt><trkpt lat="40.8321033" lon="8.3845767"><ele>17.0</ele><time>2026-03-28T11:13:48.386Z</time></trkpt><trkpt lat="40.8319633" lon="8.384375"><ele>17.0</ele><time>2026-03-28T11:13:49.386Z</time></trkpt><trkpt lat="40.8318167" lon="8.3841633"><ele>17.333333333333336</ele><time>2026-03-28T11:13:50.385Z</time></trkpt><trkpt lat="40.8316783" lon="8.3839467"><ele>17.666666666666668</ele><time>2026-03-28T11:13:51.385Z</time></trkpt><trkpt lat="40.8315317" lon="8.3837283"><ele>18.0</ele><time>2026-03-28T11:13:52.386Z</time></trkpt><trkpt lat="40.8313867" lon="8.3835067"><ele>19.0</ele><time>2026-03-28T11:13:53.386Z</time></trkpt><trkpt lat="40.8312433" lon="8.3832717"><ele>20.0</ele><time>2026-03-28T11:13:54.386Z</time></trkpt><trkpt lat="40.8311183" lon="8.3830433"><ele>21.0</ele><time>2026-03-28T11:13:55.386Z</time></trkpt><trkpt lat="40.8309883" lon="8.38281"><ele>22.0</ele><time>2026-03-28T11:13:56.386Z</time></trkpt><trkpt lat="40.83086" lon="8.38257"><ele>23.0</ele><time>2026-03-28T11:13:57.385Z</time></trkpt><trkpt lat="40.830745" lon="8.3823333"><ele>24.0</ele><time>2026-03-28T11:13:58.386Z</time></trkpt><trkpt lat="40.8306433" lon="8.3821083"><ele>24.0</ele><time>2026-03-28T11:13:59.386Z</time></trkpt><trkpt lat="40.8305717" lon="8.3819167"><ele>24.0</ele><time>2026-03-28T11:14:00.386Z</time></trkpt><trkpt lat="40.8304967" lon="8.3817583"><ele>24.0</ele><time>2026-03-28T11:14:01.386Z</time></trkpt><trkpt lat="40.830445" lon="8.3816517"><ele>24.0</ele><time>2026-03-28T11:14:02.386Z</time></trkpt><trkpt lat="40.8304067" lon="8.3815483"><ele>24.0</ele><time>2026-03-28T11:14:03.386Z</time></trkpt><trkpt lat="40.8303483" lon="8.38144"><ele>24.0</ele><time>2026-03-28T11:14:04.385Z</time></trkpt><trkpt lat="40.8302767" lon="8.3813133"><ele>24.0</ele><time>2026-03-28T11:14:05.386Z</time></trkpt><trkpt lat="40.8301867" lon="8.3811867"><ele>24.0</ele><time>2026-03-28T11:14:06.385Z</time></trkpt><trkpt lat="40.8300683" lon="8.381055"><ele>23.666666666666668</ele><time>2026-03-28T11:14:07.386Z</time></trkpt><trkpt lat="40.8299517" lon="8.38093"><ele>23.333333333333336</ele><time>2026-03-28T11:14:08.386Z</time></trkpt><trkpt lat="40.8298233" lon="8.38079"><ele>23.0</ele><time>2026-03-28T11:14:09.386Z</time></trkpt><trkpt lat="40.8296983" lon="8.380625"><ele>23.333333333333336</ele><time>2026-03-28T11:14:10.385Z</time></trkpt><trkpt lat="40.8295583" lon="8.38046"><ele>23.666666666666668</ele><time>2026-03-28T11:14:11.385Z</time></trkpt><trkpt lat="40.82941" lon="8.3802933"><ele>24.0</ele><time>2026-03-28T11:14:12.386Z</time></trkpt><trkpt lat="40.82926" lon="8.380115"><ele>24.333333333333336</ele><time>2026-03-28T11:14:13.386Z</time></trkpt><trkpt lat="40.8291067" lon="8.3799267"><ele>24.666666666666668</ele><time>2026-03-28T11:14:14.386Z</time></trkpt><trkpt lat="40.82895" lon="8.3797533"><ele>25.0</ele><time>2026-03-28T11:14:15.385Z</time></trkpt><trkpt lat="40.8288" lon="8.379575"><ele>25.0</ele><time>2026-03-28T11:14:16.385Z</time></trkpt><trkpt lat="40.828665" lon="8.3793617"><ele>25.0</ele><time>2026-03-28T11:14:17.386Z</time></trkpt><trkpt lat="40.828535" lon="8.3791417"><ele>25.0</ele><time>2026-03-28T11:14:18.386Z</time></trkpt><trkpt lat="40.8284117" lon="8.3789233"><ele>25.0</ele><time>2026-03-28T11:14:19.385Z</time></trkpt><trkpt lat="40.82829" lon="8.378695"><ele>25.0</ele><time>2026-03-28T11:14:20.385Z</time></trkpt><trkpt lat="40.8281683" lon="8.3784833"><ele>25.0</ele><time>2026-03-28T11:14:21.386Z</time></trkpt><trkpt lat="40.82805" lon="8.3782617"><ele>25.0</ele><time>2026-03-28T11:14:22.385Z</time></trkpt><trkpt lat="40.8279333" lon="8.3780517"><ele>25.0</ele><time>2026-03-28T11:14:23.386Z</time></trkpt><trkpt lat="40.827815" lon="8.3778333"><ele>25.0</ele><time>2026-03-28T11:14:24.386Z</time></trkpt><trkpt lat="40.8276867" lon="8.3776183"><ele>25.0</ele><time>2026-03-28T11:14:25.385Z</time></trkpt><trkpt lat="40.827555" lon="8.3774133"><ele>25.0</ele><time>2026-03-28T11:14:26.386Z</time></trkpt><trkpt lat="40.82742" lon="8.3772117"><ele>25.0</ele><time>2026-03-28T11:14:27.385Z</time></trkpt><trkpt lat="40.8272783" lon="8.377025"><ele>25.0</ele><time>2026-03-28T11:14:28.386Z</time></trkpt><trkpt lat="40.8271167" lon="8.376875"><ele>25.0</ele><time>2026-03-28T11:14:29.385Z</time></trkpt><trkpt lat="40.8269467" lon="8.3767283"><ele>25.0</ele><time>2026-03-28T11:14:30.386Z</time></trkpt><trkpt lat="40.8267583" lon="8.376615"><ele>24.0</ele><time>2026-03-28T11:14:31.386Z</time></trkpt><trkpt lat="40.826565" lon="8.3765083"><ele>23.0</ele><time>2026-03-28T11:14:32.383Z</time></trkpt><trkpt lat="40.826375" lon="8.376405"><ele>22.0</ele><time>2026-03-28T11:14:33.386Z</time></trkpt><trkpt lat="40.82618" lon="8.3763133"><ele>21.333333333333332</ele><time>2026-03-28T11:14:34.385Z</time></trkpt><trkpt lat="40.8259767" lon="8.37625"><ele>20.666666666666668</ele><time>2026-03-28T11:14:35.385Z</time></trkpt><trkpt lat="40.8257667" lon="8.37622"><ele>20.0</ele><time>2026-03-28T11:14:36.385Z</time></trkpt><trkpt lat="40.8255433" lon="8.37621"><ele>20.0</ele><time>2026-03-28T11:14:37.386Z</time></trkpt><trkpt lat="40.82532" lon="8.3762167"><ele>20.0</ele><time>2026-03-28T11:14:38.385Z</time></trkpt><trkpt lat="40.82509" lon="8.37623"><ele>20.5</ele><time>2026-03-28T11:14:39.386Z</time></trkpt><trkpt lat="40.8248467" lon="8.376235"><ele>21.0</ele><time>2026-03-28T11:14:40.385Z</time></trkpt><trkpt lat="40.8246083" lon="8.37624"><ele>21.0</ele><time>2026-03-28T11:14:41.386Z</time></trkpt><trkpt lat="40.8243667" lon="8.37623"><ele>21.0</ele><time>2026-03-28T11:14:42.385Z</time></trkpt><trkpt lat="40.8241267" lon="8.3762183"><ele>20.5</ele><time>2026-03-28T11:14:43.385Z</time></trkpt><trkpt lat="40.8238867" lon="8.3762067"><ele>20.0</ele><time>2026-03-28T11:14:44.386Z</time></trkpt><trkpt lat="40.8236533" lon="8.376205"><ele>20.333333333333336</ele><time>2026-03-28T11:14:45.385Z</time></trkpt><trkpt lat="40.8234217" lon="8.3761983"><ele>20.666666666666668</ele><time>2026-03-28T11:14:46.386Z</time></trkpt><trkpt lat="40.823205" lon="8.3761933"><ele>21.0</ele><time>2026-03-28T11:14:47.385Z</time></trkpt><trkpt lat="40.8229917" lon="8.3761933"><ele>21.0</ele><time>2026-03-28T11:14:48.386Z</time></trkpt><trkpt lat="40.8227783" lon="8.3761833"><ele>21.0</ele><time>2026-03-28T11:14:49.386Z</time></trkpt><trkpt lat="40.8225583" lon="8.376165"><ele>21.0</ele><time>2026-03-28T11:14:50.386Z</time></trkpt><trkpt lat="40.8223383" lon="8.37616"><ele>22.0</ele><time>2026-03-28T11:14:51.385Z</time></trkpt><trkpt lat="40.8221083" lon="8.3761617"><ele>23.0</ele><time>2026-03-28T11:14:52.386Z</time></trkpt><trkpt lat="40.8218733" lon="8.3761517"><ele>22.0</ele><time>2026-03-28T11:14:53.386Z</time></trkpt><trkpt lat="40.8216433" lon="8.37614"><ele>21.0</ele><time>2026-03-28T11:14:54.386Z</time></trkpt><trkpt lat="40.8214133" lon="8.376145"><ele>21.0</ele><time>2026-03-28T11:14:55.385Z</time></trkpt><trkpt lat="40.82118" lon="8.3761433"><ele>21.0</ele><time>2026-03-28T11:14:56.386Z</time></trkpt><trkpt lat="40.8209467" lon="8.37613"><ele>21.0</ele><time>2026-03-28T11:14:57.385Z</time></trkpt><trkpt lat="40.8207183" lon="8.376115"><ele>21.0</ele><time>2026-03-28T11:14:58.386Z</time></trkpt><trkpt lat="40.820485" lon="8.3761"><ele>21.0</ele><time>2026-03-28T11:14:59.386Z</time></trkpt><trkpt lat="40.8202433" lon="8.3761067"><ele>21.0</ele><time>2026-03-28T11:15:00.386Z</time></trkpt><trkpt lat="40.82" lon="8.3761033"><ele>22.5</ele><time>2026-03-28T11:15:01.386Z</time></trkpt><trkpt lat="40.819755" lon="8.376095"><ele>24.0</ele><time>2026-03-28T11:15:02.386Z</time></trkpt><trkpt lat="40.8195167" lon="8.3760833"><ele>23.0</ele><time>2026-03-28T11:15:03.386Z</time></trkpt><trkpt lat="40.8192783" lon="8.3760683"><ele>22.0</ele><time>2026-03-28T11:15:04.386Z</time></trkpt><trkpt lat="40.8190433" lon="8.3760583"><ele>22.0</ele><time>2026-03-28T11:15:05.386Z</time></trkpt><trkpt lat="40.818805" lon="8.3760583"><ele>22.0</ele><time>2026-03-28T11:15:06.386Z</time></trkpt><trkpt lat="40.8185567" lon="8.3760583"><ele>21.5</ele><time>2026-03-28T11:15:07.386Z</time></trkpt><trkpt lat="40.818315" lon="8.3760683"><ele>21.0</ele><time>2026-03-28T11:15:08.386Z</time></trkpt><trkpt lat="40.8180733" lon="8.37607"><ele>21.0</ele><time>2026-03-28T11:15:09.386Z</time></trkpt><trkpt lat="40.8178333" lon="8.3760633"><ele>21.0</ele><time>2026-03-28T11:15:10.386Z</time></trkpt><trkpt lat="40.8175967" lon="8.3760567"><ele>21.5</ele><time>2026-03-28T11:15:11.386Z</time></trkpt><trkpt lat="40.8173667" lon="8.3760483"><ele>22.0</ele><time>2026-03-28T11:15:12.386Z</time></trkpt><trkpt lat="40.8171467" lon="8.3760417"><ele>22.0</ele><time>2026-03-28T11:15:13.385Z</time></trkpt><trkpt lat="40.8169333" lon="8.37604"><ele>22.0</ele><time>2026-03-28T11:15:14.385Z</time></trkpt><trkpt lat="40.8167317" lon="8.3760383"><ele>22.0</ele><time>2026-03-28T11:15:15.386Z</time></trkpt><trkpt lat="40.81654" lon="8.3760283"><ele>22.666666666666664</ele><time>2026-03-28T11:15:16.386Z</time></trkpt><trkpt lat="40.816355" lon="8.3760317"><ele>23.333333333333332</ele><time>2026-03-28T11:15:17.386Z</time></trkpt><trkpt lat="40.8161833" lon="8.3760317"><ele>24.0</ele><time>2026-03-28T11:15:18.386Z</time></trkpt><trkpt lat="40.8160217" lon="8.3760283"><ele>24.25</ele><time>2026-03-28T11:15:19.385Z</time></trkpt><trkpt lat="40.81586" lon="8.3760267"><ele>24.5</ele><time>2026-03-28T11:15:20.385Z</time></trkpt><trkpt lat="40.8157167" lon="8.3760167"><ele>24.75</ele><time>2026-03-28T11:15:21.386Z</time></trkpt><trkpt lat="40.8155833" lon="8.3760083"><ele>25.0</ele><time>2026-03-28T11:15:22.385Z</time></trkpt><trkpt lat="40.8154567" lon="8.3760017"><ele>25.0</ele><time>2026-03-28T11:15:23.386Z</time></trkpt><trkpt lat="40.815335" lon="8.3759883"><ele>25.0</ele><time>2026-03-28T11:15:24.385Z</time></trkpt><trkpt lat="40.8152233" lon="8.3759667"><ele>25.0</ele><time>2026-03-28T11:15:25.386Z</time></trkpt><trkpt lat="40.8151333" lon="8.3759333"><ele>25.0</ele><time>2026-03-28T11:15:26.386Z</time></trkpt><trkpt lat="40.8150517" lon="8.375875"><ele>25.0</ele><time>2026-03-28T11:15:27.386Z</time></trkpt><trkpt lat="40.8149667" lon="8.3757917"><ele>24.75</ele><time>2026-03-28T11:15:28.386Z</time></trkpt><trkpt lat="40.81489" lon="8.375665"><ele>24.5</ele><time>2026-03-28T11:15:29.386Z</time></trkpt><trkpt lat="40.81486" lon="8.3754967"><ele>24.25</ele><time>2026-03-28T11:15:30.385Z</time></trkpt><trkpt lat="40.8148517" lon="8.3752917"><ele>24.0</ele><time>2026-03-28T11:15:31.386Z</time></trkpt><trkpt lat="40.8148517" lon="8.375065"><ele>24.0</ele><time>2026-03-28T11:15:32.386Z</time></trkpt><trkpt lat="40.8148567" lon="8.3748267"><ele>24.0</ele><time>2026-03-28T11:15:33.386Z</time></trkpt><trkpt lat="40.81487" lon="8.3745883"><ele>24.0</ele><time>2026-03-28T11:15:34.386Z</time></trkpt><trkpt lat="40.814865" lon="8.37434"><ele>24.0</ele><time>2026-03-28T11:15:35.385Z</time></trkpt><trkpt lat="40.814855" lon="8.3740767"><ele>24.0</ele><time>2026-03-28T11:15:36.386Z</time></trkpt><trkpt lat="40.8148417" lon="8.3738133"><ele>24.0</ele><time>2026-03-28T11:15:37.386Z</time></trkpt><trkpt lat="40.8148333" lon="8.37356"><ele>23.666666666666668</ele><time>2026-03-28T11:15:38.386Z</time></trkpt><trkpt lat="40.8148333" lon="8.373295"><ele>23.333333333333336</ele><time>2026-03-28T11:15:39.386Z</time></trkpt><trkpt lat="40.8148367" lon="8.3730183"><ele>23.0</ele><time>2026-03-28T11:15:40.385Z</time></trkpt><trkpt lat="40.8148383" lon="8.372735"><ele>23.666666666666668</ele><time>2026-03-28T11:15:41.386Z</time></trkpt><trkpt lat="40.81484" lon="8.3724567"><ele>24.333333333333336</ele><time>2026-03-28T11:15:42.385Z</time></trkpt><trkpt lat="40.814845" lon="8.37217"><ele>25.0</ele><time>2026-03-28T11:15:43.385Z</time></trkpt><trkpt lat="40.81485" lon="8.3718917"><ele>25.0</ele><time>2026-03-28T11:15:44.386Z</time></trkpt><trkpt lat="40.8148517" lon="8.37162"><ele>25.0</ele><time>2026-03-28T11:15:45.386Z</time></trkpt><trkpt lat="40.8148533" lon="8.371345"><ele>25.0</ele><time>2026-03-28T11:15:46.386Z</time></trkpt><trkpt lat="40.8148517" lon="8.3710783"><ele>24.666666666666668</ele><time>2026-03-28T11:15:47.386Z</time></trkpt><trkpt lat="40.8148583" lon="8.3708217"><ele>24.333333333333336</ele><time>2026-03-28T11:15:48.386Z</time></trkpt><trkpt lat="40.8148617" lon="8.37057"><ele>24.0</ele><time>2026-03-28T11:15:49.386Z</time></trkpt><trkpt lat="40.8148633" lon="8.37032"><ele>23.0</ele><time>2026-03-28T11:15:50.386Z</time></trkpt><trkpt lat="40.81486" lon="8.37009"><ele>22.0</ele><time>2026-03-28T11:15:51.386Z</time></trkpt><trkpt lat="40.81486" lon="8.3698567"><ele>21.0</ele><time>2026-03-28T11:15:52.385Z</time></trkpt><trkpt lat="40.814865" lon="8.3696233"><ele>20.333333333333332</ele><time>2026-03-28T11:15:53.386Z</time></trkpt><trkpt lat="40.81487" lon="8.3693733"><ele>19.666666666666664</ele><time>2026-03-28T11:15:54.386Z</time></trkpt><trkpt lat="40.8148667" lon="8.36913"><ele>19.0</ele><time>2026-03-28T11:15:55.386Z</time></trkpt><trkpt lat="40.8148733" lon="8.3688733"><ele>17.666666666666664</ele><time>2026-03-28T11:15:56.386Z</time></trkpt><trkpt lat="40.8148733" lon="8.36862"><ele>16.333333333333332</ele><time>2026-03-28T11:15:57.386Z</time></trkpt><trkpt lat="40.8148783" lon="8.3683767"><ele>15.0</ele><time>2026-03-28T11:15:58.386Z</time></trkpt><trkpt lat="40.8148817" lon="8.368125"><ele>14.666666666666668</ele><time>2026-03-28T11:15:59.386Z</time></trkpt><trkpt lat="40.8148783" lon="8.3678617"><ele>14.333333333333334</ele><time>2026-03-28T11:16:00.386Z</time></trkpt><trkpt lat="40.8148767" lon="8.367585"><ele>14.0</ele><time>2026-03-28T11:16:01.386Z</time></trkpt><trkpt lat="40.8148717" lon="8.367295"><ele>14.666666666666668</ele><time>2026-03-28T11:16:02.386Z</time></trkpt><trkpt lat="40.8148667" lon="8.3670067"><ele>15.333333333333332</ele><time>2026-03-28T11:16:03.385Z</time></trkpt><trkpt lat="40.8148717" lon="8.36671"><ele>16.0</ele><time>2026-03-28T11:16:04.386Z</time></trkpt><trkpt lat="40.8148833" lon="8.3664133"><ele>16.0</ele><time>2026-03-28T11:16:05.386Z</time></trkpt><trkpt lat="40.814895" lon="8.3661233"><ele>16.0</ele><time>2026-03-28T11:16:06.386Z</time></trkpt><trkpt lat="40.814915" lon="8.3658383"><ele>16.0</ele><time>2026-03-28T11:16:07.385Z</time></trkpt><trkpt lat="40.81493" lon="8.365535"><ele>16.666666666666664</ele><time>2026-03-28T11:16:08.385Z</time></trkpt><trkpt lat="40.81494" lon="8.3652367"><ele>17.333333333333332</ele><time>2026-03-28T11:16:09.386Z</time></trkpt><trkpt lat="40.81494" lon="8.3649417"><ele>18.0</ele><time>2026-03-28T11:16:10.386Z</time></trkpt><trkpt lat="40.8149433" lon="8.3646483"><ele>19.5</ele><time>2026-03-28T11:16:11.386Z</time></trkpt><trkpt lat="40.8149483" lon="8.3643417"><ele>21.0</ele><time>2026-03-28T11:16:12.386Z</time></trkpt><trkpt lat="40.8149567" lon="8.3640467"><ele>21.0</ele><time>2026-03-28T11:16:13.386Z</time></trkpt><trkpt lat="40.8149633" lon="8.3637667"><ele>21.0</ele><time>2026-03-28T11:16:14.386Z</time></trkpt><trkpt lat="40.814955" lon="8.3634867"><ele>21.0</ele><time>2026-03-28T11:16:15.385Z</time></trkpt><trkpt lat="40.8149483" lon="8.36321"><ele>21.666666666666668</ele><time>2026-03-28T11:16:16.385Z</time></trkpt><trkpt lat="40.81495" lon="8.362945"><ele>22.333333333333336</ele><time>2026-03-28T11:16:17.386Z</time></trkpt><trkpt lat="40.8149467" lon="8.3626833"><ele>23.0</ele><time>2026-03-28T11:16:18.386Z</time></trkpt><trkpt lat="40.81494" lon="8.3624217"><ele>23.666666666666668</ele><time>2026-03-28T11:16:19.386Z</time></trkpt><trkpt lat="40.8149233" lon="8.3621633"><ele>24.333333333333336</ele><time>2026-03-28T11:16:20.386Z</time></trkpt><trkpt lat="40.81489" lon="8.36192"><ele>25.0</ele><time>2026-03-28T11:16:21.386Z</time></trkpt><trkpt lat="40.8148383" lon="8.3616833"><ele>25.0</ele><time>2026-03-28T11:16:22.385Z</time></trkpt><trkpt lat="40.81477" lon="8.3614533"><ele>25.0</ele><time>2026-03-28T11:16:23.386Z</time></trkpt><trkpt lat="40.8147083" lon="8.3612333"><ele>25.0</ele><time>2026-03-28T11:16:24.385Z</time></trkpt><trkpt lat="40.8146483" lon="8.3610367"><ele>24.75</ele><time>2026-03-28T11:16:25.386Z</time></trkpt><trkpt lat="40.8146083" lon="8.3608417"><ele>24.5</ele><time>2026-03-28T11:16:26.386Z</time></trkpt><trkpt lat="40.81458" lon="8.3606567"><ele>24.25</ele><time>2026-03-28T11:16:27.386Z</time></trkpt><trkpt lat="40.8145983" lon="8.3605"><ele>24.0</ele><time>2026-03-28T11:16:28.386Z</time></trkpt><trkpt lat="40.8146583" lon="8.3603667"><ele>23.5</ele><time>2026-03-28T11:16:29.386Z</time></trkpt><trkpt lat="40.814745" lon="8.3602433"><ele>23.0</ele><time>2026-03-28T11:16:30.385Z</time></trkpt><trkpt lat="40.8148467" lon="8.3601133"><ele>22.5</ele><time>2026-03-28T11:16:31.386Z</time></trkpt><trkpt lat="40.814915" lon="8.3599433"><ele>22.0</ele><time>2026-03-28T11:16:32.386Z</time></trkpt><trkpt lat="40.81496" lon="8.359735"><ele>22.0</ele><time>2026-03-28T11:16:33.386Z</time></trkpt><trkpt lat="40.814985" lon="8.359505"><ele>22.0</ele><time>2026-03-28T11:16:34.386Z</time></trkpt><trkpt lat="40.8150033" lon="8.3592667"><ele>22.0</ele><time>2026-03-28T11:16:35.386Z</time></trkpt><trkpt lat="40.8150033" lon="8.359005"><ele>23.0</ele><time>2026-03-28T11:16:36.386Z</time></trkpt><trkpt lat="40.8150067" lon="8.3587383"><ele>24.0</ele><time>2026-03-28T11:16:37.386Z</time></trkpt><trkpt lat="40.8150117" lon="8.3584567"><ele>25.0</ele><time>2026-03-28T11:16:38.386Z</time></trkpt><trkpt lat="40.81501" lon="8.3581633"><ele>27.0</ele><time>2026-03-28T11:16:39.386Z</time></trkpt><trkpt lat="40.8150083" lon="8.35786"><ele>29.0</ele><time>2026-03-28T11:16:40.386Z</time></trkpt><trkpt lat="40.8150133" lon="8.35756"><ele>29.0</ele><time>2026-03-28T11:16:41.386Z</time></trkpt><trkpt lat="40.81502" lon="8.357245"><ele>29.0</ele><time>2026-03-28T11:16:42.385Z</time></trkpt><trkpt lat="40.8150267" lon="8.35693"><ele>28.5</ele><time>2026-03-28T11:16:43.385Z</time></trkpt><trkpt lat="40.81503" lon="8.3566083"><ele>28.0</ele><time>2026-03-28T11:16:44.386Z</time></trkpt><trkpt lat="40.8150367" lon="8.3562867"><ele>28.0</ele><time>2026-03-28T11:16:45.386Z</time></trkpt><trkpt lat="40.81504" lon="8.3559617"><ele>28.0</ele><time>2026-03-28T11:16:46.385Z</time></trkpt><trkpt lat="40.81505" lon="8.3556417"><ele>29.5</ele><time>2026-03-28T11:16:47.386Z</time></trkpt><trkpt lat="40.8150533" lon="8.35532"><ele>31.0</ele><time>2026-03-28T11:16:48.386Z</time></trkpt><trkpt lat="40.815055" lon="8.355"><ele>32.5</ele><time>2026-03-28T11:16:49.386Z</time></trkpt><trkpt lat="40.8150533" lon="8.3546733"><ele>34.0</ele><time>2026-03-28T11:16:50.385Z</time></trkpt><trkpt lat="40.8150517" lon="8.354345"><ele>34.0</ele><time>2026-03-28T11:16:51.386Z</time></trkpt><trkpt lat="40.8150567" lon="8.35401"><ele>34.0</ele><time>2026-03-28T11:16:52.386Z</time></trkpt><trkpt lat="40.815065" lon="8.3536867"><ele>35.0</ele><time>2026-03-28T11:16:53.386Z</time></trkpt><trkpt lat="40.8150683" lon="8.3533717"><ele>36.0</ele><time>2026-03-28T11:16:54.385Z</time></trkpt><trkpt lat="40.815075" lon="8.35305"><ele>35.0</ele><time>2026-03-28T11:16:55.385Z</time></trkpt><trkpt lat="40.8150817" lon="8.3527233"><ele>34.0</ele><time>2026-03-28T11:16:56.386Z</time></trkpt><trkpt lat="40.8150967" lon="8.3523883"><ele>34.0</ele><time>2026-03-28T11:16:57.386Z</time></trkpt><trkpt lat="40.815115" lon="8.3520633"><ele>34.0</ele><time>2026-03-28T11:16:58.385Z</time></trkpt><trkpt lat="40.8151267" lon="8.3517383"><ele>34.0</ele><time>2026-03-28T11:16:59.386Z</time></trkpt><trkpt lat="40.8151267" lon="8.3514083"><ele>34.0</ele><time>2026-03-28T11:17:00.386Z</time></trkpt><trkpt lat="40.8151283" lon="8.3510833"><ele>33.5</ele><time>2026-03-28T11:17:01.386Z</time></trkpt><trkpt lat="40.81513" lon="8.350755"><ele>33.0</ele><time>2026-03-28T11:17:02.386Z</time></trkpt><trkpt lat="40.815135" lon="8.3504283"><ele>33.0</ele><time>2026-03-28T11:17:03.385Z</time></trkpt><trkpt lat="40.815135" lon="8.350105"><ele>33.0</ele><time>2026-03-28T11:17:04.386Z</time></trkpt><trkpt lat="40.8151367" lon="8.3497783"><ele>35.0</ele><time>2026-03-28T11:17:05.386Z</time></trkpt><trkpt lat="40.8151317" lon="8.34945"><ele>37.0</ele><time>2026-03-28T11:17:06.386Z</time></trkpt><trkpt lat="40.8151367" lon="8.3491267"><ele>38.5</ele><time>2026-03-28T11:17:07.386Z</time></trkpt><trkpt lat="40.8151433" lon="8.34881"><ele>40.0</ele><time>2026-03-28T11:17:08.386Z</time></trkpt><trkpt lat="40.8151467" lon="8.3484883"><ele>40.0</ele><time>2026-03-28T11:17:09.385Z</time></trkpt><trkpt lat="40.8151483" lon="8.3481683"><ele>40.0</ele><time>2026-03-28T11:17:10.386Z</time></trkpt><trkpt lat="40.81515" lon="8.3478517"><ele>39.0</ele><time>2026-03-28T11:17:11.386Z</time></trkpt><trkpt lat="40.81516" lon="8.3475283"><ele>38.0</ele><time>2026-03-28T11:17:12.386Z</time></trkpt><trkpt lat="40.8151667" lon="8.347205"><ele>40.5</ele><time>2026-03-28T11:17:13.386Z</time></trkpt><trkpt lat="40.81517" lon="8.34688"><ele>43.0</ele><time>2026-03-28T11:17:14.386Z</time></trkpt><trkpt lat="40.815175" lon="8.346555"><ele>44.0</ele><time>2026-03-28T11:17:15.385Z</time></trkpt><trkpt lat="40.8151817" lon="8.34622"><ele>45.0</ele><time>2026-03-28T11:17:16.385Z</time></trkpt><trkpt lat="40.8151883" lon="8.34589"><ele>45.0</ele><time>2026-03-28T11:17:17.385Z</time></trkpt><trkpt lat="40.8152" lon="8.3455617"><ele>45.0</ele><time>2026-03-28T11:17:18.386Z</time></trkpt><trkpt lat="40.8151983" lon="8.3452333"><ele>42.0</ele><time>2026-03-28T11:17:19.386Z</time></trkpt><trkpt lat="40.8152067" lon="8.3449"><ele>39.0</ele><time>2026-03-28T11:17:20.386Z</time></trkpt><trkpt lat="40.81521" lon="8.3445567"><ele>38.0</ele><time>2026-03-28T11:17:21.386Z</time></trkpt><trkpt lat="40.8152167" lon="8.344225"><ele>37.0</ele><time>2026-03-28T11:17:22.386Z</time></trkpt><trkpt lat="40.81522" lon="8.3438983"><ele>36.0</ele><time>2026-03-28T11:17:23.386Z</time></trkpt><trkpt lat="40.8152317" lon="8.3435633"><ele>35.0</ele><time>2026-03-28T11:17:24.386Z</time></trkpt><trkpt lat="40.8152367" lon="8.3432283"><ele>34.5</ele><time>2026-03-28T11:17:25.386Z</time></trkpt><trkpt lat="40.8152367" lon="8.3429"><ele>34.0</ele><time>2026-03-28T11:17:26.386Z</time></trkpt><trkpt lat="40.8152467" lon="8.3425667"><ele>34.0</ele><time>2026-03-28T11:17:27.386Z</time></trkpt><trkpt lat="40.8152567" lon="8.3422367"><ele>34.0</ele><time>2026-03-28T11:17:28.386Z</time></trkpt><trkpt lat="40.8152717" lon="8.341915"><ele>34.5</ele><time>2026-03-28T11:17:29.386Z</time></trkpt><trkpt lat="40.8152933" lon="8.3415883"><ele>35.0</ele><time>2026-03-28T11:17:30.386Z</time></trkpt><trkpt lat="40.81533" lon="8.3412733"><ele>34.0</ele><time>2026-03-28T11:17:31.386Z</time></trkpt><trkpt lat="40.8153783" lon="8.340955"><ele>33.0</ele><time>2026-03-28T11:17:32.385Z</time></trkpt><trkpt lat="40.8154333" lon="8.3406467"><ele>32.5</ele><time>2026-03-28T11:17:33.386Z</time></trkpt><trkpt lat="40.815495" lon="8.3403383"><ele>32.0</ele><time>2026-03-28T11:17:34.386Z</time></trkpt><trkpt lat="40.8155583" lon="8.3400333"><ele>32.0</ele><time>2026-03-28T11:17:35.386Z</time></trkpt><trkpt lat="40.8156267" lon="8.3397367"><ele>32.0</ele><time>2026-03-28T11:17:36.386Z</time></trkpt><trkpt lat="40.8157" lon="8.33944"><ele>33.5</ele><time>2026-03-28T11:17:37.386Z</time></trkpt><trkpt lat="40.8157867" lon="8.3391317"><ele>35.0</ele><time>2026-03-28T11:17:38.386Z</time></trkpt><trkpt lat="40.815875" lon="8.3388283"><ele>35.0</ele><time>2026-03-28T11:17:39.386Z</time></trkpt><trkpt lat="40.8159767" lon="8.3385383"><ele>35.0</ele><time>2026-03-28T11:17:40.386Z</time></trkpt><trkpt lat="40.816075" lon="8.33824"><ele>37.0</ele><time>2026-03-28T11:17:41.386Z</time></trkpt><trkpt lat="40.8161817" lon="8.3379467"><ele>39.0</ele><time>2026-03-28T11:17:42.386Z</time></trkpt><trkpt lat="40.8162933" lon="8.3376617"><ele>39.0</ele><time>2026-03-28T11:17:43.386Z</time></trkpt><trkpt lat="40.8164" lon="8.3373783"><ele>39.0</ele><time>2026-03-28T11:17:44.386Z</time></trkpt><trkpt lat="40.8165133" lon="8.337105"><ele>40.5</ele><time>2026-03-28T11:17:45.385Z</time></trkpt><trkpt lat="40.8166283" lon="8.336835"><ele>42.0</ele><time>2026-03-28T11:17:46.385Z</time></trkpt><trkpt lat="40.81675" lon="8.3365633"><ele>38.0</ele><time>2026-03-28T11:17:47.386Z</time></trkpt><trkpt lat="40.8168683" lon="8.3362867"><ele>34.0</ele><time>2026-03-28T11:17:48.385Z</time></trkpt><trkpt lat="40.81698" lon="8.3360033"><ele>34.0</ele><time>2026-03-28T11:17:49.386Z</time></trkpt><trkpt lat="40.8170917" lon="8.33573"><ele>34.0</ele><time>2026-03-28T11:17:50.386Z</time></trkpt><trkpt lat="40.817205" lon="8.3354567"><ele>35.0</ele><time>2026-03-28T11:17:51.386Z</time></trkpt><trkpt lat="40.817325" lon="8.3351883"><ele>36.0</ele><time>2026-03-28T11:17:52.386Z</time></trkpt><trkpt lat="40.8174483" lon="8.33491"><ele>36.5</ele><time>2026-03-28T11:17:53.386Z</time></trkpt><trkpt lat="40.8175683" lon="8.3346383"><ele>37.0</ele><time>2026-03-28T11:17:54.386Z</time></trkpt><trkpt lat="40.81769" lon="8.3343683"><ele>37.5</ele><time>2026-03-28T11:17:55.386Z</time></trkpt><trkpt lat="40.8178067" lon="8.3340933"><ele>38.0</ele><time>2026-03-28T11:17:56.386Z</time></trkpt><trkpt lat="40.81792" lon="8.3338267"><ele>38.0</ele><time>2026-03-28T11:17:57.385Z</time></trkpt><trkpt lat="40.818035" lon="8.3335617"><ele>38.0</ele><time>2026-03-28T11:17:58.386Z</time></trkpt><trkpt lat="40.8181467" lon="8.3332967"><ele>38.0</ele><time>2026-03-28T11:17:59.386Z</time></trkpt><trkpt lat="40.8182533" lon="8.3330333"><ele>38.0</ele><time>2026-03-28T11:18:00.385Z</time></trkpt><trkpt lat="40.81836" lon="8.3327667"><ele>38.0</ele><time>2026-03-28T11:18:01.386Z</time></trkpt><trkpt lat="40.8184683" lon="8.332505"><ele>38.0</ele><time>2026-03-28T11:18:02.385Z</time></trkpt><trkpt lat="40.8185817" lon="8.3322433"><ele>36.5</ele><time>2026-03-28T11:18:03.386Z</time></trkpt><trkpt lat="40.8186983" lon="8.3319833"><ele>35.0</ele><time>2026-03-28T11:18:04.386Z</time></trkpt><trkpt lat="40.818815" lon="8.3317217"><ele>35.0</ele><time>2026-03-28T11:18:05.386Z</time></trkpt><trkpt lat="40.8189317" lon="8.3314533"><ele>35.0</ele><time>2026-03-28T11:18:06.386Z</time></trkpt><trkpt lat="40.8190433" lon="8.3311983"><ele>35.5</ele><time>2026-03-28T11:18:07.386Z</time></trkpt><trkpt lat="40.8191533" lon="8.3309383"><ele>36.0</ele><time>2026-03-28T11:18:08.385Z</time></trkpt><trkpt lat="40.81927" lon="8.3306833"><ele>36.5</ele><time>2026-03-28T11:18:09.386Z</time></trkpt><trkpt lat="40.81938" lon="8.3304183"><ele>37.0</ele><time>2026-03-28T11:18:10.386Z</time></trkpt><trkpt lat="40.81949" lon="8.3301533"><ele>37.0</ele><time>2026-03-28T11:18:11.386Z</time></trkpt><trkpt lat="40.8196017" lon="8.3298917"><ele>37.0</ele><time>2026-03-28T11:18:12.386Z</time></trkpt><trkpt lat="40.819715" lon="8.32963"><ele>36.333333333333336</ele><time>2026-03-28T11:18:13.386Z</time></trkpt><trkpt lat="40.8198217" lon="8.32937"><ele>35.666666666666664</ele><time>2026-03-28T11:18:14.385Z</time></trkpt><trkpt lat="40.8199333" lon="8.3291117"><ele>35.0</ele><time>2026-03-28T11:18:15.386Z</time></trkpt><trkpt lat="40.8200383" lon="8.3288417"><ele>35.0</ele><time>2026-03-28T11:18:16.386Z</time></trkpt><trkpt lat="40.8201433" lon="8.3285867"><ele>35.0</ele><time>2026-03-28T11:18:17.386Z</time></trkpt><trkpt lat="40.820255" lon="8.328325"><ele>35.0</ele><time>2026-03-28T11:18:18.385Z</time></trkpt><trkpt lat="40.820375" lon="8.32806"><ele>35.0</ele><time>2026-03-28T11:18:19.386Z</time></trkpt><trkpt lat="40.8204867" lon="8.3278033"><ele>35.0</ele><time>2026-03-28T11:18:20.386Z</time></trkpt><trkpt lat="40.8206" lon="8.3275367"><ele>35.0</ele><time>2026-03-28T11:18:21.386Z</time></trkpt><trkpt lat="40.82072" lon="8.3272683"><ele>35.0</ele><time>2026-03-28T11:18:22.386Z</time></trkpt><trkpt lat="40.8208433" lon="8.3270017"><ele>36.5</ele><time>2026-03-28T11:18:23.386Z</time></trkpt><trkpt lat="40.8209733" lon="8.3267417"><ele>38.0</ele><time>2026-03-28T11:18:24.386Z</time></trkpt><trkpt lat="40.82111" lon="8.3264883"><ele>38.5</ele><time>2026-03-28T11:18:25.385Z</time></trkpt><trkpt lat="40.8212483" lon="8.3262367"><ele>39.0</ele><time>2026-03-28T11:18:26.386Z</time></trkpt><trkpt lat="40.8214" lon="8.3260083"><ele>39.0</ele><time>2026-03-28T11:18:27.386Z</time></trkpt><trkpt lat="40.821555" lon="8.3257733"><ele>39.0</ele><time>2026-03-28T11:18:28.386Z</time></trkpt><trkpt lat="40.82172" lon="8.3255483"><ele>38.5</ele><time>2026-03-28T11:18:29.386Z</time></trkpt><trkpt lat="40.8218967" lon="8.3253417"><ele>38.0</ele><time>2026-03-28T11:18:30.386Z</time></trkpt><trkpt lat="40.8220783" lon="8.3251433"><ele>38.0</ele><time>2026-03-28T11:18:31.386Z</time></trkpt><trkpt lat="40.82226" lon="8.3249433"><ele>38.0</ele><time>2026-03-28T11:18:32.385Z</time></trkpt><trkpt lat="40.8224467" lon="8.324755"><ele>38.0</ele><time>2026-03-28T11:18:33.386Z</time></trkpt><trkpt lat="40.8226433" lon="8.32458"><ele>38.0</ele><time>2026-03-28T11:18:34.385Z</time></trkpt><trkpt lat="40.82285" lon="8.32442"><ele>37.5</ele><time>2026-03-28T11:18:35.386Z</time></trkpt><trkpt lat="40.82307" lon="8.3242767"><ele>37.0</ele><time>2026-03-28T11:18:36.386Z</time></trkpt><trkpt lat="40.8232967" lon="8.3241417"><ele>35.5</ele><time>2026-03-28T11:18:37.386Z</time></trkpt><trkpt lat="40.8235133" lon="8.324015"><ele>34.0</ele><time>2026-03-28T11:18:38.385Z</time></trkpt><trkpt lat="40.82375" lon="8.3239067"><ele>33.0</ele><time>2026-03-28T11:18:39.386Z</time></trkpt><trkpt lat="40.8239783" lon="8.3238167"><ele>32.0</ele><time>2026-03-28T11:18:40.386Z</time></trkpt><trkpt lat="40.8242133" lon="8.3237433"><ele>32.5</ele><time>2026-03-28T11:18:41.386Z</time></trkpt><trkpt lat="40.82445" lon="8.323675"><ele>33.0</ele><time>2026-03-28T11:18:42.386Z</time></trkpt><trkpt lat="40.8246933" lon="8.3236033"><ele>33.0</ele><time>2026-03-28T11:18:43.386Z</time></trkpt><trkpt lat="40.8249417" lon="8.323545"><ele>33.0</ele><time>2026-03-28T11:18:44.385Z</time></trkpt><trkpt lat="40.82519" lon="8.323495"><ele>34.5</ele><time>2026-03-28T11:18:45.385Z</time></trkpt><trkpt lat="40.82544" lon="8.3234383"><ele>36.0</ele><time>2026-03-28T11:18:46.386Z</time></trkpt><trkpt lat="40.8256883" lon="8.32336"><ele>36.0</ele><time>2026-03-28T11:18:47.386Z</time></trkpt><trkpt lat="40.825935" lon="8.3232833"><ele>36.0</ele><time>2026-03-28T11:18:48.386Z</time></trkpt><trkpt lat="40.826185" lon="8.3231833"><ele>36.5</ele><time>2026-03-28T11:18:49.386Z</time></trkpt><trkpt lat="40.8264217" lon="8.3230767"><ele>37.0</ele><time>2026-03-28T11:18:50.385Z</time></trkpt><trkpt lat="40.8266617" lon="8.3229667"><ele>37.0</ele><time>2026-03-28T11:18:51.386Z</time></trkpt><trkpt lat="40.8268933" lon="8.3228483"><ele>37.0</ele><time>2026-03-28T11:18:52.386Z</time></trkpt><trkpt lat="40.82712" lon="8.3227067"><ele>37.0</ele><time>2026-03-28T11:18:53.386Z</time></trkpt><trkpt lat="40.8273317" lon="8.3225517"><ele>37.0</ele><time>2026-03-28T11:18:54.386Z</time></trkpt><trkpt lat="40.8275283" lon="8.3223817"><ele>36.0</ele><time>2026-03-28T11:18:55.386Z</time></trkpt><trkpt lat="40.82771" lon="8.322215"><ele>35.0</ele><time>2026-03-28T11:18:56.386Z</time></trkpt><trkpt lat="40.827885" lon="8.32204"><ele>34.0</ele><time>2026-03-28T11:18:57.386Z</time></trkpt><trkpt lat="40.8280533" lon="8.3218567"><ele>34.0</ele><time>2026-03-28T11:18:58.386Z</time></trkpt><trkpt lat="40.8282267" lon="8.321665"><ele>34.0</ele><time>2026-03-28T11:18:59.385Z</time></trkpt><trkpt lat="40.82839" lon="8.3214533"><ele>34.5</ele><time>2026-03-28T11:19:00.386Z</time></trkpt><trkpt lat="40.8285617" lon="8.3212333"><ele>35.0</ele><time>2026-03-28T11:19:01.385Z</time></trkpt><trkpt lat="40.82872" lon="8.3210117"><ele>35.0</ele><time>2026-03-28T11:19:02.386Z</time></trkpt><trkpt lat="40.828865" lon="8.3207683"><ele>35.0</ele><time>2026-03-28T11:19:03.385Z</time></trkpt><trkpt lat="40.829005" lon="8.320515"><ele>35.5</ele><time>2026-03-28T11:19:04.385Z</time></trkpt><trkpt lat="40.8291367" lon="8.320255"><ele>36.0</ele><time>2026-03-28T11:19:05.386Z</time></trkpt><trkpt lat="40.8292483" lon="8.3200017"><ele>37.0</ele><time>2026-03-28T11:19:06.386Z</time></trkpt><trkpt lat="40.8293567" lon="8.3197333"><ele>38.0</ele><time>2026-03-28T11:19:07.386Z</time></trkpt><trkpt lat="40.8294567" lon="8.319455"><ele>38.0</ele><time>2026-03-28T11:19:08.385Z</time></trkpt><trkpt lat="40.82955" lon="8.31917"><ele>38.0</ele><time>2026-03-28T11:19:09.386Z</time></trkpt><trkpt lat="40.8296317" lon="8.318895"><ele>37.0</ele><time>2026-03-28T11:19:10.386Z</time></trkpt><trkpt lat="40.82971" lon="8.318605"><ele>36.0</ele><time>2026-03-28T11:19:11.386Z</time></trkpt><trkpt lat="40.8297783" lon="8.3183217"><ele>35.5</ele><time>2026-03-28T11:19:12.385Z</time></trkpt><trkpt lat="40.8298317" lon="8.318025"><ele>35.0</ele><time>2026-03-28T11:19:13.385Z</time></trkpt><trkpt lat="40.8298783" lon="8.3177233"><ele>35.0</ele><time>2026-03-28T11:19:14.386Z</time></trkpt><trkpt lat="40.8299183" lon="8.3174283"><ele>35.0</ele><time>2026-03-28T11:19:15.386Z</time></trkpt><trkpt lat="40.8299667" lon="8.3171267"><ele>34.5</ele><time>2026-03-28T11:19:16.386Z</time></trkpt><trkpt lat="40.830015" lon="8.3168217"><ele>34.0</ele><time>2026-03-28T11:19:17.386Z</time></trkpt><trkpt lat="40.83005" lon="8.3165233"><ele>33.0</ele><time>2026-03-28T11:19:18.385Z</time></trkpt><trkpt lat="40.830085" lon="8.31622"><ele>32.0</ele><time>2026-03-28T11:19:19.386Z</time></trkpt><trkpt lat="40.8301333" lon="8.3159283"><ele>32.0</ele><time>2026-03-28T11:19:20.385Z</time></trkpt><trkpt lat="40.830175" lon="8.315635"><ele>32.0</ele><time>2026-03-28T11:19:21.385Z</time></trkpt><trkpt lat="40.8302183" lon="8.3153383"><ele>30.5</ele><time>2026-03-28T11:19:22.386Z</time></trkpt><trkpt lat="40.8302633" lon="8.3150417"><ele>29.0</ele><time>2026-03-28T11:19:23.386Z</time></trkpt><trkpt lat="40.8303033" lon="8.314745"><ele>29.5</ele><time>2026-03-28T11:19:24.386Z</time></trkpt><trkpt lat="40.830335" lon="8.3144483"><ele>30.0</ele><time>2026-03-28T11:19:25.386Z</time></trkpt><trkpt lat="40.83038" lon="8.3141467"><ele>31.5</ele><time>2026-03-28T11:19:26.386Z</time></trkpt><trkpt lat="40.8304233" lon="8.3138467"><ele>33.0</ele><time>2026-03-28T11:19:27.385Z</time></trkpt><trkpt lat="40.830465" lon="8.3135483"><ele>33.0</ele><time>2026-03-28T11:19:28.386Z</time></trkpt><trkpt lat="40.830515" lon="8.3132483"><ele>33.0</ele><time>2026-03-28T11:19:29.386Z</time></trkpt><trkpt lat="40.830565" lon="8.3129433"><ele>34.5</ele><time>2026-03-28T11:19:30.386Z</time></trkpt><trkpt lat="40.8306133" lon="8.312635"><ele>36.0</ele><time>2026-03-28T11:19:31.386Z</time></trkpt><trkpt lat="40.8306533" lon="8.312335"><ele>36.5</ele><time>2026-03-28T11:19:32.386Z</time></trkpt><trkpt lat="40.8307" lon="8.312035"><ele>37.0</ele><time>2026-03-28T11:19:33.386Z</time></trkpt><trkpt lat="40.8307433" lon="8.31173"><ele>37.0</ele><time>2026-03-28T11:19:34.386Z</time></trkpt><trkpt lat="40.8307817" lon="8.3114233"><ele>37.0</ele><time>2026-03-28T11:19:35.386Z</time></trkpt><trkpt lat="40.8308183" lon="8.311125"><ele>37.5</ele><time>2026-03-28T11:19:36.385Z</time></trkpt><trkpt lat="40.8308583" lon="8.3108267"><ele>38.0</ele><time>2026-03-28T11:19:37.386Z</time></trkpt><trkpt lat="40.8308883" lon="8.310525"><ele>38.0</ele><time>2026-03-28T11:19:38.386Z</time></trkpt><trkpt lat="40.8309267" lon="8.3102267"><ele>38.0</ele><time>2026-03-28T11:19:39.386Z</time></trkpt><trkpt lat="40.8309717" lon="8.309925"><ele>37.5</ele><time>2026-03-28T11:19:40.386Z</time></trkpt><trkpt lat="40.8310233" lon="8.3096233"><ele>37.0</ele><time>2026-03-28T11:19:41.386Z</time></trkpt><trkpt lat="40.8310667" lon="8.3093283"><ele>37.0</ele><time>2026-03-28T11:19:42.386Z</time></trkpt><trkpt lat="40.8311117" lon="8.3090417"><ele>37.0</ele><time>2026-03-28T11:19:43.385Z</time></trkpt><trkpt lat="40.831175" lon="8.308755"><ele>37.0</ele><time>2026-03-28T11:19:44.386Z</time></trkpt><trkpt lat="40.8312467" lon="8.3084633"><ele>37.0</ele><time>2026-03-28T11:19:45.385Z</time></trkpt><trkpt lat="40.831315" lon="8.3081867"><ele>37.0</ele><time>2026-03-28T11:19:46.386Z</time></trkpt><trkpt lat="40.83139" lon="8.3079083"><ele>37.0</ele><time>2026-03-28T11:19:47.386Z</time></trkpt><trkpt lat="40.8314733" lon="8.3076267"><ele>36.5</ele><time>2026-03-28T11:19:48.386Z</time></trkpt><trkpt lat="40.8315583" lon="8.30734"><ele>36.0</ele><time>2026-03-28T11:19:49.386Z</time></trkpt><trkpt lat="40.8316483" lon="8.3070533"><ele>36.0</ele><time>2026-03-28T11:19:50.386Z</time></trkpt><trkpt lat="40.83174" lon="8.306775"><ele>36.0</ele><time>2026-03-28T11:19:51.386Z</time></trkpt><trkpt lat="40.83184" lon="8.3064833"><ele>31.5</ele><time>2026-03-28T11:19:52.386Z</time></trkpt><trkpt lat="40.8319417" lon="8.3061917"><ele>27.0</ele><time>2026-03-28T11:19:53.386Z</time></trkpt><trkpt lat="40.832035" lon="8.3058983"><ele>27.0</ele><time>2026-03-28T11:19:54.385Z</time></trkpt><trkpt lat="40.8321333" lon="8.3056217"><ele>27.0</ele><time>2026-03-28T11:19:55.386Z</time></trkpt><trkpt lat="40.8322283" lon="8.3053467"><ele>21.5</ele><time>2026-03-28T11:19:56.386Z</time></trkpt><trkpt lat="40.83232" lon="8.305085"><ele>16.0</ele><time>2026-03-28T11:19:57.386Z</time></trkpt><trkpt lat="40.8324233" lon="8.3048017"><ele>13.5</ele><time>2026-03-28T11:19:58.386Z</time></trkpt><trkpt lat="40.8325233" lon="8.3045117"><ele>11.0</ele><time>2026-03-28T11:19:59.385Z</time></trkpt><trkpt lat="40.8326217" lon="8.3042233"><ele>12.5</ele><time>2026-03-28T11:20:00.386Z</time></trkpt><trkpt lat="40.83272" lon="8.30394"><ele>14.0</ele><time>2026-03-28T11:20:01.386Z</time></trkpt><trkpt lat="40.8328083" lon="8.3036533"><ele>18.5</ele><time>2026-03-28T11:20:02.386Z</time></trkpt><trkpt lat="40.8329033" lon="8.3033833"><ele>23.0</ele><time>2026-03-28T11:20:03.385Z</time></trkpt><trkpt lat="40.832995" lon="8.3031067"><ele>23.0</ele><time>2026-03-28T11:20:04.386Z</time></trkpt><trkpt lat="40.833085" lon="8.3028267"><ele>23.0</ele><time>2026-03-28T11:20:05.386Z</time></trkpt><trkpt lat="40.833185" lon="8.302535"><ele>23.0</ele><time>2026-03-28T11:20:06.386Z</time></trkpt><trkpt lat="40.8332817" lon="8.30225"><ele>23.0</ele><time>2026-03-28T11:20:07.386Z</time></trkpt><trkpt lat="40.83338" lon="8.3019517"><ele>22.0</ele><time>2026-03-28T11:20:08.386Z</time></trkpt><trkpt lat="40.8334817" lon="8.3016683"><ele>21.0</ele><time>2026-03-28T11:20:09.386Z</time></trkpt><trkpt lat="40.8335783" lon="8.301375"><ele>21.0</ele><time>2026-03-28T11:20:10.386Z</time></trkpt><trkpt lat="40.8336833" lon="8.3010783"><ele>21.0</ele><time>2026-03-28T11:20:11.386Z</time></trkpt><trkpt lat="40.83378" lon="8.3007933"><ele>22.0</ele><time>2026-03-28T11:20:12.385Z</time></trkpt><trkpt lat="40.83387" lon="8.30051"><ele>23.0</ele><time>2026-03-28T11:20:13.386Z</time></trkpt><trkpt lat="40.8339667" lon="8.30023"><ele>23.0</ele><time>2026-03-28T11:20:14.386Z</time></trkpt><trkpt lat="40.834065" lon="8.29994"><ele>23.0</ele><time>2026-03-28T11:20:15.385Z</time></trkpt><trkpt lat="40.8341583" lon="8.2996683"><ele>24.0</ele><time>2026-03-28T11:20:16.385Z</time></trkpt><trkpt lat="40.8342467" lon="8.2993883"><ele>25.0</ele><time>2026-03-28T11:20:17.386Z</time></trkpt><trkpt lat="40.83432" lon="8.299105"><ele>24.5</ele><time>2026-03-28T11:20:18.386Z</time></trkpt><trkpt lat="40.83439" lon="8.2988117"><ele>24.0</ele><time>2026-03-28T11:20:19.386Z</time></trkpt><trkpt lat="40.8344633" lon="8.2985167"><ele>24.0</ele><time>2026-03-28T11:20:20.386Z</time></trkpt><trkpt lat="40.834535" lon="8.2982333"><ele>24.0</ele><time>2026-03-28T11:20:21.386Z</time></trkpt><trkpt lat="40.8346117" lon="8.2979383"><ele>25.5</ele><time>2026-03-28T11:20:22.386Z</time></trkpt><trkpt lat="40.8346867" lon="8.297655"><ele>27.0</ele><time>2026-03-28T11:20:23.385Z</time></trkpt><trkpt lat="40.8347517" lon="8.29736"><ele>28.0</ele><time>2026-03-28T11:20:24.386Z</time></trkpt><trkpt lat="40.8348183" lon="8.29708"><ele>29.0</ele><time>2026-03-28T11:20:25.386Z</time></trkpt><trkpt lat="40.83488" lon="8.2968"><ele>30.0</ele><time>2026-03-28T11:20:26.386Z</time></trkpt><trkpt lat="40.8349383" lon="8.2965233"><ele>31.0</ele><time>2026-03-28T11:20:27.385Z</time></trkpt><trkpt lat="40.8350017" lon="8.2962483"><ele>32.0</ele><time>2026-03-28T11:20:28.385Z</time></trkpt><trkpt lat="40.835065" lon="8.295965"><ele>33.0</ele><time>2026-03-28T11:20:29.386Z</time></trkpt><trkpt lat="40.8351283" lon="8.29568"><ele>32.5</ele><time>2026-03-28T11:20:30.386Z</time></trkpt><trkpt lat="40.8352" lon="8.295395"><ele>32.0</ele><time>2026-03-28T11:20:31.386Z</time></trkpt><trkpt lat="40.8352667" lon="8.29511"><ele>32.0</ele><time>2026-03-28T11:20:32.386Z</time></trkpt><trkpt lat="40.8353267" lon="8.2948217"><ele>32.0</ele><time>2026-03-28T11:20:33.386Z</time></trkpt><trkpt lat="40.8353867" lon="8.2945417"><ele>32.0</ele><time>2026-03-28T11:20:34.386Z</time></trkpt><trkpt lat="40.835445" lon="8.294255"><ele>33.0</ele><time>2026-03-28T11:20:35.386Z</time></trkpt><trkpt lat="40.8355067" lon="8.2939683"><ele>34.0</ele><time>2026-03-28T11:20:36.386Z</time></trkpt><trkpt lat="40.8355733" lon="8.2936783"><ele>35.0</ele><time>2026-03-28T11:20:37.386Z</time></trkpt><trkpt lat="40.835645" lon="8.2933833"><ele>36.0</ele><time>2026-03-28T11:20:38.385Z</time></trkpt><trkpt lat="40.835715" lon="8.2930883"><ele>37.0</ele><time>2026-03-28T11:20:39.386Z</time></trkpt><trkpt lat="40.835785" lon="8.2927967"><ele>38.0</ele><time>2026-03-28T11:20:40.386Z</time></trkpt><trkpt lat="40.835855" lon="8.292515"><ele>38.0</ele><time>2026-03-28T11:20:41.386Z</time></trkpt><trkpt lat="40.8359233" lon="8.29223"><ele>38.0</ele><time>2026-03-28T11:20:42.386Z</time></trkpt><trkpt lat="40.8359917" lon="8.2919383"><ele>38.0</ele><time>2026-03-28T11:20:43.386Z</time></trkpt><trkpt lat="40.836065" lon="8.291645"><ele>38.0</ele><time>2026-03-28T11:20:44.386Z</time></trkpt><trkpt lat="40.8361317" lon="8.29135"><ele>38.0</ele><time>2026-03-28T11:20:45.386Z</time></trkpt><trkpt lat="40.83619" lon="8.2910533"><ele>38.0</ele><time>2026-03-28T11:20:46.386Z</time></trkpt><trkpt lat="40.836255" lon="8.2907483"><ele>39.0</ele><time>2026-03-28T11:20:47.386Z</time></trkpt><trkpt lat="40.836305" lon="8.290455"><ele>40.0</ele><time>2026-03-28T11:20:48.386Z</time></trkpt><trkpt lat="40.83634" lon="8.2901633"><ele>40.0</ele><time>2026-03-28T11:20:49.385Z</time></trkpt><trkpt lat="40.8363667" lon="8.2898717"><ele>40.0</ele><time>2026-03-28T11:20:50.386Z</time></trkpt><trkpt lat="40.8363817" lon="8.28956"><ele>40.5</ele><time>2026-03-28T11:20:51.385Z</time></trkpt><trkpt lat="40.8363917" lon="8.28925"><ele>41.0</ele><time>2026-03-28T11:20:52.386Z</time></trkpt><trkpt lat="40.8364033" lon="8.28895"><ele>41.0</ele><time>2026-03-28T11:20:53.385Z</time></trkpt><trkpt lat="40.8364183" lon="8.28864"><ele>41.0</ele><time>2026-03-28T11:20:54.385Z</time></trkpt><trkpt lat="40.836435" lon="8.2883317"><ele>42.0</ele><time>2026-03-28T11:20:55.386Z</time></trkpt><trkpt lat="40.8364533" lon="8.288025"><ele>43.0</ele><time>2026-03-28T11:20:56.386Z</time></trkpt><trkpt lat="40.83646" lon="8.28773"><ele>43.0</ele><time>2026-03-28T11:20:57.386Z</time></trkpt><trkpt lat="40.8364633" lon="8.2874317"><ele>43.0</ele><time>2026-03-28T11:20:58.385Z</time></trkpt><trkpt lat="40.8364817" lon="8.2871267"><ele>42.333333333333336</ele><time>2026-03-28T11:20:59.386Z</time></trkpt><trkpt lat="40.8365" lon="8.2868283"><ele>41.666666666666664</ele><time>2026-03-28T11:21:00.386Z</time></trkpt><trkpt lat="40.83653" lon="8.2865517"><ele>41.0</ele><time>2026-03-28T11:21:01.385Z</time></trkpt><trkpt lat="40.836565" lon="8.2862833"><ele>40.666666666666664</ele><time>2026-03-28T11:21:02.386Z</time></trkpt><trkpt lat="40.83661" lon="8.2860267"><ele>40.333333333333336</ele><time>2026-03-28T11:21:03.385Z</time></trkpt><trkpt lat="40.8366967" lon="8.2857933"><ele>40.0</ele><time>2026-03-28T11:21:04.385Z</time></trkpt><trkpt lat="40.83681" lon="8.2855933"><ele>38.66666666666667</ele><time>2026-03-28T11:21:05.386Z</time></trkpt><trkpt lat="40.8369567" lon="8.2854083"><ele>37.333333333333336</ele><time>2026-03-28T11:21:06.385Z</time></trkpt><trkpt lat="40.8371383" lon="8.285225"><ele>36.0</ele><time>2026-03-28T11:21:07.386Z</time></trkpt><trkpt lat="40.837335" lon="8.2850417"><ele>36.0</ele><time>2026-03-28T11:21:08.386Z</time></trkpt><trkpt lat="40.8375267" lon="8.2848483"><ele>36.0</ele><time>2026-03-28T11:21:09.386Z</time></trkpt><trkpt lat="40.837715" lon="8.2846483"><ele>31.5</ele><time>2026-03-28T11:21:10.386Z</time></trkpt><trkpt lat="40.8378967" lon="8.2844533"><ele>27.0</ele><time>2026-03-28T11:21:11.386Z</time></trkpt><trkpt lat="40.8380917" lon="8.2842617"><ele>27.0</ele><time>2026-03-28T11:21:12.386Z</time></trkpt><trkpt lat="40.8382833" lon="8.28406"><ele>27.0</ele><time>2026-03-28T11:21:13.386Z</time></trkpt><trkpt lat="40.838465" lon="8.2838583"><ele>26.0</ele><time>2026-03-28T11:21:14.386Z</time></trkpt><trkpt lat="40.83865" lon="8.283655"><ele>25.0</ele><time>2026-03-28T11:21:15.386Z</time></trkpt><trkpt lat="40.838835" lon="8.2834433"><ele>25.0</ele><time>2026-03-28T11:21:16.386Z</time></trkpt><trkpt lat="40.8390233" lon="8.2832483"><ele>25.0</ele><time>2026-03-28T11:21:17.385Z</time></trkpt><trkpt lat="40.8392167" lon="8.28307"><ele>19.0</ele><time>2026-03-28T11:21:18.386Z</time></trkpt><trkpt lat="40.839425" lon="8.2829033"><ele>13.0</ele><time>2026-03-28T11:21:19.385Z</time></trkpt><trkpt lat="40.8396533" lon="8.2827733"><ele>13.0</ele><time>2026-03-28T11:21:20.386Z</time></trkpt><trkpt lat="40.8398933" lon="8.2826583"><ele>13.0</ele><time>2026-03-28T11:21:21.386Z</time></trkpt><trkpt lat="40.8401333" lon="8.282545"><ele>11.5</ele><time>2026-03-28T11:21:22.386Z</time></trkpt><trkpt lat="40.840365" lon="8.2824333"><ele>10.0</ele><time>2026-03-28T11:21:23.385Z</time></trkpt><trkpt lat="40.8406017" lon="8.282315"><ele>9.0</ele><time>2026-03-28T11:21:24.386Z</time></trkpt><trkpt lat="40.8408367" lon="8.2822017"><ele>8.0</ele><time>2026-03-28T11:21:25.386Z</time></trkpt><trkpt lat="40.84107" lon="8.28208"><ele>6.5</ele><time>2026-03-28T11:21:26.386Z</time></trkpt><trkpt lat="40.8413017" lon="8.2819567"><ele>5.0</ele><time>2026-03-28T11:21:27.386Z</time></trkpt><trkpt lat="40.8415283" lon="8.2818267"><ele>5.0</ele><time>2026-03-28T11:21:28.386Z</time></trkpt><trkpt lat="40.8417367" lon="8.281685"><ele>5.0</ele><time>2026-03-28T11:21:29.385Z</time></trkpt><trkpt lat="40.8419117" lon="8.2815017"><ele>4.0</ele><time>2026-03-28T11:21:30.385Z</time></trkpt><trkpt lat="40.8420717" lon="8.2812933"><ele>3.0</ele><time>2026-03-28T11:21:31.386Z</time></trkpt><trkpt lat="40.8422133" lon="8.2810583"><ele>3.0</ele><time>2026-03-28T11:21:32.386Z</time></trkpt><trkpt lat="40.84235" lon="8.2808067"><ele>3.0</ele><time>2026-03-28T11:21:33.385Z</time></trkpt><trkpt lat="40.8424833" lon="8.2805467"><ele>3.5</ele><time>2026-03-28T11:21:34.386Z</time></trkpt><trkpt lat="40.8426133" lon="8.2802717"><ele>4.0</ele><time>2026-03-28T11:21:35.386Z</time></trkpt><trkpt lat="40.8427317" lon="8.27999"><ele>9.0</ele><time>2026-03-28T11:21:36.386Z</time></trkpt><trkpt lat="40.8428467" lon="8.27972"><ele>14.0</ele><time>2026-03-28T11:21:37.386Z</time></trkpt><trkpt lat="40.8429283" lon="8.279445"><ele>14.0</ele><time>2026-03-28T11:21:38.386Z</time></trkpt><trkpt lat="40.8429867" lon="8.2791633"><ele>14.0</ele><time>2026-03-28T11:21:39.386Z</time></trkpt><trkpt lat="40.8430167" lon="8.2788667"><ele>14.0</ele><time>2026-03-28T11:21:40.386Z</time></trkpt><trkpt lat="40.8430367" lon="8.2785517"><ele>16.0</ele><time>2026-03-28T11:21:41.385Z</time></trkpt><trkpt lat="40.8430667" lon="8.278235"><ele>18.0</ele><time>2026-03-28T11:21:42.386Z</time></trkpt><trkpt lat="40.8430833" lon="8.2779183"><ele>18.5</ele><time>2026-03-28T11:21:43.386Z</time></trkpt><trkpt lat="40.843105" lon="8.2775983"><ele>19.0</ele><time>2026-03-28T11:21:44.386Z</time></trkpt><trkpt lat="40.8431317" lon="8.27728"><ele>19.5</ele><time>2026-03-28T11:21:45.386Z</time></trkpt><trkpt lat="40.843165" lon="8.2769667"><ele>20.0</ele><time>2026-03-28T11:21:46.386Z</time></trkpt><trkpt lat="40.8432017" lon="8.2766583"><ele>20.5</ele><time>2026-03-28T11:21:47.385Z</time></trkpt><trkpt lat="40.8432417" lon="8.2763433"><ele>21.0</ele><time>2026-03-28T11:21:48.385Z</time></trkpt><trkpt lat="40.8432767" lon="8.276035"><ele>21.0</ele><time>2026-03-28T11:21:49.386Z</time></trkpt><trkpt lat="40.8432917" lon="8.27571"><ele>21.0</ele><time>2026-03-28T11:21:50.386Z</time></trkpt><trkpt lat="40.8433" lon="8.2753983"><ele>21.0</ele><time>2026-03-28T11:21:51.385Z</time></trkpt><trkpt lat="40.84328" lon="8.2751"><ele>21.0</ele><time>2026-03-28T11:21:52.385Z</time></trkpt><trkpt lat="40.84324" lon="8.274795"><ele>22.5</ele><time>2026-03-28T11:21:53.386Z</time></trkpt><trkpt lat="40.843175" lon="8.274515"><ele>24.0</ele><time>2026-03-28T11:21:54.386Z</time></trkpt><trkpt lat="40.8431017" lon="8.2742217"><ele>25.0</ele><time>2026-03-28T11:21:55.385Z</time></trkpt><trkpt lat="40.8430267" lon="8.2739333"><ele>26.0</ele><time>2026-03-28T11:21:56.385Z</time></trkpt><trkpt lat="40.8429317" lon="8.2736433"><ele>26.0</ele><time>2026-03-28T11:21:57.386Z</time></trkpt><trkpt lat="40.8428417" lon="8.27335"><ele>26.0</ele><time>2026-03-28T11:21:58.385Z</time></trkpt><trkpt lat="40.842755" lon="8.27305"><ele>27.0</ele><time>2026-03-28T11:21:59.385Z</time></trkpt><trkpt lat="40.8426617" lon="8.2727567"><ele>28.0</ele><time>2026-03-28T11:22:00.386Z</time></trkpt><trkpt lat="40.8425733" lon="8.2724383"><ele>27.0</ele><time>2026-03-28T11:22:01.386Z</time></trkpt><trkpt lat="40.842485" lon="8.2721333"><ele>26.0</ele><time>2026-03-28T11:22:02.385Z</time></trkpt><trkpt lat="40.8423867" lon="8.2718367"><ele>26.0</ele><time>2026-03-28T11:22:03.386Z</time></trkpt><trkpt lat="40.8423" lon="8.2715367"><ele>26.0</ele><time>2026-03-28T11:22:04.386Z</time></trkpt><trkpt lat="40.8422133" lon="8.271235"><ele>26.5</ele><time>2026-03-28T11:22:05.385Z</time></trkpt><trkpt lat="40.8421317" lon="8.2709267"><ele>27.0</ele><time>2026-03-28T11:22:06.386Z</time></trkpt><trkpt lat="40.8420383" lon="8.270615"><ele>27.0</ele><time>2026-03-28T11:22:07.386Z</time></trkpt><trkpt lat="40.8419467" lon="8.2703"><ele>27.0</ele><time>2026-03-28T11:22:08.386Z</time></trkpt><trkpt lat="40.8418567" lon="8.270005"><ele>27.5</ele><time>2026-03-28T11:22:09.386Z</time></trkpt><trkpt lat="40.8417717" lon="8.2696967"><ele>28.0</ele><time>2026-03-28T11:22:10.386Z</time></trkpt><trkpt lat="40.8416967" lon="8.26938"><ele>28.0</ele><time>2026-03-28T11:22:11.386Z</time></trkpt><trkpt lat="40.8416367" lon="8.2690533"><ele>28.0</ele><time>2026-03-28T11:22:12.386Z</time></trkpt><trkpt lat="40.8415967" lon="8.2687267"><ele>28.0</ele><time>2026-03-28T11:22:13.385Z</time></trkpt><trkpt lat="40.8415617" lon="8.2684"><ele>28.0</ele><time>2026-03-28T11:22:14.385Z</time></trkpt><trkpt lat="40.8415333" lon="8.26807"><ele>28.0</ele><time>2026-03-28T11:22:15.386Z</time></trkpt><trkpt lat="40.8415133" lon="8.2677417"><ele>28.0</ele><time>2026-03-28T11:22:16.386Z</time></trkpt><trkpt lat="40.841495" lon="8.26741"><ele>28.5</ele><time>2026-03-28T11:22:17.386Z</time></trkpt><trkpt lat="40.8414683" lon="8.2670817"><ele>29.0</ele><time>2026-03-28T11:22:18.386Z</time></trkpt><trkpt lat="40.84145" lon="8.2667517"><ele>30.0</ele><time>2026-03-28T11:22:19.385Z</time></trkpt><trkpt lat="40.841435" lon="8.2664233"><ele>31.0</ele><time>2026-03-28T11:22:20.385Z</time></trkpt><trkpt lat="40.8414167" lon="8.2660917"><ele>31.0</ele><time>2026-03-28T11:22:21.385Z</time></trkpt><trkpt lat="40.8414" lon="8.2657717"><ele>31.0</ele><time>2026-03-28T11:22:22.386Z</time></trkpt><trkpt lat="40.8413817" lon="8.2654417"><ele>31.0</ele><time>2026-03-28T11:22:23.386Z</time></trkpt><trkpt lat="40.8413667" lon="8.2651133"><ele>31.0</ele><time>2026-03-28T11:22:24.386Z</time></trkpt><trkpt lat="40.841355" lon="8.2647867"><ele>31.0</ele><time>2026-03-28T11:22:25.385Z</time></trkpt><trkpt lat="40.8413333" lon="8.26446"><ele>31.0</ele><time>2026-03-28T11:22:26.386Z</time></trkpt><trkpt lat="40.84131" lon="8.2641267"><ele>31.0</ele><time>2026-03-28T11:22:27.386Z</time></trkpt><trkpt lat="40.8412933" lon="8.2638033"><ele>31.0</ele><time>2026-03-28T11:22:28.385Z</time></trkpt><trkpt lat="40.84127" lon="8.2634767"><ele>31.0</ele><time>2026-03-28T11:22:29.386Z</time></trkpt><trkpt lat="40.8412517" lon="8.2631533"><ele>31.0</ele><time>2026-03-28T11:22:30.386Z</time></trkpt><trkpt lat="40.8412283" lon="8.2628333"><ele>31.0</ele><time>2026-03-28T11:22:31.386Z</time></trkpt><trkpt lat="40.8412033" lon="8.2625117"><ele>31.0</ele><time>2026-03-28T11:22:32.386Z</time></trkpt><trkpt lat="40.84118" lon="8.26219"><ele>31.0</ele><time>2026-03-28T11:22:33.386Z</time></trkpt><trkpt lat="40.8411533" lon="8.261865"><ele>31.0</ele><time>2026-03-28T11:22:34.386Z</time></trkpt><trkpt lat="40.8411217" lon="8.2615433"><ele>31.5</ele><time>2026-03-28T11:22:35.385Z</time></trkpt><trkpt lat="40.841105" lon="8.2612217"><ele>32.0</ele><time>2026-03-28T11:22:36.386Z</time></trkpt><trkpt lat="40.8410917" lon="8.2609017"><ele>33.0</ele><time>2026-03-28T11:22:37.385Z</time></trkpt><trkpt lat="40.8410767" lon="8.2605733"><ele>34.0</ele><time>2026-03-28T11:22:38.386Z</time></trkpt><trkpt lat="40.84106" lon="8.26025"><ele>34.0</ele><time>2026-03-28T11:22:39.385Z</time></trkpt><trkpt lat="40.841045" lon="8.2599333"><ele>34.0</ele><time>2026-03-28T11:22:40.385Z</time></trkpt><trkpt lat="40.8410283" lon="8.259615"><ele>34.0</ele><time>2026-03-28T11:22:41.386Z</time></trkpt><trkpt lat="40.8410133" lon="8.2592967"><ele>34.0</ele><time>2026-03-28T11:22:42.386Z</time></trkpt><trkpt lat="40.8409833" lon="8.2589867"><ele>34.5</ele><time>2026-03-28T11:22:43.386Z</time></trkpt><trkpt lat="40.8409533" lon="8.2586717"><ele>35.0</ele><time>2026-03-28T11:22:44.386Z</time></trkpt><trkpt lat="40.8409233" lon="8.2583617"><ele>34.5</ele><time>2026-03-28T11:22:45.386Z</time></trkpt><trkpt lat="40.840895" lon="8.2580433"><ele>34.0</ele><time>2026-03-28T11:22:46.386Z</time></trkpt><trkpt lat="40.8408583" lon="8.2577317"><ele>34.0</ele><time>2026-03-28T11:22:47.386Z</time></trkpt><trkpt lat="40.840795" lon="8.257425"><ele>34.0</ele><time>2026-03-28T11:22:48.385Z</time></trkpt><trkpt lat="40.8407133" lon="8.25712"><ele>33.5</ele><time>2026-03-28T11:22:49.386Z</time></trkpt><trkpt lat="40.840625" lon="8.2568183"><ele>33.0</ele><time>2026-03-28T11:22:50.386Z</time></trkpt><trkpt lat="40.8405233" lon="8.25652"><ele>33.0</ele><time>2026-03-28T11:22:51.386Z</time></trkpt><trkpt lat="40.8404183" lon="8.2562267"><ele>33.0</ele><time>2026-03-28T11:22:52.386Z</time></trkpt><trkpt lat="40.84032" lon="8.2559383"><ele>33.0</ele><time>2026-03-28T11:22:53.386Z</time></trkpt><trkpt lat="40.8402217" lon="8.2556533"><ele>33.0</ele><time>2026-03-28T11:22:54.386Z</time></trkpt><trkpt lat="40.8401267" lon="8.2553583"><ele>32.5</ele><time>2026-03-28T11:22:55.386Z</time></trkpt><trkpt lat="40.840025" lon="8.2550683"><ele>32.0</ele><time>2026-03-28T11:22:56.386Z</time></trkpt><trkpt lat="40.839925" lon="8.2547767"><ele>32.0</ele><time>2026-03-28T11:22:57.386Z</time></trkpt><trkpt lat="40.8398283" lon="8.25448"><ele>32.0</ele><time>2026-03-28T11:22:58.386Z</time></trkpt><trkpt lat="40.8397283" lon="8.254175"><ele>32.0</ele><time>2026-03-28T11:22:59.386Z</time></trkpt><trkpt lat="40.83963" lon="8.2538783"><ele>32.0</ele><time>2026-03-28T11:23:00.386Z</time></trkpt><trkpt lat="40.8395333" lon="8.2535783"><ele>32.0</ele><time>2026-03-28T11:23:01.386Z</time></trkpt><trkpt lat="40.8394267" lon="8.253275"><ele>32.0</ele><time>2026-03-28T11:23:02.386Z</time></trkpt><trkpt lat="40.8393233" lon="8.2529733"><ele>32.0</ele><time>2026-03-28T11:23:03.385Z</time></trkpt><trkpt lat="40.8392267" lon="8.2526783"><ele>32.0</ele><time>2026-03-28T11:23:04.386Z</time></trkpt><trkpt lat="40.839115" lon="8.2523767"><ele>32.0</ele><time>2026-03-28T11:23:05.386Z</time></trkpt><trkpt lat="40.8390117" lon="8.2520767"><ele>32.0</ele><time>2026-03-28T11:23:06.386Z</time></trkpt><trkpt lat="40.8389033" lon="8.251775"><ele>32.0</ele><time>2026-03-28T11:23:07.386Z</time></trkpt><trkpt lat="40.8388017" lon="8.25148"><ele>32.0</ele><time>2026-03-28T11:23:08.386Z</time></trkpt><trkpt lat="40.8387" lon="8.25119"><ele>32.5</ele><time>2026-03-28T11:23:09.386Z</time></trkpt><trkpt lat="40.8386017" lon="8.2509"><ele>33.0</ele><time>2026-03-28T11:23:10.386Z</time></trkpt><trkpt lat="40.8385033" lon="8.250615"><ele>33.0</ele><time>2026-03-28T11:23:11.386Z</time></trkpt><trkpt lat="40.8384" lon="8.2503283"><ele>33.0</ele><time>2026-03-28T11:23:12.386Z</time></trkpt><trkpt lat="40.8383033" lon="8.250045"><ele>33.0</ele><time>2026-03-28T11:23:13.386Z</time></trkpt><trkpt lat="40.8382067" lon="8.2497517"><ele>33.0</ele><time>2026-03-28T11:23:14.386Z</time></trkpt><trkpt lat="40.838115" lon="8.24947"><ele>33.0</ele><time>2026-03-28T11:23:15.386Z</time></trkpt><trkpt lat="40.8380183" lon="8.2491883"><ele>33.0</ele><time>2026-03-28T11:23:16.385Z</time></trkpt><trkpt lat="40.8379183" lon="8.2489117"><ele>33.5</ele><time>2026-03-28T11:23:17.386Z</time></trkpt><trkpt lat="40.8378217" lon="8.248635"><ele>34.0</ele><time>2026-03-28T11:23:18.385Z</time></trkpt><trkpt lat="40.83773" lon="8.2483517"><ele>35.5</ele><time>2026-03-28T11:23:19.386Z</time></trkpt><trkpt lat="40.8376333" lon="8.2480683"><ele>37.0</ele><time>2026-03-28T11:23:20.386Z</time></trkpt><trkpt lat="40.8375417" lon="8.2478017"><ele>37.0</ele><time>2026-03-28T11:23:21.386Z</time></trkpt><trkpt lat="40.83745" lon="8.2475417"><ele>37.0</ele><time>2026-03-28T11:23:22.386Z</time></trkpt><trkpt lat="40.837365" lon="8.2473"><ele>37.0</ele><time>2026-03-28T11:23:23.385Z</time></trkpt><trkpt lat="40.8372883" lon="8.2470733"><ele>37.333333333333336</ele><time>2026-03-28T11:23:24.386Z</time></trkpt><trkpt lat="40.8372167" lon="8.246865"><ele>37.666666666666664</ele><time>2026-03-28T11:23:25.386Z</time></trkpt><trkpt lat="40.83715" lon="8.24668"><ele>38.0</ele><time>2026-03-28T11:23:26.386Z</time></trkpt><trkpt lat="40.8370833" lon="8.2465017"><ele>38.25</ele><time>2026-03-28T11:23:27.385Z</time></trkpt><trkpt lat="40.8370183" lon="8.2463117"><ele>38.5</ele><time>2026-03-28T11:23:28.386Z</time></trkpt><trkpt lat="40.8369533" lon="8.2461533"><ele>38.75</ele><time>2026-03-28T11:23:29.386Z</time></trkpt><trkpt lat="40.836905" lon="8.246"><ele>39.0</ele><time>2026-03-28T11:23:30.386Z</time></trkpt><trkpt lat="40.8368533" lon="8.2458517"><ele>39.0</ele><time>2026-03-28T11:23:31.386Z</time></trkpt><trkpt lat="40.8368067" lon="8.2457133"><ele>39.0</ele><time>2026-03-28T11:23:32.385Z</time></trkpt><trkpt lat="40.8367633" lon="8.2455917"><ele>39.0</ele><time>2026-03-28T11:23:33.386Z</time></trkpt><trkpt lat="40.8367583" lon="8.2454717"><ele>39.0</ele><time>2026-03-28T11:23:34.386Z</time></trkpt><trkpt lat="40.8367633" lon="8.2453517"><ele>39.0</ele><time>2026-03-28T11:23:35.386Z</time></trkpt><trkpt lat="40.8367817" lon="8.2452483"><ele>39.2</ele><time>2026-03-28T11:23:36.386Z</time></trkpt><trkpt lat="40.8368133" lon="8.2451433"><ele>39.4</ele><time>2026-03-28T11:23:37.385Z</time></trkpt><trkpt lat="40.836825" lon="8.2450333"><ele>39.6</ele><time>2026-03-28T11:23:38.386Z</time></trkpt><trkpt lat="40.8368067" lon="8.244925"><ele>39.8</ele><time>2026-03-28T11:23:39.386Z</time></trkpt><trkpt lat="40.8367733" lon="8.2447983"><ele>40.0</ele><time>2026-03-28T11:23:40.386Z</time></trkpt><trkpt lat="40.8367467" lon="8.2446483"><ele>40.0</ele><time>2026-03-28T11:23:41.386Z</time></trkpt><trkpt lat="40.8367433" lon="8.2444767"><ele>40.0</ele><time>2026-03-28T11:23:42.385Z</time></trkpt><trkpt lat="40.8367717" lon="8.244305"><ele>40.0</ele><time>2026-03-28T11:23:43.386Z</time></trkpt><trkpt lat="40.836815" lon="8.2441183"><ele>40.0</ele><time>2026-03-28T11:23:44.386Z</time></trkpt><trkpt lat="40.8368667" lon="8.2439117"><ele>40.0</ele><time>2026-03-28T11:23:45.386Z</time></trkpt><trkpt lat="40.836905" lon="8.2437117"><ele>40.0</ele><time>2026-03-28T11:23:46.386Z</time></trkpt><trkpt lat="40.8369433" lon="8.2434983"><ele>40.0</ele><time>2026-03-28T11:23:47.385Z</time></trkpt><trkpt lat="40.8369633" lon="8.2432733"><ele>40.0</ele><time>2026-03-28T11:23:48.385Z</time></trkpt><trkpt lat="40.8369517" lon="8.243045"><ele>40.0</ele><time>2026-03-28T11:23:49.386Z</time></trkpt><trkpt lat="40.8369233" lon="8.2428117"><ele>40.0</ele><time>2026-03-28T11:23:50.386Z</time></trkpt><trkpt lat="40.8368783" lon="8.242575"><ele>40.0</ele><time>2026-03-28T11:23:51.385Z</time></trkpt><trkpt lat="40.8368267" lon="8.24234"><ele>40.0</ele><time>2026-03-28T11:23:52.386Z</time></trkpt><trkpt lat="40.836785" lon="8.2421017"><ele>40.0</ele><time>2026-03-28T11:23:53.386Z</time></trkpt><trkpt lat="40.8367433" lon="8.24186"><ele>40.66666666666667</ele><time>2026-03-28T11:23:54.386Z</time></trkpt><trkpt lat="40.836705" lon="8.2416067"><ele>41.333333333333336</ele><time>2026-03-28T11:23:55.386Z</time></trkpt><trkpt lat="40.8366667" lon="8.2413583"><ele>42.0</ele><time>2026-03-28T11:23:56.385Z</time></trkpt><trkpt lat="40.83662" lon="8.2411033"><ele>42.0</ele><time>2026-03-28T11:23:57.385Z</time></trkpt><trkpt lat="40.83658" lon="8.240855"><ele>42.0</ele><time>2026-03-28T11:23:58.386Z</time></trkpt><trkpt lat="40.8365367" lon="8.240605"><ele>42.0</ele><time>2026-03-28T11:23:59.386Z</time></trkpt><trkpt lat="40.8364883" lon="8.2403433"><ele>42.333333333333336</ele><time>2026-03-28T11:24:00.386Z</time></trkpt><trkpt lat="40.836445" lon="8.240095"><ele>42.66666666666667</ele><time>2026-03-28T11:24:01.386Z</time></trkpt><trkpt lat="40.8364083" lon="8.239835"><ele>43.0</ele><time>2026-03-28T11:24:02.385Z</time></trkpt><trkpt lat="40.8363717" lon="8.23958"><ele>43.0</ele><time>2026-03-28T11:24:03.386Z</time></trkpt><trkpt lat="40.8363533" lon="8.2393167"><ele>43.0</ele><time>2026-03-28T11:24:04.386Z</time></trkpt><trkpt lat="40.8363367" lon="8.2390467"><ele>43.0</ele><time>2026-03-28T11:24:05.386Z</time></trkpt><trkpt lat="40.83632" lon="8.238785"><ele>43.333333333333336</ele><time>2026-03-28T11:24:06.385Z</time></trkpt><trkpt lat="40.8362917" lon="8.238505"><ele>43.666666666666664</ele><time>2026-03-28T11:24:07.385Z</time></trkpt><trkpt lat="40.8362583" lon="8.238235"><ele>44.0</ele><time>2026-03-28T11:24:08.386Z</time></trkpt><trkpt lat="40.8362333" lon="8.23797"><ele>44.0</ele><time>2026-03-28T11:24:09.386Z</time></trkpt><trkpt lat="40.8362133" lon="8.2377067"><ele>44.0</ele><time>2026-03-28T11:24:10.386Z</time></trkpt><trkpt lat="40.8361883" lon="8.2374383"><ele>44.0</ele><time>2026-03-28T11:24:11.386Z</time></trkpt><trkpt lat="40.8361567" lon="8.23716"><ele>44.0</ele><time>2026-03-28T11:24:12.385Z</time></trkpt><trkpt lat="40.8361217" lon="8.2368917"><ele>44.0</ele><time>2026-03-28T11:24:13.386Z</time></trkpt><trkpt lat="40.836095" lon="8.2366183"><ele>44.0</ele><time>2026-03-28T11:24:14.386Z</time></trkpt><trkpt lat="40.83604" lon="8.2363567"><ele>43.666666666666664</ele><time>2026-03-28T11:24:15.386Z</time></trkpt><trkpt lat="40.835995" lon="8.236095"><ele>43.333333333333336</ele><time>2026-03-28T11:24:16.386Z</time></trkpt><trkpt lat="40.8359433" lon="8.2358417"><ele>43.0</ele><time>2026-03-28T11:24:17.386Z</time></trkpt><trkpt lat="40.835885" lon="8.2355767"><ele>42.333333333333336</ele><time>2026-03-28T11:24:18.386Z</time></trkpt><trkpt lat="40.8358267" lon="8.2353067"><ele>41.666666666666664</ele><time>2026-03-28T11:24:19.386Z</time></trkpt><trkpt lat="40.8357683" lon="8.2350283"><ele>41.0</ele><time>2026-03-28T11:24:20.386Z</time></trkpt><trkpt lat="40.8357117" lon="8.234745"><ele>40.666666666666664</ele><time>2026-03-28T11:24:21.386Z</time></trkpt><trkpt lat="40.8356467" lon="8.2344733"><ele>40.333333333333336</ele><time>2026-03-28T11:24:22.386Z</time></trkpt><trkpt lat="40.8355983" lon="8.2342083"><ele>40.0</ele><time>2026-03-28T11:24:23.385Z</time></trkpt><trkpt lat="40.8355433" lon="8.2339483"><ele>40.0</ele><time>2026-03-28T11:24:24.385Z</time></trkpt><trkpt lat="40.83549" lon="8.23368"><ele>40.0</ele><time>2026-03-28T11:24:25.386Z</time></trkpt><trkpt lat="40.8354367" lon="8.2334317"><ele>40.0</ele><time>2026-03-28T11:24:26.385Z</time></trkpt><trkpt lat="40.8353883" lon="8.2331983"><ele>40.66666666666667</ele><time>2026-03-28T11:24:27.386Z</time></trkpt><trkpt lat="40.8353417" lon="8.2329917"><ele>41.333333333333336</ele><time>2026-03-28T11:24:28.386Z</time></trkpt><trkpt lat="40.8352983" lon="8.2328"><ele>42.0</ele><time>2026-03-28T11:24:29.386Z</time></trkpt><trkpt lat="40.8352533" lon="8.2326267"><ele>42.0</ele><time>2026-03-28T11:24:30.385Z</time></trkpt><trkpt lat="40.8352067" lon="8.232445"><ele>42.0</ele><time>2026-03-28T11:24:31.386Z</time></trkpt><trkpt lat="40.8351533" lon="8.2322733"><ele>42.0</ele><time>2026-03-28T11:24:32.386Z</time></trkpt><trkpt lat="40.8350567" lon="8.2321033"><ele>42.0</ele><time>2026-03-28T11:24:33.385Z</time></trkpt><trkpt lat="40.8349483" lon="8.2319483"><ele>42.666666666666664</ele><time>2026-03-28T11:24:34.386Z</time></trkpt><trkpt lat="40.8348017" lon="8.2318183"><ele>43.33333333333333</ele><time>2026-03-28T11:24:35.386Z</time></trkpt><trkpt lat="40.8346417" lon="8.231695"><ele>44.0</ele><time>2026-03-28T11:24:36.385Z</time></trkpt><trkpt lat="40.83445" lon="8.2316067"><ele>43.666666666666664</ele><time>2026-03-28T11:24:37.386Z</time></trkpt><trkpt lat="40.8342633" lon="8.2315033"><ele>43.333333333333336</ele><time>2026-03-28T11:24:38.386Z</time></trkpt><trkpt lat="40.8340983" lon="8.2314067"><ele>43.0</ele><time>2026-03-28T11:24:39.386Z</time></trkpt><trkpt lat="40.83394" lon="8.2313083"><ele>43.0</ele><time>2026-03-28T11:24:40.386Z</time></trkpt><trkpt lat="40.8337883" lon="8.231195"><ele>43.0</ele><time>2026-03-28T11:24:41.386Z</time></trkpt><trkpt lat="40.83366" lon="8.2310517"><ele>43.0</ele><time>2026-03-28T11:24:42.386Z</time></trkpt><trkpt lat="40.833545" lon="8.2308883"><ele>42.333333333333336</ele><time>2026-03-28T11:24:43.386Z</time></trkpt><trkpt lat="40.8334517" lon="8.2307117"><ele>41.666666666666664</ele><time>2026-03-28T11:24:44.386Z</time></trkpt><trkpt lat="40.8333367" lon="8.2305083"><ele>41.0</ele><time>2026-03-28T11:24:45.386Z</time></trkpt><trkpt lat="40.8332183" lon="8.2303067"><ele>42.33333333333333</ele><time>2026-03-28T11:24:46.386Z</time></trkpt><trkpt lat="40.83311" lon="8.2301217"><ele>43.666666666666664</ele><time>2026-03-28T11:24:47.386Z</time></trkpt><trkpt lat="40.8330083" lon="8.229935"><ele>45.0</ele><time>2026-03-28T11:24:48.386Z</time></trkpt><trkpt lat="40.8328917" lon="8.2297517"><ele>45.333333333333336</ele><time>2026-03-28T11:24:49.386Z</time></trkpt><trkpt lat="40.83281" lon="8.229555"><ele>45.66666666666667</ele><time>2026-03-28T11:24:50.386Z</time></trkpt><trkpt lat="40.8327483" lon="8.229355"><ele>46.0</ele><time>2026-03-28T11:24:51.386Z</time></trkpt><trkpt lat="40.8326983" lon="8.2291283"><ele>44.333333333333336</ele><time>2026-03-28T11:24:52.386Z</time></trkpt><trkpt lat="40.8326783" lon="8.2288867"><ele>42.666666666666664</ele><time>2026-03-28T11:24:53.386Z</time></trkpt><trkpt lat="40.83267" lon="8.2286317"><ele>41.0</ele><time>2026-03-28T11:24:54.385Z</time></trkpt><trkpt lat="40.832665" lon="8.2283733"><ele>41.0</ele><time>2026-03-28T11:24:55.385Z</time></trkpt><trkpt lat="40.8326467" lon="8.228115"><ele>41.0</ele><time>2026-03-28T11:24:56.386Z</time></trkpt><trkpt lat="40.8326217" lon="8.22786"><ele>41.0</ele><time>2026-03-28T11:24:57.386Z</time></trkpt><trkpt lat="40.8326017" lon="8.2275917"><ele>39.666666666666664</ele><time>2026-03-28T11:24:58.386Z</time></trkpt><trkpt lat="40.832585" lon="8.22732"><ele>38.333333333333336</ele><time>2026-03-28T11:24:59.385Z</time></trkpt><trkpt lat="40.8325617" lon="8.227045"><ele>37.0</ele><time>2026-03-28T11:25:00.386Z</time></trkpt><trkpt lat="40.832525" lon="8.2267783"><ele>37.0</ele><time>2026-03-28T11:25:01.385Z</time></trkpt><trkpt lat="40.8324917" lon="8.226515"><ele>37.0</ele><time>2026-03-28T11:25:02.385Z</time></trkpt><trkpt lat="40.83246" lon="8.2262567"><ele>37.0</ele><time>2026-03-28T11:25:03.386Z</time></trkpt><trkpt lat="40.832435" lon="8.2260167"><ele>37.333333333333336</ele><time>2026-03-28T11:25:04.386Z</time></trkpt><trkpt lat="40.8323683" lon="8.22579"><ele>37.666666666666664</ele><time>2026-03-28T11:25:05.385Z</time></trkpt><trkpt lat="40.8322817" lon="8.2255717"><ele>38.0</ele><time>2026-03-28T11:25:06.386Z</time></trkpt><trkpt lat="40.83219" lon="8.2253333"><ele>39.0</ele><time>2026-03-28T11:25:07.386Z</time></trkpt><trkpt lat="40.83209" lon="8.2251017"><ele>40.0</ele><time>2026-03-28T11:25:08.386Z</time></trkpt><trkpt lat="40.8319883" lon="8.22486"><ele>41.0</ele><time>2026-03-28T11:25:09.386Z</time></trkpt><trkpt lat="40.8318767" lon="8.2246167"><ele>41.33333333333333</ele><time>2026-03-28T11:25:10.386Z</time></trkpt><trkpt lat="40.831765" lon="8.2243767"><ele>41.666666666666664</ele><time>2026-03-28T11:25:11.386Z</time></trkpt><trkpt lat="40.8316583" lon="8.224135"><ele>42.0</ele><time>2026-03-28T11:25:12.385Z</time></trkpt><trkpt lat="40.8315483" lon="8.2238883"><ele>42.0</ele><time>2026-03-28T11:25:13.386Z</time></trkpt><trkpt lat="40.8314517" lon="8.223655"><ele>42.0</ele><time>2026-03-28T11:25:14.385Z</time></trkpt><trkpt lat="40.831345" lon="8.2234417"><ele>42.0</ele><time>2026-03-28T11:25:15.386Z</time></trkpt><trkpt lat="40.8312383" lon="8.2232083"><ele>43.666666666666664</ele><time>2026-03-28T11:25:16.385Z</time></trkpt><trkpt lat="40.8311267" lon="8.2229733"><ele>45.33333333333333</ele><time>2026-03-28T11:25:17.386Z</time></trkpt><trkpt lat="40.8310333" lon="8.2227383"><ele>47.0</ele><time>2026-03-28T11:25:18.386Z</time></trkpt><trkpt lat="40.8309267" lon="8.22249"><ele>48.33333333333333</ele><time>2026-03-28T11:25:19.385Z</time></trkpt><trkpt lat="40.83082" lon="8.2222367"><ele>49.666666666666664</ele><time>2026-03-28T11:25:20.386Z</time></trkpt><trkpt lat="40.830715" lon="8.22199"><ele>51.0</ele><time>2026-03-28T11:25:21.386Z</time></trkpt><trkpt lat="40.8306133" lon="8.221745"><ele>51.0</ele><time>2026-03-28T11:25:22.386Z</time></trkpt><trkpt lat="40.8305067" lon="8.2214967"><ele>51.0</ele><time>2026-03-28T11:25:23.386Z</time></trkpt><trkpt lat="40.8303967" lon="8.2212417"><ele>51.0</ele><time>2026-03-28T11:25:24.386Z</time></trkpt><trkpt lat="40.8302933" lon="8.2209783"><ele>51.5</ele><time>2026-03-28T11:25:25.386Z</time></trkpt><trkpt lat="40.8301883" lon="8.22072"><ele>52.0</ele><time>2026-03-28T11:25:26.386Z</time></trkpt><trkpt lat="40.8300967" lon="8.2204433"><ele>52.0</ele><time>2026-03-28T11:25:27.386Z</time></trkpt><trkpt lat="40.8300233" lon="8.2201617"><ele>52.0</ele><time>2026-03-28T11:25:28.386Z</time></trkpt><trkpt lat="40.8299617" lon="8.21987"><ele>51.0</ele><time>2026-03-28T11:25:29.386Z</time></trkpt><trkpt lat="40.829915" lon="8.21958"><ele>50.0</ele><time>2026-03-28T11:25:30.386Z</time></trkpt><trkpt lat="40.8298633" lon="8.21928"><ele>50.0</ele><time>2026-03-28T11:25:31.386Z</time></trkpt><trkpt lat="40.8298383" lon="8.2189933"><ele>50.0</ele><time>2026-03-28T11:25:32.385Z</time></trkpt><trkpt lat="40.829815" lon="8.2186833"><ele>50.0</ele><time>2026-03-28T11:25:33.386Z</time></trkpt><trkpt lat="40.8297817" lon="8.21838"><ele>50.0</ele><time>2026-03-28T11:25:34.385Z</time></trkpt><trkpt lat="40.8297633" lon="8.21807"><ele>48.0</ele><time>2026-03-28T11:25:35.385Z</time></trkpt><trkpt lat="40.82974" lon="8.2177583"><ele>46.0</ele><time>2026-03-28T11:25:36.386Z</time></trkpt><trkpt lat="40.82971" lon="8.2174567"><ele>46.0</ele><time>2026-03-28T11:25:37.386Z</time></trkpt><trkpt lat="40.8296833" lon="8.2171817"><ele>46.0</ele><time>2026-03-28T11:25:38.385Z</time></trkpt><trkpt lat="40.82964" lon="8.2169217"><ele>46.0</ele><time>2026-03-28T11:25:39.386Z</time></trkpt><trkpt lat="40.8295667" lon="8.2166717"><ele>47.0</ele><time>2026-03-28T11:25:40.385Z</time></trkpt><trkpt lat="40.8294617" lon="8.2164483"><ele>48.0</ele><time>2026-03-28T11:25:41.386Z</time></trkpt><trkpt lat="40.82933" lon="8.2162117"><ele>49.0</ele><time>2026-03-28T11:25:42.386Z</time></trkpt><trkpt lat="40.8291867" lon="8.2159983"><ele>49.0</ele><time>2026-03-28T11:25:43.386Z</time></trkpt><trkpt lat="40.8290317" lon="8.2157833"><ele>49.0</ele><time>2026-03-28T11:25:44.386Z</time></trkpt><trkpt lat="40.8288767" lon="8.2155783"><ele>49.0</ele><time>2026-03-28T11:25:45.386Z</time></trkpt><trkpt lat="40.828745" lon="8.21538"><ele>49.33333333333333</ele><time>2026-03-28T11:25:46.386Z</time></trkpt><trkpt lat="40.828615" lon="8.215175"><ele>49.66666666666667</ele><time>2026-03-28T11:25:47.385Z</time></trkpt><trkpt lat="40.8285233" lon="8.2149617"><ele>50.0</ele><time>2026-03-28T11:25:48.386Z</time></trkpt><trkpt lat="40.8284617" lon="8.2147333"><ele>50.0</ele><time>2026-03-28T11:25:49.385Z</time></trkpt><trkpt lat="40.8284167" lon="8.2144717"><ele>50.0</ele><time>2026-03-28T11:25:50.386Z</time></trkpt><trkpt lat="40.8283883" lon="8.2142"><ele>50.0</ele><time>2026-03-28T11:25:51.386Z</time></trkpt><trkpt lat="40.8283617" lon="8.2139267"><ele>49.333333333333336</ele><time>2026-03-28T11:25:52.386Z</time></trkpt><trkpt lat="40.82833" lon="8.2136483"><ele>48.66666666666667</ele><time>2026-03-28T11:25:53.385Z</time></trkpt><trkpt lat="40.8283" lon="8.213395"><ele>48.0</ele><time>2026-03-28T11:25:54.386Z</time></trkpt><trkpt lat="40.82826" lon="8.21314"><ele>48.0</ele><time>2026-03-28T11:25:55.386Z</time></trkpt><trkpt lat="40.82822" lon="8.2128917"><ele>48.0</ele><time>2026-03-28T11:25:56.386Z</time></trkpt><trkpt lat="40.82817" lon="8.21266"><ele>48.0</ele><time>2026-03-28T11:25:57.386Z</time></trkpt><trkpt lat="40.828075" lon="8.212445"><ele>48.33333333333333</ele><time>2026-03-28T11:25:58.386Z</time></trkpt><trkpt lat="40.827955" lon="8.2122483"><ele>48.666666666666664</ele><time>2026-03-28T11:25:59.386Z</time></trkpt><trkpt lat="40.8278067" lon="8.2120733"><ele>49.0</ele><time>2026-03-28T11:26:00.386Z</time></trkpt><trkpt lat="40.8276283" lon="8.2119083"><ele>49.0</ele><time>2026-03-28T11:26:01.386Z</time></trkpt><trkpt lat="40.8274467" lon="8.2117467"><ele>49.0</ele><time>2026-03-28T11:26:02.386Z</time></trkpt><trkpt lat="40.827275" lon="8.21158"><ele>49.0</ele><time>2026-03-28T11:26:03.385Z</time></trkpt><trkpt lat="40.82712" lon="8.2114317"><ele>49.33333333333333</ele><time>2026-03-28T11:26:04.386Z</time></trkpt><trkpt lat="40.8269633" lon="8.2112817"><ele>49.66666666666667</ele><time>2026-03-28T11:26:05.386Z</time></trkpt><trkpt lat="40.8268083" lon="8.2111267"><ele>50.0</ele><time>2026-03-28T11:26:06.386Z</time></trkpt><trkpt lat="40.82666" lon="8.2109717"><ele>50.333333333333336</ele><time>2026-03-28T11:26:07.386Z</time></trkpt><trkpt lat="40.826515" lon="8.2108117"><ele>50.66666666666667</ele><time>2026-03-28T11:26:08.385Z</time></trkpt><trkpt lat="40.8263633" lon="8.2106517"><ele>51.0</ele><time>2026-03-28T11:26:09.386Z</time></trkpt><trkpt lat="40.8262083" lon="8.2104983"><ele>51.33333333333333</ele><time>2026-03-28T11:26:10.385Z</time></trkpt><trkpt lat="40.826055" lon="8.2103317"><ele>51.666666666666664</ele><time>2026-03-28T11:26:11.385Z</time></trkpt><trkpt lat="40.8259017" lon="8.2101767"><ele>52.0</ele><time>2026-03-28T11:26:12.385Z</time></trkpt><trkpt lat="40.8257533" lon="8.2100167"><ele>52.0</ele><time>2026-03-28T11:26:13.386Z</time></trkpt><trkpt lat="40.8256017" lon="8.20985"><ele>52.0</ele><time>2026-03-28T11:26:14.386Z</time></trkpt><trkpt lat="40.8254583" lon="8.2096933"><ele>52.0</ele><time>2026-03-28T11:26:15.386Z</time></trkpt><trkpt lat="40.82532" lon="8.209515"><ele>51.666666666666664</ele><time>2026-03-28T11:26:16.386Z</time></trkpt><trkpt lat="40.8251967" lon="8.2093217"><ele>51.33333333333333</ele><time>2026-03-28T11:26:17.386Z</time></trkpt><trkpt lat="40.8250717" lon="8.209105"><ele>51.0</ele><time>2026-03-28T11:26:18.385Z</time></trkpt><trkpt lat="40.82495" lon="8.2088783"><ele>52.0</ele><time>2026-03-28T11:26:19.386Z</time></trkpt><trkpt lat="40.82485" lon="8.2086567"><ele>53.0</ele><time>2026-03-28T11:26:20.386Z</time></trkpt><trkpt lat="40.8247433" lon="8.2084467"><ele>54.0</ele><time>2026-03-28T11:26:21.385Z</time></trkpt><trkpt lat="40.82464" lon="8.2082517"><ele>54.33333333333333</ele><time>2026-03-28T11:26:22.386Z</time></trkpt><trkpt lat="40.824545" lon="8.2080517"><ele>54.666666666666664</ele><time>2026-03-28T11:26:23.386Z</time></trkpt><trkpt lat="40.824445" lon="8.2078517"><ele>55.0</ele><time>2026-03-28T11:26:24.386Z</time></trkpt><trkpt lat="40.8243467" lon="8.2076283"><ele>55.0</ele><time>2026-03-28T11:26:25.386Z</time></trkpt><trkpt lat="40.82426" lon="8.207405"><ele>55.0</ele><time>2026-03-28T11:26:26.386Z</time></trkpt><trkpt lat="40.8242017" lon="8.2071567"><ele>55.0</ele><time>2026-03-28T11:26:27.386Z</time></trkpt><trkpt lat="40.8241567" lon="8.2069"><ele>55.0</ele><time>2026-03-28T11:26:28.386Z</time></trkpt><trkpt lat="40.824105" lon="8.2066367"><ele>55.0</ele><time>2026-03-28T11:26:29.386Z</time></trkpt><trkpt lat="40.8240633" lon="8.20637"><ele>55.0</ele><time>2026-03-28T11:26:30.385Z</time></trkpt><trkpt lat="40.8240283" lon="8.206115"><ele>55.666666666666664</ele><time>2026-03-28T11:26:31.386Z</time></trkpt><trkpt lat="40.8239867" lon="8.2058633"><ele>56.33333333333333</ele><time>2026-03-28T11:26:32.386Z</time></trkpt><trkpt lat="40.8239433" lon="8.2056017"><ele>57.0</ele><time>2026-03-28T11:26:33.386Z</time></trkpt><trkpt lat="40.823905" lon="8.2053583"><ele>57.33333333333333</ele><time>2026-03-28T11:26:34.386Z</time></trkpt><trkpt lat="40.8238733" lon="8.20509"><ele>57.666666666666664</ele><time>2026-03-28T11:26:35.386Z</time></trkpt><trkpt lat="40.8238433" lon="8.2048083"><ele>58.0</ele><time>2026-03-28T11:26:36.386Z</time></trkpt><trkpt lat="40.8238017" lon="8.2045317"><ele>58.0</ele><time>2026-03-28T11:26:37.385Z</time></trkpt><trkpt lat="40.8237633" lon="8.20425"><ele>58.0</ele><time>2026-03-28T11:26:38.386Z</time></trkpt><trkpt lat="40.8237" lon="8.203955"><ele>58.0</ele><time>2026-03-28T11:26:39.386Z</time></trkpt><trkpt lat="40.8236333" lon="8.2036417"><ele>57.5</ele><time>2026-03-28T11:26:40.386Z</time></trkpt><trkpt lat="40.8235717" lon="8.2033117"><ele>57.0</ele><time>2026-03-28T11:26:41.386Z</time></trkpt><trkpt lat="40.8235117" lon="8.20296"><ele>56.5</ele><time>2026-03-28T11:26:42.386Z</time></trkpt><trkpt lat="40.8234667" lon="8.2025917"><ele>56.0</ele><time>2026-03-28T11:26:43.385Z</time></trkpt><trkpt lat="40.82341" lon="8.2022267"><ele>56.0</ele><time>2026-03-28T11:26:44.385Z</time></trkpt><trkpt lat="40.8233567" lon="8.201875"><ele>56.0</ele><time>2026-03-28T11:26:45.385Z</time></trkpt><trkpt lat="40.8233083" lon="8.201535"><ele>56.5</ele><time>2026-03-28T11:26:46.385Z</time></trkpt><trkpt lat="40.8232533" lon="8.2011967"><ele>57.0</ele><time>2026-03-28T11:26:47.386Z</time></trkpt><trkpt lat="40.8232017" lon="8.200875"><ele>57.5</ele><time>2026-03-28T11:26:48.386Z</time></trkpt><trkpt lat="40.823155" lon="8.2005583"><ele>58.0</ele><time>2026-03-28T11:26:49.386Z</time></trkpt><trkpt lat="40.823105" lon="8.200255"><ele>58.0</ele><time>2026-03-28T11:26:50.385Z</time></trkpt><trkpt lat="40.8230567" lon="8.1999733"><ele>58.0</ele><time>2026-03-28T11:26:51.386Z</time></trkpt><trkpt lat="40.8229833" lon="8.199695"><ele>58.0</ele><time>2026-03-28T11:26:52.385Z</time></trkpt><trkpt lat="40.822885" lon="8.1994133"><ele>58.5</ele><time>2026-03-28T11:26:53.385Z</time></trkpt><trkpt lat="40.8227717" lon="8.1991383"><ele>59.0</ele><time>2026-03-28T11:26:54.386Z</time></trkpt><trkpt lat="40.822655" lon="8.1988917"><ele>59.5</ele><time>2026-03-28T11:26:55.386Z</time></trkpt><trkpt lat="40.8224967" lon="8.1986617"><ele>60.0</ele><time>2026-03-28T11:26:56.386Z</time></trkpt><trkpt lat="40.82233" lon="8.1984433"><ele>60.0</ele><time>2026-03-28T11:26:57.386Z</time></trkpt><trkpt lat="40.82214" lon="8.198265"><ele>60.0</ele><time>2026-03-28T11:26:58.385Z</time></trkpt><trkpt lat="40.8219467" lon="8.1981067"><ele>59.0</ele><time>2026-03-28T11:26:59.386Z</time></trkpt><trkpt lat="40.8217233" lon="8.1979717"><ele>58.0</ele><time>2026-03-28T11:27:00.385Z</time></trkpt><trkpt lat="40.821495" lon="8.1978583"><ele>58.0</ele><time>2026-03-28T11:27:01.386Z</time></trkpt><trkpt lat="40.8212533" lon="8.197755"><ele>58.0</ele><time>2026-03-28T11:27:02.385Z</time></trkpt><trkpt lat="40.821025" lon="8.19765"><ele>58.0</ele><time>2026-03-28T11:27:03.386Z</time></trkpt><trkpt lat="40.8207933" lon="8.1975483"><ele>58.0</ele><time>2026-03-28T11:27:04.385Z</time></trkpt><trkpt lat="40.8205633" lon="8.1974333"><ele>59.0</ele><time>2026-03-28T11:27:05.386Z</time></trkpt><trkpt lat="40.8203417" lon="8.19733"><ele>60.0</ele><time>2026-03-28T11:27:06.386Z</time></trkpt><trkpt lat="40.8201217" lon="8.1972233"><ele>61.0</ele><time>2026-03-28T11:27:07.386Z</time></trkpt><trkpt lat="40.8198967" lon="8.1971183"><ele>62.0</ele><time>2026-03-28T11:27:08.386Z</time></trkpt><trkpt lat="40.8196767" lon="8.197015"><ele>62.0</ele><time>2026-03-28T11:27:09.386Z</time></trkpt><trkpt lat="40.8194633" lon="8.1969033"><ele>62.0</ele><time>2026-03-28T11:27:10.386Z</time></trkpt><trkpt lat="40.819245" lon="8.1968083"><ele>62.66666666666667</ele><time>2026-03-28T11:27:11.386Z</time></trkpt><trkpt lat="40.8190267" lon="8.19673"><ele>63.33333333333333</ele><time>2026-03-28T11:27:12.386Z</time></trkpt><trkpt lat="40.8188083" lon="8.1966783"><ele>64.0</ele><time>2026-03-28T11:27:13.386Z</time></trkpt><trkpt lat="40.8185833" lon="8.1966483"><ele>63.5</ele><time>2026-03-28T11:27:14.386Z</time></trkpt><trkpt lat="40.8183517" lon="8.1966483"><ele>63.0</ele><time>2026-03-28T11:27:15.385Z</time></trkpt><trkpt lat="40.8181133" lon="8.196655"><ele>63.0</ele><time>2026-03-28T11:27:16.385Z</time></trkpt><trkpt lat="40.8178733" lon="8.1966683"><ele>63.0</ele><time>2026-03-28T11:27:17.386Z</time></trkpt><trkpt lat="40.817635" lon="8.19669"><ele>64.0</ele><time>2026-03-28T11:27:18.385Z</time></trkpt><trkpt lat="40.817395" lon="8.1966983"><ele>65.0</ele><time>2026-03-28T11:27:19.386Z</time></trkpt><trkpt lat="40.8171583" lon="8.1967017"><ele>65.0</ele><time>2026-03-28T11:27:20.385Z</time></trkpt><trkpt lat="40.8169267" lon="8.1967167"><ele>65.0</ele><time>2026-03-28T11:27:21.385Z</time></trkpt><trkpt lat="40.8166867" lon="8.196715"><ele>66.0</ele><time>2026-03-28T11:27:22.386Z</time></trkpt><trkpt lat="40.8164483" lon="8.196695"><ele>67.0</ele><time>2026-03-28T11:27:23.385Z</time></trkpt><trkpt lat="40.8162217" lon="8.1966483"><ele>67.0</ele><time>2026-03-28T11:27:24.386Z</time></trkpt><trkpt lat="40.8159933" lon="8.1965583"><ele>67.0</ele><time>2026-03-28T11:27:25.386Z</time></trkpt><trkpt lat="40.8157517" lon="8.19646"><ele>66.5</ele><time>2026-03-28T11:27:26.386Z</time></trkpt><trkpt lat="40.815505" lon="8.1963683"><ele>66.0</ele><time>2026-03-28T11:27:27.386Z</time></trkpt><trkpt lat="40.8152567" lon="8.1962767"><ele>66.0</ele><time>2026-03-28T11:27:28.386Z</time></trkpt><trkpt lat="40.815015" lon="8.196195"><ele>66.0</ele><time>2026-03-28T11:27:29.386Z</time></trkpt><trkpt lat="40.8147717" lon="8.1961117"><ele>66.0</ele><time>2026-03-28T11:27:30.386Z</time></trkpt><trkpt lat="40.8145367" lon="8.1960267"><ele>66.0</ele><time>2026-03-28T11:27:31.386Z</time></trkpt><trkpt lat="40.81431" lon="8.1959467"><ele>67.66666666666667</ele><time>2026-03-28T11:27:32.386Z</time></trkpt><trkpt lat="40.8141" lon="8.1958533"><ele>69.33333333333334</ele><time>2026-03-28T11:27:33.386Z</time></trkpt><trkpt lat="40.8138867" lon="8.1957617"><ele>71.0</ele><time>2026-03-28T11:27:34.386Z</time></trkpt><trkpt lat="40.8136667" lon="8.1956767"><ele>73.0</ele><time>2026-03-28T11:27:35.386Z</time></trkpt><trkpt lat="40.8134517" lon="8.195615"><ele>75.0</ele><time>2026-03-28T11:27:36.386Z</time></trkpt><trkpt lat="40.8132467" lon="8.1955717"><ele>77.0</ele><time>2026-03-28T11:27:37.386Z</time></trkpt><trkpt lat="40.8130283" lon="8.195545"><ele>77.0</ele><time>2026-03-28T11:27:38.386Z</time></trkpt><trkpt lat="40.8128017" lon="8.1955383"><ele>77.0</ele><time>2026-03-28T11:27:39.386Z</time></trkpt><trkpt lat="40.8125717" lon="8.1955433"><ele>78.5</ele><time>2026-03-28T11:27:40.386Z</time></trkpt><trkpt lat="40.81234" lon="8.1955483"><ele>80.0</ele><time>2026-03-28T11:27:41.386Z</time></trkpt><trkpt lat="40.8121017" lon="8.1955533"><ele>80.0</ele><time>2026-03-28T11:27:42.385Z</time></trkpt><trkpt lat="40.8118583" lon="8.1955467"><ele>80.0</ele><time>2026-03-28T11:27:43.385Z</time></trkpt><trkpt lat="40.8116133" lon="8.1955367"><ele>80.5</ele><time>2026-03-28T11:27:44.386Z</time></trkpt><trkpt lat="40.81137" lon="8.1955217"><ele>81.0</ele><time>2026-03-28T11:27:45.386Z</time></trkpt><trkpt lat="40.8111317" lon="8.19551"><ele>82.0</ele><time>2026-03-28T11:27:46.385Z</time></trkpt><trkpt lat="40.810895" lon="8.1955083"><ele>83.0</ele><time>2026-03-28T11:27:47.386Z</time></trkpt><trkpt lat="40.8106533" lon="8.19551"><ele>83.0</ele><time>2026-03-28T11:27:48.386Z</time></trkpt><trkpt lat="40.8104133" lon="8.1955133"><ele>83.0</ele><time>2026-03-28T11:27:49.385Z</time></trkpt><trkpt lat="40.8101767" lon="8.195505"><ele>85.5</ele><time>2026-03-28T11:27:50.386Z</time></trkpt><trkpt lat="40.8099333" lon="8.1955033"><ele>88.0</ele><time>2026-03-28T11:27:51.386Z</time></trkpt><trkpt lat="40.8096917" lon="8.195485"><ele>88.0</ele><time>2026-03-28T11:27:52.385Z</time></trkpt><trkpt lat="40.8094583" lon="8.1954667"><ele>88.0</ele><time>2026-03-28T11:27:53.385Z</time></trkpt><trkpt lat="40.8092283" lon="8.1954533"><ele>91.33333333333333</ele><time>2026-03-28T11:27:54.385Z</time></trkpt><trkpt lat="40.8090067" lon="8.1954533"><ele>94.66666666666666</ele><time>2026-03-28T11:27:55.385Z</time></trkpt><trkpt lat="40.8087867" lon="8.1954467"><ele>98.0</ele><time>2026-03-28T11:27:56.385Z</time></trkpt><trkpt lat="40.80857" lon="8.19544"><ele>98.66666666666666</ele><time>2026-03-28T11:27:57.386Z</time></trkpt><trkpt lat="40.80836" lon="8.195445"><ele>99.33333333333334</ele><time>2026-03-28T11:27:58.386Z</time></trkpt><trkpt lat="40.808155" lon="8.195465"><ele>100.0</ele><time>2026-03-28T11:27:59.385Z</time></trkpt><trkpt lat="40.8079417" lon="8.195495"><ele>100.0</ele><time>2026-03-28T11:28:00.386Z</time></trkpt><trkpt lat="40.807725" lon="8.1955417"><ele>100.0</ele><time>2026-03-28T11:28:01.386Z</time></trkpt><trkpt lat="40.80751" lon="8.195595"><ele>100.0</ele><time>2026-03-28T11:28:02.386Z</time></trkpt><trkpt lat="40.8073" lon="8.1956533"><ele>98.66666666666667</ele><time>2026-03-28T11:28:03.386Z</time></trkpt><trkpt lat="40.8070833" lon="8.195715"><ele>97.33333333333334</ele><time>2026-03-28T11:28:04.385Z</time></trkpt><trkpt lat="40.806865" lon="8.1957783"><ele>96.0</ele><time>2026-03-28T11:28:05.385Z</time></trkpt><trkpt lat="40.8066417" lon="8.19584"><ele>96.0</ele><time>2026-03-28T11:28:06.386Z</time></trkpt><trkpt lat="40.806415" lon="8.1959"><ele>96.0</ele><time>2026-03-28T11:28:07.385Z</time></trkpt><trkpt lat="40.8061817" lon="8.1959517"><ele>96.0</ele><time>2026-03-28T11:28:08.385Z</time></trkpt><trkpt lat="40.8059517" lon="8.1959933"><ele>96.0</ele><time>2026-03-28T11:28:09.386Z</time></trkpt><trkpt lat="40.8057183" lon="8.1960217"><ele>96.0</ele><time>2026-03-28T11:28:10.386Z</time></trkpt><trkpt lat="40.8054817" lon="8.1960433"><ele>96.0</ele><time>2026-03-28T11:28:11.386Z</time></trkpt><trkpt lat="40.8052467" lon="8.1960567"><ele>95.66666666666667</ele><time>2026-03-28T11:28:12.386Z</time></trkpt><trkpt lat="40.8050233" lon="8.1960717"><ele>95.33333333333334</ele><time>2026-03-28T11:28:13.385Z</time></trkpt><trkpt lat="40.80481" lon="8.1960733"><ele>95.0</ele><time>2026-03-28T11:28:14.386Z</time></trkpt><trkpt lat="40.8046117" lon="8.1960833"><ele>95.0</ele><time>2026-03-28T11:28:15.386Z</time></trkpt><trkpt lat="40.8044183" lon="8.1960967"><ele>95.0</ele><time>2026-03-28T11:28:16.386Z</time></trkpt><trkpt lat="40.8042283" lon="8.1961133"><ele>95.0</ele><time>2026-03-28T11:28:17.386Z</time></trkpt><trkpt lat="40.8040467" lon="8.1961683"><ele>95.0</ele><time>2026-03-28T11:28:18.386Z</time></trkpt><trkpt lat="40.8038817" lon="8.19626"><ele>95.0</ele><time>2026-03-28T11:28:19.386Z</time></trkpt><trkpt lat="40.803725" lon="8.1964083"><ele>95.0</ele><time>2026-03-28T11:28:20.386Z</time></trkpt><trkpt lat="40.8035917" lon="8.196595"><ele>95.0</ele><time>2026-03-28T11:28:21.386Z</time></trkpt><trkpt lat="40.803465" lon="8.19681"><ele>95.0</ele><time>2026-03-28T11:28:22.386Z</time></trkpt><trkpt lat="40.8033417" lon="8.1970333"><ele>95.0</ele><time>2026-03-28T11:28:23.386Z</time></trkpt><trkpt lat="40.8032117" lon="8.19725"><ele>94.66666666666667</ele><time>2026-03-28T11:28:24.386Z</time></trkpt><trkpt lat="40.8030717" lon="8.1974633"><ele>94.33333333333333</ele><time>2026-03-28T11:28:25.386Z</time></trkpt><trkpt lat="40.80294" lon="8.1976817"><ele>94.0</ele><time>2026-03-28T11:28:26.386Z</time></trkpt><trkpt lat="40.8027983" lon="8.1978917"><ele>93.66666666666666</ele><time>2026-03-28T11:28:27.386Z</time></trkpt><trkpt lat="40.8026567" lon="8.1980867"><ele>93.33333333333333</ele><time>2026-03-28T11:28:28.386Z</time></trkpt><trkpt lat="40.8025067" lon="8.19829"><ele>93.0</ele><time>2026-03-28T11:28:29.386Z</time></trkpt><trkpt lat="40.8023483" lon="8.198495"><ele>93.0</ele><time>2026-03-28T11:28:30.386Z</time></trkpt><trkpt lat="40.802185" lon="8.198675"><ele>93.0</ele><time>2026-03-28T11:28:31.386Z</time></trkpt><trkpt lat="40.8020083" lon="8.1988467"><ele>93.0</ele><time>2026-03-28T11:28:32.386Z</time></trkpt><trkpt lat="40.8018383" lon="8.199015"><ele>91.66666666666667</ele><time>2026-03-28T11:28:33.386Z</time></trkpt><trkpt lat="40.8016533" lon="8.1991583"><ele>90.33333333333334</ele><time>2026-03-28T11:28:34.386Z</time></trkpt><trkpt lat="40.8014583" lon="8.1992867"><ele>89.0</ele><time>2026-03-28T11:28:35.386Z</time></trkpt><trkpt lat="40.8012617" lon="8.199405"><ele>89.0</ele><time>2026-03-28T11:28:36.386Z</time></trkpt><trkpt lat="40.80107" lon="8.1995217"><ele>89.0</ele><time>2026-03-28T11:28:37.386Z</time></trkpt><trkpt lat="40.80087" lon="8.1996267"><ele>89.0</ele><time>2026-03-28T11:28:38.386Z</time></trkpt><trkpt lat="40.8006667" lon="8.1997067"><ele>88.66666666666667</ele><time>2026-03-28T11:28:39.386Z</time></trkpt><trkpt lat="40.80048" lon="8.199785"><ele>88.33333333333333</ele><time>2026-03-28T11:28:40.386Z</time></trkpt><trkpt lat="40.8003083" lon="8.1998533"><ele>88.0</ele><time>2026-03-28T11:28:41.386Z</time></trkpt><trkpt lat="40.8001483" lon="8.19992"><ele>89.0</ele><time>2026-03-28T11:28:42.386Z</time></trkpt><trkpt lat="40.7999933" lon="8.1999833"><ele>90.0</ele><time>2026-03-28T11:28:43.386Z</time></trkpt><trkpt lat="40.7998467" lon="8.2000317"><ele>91.0</ele><time>2026-03-28T11:28:44.385Z</time></trkpt><trkpt lat="40.7996967" lon="8.200095"><ele>91.0</ele><time>2026-03-28T11:28:45.386Z</time></trkpt><trkpt lat="40.799545" lon="8.2001517"><ele>91.0</ele><time>2026-03-28T11:28:46.385Z</time></trkpt><trkpt lat="40.7994" lon="8.2001817"><ele>91.0</ele><time>2026-03-28T11:28:47.385Z</time></trkpt><trkpt lat="40.79925" lon="8.2001667"><ele>92.66666666666666</ele><time>2026-03-28T11:28:48.386Z</time></trkpt><trkpt lat="40.7990933" lon="8.2001217"><ele>94.33333333333333</ele><time>2026-03-28T11:28:49.386Z</time></trkpt><trkpt lat="40.7989433" lon="8.200055"><ele>96.0</ele><time>2026-03-28T11:28:50.386Z</time></trkpt><trkpt lat="40.7988" lon="8.199985"><ele>96.0</ele><time>2026-03-28T11:28:51.386Z</time></trkpt><trkpt lat="40.7986533" lon="8.1999133"><ele>96.0</ele><time>2026-03-28T11:28:52.386Z</time></trkpt><trkpt lat="40.798495" lon="8.1998417"><ele>96.0</ele><time>2026-03-28T11:28:53.385Z</time></trkpt><trkpt lat="40.7983383" lon="8.1997667"><ele>96.66666666666666</ele><time>2026-03-28T11:28:54.386Z</time></trkpt><trkpt lat="40.798175" lon="8.1996867"><ele>97.33333333333333</ele><time>2026-03-28T11:28:55.386Z</time></trkpt><trkpt lat="40.7980067" lon="8.1996183"><ele>98.0</ele><time>2026-03-28T11:28:56.386Z</time></trkpt><trkpt lat="40.7978467" lon="8.1995433"><ele>98.0</ele><time>2026-03-28T11:28:57.386Z</time></trkpt><trkpt lat="40.797695" lon="8.1994683"><ele>98.0</ele><time>2026-03-28T11:28:58.386Z</time></trkpt><trkpt lat="40.7975433" lon="8.1994017"><ele>98.0</ele><time>2026-03-28T11:28:59.386Z</time></trkpt><trkpt lat="40.7974033" lon="8.1993383"><ele>100.66666666666666</ele><time>2026-03-28T11:29:00.386Z</time></trkpt><trkpt lat="40.797255" lon="8.1992717"><ele>103.33333333333334</ele><time>2026-03-28T11:29:01.386Z</time></trkpt><trkpt lat="40.7971067" lon="8.1992067"><ele>106.0</ele><time>2026-03-28T11:29:02.386Z</time></trkpt><trkpt lat="40.7969483" lon="8.1991467"><ele>106.0</ele><time>2026-03-28T11:29:03.386Z</time></trkpt><trkpt lat="40.7967733" lon="8.1991183"><ele>106.0</ele><time>2026-03-28T11:29:04.386Z</time></trkpt><trkpt lat="40.7965767" lon="8.1991033"><ele>106.0</ele><time>2026-03-28T11:29:05.386Z</time></trkpt><trkpt lat="40.79637" lon="8.199085"><ele>106.0</ele><time>2026-03-28T11:29:06.385Z</time></trkpt><trkpt lat="40.7961617" lon="8.199065"><ele>106.0</ele><time>2026-03-28T11:29:07.386Z</time></trkpt><trkpt lat="40.795935" lon="8.1990267"><ele>106.0</ele><time>2026-03-28T11:29:08.386Z</time></trkpt><trkpt lat="40.795705" lon="8.19898"><ele>106.5</ele><time>2026-03-28T11:29:09.386Z</time></trkpt><trkpt lat="40.7954683" lon="8.1989233"><ele>107.0</ele><time>2026-03-28T11:29:10.385Z</time></trkpt><trkpt lat="40.7952333" lon="8.198865"><ele>110.5</ele><time>2026-03-28T11:29:11.386Z</time></trkpt><trkpt lat="40.7950033" lon="8.19881"><ele>114.0</ele><time>2026-03-28T11:29:12.385Z</time></trkpt><trkpt lat="40.7947733" lon="8.1987633"><ele>114.0</ele><time>2026-03-28T11:29:13.386Z</time></trkpt><trkpt lat="40.7945533" lon="8.1987183"><ele>114.0</ele><time>2026-03-28T11:29:14.386Z</time></trkpt><trkpt lat="40.794335" lon="8.1986783"><ele>114.0</ele><time>2026-03-28T11:29:15.385Z</time></trkpt><trkpt lat="40.79412" lon="8.198625"><ele>114.66666666666666</ele><time>2026-03-28T11:29:16.386Z</time></trkpt><trkpt lat="40.7939133" lon="8.1985767"><ele>115.33333333333333</ele><time>2026-03-28T11:29:17.386Z</time></trkpt><trkpt lat="40.79371" lon="8.198545"><ele>116.0</ele><time>2026-03-28T11:29:18.386Z</time></trkpt><trkpt lat="40.7935267" lon="8.1985317"><ele>118.0</ele><time>2026-03-28T11:29:19.385Z</time></trkpt><trkpt lat="40.7933467" lon="8.19855"><ele>120.0</ele><time>2026-03-28T11:29:20.386Z</time></trkpt><trkpt lat="40.7931617" lon="8.198625"><ele>122.0</ele><time>2026-03-28T11:29:21.386Z</time></trkpt><trkpt lat="40.7929783" lon="8.1987267"><ele>122.0</ele><time>2026-03-28T11:29:22.386Z</time></trkpt><trkpt lat="40.7928217" lon="8.1988683"><ele>122.0</ele><time>2026-03-28T11:29:23.385Z</time></trkpt><trkpt lat="40.7926767" lon="8.1990167"><ele>122.0</ele><time>2026-03-28T11:29:24.385Z</time></trkpt><trkpt lat="40.792535" lon="8.1991717"><ele>123.0</ele><time>2026-03-28T11:29:25.386Z</time></trkpt><trkpt lat="40.792415" lon="8.199305"><ele>124.0</ele><time>2026-03-28T11:29:26.386Z</time></trkpt><trkpt lat="40.79228" lon="8.1994233"><ele>125.0</ele><time>2026-03-28T11:29:27.386Z</time></trkpt><trkpt lat="40.7921283" lon="8.19952"><ele>125.0</ele><time>2026-03-28T11:29:28.386Z</time></trkpt><trkpt lat="40.7919633" lon="8.1996033"><ele>125.0</ele><time>2026-03-28T11:29:29.385Z</time></trkpt><trkpt lat="40.7917783" lon="8.1996433"><ele>125.0</ele><time>2026-03-28T11:29:30.386Z</time></trkpt><trkpt lat="40.7915833" lon="8.19969"><ele>124.66666666666666</ele><time>2026-03-28T11:29:31.386Z</time></trkpt><trkpt lat="40.7913817" lon="8.1997433"><ele>124.33333333333334</ele><time>2026-03-28T11:29:32.385Z</time></trkpt><trkpt lat="40.7911717" lon="8.1998"><ele>124.0</ele><time>2026-03-28T11:29:33.385Z</time></trkpt><trkpt lat="40.7909533" lon="8.1998633"><ele>121.0</ele><time>2026-03-28T11:29:34.386Z</time></trkpt><trkpt lat="40.7907233" lon="8.1999283"><ele>118.0</ele><time>2026-03-28T11:29:35.386Z</time></trkpt><trkpt lat="40.7904867" lon="8.1999967"><ele>118.0</ele><time>2026-03-28T11:29:36.386Z</time></trkpt><trkpt lat="40.790245" lon="8.2000633"><ele>118.0</ele><time>2026-03-28T11:29:37.386Z</time></trkpt><trkpt lat="40.79" lon="8.20013"><ele>118.0</ele><time>2026-03-28T11:29:38.386Z</time></trkpt><trkpt lat="40.7897583" lon="8.2001983"><ele>118.0</ele><time>2026-03-28T11:29:39.386Z</time></trkpt><trkpt lat="40.789525" lon="8.2002667"><ele>118.5</ele><time>2026-03-28T11:29:40.385Z</time></trkpt><trkpt lat="40.789295" lon="8.2003383"><ele>119.0</ele><time>2026-03-28T11:29:41.385Z</time></trkpt><trkpt lat="40.789055" lon="8.2004067"><ele>119.0</ele><time>2026-03-28T11:29:42.386Z</time></trkpt><trkpt lat="40.7888133" lon="8.2004633"><ele>119.0</ele><time>2026-03-28T11:29:43.386Z</time></trkpt><trkpt lat="40.7885867" lon="8.2005317"><ele>121.5</ele><time>2026-03-28T11:29:44.385Z</time></trkpt><trkpt lat="40.7883667" lon="8.200595"><ele>124.0</ele><time>2026-03-28T11:29:45.386Z</time></trkpt><trkpt lat="40.7881467" lon="8.2006617"><ele>123.66666666666667</ele><time>2026-03-28T11:29:46.385Z</time></trkpt><trkpt lat="40.7879517" lon="8.2007183"><ele>123.33333333333334</ele><time>2026-03-28T11:29:47.386Z</time></trkpt><trkpt lat="40.78777" lon="8.200765"><ele>123.0</ele><time>2026-03-28T11:29:48.386Z</time></trkpt><trkpt lat="40.7875933" lon="8.200795"><ele>125.33333333333334</ele><time>2026-03-28T11:29:49.386Z</time></trkpt><trkpt lat="40.78742" lon="8.2007883"><ele>127.66666666666667</ele><time>2026-03-28T11:29:50.385Z</time></trkpt><trkpt lat="40.78724" lon="8.2007367"><ele>130.0</ele><time>2026-03-28T11:29:51.385Z</time></trkpt><trkpt lat="40.7870567" lon="8.2006533"><ele>130.66666666666669</ele><time>2026-03-28T11:29:52.386Z</time></trkpt><trkpt lat="40.7868667" lon="8.2005717"><ele>131.33333333333334</ele><time>2026-03-28T11:29:53.386Z</time></trkpt><trkpt lat="40.786665" lon="8.200495"><ele>132.0</ele><time>2026-03-28T11:29:54.385Z</time></trkpt><trkpt lat="40.7864683" lon="8.2004133"><ele>132.33333333333334</ele><time>2026-03-28T11:29:55.385Z</time></trkpt><trkpt lat="40.7862733" lon="8.2003417"><ele>132.66666666666669</ele><time>2026-03-28T11:29:56.386Z</time></trkpt><trkpt lat="40.7861033" lon="8.2002567"><ele>133.0</ele><time>2026-03-28T11:29:57.386Z</time></trkpt><trkpt lat="40.7859383" lon="8.200135"><ele>133.33333333333334</ele><time>2026-03-28T11:29:58.385Z</time></trkpt><trkpt lat="40.78577" lon="8.1999667"><ele>133.66666666666666</ele><time>2026-03-28T11:29:59.386Z</time></trkpt><trkpt lat="40.785635" lon="8.1997633"><ele>134.0</ele><time>2026-03-28T11:30:00.386Z</time></trkpt><trkpt lat="40.7855217" lon="8.1995433"><ele>135.33333333333331</ele><time>2026-03-28T11:30:01.386Z</time></trkpt><trkpt lat="40.7854" lon="8.199325"><ele>136.66666666666666</ele><time>2026-03-28T11:30:02.386Z</time></trkpt><trkpt lat="40.7852817" lon="8.199095"><ele>138.0</ele><time>2026-03-28T11:30:03.386Z</time></trkpt><trkpt lat="40.7851567" lon="8.19886"><ele>138.0</ele><time>2026-03-28T11:30:04.386Z</time></trkpt><trkpt lat="40.78504" lon="8.1986417"><ele>138.0</ele><time>2026-03-28T11:30:05.386Z</time></trkpt><trkpt lat="40.7849133" lon="8.198445"><ele>138.0</ele><time>2026-03-28T11:30:06.386Z</time></trkpt><trkpt lat="40.7848017" lon="8.1982517"><ele>138.0</ele><time>2026-03-28T11:30:07.386Z</time></trkpt><trkpt lat="40.7846783" lon="8.19809"><ele>138.0</ele><time>2026-03-28T11:30:08.386Z</time></trkpt><trkpt lat="40.7845283" lon="8.1979733"><ele>138.0</ele><time>2026-03-28T11:30:09.386Z</time></trkpt><trkpt lat="40.7843517" lon="8.1978717"><ele>140.0</ele><time>2026-03-28T11:30:10.386Z</time></trkpt><trkpt lat="40.7841483" lon="8.1977883"><ele>142.0</ele><time>2026-03-28T11:30:11.385Z</time></trkpt><trkpt lat="40.7839483" lon="8.1977033"><ele>144.0</ele><time>2026-03-28T11:30:12.386Z</time></trkpt><trkpt lat="40.7837467" lon="8.197615"><ele>144.0</ele><time>2026-03-28T11:30:13.386Z</time></trkpt><trkpt lat="40.7835483" lon="8.1975283"><ele>144.0</ele><time>2026-03-28T11:30:14.386Z</time></trkpt><trkpt lat="40.783335" lon="8.19744"><ele>144.0</ele><time>2026-03-28T11:30:15.386Z</time></trkpt><trkpt lat="40.7831317" lon="8.1973533"><ele>145.66666666666666</ele><time>2026-03-28T11:30:16.386Z</time></trkpt><trkpt lat="40.78293" lon="8.19726"><ele>147.33333333333331</ele><time>2026-03-28T11:30:17.386Z</time></trkpt><trkpt lat="40.7827433" lon="8.19717"><ele>149.0</ele><time>2026-03-28T11:30:18.385Z</time></trkpt><trkpt lat="40.7825667" lon="8.1970867"><ele>149.66666666666666</ele><time>2026-03-28T11:30:19.386Z</time></trkpt><trkpt lat="40.782405" lon="8.1969767"><ele>150.33333333333334</ele><time>2026-03-28T11:30:20.386Z</time></trkpt><trkpt lat="40.78225" lon="8.1968267"><ele>151.0</ele><time>2026-03-28T11:30:21.386Z</time></trkpt><trkpt lat="40.7821083" lon="8.1966367"><ele>152.33333333333334</ele><time>2026-03-28T11:30:22.386Z</time></trkpt><trkpt lat="40.781985" lon="8.196415"><ele>153.66666666666666</ele><time>2026-03-28T11:30:23.386Z</time></trkpt><trkpt lat="40.7818583" lon="8.1961717"><ele>155.0</ele><time>2026-03-28T11:30:24.385Z</time></trkpt><trkpt lat="40.7817183" lon="8.1959417"><ele>155.0</ele><time>2026-03-28T11:30:25.385Z</time></trkpt><trkpt lat="40.7815733" lon="8.19571"><ele>155.0</ele><time>2026-03-28T11:30:26.386Z</time></trkpt><trkpt lat="40.7814267" lon="8.1954667"><ele>154.0</ele><time>2026-03-28T11:30:27.386Z</time></trkpt><trkpt lat="40.781285" lon="8.1952217"><ele>153.0</ele><time>2026-03-28T11:30:28.386Z</time></trkpt><trkpt lat="40.7811433" lon="8.194975"><ele>150.33333333333334</ele><time>2026-03-28T11:30:29.386Z</time></trkpt><trkpt lat="40.78101" lon="8.19475"><ele>147.66666666666669</ele><time>2026-03-28T11:30:30.385Z</time></trkpt><trkpt lat="40.78088" lon="8.1945383"><ele>145.0</ele><time>2026-03-28T11:30:31.385Z</time></trkpt><trkpt lat="40.780765" lon="8.1943067"><ele>145.0</ele><time>2026-03-28T11:30:32.386Z</time></trkpt><trkpt lat="40.7806783" lon="8.1940533"><ele>145.0</ele><time>2026-03-28T11:30:33.385Z</time></trkpt><trkpt lat="40.780635" lon="8.1937817"><ele>145.0</ele><time>2026-03-28T11:30:34.386Z</time></trkpt><trkpt lat="40.780615" lon="8.193495"><ele>143.33333333333334</ele><time>2026-03-28T11:30:35.386Z</time></trkpt><trkpt lat="40.780595" lon="8.19322"><ele>141.66666666666666</ele><time>2026-03-28T11:30:36.385Z</time></trkpt><trkpt lat="40.7805767" lon="8.1929417"><ele>140.0</ele><time>2026-03-28T11:30:37.386Z</time></trkpt><trkpt lat="40.78054" lon="8.1926867"><ele>138.0</ele><time>2026-03-28T11:30:38.385Z</time></trkpt><trkpt lat="40.78049" lon="8.1924667"><ele>136.0</ele><time>2026-03-28T11:30:39.385Z</time></trkpt><trkpt lat="40.7804017" lon="8.192285"><ele>134.0</ele><time>2026-03-28T11:30:40.386Z</time></trkpt><trkpt lat="40.7802733" lon="8.1921417"><ele>133.0</ele><time>2026-03-28T11:30:41.386Z</time></trkpt><trkpt lat="40.7801067" lon="8.1920317"><ele>132.0</ele><time>2026-03-28T11:30:42.386Z</time></trkpt><trkpt lat="40.7799083" lon="8.1919433"><ele>131.0</ele><time>2026-03-28T11:30:43.386Z</time></trkpt><trkpt lat="40.779695" lon="8.1918583"><ele>131.0</ele><time>2026-03-28T11:30:44.386Z</time></trkpt><trkpt lat="40.7794867" lon="8.1917717"><ele>131.0</ele><time>2026-03-28T11:30:45.386Z</time></trkpt><trkpt lat="40.7792717" lon="8.1917267"><ele>131.0</ele><time>2026-03-28T11:30:46.385Z</time></trkpt><trkpt lat="40.7790483" lon="8.191695"><ele>132.5</ele><time>2026-03-28T11:30:47.386Z</time></trkpt><trkpt lat="40.7788117" lon="8.191685"><ele>134.0</ele><time>2026-03-28T11:30:48.386Z</time></trkpt><trkpt lat="40.7785783" lon="8.1916767"><ele>134.0</ele><time>2026-03-28T11:30:49.385Z</time></trkpt><trkpt lat="40.77835" lon="8.1916733"><ele>134.0</ele><time>2026-03-28T11:30:50.386Z</time></trkpt><trkpt lat="40.7781383" lon="8.1916583"><ele>134.0</ele><time>2026-03-28T11:30:51.386Z</time></trkpt><trkpt lat="40.7779217" lon="8.1916217"><ele>134.0</ele><time>2026-03-28T11:30:52.386Z</time></trkpt><trkpt lat="40.77772" lon="8.1915583"><ele>134.0</ele><time>2026-03-28T11:30:53.386Z</time></trkpt><trkpt lat="40.7775283" lon="8.191455"><ele>134.0</ele><time>2026-03-28T11:30:54.385Z</time></trkpt><trkpt lat="40.777345" lon="8.1913067"><ele>134.0</ele><time>2026-03-28T11:30:55.385Z</time></trkpt><trkpt lat="40.7771717" lon="8.1911433"><ele>134.0</ele><time>2026-03-28T11:30:56.386Z</time></trkpt><trkpt lat="40.77701" lon="8.191"><ele>134.0</ele><time>2026-03-28T11:30:57.386Z</time></trkpt><trkpt lat="40.7768383" lon="8.1908817"><ele>135.33333333333331</ele><time>2026-03-28T11:30:58.386Z</time></trkpt><trkpt lat="40.776645" lon="8.1908117"><ele>136.66666666666666</ele><time>2026-03-28T11:30:59.385Z</time></trkpt><trkpt lat="40.7764533" lon="8.19078"><ele>138.0</ele><time>2026-03-28T11:31:00.385Z</time></trkpt><trkpt lat="40.7762333" lon="8.1907617"><ele>139.5</ele><time>2026-03-28T11:31:01.386Z</time></trkpt><trkpt lat="40.7760033" lon="8.1907383"><ele>141.0</ele><time>2026-03-28T11:31:02.386Z</time></trkpt><trkpt lat="40.7757767" lon="8.19071"><ele>141.0</ele><time>2026-03-28T11:31:03.386Z</time></trkpt><trkpt lat="40.7755617" lon="8.1907033"><ele>141.0</ele><time>2026-03-28T11:31:04.386Z</time></trkpt><trkpt lat="40.7753467" lon="8.1906767"><ele>141.0</ele><time>2026-03-28T11:31:05.386Z</time></trkpt><trkpt lat="40.7751417" lon="8.1906617"><ele>142.33333333333334</ele><time>2026-03-28T11:31:06.385Z</time></trkpt><trkpt lat="40.774945" lon="8.1906417"><ele>143.66666666666669</ele><time>2026-03-28T11:31:07.386Z</time></trkpt><trkpt lat="40.77476" lon="8.190595"><ele>145.0</ele><time>2026-03-28T11:31:08.386Z</time></trkpt><trkpt lat="40.7745817" lon="8.1905333"><ele>145.0</ele><time>2026-03-28T11:31:09.386Z</time></trkpt><trkpt lat="40.7744033" lon="8.1904083"><ele>145.0</ele><time>2026-03-28T11:31:10.386Z</time></trkpt><trkpt lat="40.7742233" lon="8.1902767"><ele>145.0</ele><time>2026-03-28T11:31:11.386Z</time></trkpt><trkpt lat="40.77404" lon="8.1901417"><ele>145.66666666666669</ele><time>2026-03-28T11:31:12.385Z</time></trkpt><trkpt lat="40.7738467" lon="8.1900167"><ele>146.33333333333334</ele><time>2026-03-28T11:31:13.386Z</time></trkpt><trkpt lat="40.7736617" lon="8.189885"><ele>147.0</ele><time>2026-03-28T11:31:14.386Z</time></trkpt><trkpt lat="40.773465" lon="8.1897517"><ele>147.0</ele><time>2026-03-28T11:31:15.386Z</time></trkpt><trkpt lat="40.77328" lon="8.1896217"><ele>147.0</ele><time>2026-03-28T11:31:16.386Z</time></trkpt><trkpt lat="40.7731017" lon="8.1894917"><ele>147.0</ele><time>2026-03-28T11:31:17.386Z</time></trkpt><trkpt lat="40.772935" lon="8.1893633"><ele>147.0</ele><time>2026-03-28T11:31:18.386Z</time></trkpt><trkpt lat="40.7727633" lon="8.1892617"><ele>147.0</ele><time>2026-03-28T11:31:19.385Z</time></trkpt><trkpt lat="40.7725967" lon="8.1892017"><ele>147.0</ele><time>2026-03-28T11:31:20.386Z</time></trkpt><trkpt lat="40.77241" lon="8.1891783"><ele>148.66666666666666</ele><time>2026-03-28T11:31:21.385Z</time></trkpt><trkpt lat="40.7722117" lon="8.18918"><ele>150.33333333333331</ele><time>2026-03-28T11:31:22.386Z</time></trkpt><trkpt lat="40.7719883" lon="8.189185"><ele>152.0</ele><time>2026-03-28T11:31:23.385Z</time></trkpt><trkpt lat="40.7717633" lon="8.1891833"><ele>154.5</ele><time>2026-03-28T11:31:24.386Z</time></trkpt><trkpt lat="40.7715383" lon="8.189175"><ele>157.0</ele><time>2026-03-28T11:31:25.386Z</time></trkpt><trkpt lat="40.77131" lon="8.189185"><ele>157.0</ele><time>2026-03-28T11:31:26.385Z</time></trkpt><trkpt lat="40.7710883" lon="8.1892083"><ele>157.0</ele><time>2026-03-28T11:31:27.386Z</time></trkpt><trkpt lat="40.7708683" lon="8.1892633"><ele>157.0</ele><time>2026-03-28T11:31:28.386Z</time></trkpt><trkpt lat="40.77066" lon="8.1893433"><ele>156.0</ele><time>2026-03-28T11:31:29.385Z</time></trkpt><trkpt lat="40.770445" lon="8.1894583"><ele>155.0</ele><time>2026-03-28T11:31:30.386Z</time></trkpt><trkpt lat="40.7702383" lon="8.1895717"><ele>154.66666666666666</ele><time>2026-03-28T11:31:31.386Z</time></trkpt><trkpt lat="40.7700417" lon="8.18969"><ele>154.33333333333334</ele><time>2026-03-28T11:31:32.386Z</time></trkpt><trkpt lat="40.7698333" lon="8.1897933"><ele>154.0</ele><time>2026-03-28T11:31:33.386Z</time></trkpt><trkpt lat="40.76962" lon="8.1898917"><ele>154.0</ele><time>2026-03-28T11:31:34.385Z</time></trkpt><trkpt lat="40.7694183" lon="8.18999"><ele>154.0</ele><time>2026-03-28T11:31:35.386Z</time></trkpt><trkpt lat="40.7692033" lon="8.1900833"><ele>154.0</ele><time>2026-03-28T11:31:36.386Z</time></trkpt><trkpt lat="40.7689983" lon="8.190175"><ele>156.0</ele><time>2026-03-28T11:31:37.385Z</time></trkpt><trkpt lat="40.768795" lon="8.1902483"><ele>158.0</ele><time>2026-03-28T11:31:38.386Z</time></trkpt><trkpt lat="40.7685817" lon="8.1903433"><ele>160.0</ele><time>2026-03-28T11:31:39.385Z</time></trkpt><trkpt lat="40.7683683" lon="8.190435"><ele>162.66666666666669</ele><time>2026-03-28T11:31:40.386Z</time></trkpt><trkpt lat="40.7681533" lon="8.1905133"><ele>165.33333333333334</ele><time>2026-03-28T11:31:41.386Z</time></trkpt><trkpt lat="40.7679533" lon="8.1905883"><ele>168.0</ele><time>2026-03-28T11:31:42.386Z</time></trkpt><trkpt lat="40.76778" lon="8.1906733"><ele>168.0</ele><time>2026-03-28T11:31:43.386Z</time></trkpt><trkpt lat="40.7676233" lon="8.1907967"><ele>168.0</ele><time>2026-03-28T11:31:44.386Z</time></trkpt><trkpt lat="40.767495" lon="8.1909517"><ele>168.0</ele><time>2026-03-28T11:31:45.386Z</time></trkpt><trkpt lat="40.7674117" lon="8.1911133"><ele>168.0</ele><time>2026-03-28T11:31:46.386Z</time></trkpt><trkpt lat="40.7673417" lon="8.191275"><ele>168.0</ele><time>2026-03-28T11:31:47.386Z</time></trkpt><trkpt lat="40.7672583" lon="8.191455"><ele>168.0</ele><time>2026-03-28T11:31:48.386Z</time></trkpt><trkpt lat="40.7671583" lon="8.1916583"><ele>168.33333333333334</ele><time>2026-03-28T11:31:49.386Z</time></trkpt><trkpt lat="40.7670533" lon="8.1918817"><ele>168.66666666666669</ele><time>2026-03-28T11:31:50.386Z</time></trkpt><trkpt lat="40.7669417" lon="8.1921067"><ele>169.0</ele><time>2026-03-28T11:31:51.385Z</time></trkpt><trkpt lat="40.7668217" lon="8.192345"><ele>166.0</ele><time>2026-03-28T11:31:52.386Z</time></trkpt><trkpt lat="40.7667083" lon="8.1926"><ele>163.0</ele><time>2026-03-28T11:31:53.386Z</time></trkpt><trkpt lat="40.7665917" lon="8.1928617"><ele>163.0</ele><time>2026-03-28T11:31:54.386Z</time></trkpt><trkpt lat="40.7664783" lon="8.1931"><ele>163.0</ele><time>2026-03-28T11:31:55.386Z</time></trkpt><trkpt lat="40.7663617" lon="8.1933233"><ele>163.0</ele><time>2026-03-28T11:31:56.386Z</time></trkpt><trkpt lat="40.766255" lon="8.1935483"><ele>159.33333333333334</ele><time>2026-03-28T11:31:57.386Z</time></trkpt><trkpt lat="40.76615" lon="8.1937633"><ele>155.66666666666666</ele><time>2026-03-28T11:31:58.386Z</time></trkpt><trkpt lat="40.7660367" lon="8.1939433"><ele>152.0</ele><time>2026-03-28T11:31:59.385Z</time></trkpt><trkpt lat="40.7659117" lon="8.1941067"><ele>149.0</ele><time>2026-03-28T11:32:00.386Z</time></trkpt><trkpt lat="40.765765" lon="8.1942533"><ele>146.0</ele><time>2026-03-28T11:32:01.386Z</time></trkpt><trkpt lat="40.7656" lon="8.1944117"><ele>143.0</ele><time>2026-03-28T11:32:02.386Z</time></trkpt><trkpt lat="40.7654183" lon="8.1945917"><ele>143.0</ele><time>2026-03-28T11:32:03.386Z</time></trkpt><trkpt lat="40.7652383" lon="8.1947783"><ele>143.0</ele><time>2026-03-28T11:32:04.386Z</time></trkpt><trkpt lat="40.7650333" lon="8.1949617"><ele>137.5</ele><time>2026-03-28T11:32:05.386Z</time></trkpt><trkpt lat="40.7648367" lon="8.1951633"><ele>132.0</ele><time>2026-03-28T11:32:06.386Z</time></trkpt><trkpt lat="40.7646317" lon="8.1953517"><ele>132.0</ele><time>2026-03-28T11:32:07.385Z</time></trkpt><trkpt lat="40.76444" lon="8.1955333"><ele>132.0</ele><time>2026-03-28T11:32:08.385Z</time></trkpt><trkpt lat="40.76425" lon="8.19571"><ele>129.33333333333334</ele><time>2026-03-28T11:32:09.386Z</time></trkpt><trkpt lat="40.7640767" lon="8.1958833"><ele>126.66666666666667</ele><time>2026-03-28T11:32:10.386Z</time></trkpt><trkpt lat="40.7639017" lon="8.196055"><ele>124.0</ele><time>2026-03-28T11:32:11.386Z</time></trkpt><trkpt lat="40.763745" lon="8.1961983"><ele>124.0</ele><time>2026-03-28T11:32:12.385Z</time></trkpt><trkpt lat="40.76359" lon="8.1963267"><ele>124.0</ele><time>2026-03-28T11:32:13.386Z</time></trkpt><trkpt lat="40.7634467" lon="8.1964267"><ele>124.0</ele><time>2026-03-28T11:32:14.385Z</time></trkpt><trkpt lat="40.7632867" lon="8.1964683"><ele>123.33333333333334</ele><time>2026-03-28T11:32:15.386Z</time></trkpt><trkpt lat="40.7631167" lon="8.1964967"><ele>122.66666666666666</ele><time>2026-03-28T11:32:16.386Z</time></trkpt><trkpt lat="40.7629533" lon="8.1964883"><ele>122.0</ele><time>2026-03-28T11:32:17.386Z</time></trkpt><trkpt lat="40.7627883" lon="8.1965133"><ele>121.33333333333333</ele><time>2026-03-28T11:32:18.385Z</time></trkpt><trkpt lat="40.7626217" lon="8.19659"><ele>120.66666666666666</ele><time>2026-03-28T11:32:19.386Z</time></trkpt><trkpt lat="40.76245" lon="8.196715"><ele>120.0</ele><time>2026-03-28T11:32:20.386Z</time></trkpt><trkpt lat="40.7622783" lon="8.1968783"><ele>120.0</ele><time>2026-03-28T11:32:21.386Z</time></trkpt><trkpt lat="40.762115" lon="8.197065"><ele>120.0</ele><time>2026-03-28T11:32:22.386Z</time></trkpt><trkpt lat="40.7619617" lon="8.19723"><ele>120.0</ele><time>2026-03-28T11:32:23.386Z</time></trkpt><trkpt lat="40.7618" lon="8.1973933"><ele>119.33333333333334</ele><time>2026-03-28T11:32:24.386Z</time></trkpt><trkpt lat="40.761655" lon="8.19759"><ele>118.66666666666667</ele><time>2026-03-28T11:32:25.386Z</time></trkpt><trkpt lat="40.761525" lon="8.1977933"><ele>118.0</ele><time>2026-03-28T11:32:26.386Z</time></trkpt><trkpt lat="40.7613983" lon="8.19801"><ele>117.33333333333334</ele><time>2026-03-28T11:32:27.385Z</time></trkpt><trkpt lat="40.761295" lon="8.1982317"><ele>116.66666666666666</ele><time>2026-03-28T11:32:28.386Z</time></trkpt><trkpt lat="40.7611967" lon="8.1984567"><ele>116.0</ele><time>2026-03-28T11:32:29.386Z</time></trkpt><trkpt lat="40.76109" lon="8.1986817"><ele>115.33333333333333</ele><time>2026-03-28T11:32:30.386Z</time></trkpt><trkpt lat="40.76098" lon="8.19889"><ele>114.66666666666666</ele><time>2026-03-28T11:32:31.385Z</time></trkpt><trkpt lat="40.7608833" lon="8.1990983"><ele>114.0</ele><time>2026-03-28T11:32:32.385Z</time></trkpt><trkpt lat="40.7607817" lon="8.1992883"><ele>113.66666666666666</ele><time>2026-03-28T11:32:33.386Z</time></trkpt><trkpt lat="40.7606883" lon="8.199465"><ele>113.33333333333333</ele><time>2026-03-28T11:32:34.386Z</time></trkpt><trkpt lat="40.7605917" lon="8.1996283"><ele>113.0</ele><time>2026-03-28T11:32:35.386Z</time></trkpt><trkpt lat="40.760495" lon="8.1997583"><ele>113.0</ele><time>2026-03-28T11:32:36.386Z</time></trkpt><trkpt lat="40.7603967" lon="8.199825"><ele>113.00000000000001</ele><time>2026-03-28T11:32:37.386Z</time></trkpt><trkpt lat="40.7603067" lon="8.1998233"><ele>113.00000000000001</ele><time>2026-03-28T11:32:38.385Z</time></trkpt><trkpt lat="40.7602233" lon="8.1997717"><ele>113.0</ele><time>2026-03-28T11:32:39.386Z</time></trkpt><trkpt lat="40.7601417" lon="8.1996933"><ele>113.0</ele><time>2026-03-28T11:32:40.386Z</time></trkpt><trkpt lat="40.76004" lon="8.1996017"><ele>112.0</ele><time>2026-03-28T11:32:41.386Z</time></trkpt><trkpt lat="40.7599167" lon="8.1995033"><ele>111.0</ele><time>2026-03-28T11:32:42.386Z</time></trkpt><trkpt lat="40.7597883" lon="8.1993967"><ele>110.0</ele><time>2026-03-28T11:32:43.385Z</time></trkpt><trkpt lat="40.759645" lon="8.1992717"><ele>110.0</ele><time>2026-03-28T11:32:44.386Z</time></trkpt><trkpt lat="40.7595" lon="8.19915"><ele>110.0</ele><time>2026-03-28T11:32:45.385Z</time></trkpt><trkpt lat="40.7593633" lon="8.1990233"><ele>110.0</ele><time>2026-03-28T11:32:46.386Z</time></trkpt><trkpt lat="40.7592317" lon="8.1989183"><ele>110.75</ele><time>2026-03-28T11:32:47.386Z</time></trkpt><trkpt lat="40.759115" lon="8.1988217"><ele>111.5</ele><time>2026-03-28T11:32:48.386Z</time></trkpt><trkpt lat="40.7590067" lon="8.19873"><ele>112.25</ele><time>2026-03-28T11:32:49.386Z</time></trkpt><trkpt lat="40.758895" lon="8.1986417"><ele>113.0</ele><time>2026-03-28T11:32:50.386Z</time></trkpt><trkpt lat="40.758795" lon="8.1985517"><ele>113.0</ele><time>2026-03-28T11:32:51.385Z</time></trkpt><trkpt lat="40.7587033" lon="8.1984683"><ele>113.00000000000001</ele><time>2026-03-28T11:32:52.386Z</time></trkpt><trkpt lat="40.7586117" lon="8.198395"><ele>113.00000000000001</ele><time>2026-03-28T11:32:53.386Z</time></trkpt><trkpt lat="40.7585183" lon="8.19832"><ele>113.0</ele><time>2026-03-28T11:32:54.386Z</time></trkpt><trkpt lat="40.758445" lon="8.19826"><ele>113.0</ele><time>2026-03-28T11:32:55.386Z</time></trkpt><trkpt lat="40.7583733" lon="8.198205"><ele>113.4</ele><time>2026-03-28T11:32:56.386Z</time></trkpt><trkpt lat="40.7583083" lon="8.1981483"><ele>113.80000000000001</ele><time>2026-03-28T11:32:57.386Z</time></trkpt><trkpt lat="40.758245" lon="8.1981"><ele>114.2</ele><time>2026-03-28T11:32:58.386Z</time></trkpt><trkpt lat="40.75814" lon="8.19802"><ele>114.6</ele><time>2026-03-28T11:33:00.386Z</time></trkpt><trkpt lat="40.758045" lon="8.1979433"><ele>115.0</ele><time>2026-03-28T11:33:02.385Z</time></trkpt><trkpt lat="40.7579633" lon="8.1978883"><ele>115.0</ele><time>2026-03-28T11:33:04.385Z</time></trkpt><trkpt lat="40.7578833" lon="8.1978117"><ele>115.0</ele><time>2026-03-28T11:33:06.386Z</time></trkpt><trkpt lat="40.757805" lon="8.1977483"><ele>115.0</ele><time>2026-03-28T11:33:08.386Z</time></trkpt><trkpt lat="40.7577567" lon="8.1976917"><ele>115.0</ele><time>2026-03-28T11:33:10.386Z</time></trkpt><trkpt lat="40.7576833" lon="8.19762"><ele>115.0</ele><time>2026-03-28T11:36:02.386Z</time></trkpt><trkpt lat="40.7575733" lon="8.1975333"><ele>115.33333333333334</ele><time>2026-03-28T11:36:03.386Z</time></trkpt><trkpt lat="40.7574317" lon="8.1974333"><ele>115.66666666666666</ele><time>2026-03-28T11:36:04.386Z</time></trkpt><trkpt lat="40.75728" lon="8.197315"><ele>116.0</ele><time>2026-03-28T11:36:05.385Z</time></trkpt><trkpt lat="40.7571233" lon="8.1971883"><ele>116.33333333333333</ele><time>2026-03-28T11:36:06.385Z</time></trkpt><trkpt lat="40.756965" lon="8.1970583"><ele>116.66666666666666</ele><time>2026-03-28T11:36:07.386Z</time></trkpt><trkpt lat="40.7568083" lon="8.1969283"><ele>117.0</ele><time>2026-03-28T11:36:08.386Z</time></trkpt><trkpt lat="40.756645" lon="8.1968017"><ele>118.0</ele><time>2026-03-28T11:36:09.386Z</time></trkpt><trkpt lat="40.7564817" lon="8.1966533"><ele>119.0</ele><time>2026-03-28T11:36:10.386Z</time></trkpt><trkpt lat="40.7563133" lon="8.1964883"><ele>120.0</ele><time>2026-03-28T11:36:11.386Z</time></trkpt><trkpt lat="40.756165" lon="8.196305"><ele>120.33333333333334</ele><time>2026-03-28T11:36:12.385Z</time></trkpt><trkpt lat="40.756025" lon="8.19611"><ele>120.66666666666667</ele><time>2026-03-28T11:36:13.386Z</time></trkpt><trkpt lat="40.7558683" lon="8.195915"><ele>121.0</ele><time>2026-03-28T11:36:14.386Z</time></trkpt><trkpt lat="40.755705" lon="8.1957233"><ele>122.0</ele><time>2026-03-28T11:36:15.386Z</time></trkpt><trkpt lat="40.75554" lon="8.19553"><ele>123.0</ele><time>2026-03-28T11:36:16.386Z</time></trkpt><trkpt lat="40.7553667" lon="8.1953283"><ele>123.5</ele><time>2026-03-28T11:36:17.386Z</time></trkpt><trkpt lat="40.755195" lon="8.195125"><ele>124.0</ele><time>2026-03-28T11:36:18.386Z</time></trkpt><trkpt lat="40.75502" lon="8.1949233"><ele>125.0</ele><time>2026-03-28T11:36:19.386Z</time></trkpt><trkpt lat="40.7548583" lon="8.1947167"><ele>126.0</ele><time>2026-03-28T11:36:20.386Z</time></trkpt><trkpt lat="40.75469" lon="8.1945167"><ele>126.0</ele><time>2026-03-28T11:36:21.386Z</time></trkpt><trkpt lat="40.7545167" lon="8.1943133"><ele>126.0</ele><time>2026-03-28T11:36:22.385Z</time></trkpt><trkpt lat="40.75435" lon="8.194105"><ele>128.5</ele><time>2026-03-28T11:36:23.386Z</time></trkpt><trkpt lat="40.754185" lon="8.1939017"><ele>131.0</ele><time>2026-03-28T11:36:24.386Z</time></trkpt><trkpt lat="40.75401" lon="8.1936967"><ele>131.0</ele><time>2026-03-28T11:36:25.386Z</time></trkpt><trkpt lat="40.753825" lon="8.1935067"><ele>131.0</ele><time>2026-03-28T11:36:26.386Z</time></trkpt><trkpt lat="40.7536383" lon="8.193325"><ele>133.0</ele><time>2026-03-28T11:36:27.386Z</time></trkpt><trkpt lat="40.7534517" lon="8.1931517"><ele>135.0</ele><time>2026-03-28T11:36:28.386Z</time></trkpt><trkpt lat="40.7532633" lon="8.1929717"><ele>135.0</ele><time>2026-03-28T11:36:29.386Z</time></trkpt><trkpt lat="40.7530733" lon="8.1927933"><ele>135.0</ele><time>2026-03-28T11:36:30.386Z</time></trkpt><trkpt lat="40.7528733" lon="8.1926233"><ele>134.0</ele><time>2026-03-28T11:36:31.386Z</time></trkpt><trkpt lat="40.7526683" lon="8.1924367"><ele>133.0</ele><time>2026-03-28T11:36:32.386Z</time></trkpt><trkpt lat="40.7524683" lon="8.1922417"><ele>133.0</ele><time>2026-03-28T11:36:33.386Z</time></trkpt><trkpt lat="40.7522733" lon="8.1920383"><ele>133.0</ele><time>2026-03-28T11:36:34.386Z</time></trkpt><trkpt lat="40.7520783" lon="8.1918383"><ele>132.0</ele><time>2026-03-28T11:36:35.386Z</time></trkpt><trkpt lat="40.7518733" lon="8.1916517"><ele>131.0</ele><time>2026-03-28T11:36:36.386Z</time></trkpt><trkpt lat="40.7516667" lon="8.191465"><ele>133.5</ele><time>2026-03-28T11:36:37.386Z</time></trkpt><trkpt lat="40.751465" lon="8.1912717"><ele>136.0</ele><time>2026-03-28T11:36:38.386Z</time></trkpt><trkpt lat="40.7512683" lon="8.1910833"><ele>136.0</ele><time>2026-03-28T11:36:39.386Z</time></trkpt><trkpt lat="40.7510733" lon="8.1909"><ele>136.0</ele><time>2026-03-28T11:36:40.386Z</time></trkpt><trkpt lat="40.7508767" lon="8.1907233"><ele>136.0</ele><time>2026-03-28T11:36:41.386Z</time></trkpt><trkpt lat="40.750705" lon="8.1905333"><ele>136.0</ele><time>2026-03-28T11:36:42.386Z</time></trkpt><trkpt lat="40.7505333" lon="8.1903567"><ele>136.0</ele><time>2026-03-28T11:36:43.386Z</time></trkpt><trkpt lat="40.7503567" lon="8.19018"><ele>136.0</ele><time>2026-03-28T11:36:44.385Z</time></trkpt><trkpt lat="40.75018" lon="8.1900233"><ele>136.0</ele><time>2026-03-28T11:36:45.386Z</time></trkpt><trkpt lat="40.750005" lon="8.1898633"><ele>136.0</ele><time>2026-03-28T11:36:46.386Z</time></trkpt><trkpt lat="40.74984" lon="8.1897083"><ele>136.0</ele><time>2026-03-28T11:36:47.386Z</time></trkpt><trkpt lat="40.7496817" lon="8.189555"><ele>136.0</ele><time>2026-03-28T11:36:48.386Z</time></trkpt><trkpt lat="40.7495333" lon="8.1893917"><ele>136.0</ele><time>2026-03-28T11:36:49.386Z</time></trkpt><trkpt lat="40.7493983" lon="8.1892517"><ele>136.0</ele><time>2026-03-28T11:36:50.386Z</time></trkpt><trkpt lat="40.7492667" lon="8.1891317"><ele>136.0</ele><time>2026-03-28T11:36:51.386Z</time></trkpt><trkpt lat="40.7491483" lon="8.1890117"><ele>136.0</ele><time>2026-03-28T11:36:52.386Z</time></trkpt><trkpt lat="40.749045" lon="8.1889033"><ele>136.0</ele><time>2026-03-28T11:36:53.386Z</time></trkpt><trkpt lat="40.7489533" lon="8.1888017"><ele>136.0</ele><time>2026-03-28T11:36:54.386Z</time></trkpt><trkpt lat="40.7488733" lon="8.1887067"><ele>136.0</ele><time>2026-03-28T11:36:55.385Z</time></trkpt><trkpt lat="40.7488067" lon="8.1886033"><ele>136.0</ele><time>2026-03-28T11:36:56.386Z</time></trkpt><trkpt lat="40.7487583" lon="8.1885183"><ele>136.0</ele><time>2026-03-28T11:36:57.386Z</time></trkpt><trkpt lat="40.7487233" lon="8.1884433"><ele>136.0</ele><time>2026-03-28T11:36:58.386Z</time></trkpt><trkpt lat="40.7486667" lon="8.1883767"><ele>136.0</ele><time>2026-03-28T11:37:00.386Z</time></trkpt><trkpt lat="40.7485867" lon="8.1884267"><ele>136.2</ele><time>2026-03-28T11:37:02.386Z</time></trkpt><trkpt lat="40.74854" lon="8.1885217"><ele>136.39999999999998</ele><time>2026-03-28T11:37:03.385Z</time></trkpt><trkpt lat="40.7484867" lon="8.1886383"><ele>136.6</ele><time>2026-03-28T11:37:04.386Z</time></trkpt><trkpt lat="40.7484233" lon="8.18876"><ele>136.79999999999998</ele><time>2026-03-28T11:37:05.386Z</time></trkpt><trkpt lat="40.7483517" lon="8.1888933"><ele>137.0</ele><time>2026-03-28T11:37:06.386Z</time></trkpt><trkpt lat="40.748275" lon="8.18903"><ele>137.0</ele><time>2026-03-28T11:37:07.386Z</time></trkpt><trkpt lat="40.7481867" lon="8.1891717"><ele>137.0</ele><time>2026-03-28T11:37:08.386Z</time></trkpt><trkpt lat="40.7481" lon="8.1893417"><ele>137.0</ele><time>2026-03-28T11:37:09.386Z</time></trkpt><trkpt lat="40.7479883" lon="8.1895117"><ele>137.0</ele><time>2026-03-28T11:37:10.386Z</time></trkpt><trkpt lat="40.7478633" lon="8.1896683"><ele>137.0</ele><time>2026-03-28T11:37:11.385Z</time></trkpt><trkpt lat="40.7477283" lon="8.189805"><ele>137.0</ele><time>2026-03-28T11:37:12.386Z</time></trkpt><trkpt lat="40.7475917" lon="8.1899517"><ele>138.33333333333331</ele><time>2026-03-28T11:37:13.386Z</time></trkpt><trkpt lat="40.74745" lon="8.1901083"><ele>139.66666666666666</ele><time>2026-03-28T11:37:14.386Z</time></trkpt><trkpt lat="40.7473083" lon="8.1902583"><ele>141.0</ele><time>2026-03-28T11:37:15.386Z</time></trkpt><trkpt lat="40.7471667" lon="8.1904183"><ele>141.0</ele><time>2026-03-28T11:37:16.385Z</time></trkpt><trkpt lat="40.74702" lon="8.19058"><ele>141.0</ele><time>2026-03-28T11:37:17.386Z</time></trkpt><trkpt lat="40.746875" lon="8.1907333"><ele>141.0</ele><time>2026-03-28T11:37:18.386Z</time></trkpt><trkpt lat="40.7467367" lon="8.1908683"><ele>142.66666666666666</ele><time>2026-03-28T11:37:19.386Z</time></trkpt><trkpt lat="40.7466067" lon="8.1910117"><ele>144.33333333333331</ele><time>2026-03-28T11:37:20.386Z</time></trkpt><trkpt lat="40.7464833" lon="8.1911483"><ele>146.0</ele><time>2026-03-28T11:37:21.386Z</time></trkpt><trkpt lat="40.7463633" lon="8.19129"><ele>146.0</ele><time>2026-03-28T11:37:22.386Z</time></trkpt><trkpt lat="40.7462383" lon="8.1914217"><ele>146.0</ele><time>2026-03-28T11:37:23.386Z</time></trkpt><trkpt lat="40.746115" lon="8.1915633"><ele>146.0</ele><time>2026-03-28T11:37:24.386Z</time></trkpt><trkpt lat="40.74599" lon="8.191695"><ele>145.33333333333331</ele><time>2026-03-28T11:37:25.386Z</time></trkpt><trkpt lat="40.7458667" lon="8.1918317"><ele>144.66666666666666</ele><time>2026-03-28T11:37:26.386Z</time></trkpt><trkpt lat="40.745755" lon="8.1919833"><ele>144.0</ele><time>2026-03-28T11:37:27.386Z</time></trkpt><trkpt lat="40.745645" lon="8.1921533"><ele>144.0</ele><time>2026-03-28T11:37:28.385Z</time></trkpt><trkpt lat="40.7455417" lon="8.192335"><ele>144.0</ele><time>2026-03-28T11:37:29.386Z</time></trkpt><trkpt lat="40.7454317" lon="8.1925217"><ele>144.0</ele><time>2026-03-28T11:37:30.386Z</time></trkpt><trkpt lat="40.7453417" lon="8.192705"><ele>144.0</ele><time>2026-03-28T11:37:31.386Z</time></trkpt><trkpt lat="40.745265" lon="8.1928817"><ele>144.0</ele><time>2026-03-28T11:37:32.386Z</time></trkpt><trkpt lat="40.74521" lon="8.193035"><ele>144.0</ele><time>2026-03-28T11:37:33.386Z</time></trkpt><trkpt lat="40.745195" lon="8.1931917"><ele>144.0</ele><time>2026-03-28T11:37:34.386Z</time></trkpt><trkpt lat="40.7452233" lon="8.19337"><ele>142.0</ele><time>2026-03-28T11:37:35.385Z</time></trkpt><trkpt lat="40.74529" lon="8.1935617"><ele>140.0</ele><time>2026-03-28T11:37:36.386Z</time></trkpt><trkpt lat="40.7453683" lon="8.19377"><ele>138.0</ele><time>2026-03-28T11:37:37.386Z</time></trkpt><trkpt lat="40.7454383" lon="8.1939833"><ele>138.0</ele><time>2026-03-28T11:37:38.385Z</time></trkpt><trkpt lat="40.7454717" lon="8.1941983"><ele>138.0</ele><time>2026-03-28T11:37:39.386Z</time></trkpt><trkpt lat="40.745475" lon="8.1944017"><ele>138.0</ele><time>2026-03-28T11:37:40.386Z</time></trkpt><trkpt lat="40.7454667" lon="8.1946317"><ele>138.0</ele><time>2026-03-28T11:37:41.386Z</time></trkpt><trkpt lat="40.7454533" lon="8.1948867"><ele>138.0</ele><time>2026-03-28T11:37:42.386Z</time></trkpt><trkpt lat="40.7454267" lon="8.195135"><ele>138.0</ele><time>2026-03-28T11:37:43.386Z</time></trkpt><trkpt lat="40.7454" lon="8.1953883"><ele>138.0</ele><time>2026-03-28T11:37:44.386Z</time></trkpt><trkpt lat="40.7453917" lon="8.1956267"><ele>138.0</ele><time>2026-03-28T11:37:45.386Z</time></trkpt><trkpt lat="40.7454033" lon="8.1958767"><ele>138.0</ele><time>2026-03-28T11:37:46.386Z</time></trkpt><trkpt lat="40.7454217" lon="8.1961267"><ele>138.0</ele><time>2026-03-28T11:37:47.386Z</time></trkpt><trkpt lat="40.7454583" lon="8.1963867"><ele>138.0</ele><time>2026-03-28T11:37:48.386Z</time></trkpt><trkpt lat="40.74549" lon="8.1966317"><ele>138.0</ele><time>2026-03-28T11:37:49.386Z</time></trkpt><trkpt lat="40.745545" lon="8.1968817"><ele>139.33333333333334</ele><time>2026-03-28T11:37:50.386Z</time></trkpt><trkpt lat="40.745635" lon="8.197115"><ele>140.66666666666669</ele><time>2026-03-28T11:37:51.386Z</time></trkpt><trkpt lat="40.7457517" lon="8.1973483"><ele>142.0</ele><time>2026-03-28T11:37:52.386Z</time></trkpt><trkpt lat="40.745845" lon="8.197575"><ele>143.33333333333334</ele><time>2026-03-28T11:37:53.386Z</time></trkpt><trkpt lat="40.745915" lon="8.197805"><ele>144.66666666666666</ele><time>2026-03-28T11:37:54.385Z</time></trkpt><trkpt lat="40.7459833" lon="8.1980417"><ele>146.0</ele><time>2026-03-28T11:37:55.386Z</time></trkpt><trkpt lat="40.7460267" lon="8.1983083"><ele>146.0</ele><time>2026-03-28T11:37:56.386Z</time></trkpt><trkpt lat="40.7460583" lon="8.1985733"><ele>146.0</ele><time>2026-03-28T11:37:57.385Z</time></trkpt><trkpt lat="40.746065" lon="8.198845"><ele>146.0</ele><time>2026-03-28T11:37:58.386Z</time></trkpt><trkpt lat="40.746055" lon="8.199125"><ele>146.66666666666666</ele><time>2026-03-28T11:37:59.385Z</time></trkpt><trkpt lat="40.74602" lon="8.1994117"><ele>147.33333333333334</ele><time>2026-03-28T11:38:00.386Z</time></trkpt><trkpt lat="40.745985" lon="8.1996817"><ele>148.0</ele><time>2026-03-28T11:38:01.386Z</time></trkpt><trkpt lat="40.745965" lon="8.1999267"><ele>146.33333333333334</ele><time>2026-03-28T11:38:02.385Z</time></trkpt><trkpt lat="40.745965" lon="8.2001567"><ele>144.66666666666666</ele><time>2026-03-28T11:38:03.385Z</time></trkpt><trkpt lat="40.7459833" lon="8.20037"><ele>143.0</ele><time>2026-03-28T11:38:04.385Z</time></trkpt><trkpt lat="40.74604" lon="8.2005917"><ele>140.66666666666666</ele><time>2026-03-28T11:38:05.385Z</time></trkpt><trkpt lat="40.7461333" lon="8.2008133"><ele>138.33333333333334</ele><time>2026-03-28T11:38:06.386Z</time></trkpt><trkpt lat="40.7462333" lon="8.201045"><ele>136.0</ele><time>2026-03-28T11:38:07.386Z</time></trkpt><trkpt lat="40.7463367" lon="8.2012617"><ele>136.0</ele><time>2026-03-28T11:38:08.386Z</time></trkpt><trkpt lat="40.74643" lon="8.2014733"><ele>136.0</ele><time>2026-03-28T11:38:09.385Z</time></trkpt><trkpt lat="40.7465017" lon="8.201665"><ele>136.0</ele><time>2026-03-28T11:38:10.386Z</time></trkpt><trkpt lat="40.7465367" lon="8.2018583"><ele>135.66666666666669</ele><time>2026-03-28T11:38:11.385Z</time></trkpt><trkpt lat="40.7465433" lon="8.2020567"><ele>135.33333333333334</ele><time>2026-03-28T11:38:12.385Z</time></trkpt><trkpt lat="40.7465033" lon="8.2022717"><ele>135.0</ele><time>2026-03-28T11:38:13.386Z</time></trkpt><trkpt lat="40.7464483" lon="8.2024967"><ele>135.0</ele><time>2026-03-28T11:38:14.386Z</time></trkpt><trkpt lat="40.7463917" lon="8.2027333"><ele>135.0</ele><time>2026-03-28T11:38:15.386Z</time></trkpt><trkpt lat="40.7463183" lon="8.20297"><ele>135.0</ele><time>2026-03-28T11:38:16.385Z</time></trkpt><trkpt lat="40.7462433" lon="8.2032217"><ele>136.33333333333334</ele><time>2026-03-28T11:38:17.386Z</time></trkpt><trkpt lat="40.74619" lon="8.2034733"><ele>137.66666666666669</ele><time>2026-03-28T11:38:18.385Z</time></trkpt><trkpt lat="40.74614" lon="8.2036983"><ele>139.0</ele><time>2026-03-28T11:38:19.386Z</time></trkpt><trkpt lat="40.7460833" lon="8.203905"><ele>140.0</ele><time>2026-03-28T11:38:20.386Z</time></trkpt><trkpt lat="40.746035" lon="8.2041133"><ele>141.0</ele><time>2026-03-28T11:38:21.385Z</time></trkpt><trkpt lat="40.745975" lon="8.2043283"><ele>142.0</ele><time>2026-03-28T11:38:22.386Z</time></trkpt><trkpt lat="40.74591" lon="8.2045417"><ele>142.0</ele><time>2026-03-28T11:38:23.385Z</time></trkpt><trkpt lat="40.74584" lon="8.2047617"><ele>142.0</ele><time>2026-03-28T11:38:24.386Z</time></trkpt><trkpt lat="40.745775" lon="8.2049783"><ele>142.0</ele><time>2026-03-28T11:38:25.386Z</time></trkpt><trkpt lat="40.74569" lon="8.2051933"><ele>142.0</ele><time>2026-03-28T11:38:26.386Z</time></trkpt><trkpt lat="40.7455883" lon="8.205395"><ele>142.0</ele><time>2026-03-28T11:38:27.386Z</time></trkpt><trkpt lat="40.7455017" lon="8.2055433"><ele>142.0</ele><time>2026-03-28T11:38:28.386Z</time></trkpt><trkpt lat="40.7454233" lon="8.2056417"><ele>142.0</ele><time>2026-03-28T11:38:29.386Z</time></trkpt><trkpt lat="40.745365" lon="8.2056883"><ele>141.75</ele><time>2026-03-28T11:38:30.386Z</time></trkpt><trkpt lat="40.7452367" lon="8.2056633"><ele>141.5</ele><time>2026-03-28T11:38:32.386Z</time></trkpt><trkpt lat="40.745135" lon="8.2056467"><ele>141.25</ele><time>2026-03-28T11:38:33.385Z</time></trkpt><trkpt lat="40.7450033" lon="8.2056533"><ele>141.0</ele><time>2026-03-28T11:38:34.386Z</time></trkpt><trkpt lat="40.74485" lon="8.2057067"><ele>139.66666666666666</ele><time>2026-03-28T11:38:35.386Z</time></trkpt><trkpt lat="40.74467" lon="8.2057783"><ele>138.33333333333331</ele><time>2026-03-28T11:38:36.386Z</time></trkpt><trkpt lat="40.74448" lon="8.2058517"><ele>137.0</ele><time>2026-03-28T11:38:37.386Z</time></trkpt><trkpt lat="40.7442883" lon="8.2059383"><ele>137.0</ele><time>2026-03-28T11:38:38.385Z</time></trkpt><trkpt lat="40.7440817" lon="8.2060317"><ele>137.0</ele><time>2026-03-28T11:38:39.386Z</time></trkpt><trkpt lat="40.7438733" lon="8.2061217"><ele>137.0</ele><time>2026-03-28T11:38:40.385Z</time></trkpt><trkpt lat="40.7436567" lon="8.2062133"><ele>140.0</ele><time>2026-03-28T11:38:41.386Z</time></trkpt><trkpt lat="40.7434317" lon="8.206275"><ele>143.0</ele><time>2026-03-28T11:38:42.386Z</time></trkpt><trkpt lat="40.743205" lon="8.20633"><ele>143.0</ele><time>2026-03-28T11:38:43.385Z</time></trkpt><trkpt lat="40.7429767" lon="8.2063733"><ele>143.0</ele><time>2026-03-28T11:38:44.386Z</time></trkpt><trkpt lat="40.742735" lon="8.2064033"><ele>143.5</ele><time>2026-03-28T11:38:45.386Z</time></trkpt><trkpt lat="40.7425033" lon="8.2064467"><ele>144.0</ele><time>2026-03-28T11:38:46.386Z</time></trkpt><trkpt lat="40.742265" lon="8.2065033"><ele>142.5</ele><time>2026-03-28T11:38:47.386Z</time></trkpt><trkpt lat="40.742025" lon="8.2065467"><ele>141.0</ele><time>2026-03-28T11:38:48.386Z</time></trkpt><trkpt lat="40.7417933" lon="8.20659"><ele>141.0</ele><time>2026-03-28T11:38:49.386Z</time></trkpt><trkpt lat="40.7415617" lon="8.206645"><ele>141.0</ele><time>2026-03-28T11:38:50.386Z</time></trkpt><trkpt lat="40.7413333" lon="8.206695"><ele>141.0</ele><time>2026-03-28T11:38:51.386Z</time></trkpt><trkpt lat="40.7411183" lon="8.206745"><ele>141.0</ele><time>2026-03-28T11:38:52.386Z</time></trkpt><trkpt lat="40.7409167" lon="8.2067883"><ele>141.0</ele><time>2026-03-28T11:38:53.385Z</time></trkpt><trkpt lat="40.74071" lon="8.2068417"><ele>141.0</ele><time>2026-03-28T11:38:54.386Z</time></trkpt><trkpt lat="40.7405067" lon="8.20688"><ele>141.0</ele><time>2026-03-28T11:38:55.385Z</time></trkpt><trkpt lat="40.7402883" lon="8.2069433"><ele>141.0</ele><time>2026-03-28T11:38:56.386Z</time></trkpt><trkpt lat="40.7400667" lon="8.2070267"><ele>140.5</ele><time>2026-03-28T11:38:57.386Z</time></trkpt><trkpt lat="40.7398417" lon="8.2071167"><ele>140.0</ele><time>2026-03-28T11:38:58.386Z</time></trkpt><trkpt lat="40.739605" lon="8.2072033"><ele>140.5</ele><time>2026-03-28T11:38:59.386Z</time></trkpt><trkpt lat="40.7393783" lon="8.207295"><ele>141.0</ele><time>2026-03-28T11:39:00.385Z</time></trkpt><trkpt lat="40.7391367" lon="8.2073667"><ele>138.5</ele><time>2026-03-28T11:39:01.386Z</time></trkpt><trkpt lat="40.7388983" lon="8.20744"><ele>136.0</ele><time>2026-03-28T11:39:02.386Z</time></trkpt><trkpt lat="40.7386767" lon="8.2075167"><ele>136.0</ele><time>2026-03-28T11:39:03.385Z</time></trkpt><trkpt lat="40.7384717" lon="8.2075967"><ele>136.0</ele><time>2026-03-28T11:39:04.386Z</time></trkpt><trkpt lat="40.7382867" lon="8.2076833"><ele>136.0</ele><time>2026-03-28T11:39:05.386Z</time></trkpt><trkpt lat="40.7380967" lon="8.207765"><ele>136.0</ele><time>2026-03-28T11:39:06.386Z</time></trkpt><trkpt lat="40.7379033" lon="8.20787"><ele>136.0</ele><time>2026-03-28T11:39:07.386Z</time></trkpt><trkpt lat="40.7377183" lon="8.2079967"><ele>136.0</ele><time>2026-03-28T11:39:08.386Z</time></trkpt><trkpt lat="40.737545" lon="8.2081633"><ele>134.0</ele><time>2026-03-28T11:39:09.385Z</time></trkpt><trkpt lat="40.7373733" lon="8.2083517"><ele>132.0</ele><time>2026-03-28T11:39:10.385Z</time></trkpt><trkpt lat="40.7371933" lon="8.2085383"><ele>132.0</ele><time>2026-03-28T11:39:11.386Z</time></trkpt><trkpt lat="40.7370367" lon="8.2087617"><ele>132.0</ele><time>2026-03-28T11:39:12.386Z</time></trkpt><trkpt lat="40.73686" lon="8.2089917"><ele>131.0</ele><time>2026-03-28T11:39:13.386Z</time></trkpt><trkpt lat="40.7366867" lon="8.2092233"><ele>130.0</ele><time>2026-03-28T11:39:14.386Z</time></trkpt><trkpt lat="40.736505" lon="8.2094517"><ele>130.0</ele><time>2026-03-28T11:39:15.385Z</time></trkpt><trkpt lat="40.7363283" lon="8.20967"><ele>130.0</ele><time>2026-03-28T11:39:16.386Z</time></trkpt><trkpt lat="40.73616" lon="8.2098883"><ele>132.5</ele><time>2026-03-28T11:39:17.386Z</time></trkpt><trkpt lat="40.735985" lon="8.21008"><ele>135.0</ele><time>2026-03-28T11:39:18.386Z</time></trkpt><trkpt lat="40.7358" lon="8.210245"><ele>135.0</ele><time>2026-03-28T11:39:19.386Z</time></trkpt><trkpt lat="40.7356083" lon="8.2104067"><ele>135.0</ele><time>2026-03-28T11:39:20.386Z</time></trkpt><trkpt lat="40.7354317" lon="8.21057"><ele>135.0</ele><time>2026-03-28T11:39:21.386Z</time></trkpt><trkpt lat="40.73525" lon="8.210725"><ele>136.0</ele><time>2026-03-28T11:39:22.386Z</time></trkpt><trkpt lat="40.7350733" lon="8.2108717"><ele>137.0</ele><time>2026-03-28T11:39:23.386Z</time></trkpt><trkpt lat="40.7349083" lon="8.2110083"><ele>138.0</ele><time>2026-03-28T11:39:24.386Z</time></trkpt><trkpt lat="40.7347333" lon="8.2111333"><ele>138.0</ele><time>2026-03-28T11:39:25.386Z</time></trkpt><trkpt lat="40.7345717" lon="8.2112633"><ele>138.0</ele><time>2026-03-28T11:39:26.386Z</time></trkpt><trkpt lat="40.734415" lon="8.21141"><ele>138.0</ele><time>2026-03-28T11:39:27.386Z</time></trkpt><trkpt lat="40.73426" lon="8.2115683"><ele>137.0</ele><time>2026-03-28T11:39:28.385Z</time></trkpt><trkpt lat="40.7340983" lon="8.2117283"><ele>136.0</ele><time>2026-03-28T11:39:29.385Z</time></trkpt><trkpt lat="40.733945" lon="8.2119083"><ele>135.0</ele><time>2026-03-28T11:39:30.386Z</time></trkpt><trkpt lat="40.733785" lon="8.2120967"><ele>135.0</ele><time>2026-03-28T11:39:31.386Z</time></trkpt><trkpt lat="40.73364" lon="8.212305"><ele>135.0</ele><time>2026-03-28T11:39:32.385Z</time></trkpt><trkpt lat="40.733485" lon="8.212525"><ele>135.0</ele><time>2026-03-28T11:39:33.386Z</time></trkpt><trkpt lat="40.73333" lon="8.2127567"><ele>133.5</ele><time>2026-03-28T11:39:34.386Z</time></trkpt><trkpt lat="40.7331783" lon="8.212985"><ele>132.0</ele><time>2026-03-28T11:39:35.386Z</time></trkpt><trkpt lat="40.7330333" lon="8.2132183"><ele>131.66666666666666</ele><time>2026-03-28T11:39:36.386Z</time></trkpt><trkpt lat="40.732905" lon="8.2134617"><ele>131.33333333333331</ele><time>2026-03-28T11:39:37.385Z</time></trkpt><trkpt lat="40.73277" lon="8.2136717"><ele>131.0</ele><time>2026-03-28T11:39:38.386Z</time></trkpt><trkpt lat="40.7326417" lon="8.213885"><ele>133.0</ele><time>2026-03-28T11:39:39.386Z</time></trkpt><trkpt lat="40.732485" lon="8.2140883"><ele>135.0</ele><time>2026-03-28T11:39:40.386Z</time></trkpt><trkpt lat="40.7323067" lon="8.214245"><ele>137.0</ele><time>2026-03-28T11:39:41.386Z</time></trkpt><trkpt lat="40.7321267" lon="8.2144033"><ele>137.0</ele><time>2026-03-28T11:39:42.385Z</time></trkpt><trkpt lat="40.7319367" lon="8.2145283"><ele>137.0</ele><time>2026-03-28T11:39:43.385Z</time></trkpt><trkpt lat="40.7317367" lon="8.21464"><ele>137.0</ele><time>2026-03-28T11:39:44.385Z</time></trkpt><trkpt lat="40.7315467" lon="8.2147067"><ele>137.0</ele><time>2026-03-28T11:39:45.386Z</time></trkpt><trkpt lat="40.731355" lon="8.2147917"><ele>137.0</ele><time>2026-03-28T11:39:46.386Z</time></trkpt><trkpt lat="40.7311783" lon="8.2148917"><ele>137.0</ele><time>2026-03-28T11:39:47.386Z</time></trkpt><trkpt lat="40.731015" lon="8.215035"><ele>137.0</ele><time>2026-03-28T11:39:48.386Z</time></trkpt><trkpt lat="40.7308733" lon="8.21519"><ele>137.0</ele><time>2026-03-28T11:39:49.386Z</time></trkpt><trkpt lat="40.7307083" lon="8.2153117"><ele>137.0</ele><time>2026-03-28T11:39:50.386Z</time></trkpt><trkpt lat="40.73052" lon="8.2153967"><ele>137.0</ele><time>2026-03-28T11:39:51.385Z</time></trkpt><trkpt lat="40.7303233" lon="8.215455"><ele>137.0</ele><time>2026-03-28T11:39:52.386Z</time></trkpt><trkpt lat="40.730105" lon="8.2155217"><ele>137.0</ele><time>2026-03-28T11:39:53.385Z</time></trkpt><trkpt lat="40.729895" lon="8.2155483"><ele>137.66666666666666</ele><time>2026-03-28T11:39:54.386Z</time></trkpt><trkpt lat="40.729705" lon="8.2155433"><ele>138.33333333333334</ele><time>2026-03-28T11:39:55.386Z</time></trkpt><trkpt lat="40.7295117" lon="8.21551"><ele>139.0</ele><time>2026-03-28T11:39:56.386Z</time></trkpt><trkpt lat="40.729315" lon="8.21545"><ele>140.66666666666669</ele><time>2026-03-28T11:39:57.386Z</time></trkpt><trkpt lat="40.7291183" lon="8.2153817"><ele>142.33333333333334</ele><time>2026-03-28T11:39:58.386Z</time></trkpt><trkpt lat="40.7289067" lon="8.2153033"><ele>144.0</ele><time>2026-03-28T11:39:59.385Z</time></trkpt><trkpt lat="40.7287017" lon="8.2152333"><ele>145.0</ele><time>2026-03-28T11:40:00.385Z</time></trkpt><trkpt lat="40.7285083" lon="8.2151633"><ele>146.0</ele><time>2026-03-28T11:40:01.386Z</time></trkpt><trkpt lat="40.7283467" lon="8.2151033"><ele>147.0</ele><time>2026-03-28T11:40:02.386Z</time></trkpt><trkpt lat="40.7281883" lon="8.2150767"><ele>147.0</ele><time>2026-03-28T11:40:03.386Z</time></trkpt><trkpt lat="40.7280367" lon="8.2150867"><ele>147.0</ele><time>2026-03-28T11:40:04.386Z</time></trkpt><trkpt lat="40.72787" lon="8.2151283"><ele>147.0</ele><time>2026-03-28T11:40:05.386Z</time></trkpt><trkpt lat="40.7276983" lon="8.2151867"><ele>148.66666666666666</ele><time>2026-03-28T11:40:06.386Z</time></trkpt><trkpt lat="40.7275167" lon="8.2152533"><ele>150.33333333333331</ele><time>2026-03-28T11:40:07.385Z</time></trkpt><trkpt lat="40.7273233" lon="8.21532"><ele>152.0</ele><time>2026-03-28T11:40:08.385Z</time></trkpt><trkpt lat="40.7271167" lon="8.2153683"><ele>152.0</ele><time>2026-03-28T11:40:09.385Z</time></trkpt><trkpt lat="40.7269183" lon="8.215415"><ele>152.0</ele><time>2026-03-28T11:40:10.386Z</time></trkpt><trkpt lat="40.7267317" lon="8.2154867"><ele>152.0</ele><time>2026-03-28T11:40:11.386Z</time></trkpt><trkpt lat="40.72655" lon="8.2155567"><ele>153.33333333333331</ele><time>2026-03-28T11:40:12.385Z</time></trkpt><trkpt lat="40.7263767" lon="8.215615"><ele>154.66666666666666</ele><time>2026-03-28T11:40:13.386Z</time></trkpt><trkpt lat="40.7262017" lon="8.215655"><ele>156.0</ele><time>2026-03-28T11:40:14.386Z</time></trkpt><trkpt lat="40.7260283" lon="8.21566"><ele>158.66666666666666</ele><time>2026-03-28T11:40:15.386Z</time></trkpt><trkpt lat="40.7258683" lon="8.2156433"><ele>161.33333333333331</ele><time>2026-03-28T11:40:16.386Z</time></trkpt><trkpt lat="40.7257183" lon="8.215645"><ele>164.0</ele><time>2026-03-28T11:40:17.385Z</time></trkpt><trkpt lat="40.725565" lon="8.2156883"><ele>164.0</ele><time>2026-03-28T11:40:18.386Z</time></trkpt><trkpt lat="40.72544" lon="8.215785"><ele>164.0</ele><time>2026-03-28T11:40:19.385Z</time></trkpt><trkpt lat="40.7253533" lon="8.2159317"><ele>164.0</ele><time>2026-03-28T11:40:20.386Z</time></trkpt><trkpt lat="40.7252583" lon="8.2160633"><ele>164.0</ele><time>2026-03-28T11:40:21.386Z</time></trkpt><trkpt lat="40.7251417" lon="8.216185"><ele>162.0</ele><time>2026-03-28T11:40:22.386Z</time></trkpt><trkpt lat="40.7249983" lon="8.2162533"><ele>160.0</ele><time>2026-03-28T11:40:23.386Z</time></trkpt><trkpt lat="40.7248267" lon="8.21627"><ele>158.0</ele><time>2026-03-28T11:40:24.386Z</time></trkpt><trkpt lat="40.72463" lon="8.2162967"><ele>158.0</ele><time>2026-03-28T11:40:25.386Z</time></trkpt><trkpt lat="40.72443" lon="8.2163367"><ele>158.0</ele><time>2026-03-28T11:40:26.386Z</time></trkpt><trkpt lat="40.7242417" lon="8.2164017"><ele>158.0</ele><time>2026-03-28T11:40:27.385Z</time></trkpt><trkpt lat="40.7240683" lon="8.2164917"><ele>154.66666666666666</ele><time>2026-03-28T11:40:28.386Z</time></trkpt><trkpt lat="40.7239167" lon="8.2166083"><ele>151.33333333333334</ele><time>2026-03-28T11:40:29.386Z</time></trkpt><trkpt lat="40.7237817" lon="8.2167117"><ele>148.0</ele><time>2026-03-28T11:40:30.386Z</time></trkpt><trkpt lat="40.7236633" lon="8.2167883"><ele>147.0</ele><time>2026-03-28T11:40:31.386Z</time></trkpt><trkpt lat="40.723545" lon="8.2168133"><ele>146.0</ele><time>2026-03-28T11:40:32.385Z</time></trkpt><trkpt lat="40.7234167" lon="8.2167833"><ele>145.0</ele><time>2026-03-28T11:40:33.386Z</time></trkpt><trkpt lat="40.7232717" lon="8.2167267"><ele>144.0</ele><time>2026-03-28T11:40:34.386Z</time></trkpt><trkpt lat="40.723115" lon="8.2166833"><ele>144.0</ele><time>2026-03-28T11:40:35.385Z</time></trkpt><trkpt lat="40.7229567" lon="8.2166617"><ele>144.0</ele><time>2026-03-28T11:40:36.386Z</time></trkpt><trkpt lat="40.7227683" lon="8.2166767"><ele>144.0</ele><time>2026-03-28T11:40:37.386Z</time></trkpt><trkpt lat="40.722585" lon="8.2166917"><ele>143.0</ele><time>2026-03-28T11:40:38.386Z</time></trkpt><trkpt lat="40.72241" lon="8.2166983"><ele>142.0</ele><time>2026-03-28T11:40:39.386Z</time></trkpt><trkpt lat="40.72224" lon="8.2167067"><ele>141.0</ele><time>2026-03-28T11:40:40.386Z</time></trkpt><trkpt lat="40.7220867" lon="8.2167667"><ele>141.0</ele><time>2026-03-28T11:40:41.386Z</time></trkpt><trkpt lat="40.7219233" lon="8.2168483"><ele>141.0</ele><time>2026-03-28T11:40:42.386Z</time></trkpt><trkpt lat="40.7217833" lon="8.216905"><ele>141.0</ele><time>2026-03-28T11:40:43.386Z</time></trkpt><trkpt lat="40.7216467" lon="8.21692"><ele>138.66666666666666</ele><time>2026-03-28T11:40:44.386Z</time></trkpt><trkpt lat="40.7214967" lon="8.21686"><ele>136.33333333333331</ele><time>2026-03-28T11:40:45.385Z</time></trkpt><trkpt lat="40.7213583" lon="8.2167733"><ele>134.0</ele><time>2026-03-28T11:40:46.386Z</time></trkpt><trkpt lat="40.7212267" lon="8.2166267"><ele>134.0</ele><time>2026-03-28T11:40:47.386Z</time></trkpt><trkpt lat="40.7211167" lon="8.2165117"><ele>134.0</ele><time>2026-03-28T11:40:48.385Z</time></trkpt><trkpt lat="40.7210183" lon="8.2164217"><ele>134.0</ele><time>2026-03-28T11:40:49.386Z</time></trkpt><trkpt lat="40.72089" lon="8.21636"><ele>134.0</ele><time>2026-03-28T11:40:50.385Z</time></trkpt><trkpt lat="40.7207617" lon="8.216355"><ele>134.0</ele><time>2026-03-28T11:40:51.386Z</time></trkpt><trkpt lat="40.7206367" lon="8.21642"><ele>134.0</ele><time>2026-03-28T11:40:52.386Z</time></trkpt><trkpt lat="40.7205117" lon="8.216525"><ele>134.0</ele><time>2026-03-28T11:40:53.386Z</time></trkpt><trkpt lat="40.72039" lon="8.21666"><ele>134.0</ele><time>2026-03-28T11:40:54.386Z</time></trkpt><trkpt lat="40.7202533" lon="8.2167983"><ele>133.0</ele><time>2026-03-28T11:40:55.385Z</time></trkpt><trkpt lat="40.7201233" lon="8.2169717"><ele>132.0</ele><time>2026-03-28T11:40:56.385Z</time></trkpt><trkpt lat="40.7200067" lon="8.2171767"><ele>131.0</ele><time>2026-03-28T11:40:57.386Z</time></trkpt><trkpt lat="40.719905" lon="8.2174067"><ele>131.0</ele><time>2026-03-28T11:40:58.386Z</time></trkpt><trkpt lat="40.7198083" lon="8.2176617"><ele>131.0</ele><time>2026-03-28T11:40:59.386Z</time></trkpt><trkpt lat="40.7197033" lon="8.2178867"><ele>131.0</ele><time>2026-03-28T11:41:00.386Z</time></trkpt><trkpt lat="40.7196" lon="8.2180733"><ele>128.33333333333331</ele><time>2026-03-28T11:41:01.386Z</time></trkpt><trkpt lat="40.7194583" lon="8.2182033"><ele>125.66666666666666</ele><time>2026-03-28T11:41:02.386Z</time></trkpt><trkpt lat="40.71929" lon="8.2183067"><ele>123.0</ele><time>2026-03-28T11:41:03.386Z</time></trkpt><trkpt lat="40.719125" lon="8.2183967"><ele>123.0</ele><time>2026-03-28T11:41:04.386Z</time></trkpt><trkpt lat="40.7189433" lon="8.21843"><ele>123.0</ele><time>2026-03-28T11:41:05.386Z</time></trkpt><trkpt lat="40.7187733" lon="8.2184217"><ele>123.0</ele><time>2026-03-28T11:41:06.386Z</time></trkpt><trkpt lat="40.7186017" lon="8.2183667"><ele>123.0</ele><time>2026-03-28T11:41:07.385Z</time></trkpt><trkpt lat="40.7184417" lon="8.2182567"><ele>123.0</ele><time>2026-03-28T11:41:08.386Z</time></trkpt><trkpt lat="40.7182867" lon="8.2181383"><ele>123.0</ele><time>2026-03-28T11:41:09.386Z</time></trkpt><trkpt lat="40.718145" lon="8.218085"><ele>123.0</ele><time>2026-03-28T11:41:10.386Z</time></trkpt><trkpt lat="40.718" lon="8.2180883"><ele>123.0</ele><time>2026-03-28T11:41:11.386Z</time></trkpt><trkpt lat="40.7178417" lon="8.2181517"><ele>123.0</ele><time>2026-03-28T11:41:12.386Z</time></trkpt><trkpt lat="40.7176933" lon="8.2182717"><ele>120.66666666666666</ele><time>2026-03-28T11:41:13.385Z</time></trkpt><trkpt lat="40.71754" lon="8.218435"><ele>118.33333333333333</ele><time>2026-03-28T11:41:14.385Z</time></trkpt><trkpt lat="40.7173667" lon="8.2186067"><ele>116.0</ele><time>2026-03-28T11:41:15.386Z</time></trkpt><trkpt lat="40.71719" lon="8.2187733"><ele>116.0</ele><time>2026-03-28T11:41:16.386Z</time></trkpt><trkpt lat="40.7170133" lon="8.2189017"><ele>116.0</ele><time>2026-03-28T11:41:17.386Z</time></trkpt><trkpt lat="40.7168367" lon="8.2189933"><ele>116.0</ele><time>2026-03-28T11:41:18.386Z</time></trkpt><trkpt lat="40.7166633" lon="8.2190333"><ele>115.66666666666666</ele><time>2026-03-28T11:41:19.386Z</time></trkpt><trkpt lat="40.7164883" lon="8.2190083"><ele>115.33333333333334</ele><time>2026-03-28T11:41:20.386Z</time></trkpt><trkpt lat="40.7163233" lon="8.2189733"><ele>115.0</ele><time>2026-03-28T11:41:21.386Z</time></trkpt><trkpt lat="40.7161767" lon="8.2189817"><ele>115.25</ele><time>2026-03-28T11:41:22.385Z</time></trkpt><trkpt lat="40.7160617" lon="8.2190467"><ele>115.5</ele><time>2026-03-28T11:41:23.385Z</time></trkpt><trkpt lat="40.7159783" lon="8.2191917"><ele>115.75</ele><time>2026-03-28T11:41:24.386Z</time></trkpt><trkpt lat="40.7159467" lon="8.2193883"><ele>116.0</ele><time>2026-03-28T11:41:25.385Z</time></trkpt><trkpt lat="40.7159017" lon="8.219605"><ele>115.33333333333333</ele><time>2026-03-28T11:41:26.386Z</time></trkpt><trkpt lat="40.7158567" lon="8.2198233"><ele>114.66666666666666</ele><time>2026-03-28T11:41:27.385Z</time></trkpt><trkpt lat="40.7158017" lon="8.2200183"><ele>114.0</ele><time>2026-03-28T11:41:28.386Z</time></trkpt><trkpt lat="40.715695" lon="8.2202"><ele>114.0</ele><time>2026-03-28T11:41:29.386Z</time></trkpt><trkpt lat="40.715555" lon="8.22036"><ele>114.0</ele><time>2026-03-28T11:41:30.386Z</time></trkpt><trkpt lat="40.715395" lon="8.220505"><ele>114.0</ele><time>2026-03-28T11:41:31.386Z</time></trkpt><trkpt lat="40.7152333" lon="8.220645"><ele>112.66666666666666</ele><time>2026-03-28T11:41:32.386Z</time></trkpt><trkpt lat="40.7150517" lon="8.2207667"><ele>111.33333333333333</ele><time>2026-03-28T11:41:33.386Z</time></trkpt><trkpt lat="40.7148883" lon="8.220885"><ele>110.0</ele><time>2026-03-28T11:41:34.386Z</time></trkpt><trkpt lat="40.7147533" lon="8.2210183"><ele>110.0</ele><time>2026-03-28T11:41:35.386Z</time></trkpt><trkpt lat="40.71466" lon="8.2211783"><ele>110.0</ele><time>2026-03-28T11:41:36.385Z</time></trkpt><trkpt lat="40.7146067" lon="8.2213867"><ele>110.0</ele><time>2026-03-28T11:41:37.386Z</time></trkpt><trkpt lat="40.7145967" lon="8.2215983"><ele>109.66666666666666</ele><time>2026-03-28T11:41:38.386Z</time></trkpt><trkpt lat="40.7146067" lon="8.2218333"><ele>109.33333333333334</ele><time>2026-03-28T11:41:39.385Z</time></trkpt><trkpt lat="40.7146167" lon="8.22206"><ele>109.0</ele><time>2026-03-28T11:41:40.386Z</time></trkpt><trkpt lat="40.71461" lon="8.2222617"><ele>109.5</ele><time>2026-03-28T11:41:41.386Z</time></trkpt><trkpt lat="40.7145817" lon="8.2224317"><ele>110.0</ele><time>2026-03-28T11:41:42.386Z</time></trkpt><trkpt lat="40.7145283" lon="8.2225633"><ele>110.5</ele><time>2026-03-28T11:41:43.386Z</time></trkpt><trkpt lat="40.714445" lon="8.222675"><ele>111.0</ele><time>2026-03-28T11:41:44.386Z</time></trkpt><trkpt lat="40.7143067" lon="8.22274"><ele>109.33333333333334</ele><time>2026-03-28T11:41:45.386Z</time></trkpt><trkpt lat="40.714155" lon="8.22277"><ele>107.66666666666667</ele><time>2026-03-28T11:41:46.386Z</time></trkpt><trkpt lat="40.7139983" lon="8.2227433"><ele>106.0</ele><time>2026-03-28T11:41:47.386Z</time></trkpt><trkpt lat="40.7138267" lon="8.2226917"><ele>106.0</ele><time>2026-03-28T11:41:48.385Z</time></trkpt><trkpt lat="40.7136483" lon="8.2226183"><ele>106.0</ele><time>2026-03-28T11:41:49.386Z</time></trkpt><trkpt lat="40.7134633" lon="8.2225733"><ele>106.0</ele><time>2026-03-28T11:41:50.386Z</time></trkpt><trkpt lat="40.713275" lon="8.2225667"><ele>107.0</ele><time>2026-03-28T11:41:51.385Z</time></trkpt><trkpt lat="40.7130867" lon="8.2226183"><ele>108.0</ele><time>2026-03-28T11:41:52.385Z</time></trkpt><trkpt lat="40.7129117" lon="8.2226983"><ele>109.0</ele><time>2026-03-28T11:41:53.386Z</time></trkpt><trkpt lat="40.7127333" lon="8.2227717"><ele>112.0</ele><time>2026-03-28T11:41:54.386Z</time></trkpt><trkpt lat="40.7125617" lon="8.222825"><ele>115.0</ele><time>2026-03-28T11:41:55.386Z</time></trkpt><trkpt lat="40.7123883" lon="8.2228133"><ele>118.0</ele><time>2026-03-28T11:41:56.386Z</time></trkpt><trkpt lat="40.7122183" lon="8.22285"><ele>118.0</ele><time>2026-03-28T11:41:57.386Z</time></trkpt><trkpt lat="40.712035" lon="8.2229167"><ele>118.0</ele><time>2026-03-28T11:41:58.386Z</time></trkpt><trkpt lat="40.7118583" lon="8.22302"><ele>118.0</ele><time>2026-03-28T11:41:59.386Z</time></trkpt><trkpt lat="40.711695" lon="8.2231483"><ele>115.0</ele><time>2026-03-28T11:42:00.386Z</time></trkpt><trkpt lat="40.711555" lon="8.22328"><ele>112.0</ele><time>2026-03-28T11:42:01.386Z</time></trkpt><trkpt lat="40.7114317" lon="8.2234033"><ele>109.0</ele><time>2026-03-28T11:42:02.386Z</time></trkpt><trkpt lat="40.7113133" lon="8.2234967"><ele>109.0</ele><time>2026-03-28T11:42:03.385Z</time></trkpt><trkpt lat="40.7112117" lon="8.223575"><ele>109.0</ele><time>2026-03-28T11:42:04.386Z</time></trkpt><trkpt lat="40.7111267" lon="8.2236483"><ele>109.0</ele><time>2026-03-28T11:42:05.385Z</time></trkpt><trkpt lat="40.7110467" lon="8.223695"><ele>109.0</ele><time>2026-03-28T11:42:06.386Z</time></trkpt><trkpt lat="40.7109933" lon="8.223745"><ele>109.0</ele><time>2026-03-28T11:42:07.386Z</time></trkpt><trkpt lat="40.7108983" lon="8.22385"><ele>109.16666666666667</ele><time>2026-03-28T11:42:09.386Z</time></trkpt><trkpt lat="40.7108233" lon="8.22397"><ele>109.33333333333334</ele><time>2026-03-28T11:42:11.386Z</time></trkpt><trkpt lat="40.7107517" lon="8.2240983"><ele>109.5</ele><time>2026-03-28T11:42:13.386Z</time></trkpt><trkpt lat="40.7107217" lon="8.2241767"><ele>109.66666666666666</ele><time>2026-03-28T11:42:14.386Z</time></trkpt><trkpt lat="40.7106933" lon="8.224255"><ele>109.83333333333333</ele><time>2026-03-28T11:42:15.386Z</time></trkpt><trkpt lat="40.7106583" lon="8.22434"><ele>110.0</ele><time>2026-03-28T11:42:16.386Z</time></trkpt><trkpt lat="40.7106267" lon="8.22443"><ele>109.8</ele><time>2026-03-28T11:42:17.385Z</time></trkpt><trkpt lat="40.710595" lon="8.2245267"><ele>109.6</ele><time>2026-03-28T11:42:18.385Z</time></trkpt><trkpt lat="40.71057" lon="8.2246217"><ele>109.4</ele><time>2026-03-28T11:42:19.386Z</time></trkpt><trkpt lat="40.710545" lon="8.2247233"><ele>109.2</ele><time>2026-03-28T11:42:20.386Z</time></trkpt><trkpt lat="40.7105083" lon="8.22485"><ele>109.0</ele><time>2026-03-28T11:42:21.386Z</time></trkpt><trkpt lat="40.7104483" lon="8.2250083"><ele>109.0</ele><time>2026-03-28T11:42:22.385Z</time></trkpt><trkpt lat="40.71036" lon="8.225185"><ele>109.0</ele><time>2026-03-28T11:42:23.386Z</time></trkpt><trkpt lat="40.7102617" lon="8.2253533"><ele>109.0</ele><time>2026-03-28T11:42:24.386Z</time></trkpt><trkpt lat="40.7101417" lon="8.22551"><ele>109.0</ele><time>2026-03-28T11:42:25.386Z</time></trkpt><trkpt lat="40.7100083" lon="8.225665"><ele>109.0</ele><time>2026-03-28T11:42:26.386Z</time></trkpt><trkpt lat="40.70985" lon="8.2258033"><ele>109.0</ele><time>2026-03-28T11:42:27.386Z</time></trkpt><trkpt lat="40.7096783" lon="8.2259467"><ele>109.0</ele><time>2026-03-28T11:42:28.386Z</time></trkpt><trkpt lat="40.7095167" lon="8.2260717"><ele>109.0</ele><time>2026-03-28T11:42:29.386Z</time></trkpt><trkpt lat="40.7093517" lon="8.2262233"><ele>109.0</ele><time>2026-03-28T11:42:30.385Z</time></trkpt><trkpt lat="40.70917" lon="8.2263533"><ele>106.0</ele><time>2026-03-28T11:42:31.386Z</time></trkpt><trkpt lat="40.70899" lon="8.2264733"><ele>103.0</ele><time>2026-03-28T11:42:32.386Z</time></trkpt><trkpt lat="40.708795" lon="8.22656"><ele>100.0</ele><time>2026-03-28T11:42:33.385Z</time></trkpt><trkpt lat="40.7085817" lon="8.2266333"><ele>98.0</ele><time>2026-03-28T11:42:34.386Z</time></trkpt><trkpt lat="40.7083717" lon="8.2267083"><ele>96.0</ele><time>2026-03-28T11:42:35.386Z</time></trkpt><trkpt lat="40.708165" lon="8.22676"><ele>94.0</ele><time>2026-03-28T11:42:36.385Z</time></trkpt><trkpt lat="40.7079533" lon="8.2268233"><ele>94.0</ele><time>2026-03-28T11:42:37.386Z</time></trkpt><trkpt lat="40.7077383" lon="8.2268867"><ele>94.0</ele><time>2026-03-28T11:42:38.386Z</time></trkpt><trkpt lat="40.7075233" lon="8.2269333"><ele>94.0</ele><time>2026-03-28T11:42:39.386Z</time></trkpt><trkpt lat="40.70731" lon="8.2269867"><ele>94.0</ele><time>2026-03-28T11:42:40.386Z</time></trkpt><trkpt lat="40.7071083" lon="8.2270533"><ele>94.0</ele><time>2026-03-28T11:42:41.386Z</time></trkpt><trkpt lat="40.70691" lon="8.2271017"><ele>94.0</ele><time>2026-03-28T11:42:42.385Z</time></trkpt><trkpt lat="40.7067067" lon="8.2271733"><ele>93.33333333333333</ele><time>2026-03-28T11:42:43.385Z</time></trkpt><trkpt lat="40.7064983" lon="8.2272317"><ele>92.66666666666667</ele><time>2026-03-28T11:42:44.386Z</time></trkpt><trkpt lat="40.70628" lon="8.2272917"><ele>92.0</ele><time>2026-03-28T11:42:45.385Z</time></trkpt><trkpt lat="40.7060667" lon="8.227355"><ele>92.0</ele><time>2026-03-28T11:42:46.386Z</time></trkpt><trkpt lat="40.7058567" lon="8.2274117"><ele>92.0</ele><time>2026-03-28T11:42:47.385Z</time></trkpt><trkpt lat="40.7056383" lon="8.22747"><ele>92.0</ele><time>2026-03-28T11:42:48.386Z</time></trkpt><trkpt lat="40.70542" lon="8.2275233"><ele>91.66666666666667</ele><time>2026-03-28T11:42:49.385Z</time></trkpt><trkpt lat="40.7052017" lon="8.2275717"><ele>91.33333333333333</ele><time>2026-03-28T11:42:50.386Z</time></trkpt><trkpt lat="40.7049983" lon="8.2276283"><ele>91.0</ele><time>2026-03-28T11:42:51.386Z</time></trkpt><trkpt lat="40.7047967" lon="8.2276967"><ele>91.0</ele><time>2026-03-28T11:42:52.386Z</time></trkpt><trkpt lat="40.7045883" lon="8.2277633"><ele>91.0</ele><time>2026-03-28T11:42:53.385Z</time></trkpt><trkpt lat="40.7043733" lon="8.2278033"><ele>91.0</ele><time>2026-03-28T11:42:54.386Z</time></trkpt><trkpt lat="40.70416" lon="8.227845"><ele>90.33333333333333</ele><time>2026-03-28T11:42:55.386Z</time></trkpt><trkpt lat="40.703945" lon="8.2278933"><ele>89.66666666666667</ele><time>2026-03-28T11:42:56.386Z</time></trkpt><trkpt lat="40.7037233" lon="8.2279467"><ele>89.0</ele><time>2026-03-28T11:42:57.386Z</time></trkpt><trkpt lat="40.703515" lon="8.2280067"><ele>88.66666666666667</ele><time>2026-03-28T11:42:58.386Z</time></trkpt><trkpt lat="40.7033367" lon="8.2280883"><ele>88.33333333333333</ele><time>2026-03-28T11:42:59.386Z</time></trkpt><trkpt lat="40.7031367" lon="8.2281517"><ele>88.0</ele><time>2026-03-28T11:43:00.386Z</time></trkpt><trkpt lat="40.70293" lon="8.2282433"><ele>86.33333333333333</ele><time>2026-03-28T11:43:01.386Z</time></trkpt><trkpt lat="40.702725" lon="8.2283517"><ele>84.66666666666667</ele><time>2026-03-28T11:43:02.385Z</time></trkpt><trkpt lat="40.7025217" lon="8.22848"><ele>83.0</ele><time>2026-03-28T11:43:03.386Z</time></trkpt><trkpt lat="40.7023167" lon="8.2286167"><ele>83.0</ele><time>2026-03-28T11:43:04.385Z</time></trkpt><trkpt lat="40.7021133" lon="8.228755"><ele>83.0</ele><time>2026-03-28T11:43:05.386Z</time></trkpt><trkpt lat="40.7019083" lon="8.228895"><ele>82.0</ele><time>2026-03-28T11:43:06.386Z</time></trkpt><trkpt lat="40.7017183" lon="8.2290483"><ele>81.0</ele><time>2026-03-28T11:43:07.386Z</time></trkpt><trkpt lat="40.701555" lon="8.2292167"><ele>80.0</ele><time>2026-03-28T11:43:08.385Z</time></trkpt><trkpt lat="40.7013917" lon="8.2294033"><ele>80.0</ele><time>2026-03-28T11:43:09.386Z</time></trkpt><trkpt lat="40.7012383" lon="8.2296067"><ele>80.0</ele><time>2026-03-28T11:43:10.386Z</time></trkpt><trkpt lat="40.7010817" lon="8.229805"><ele>80.0</ele><time>2026-03-28T11:43:11.385Z</time></trkpt><trkpt lat="40.7009367" lon="8.2300083"><ele>80.33333333333334</ele><time>2026-03-28T11:43:12.385Z</time></trkpt><trkpt lat="40.700775" lon="8.2301833"><ele>80.66666666666667</ele><time>2026-03-28T11:43:13.386Z</time></trkpt><trkpt lat="40.7005917" lon="8.2303383"><ele>81.0</ele><time>2026-03-28T11:43:14.386Z</time></trkpt><trkpt lat="40.7003983" lon="8.230475"><ele>80.0</ele><time>2026-03-28T11:43:15.386Z</time></trkpt><trkpt lat="40.7001867" lon="8.2305933"><ele>79.0</ele><time>2026-03-28T11:43:16.386Z</time></trkpt><trkpt lat="40.6999767" lon="8.2307167"><ele>78.0</ele><time>2026-03-28T11:43:17.386Z</time></trkpt><trkpt lat="40.69977" lon="8.2308333"><ele>77.0</ele><time>2026-03-28T11:43:18.385Z</time></trkpt><trkpt lat="40.6995617" lon="8.2309567"><ele>76.0</ele><time>2026-03-28T11:43:19.385Z</time></trkpt><trkpt lat="40.69935" lon="8.2310633"><ele>75.0</ele><time>2026-03-28T11:43:20.385Z</time></trkpt><trkpt lat="40.6991417" lon="8.2311867"><ele>75.0</ele><time>2026-03-28T11:43:21.386Z</time></trkpt><trkpt lat="40.6989333" lon="8.2313117"><ele>75.0</ele><time>2026-03-28T11:43:22.386Z</time></trkpt><trkpt lat="40.698735" lon="8.231435"><ele>75.0</ele><time>2026-03-28T11:43:23.386Z</time></trkpt><trkpt lat="40.6985333" lon="8.2315383"><ele>75.0</ele><time>2026-03-28T11:43:24.385Z</time></trkpt><trkpt lat="40.6983283" lon="8.23165"><ele>75.0</ele><time>2026-03-28T11:43:25.386Z</time></trkpt><trkpt lat="40.698115" lon="8.2317733"><ele>75.0</ele><time>2026-03-28T11:43:26.385Z</time></trkpt><trkpt lat="40.6979117" lon="8.2318917"><ele>75.0</ele><time>2026-03-28T11:43:27.386Z</time></trkpt><trkpt lat="40.6977067" lon="8.23201"><ele>75.0</ele><time>2026-03-28T11:43:28.386Z</time></trkpt><trkpt lat="40.6975217" lon="8.232125"><ele>74.66666666666667</ele><time>2026-03-28T11:43:29.386Z</time></trkpt><trkpt lat="40.6973367" lon="8.2322217"><ele>74.33333333333334</ele><time>2026-03-28T11:43:30.386Z</time></trkpt><trkpt lat="40.6971667" lon="8.2323217"><ele>74.0</ele><time>2026-03-28T11:43:31.385Z</time></trkpt><trkpt lat="40.69701" lon="8.23243"><ele>72.66666666666667</ele><time>2026-03-28T11:43:32.386Z</time></trkpt><trkpt lat="40.696875" lon="8.232545"><ele>71.33333333333333</ele><time>2026-03-28T11:43:33.386Z</time></trkpt><trkpt lat="40.6967667" lon="8.2327017"><ele>70.0</ele><time>2026-03-28T11:43:34.386Z</time></trkpt><trkpt lat="40.6966833" lon="8.2329033"><ele>70.0</ele><time>2026-03-28T11:43:35.386Z</time></trkpt><trkpt lat="40.696595" lon="8.2331333"><ele>70.0</ele><time>2026-03-28T11:43:36.385Z</time></trkpt><trkpt lat="40.6964967" lon="8.2333717"><ele>70.0</ele><time>2026-03-28T11:43:37.385Z</time></trkpt><trkpt lat="40.69639" lon="8.2336117"><ele>69.0</ele><time>2026-03-28T11:43:38.386Z</time></trkpt><trkpt lat="40.6962983" lon="8.2338333"><ele>68.0</ele><time>2026-03-28T11:43:39.386Z</time></trkpt><trkpt lat="40.6962033" lon="8.23404"><ele>67.0</ele><time>2026-03-28T11:43:40.386Z</time></trkpt><trkpt lat="40.6960983" lon="8.2342117"><ele>62.33333333333333</ele><time>2026-03-28T11:43:41.386Z</time></trkpt><trkpt lat="40.6959817" lon="8.234375"><ele>57.66666666666667</ele><time>2026-03-28T11:43:42.385Z</time></trkpt><trkpt lat="40.6958417" lon="8.2345317"><ele>53.0</ele><time>2026-03-28T11:43:43.385Z</time></trkpt><trkpt lat="40.6956817" lon="8.2346617"><ele>53.0</ele><time>2026-03-28T11:43:44.385Z</time></trkpt><trkpt lat="40.6954967" lon="8.2347733"><ele>53.0</ele><time>2026-03-28T11:43:45.386Z</time></trkpt><trkpt lat="40.6953033" lon="8.2348733"><ele>53.0</ele><time>2026-03-28T11:43:46.386Z</time></trkpt><trkpt lat="40.6951167" lon="8.23497"><ele>50.0</ele><time>2026-03-28T11:43:47.386Z</time></trkpt><trkpt lat="40.6948983" lon="8.2350883"><ele>47.0</ele><time>2026-03-28T11:43:48.386Z</time></trkpt><trkpt lat="40.69469" lon="8.2352183"><ele>47.0</ele><time>2026-03-28T11:43:49.386Z</time></trkpt><trkpt lat="40.6944783" lon="8.235335"><ele>47.0</ele><time>2026-03-28T11:43:50.386Z</time></trkpt><trkpt lat="40.6942617" lon="8.235455"><ele>47.666666666666664</ele><time>2026-03-28T11:43:51.385Z</time></trkpt><trkpt lat="40.6940517" lon="8.2355617"><ele>48.33333333333333</ele><time>2026-03-28T11:43:52.385Z</time></trkpt><trkpt lat="40.69385" lon="8.2356783"><ele>49.0</ele><time>2026-03-28T11:43:53.386Z</time></trkpt><trkpt lat="40.6936567" lon="8.2357917"><ele>52.0</ele><time>2026-03-28T11:43:54.385Z</time></trkpt><trkpt lat="40.693465" lon="8.2358983"><ele>55.0</ele><time>2026-03-28T11:43:55.386Z</time></trkpt><trkpt lat="40.693275" lon="8.2360017"><ele>58.0</ele><time>2026-03-28T11:43:56.386Z</time></trkpt><trkpt lat="40.69309" lon="8.2361183"><ele>58.0</ele><time>2026-03-28T11:43:57.385Z</time></trkpt><trkpt lat="40.69292" lon="8.2362667"><ele>58.0</ele><time>2026-03-28T11:43:58.386Z</time></trkpt><trkpt lat="40.6927617" lon="8.2364267"><ele>58.0</ele><time>2026-03-28T11:43:59.386Z</time></trkpt><trkpt lat="40.6926017" lon="8.2366167"><ele>61.666666666666664</ele><time>2026-03-28T11:44:00.386Z</time></trkpt><trkpt lat="40.6924583" lon="8.2368117"><ele>65.33333333333333</ele><time>2026-03-28T11:44:01.386Z</time></trkpt><trkpt lat="40.6923417" lon="8.2370283"><ele>69.0</ele><time>2026-03-28T11:44:02.386Z</time></trkpt><trkpt lat="40.6922417" lon="8.2372633"><ele>70.5</ele><time>2026-03-28T11:44:03.386Z</time></trkpt><trkpt lat="40.6921467" lon="8.2375217"><ele>72.0</ele><time>2026-03-28T11:44:04.386Z</time></trkpt><trkpt lat="40.6920517" lon="8.2378033"><ele>72.0</ele><time>2026-03-28T11:44:05.386Z</time></trkpt><trkpt lat="40.6919517" lon="8.2380717"><ele>72.0</ele><time>2026-03-28T11:44:06.386Z</time></trkpt><trkpt lat="40.6918367" lon="8.238345"><ele>71.5</ele><time>2026-03-28T11:44:07.386Z</time></trkpt><trkpt lat="40.6917217" lon="8.23862"><ele>71.0</ele><time>2026-03-28T11:44:08.386Z</time></trkpt><trkpt lat="40.6916133" lon="8.2389183"><ele>70.5</ele><time>2026-03-28T11:44:09.386Z</time></trkpt><trkpt lat="40.6914967" lon="8.239205"><ele>70.0</ele><time>2026-03-28T11:44:10.385Z</time></trkpt><trkpt lat="40.6913817" lon="8.2395"><ele>70.0</ele><time>2026-03-28T11:44:11.385Z</time></trkpt><trkpt lat="40.6912583" lon="8.2397917"><ele>70.0</ele><time>2026-03-28T11:44:12.386Z</time></trkpt><trkpt lat="40.691145" lon="8.2400667"><ele>69.0</ele><time>2026-03-28T11:44:13.386Z</time></trkpt><trkpt lat="40.6910183" lon="8.2403367"><ele>68.0</ele><time>2026-03-28T11:44:14.386Z</time></trkpt><trkpt lat="40.6908933" lon="8.2406117"><ele>68.0</ele><time>2026-03-28T11:44:15.386Z</time></trkpt><trkpt lat="40.6907717" lon="8.2408783"><ele>68.0</ele><time>2026-03-28T11:44:16.386Z</time></trkpt><trkpt lat="40.6906583" lon="8.241145"><ele>68.0</ele><time>2026-03-28T11:44:17.386Z</time></trkpt><trkpt lat="40.6905533" lon="8.24139"><ele>68.0</ele><time>2026-03-28T11:44:18.386Z</time></trkpt><trkpt lat="40.6904533" lon="8.2416217"><ele>68.0</ele><time>2026-03-28T11:44:19.385Z</time></trkpt><trkpt lat="40.6903633" lon="8.2418333"><ele>68.0</ele><time>2026-03-28T11:44:20.386Z</time></trkpt><trkpt lat="40.6902883" lon="8.2420217"><ele>68.0</ele><time>2026-03-28T11:44:21.386Z</time></trkpt><trkpt lat="40.6902083" lon="8.2421567"><ele>68.0</ele><time>2026-03-28T11:44:22.386Z</time></trkpt><trkpt lat="40.6901067" lon="8.2422383"><ele>68.0</ele><time>2026-03-28T11:44:23.385Z</time></trkpt><trkpt lat="40.6899617" lon="8.2422767"><ele>68.0</ele><time>2026-03-28T11:44:24.386Z</time></trkpt><trkpt lat="40.6898033" lon="8.2422883"><ele>68.0</ele><time>2026-03-28T11:44:25.386Z</time></trkpt><trkpt lat="40.6896133" lon="8.2422883"><ele>68.0</ele><time>2026-03-28T11:44:26.386Z</time></trkpt><trkpt lat="40.6894083" lon="8.2422917"><ele>67.33333333333334</ele><time>2026-03-28T11:44:27.386Z</time></trkpt><trkpt lat="40.6891883" lon="8.2423017"><ele>66.66666666666667</ele><time>2026-03-28T11:44:28.385Z</time></trkpt><trkpt lat="40.68897" lon="8.24232"><ele>66.0</ele><time>2026-03-28T11:44:29.386Z</time></trkpt><trkpt lat="40.6887533" lon="8.2423367"><ele>66.0</ele><time>2026-03-28T11:44:30.386Z</time></trkpt><trkpt lat="40.68853" lon="8.242355"><ele>66.0</ele><time>2026-03-28T11:44:31.386Z</time></trkpt><trkpt lat="40.6883083" lon="8.2423767"><ele>66.0</ele><time>2026-03-28T11:44:32.386Z</time></trkpt><trkpt lat="40.688085" lon="8.242415"><ele>66.0</ele><time>2026-03-28T11:44:33.386Z</time></trkpt><trkpt lat="40.6878533" lon="8.2424433"><ele>66.0</ele><time>2026-03-28T11:44:34.385Z</time></trkpt><trkpt lat="40.6876267" lon="8.2424517"><ele>65.66666666666667</ele><time>2026-03-28T11:44:35.386Z</time></trkpt><trkpt lat="40.6874033" lon="8.2424633"><ele>65.33333333333334</ele><time>2026-03-28T11:44:36.386Z</time></trkpt><trkpt lat="40.6871817" lon="8.2424817"><ele>65.0</ele><time>2026-03-28T11:44:37.386Z</time></trkpt><trkpt lat="40.686955" lon="8.2425233"><ele>65.0</ele><time>2026-03-28T11:44:38.386Z</time></trkpt><trkpt lat="40.686725" lon="8.242555"><ele>65.0</ele><time>2026-03-28T11:44:39.386Z</time></trkpt><trkpt lat="40.6864933" lon="8.2425817"><ele>65.0</ele><time>2026-03-28T11:44:40.386Z</time></trkpt><trkpt lat="40.6862433" lon="8.242605"><ele>65.0</ele><time>2026-03-28T11:44:41.386Z</time></trkpt><trkpt lat="40.6859817" lon="8.2426283"><ele>64.5</ele><time>2026-03-28T11:44:42.386Z</time></trkpt><trkpt lat="40.68572" lon="8.2426417"><ele>64.0</ele><time>2026-03-28T11:44:43.386Z</time></trkpt><trkpt lat="40.68546" lon="8.2426667"><ele>63.0</ele><time>2026-03-28T11:44:44.386Z</time></trkpt><trkpt lat="40.6851883" lon="8.2426933"><ele>62.0</ele><time>2026-03-28T11:44:45.386Z</time></trkpt><trkpt lat="40.684925" lon="8.242705"><ele>62.0</ele><time>2026-03-28T11:44:46.385Z</time></trkpt><trkpt lat="40.6846617" lon="8.2427233"><ele>62.0</ele><time>2026-03-28T11:44:47.385Z</time></trkpt><trkpt lat="40.6844067" lon="8.2427533"><ele>62.0</ele><time>2026-03-28T11:44:48.385Z</time></trkpt><trkpt lat="40.6841433" lon="8.2427767"><ele>62.0</ele><time>2026-03-28T11:44:49.385Z</time></trkpt><trkpt lat="40.6838817" lon="8.2427933"><ele>62.0</ele><time>2026-03-28T11:44:50.386Z</time></trkpt><trkpt lat="40.683625" lon="8.242825"><ele>62.0</ele><time>2026-03-28T11:44:51.386Z</time></trkpt><trkpt lat="40.6833783" lon="8.242855"><ele>60.5</ele><time>2026-03-28T11:44:52.386Z</time></trkpt><trkpt lat="40.6831367" lon="8.2428917"><ele>59.0</ele><time>2026-03-28T11:44:53.386Z</time></trkpt><trkpt lat="40.6828817" lon="8.2429183"><ele>58.5</ele><time>2026-03-28T11:44:54.386Z</time></trkpt><trkpt lat="40.68262" lon="8.242965"><ele>58.0</ele><time>2026-03-28T11:44:55.386Z</time></trkpt><trkpt lat="40.6823583" lon="8.2429933"><ele>58.0</ele><time>2026-03-28T11:44:56.386Z</time></trkpt><trkpt lat="40.6820967" lon="8.2430233"><ele>58.0</ele><time>2026-03-28T11:44:57.385Z</time></trkpt><trkpt lat="40.68184" lon="8.2430583"><ele>57.0</ele><time>2026-03-28T11:44:58.386Z</time></trkpt><trkpt lat="40.681575" lon="8.2430833"><ele>56.0</ele><time>2026-03-28T11:44:59.386Z</time></trkpt><trkpt lat="40.68132" lon="8.243115"><ele>56.5</ele><time>2026-03-28T11:45:00.385Z</time></trkpt><trkpt lat="40.6810667" lon="8.2431367"><ele>57.0</ele><time>2026-03-28T11:45:01.386Z</time></trkpt><trkpt lat="40.6808183" lon="8.243175"><ele>57.0</ele><time>2026-03-28T11:45:02.386Z</time></trkpt><trkpt lat="40.680555" lon="8.243185"><ele>57.0</ele><time>2026-03-28T11:45:03.386Z</time></trkpt><trkpt lat="40.680295" lon="8.24321"><ele>56.5</ele><time>2026-03-28T11:45:04.386Z</time></trkpt><trkpt lat="40.6800367" lon="8.243225"><ele>56.0</ele><time>2026-03-28T11:45:05.386Z</time></trkpt><trkpt lat="40.6797767" lon="8.2432533"><ele>56.0</ele><time>2026-03-28T11:45:06.386Z</time></trkpt><trkpt lat="40.6795183" lon="8.243265"><ele>56.0</ele><time>2026-03-28T11:45:07.386Z</time></trkpt><trkpt lat="40.6792633" lon="8.2432817"><ele>55.5</ele><time>2026-03-28T11:45:08.385Z</time></trkpt><trkpt lat="40.679005" lon="8.2433083"><ele>55.0</ele><time>2026-03-28T11:45:09.386Z</time></trkpt><trkpt lat="40.6787483" lon="8.2433317"><ele>54.5</ele><time>2026-03-28T11:45:10.386Z</time></trkpt><trkpt lat="40.678485" lon="8.243355"><ele>54.0</ele><time>2026-03-28T11:45:11.386Z</time></trkpt><trkpt lat="40.6782333" lon="8.2433717"><ele>54.0</ele><time>2026-03-28T11:45:12.385Z</time></trkpt><trkpt lat="40.677985" lon="8.2433917"><ele>54.0</ele><time>2026-03-28T11:45:13.386Z</time></trkpt><trkpt lat="40.6777317" lon="8.2434333"><ele>53.5</ele><time>2026-03-28T11:45:14.386Z</time></trkpt><trkpt lat="40.6774867" lon="8.2434617"><ele>53.0</ele><time>2026-03-28T11:45:15.386Z</time></trkpt><trkpt lat="40.6772367" lon="8.243485"><ele>53.0</ele><time>2026-03-28T11:45:16.386Z</time></trkpt><trkpt lat="40.6769967" lon="8.24351"><ele>53.0</ele><time>2026-03-28T11:45:17.386Z</time></trkpt><trkpt lat="40.6767633" lon="8.2435367"><ele>52.0</ele><time>2026-03-28T11:45:18.385Z</time></trkpt><trkpt lat="40.676525" lon="8.2435583"><ele>51.0</ele><time>2026-03-28T11:45:19.386Z</time></trkpt><trkpt lat="40.6763" lon="8.2435783"><ele>51.5</ele><time>2026-03-28T11:45:20.386Z</time></trkpt><trkpt lat="40.6760767" lon="8.24361"><ele>52.0</ele><time>2026-03-28T11:45:21.385Z</time></trkpt><trkpt lat="40.6758383" lon="8.2436317"><ele>52.0</ele><time>2026-03-28T11:45:22.386Z</time></trkpt><trkpt lat="40.67561" lon="8.2436417"><ele>52.0</ele><time>2026-03-28T11:45:23.386Z</time></trkpt><trkpt lat="40.67538" lon="8.243655"><ele>51.0</ele><time>2026-03-28T11:45:24.386Z</time></trkpt><trkpt lat="40.6751533" lon="8.2436883"><ele>50.0</ele><time>2026-03-28T11:45:25.385Z</time></trkpt><trkpt lat="40.674925" lon="8.243715"><ele>50.0</ele><time>2026-03-28T11:45:26.386Z</time></trkpt><trkpt lat="40.6746917" lon="8.2437317"><ele>50.0</ele><time>2026-03-28T11:45:27.386Z</time></trkpt><trkpt lat="40.6744617" lon="8.2437633"><ele>49.0</ele><time>2026-03-28T11:45:28.385Z</time></trkpt><trkpt lat="40.67423" lon="8.2437833"><ele>48.0</ele><time>2026-03-28T11:45:29.386Z</time></trkpt><trkpt lat="40.673995" lon="8.2438"><ele>48.0</ele><time>2026-03-28T11:45:30.386Z</time></trkpt><trkpt lat="40.673755" lon="8.2438133"><ele>48.0</ele><time>2026-03-28T11:45:31.385Z</time></trkpt><trkpt lat="40.6735183" lon="8.2438367"><ele>46.5</ele><time>2026-03-28T11:45:32.386Z</time></trkpt><trkpt lat="40.6732933" lon="8.2438567"><ele>45.0</ele><time>2026-03-28T11:45:33.386Z</time></trkpt><trkpt lat="40.6730617" lon="8.2438783"><ele>45.0</ele><time>2026-03-28T11:45:34.385Z</time></trkpt><trkpt lat="40.672835" lon="8.243905"><ele>45.0</ele><time>2026-03-28T11:45:35.386Z</time></trkpt><trkpt lat="40.6726083" lon="8.2439233"><ele>45.0</ele><time>2026-03-28T11:45:36.386Z</time></trkpt><trkpt lat="40.6723817" lon="8.2439517"><ele>45.0</ele><time>2026-03-28T11:45:37.385Z</time></trkpt><trkpt lat="40.6721433" lon="8.2439717"><ele>44.0</ele><time>2026-03-28T11:45:38.385Z</time></trkpt><trkpt lat="40.6719083" lon="8.2439967"><ele>43.0</ele><time>2026-03-28T11:45:39.386Z</time></trkpt><trkpt lat="40.6716767" lon="8.244025"><ele>43.0</ele><time>2026-03-28T11:45:40.386Z</time></trkpt><trkpt lat="40.6714417" lon="8.2440617"><ele>43.0</ele><time>2026-03-28T11:45:41.386Z</time></trkpt><trkpt lat="40.6712117" lon="8.2440917"><ele>41.5</ele><time>2026-03-28T11:45:42.385Z</time></trkpt><trkpt lat="40.670975" lon="8.24413"><ele>40.0</ele><time>2026-03-28T11:45:43.386Z</time></trkpt><trkpt lat="40.6707367" lon="8.2441517"><ele>40.0</ele><time>2026-03-28T11:45:44.386Z</time></trkpt><trkpt lat="40.670505" lon="8.2441767"><ele>40.0</ele><time>2026-03-28T11:45:45.386Z</time></trkpt><trkpt lat="40.6702783" lon="8.2441967"><ele>40.333333333333336</ele><time>2026-03-28T11:45:46.386Z</time></trkpt><trkpt lat="40.6700583" lon="8.244215"><ele>40.666666666666664</ele><time>2026-03-28T11:45:47.386Z</time></trkpt><trkpt lat="40.6698317" lon="8.2442217"><ele>41.0</ele><time>2026-03-28T11:45:48.385Z</time></trkpt><trkpt lat="40.6696167" lon="8.244235"><ele>41.33333333333333</ele><time>2026-03-28T11:45:49.386Z</time></trkpt><trkpt lat="40.66939" lon="8.2442383"><ele>41.666666666666664</ele><time>2026-03-28T11:45:50.386Z</time></trkpt><trkpt lat="40.6691683" lon="8.2442483"><ele>42.0</ele><time>2026-03-28T11:45:51.386Z</time></trkpt><trkpt lat="40.6689483" lon="8.2442817"><ele>42.0</ele><time>2026-03-28T11:45:52.386Z</time></trkpt><trkpt lat="40.6687267" lon="8.244315"><ele>42.0</ele><time>2026-03-28T11:45:53.386Z</time></trkpt><trkpt lat="40.6684967" lon="8.2443367"><ele>42.0</ele><time>2026-03-28T11:45:54.386Z</time></trkpt><trkpt lat="40.66826" lon="8.2443617"><ele>42.0</ele><time>2026-03-28T11:45:55.386Z</time></trkpt><trkpt lat="40.66802" lon="8.2443833"><ele>42.0</ele><time>2026-03-28T11:45:56.386Z</time></trkpt><trkpt lat="40.6677833" lon="8.24441"><ele>42.0</ele><time>2026-03-28T11:45:57.386Z</time></trkpt><trkpt lat="40.6675533" lon="8.2444267"><ele>42.0</ele><time>2026-03-28T11:45:58.385Z</time></trkpt><trkpt lat="40.6673217" lon="8.2444467"><ele>42.0</ele><time>2026-03-28T11:45:59.386Z</time></trkpt><trkpt lat="40.6670917" lon="8.2444667"><ele>41.5</ele><time>2026-03-28T11:46:00.386Z</time></trkpt><trkpt lat="40.6668633" lon="8.2444983"><ele>41.0</ele><time>2026-03-28T11:46:01.385Z</time></trkpt><trkpt lat="40.66663" lon="8.2445117"><ele>41.0</ele><time>2026-03-28T11:46:02.386Z</time></trkpt><trkpt lat="40.6664" lon="8.244535"><ele>41.0</ele><time>2026-03-28T11:46:03.386Z</time></trkpt><trkpt lat="40.6661667" lon="8.2445533"><ele>40.5</ele><time>2026-03-28T11:46:04.385Z</time></trkpt><trkpt lat="40.665935" lon="8.244575"><ele>40.0</ele><time>2026-03-28T11:46:05.385Z</time></trkpt><trkpt lat="40.6657033" lon="8.244605"><ele>40.0</ele><time>2026-03-28T11:46:06.386Z</time></trkpt><trkpt lat="40.6654767" lon="8.2446333"><ele>40.0</ele><time>2026-03-28T11:46:07.386Z</time></trkpt><trkpt lat="40.6652433" lon="8.24466"><ele>39.5</ele><time>2026-03-28T11:46:08.386Z</time></trkpt><trkpt lat="40.6650067" lon="8.2446767"><ele>39.0</ele><time>2026-03-28T11:46:09.386Z</time></trkpt><trkpt lat="40.66477" lon="8.24471"><ele>39.0</ele><time>2026-03-28T11:46:10.386Z</time></trkpt><trkpt lat="40.664535" lon="8.24473"><ele>39.0</ele><time>2026-03-28T11:46:11.385Z</time></trkpt><trkpt lat="40.6642917" lon="8.2447467"><ele>38.5</ele><time>2026-03-28T11:46:12.386Z</time></trkpt><trkpt lat="40.6640467" lon="8.2447817"><ele>38.0</ele><time>2026-03-28T11:46:13.386Z</time></trkpt><trkpt lat="40.6638017" lon="8.244805"><ele>38.0</ele><time>2026-03-28T11:46:14.386Z</time></trkpt><trkpt lat="40.663555" lon="8.244815"><ele>38.0</ele><time>2026-03-28T11:46:15.386Z</time></trkpt><trkpt lat="40.6633133" lon="8.2448267"><ele>38.0</ele><time>2026-03-28T11:46:16.386Z</time></trkpt><trkpt lat="40.6630767" lon="8.24485"><ele>38.0</ele><time>2026-03-28T11:46:17.386Z</time></trkpt><trkpt lat="40.6628367" lon="8.24487"><ele>37.0</ele><time>2026-03-28T11:46:18.386Z</time></trkpt><trkpt lat="40.6626" lon="8.2448933"><ele>36.0</ele><time>2026-03-28T11:46:19.386Z</time></trkpt><trkpt lat="40.6623583" lon="8.2449167"><ele>36.0</ele><time>2026-03-28T11:46:20.386Z</time></trkpt><trkpt lat="40.6621217" lon="8.244935"><ele>36.0</ele><time>2026-03-28T11:46:21.386Z</time></trkpt><trkpt lat="40.6618817" lon="8.2449533"><ele>36.0</ele><time>2026-03-28T11:46:22.385Z</time></trkpt><trkpt lat="40.66165" lon="8.244985"><ele>36.0</ele><time>2026-03-28T11:46:23.386Z</time></trkpt><trkpt lat="40.661415" lon="8.2450083"><ele>36.0</ele><time>2026-03-28T11:46:24.386Z</time></trkpt><trkpt lat="40.6611767" lon="8.2450383"><ele>36.0</ele><time>2026-03-28T11:46:25.386Z</time></trkpt><trkpt lat="40.6609533" lon="8.2450667"><ele>36.0</ele><time>2026-03-28T11:46:26.386Z</time></trkpt><trkpt lat="40.660735" lon="8.245095"><ele>36.0</ele><time>2026-03-28T11:46:27.386Z</time></trkpt><trkpt lat="40.6605167" lon="8.2451217"><ele>36.0</ele><time>2026-03-28T11:46:28.386Z</time></trkpt><trkpt lat="40.66032" lon="8.2451433"><ele>36.333333333333336</ele><time>2026-03-28T11:46:29.386Z</time></trkpt><trkpt lat="40.6601283" lon="8.2451633"><ele>36.66666666666667</ele><time>2026-03-28T11:46:30.386Z</time></trkpt><trkpt lat="40.6599333" lon="8.2451883"><ele>37.0</ele><time>2026-03-28T11:46:31.386Z</time></trkpt><trkpt lat="40.6597317" lon="8.2452067"><ele>37.0</ele><time>2026-03-28T11:46:32.385Z</time></trkpt><trkpt lat="40.65953" lon="8.2452233"><ele>37.0</ele><time>2026-03-28T11:46:33.386Z</time></trkpt><trkpt lat="40.659345" lon="8.245235"><ele>37.0</ele><time>2026-03-28T11:46:34.385Z</time></trkpt><trkpt lat="40.6591667" lon="8.24526"><ele>36.0</ele><time>2026-03-28T11:46:35.386Z</time></trkpt><trkpt lat="40.6589983" lon="8.2452717"><ele>35.0</ele><time>2026-03-28T11:46:36.386Z</time></trkpt><trkpt lat="40.65884" lon="8.2452833"><ele>34.0</ele><time>2026-03-28T11:46:37.386Z</time></trkpt><trkpt lat="40.6586867" lon="8.2452933"><ele>34.0</ele><time>2026-03-28T11:46:38.386Z</time></trkpt><trkpt lat="40.6585433" lon="8.24531"><ele>34.0</ele><time>2026-03-28T11:46:39.386Z</time></trkpt><trkpt lat="40.6584117" lon="8.2453267"><ele>34.0</ele><time>2026-03-28T11:46:40.386Z</time></trkpt><trkpt lat="40.6582733" lon="8.245345"><ele>34.0</ele><time>2026-03-28T11:46:41.385Z</time></trkpt><trkpt lat="40.6581433" lon="8.2453633"><ele>34.0</ele><time>2026-03-28T11:46:42.386Z</time></trkpt><trkpt lat="40.6580183" lon="8.24538"><ele>34.0</ele><time>2026-03-28T11:46:43.385Z</time></trkpt><trkpt lat="40.6579017" lon="8.2453983"><ele>34.0</ele><time>2026-03-28T11:46:44.386Z</time></trkpt><trkpt lat="40.657785" lon="8.245405"><ele>34.0</ele><time>2026-03-28T11:46:45.385Z</time></trkpt><trkpt lat="40.6576583" lon="8.24543"><ele>33.75</ele><time>2026-03-28T11:46:46.385Z</time></trkpt><trkpt lat="40.65752" lon="8.2454417"><ele>33.5</ele><time>2026-03-28T11:46:47.385Z</time></trkpt><trkpt lat="40.65739" lon="8.2454433"><ele>33.25</ele><time>2026-03-28T11:46:48.385Z</time></trkpt><trkpt lat="40.6572633" lon="8.2454533"><ele>33.0</ele><time>2026-03-28T11:46:49.386Z</time></trkpt><trkpt lat="40.6571417" lon="8.2454667"><ele>33.0</ele><time>2026-03-28T11:46:50.385Z</time></trkpt><trkpt lat="40.65703" lon="8.2454767"><ele>33.0</ele><time>2026-03-28T11:46:51.386Z</time></trkpt><trkpt lat="40.6569367" lon="8.24546"><ele>33.0</ele><time>2026-03-28T11:46:52.386Z</time></trkpt><trkpt lat="40.656855" lon="8.2454317"><ele>33.0</ele><time>2026-03-28T11:46:53.386Z</time></trkpt><trkpt lat="40.65679" lon="8.24538"><ele>33.0</ele><time>2026-03-28T11:46:54.386Z</time></trkpt><trkpt lat="40.656735" lon="8.2452683"><ele>33.25</ele><time>2026-03-28T11:46:56.385Z</time></trkpt><trkpt lat="40.6567233" lon="8.245155"><ele>33.5</ele><time>2026-03-28T11:46:57.385Z</time></trkpt><trkpt lat="40.6567217" lon="8.2450317"><ele>33.75</ele><time>2026-03-28T11:46:58.386Z</time></trkpt><trkpt lat="40.6567167" lon="8.2448633"><ele>34.0</ele><time>2026-03-28T11:46:59.386Z</time></trkpt><trkpt lat="40.6567067" lon="8.2446633"><ele>34.0</ele><time>2026-03-28T11:47:00.386Z</time></trkpt><trkpt lat="40.6566967" lon="8.2444333"><ele>34.0</ele><time>2026-03-28T11:47:01.386Z</time></trkpt><trkpt lat="40.65669" lon="8.2441917"><ele>34.0</ele><time>2026-03-28T11:47:02.386Z</time></trkpt><trkpt lat="40.65668" lon="8.243935"><ele>34.0</ele><time>2026-03-28T11:47:03.386Z</time></trkpt><trkpt lat="40.656655" lon="8.243655"><ele>34.0</ele><time>2026-03-28T11:47:04.385Z</time></trkpt><trkpt lat="40.6566367" lon="8.243345"><ele>34.333333333333336</ele><time>2026-03-28T11:47:05.386Z</time></trkpt><trkpt lat="40.6566133" lon="8.2430633"><ele>34.666666666666664</ele><time>2026-03-28T11:47:06.386Z</time></trkpt><trkpt lat="40.6565967" lon="8.24278"><ele>35.0</ele><time>2026-03-28T11:47:07.386Z</time></trkpt><trkpt lat="40.6565783" lon="8.2424683"><ele>35.0</ele><time>2026-03-28T11:47:08.385Z</time></trkpt><trkpt lat="40.656565" lon="8.2421517"><ele>35.0</ele><time>2026-03-28T11:47:09.386Z</time></trkpt><trkpt lat="40.6565517" lon="8.2418367"><ele>35.0</ele><time>2026-03-28T11:47:10.386Z</time></trkpt><trkpt lat="40.65654" lon="8.2415217"><ele>35.0</ele><time>2026-03-28T11:47:11.386Z</time></trkpt><trkpt lat="40.6565167" lon="8.2411883"><ele>35.0</ele><time>2026-03-28T11:47:12.386Z</time></trkpt><trkpt lat="40.6565" lon="8.2408683"><ele>35.0</ele><time>2026-03-28T11:47:13.386Z</time></trkpt><trkpt lat="40.6564783" lon="8.24055"><ele>35.0</ele><time>2026-03-28T11:47:14.386Z</time></trkpt><trkpt lat="40.6564633" lon="8.2402333"><ele>35.0</ele><time>2026-03-28T11:47:15.386Z</time></trkpt><trkpt lat="40.6564483" lon="8.23992"><ele>35.0</ele><time>2026-03-28T11:47:16.386Z</time></trkpt><trkpt lat="40.656425" lon="8.23959"><ele>35.0</ele><time>2026-03-28T11:47:17.385Z</time></trkpt><trkpt lat="40.6563983" lon="8.2392733"><ele>35.0</ele><time>2026-03-28T11:47:18.386Z</time></trkpt><trkpt lat="40.6563833" lon="8.238955"><ele>35.0</ele><time>2026-03-28T11:47:19.386Z</time></trkpt><trkpt lat="40.65637" lon="8.2386433"><ele>35.0</ele><time>2026-03-28T11:47:20.386Z</time></trkpt><trkpt lat="40.65636" lon="8.2383333"><ele>35.0</ele><time>2026-03-28T11:47:21.386Z</time></trkpt><trkpt lat="40.6563367" lon="8.2380183"><ele>35.0</ele><time>2026-03-28T11:47:22.386Z</time></trkpt><trkpt lat="40.65632" lon="8.2376883"><ele>35.0</ele><time>2026-03-28T11:47:23.385Z</time></trkpt><trkpt lat="40.656305" lon="8.237355"><ele>35.0</ele><time>2026-03-28T11:47:24.385Z</time></trkpt><trkpt lat="40.6562917" lon="8.2370567"><ele>35.0</ele><time>2026-03-28T11:47:25.386Z</time></trkpt><trkpt lat="40.656295" lon="8.2367633"><ele>35.0</ele><time>2026-03-28T11:47:26.385Z</time></trkpt><trkpt lat="40.656275" lon="8.2364583"><ele>35.0</ele><time>2026-03-28T11:47:27.386Z</time></trkpt><trkpt lat="40.6562533" lon="8.2361467"><ele>35.0</ele><time>2026-03-28T11:47:28.385Z</time></trkpt><trkpt lat="40.6562367" lon="8.23583"><ele>36.0</ele><time>2026-03-28T11:47:29.386Z</time></trkpt><trkpt lat="40.6562167" lon="8.235515"><ele>37.0</ele><time>2026-03-28T11:47:30.386Z</time></trkpt><trkpt lat="40.6562" lon="8.2351767"><ele>37.0</ele><time>2026-03-28T11:47:31.386Z</time></trkpt><trkpt lat="40.6561683" lon="8.2348467"><ele>37.0</ele><time>2026-03-28T11:47:32.386Z</time></trkpt><trkpt lat="40.6561417" lon="8.2345217"><ele>37.0</ele><time>2026-03-28T11:47:33.386Z</time></trkpt><trkpt lat="40.6561233" lon="8.2342083"><ele>37.0</ele><time>2026-03-28T11:47:34.385Z</time></trkpt><trkpt lat="40.6561167" lon="8.2339083"><ele>36.5</ele><time>2026-03-28T11:47:35.386Z</time></trkpt><trkpt lat="40.6560917" lon="8.2336"><ele>36.0</ele><time>2026-03-28T11:47:36.385Z</time></trkpt><trkpt lat="40.65606" lon="8.233295"><ele>35.5</ele><time>2026-03-28T11:47:37.386Z</time></trkpt><trkpt lat="40.65605" lon="8.2329983"><ele>35.0</ele><time>2026-03-28T11:47:38.385Z</time></trkpt><trkpt lat="40.656035" lon="8.2326917"><ele>35.0</ele><time>2026-03-28T11:47:39.386Z</time></trkpt><trkpt lat="40.6560117" lon="8.2323733"><ele>35.0</ele><time>2026-03-28T11:47:40.386Z</time></trkpt><trkpt lat="40.6559933" lon="8.23206"><ele>35.0</ele><time>2026-03-28T11:47:41.386Z</time></trkpt><trkpt lat="40.6559633" lon="8.2317433"><ele>35.0</ele><time>2026-03-28T11:47:42.386Z</time></trkpt><trkpt lat="40.655935" lon="8.2314383"><ele>35.0</ele><time>2026-03-28T11:47:43.385Z</time></trkpt><trkpt lat="40.6559183" lon="8.2311283"><ele>35.0</ele><time>2026-03-28T11:47:44.386Z</time></trkpt><trkpt lat="40.6559067" lon="8.2308233"><ele>35.5</ele><time>2026-03-28T11:47:45.386Z</time></trkpt><trkpt lat="40.655885" lon="8.23051"><ele>36.0</ele><time>2026-03-28T11:47:46.386Z</time></trkpt><trkpt lat="40.6558667" lon="8.2302033"><ele>36.0</ele><time>2026-03-28T11:47:47.386Z</time></trkpt><trkpt lat="40.655835" lon="8.2298917"><ele>36.0</ele><time>2026-03-28T11:47:48.385Z</time></trkpt><trkpt lat="40.6558167" lon="8.2295817"><ele>36.0</ele><time>2026-03-28T11:47:49.385Z</time></trkpt><trkpt lat="40.655805" lon="8.2292667"><ele>36.0</ele><time>2026-03-28T11:47:50.385Z</time></trkpt><trkpt lat="40.6557917" lon="8.2289567"><ele>36.0</ele><time>2026-03-28T11:47:51.386Z</time></trkpt><trkpt lat="40.65578" lon="8.2286667"><ele>36.0</ele><time>2026-03-28T11:47:52.386Z</time></trkpt><trkpt lat="40.655765" lon="8.22836"><ele>35.0</ele><time>2026-03-28T11:47:53.386Z</time></trkpt><trkpt lat="40.6557517" lon="8.2280567"><ele>34.0</ele><time>2026-03-28T11:47:54.386Z</time></trkpt><trkpt lat="40.6557383" lon="8.2277517"><ele>34.0</ele><time>2026-03-28T11:47:55.386Z</time></trkpt><trkpt lat="40.6557317" lon="8.227465"><ele>34.0</ele><time>2026-03-28T11:47:56.386Z</time></trkpt><trkpt lat="40.655715" lon="8.2271867"><ele>34.0</ele><time>2026-03-28T11:47:57.386Z</time></trkpt><trkpt lat="40.655715" lon="8.2269233"><ele>34.0</ele><time>2026-03-28T11:47:58.385Z</time></trkpt><trkpt lat="40.6557067" lon="8.2266667"><ele>34.0</ele><time>2026-03-28T11:47:59.385Z</time></trkpt><trkpt lat="40.6557017" lon="8.2264367"><ele>34.0</ele><time>2026-03-28T11:48:00.386Z</time></trkpt><trkpt lat="40.6556933" lon="8.2262433"><ele>34.0</ele><time>2026-03-28T11:48:01.386Z</time></trkpt><trkpt lat="40.6556833" lon="8.226095"><ele>34.0</ele><time>2026-03-28T11:48:02.386Z</time></trkpt><trkpt lat="40.65567" lon="8.2259533"><ele>34.0</ele><time>2026-03-28T11:48:03.386Z</time></trkpt><trkpt lat="40.6556567" lon="8.2258183"><ele>34.0</ele><time>2026-03-28T11:48:04.386Z</time></trkpt><trkpt lat="40.6556333" lon="8.22566"><ele>34.0</ele><time>2026-03-28T11:48:05.386Z</time></trkpt><trkpt lat="40.6556283" lon="8.225495"><ele>34.0</ele><time>2026-03-28T11:48:06.386Z</time></trkpt><trkpt lat="40.65562" lon="8.2253317"><ele>34.0</ele><time>2026-03-28T11:48:07.386Z</time></trkpt><trkpt lat="40.655605" lon="8.2251833"><ele>34.0</ele><time>2026-03-28T11:48:08.386Z</time></trkpt><trkpt lat="40.6555767" lon="8.2250117"><ele>34.0</ele><time>2026-03-28T11:48:09.386Z</time></trkpt><trkpt lat="40.65556" lon="8.22483"><ele>34.0</ele><time>2026-03-28T11:48:10.386Z</time></trkpt><trkpt lat="40.6555467" lon="8.22464"><ele>34.0</ele><time>2026-03-28T11:48:11.386Z</time></trkpt><trkpt lat="40.65555" lon="8.22444"><ele>34.0</ele><time>2026-03-28T11:48:12.386Z</time></trkpt><trkpt lat="40.655555" lon="8.2242283"><ele>34.0</ele><time>2026-03-28T11:48:13.386Z</time></trkpt><trkpt lat="40.6555517" lon="8.224"><ele>34.0</ele><time>2026-03-28T11:48:14.386Z</time></trkpt><trkpt lat="40.6555433" lon="8.2237733"><ele>34.0</ele><time>2026-03-28T11:48:15.386Z</time></trkpt><trkpt lat="40.6555333" lon="8.2235367"><ele>34.0</ele><time>2026-03-28T11:48:16.386Z</time></trkpt><trkpt lat="40.655515" lon="8.2232967"><ele>34.0</ele><time>2026-03-28T11:48:17.385Z</time></trkpt><trkpt lat="40.6554983" lon="8.22305"><ele>34.0</ele><time>2026-03-28T11:48:18.386Z</time></trkpt><trkpt lat="40.6554833" lon="8.222795"><ele>34.0</ele><time>2026-03-28T11:48:19.386Z</time></trkpt><trkpt lat="40.6554717" lon="8.222535"><ele>34.0</ele><time>2026-03-28T11:48:20.386Z</time></trkpt><trkpt lat="40.6554417" lon="8.2222633"><ele>34.0</ele><time>2026-03-28T11:48:21.385Z</time></trkpt><trkpt lat="40.6554183" lon="8.221995"><ele>34.0</ele><time>2026-03-28T11:48:22.385Z</time></trkpt><trkpt lat="40.6554" lon="8.2217167"><ele>34.0</ele><time>2026-03-28T11:48:23.386Z</time></trkpt><trkpt lat="40.6553867" lon="8.221455"><ele>34.0</ele><time>2026-03-28T11:48:24.386Z</time></trkpt><trkpt lat="40.6553683" lon="8.2211833"><ele>34.333333333333336</ele><time>2026-03-28T11:48:25.385Z</time></trkpt><trkpt lat="40.6553483" lon="8.220905"><ele>34.666666666666664</ele><time>2026-03-28T11:48:26.385Z</time></trkpt><trkpt lat="40.6553267" lon="8.2206267"><ele>35.0</ele><time>2026-03-28T11:48:27.386Z</time></trkpt><trkpt lat="40.6553033" lon="8.22035"><ele>35.666666666666664</ele><time>2026-03-28T11:48:28.386Z</time></trkpt><trkpt lat="40.6552817" lon="8.2200733"><ele>36.333333333333336</ele><time>2026-03-28T11:48:29.386Z</time></trkpt><trkpt lat="40.655265" lon="8.2197783"><ele>37.0</ele><time>2026-03-28T11:48:30.386Z</time></trkpt><trkpt lat="40.6552567" lon="8.2194867"><ele>37.0</ele><time>2026-03-28T11:48:31.386Z</time></trkpt><trkpt lat="40.6552517" lon="8.2191983"><ele>37.0</ele><time>2026-03-28T11:48:32.386Z</time></trkpt><trkpt lat="40.6552417" lon="8.2189133"><ele>37.0</ele><time>2026-03-28T11:48:33.385Z</time></trkpt><trkpt lat="40.6552217" lon="8.2186217"><ele>37.0</ele><time>2026-03-28T11:48:34.386Z</time></trkpt><trkpt lat="40.6552133" lon="8.218335"><ele>37.0</ele><time>2026-03-28T11:48:35.386Z</time></trkpt><trkpt lat="40.6551933" lon="8.2180267"><ele>37.0</ele><time>2026-03-28T11:48:36.386Z</time></trkpt><trkpt lat="40.6551783" lon="8.2177417"><ele>37.0</ele><time>2026-03-28T11:48:37.386Z</time></trkpt><trkpt lat="40.6551533" lon="8.2174467"><ele>37.0</ele><time>2026-03-28T11:48:38.386Z</time></trkpt><trkpt lat="40.655135" lon="8.2171383"><ele>37.0</ele><time>2026-03-28T11:48:39.386Z</time></trkpt><trkpt lat="40.6551133" lon="8.2168383"><ele>37.0</ele><time>2026-03-28T11:48:40.386Z</time></trkpt><trkpt lat="40.6551" lon="8.2165433"><ele>37.0</ele><time>2026-03-28T11:48:41.385Z</time></trkpt><trkpt lat="40.6550883" lon="8.2162483"><ele>37.0</ele><time>2026-03-28T11:48:42.386Z</time></trkpt><trkpt lat="40.6550917" lon="8.2159667"><ele>37.0</ele><time>2026-03-28T11:48:43.386Z</time></trkpt><trkpt lat="40.655085" lon="8.215685"><ele>37.0</ele><time>2026-03-28T11:48:44.386Z</time></trkpt><trkpt lat="40.6550683" lon="8.2153967"><ele>37.0</ele><time>2026-03-28T11:48:45.385Z</time></trkpt><trkpt lat="40.6550483" lon="8.21509"><ele>37.0</ele><time>2026-03-28T11:48:46.386Z</time></trkpt><trkpt lat="40.655035" lon="8.21479"><ele>37.0</ele><time>2026-03-28T11:48:47.386Z</time></trkpt><trkpt lat="40.6550217" lon="8.2145"><ele>37.0</ele><time>2026-03-28T11:48:48.385Z</time></trkpt><trkpt lat="40.65501" lon="8.214195"><ele>36.5</ele><time>2026-03-28T11:48:49.386Z</time></trkpt><trkpt lat="40.6549883" lon="8.2138883"><ele>36.0</ele><time>2026-03-28T11:48:50.386Z</time></trkpt><trkpt lat="40.654955" lon="8.2136017"><ele>36.0</ele><time>2026-03-28T11:48:51.386Z</time></trkpt><trkpt lat="40.654935" lon="8.2133"><ele>36.0</ele><time>2026-03-28T11:48:52.385Z</time></trkpt><trkpt lat="40.654935" lon="8.2130167"><ele>36.0</ele><time>2026-03-28T11:48:53.386Z</time></trkpt><trkpt lat="40.6549133" lon="8.2127117"><ele>36.0</ele><time>2026-03-28T11:48:54.386Z</time></trkpt><trkpt lat="40.6549033" lon="8.2124217"><ele>36.0</ele><time>2026-03-28T11:48:55.386Z</time></trkpt><trkpt lat="40.6548817" lon="8.2121267"><ele>36.0</ele><time>2026-03-28T11:48:56.386Z</time></trkpt><trkpt lat="40.6548567" lon="8.2118283"><ele>36.0</ele><time>2026-03-28T11:48:57.386Z</time></trkpt><trkpt lat="40.654835" lon="8.2115233"><ele>36.0</ele><time>2026-03-28T11:48:58.385Z</time></trkpt><trkpt lat="40.6548017" lon="8.2112167"><ele>36.333333333333336</ele><time>2026-03-28T11:48:59.386Z</time></trkpt><trkpt lat="40.654775" lon="8.2109233"><ele>36.66666666666667</ele><time>2026-03-28T11:49:00.386Z</time></trkpt><trkpt lat="40.6547433" lon="8.2106367"><ele>37.0</ele><time>2026-03-28T11:49:01.386Z</time></trkpt><trkpt lat="40.6546983" lon="8.21036"><ele>37.333333333333336</ele><time>2026-03-28T11:49:02.386Z</time></trkpt><trkpt lat="40.6546333" lon="8.2100783"><ele>37.666666666666664</ele><time>2026-03-28T11:49:03.386Z</time></trkpt><trkpt lat="40.6545483" lon="8.20982"><ele>38.0</ele><time>2026-03-28T11:49:04.386Z</time></trkpt><trkpt lat="40.6544333" lon="8.2095783"><ele>38.5</ele><time>2026-03-28T11:49:05.386Z</time></trkpt><trkpt lat="40.6542917" lon="8.2093533"><ele>39.0</ele><time>2026-03-28T11:49:06.386Z</time></trkpt><trkpt lat="40.654145" lon="8.2091183"><ele>38.5</ele><time>2026-03-28T11:49:07.386Z</time></trkpt><trkpt lat="40.6539717" lon="8.2088883"><ele>38.0</ele><time>2026-03-28T11:49:08.386Z</time></trkpt><trkpt lat="40.6537917" lon="8.20867"><ele>37.0</ele><time>2026-03-28T11:49:09.386Z</time></trkpt><trkpt lat="40.6536167" lon="8.2084283"><ele>36.0</ele><time>2026-03-28T11:49:10.386Z</time></trkpt><trkpt lat="40.6534433" lon="8.2081967"><ele>36.0</ele><time>2026-03-28T11:49:11.386Z</time></trkpt><trkpt lat="40.653265" lon="8.2079683"><ele>36.0</ele><time>2026-03-28T11:49:12.386Z</time></trkpt><trkpt lat="40.65309" lon="8.2077333"><ele>36.0</ele><time>2026-03-28T11:49:13.385Z</time></trkpt><trkpt lat="40.6529167" lon="8.2074933"><ele>36.0</ele><time>2026-03-28T11:49:14.386Z</time></trkpt><trkpt lat="40.6527367" lon="8.20725"><ele>36.0</ele><time>2026-03-28T11:49:15.386Z</time></trkpt><trkpt lat="40.652565" lon="8.2070117"><ele>36.0</ele><time>2026-03-28T11:49:16.386Z</time></trkpt><trkpt lat="40.6523867" lon="8.20676"><ele>36.0</ele><time>2026-03-28T11:49:17.386Z</time></trkpt><trkpt lat="40.6522017" lon="8.2065233"><ele>36.0</ele><time>2026-03-28T11:49:18.386Z</time></trkpt><trkpt lat="40.6520233" lon="8.2062767"><ele>35.5</ele><time>2026-03-28T11:49:19.385Z</time></trkpt><trkpt lat="40.6518483" lon="8.2060333"><ele>35.0</ele><time>2026-03-28T11:49:20.386Z</time></trkpt><trkpt lat="40.6516717" lon="8.2057917"><ele>34.5</ele><time>2026-03-28T11:49:21.386Z</time></trkpt><trkpt lat="40.6514967" lon="8.2055633"><ele>34.0</ele><time>2026-03-28T11:49:22.386Z</time></trkpt><trkpt lat="40.65133" lon="8.2053417"><ele>34.0</ele><time>2026-03-28T11:49:23.386Z</time></trkpt><trkpt lat="40.6511533" lon="8.2050883"><ele>34.0</ele><time>2026-03-28T11:49:24.386Z</time></trkpt><trkpt lat="40.6509817" lon="8.2048533"><ele>34.5</ele><time>2026-03-28T11:49:25.386Z</time></trkpt><trkpt lat="40.6508117" lon="8.2046233"><ele>35.0</ele><time>2026-03-28T11:49:26.386Z</time></trkpt><trkpt lat="40.65063" lon="8.2043733"><ele>35.0</ele><time>2026-03-28T11:49:27.386Z</time></trkpt><trkpt lat="40.65047" lon="8.204135"><ele>35.0</ele><time>2026-03-28T11:49:28.386Z</time></trkpt><trkpt lat="40.6503067" lon="8.2039"><ele>34.0</ele><time>2026-03-28T11:49:29.386Z</time></trkpt><trkpt lat="40.6501383" lon="8.2036667"><ele>33.0</ele><time>2026-03-28T11:49:30.386Z</time></trkpt><trkpt lat="40.64997" lon="8.2034283"><ele>33.0</ele><time>2026-03-28T11:49:31.386Z</time></trkpt><trkpt lat="40.6498117" lon="8.2032067"><ele>33.0</ele><time>2026-03-28T11:49:32.385Z</time></trkpt><trkpt lat="40.6496417" lon="8.20297"><ele>33.0</ele><time>2026-03-28T11:49:33.386Z</time></trkpt><trkpt lat="40.6494567" lon="8.202735"><ele>33.0</ele><time>2026-03-28T11:49:34.386Z</time></trkpt><trkpt lat="40.6492783" lon="8.2025083"><ele>32.5</ele><time>2026-03-28T11:49:35.386Z</time></trkpt><trkpt lat="40.6490983" lon="8.20227"><ele>32.0</ele><time>2026-03-28T11:49:36.386Z</time></trkpt><trkpt lat="40.6489267" lon="8.2020233"><ele>32.0</ele><time>2026-03-28T11:49:37.386Z</time></trkpt><trkpt lat="40.6487567" lon="8.201785"><ele>32.0</ele><time>2026-03-28T11:49:38.386Z</time></trkpt><trkpt lat="40.6485867" lon="8.20156"><ele>32.0</ele><time>2026-03-28T11:49:39.386Z</time></trkpt><trkpt lat="40.6484183" lon="8.201365"><ele>32.0</ele><time>2026-03-28T11:49:40.386Z</time></trkpt><trkpt lat="40.64823" lon="8.2011867"><ele>32.0</ele><time>2026-03-28T11:49:41.386Z</time></trkpt><trkpt lat="40.64801" lon="8.2010417"><ele>32.0</ele><time>2026-03-28T11:49:42.385Z</time></trkpt><trkpt lat="40.6477667" lon="8.2009333"><ele>31.5</ele><time>2026-03-28T11:49:43.386Z</time></trkpt><trkpt lat="40.6475133" lon="8.2008567"><ele>31.0</ele><time>2026-03-28T11:49:44.386Z</time></trkpt><trkpt lat="40.6472583" lon="8.2007983"><ele>31.0</ele><time>2026-03-28T11:49:45.386Z</time></trkpt><trkpt lat="40.647" lon="8.2007567"><ele>31.0</ele><time>2026-03-28T11:49:46.385Z</time></trkpt><trkpt lat="40.6467333" lon="8.200725"><ele>31.0</ele><time>2026-03-28T11:49:47.386Z</time></trkpt><trkpt lat="40.6464767" lon="8.200695"><ele>31.0</ele><time>2026-03-28T11:49:48.386Z</time></trkpt><trkpt lat="40.6462017" lon="8.2006483"><ele>30.5</ele><time>2026-03-28T11:49:49.386Z</time></trkpt><trkpt lat="40.6459217" lon="8.200585"><ele>30.0</ele><time>2026-03-28T11:49:50.386Z</time></trkpt><trkpt lat="40.6456383" lon="8.2005367"><ele>30.0</ele><time>2026-03-28T11:49:51.386Z</time></trkpt><trkpt lat="40.64536" lon="8.2004783"><ele>30.0</ele><time>2026-03-28T11:49:52.385Z</time></trkpt><trkpt lat="40.64509" lon="8.2004183"><ele>29.5</ele><time>2026-03-28T11:49:53.386Z</time></trkpt><trkpt lat="40.6448217" lon="8.2003633"><ele>29.0</ele><time>2026-03-28T11:49:54.386Z</time></trkpt><trkpt lat="40.6445533" lon="8.2003133"><ele>29.0</ele><time>2026-03-28T11:49:55.386Z</time></trkpt><trkpt lat="40.644285" lon="8.20027"><ele>29.0</ele><time>2026-03-28T11:49:56.386Z</time></trkpt><trkpt lat="40.64404" lon="8.2002267"><ele>29.0</ele><time>2026-03-28T11:49:57.385Z</time></trkpt><trkpt lat="40.64381" lon="8.200185"><ele>29.0</ele><time>2026-03-28T11:49:58.386Z</time></trkpt><trkpt lat="40.6435883" lon="8.2001433"><ele>28.666666666666664</ele><time>2026-03-28T11:49:59.386Z</time></trkpt><trkpt lat="40.64339" lon="8.2001067"><ele>28.333333333333336</ele><time>2026-03-28T11:50:00.386Z</time></trkpt><trkpt lat="40.6431967" lon="8.2000683"><ele>28.0</ele><time>2026-03-28T11:50:01.385Z</time></trkpt><trkpt lat="40.6430267" lon="8.200045"><ele>28.0</ele><time>2026-03-28T11:50:02.385Z</time></trkpt><trkpt lat="40.6428633" lon="8.2000133"><ele>28.0</ele><time>2026-03-28T11:50:03.386Z</time></trkpt><trkpt lat="40.6427183" lon="8.1999867"><ele>28.0</ele><time>2026-03-28T11:50:04.386Z</time></trkpt><trkpt lat="40.64257" lon="8.1999567"><ele>28.0</ele><time>2026-03-28T11:50:05.386Z</time></trkpt><trkpt lat="40.6424017" lon="8.1999183"><ele>28.0</ele><time>2026-03-28T11:50:06.385Z</time></trkpt><trkpt lat="40.642215" lon="8.199875"><ele>28.0</ele><time>2026-03-28T11:50:07.385Z</time></trkpt><trkpt lat="40.6420267" lon="8.1998367"><ele>27.333333333333336</ele><time>2026-03-28T11:50:08.386Z</time></trkpt><trkpt lat="40.6418167" lon="8.1997967"><ele>26.666666666666664</ele><time>2026-03-28T11:50:09.386Z</time></trkpt><trkpt lat="40.6416067" lon="8.1997617"><ele>26.0</ele><time>2026-03-28T11:50:10.386Z</time></trkpt><trkpt lat="40.641395" lon="8.199735"><ele>26.0</ele><time>2026-03-28T11:50:11.386Z</time></trkpt><trkpt lat="40.641165" lon="8.199685"><ele>26.0</ele><time>2026-03-28T11:50:12.386Z</time></trkpt><trkpt lat="40.6409333" lon="8.19964"><ele>26.0</ele><time>2026-03-28T11:50:13.386Z</time></trkpt><trkpt lat="40.6406983" lon="8.1996017"><ele>26.0</ele><time>2026-03-28T11:50:14.386Z</time></trkpt><trkpt lat="40.6404517" lon="8.1995617"><ele>26.0</ele><time>2026-03-28T11:50:15.385Z</time></trkpt><trkpt lat="40.6402017" lon="8.1995117"><ele>26.0</ele><time>2026-03-28T11:50:16.386Z</time></trkpt><trkpt lat="40.6399433" lon="8.1994567"><ele>26.0</ele><time>2026-03-28T11:50:17.386Z</time></trkpt><trkpt lat="40.6396883" lon="8.1993983"><ele>26.0</ele><time>2026-03-28T11:50:18.386Z</time></trkpt><trkpt lat="40.6394317" lon="8.19935"><ele>26.0</ele><time>2026-03-28T11:50:19.386Z</time></trkpt><trkpt lat="40.639175" lon="8.1992983"><ele>26.0</ele><time>2026-03-28T11:50:20.385Z</time></trkpt><trkpt lat="40.6389167" lon="8.1992567"><ele>26.0</ele><time>2026-03-28T11:50:21.386Z</time></trkpt><trkpt lat="40.63866" lon="8.1992167"><ele>26.0</ele><time>2026-03-28T11:50:22.386Z</time></trkpt><trkpt lat="40.6384183" lon="8.199165"><ele>25.5</ele><time>2026-03-28T11:50:23.386Z</time></trkpt><trkpt lat="40.6381833" lon="8.1991183"><ele>25.0</ele><time>2026-03-28T11:50:24.386Z</time></trkpt><trkpt lat="40.6379333" lon="8.1990683"><ele>25.0</ele><time>2026-03-28T11:50:25.385Z</time></trkpt><trkpt lat="40.637685" lon="8.1990233"><ele>25.0</ele><time>2026-03-28T11:50:26.386Z</time></trkpt><trkpt lat="40.637445" lon="8.1989783"><ele>25.0</ele><time>2026-03-28T11:50:27.385Z</time></trkpt><trkpt lat="40.6371983" lon="8.1989267"><ele>25.0</ele><time>2026-03-28T11:50:28.386Z</time></trkpt><trkpt lat="40.63695" lon="8.1988817"><ele>24.5</ele><time>2026-03-28T11:50:29.386Z</time></trkpt><trkpt lat="40.636705" lon="8.198825"><ele>24.0</ele><time>2026-03-28T11:50:30.386Z</time></trkpt><trkpt lat="40.63646" lon="8.1987667"><ele>24.0</ele><time>2026-03-28T11:50:31.386Z</time></trkpt><trkpt lat="40.63621" lon="8.1987267"><ele>24.0</ele><time>2026-03-28T11:50:32.386Z</time></trkpt><trkpt lat="40.635965" lon="8.1986733"><ele>23.5</ele><time>2026-03-28T11:50:33.386Z</time></trkpt><trkpt lat="40.635715" lon="8.1986233"><ele>23.0</ele><time>2026-03-28T11:50:34.386Z</time></trkpt><trkpt lat="40.6354683" lon="8.1985833"><ele>22.0</ele><time>2026-03-28T11:50:35.386Z</time></trkpt><trkpt lat="40.635225" lon="8.1985333"><ele>21.0</ele><time>2026-03-28T11:50:36.386Z</time></trkpt><trkpt lat="40.6349767" lon="8.19849"><ele>21.0</ele><time>2026-03-28T11:50:37.386Z</time></trkpt><trkpt lat="40.63473" lon="8.1984483"><ele>21.0</ele><time>2026-03-28T11:50:38.385Z</time></trkpt><trkpt lat="40.6344783" lon="8.1984017"><ele>20.5</ele><time>2026-03-28T11:50:39.386Z</time></trkpt><trkpt lat="40.6342183" lon="8.1983467"><ele>20.0</ele><time>2026-03-28T11:50:40.386Z</time></trkpt><trkpt lat="40.6339633" lon="8.1983"><ele>20.0</ele><time>2026-03-28T11:50:41.386Z</time></trkpt><trkpt lat="40.63371" lon="8.1982533"><ele>20.0</ele><time>2026-03-28T11:50:42.386Z</time></trkpt><trkpt lat="40.633455" lon="8.1982083"><ele>19.0</ele><time>2026-03-28T11:50:43.386Z</time></trkpt><trkpt lat="40.6332067" lon="8.198155"><ele>18.0</ele><time>2026-03-28T11:50:44.385Z</time></trkpt><trkpt lat="40.632955" lon="8.1981017"><ele>17.5</ele><time>2026-03-28T11:50:45.386Z</time></trkpt><trkpt lat="40.6327033" lon="8.1980567"><ele>17.0</ele><time>2026-03-28T11:50:46.386Z</time></trkpt><trkpt lat="40.632455" lon="8.1980117"><ele>17.0</ele><time>2026-03-28T11:50:47.385Z</time></trkpt><trkpt lat="40.6322017" lon="8.1979583"><ele>17.0</ele><time>2026-03-28T11:50:48.386Z</time></trkpt><trkpt lat="40.6319433" lon="8.197915"><ele>16.5</ele><time>2026-03-28T11:50:49.386Z</time></trkpt><trkpt lat="40.6316933" lon="8.1978717"><ele>16.0</ele><time>2026-03-28T11:50:50.386Z</time></trkpt><trkpt lat="40.6314417" lon="8.197825"><ele>16.0</ele><time>2026-03-28T11:50:51.386Z</time></trkpt><trkpt lat="40.6312" lon="8.1977733"><ele>16.0</ele><time>2026-03-28T11:50:52.386Z</time></trkpt><trkpt lat="40.6309417" lon="8.1977267"><ele>15.0</ele><time>2026-03-28T11:50:53.385Z</time></trkpt><trkpt lat="40.6306917" lon="8.1976833"><ele>14.0</ele><time>2026-03-28T11:50:54.386Z</time></trkpt><trkpt lat="40.630445" lon="8.1976417"><ele>14.0</ele><time>2026-03-28T11:50:55.385Z</time></trkpt><trkpt lat="40.6302" lon="8.197605"><ele>14.0</ele><time>2026-03-28T11:50:56.386Z</time></trkpt><trkpt lat="40.629955" lon="8.1975533"><ele>14.0</ele><time>2026-03-28T11:50:57.386Z</time></trkpt><trkpt lat="40.629715" lon="8.1974983"><ele>14.0</ele><time>2026-03-28T11:50:58.386Z</time></trkpt><trkpt lat="40.6294733" lon="8.1974517"><ele>13.5</ele><time>2026-03-28T11:50:59.386Z</time></trkpt><trkpt lat="40.629235" lon="8.1973933"><ele>13.0</ele><time>2026-03-28T11:51:00.385Z</time></trkpt><trkpt lat="40.6289883" lon="8.1973417"><ele>13.0</ele><time>2026-03-28T11:51:01.386Z</time></trkpt><trkpt lat="40.6287433" lon="8.1972917"><ele>13.0</ele><time>2026-03-28T11:51:02.386Z</time></trkpt><trkpt lat="40.6285" lon="8.1972567"><ele>12.0</ele><time>2026-03-28T11:51:03.386Z</time></trkpt><trkpt lat="40.6282683" lon="8.197215"><ele>11.0</ele><time>2026-03-28T11:51:04.386Z</time></trkpt><trkpt lat="40.6280383" lon="8.1971733"><ele>11.0</ele><time>2026-03-28T11:51:05.386Z</time></trkpt><trkpt lat="40.6278117" lon="8.1971283"><ele>11.0</ele><time>2026-03-28T11:51:06.385Z</time></trkpt><trkpt lat="40.627575" lon="8.19709"><ele>10.0</ele><time>2026-03-28T11:51:07.385Z</time></trkpt><trkpt lat="40.6273517" lon="8.1970567"><ele>9.0</ele><time>2026-03-28T11:51:08.386Z</time></trkpt><trkpt lat="40.6271317" lon="8.1970183"><ele>8.0</ele><time>2026-03-28T11:51:09.386Z</time></trkpt><trkpt lat="40.6269033" lon="8.1969717"><ele>7.666666666666666</ele><time>2026-03-28T11:51:10.385Z</time></trkpt><trkpt lat="40.6266883" lon="8.1969333"><ele>7.333333333333334</ele><time>2026-03-28T11:51:11.386Z</time></trkpt><trkpt lat="40.6264817" lon="8.1969"><ele>7.0</ele><time>2026-03-28T11:51:12.386Z</time></trkpt><trkpt lat="40.6262867" lon="8.196875"><ele>7.0</ele><time>2026-03-28T11:51:13.385Z</time></trkpt><trkpt lat="40.6260933" lon="8.19683"><ele>7.0</ele><time>2026-03-28T11:51:14.386Z</time></trkpt><trkpt lat="40.625915" lon="8.1967867"><ele>7.0</ele><time>2026-03-28T11:51:15.386Z</time></trkpt><trkpt lat="40.6257383" lon="8.1967633"><ele>7.0</ele><time>2026-03-28T11:51:16.386Z</time></trkpt><trkpt lat="40.6255717" lon="8.196725"><ele>7.0</ele><time>2026-03-28T11:51:17.386Z</time></trkpt><trkpt lat="40.6254067" lon="8.196695"><ele>7.0</ele><time>2026-03-28T11:51:18.385Z</time></trkpt><trkpt lat="40.6252583" lon="8.196655"><ele>6.5</ele><time>2026-03-28T11:51:19.386Z</time></trkpt><trkpt lat="40.6251167" lon="8.1966217"><ele>6.0</ele><time>2026-03-28T11:51:20.385Z</time></trkpt><trkpt lat="40.6249733" lon="8.1965867"><ele>5.5</ele><time>2026-03-28T11:51:21.386Z</time></trkpt><trkpt lat="40.624835" lon="8.1965633"><ele>5.0</ele><time>2026-03-28T11:51:22.385Z</time></trkpt><trkpt lat="40.6247083" lon="8.19654"><ele>5.0</ele><time>2026-03-28T11:51:23.386Z</time></trkpt><trkpt lat="40.6245867" lon="8.1965133"><ele>5.0</ele><time>2026-03-28T11:51:24.386Z</time></trkpt><trkpt lat="40.6244683" lon="8.196495"><ele>5.0</ele><time>2026-03-28T11:51:25.385Z</time></trkpt><trkpt lat="40.624355" lon="8.1964717"><ele>5.0</ele><time>2026-03-28T11:51:26.386Z</time></trkpt><trkpt lat="40.6242333" lon="8.1964333"><ele>4.75</ele><time>2026-03-28T11:51:27.386Z</time></trkpt><trkpt lat="40.6241283" lon="8.1963733"><ele>4.5</ele><time>2026-03-28T11:51:28.385Z</time></trkpt><trkpt lat="40.6240283" lon="8.19629"><ele>4.25</ele><time>2026-03-28T11:51:29.386Z</time></trkpt><trkpt lat="40.6239367" lon="8.1961767"><ele>4.0</ele><time>2026-03-28T11:51:30.385Z</time></trkpt><trkpt lat="40.623855" lon="8.1960383"><ele>4.0</ele><time>2026-03-28T11:51:31.386Z</time></trkpt><trkpt lat="40.6237667" lon="8.1958867"><ele>4.0</ele><time>2026-03-28T11:51:32.385Z</time></trkpt><trkpt lat="40.6236683" lon="8.1957133"><ele>4.0</ele><time>2026-03-28T11:51:33.386Z</time></trkpt><trkpt lat="40.6235383" lon="8.1955517"><ele>3.6666666666666665</ele><time>2026-03-28T11:51:34.386Z</time></trkpt><trkpt lat="40.62339" lon="8.195385"><ele>3.333333333333333</ele><time>2026-03-28T11:51:35.386Z</time></trkpt><trkpt lat="40.6232317" lon="8.1952267"><ele>3.0</ele><time>2026-03-28T11:51:36.385Z</time></trkpt><trkpt lat="40.62307" lon="8.1950667"><ele>3.0</ele><time>2026-03-28T11:51:37.386Z</time></trkpt><trkpt lat="40.6229" lon="8.1949033"><ele>3.0</ele><time>2026-03-28T11:51:38.385Z</time></trkpt><trkpt lat="40.6227333" lon="8.194735"><ele>3.0</ele><time>2026-03-28T11:51:39.386Z</time></trkpt><trkpt lat="40.6225683" lon="8.194585"><ele>2.6666666666666665</ele><time>2026-03-28T11:51:40.386Z</time></trkpt><trkpt lat="40.6224133" lon="8.194435"><ele>2.333333333333333</ele><time>2026-03-28T11:51:41.385Z</time></trkpt><trkpt lat="40.6222617" lon="8.1942967"><ele>2.0</ele><time>2026-03-28T11:51:42.386Z</time></trkpt><trkpt lat="40.62211" lon="8.19416"><ele>2.0</ele><time>2026-03-28T11:51:43.386Z</time></trkpt><trkpt lat="40.6219533" lon="8.1940233"><ele>2.0</ele><time>2026-03-28T11:51:44.386Z</time></trkpt><trkpt lat="40.6217817" lon="8.1938717"><ele>2.0</ele><time>2026-03-28T11:51:45.386Z</time></trkpt><trkpt lat="40.6216067" lon="8.1936983"><ele>2.0</ele><time>2026-03-28T11:51:46.385Z</time></trkpt><trkpt lat="40.6214317" lon="8.19352"><ele>2.0</ele><time>2026-03-28T11:51:47.386Z</time></trkpt><trkpt lat="40.6212617" lon="8.1933433"><ele>2.0</ele><time>2026-03-28T11:51:48.385Z</time></trkpt><trkpt lat="40.62109" lon="8.1931617"><ele>2.0</ele><time>2026-03-28T11:51:49.386Z</time></trkpt><trkpt lat="40.6209133" lon="8.19299"><ele>2.0</ele><time>2026-03-28T11:51:50.386Z</time></trkpt><trkpt lat="40.6207317" lon="8.1928183"><ele>2.0</ele><time>2026-03-28T11:51:51.386Z</time></trkpt><trkpt lat="40.6205433" lon="8.1926383"><ele>2.0</ele><time>2026-03-28T11:51:52.386Z</time></trkpt><trkpt lat="40.6203633" lon="8.1924633"><ele>2.0</ele><time>2026-03-28T11:51:53.386Z</time></trkpt><trkpt lat="40.620185" lon="8.1922833"><ele>2.0</ele><time>2026-03-28T11:51:54.386Z</time></trkpt><trkpt lat="40.6200083" lon="8.1921117"><ele>2.333333333333333</ele><time>2026-03-28T11:51:55.386Z</time></trkpt><trkpt lat="40.6198317" lon="8.1919367"><ele>2.6666666666666665</ele><time>2026-03-28T11:51:56.386Z</time></trkpt><trkpt lat="40.6196533" lon="8.19176"><ele>3.0</ele><time>2026-03-28T11:51:57.386Z</time></trkpt><trkpt lat="40.6194767" lon="8.1915833"><ele>3.0</ele><time>2026-03-28T11:51:58.386Z</time></trkpt><trkpt lat="40.619295" lon="8.1914117"><ele>3.0</ele><time>2026-03-28T11:51:59.386Z</time></trkpt><trkpt lat="40.6191217" lon="8.1912383"><ele>3.0</ele><time>2026-03-28T11:52:00.386Z</time></trkpt><trkpt lat="40.618945" lon="8.191065"><ele>3.0</ele><time>2026-03-28T11:52:01.386Z</time></trkpt><trkpt lat="40.6187617" lon="8.1909017"><ele>3.0</ele><time>2026-03-28T11:52:02.386Z</time></trkpt><trkpt lat="40.6185833" lon="8.1907233"><ele>3.0</ele><time>2026-03-28T11:52:03.386Z</time></trkpt><trkpt lat="40.6184133" lon="8.1905317"><ele>3.0</ele><time>2026-03-28T11:52:04.386Z</time></trkpt><trkpt lat="40.6182383" lon="8.1903633"><ele>3.0</ele><time>2026-03-28T11:52:05.386Z</time></trkpt><trkpt lat="40.6180617" lon="8.1901917"><ele>3.0</ele><time>2026-03-28T11:52:06.386Z</time></trkpt><trkpt lat="40.6178867" lon="8.190025"><ele>3.0</ele><time>2026-03-28T11:52:07.386Z</time></trkpt><trkpt lat="40.617705" lon="8.189855"><ele>3.0</ele><time>2026-03-28T11:52:08.386Z</time></trkpt><trkpt lat="40.617535" lon="8.1896767"><ele>3.0</ele><time>2026-03-28T11:52:09.386Z</time></trkpt><trkpt lat="40.6173667" lon="8.1895067"><ele>3.333333333333333</ele><time>2026-03-28T11:52:10.385Z</time></trkpt><trkpt lat="40.6171867" lon="8.18933"><ele>3.6666666666666665</ele><time>2026-03-28T11:52:11.385Z</time></trkpt><trkpt lat="40.6170183" lon="8.1891583"><ele>4.0</ele><time>2026-03-28T11:52:12.386Z</time></trkpt><trkpt lat="40.616845" lon="8.1889983"><ele>5.333333333333333</ele><time>2026-03-28T11:52:13.386Z</time></trkpt><trkpt lat="40.6166783" lon="8.1888517"><ele>6.666666666666666</ele><time>2026-03-28T11:52:14.385Z</time></trkpt><trkpt lat="40.6165283" lon="8.188705"><ele>8.0</ele><time>2026-03-28T11:52:15.386Z</time></trkpt><trkpt lat="40.6163667" lon="8.1885933"><ele>8.0</ele><time>2026-03-28T11:52:16.386Z</time></trkpt><trkpt lat="40.6161917" lon="8.1885"><ele>8.0</ele><time>2026-03-28T11:52:17.385Z</time></trkpt><trkpt lat="40.6160083" lon="8.1884167"><ele>8.0</ele><time>2026-03-28T11:52:18.386Z</time></trkpt><trkpt lat="40.6158017" lon="8.188335"><ele>8.0</ele><time>2026-03-28T11:52:19.386Z</time></trkpt><trkpt lat="40.6155817" lon="8.1882717"><ele>8.0</ele><time>2026-03-28T11:52:20.386Z</time></trkpt><trkpt lat="40.6153767" lon="8.1882283"><ele>8.0</ele><time>2026-03-28T11:52:21.386Z</time></trkpt><trkpt lat="40.6151633" lon="8.188195"><ele>12.0</ele><time>2026-03-28T11:52:22.386Z</time></trkpt><trkpt lat="40.6149383" lon="8.1881633"><ele>16.0</ele><time>2026-03-28T11:52:23.385Z</time></trkpt><trkpt lat="40.6147133" lon="8.18812"><ele>16.0</ele><time>2026-03-28T11:52:24.386Z</time></trkpt><trkpt lat="40.61449" lon="8.18805"><ele>16.0</ele><time>2026-03-28T11:52:25.386Z</time></trkpt><trkpt lat="40.6142633" lon="8.1879967"><ele>16.5</ele><time>2026-03-28T11:52:26.385Z</time></trkpt><trkpt lat="40.6140317" lon="8.1879467"><ele>17.0</ele><time>2026-03-28T11:52:27.386Z</time></trkpt><trkpt lat="40.6137917" lon="8.187895"><ele>16.5</ele><time>2026-03-28T11:52:28.386Z</time></trkpt><trkpt lat="40.6135583" lon="8.18784"><ele>16.0</ele><time>2026-03-28T11:52:29.386Z</time></trkpt><trkpt lat="40.6133267" lon="8.18779"><ele>16.0</ele><time>2026-03-28T11:52:30.386Z</time></trkpt><trkpt lat="40.6130967" lon="8.1877533"><ele>16.0</ele><time>2026-03-28T11:52:31.386Z</time></trkpt><trkpt lat="40.6128717" lon="8.1877117"><ele>17.0</ele><time>2026-03-28T11:52:32.386Z</time></trkpt><trkpt lat="40.6126517" lon="8.1876717"><ele>18.0</ele><time>2026-03-28T11:52:33.386Z</time></trkpt><trkpt lat="40.6124267" lon="8.1876233"><ele>18.0</ele><time>2026-03-28T11:52:34.386Z</time></trkpt><trkpt lat="40.6122017" lon="8.187575"><ele>18.0</ele><time>2026-03-28T11:52:35.386Z</time></trkpt><trkpt lat="40.6119783" lon="8.18753"><ele>19.0</ele><time>2026-03-28T11:52:36.386Z</time></trkpt><trkpt lat="40.6117483" lon="8.18749"><ele>20.0</ele><time>2026-03-28T11:52:37.385Z</time></trkpt><trkpt lat="40.6115333" lon="8.187445"><ele>20.0</ele><time>2026-03-28T11:52:38.386Z</time></trkpt><trkpt lat="40.6113333" lon="8.187405"><ele>20.0</ele><time>2026-03-28T11:52:39.386Z</time></trkpt><trkpt lat="40.6111417" lon="8.1873667"><ele>20.0</ele><time>2026-03-28T11:52:40.386Z</time></trkpt><trkpt lat="40.6109483" lon="8.1872883"><ele>21.666666666666668</ele><time>2026-03-28T11:52:41.386Z</time></trkpt><trkpt lat="40.61077" lon="8.1871717"><ele>23.333333333333336</ele><time>2026-03-28T11:52:42.386Z</time></trkpt><trkpt lat="40.6105967" lon="8.187025"><ele>25.0</ele><time>2026-03-28T11:52:43.386Z</time></trkpt><trkpt lat="40.6104083" lon="8.18686"><ele>22.5</ele><time>2026-03-28T11:52:44.386Z</time></trkpt><trkpt lat="40.6102117" lon="8.1866967"><ele>20.0</ele><time>2026-03-28T11:52:45.386Z</time></trkpt><trkpt lat="40.6100033" lon="8.1865567"><ele>23.0</ele><time>2026-03-28T11:52:46.386Z</time></trkpt><trkpt lat="40.6098" lon="8.1864033"><ele>26.0</ele><time>2026-03-28T11:52:47.386Z</time></trkpt><trkpt lat="40.6095883" lon="8.1862433"><ele>23.5</ele><time>2026-03-28T11:52:48.386Z</time></trkpt><trkpt lat="40.60938" lon="8.186085"><ele>21.0</ele><time>2026-03-28T11:52:49.386Z</time></trkpt><trkpt lat="40.6091767" lon="8.1859233"><ele>21.0</ele><time>2026-03-28T11:52:50.385Z</time></trkpt><trkpt lat="40.6089667" lon="8.1857683"><ele>21.0</ele><time>2026-03-28T11:52:51.386Z</time></trkpt><trkpt lat="40.6087617" lon="8.18561"><ele>22.5</ele><time>2026-03-28T11:52:52.386Z</time></trkpt><trkpt lat="40.608555" lon="8.185455"><ele>24.0</ele><time>2026-03-28T11:52:53.386Z</time></trkpt><trkpt lat="40.6083483" lon="8.1853083"><ele>24.0</ele><time>2026-03-28T11:52:54.385Z</time></trkpt><trkpt lat="40.6081367" lon="8.1851717"><ele>24.0</ele><time>2026-03-28T11:52:55.386Z</time></trkpt><trkpt lat="40.6079217" lon="8.1850183"><ele>24.5</ele><time>2026-03-28T11:52:56.386Z</time></trkpt><trkpt lat="40.6077133" lon="8.18487"><ele>25.0</ele><time>2026-03-28T11:52:57.385Z</time></trkpt><trkpt lat="40.60751" lon="8.18472"><ele>25.0</ele><time>2026-03-28T11:52:58.386Z</time></trkpt><trkpt lat="40.6073067" lon="8.1845583"><ele>25.0</ele><time>2026-03-28T11:52:59.386Z</time></trkpt><trkpt lat="40.6070983" lon="8.1843983"><ele>22.0</ele><time>2026-03-28T11:53:00.386Z</time></trkpt><trkpt lat="40.60689" lon="8.1842483"><ele>19.0</ele><time>2026-03-28T11:53:01.386Z</time></trkpt><trkpt lat="40.60668" lon="8.1840883"><ele>23.5</ele><time>2026-03-28T11:53:02.386Z</time></trkpt><trkpt lat="40.6064717" lon="8.1839317"><ele>28.0</ele><time>2026-03-28T11:53:03.386Z</time></trkpt><trkpt lat="40.6062717" lon="8.1837817"><ele>24.0</ele><time>2026-03-28T11:53:04.386Z</time></trkpt><trkpt lat="40.6060683" lon="8.18363"><ele>20.0</ele><time>2026-03-28T11:53:05.385Z</time></trkpt><trkpt lat="40.605875" lon="8.1834883"><ele>20.0</ele><time>2026-03-28T11:53:06.386Z</time></trkpt><trkpt lat="40.60568" lon="8.1833583"><ele>20.0</ele><time>2026-03-28T11:53:07.386Z</time></trkpt><trkpt lat="40.6054717" lon="8.1832483"><ele>20.0</ele><time>2026-03-28T11:53:08.386Z</time></trkpt><trkpt lat="40.6052617" lon="8.183185"><ele>25.0</ele><time>2026-03-28T11:53:09.386Z</time></trkpt><trkpt lat="40.6050467" lon="8.1831233"><ele>30.0</ele><time>2026-03-28T11:53:10.386Z</time></trkpt><trkpt lat="40.6048167" lon="8.1830533"><ele>30.0</ele><time>2026-03-28T11:53:11.386Z</time></trkpt><trkpt lat="40.6045967" lon="8.1829833"><ele>30.0</ele><time>2026-03-28T11:53:12.386Z</time></trkpt><trkpt lat="40.6043733" lon="8.1829167"><ele>29.0</ele><time>2026-03-28T11:53:13.385Z</time></trkpt><trkpt lat="40.6041567" lon="8.1828533"><ele>28.0</ele><time>2026-03-28T11:53:14.386Z</time></trkpt><trkpt lat="40.6039467" lon="8.1827917"><ele>27.0</ele><time>2026-03-28T11:53:15.386Z</time></trkpt><trkpt lat="40.6037583" lon="8.1827267"><ele>25.666666666666668</ele><time>2026-03-28T11:53:16.386Z</time></trkpt><trkpt lat="40.60357" lon="8.1826383"><ele>24.333333333333336</ele><time>2026-03-28T11:53:17.386Z</time></trkpt><trkpt lat="40.6033817" lon="8.18251"><ele>23.0</ele><time>2026-03-28T11:53:18.386Z</time></trkpt><trkpt lat="40.6031817" lon="8.182375"><ele>28.0</ele><time>2026-03-28T11:53:19.386Z</time></trkpt><trkpt lat="40.60298" lon="8.18224"><ele>33.0</ele><time>2026-03-28T11:53:20.386Z</time></trkpt><trkpt lat="40.6027717" lon="8.1820967"><ele>33.0</ele><time>2026-03-28T11:53:21.385Z</time></trkpt><trkpt lat="40.602565" lon="8.1819583"><ele>33.0</ele><time>2026-03-28T11:53:22.386Z</time></trkpt><trkpt lat="40.6023717" lon="8.18183"><ele>33.0</ele><time>2026-03-28T11:53:23.386Z</time></trkpt><trkpt lat="40.602185" lon="8.1816933"><ele>32.333333333333336</ele><time>2026-03-28T11:53:24.386Z</time></trkpt><trkpt lat="40.60199" lon="8.181595"><ele>31.666666666666668</ele><time>2026-03-28T11:53:25.386Z</time></trkpt><trkpt lat="40.6017917" lon="8.1815333"><ele>31.0</ele><time>2026-03-28T11:53:26.386Z</time></trkpt><trkpt lat="40.601585" lon="8.1814967"><ele>30.333333333333336</ele><time>2026-03-28T11:53:27.386Z</time></trkpt><trkpt lat="40.6013667" lon="8.1815033"><ele>29.666666666666664</ele><time>2026-03-28T11:53:28.385Z</time></trkpt><trkpt lat="40.6011467" lon="8.181525"><ele>29.0</ele><time>2026-03-28T11:53:29.386Z</time></trkpt><trkpt lat="40.6009133" lon="8.1815217"><ele>36.666666666666664</ele><time>2026-03-28T11:53:30.386Z</time></trkpt><trkpt lat="40.600695" lon="8.1815117"><ele>44.33333333333333</ele><time>2026-03-28T11:53:31.386Z</time></trkpt><trkpt lat="40.6004783" lon="8.181465"><ele>52.0</ele><time>2026-03-28T11:53:32.386Z</time></trkpt><trkpt lat="40.6002833" lon="8.1813917"><ele>52.666666666666664</ele><time>2026-03-28T11:53:33.386Z</time></trkpt><trkpt lat="40.6001" lon="8.18132"><ele>53.33333333333333</ele><time>2026-03-28T11:53:34.385Z</time></trkpt><trkpt lat="40.599925" lon="8.18129"><ele>54.0</ele><time>2026-03-28T11:53:35.385Z</time></trkpt><trkpt lat="40.5997333" lon="8.1812933"><ele>54.0</ele><time>2026-03-28T11:53:36.386Z</time></trkpt><trkpt lat="40.5995517" lon="8.1813083"><ele>54.0</ele><time>2026-03-28T11:53:37.386Z</time></trkpt><trkpt lat="40.5993733" lon="8.181305"><ele>54.0</ele><time>2026-03-28T11:53:38.386Z</time></trkpt><trkpt lat="40.5991933" lon="8.1812583"><ele>55.0</ele><time>2026-03-28T11:53:39.386Z</time></trkpt><trkpt lat="40.5990133" lon="8.1811517"><ele>56.0</ele><time>2026-03-28T11:53:40.386Z</time></trkpt><trkpt lat="40.5988283" lon="8.181035"><ele>57.0</ele><time>2026-03-28T11:53:41.386Z</time></trkpt><trkpt lat="40.5986567" lon="8.1809283"><ele>58.33333333333333</ele><time>2026-03-28T11:53:42.386Z</time></trkpt><trkpt lat="40.5984917" lon="8.180815"><ele>59.666666666666664</ele><time>2026-03-28T11:53:43.386Z</time></trkpt><trkpt lat="40.59836" lon="8.18067"><ele>61.0</ele><time>2026-03-28T11:53:44.385Z</time></trkpt><trkpt lat="40.5982467" lon="8.1804867"><ele>61.0</ele><time>2026-03-28T11:53:45.385Z</time></trkpt><trkpt lat="40.5981533" lon="8.180285"><ele>61.0</ele><time>2026-03-28T11:53:46.386Z</time></trkpt><trkpt lat="40.5980767" lon="8.1800883"><ele>61.0</ele><time>2026-03-28T11:53:47.386Z</time></trkpt><trkpt lat="40.5979867" lon="8.179925"><ele>59.666666666666664</ele><time>2026-03-28T11:53:48.386Z</time></trkpt><trkpt lat="40.5978717" lon="8.1798167"><ele>58.33333333333333</ele><time>2026-03-28T11:53:49.385Z</time></trkpt><trkpt lat="40.5977233" lon="8.1797283"><ele>57.0</ele><time>2026-03-28T11:53:50.386Z</time></trkpt><trkpt lat="40.597585" lon="8.17963"><ele>57.0</ele><time>2026-03-28T11:53:51.386Z</time></trkpt><trkpt lat="40.5974567" lon="8.1795117"><ele>57.0</ele><time>2026-03-28T11:53:52.386Z</time></trkpt><trkpt lat="40.5973317" lon="8.1793383"><ele>57.0</ele><time>2026-03-28T11:53:53.386Z</time></trkpt><trkpt lat="40.5972233" lon="8.1791517"><ele>51.333333333333336</ele><time>2026-03-28T11:53:54.386Z</time></trkpt><trkpt lat="40.59713" lon="8.1789533"><ele>45.66666666666667</ele><time>2026-03-28T11:53:55.385Z</time></trkpt><trkpt lat="40.5970217" lon="8.178745"><ele>40.0</ele><time>2026-03-28T11:53:56.386Z</time></trkpt><trkpt lat="40.5969317" lon="8.1785233"><ele>40.0</ele><time>2026-03-28T11:53:57.386Z</time></trkpt><trkpt lat="40.5968733" lon="8.17828"><ele>40.0</ele><time>2026-03-28T11:53:58.386Z</time></trkpt><trkpt lat="40.5967983" lon="8.1780783"><ele>40.0</ele><time>2026-03-28T11:53:59.386Z</time></trkpt><trkpt lat="40.5967067" lon="8.1778817"><ele>45.66666666666667</ele><time>2026-03-28T11:54:00.385Z</time></trkpt><trkpt lat="40.5965883" lon="8.177705"><ele>51.333333333333336</ele><time>2026-03-28T11:54:01.386Z</time></trkpt><trkpt lat="40.5964817" lon="8.1775117"><ele>57.0</ele><time>2026-03-28T11:54:02.385Z</time></trkpt><trkpt lat="40.5963967" lon="8.1773117"><ele>62.0</ele><time>2026-03-28T11:54:03.385Z</time></trkpt><trkpt lat="40.5963283" lon="8.1770867"><ele>67.0</ele><time>2026-03-28T11:54:04.386Z</time></trkpt><trkpt lat="40.596275" lon="8.1768767"><ele>72.0</ele><time>2026-03-28T11:54:05.386Z</time></trkpt><trkpt lat="40.59619" lon="8.176685"><ele>66.66666666666667</ele><time>2026-03-28T11:54:06.385Z</time></trkpt><trkpt lat="40.5960317" lon="8.1765017"><ele>61.333333333333336</ele><time>2026-03-28T11:54:07.386Z</time></trkpt><trkpt lat="40.59587" lon="8.176335"><ele>56.0</ele><time>2026-03-28T11:54:08.385Z</time></trkpt><trkpt lat="40.5957067" lon="8.17615"><ele>56.0</ele><time>2026-03-28T11:54:09.385Z</time></trkpt><trkpt lat="40.5955317" lon="8.1759717"><ele>56.0</ele><time>2026-03-28T11:54:10.385Z</time></trkpt><trkpt lat="40.5953633" lon="8.1757983"><ele>56.0</ele><time>2026-03-28T11:54:11.386Z</time></trkpt><trkpt lat="40.59518" lon="8.1756083"><ele>51.333333333333336</ele><time>2026-03-28T11:54:12.386Z</time></trkpt><trkpt lat="40.5950383" lon="8.175445"><ele>46.66666666666667</ele><time>2026-03-28T11:54:13.386Z</time></trkpt><trkpt lat="40.5949267" lon="8.175305"><ele>42.0</ele><time>2026-03-28T11:54:14.385Z</time></trkpt><trkpt lat="40.5948333" lon="8.1751683"><ele>42.0</ele><time>2026-03-28T11:54:15.386Z</time></trkpt><trkpt lat="40.5947833" lon="8.1750017"><ele>42.0</ele><time>2026-03-28T11:54:16.386Z</time></trkpt><trkpt lat="40.59477" lon="8.1748333"><ele>42.0</ele><time>2026-03-28T11:54:17.386Z</time></trkpt><trkpt lat="40.5948" lon="8.1746383"><ele>42.0</ele><time>2026-03-28T11:54:18.386Z</time></trkpt><trkpt lat="40.594875" lon="8.174455"><ele>40.333333333333336</ele><time>2026-03-28T11:54:19.386Z</time></trkpt><trkpt lat="40.5949583" lon="8.174255"><ele>38.66666666666667</ele><time>2026-03-28T11:54:20.385Z</time></trkpt><trkpt lat="40.5950367" lon="8.174025"><ele>37.0</ele><time>2026-03-28T11:54:21.385Z</time></trkpt><trkpt lat="40.595105" lon="8.1737717"><ele>34.0</ele><time>2026-03-28T11:54:22.386Z</time></trkpt><trkpt lat="40.59516" lon="8.173505"><ele>31.0</ele><time>2026-03-28T11:54:23.386Z</time></trkpt><trkpt lat="40.595205" lon="8.173225"><ele>28.0</ele><time>2026-03-28T11:54:24.386Z</time></trkpt><trkpt lat="40.59524" lon="8.1729483"><ele>30.0</ele><time>2026-03-28T11:54:25.386Z</time></trkpt><trkpt lat="40.5952767" lon="8.1726867"><ele>32.0</ele><time>2026-03-28T11:54:26.386Z</time></trkpt><trkpt lat="40.595325" lon="8.1724367"><ele>34.0</ele><time>2026-03-28T11:54:27.385Z</time></trkpt><trkpt lat="40.595395" lon="8.172165"><ele>34.0</ele><time>2026-03-28T11:54:28.386Z</time></trkpt><trkpt lat="40.5954683" lon="8.171885"><ele>34.0</ele><time>2026-03-28T11:54:29.385Z</time></trkpt><trkpt lat="40.5955383" lon="8.1715967"><ele>28.5</ele><time>2026-03-28T11:54:30.386Z</time></trkpt><trkpt lat="40.595625" lon="8.17132"><ele>23.0</ele><time>2026-03-28T11:54:31.386Z</time></trkpt><trkpt lat="40.5957133" lon="8.1710333"><ele>23.0</ele><time>2026-03-28T11:54:32.386Z</time></trkpt><trkpt lat="40.5958" lon="8.1707433"><ele>23.0</ele><time>2026-03-28T11:54:33.386Z</time></trkpt><trkpt lat="40.5958817" lon="8.170465"><ele>20.333333333333336</ele><time>2026-03-28T11:54:34.386Z</time></trkpt><trkpt lat="40.5959633" lon="8.1701967"><ele>17.666666666666668</ele><time>2026-03-28T11:54:35.386Z</time></trkpt><trkpt lat="40.5960467" lon="8.169915"><ele>15.0</ele><time>2026-03-28T11:54:36.386Z</time></trkpt><trkpt lat="40.5961183" lon="8.1696433"><ele>16.666666666666668</ele><time>2026-03-28T11:54:37.386Z</time></trkpt><trkpt lat="40.5961783" lon="8.1693883"><ele>18.333333333333336</ele><time>2026-03-28T11:54:38.386Z</time></trkpt><trkpt lat="40.59622" lon="8.169115"><ele>20.0</ele><time>2026-03-28T11:54:39.386Z</time></trkpt><trkpt lat="40.5962167" lon="8.1688233"><ele>20.0</ele><time>2026-03-28T11:54:40.385Z</time></trkpt><trkpt lat="40.5961833" lon="8.16855"><ele>20.0</ele><time>2026-03-28T11:54:41.386Z</time></trkpt><trkpt lat="40.5961167" lon="8.1682783"><ele>20.0</ele><time>2026-03-28T11:54:42.385Z</time></trkpt><trkpt lat="40.5960433" lon="8.1680433"><ele>17.0</ele><time>2026-03-28T11:54:43.386Z</time></trkpt><trkpt lat="40.59593" lon="8.16781"><ele>14.0</ele><time>2026-03-28T11:54:44.385Z</time></trkpt><trkpt lat="40.59579" lon="8.1676167"><ele>11.0</ele><time>2026-03-28T11:54:45.386Z</time></trkpt><trkpt lat="40.595605" lon="8.1674367"><ele>12.0</ele><time>2026-03-28T11:54:46.386Z</time></trkpt><trkpt lat="40.5954" lon="8.1672683"><ele>13.0</ele><time>2026-03-28T11:54:47.386Z</time></trkpt><trkpt lat="40.5951817" lon="8.1671167"><ele>10.0</ele><time>2026-03-28T11:54:48.386Z</time></trkpt><trkpt lat="40.5949567" lon="8.1669583"><ele>7.0</ele><time>2026-03-28T11:54:49.386Z</time></trkpt><trkpt lat="40.5947433" lon="8.166805"><ele>7.0</ele><time>2026-03-28T11:54:50.386Z</time></trkpt><trkpt lat="40.59453" lon="8.1666433"><ele>7.0</ele><time>2026-03-28T11:54:51.386Z</time></trkpt><trkpt lat="40.5943217" lon="8.1664683"><ele>7.5</ele><time>2026-03-28T11:54:52.385Z</time></trkpt><trkpt lat="40.594125" lon="8.1663133"><ele>8.0</ele><time>2026-03-28T11:54:53.385Z</time></trkpt><trkpt lat="40.593925" lon="8.16616"><ele>8.0</ele><time>2026-03-28T11:54:54.386Z</time></trkpt><trkpt lat="40.593745" lon="8.1660133"><ele>8.0</ele><time>2026-03-28T11:54:55.385Z</time></trkpt><trkpt lat="40.5935833" lon="8.1658683"><ele>8.0</ele><time>2026-03-28T11:54:56.386Z</time></trkpt><trkpt lat="40.5934283" lon="8.16575"><ele>10.0</ele><time>2026-03-28T11:54:57.386Z</time></trkpt><trkpt lat="40.59327" lon="8.16566"><ele>12.0</ele><time>2026-03-28T11:54:58.386Z</time></trkpt><trkpt lat="40.593095" lon="8.1655967"><ele>14.0</ele><time>2026-03-28T11:54:59.386Z</time></trkpt><trkpt lat="40.592915" lon="8.1655733"><ele>14.666666666666668</ele><time>2026-03-28T11:55:00.385Z</time></trkpt><trkpt lat="40.5927167" lon="8.1656"><ele>15.333333333333332</ele><time>2026-03-28T11:55:01.386Z</time></trkpt><trkpt lat="40.5925033" lon="8.165595"><ele>16.0</ele><time>2026-03-28T11:55:02.386Z</time></trkpt><trkpt lat="40.5922817" lon="8.1655967"><ele>16.0</ele><time>2026-03-28T11:55:03.385Z</time></trkpt><trkpt lat="40.5920417" lon="8.1655933"><ele>16.0</ele><time>2026-03-28T11:55:04.386Z</time></trkpt><trkpt lat="40.5918083" lon="8.1655833"><ele>17.0</ele><time>2026-03-28T11:55:05.386Z</time></trkpt><trkpt lat="40.5915767" lon="8.1655717"><ele>18.0</ele><time>2026-03-28T11:55:06.386Z</time></trkpt><trkpt lat="40.5913367" lon="8.1655633"><ele>18.5</ele><time>2026-03-28T11:55:07.386Z</time></trkpt><trkpt lat="40.5910983" lon="8.1655667"><ele>19.0</ele><time>2026-03-28T11:55:08.386Z</time></trkpt><trkpt lat="40.590855" lon="8.1655717"><ele>19.0</ele><time>2026-03-28T11:55:09.386Z</time></trkpt><trkpt lat="40.590615" lon="8.1655683"><ele>19.0</ele><time>2026-03-28T11:55:10.386Z</time></trkpt><trkpt lat="40.5903783" lon="8.1655667"><ele>19.5</ele><time>2026-03-28T11:55:11.386Z</time></trkpt><trkpt lat="40.5901433" lon="8.16557"><ele>20.0</ele><time>2026-03-28T11:55:12.386Z</time></trkpt><trkpt lat="40.5899133" lon="8.1655633"><ele>20.0</ele><time>2026-03-28T11:55:13.386Z</time></trkpt><trkpt lat="40.5896783" lon="8.1655633"><ele>20.0</ele><time>2026-03-28T11:55:14.386Z</time></trkpt><trkpt lat="40.58943" lon="8.1655767"><ele>21.0</ele><time>2026-03-28T11:55:15.386Z</time></trkpt><trkpt lat="40.589185" lon="8.1655783"><ele>22.0</ele><time>2026-03-28T11:55:16.385Z</time></trkpt><trkpt lat="40.5889517" lon="8.1655767"><ele>22.0</ele><time>2026-03-28T11:55:17.386Z</time></trkpt><trkpt lat="40.58873" lon="8.1655717"><ele>22.0</ele><time>2026-03-28T11:55:18.386Z</time></trkpt><trkpt lat="40.5884983" lon="8.1655683"><ele>22.0</ele><time>2026-03-28T11:55:19.386Z</time></trkpt><trkpt lat="40.58828" lon="8.165535"><ele>22.0</ele><time>2026-03-28T11:55:20.386Z</time></trkpt><trkpt lat="40.58807" lon="8.16547"><ele>22.0</ele><time>2026-03-28T11:55:21.386Z</time></trkpt><trkpt lat="40.587845" lon="8.165395"><ele>21.5</ele><time>2026-03-28T11:55:22.385Z</time></trkpt><trkpt lat="40.58762" lon="8.1653067"><ele>21.0</ele><time>2026-03-28T11:55:23.386Z</time></trkpt><trkpt lat="40.5874083" lon="8.1652167"><ele>21.0</ele><time>2026-03-28T11:55:24.385Z</time></trkpt><trkpt lat="40.5871967" lon="8.1651067"><ele>21.0</ele><time>2026-03-28T11:55:25.385Z</time></trkpt><trkpt lat="40.5869883" lon="8.164965"><ele>22.0</ele><time>2026-03-28T11:55:26.386Z</time></trkpt><trkpt lat="40.5867917" lon="8.1647967"><ele>23.0</ele><time>2026-03-28T11:55:27.386Z</time></trkpt><trkpt lat="40.5865983" lon="8.164615"><ele>23.0</ele><time>2026-03-28T11:55:28.386Z</time></trkpt><trkpt lat="40.5863983" lon="8.1644217"><ele>23.0</ele><time>2026-03-28T11:55:29.386Z</time></trkpt><trkpt lat="40.5861867" lon="8.1642383"><ele>24.0</ele><time>2026-03-28T11:55:30.386Z</time></trkpt><trkpt lat="40.585965" lon="8.1640617"><ele>25.0</ele><time>2026-03-28T11:55:31.385Z</time></trkpt><trkpt lat="40.5857517" lon="8.1638767"><ele>25.0</ele><time>2026-03-28T11:55:32.385Z</time></trkpt><trkpt lat="40.5855317" lon="8.163685"><ele>25.0</ele><time>2026-03-28T11:55:33.386Z</time></trkpt><trkpt lat="40.5853183" lon="8.1635017"><ele>25.5</ele><time>2026-03-28T11:55:34.386Z</time></trkpt><trkpt lat="40.5851017" lon="8.1633117"><ele>26.0</ele><time>2026-03-28T11:55:35.386Z</time></trkpt><trkpt lat="40.5848933" lon="8.1631233"><ele>26.0</ele><time>2026-03-28T11:55:36.386Z</time></trkpt><trkpt lat="40.584705" lon="8.1629383"><ele>26.0</ele><time>2026-03-28T11:55:37.385Z</time></trkpt><trkpt lat="40.58452" lon="8.1627683"><ele>25.0</ele><time>2026-03-28T11:55:38.386Z</time></trkpt><trkpt lat="40.5843217" lon="8.1626417"><ele>24.0</ele><time>2026-03-28T11:55:39.386Z</time></trkpt><trkpt lat="40.5841067" lon="8.1625367"><ele>24.0</ele><time>2026-03-28T11:55:40.386Z</time></trkpt><trkpt lat="40.583885" lon="8.162435"><ele>24.0</ele><time>2026-03-28T11:55:41.385Z</time></trkpt><trkpt lat="40.5836467" lon="8.1623467"><ele>26.5</ele><time>2026-03-28T11:55:42.385Z</time></trkpt><trkpt lat="40.5834" lon="8.1622667"><ele>29.0</ele><time>2026-03-28T11:55:43.386Z</time></trkpt><trkpt lat="40.5831483" lon="8.1621683"><ele>29.0</ele><time>2026-03-28T11:55:44.386Z</time></trkpt><trkpt lat="40.582895" lon="8.1620783"><ele>29.0</ele><time>2026-03-28T11:55:45.386Z</time></trkpt><trkpt lat="40.5826633" lon="8.161985"><ele>28.5</ele><time>2026-03-28T11:55:46.385Z</time></trkpt><trkpt lat="40.582435" lon="8.16189"><ele>28.0</ele><time>2026-03-28T11:55:47.386Z</time></trkpt><trkpt lat="40.5822033" lon="8.1618033"><ele>28.0</ele><time>2026-03-28T11:55:48.385Z</time></trkpt><trkpt lat="40.581975" lon="8.1617483"><ele>28.0</ele><time>2026-03-28T11:55:49.386Z</time></trkpt><trkpt lat="40.5817367" lon="8.1617217"><ele>28.0</ele><time>2026-03-28T11:55:50.385Z</time></trkpt><trkpt lat="40.5814917" lon="8.1617017"><ele>28.0</ele><time>2026-03-28T11:55:51.386Z</time></trkpt><trkpt lat="40.581255" lon="8.1616783"><ele>27.0</ele><time>2026-03-28T11:55:52.385Z</time></trkpt><trkpt lat="40.581015" lon="8.16165"><ele>26.0</ele><time>2026-03-28T11:55:53.386Z</time></trkpt><trkpt lat="40.5807833" lon="8.1616333"><ele>26.0</ele><time>2026-03-28T11:55:54.386Z</time></trkpt><trkpt lat="40.5805517" lon="8.1616133"><ele>26.0</ele><time>2026-03-28T11:55:55.386Z</time></trkpt><trkpt lat="40.5803283" lon="8.1615733"><ele>27.0</ele><time>2026-03-28T11:55:56.385Z</time></trkpt><trkpt lat="40.5800983" lon="8.1615467"><ele>28.0</ele><time>2026-03-28T11:55:57.386Z</time></trkpt><trkpt lat="40.5798767" lon="8.1615167"><ele>30.0</ele><time>2026-03-28T11:55:58.386Z</time></trkpt><trkpt lat="40.5796633" lon="8.16149"><ele>32.0</ele><time>2026-03-28T11:55:59.385Z</time></trkpt><trkpt lat="40.5794517" lon="8.1614617"><ele>34.0</ele><time>2026-03-28T11:56:00.386Z</time></trkpt><trkpt lat="40.5792417" lon="8.16144"><ele>34.0</ele><time>2026-03-28T11:56:01.386Z</time></trkpt><trkpt lat="40.5790517" lon="8.161415"><ele>34.0</ele><time>2026-03-28T11:56:02.385Z</time></trkpt><trkpt lat="40.5788717" lon="8.1613817"><ele>34.0</ele><time>2026-03-28T11:56:03.386Z</time></trkpt><trkpt lat="40.5787067" lon="8.16134"><ele>32.66666666666667</ele><time>2026-03-28T11:56:04.385Z</time></trkpt><trkpt lat="40.578545" lon="8.1612883"><ele>31.333333333333336</ele><time>2026-03-28T11:56:05.386Z</time></trkpt><trkpt lat="40.5783717" lon="8.16123"><ele>30.0</ele><time>2026-03-28T11:56:06.386Z</time></trkpt><trkpt lat="40.5781883" lon="8.1611633"><ele>30.0</ele><time>2026-03-28T11:56:07.386Z</time></trkpt><trkpt lat="40.5780133" lon="8.16109"><ele>30.0</ele><time>2026-03-28T11:56:08.386Z</time></trkpt><trkpt lat="40.5778417" lon="8.16102"><ele>30.0</ele><time>2026-03-28T11:56:09.386Z</time></trkpt><trkpt lat="40.5776783" lon="8.1609383"><ele>30.333333333333336</ele><time>2026-03-28T11:56:10.385Z</time></trkpt><trkpt lat="40.57752" lon="8.1608583"><ele>30.666666666666668</ele><time>2026-03-28T11:56:11.385Z</time></trkpt><trkpt lat="40.5773817" lon="8.16079"><ele>31.0</ele><time>2026-03-28T11:56:12.386Z</time></trkpt><trkpt lat="40.5772383" lon="8.1606833"><ele>31.0</ele><time>2026-03-28T11:56:13.386Z</time></trkpt><trkpt lat="40.5771217" lon="8.1605467"><ele>31.0</ele><time>2026-03-28T11:56:14.386Z</time></trkpt><trkpt lat="40.5770333" lon="8.1603867"><ele>31.0</ele><time>2026-03-28T11:56:15.385Z</time></trkpt><trkpt lat="40.5769717" lon="8.1602017"><ele>29.0</ele><time>2026-03-28T11:56:16.385Z</time></trkpt><trkpt lat="40.5769167" lon="8.1600017"><ele>27.0</ele><time>2026-03-28T11:56:17.386Z</time></trkpt><trkpt lat="40.5768683" lon="8.1597933"><ele>25.0</ele><time>2026-03-28T11:56:18.386Z</time></trkpt><trkpt lat="40.5768167" lon="8.1595633"><ele>25.0</ele><time>2026-03-28T11:56:19.386Z</time></trkpt><trkpt lat="40.5767667" lon="8.1593433"><ele>25.0</ele><time>2026-03-28T11:56:20.385Z</time></trkpt><trkpt lat="40.5767233" lon="8.1591517"><ele>25.0</ele><time>2026-03-28T11:56:21.386Z</time></trkpt><trkpt lat="40.5766783" lon="8.1589717"><ele>27.25</ele><time>2026-03-28T11:56:22.386Z</time></trkpt><trkpt lat="40.5766433" lon="8.1587983"><ele>29.5</ele><time>2026-03-28T11:56:23.385Z</time></trkpt><trkpt lat="40.5765983" lon="8.1586483"><ele>31.75</ele><time>2026-03-28T11:56:24.386Z</time></trkpt><trkpt lat="40.5765217" lon="8.158505"><ele>34.0</ele><time>2026-03-28T11:56:25.386Z</time></trkpt><trkpt lat="40.5764117" lon="8.15837"><ele>34.0</ele><time>2026-03-28T11:56:26.386Z</time></trkpt><trkpt lat="40.5763033" lon="8.1582367"><ele>34.0</ele><time>2026-03-28T11:56:27.386Z</time></trkpt><trkpt lat="40.5761833" lon="8.15812"><ele>34.0</ele><time>2026-03-28T11:56:28.386Z</time></trkpt><trkpt lat="40.576075" lon="8.1580133"><ele>34.0</ele><time>2026-03-28T11:56:29.386Z</time></trkpt><trkpt lat="40.57597" lon="8.1579467"><ele>30.75</ele><time>2026-03-28T11:56:30.385Z</time></trkpt><trkpt lat="40.5758617" lon="8.1579417"><ele>27.5</ele><time>2026-03-28T11:56:31.385Z</time></trkpt><trkpt lat="40.5757517" lon="8.1579933"><ele>24.25</ele><time>2026-03-28T11:56:32.386Z</time></trkpt><trkpt lat="40.5756133" lon="8.1580933"><ele>21.0</ele><time>2026-03-28T11:56:33.386Z</time></trkpt><trkpt lat="40.5754733" lon="8.158195"><ele>24.25</ele><time>2026-03-28T11:56:34.386Z</time></trkpt><trkpt lat="40.5753383" lon="8.1583033"><ele>27.5</ele><time>2026-03-28T11:56:35.386Z</time></trkpt><trkpt lat="40.5752233" lon="8.158395"><ele>30.75</ele><time>2026-03-28T11:56:36.386Z</time></trkpt><trkpt lat="40.575115" lon="8.158475"><ele>34.0</ele><time>2026-03-28T11:56:37.386Z</time></trkpt><trkpt lat="40.5750033" lon="8.1585517"><ele>34.0</ele><time>2026-03-28T11:56:38.385Z</time></trkpt><trkpt lat="40.5748883" lon="8.1586233"><ele>34.0</ele><time>2026-03-28T11:56:39.386Z</time></trkpt><trkpt lat="40.5747783" lon="8.1587033"><ele>34.0</ele><time>2026-03-28T11:56:40.386Z</time></trkpt><trkpt lat="40.57467" lon="8.1587667"><ele>34.0</ele><time>2026-03-28T11:56:41.386Z</time></trkpt><trkpt lat="40.5745717" lon="8.1588267"><ele>36.0</ele><time>2026-03-28T11:56:42.385Z</time></trkpt><trkpt lat="40.5744867" lon="8.15888"><ele>38.0</ele><time>2026-03-28T11:56:43.386Z</time></trkpt><trkpt lat="40.5744133" lon="8.1589383"><ele>40.0</ele><time>2026-03-28T11:56:44.386Z</time></trkpt><trkpt lat="40.574355" lon="8.159"><ele>42.0</ele><time>2026-03-28T11:56:45.385Z</time></trkpt><trkpt lat="40.574305" lon="8.1590667"><ele>44.0</ele><time>2026-03-28T11:56:46.386Z</time></trkpt><trkpt lat="40.5742333" lon="8.159135"><ele>46.0</ele><time>2026-03-28T11:56:48.385Z</time></trkpt><trkpt lat="40.57415" lon="8.1591617"><ele>46.0</ele><time>2026-03-28T12:03:39.385Z</time></trkpt><trkpt lat="40.574085" lon="8.1591783"><ele>46.0</ele><time>2026-03-28T12:03:40.386Z</time></trkpt><trkpt lat="40.5739933" lon="8.1592367"><ele>46.0</ele><time>2026-03-28T12:03:41.385Z</time></trkpt><trkpt lat="40.5738933" lon="8.15935"><ele>46.0</ele><time>2026-03-28T12:03:42.386Z</time></trkpt><trkpt lat="40.573825" lon="8.15951"><ele>46.0</ele><time>2026-03-28T12:03:43.386Z</time></trkpt><trkpt lat="40.5737667" lon="8.159695"><ele>45.0</ele><time>2026-03-28T12:03:44.386Z</time></trkpt><trkpt lat="40.57373" lon="8.1599067"><ele>44.0</ele><time>2026-03-28T12:03:45.386Z</time></trkpt><trkpt lat="40.5736867" lon="8.1601117"><ele>43.0</ele><time>2026-03-28T12:03:46.386Z</time></trkpt><trkpt lat="40.5736517" lon="8.1603117"><ele>46.25</ele><time>2026-03-28T12:03:47.385Z</time></trkpt><trkpt lat="40.573615" lon="8.16051"><ele>49.5</ele><time>2026-03-28T12:03:48.386Z</time></trkpt><trkpt lat="40.5735833" lon="8.16069"><ele>52.75</ele><time>2026-03-28T12:03:49.386Z</time></trkpt><trkpt lat="40.57355" lon="8.1608333"><ele>56.0</ele><time>2026-03-28T12:03:50.386Z</time></trkpt><trkpt lat="40.5735233" lon="8.1609367"><ele>56.199999999999996</ele><time>2026-03-28T12:03:51.385Z</time></trkpt><trkpt lat="40.5735" lon="8.1610333"><ele>56.39999999999999</ele><time>2026-03-28T12:03:52.385Z</time></trkpt><trkpt lat="40.5734683" lon="8.1611233"><ele>56.6</ele><time>2026-03-28T12:03:53.386Z</time></trkpt><trkpt lat="40.5734183" lon="8.161215"><ele>56.8</ele><time>2026-03-28T12:03:54.386Z</time></trkpt><trkpt lat="40.5733483" lon="8.1613317"><ele>57.0</ele><time>2026-03-28T12:03:55.386Z</time></trkpt><trkpt lat="40.5732733" lon="8.16146"><ele>55.66666666666667</ele><time>2026-03-28T12:03:56.386Z</time></trkpt><trkpt lat="40.5731917" lon="8.1616067"><ele>54.333333333333336</ele><time>2026-03-28T12:03:57.386Z</time></trkpt><trkpt lat="40.5730867" lon="8.16175"><ele>53.0</ele><time>2026-03-28T12:03:58.385Z</time></trkpt><trkpt lat="40.5729667" lon="8.1619133"><ele>55.66666666666667</ele><time>2026-03-28T12:03:59.385Z</time></trkpt><trkpt lat="40.5728333" lon="8.1620867"><ele>58.33333333333333</ele><time>2026-03-28T12:04:00.386Z</time></trkpt><trkpt lat="40.5727" lon="8.16225"><ele>61.0</ele><time>2026-03-28T12:04:01.385Z</time></trkpt><trkpt lat="40.5725583" lon="8.1624133"><ele>61.0</ele><time>2026-03-28T12:04:02.386Z</time></trkpt><trkpt lat="40.5724067" lon="8.1625667"><ele>61.0</ele><time>2026-03-28T12:04:03.386Z</time></trkpt><trkpt lat="40.57227" lon="8.1627067"><ele>61.0</ele><time>2026-03-28T12:04:04.385Z</time></trkpt><trkpt lat="40.5721383" lon="8.1628317"><ele>61.0</ele><time>2026-03-28T12:04:05.386Z</time></trkpt><trkpt lat="40.5720267" lon="8.1629667"><ele>61.0</ele><time>2026-03-28T12:04:06.386Z</time></trkpt><trkpt lat="40.5719067" lon="8.1630583"><ele>61.0</ele><time>2026-03-28T12:04:07.385Z</time></trkpt><trkpt lat="40.5717917" lon="8.1630933"><ele>61.0</ele><time>2026-03-28T12:04:08.386Z</time></trkpt><trkpt lat="40.5716667" lon="8.1630983"><ele>66.66666666666666</ele><time>2026-03-28T12:04:09.386Z</time></trkpt><trkpt lat="40.5715217" lon="8.1630733"><ele>72.33333333333333</ele><time>2026-03-28T12:04:10.386Z</time></trkpt><trkpt lat="40.57136" lon="8.1630117"><ele>78.0</ele><time>2026-03-28T12:04:11.386Z</time></trkpt><trkpt lat="40.5711867" lon="8.1629367"><ele>79.0</ele><time>2026-03-28T12:04:12.386Z</time></trkpt><trkpt lat="40.5710033" lon="8.1628433"><ele>80.0</ele><time>2026-03-28T12:04:13.386Z</time></trkpt><trkpt lat="40.57084" lon="8.1627533"><ele>81.0</ele><time>2026-03-28T12:04:14.386Z</time></trkpt><trkpt lat="40.5706783" lon="8.16266"><ele>81.0</ele><time>2026-03-28T12:04:15.386Z</time></trkpt><trkpt lat="40.570525" lon="8.162585"><ele>81.0</ele><time>2026-03-28T12:04:16.386Z</time></trkpt><trkpt lat="40.5703783" lon="8.1625533"><ele>81.0</ele><time>2026-03-28T12:04:17.386Z</time></trkpt><trkpt lat="40.5702233" lon="8.16258"><ele>84.0</ele><time>2026-03-28T12:04:18.386Z</time></trkpt><trkpt lat="40.5700617" lon="8.1626633"><ele>87.0</ele><time>2026-03-28T12:04:19.386Z</time></trkpt><trkpt lat="40.5698783" lon="8.1627683"><ele>90.0</ele><time>2026-03-28T12:04:20.385Z</time></trkpt><trkpt lat="40.56969" lon="8.1628867"><ele>97.33333333333334</ele><time>2026-03-28T12:04:21.386Z</time></trkpt><trkpt lat="40.5695067" lon="8.1629933"><ele>104.66666666666667</ele><time>2026-03-28T12:04:22.386Z</time></trkpt><trkpt lat="40.5693183" lon="8.163095"><ele>112.0</ele><time>2026-03-28T12:04:23.386Z</time></trkpt><trkpt lat="40.5691233" lon="8.1631917"><ele>108.66666666666667</ele><time>2026-03-28T12:04:24.386Z</time></trkpt><trkpt lat="40.5689067" lon="8.16328"><ele>105.33333333333334</ele><time>2026-03-28T12:04:25.386Z</time></trkpt><trkpt lat="40.5687033" lon="8.16336"><ele>102.0</ele><time>2026-03-28T12:04:26.386Z</time></trkpt><trkpt lat="40.56849" lon="8.1634517"><ele>102.0</ele><time>2026-03-28T12:04:27.385Z</time></trkpt><trkpt lat="40.568285" lon="8.1635483"><ele>102.0</ele><time>2026-03-28T12:04:28.386Z</time></trkpt><trkpt lat="40.5680767" lon="8.1636383"><ele>102.0</ele><time>2026-03-28T12:04:29.386Z</time></trkpt><trkpt lat="40.5678817" lon="8.1636917"><ele>107.66666666666666</ele><time>2026-03-28T12:04:30.386Z</time></trkpt><trkpt lat="40.56769" lon="8.1637667"><ele>113.33333333333333</ele><time>2026-03-28T12:04:31.385Z</time></trkpt><trkpt lat="40.5675033" lon="8.1638283"><ele>119.0</ele><time>2026-03-28T12:04:32.386Z</time></trkpt><trkpt lat="40.5673067" lon="8.1638967"><ele>119.0</ele><time>2026-03-28T12:04:33.385Z</time></trkpt><trkpt lat="40.5671083" lon="8.1639433"><ele>119.0</ele><time>2026-03-28T12:04:34.386Z</time></trkpt><trkpt lat="40.56693" lon="8.1639533"><ele>119.0</ele><time>2026-03-28T12:04:35.386Z</time></trkpt><trkpt lat="40.5667733" lon="8.163935"><ele>120.75</ele><time>2026-03-28T12:04:36.386Z</time></trkpt><trkpt lat="40.566635" lon="8.1639233"><ele>122.5</ele><time>2026-03-28T12:04:37.386Z</time></trkpt><trkpt lat="40.5665033" lon="8.16392"><ele>124.25</ele><time>2026-03-28T12:04:38.386Z</time></trkpt><trkpt lat="40.5663783" lon="8.1639533"><ele>126.0</ele><time>2026-03-28T12:04:39.386Z</time></trkpt><trkpt lat="40.5662667" lon="8.1640767"><ele>126.0</ele><time>2026-03-28T12:04:40.386Z</time></trkpt><trkpt lat="40.56616" lon="8.1642117"><ele>126.0</ele><time>2026-03-28T12:04:41.386Z</time></trkpt><trkpt lat="40.56604" lon="8.1643417"><ele>126.0</ele><time>2026-03-28T12:04:42.386Z</time></trkpt><trkpt lat="40.5658983" lon="8.16444"><ele>126.0</ele><time>2026-03-28T12:04:43.386Z</time></trkpt><trkpt lat="40.5657467" lon="8.1645"><ele>126.0</ele><time>2026-03-28T12:04:44.385Z</time></trkpt><trkpt lat="40.565595" lon="8.164525"><ele>126.0</ele><time>2026-03-28T12:04:45.385Z</time></trkpt><trkpt lat="40.56545" lon="8.1645383"><ele>126.0</ele><time>2026-03-28T12:04:46.386Z</time></trkpt><trkpt lat="40.565305" lon="8.1645217"><ele>126.0</ele><time>2026-03-28T12:04:47.386Z</time></trkpt><trkpt lat="40.5651717" lon="8.164495"><ele>126.0</ele><time>2026-03-28T12:04:48.386Z</time></trkpt><trkpt lat="40.5650433" lon="8.16446"><ele>126.0</ele><time>2026-03-28T12:04:49.386Z</time></trkpt><trkpt lat="40.564935" lon="8.1644283"><ele>126.0</ele><time>2026-03-28T12:04:50.386Z</time></trkpt><trkpt lat="40.5648267" lon="8.164405"><ele>126.0</ele><time>2026-03-28T12:04:51.386Z</time></trkpt><trkpt lat="40.5647217" lon="8.164395"><ele>126.0</ele><time>2026-03-28T12:04:52.385Z</time></trkpt><trkpt lat="40.5646233" lon="8.164385"><ele>126.0</ele><time>2026-03-28T12:04:53.386Z</time></trkpt><trkpt lat="40.5645383" lon="8.1643817"><ele>126.0</ele><time>2026-03-28T12:04:54.385Z</time></trkpt><trkpt lat="40.5644617" lon="8.1643683"><ele>126.0</ele><time>2026-03-28T12:04:55.386Z</time></trkpt><trkpt lat="40.56439" lon="8.164355"><ele>126.0</ele><time>2026-03-28T12:04:56.385Z</time></trkpt><trkpt lat="40.5643267" lon="8.16433"><ele>126.0</ele><time>2026-03-28T12:04:57.386Z</time></trkpt><trkpt lat="40.564265" lon="8.1642917"><ele>126.0</ele><time>2026-03-28T12:04:58.386Z</time></trkpt><trkpt lat="40.5642133" lon="8.1642433"><ele>126.0</ele><time>2026-03-28T12:04:59.385Z</time></trkpt><trkpt lat="40.5641083" lon="8.1641567"><ele>126.0</ele><time>2026-03-28T12:05:01.386Z</time></trkpt><trkpt lat="40.5640133" lon="8.1640683"><ele>126.0</ele><time>2026-03-28T12:05:03.386Z</time></trkpt><trkpt lat="40.563935" lon="8.1639733"><ele>126.0</ele><time>2026-03-28T12:05:05.385Z</time></trkpt><trkpt lat="40.5638683" lon="8.1638733"><ele>126.0</ele><time>2026-03-28T12:05:07.386Z</time></trkpt><trkpt lat="40.56379" lon="8.1637817"><ele>126.0</ele><time>2026-03-28T12:05:09.386Z</time></trkpt><trkpt lat="40.563705" lon="8.1636767"><ele>126.0</ele><time>2026-03-28T12:05:11.386Z</time></trkpt><trkpt lat="40.563625" lon="8.16358"><ele>126.0</ele><time>2026-03-28T12:05:13.386Z</time></trkpt><trkpt lat="40.5635633" lon="8.1634633"><ele>126.0</ele><time>2026-03-28T12:05:15.386Z</time></trkpt><trkpt lat="40.56352" lon="8.1633567"><ele>126.0</ele><time>2026-03-28T12:05:17.386Z</time></trkpt><trkpt lat="40.5634933" lon="8.163255"><ele>126.0</ele><time>2026-03-28T12:05:19.386Z</time></trkpt><trkpt lat="40.5634417" lon="8.16317"><ele>126.0</ele><time>2026-03-28T12:05:21.386Z</time></trkpt><trkpt lat="40.5633717" lon="8.1631667"><ele>126.0</ele><time>2026-03-28T12:05:23.386Z</time></trkpt><trkpt lat="40.5633183" lon="8.1632317"><ele>126.0</ele><time>2026-03-28T12:05:25.386Z</time></trkpt><trkpt lat="40.5632783" lon="8.1633183"><ele>126.0</ele><time>2026-03-28T12:05:28.385Z</time></trkpt><trkpt lat="40.563185" lon="8.163325"><ele>126.0</ele><time>2026-03-28T12:05:31.386Z</time></trkpt><trkpt lat="40.5631267" lon="8.1632867"><ele>126.0</ele><time>2026-03-28T12:05:33.386Z</time></trkpt><trkpt lat="40.56323" lon="8.1633467"><ele>126.0</ele><time>2026-03-28T12:05:50.386Z</time></trkpt><trkpt lat="40.5633133" lon="8.1633483"><ele>126.0</ele><time>2026-03-28T12:05:51.386Z</time></trkpt><trkpt lat="40.5633917" lon="8.1633583"><ele>126.0</ele><time>2026-03-28T12:05:52.386Z</time></trkpt><trkpt lat="40.563505" lon="8.16342"><ele>126.0</ele><time>2026-03-28T12:05:54.386Z</time></trkpt><trkpt lat="40.5635467" lon="8.1634833"><ele>126.0</ele><time>2026-03-28T12:05:55.386Z</time></trkpt><trkpt lat="40.5635867" lon="8.163555"><ele>126.0</ele><time>2026-03-28T12:05:56.385Z</time></trkpt><trkpt lat="40.5636267" lon="8.163625"><ele>126.0</ele><time>2026-03-28T12:05:57.385Z</time></trkpt><trkpt lat="40.5636783" lon="8.163705"><ele>126.0</ele><time>2026-03-28T12:05:58.386Z</time></trkpt><trkpt lat="40.563735" lon="8.1637883"><ele>126.0</ele><time>2026-03-28T12:05:59.385Z</time></trkpt><trkpt lat="40.5638033" lon="8.1638667"><ele>126.0</ele><time>2026-03-28T12:06:00.386Z</time></trkpt><trkpt lat="40.5638717" lon="8.1639533"><ele>126.0</ele><time>2026-03-28T12:06:01.386Z</time></trkpt><trkpt lat="40.5639383" lon="8.1640267"><ele>126.0</ele><time>2026-03-28T12:06:02.386Z</time></trkpt><trkpt lat="40.5640033" lon="8.1641067"><ele>126.0</ele><time>2026-03-28T12:06:03.386Z</time></trkpt><trkpt lat="40.56407" lon="8.1641817"><ele>126.0</ele><time>2026-03-28T12:06:04.385Z</time></trkpt><trkpt lat="40.564145" lon="8.1642533"><ele>126.0</ele><time>2026-03-28T12:06:05.385Z</time></trkpt><trkpt lat="40.564225" lon="8.1643117"><ele>126.0</ele><time>2026-03-28T12:06:06.386Z</time></trkpt><trkpt lat="40.5643017" lon="8.1643767"><ele>126.0</ele><time>2026-03-28T12:06:07.385Z</time></trkpt><trkpt lat="40.5643833" lon="8.1644083"><ele>126.0</ele><time>2026-03-28T12:06:08.385Z</time></trkpt><trkpt lat="40.5644733" lon="8.1644217"><ele>126.0</ele><time>2026-03-28T12:06:09.386Z</time></trkpt><trkpt lat="40.5645833" lon="8.16442"><ele>126.0</ele><time>2026-03-28T12:06:10.386Z</time></trkpt><trkpt lat="40.5646933" lon="8.1644233"><ele>126.0</ele><time>2026-03-28T12:06:11.386Z</time></trkpt><trkpt lat="40.564795" lon="8.1644217"><ele>126.0</ele><time>2026-03-28T12:06:12.385Z</time></trkpt><trkpt lat="40.564905" lon="8.1644533"><ele>126.0</ele><time>2026-03-28T12:06:13.386Z</time></trkpt><trkpt lat="40.56501" lon="8.1644817"><ele>126.0</ele><time>2026-03-28T12:06:14.386Z</time></trkpt><trkpt lat="40.5650933" lon="8.1645133"><ele>126.0</ele><time>2026-03-28T12:06:15.385Z</time></trkpt><trkpt lat="40.56516" lon="8.164545"><ele>126.0</ele><time>2026-03-28T12:06:16.386Z</time></trkpt><trkpt lat="40.5652283" lon="8.1645667"><ele>126.0</ele><time>2026-03-28T12:06:17.386Z</time></trkpt><trkpt lat="40.565295" lon="8.1645783"><ele>126.0</ele><time>2026-03-28T12:06:18.386Z</time></trkpt><trkpt lat="40.5653683" lon="8.16459"><ele>126.0</ele><time>2026-03-28T12:06:19.386Z</time></trkpt><trkpt lat="40.5654333" lon="8.1645883"><ele>126.0</ele><time>2026-03-28T12:06:20.385Z</time></trkpt><trkpt lat="40.5655017" lon="8.1645867"><ele>126.0</ele><time>2026-03-28T12:06:21.386Z</time></trkpt><trkpt lat="40.565575" lon="8.1645833"><ele>126.0</ele><time>2026-03-28T12:06:22.386Z</time></trkpt><trkpt lat="40.5656633" lon="8.1645633"><ele>126.0</ele><time>2026-03-28T12:06:23.386Z</time></trkpt><trkpt lat="40.5657583" lon="8.16454"><ele>126.0</ele><time>2026-03-28T12:06:24.386Z</time></trkpt><trkpt lat="40.5658467" lon="8.16451"><ele>126.0</ele><time>2026-03-28T12:06:25.386Z</time></trkpt><trkpt lat="40.5659417" lon="8.1644733"><ele>126.0</ele><time>2026-03-28T12:06:26.386Z</time></trkpt><trkpt lat="40.5660283" lon="8.164425"><ele>126.0</ele><time>2026-03-28T12:06:27.385Z</time></trkpt><trkpt lat="40.56611" lon="8.164355"><ele>126.0</ele><time>2026-03-28T12:06:28.385Z</time></trkpt><trkpt lat="40.5661817" lon="8.1642683"><ele>126.0</ele><time>2026-03-28T12:06:29.385Z</time></trkpt><trkpt lat="40.56625" lon="8.1641733"><ele>126.0</ele><time>2026-03-28T12:06:30.386Z</time></trkpt><trkpt lat="40.5663283" lon="8.164085"><ele>126.0</ele><time>2026-03-28T12:06:31.386Z</time></trkpt><trkpt lat="40.5663967" lon="8.1639933"><ele>126.0</ele><time>2026-03-28T12:06:32.386Z</time></trkpt><trkpt lat="40.5664783" lon="8.16393"><ele>126.0</ele><time>2026-03-28T12:06:33.385Z</time></trkpt><trkpt lat="40.5665783" lon="8.1639117"><ele>126.0</ele><time>2026-03-28T12:06:34.386Z</time></trkpt><trkpt lat="40.5666833" lon="8.1639167"><ele>126.0</ele><time>2026-03-28T12:06:35.386Z</time></trkpt><trkpt lat="40.5667867" lon="8.1639383"><ele>126.0</ele><time>2026-03-28T12:06:36.385Z</time></trkpt><trkpt lat="40.5668883" lon="8.1639517"><ele>126.0</ele><time>2026-03-28T12:06:37.385Z</time></trkpt><trkpt lat="40.56699" lon="8.1639583"><ele>126.0</ele><time>2026-03-28T12:06:38.386Z</time></trkpt><trkpt lat="40.5670867" lon="8.16395"><ele>126.0</ele><time>2026-03-28T12:06:39.386Z</time></trkpt><trkpt lat="40.5671917" lon="8.1639483"><ele>126.0</ele><time>2026-03-28T12:06:40.386Z</time></trkpt><trkpt lat="40.567305" lon="8.1639367"><ele>126.0</ele><time>2026-03-28T12:06:41.386Z</time></trkpt><trkpt lat="40.567435" lon="8.16391"><ele>124.25</ele><time>2026-03-28T12:06:42.385Z</time></trkpt><trkpt lat="40.567555" lon="8.16388"><ele>122.5</ele><time>2026-03-28T12:06:43.386Z</time></trkpt><trkpt lat="40.5676817" lon="8.1638217"><ele>120.75</ele><time>2026-03-28T12:06:44.386Z</time></trkpt><trkpt lat="40.567805" lon="8.16377"><ele>119.0</ele><time>2026-03-28T12:06:45.385Z</time></trkpt><trkpt lat="40.5679217" lon="8.1637183"><ele>114.75</ele><time>2026-03-28T12:06:46.385Z</time></trkpt><trkpt lat="40.5680533" lon="8.1636733"><ele>110.5</ele><time>2026-03-28T12:06:47.386Z</time></trkpt><trkpt lat="40.56817" lon="8.1636317"><ele>106.25</ele><time>2026-03-28T12:06:48.386Z</time></trkpt><trkpt lat="40.5682917" lon="8.1635717"><ele>102.0</ele><time>2026-03-28T12:06:49.386Z</time></trkpt><trkpt lat="40.568405" lon="8.163525"><ele>102.0</ele><time>2026-03-28T12:06:50.386Z</time></trkpt><trkpt lat="40.5685183" lon="8.1634783"><ele>102.0</ele><time>2026-03-28T12:06:51.386Z</time></trkpt><trkpt lat="40.5686283" lon="8.16343"><ele>102.0</ele><time>2026-03-28T12:06:52.386Z</time></trkpt><trkpt lat="40.5687317" lon="8.1633733"><ele>102.0</ele><time>2026-03-28T12:06:53.385Z</time></trkpt><trkpt lat="40.5688367" lon="8.1633317"><ele>104.0</ele><time>2026-03-28T12:06:54.385Z</time></trkpt><trkpt lat="40.56894" lon="8.1632883"><ele>106.0</ele><time>2026-03-28T12:06:55.386Z</time></trkpt><trkpt lat="40.5690383" lon="8.1632583"><ele>107.99999999999999</ele><time>2026-03-28T12:06:56.386Z</time></trkpt><trkpt lat="40.5691333" lon="8.1632167"><ele>110.0</ele><time>2026-03-28T12:06:57.386Z</time></trkpt><trkpt lat="40.5692233" lon="8.1631917"><ele>112.0</ele><time>2026-03-28T12:06:58.386Z</time></trkpt><trkpt lat="40.569315" lon="8.1631683"><ele>112.0</ele><time>2026-03-28T12:06:59.385Z</time></trkpt><trkpt lat="40.56941" lon="8.1631283"><ele>111.99999999999999</ele><time>2026-03-28T12:07:00.386Z</time></trkpt><trkpt lat="40.5695067" lon="8.16309"><ele>111.99999999999999</ele><time>2026-03-28T12:07:01.386Z</time></trkpt><trkpt lat="40.569605" lon="8.16305"><ele>112.0</ele><time>2026-03-28T12:07:02.386Z</time></trkpt><trkpt lat="40.5697067" lon="8.1629967"><ele>112.0</ele><time>2026-03-28T12:07:03.386Z</time></trkpt><trkpt lat="40.569805" lon="8.1629517"><ele>106.5</ele><time>2026-03-28T12:07:04.386Z</time></trkpt><trkpt lat="40.569905" lon="8.1628983"><ele>101.0</ele><time>2026-03-28T12:07:05.386Z</time></trkpt><trkpt lat="40.5700133" lon="8.162845"><ele>95.5</ele><time>2026-03-28T12:07:06.385Z</time></trkpt><trkpt lat="40.570115" lon="8.1627883"><ele>90.0</ele><time>2026-03-28T12:07:07.386Z</time></trkpt><trkpt lat="40.5702217" lon="8.1627267"><ele>90.0</ele><time>2026-03-28T12:07:08.386Z</time></trkpt><trkpt lat="40.5703167" lon="8.1626567"><ele>90.0</ele><time>2026-03-28T12:07:09.385Z</time></trkpt><trkpt lat="40.5704183" lon="8.1626167"><ele>90.0</ele><time>2026-03-28T12:07:10.386Z</time></trkpt><trkpt lat="40.5705283" lon="8.162615"><ele>90.0</ele><time>2026-03-28T12:07:11.386Z</time></trkpt><trkpt lat="40.5706283" lon="8.1626383"><ele>90.0</ele><time>2026-03-28T12:07:12.386Z</time></trkpt><trkpt lat="40.570725" lon="8.1626917"><ele>87.75</ele><time>2026-03-28T12:07:13.386Z</time></trkpt><trkpt lat="40.5708167" lon="8.1627567"><ele>85.5</ele><time>2026-03-28T12:07:14.386Z</time></trkpt><trkpt lat="40.570925" lon="8.1628233"><ele>83.25</ele><time>2026-03-28T12:07:15.385Z</time></trkpt><trkpt lat="40.5710367" lon="8.1628817"><ele>81.0</ele><time>2026-03-28T12:07:16.386Z</time></trkpt><trkpt lat="40.5711483" lon="8.16293"><ele>80.39999999999999</ele><time>2026-03-28T12:07:17.386Z</time></trkpt><trkpt lat="40.5712617" lon="8.16297"><ele>79.8</ele><time>2026-03-28T12:07:18.386Z</time></trkpt><trkpt lat="40.5713683" lon="8.16302"><ele>79.19999999999999</ele><time>2026-03-28T12:07:19.385Z</time></trkpt><trkpt lat="40.5714783" lon="8.1630617"><ele>78.6</ele><time>2026-03-28T12:07:20.386Z</time></trkpt><trkpt lat="40.57158" lon="8.1630883"><ele>78.0</ele><time>2026-03-28T12:07:21.385Z</time></trkpt><trkpt lat="40.571695" lon="8.1631067"><ele>78.0</ele><time>2026-03-28T12:07:22.386Z</time></trkpt><trkpt lat="40.5718017" lon="8.163115"><ele>78.0</ele><time>2026-03-28T12:07:23.386Z</time></trkpt><trkpt lat="40.5719067" lon="8.1630983"><ele>78.0</ele><time>2026-03-28T12:07:24.386Z</time></trkpt><trkpt lat="40.5719983" lon="8.1630583"><ele>78.0</ele><time>2026-03-28T12:07:25.386Z</time></trkpt><trkpt lat="40.572095" lon="8.1629767"><ele>78.0</ele><time>2026-03-28T12:07:26.385Z</time></trkpt><trkpt lat="40.572185" lon="8.1628883"><ele>73.75</ele><time>2026-03-28T12:07:27.386Z</time></trkpt><trkpt lat="40.572275" lon="8.1627967"><ele>69.5</ele><time>2026-03-28T12:07:28.385Z</time></trkpt><trkpt lat="40.5723683" lon="8.1626983"><ele>65.25</ele><time>2026-03-28T12:07:29.385Z</time></trkpt><trkpt lat="40.572465" lon="8.1625967"><ele>61.0</ele><time>2026-03-28T12:07:30.386Z</time></trkpt><trkpt lat="40.572555" lon="8.16249"><ele>61.0</ele><time>2026-03-28T12:07:31.386Z</time></trkpt><trkpt lat="40.572645" lon="8.1623933"><ele>61.0</ele><time>2026-03-28T12:07:32.386Z</time></trkpt><trkpt lat="40.5727467" lon="8.1622917"><ele>61.0</ele><time>2026-03-28T12:07:33.386Z</time></trkpt><trkpt lat="40.5728433" lon="8.1621767"><ele>61.0</ele><time>2026-03-28T12:07:34.386Z</time></trkpt><trkpt lat="40.5729433" lon="8.1620733"><ele>59.0</ele><time>2026-03-28T12:07:35.386Z</time></trkpt><trkpt lat="40.5730383" lon="8.16197"><ele>57.0</ele><time>2026-03-28T12:07:36.386Z</time></trkpt><trkpt lat="40.5731267" lon="8.1618483"><ele>55.0</ele><time>2026-03-28T12:07:37.386Z</time></trkpt><trkpt lat="40.5732117" lon="8.1617"><ele>53.0</ele><time>2026-03-28T12:07:38.385Z</time></trkpt><trkpt lat="40.573295" lon="8.161555"><ele>54.0</ele><time>2026-03-28T12:07:39.386Z</time></trkpt><trkpt lat="40.5733767" lon="8.1613983"><ele>55.0</ele><time>2026-03-28T12:07:40.386Z</time></trkpt><trkpt lat="40.5734633" lon="8.1612567"><ele>56.0</ele><time>2026-03-28T12:07:41.386Z</time></trkpt><trkpt lat="40.5735517" lon="8.161105"><ele>57.0</ele><time>2026-03-28T12:07:42.386Z</time></trkpt><trkpt lat="40.5736383" lon="8.160955"><ele>53.5</ele><time>2026-03-28T12:07:43.386Z</time></trkpt><trkpt lat="40.5737183" lon="8.1608017"><ele>50.0</ele><time>2026-03-28T12:07:44.386Z</time></trkpt><trkpt lat="40.5737967" lon="8.1606533"><ele>46.5</ele><time>2026-03-28T12:07:45.385Z</time></trkpt><trkpt lat="40.5738867" lon="8.1604933"><ele>43.0</ele><time>2026-03-28T12:07:46.386Z</time></trkpt><trkpt lat="40.57399" lon="8.1603533"><ele>43.0</ele><time>2026-03-28T12:07:47.386Z</time></trkpt><trkpt lat="40.5740917" lon="8.1602167"><ele>43.0</ele><time>2026-03-28T12:07:48.385Z</time></trkpt><trkpt lat="40.5742017" lon="8.1600767"><ele>43.0</ele><time>2026-03-28T12:07:49.386Z</time></trkpt><trkpt lat="40.5743217" lon="8.159955"><ele>44.0</ele><time>2026-03-28T12:07:50.385Z</time></trkpt><trkpt lat="40.5744567" lon="8.1598483"><ele>45.0</ele><time>2026-03-28T12:07:51.386Z</time></trkpt><trkpt lat="40.57459" lon="8.1597383"><ele>46.0</ele><time>2026-03-28T12:07:52.386Z</time></trkpt><trkpt lat="40.5747117" lon="8.15964"><ele>43.333333333333336</ele><time>2026-03-28T12:07:53.386Z</time></trkpt><trkpt lat="40.5748467" lon="8.1595383"><ele>40.666666666666664</ele><time>2026-03-28T12:07:54.385Z</time></trkpt><trkpt lat="40.5749783" lon="8.1594267"><ele>38.0</ele><time>2026-03-28T12:07:55.386Z</time></trkpt><trkpt lat="40.5751033" lon="8.1593117"><ele>38.0</ele><time>2026-03-28T12:07:56.386Z</time></trkpt><trkpt lat="40.5752267" lon="8.1592083"><ele>38.0</ele><time>2026-03-28T12:07:57.385Z</time></trkpt><trkpt lat="40.575335" lon="8.1591"><ele>38.0</ele><time>2026-03-28T12:07:58.386Z</time></trkpt><trkpt lat="40.5754417" lon="8.158995"><ele>38.0</ele><time>2026-03-28T12:07:59.386Z</time></trkpt><trkpt lat="40.575555" lon="8.1588983"><ele>35.5</ele><time>2026-03-28T12:08:00.386Z</time></trkpt><trkpt lat="40.5756767" lon="8.1587983"><ele>33.0</ele><time>2026-03-28T12:08:01.386Z</time></trkpt><trkpt lat="40.575805" lon="8.158725"><ele>30.5</ele><time>2026-03-28T12:08:02.386Z</time></trkpt><trkpt lat="40.57593" lon="8.1587033"><ele>28.0</ele><time>2026-03-28T12:08:03.386Z</time></trkpt><trkpt lat="40.576065" lon="8.1587233"><ele>27.25</ele><time>2026-03-28T12:08:04.386Z</time></trkpt><trkpt lat="40.5762033" lon="8.15879"><ele>26.5</ele><time>2026-03-28T12:08:05.386Z</time></trkpt><trkpt lat="40.5763283" lon="8.1588833"><ele>25.75</ele><time>2026-03-28T12:08:06.385Z</time></trkpt><trkpt lat="40.5764517" lon="8.1590017"><ele>25.0</ele><time>2026-03-28T12:08:07.385Z</time></trkpt><trkpt lat="40.5765833" lon="8.1591233"><ele>25.0</ele><time>2026-03-28T12:08:08.386Z</time></trkpt><trkpt lat="40.5766917" lon="8.1592633"><ele>25.0</ele><time>2026-03-28T12:08:09.386Z</time></trkpt><trkpt lat="40.5767817" lon="8.159415"><ele>25.0</ele><time>2026-03-28T12:08:10.386Z</time></trkpt><trkpt lat="40.576855" lon="8.1596067"><ele>25.0</ele><time>2026-03-28T12:08:11.386Z</time></trkpt><trkpt lat="40.5769167" lon="8.1598"><ele>25.0</ele><time>2026-03-28T12:08:12.386Z</time></trkpt><trkpt lat="40.5769783" lon="8.1600217"><ele>25.0</ele><time>2026-03-28T12:08:13.386Z</time></trkpt><trkpt lat="40.57703" lon="8.1602383"><ele>25.0</ele><time>2026-03-28T12:08:14.386Z</time></trkpt><trkpt lat="40.5770867" lon="8.1604367"><ele>25.0</ele><time>2026-03-28T12:08:15.386Z</time></trkpt><trkpt lat="40.577155" lon="8.1605967"><ele>25.0</ele><time>2026-03-28T12:08:16.386Z</time></trkpt><trkpt lat="40.577265" lon="8.1607567"><ele>25.0</ele><time>2026-03-28T12:08:17.386Z</time></trkpt><trkpt lat="40.5773933" lon="8.1608617"><ele>25.0</ele><time>2026-03-28T12:08:18.386Z</time></trkpt><trkpt lat="40.5775417" lon="8.16093"><ele>25.0</ele><time>2026-03-28T12:08:19.386Z</time></trkpt><trkpt lat="40.5777017" lon="8.1609933"><ele>26.666666666666668</ele><time>2026-03-28T12:08:20.385Z</time></trkpt><trkpt lat="40.5778717" lon="8.16106"><ele>28.333333333333336</ele><time>2026-03-28T12:08:21.386Z</time></trkpt><trkpt lat="40.5780433" lon="8.1611183"><ele>30.0</ele><time>2026-03-28T12:08:22.386Z</time></trkpt><trkpt lat="40.5782117" lon="8.1611833"><ele>30.0</ele><time>2026-03-28T12:08:23.386Z</time></trkpt><trkpt lat="40.5783867" lon="8.1612383"><ele>30.0</ele><time>2026-03-28T12:08:24.385Z</time></trkpt><trkpt lat="40.57856" lon="8.161285"><ele>30.0</ele><time>2026-03-28T12:08:25.386Z</time></trkpt><trkpt lat="40.5787433" lon="8.1613183"><ele>31.333333333333336</ele><time>2026-03-28T12:08:26.385Z</time></trkpt><trkpt lat="40.57894" lon="8.1613767"><ele>32.66666666666667</ele><time>2026-03-28T12:08:27.386Z</time></trkpt><trkpt lat="40.5791217" lon="8.1614183"><ele>34.0</ele><time>2026-03-28T12:08:28.385Z</time></trkpt><trkpt lat="40.5793133" lon="8.161445"><ele>34.0</ele><time>2026-03-28T12:08:29.386Z</time></trkpt><trkpt lat="40.5795067" lon="8.1614667"><ele>34.0</ele><time>2026-03-28T12:08:30.386Z</time></trkpt><trkpt lat="40.579695" lon="8.1614833"><ele>34.0</ele><time>2026-03-28T12:08:31.386Z</time></trkpt><trkpt lat="40.579885" lon="8.1615033"><ele>32.0</ele><time>2026-03-28T12:08:32.385Z</time></trkpt><trkpt lat="40.5800917" lon="8.1615333"><ele>30.0</ele><time>2026-03-28T12:08:33.386Z</time></trkpt><trkpt lat="40.58029" lon="8.1615567"><ele>28.0</ele><time>2026-03-28T12:08:34.386Z</time></trkpt><trkpt lat="40.580485" lon="8.1615733"><ele>27.333333333333336</ele><time>2026-03-28T12:08:35.386Z</time></trkpt><trkpt lat="40.5806817" lon="8.1616017"><ele>26.666666666666664</ele><time>2026-03-28T12:08:36.386Z</time></trkpt><trkpt lat="40.580875" lon="8.16164"><ele>26.0</ele><time>2026-03-28T12:08:37.386Z</time></trkpt><trkpt lat="40.5810633" lon="8.1616733"><ele>26.666666666666664</ele><time>2026-03-28T12:08:38.386Z</time></trkpt><trkpt lat="40.58125" lon="8.1617133"><ele>27.333333333333336</ele><time>2026-03-28T12:08:39.386Z</time></trkpt><trkpt lat="40.5814233" lon="8.1617383"><ele>28.0</ele><time>2026-03-28T12:08:40.386Z</time></trkpt><trkpt lat="40.5816067" lon="8.161755"><ele>28.0</ele><time>2026-03-28T12:08:41.386Z</time></trkpt><trkpt lat="40.58179" lon="8.161775"><ele>28.0</ele><time>2026-03-28T12:08:42.386Z</time></trkpt><trkpt lat="40.581965" lon="8.161805"><ele>28.0</ele><time>2026-03-28T12:08:43.386Z</time></trkpt><trkpt lat="40.582145" lon="8.1618433"><ele>28.0</ele><time>2026-03-28T12:08:44.386Z</time></trkpt><trkpt lat="40.5823217" lon="8.1618817"><ele>28.0</ele><time>2026-03-28T12:08:45.386Z</time></trkpt><trkpt lat="40.5824983" lon="8.1619367"><ele>28.0</ele><time>2026-03-28T12:08:46.385Z</time></trkpt><trkpt lat="40.5826733" lon="8.1620117"><ele>28.0</ele><time>2026-03-28T12:08:47.386Z</time></trkpt><trkpt lat="40.5828467" lon="8.1620917"><ele>28.0</ele><time>2026-03-28T12:08:48.385Z</time></trkpt><trkpt lat="40.5830217" lon="8.1621483"><ele>28.0</ele><time>2026-03-28T12:08:49.385Z</time></trkpt><trkpt lat="40.5832017" lon="8.1622283"><ele>28.333333333333336</ele><time>2026-03-28T12:08:50.385Z</time></trkpt><trkpt lat="40.58338" lon="8.1622983"><ele>28.666666666666664</ele><time>2026-03-28T12:08:51.386Z</time></trkpt><trkpt lat="40.5835583" lon="8.1623683"><ele>29.0</ele><time>2026-03-28T12:08:52.386Z</time></trkpt><trkpt lat="40.5837317" lon="8.16244"><ele>27.333333333333332</ele><time>2026-03-28T12:08:53.385Z</time></trkpt><trkpt lat="40.5839017" lon="8.162505"><ele>25.666666666666664</ele><time>2026-03-28T12:08:54.385Z</time></trkpt><trkpt lat="40.5840733" lon="8.1625767"><ele>24.0</ele><time>2026-03-28T12:08:55.386Z</time></trkpt><trkpt lat="40.584255" lon="8.16264"><ele>24.0</ele><time>2026-03-28T12:08:56.386Z</time></trkpt><trkpt lat="40.5844267" lon="8.16274"><ele>24.0</ele><time>2026-03-28T12:08:57.386Z</time></trkpt><trkpt lat="40.5845833" lon="8.162865"><ele>24.0</ele><time>2026-03-28T12:08:58.385Z</time></trkpt><trkpt lat="40.5847367" lon="8.163"><ele>24.666666666666664</ele><time>2026-03-28T12:08:59.385Z</time></trkpt><trkpt lat="40.5848983" lon="8.1631583"><ele>25.333333333333332</ele><time>2026-03-28T12:09:00.385Z</time></trkpt><trkpt lat="40.58506" lon="8.1633033"><ele>26.0</ele><time>2026-03-28T12:09:01.386Z</time></trkpt><trkpt lat="40.5852233" lon="8.16344"><ele>25.666666666666664</ele><time>2026-03-28T12:09:02.386Z</time></trkpt><trkpt lat="40.5854017" lon="8.1635883"><ele>25.333333333333336</ele><time>2026-03-28T12:09:03.385Z</time></trkpt><trkpt lat="40.5855567" lon="8.16374"><ele>25.0</ele><time>2026-03-28T12:09:04.385Z</time></trkpt><trkpt lat="40.5857217" lon="8.163885"><ele>25.0</ele><time>2026-03-28T12:09:05.386Z</time></trkpt><trkpt lat="40.5858783" lon="8.1640083"><ele>25.0</ele><time>2026-03-28T12:09:06.386Z</time></trkpt><trkpt lat="40.5860183" lon="8.1641217"><ele>25.0</ele><time>2026-03-28T12:09:07.386Z</time></trkpt><trkpt lat="40.586145" lon="8.1642333"><ele>24.5</ele><time>2026-03-28T12:09:08.386Z</time></trkpt><trkpt lat="40.5862767" lon="8.164345"><ele>24.0</ele><time>2026-03-28T12:09:09.385Z</time></trkpt><trkpt lat="40.5863967" lon="8.1644467"><ele>23.5</ele><time>2026-03-28T12:09:10.386Z</time></trkpt><trkpt lat="40.5865017" lon="8.164525"><ele>23.0</ele><time>2026-03-28T12:09:11.386Z</time></trkpt><trkpt lat="40.58661" lon="8.16463"><ele>23.0</ele><time>2026-03-28T12:09:12.386Z</time></trkpt><trkpt lat="40.5867217" lon="8.1647183"><ele>23.0</ele><time>2026-03-28T12:09:13.386Z</time></trkpt><trkpt lat="40.5868317" lon="8.1648217"><ele>23.0</ele><time>2026-03-28T12:09:14.386Z</time></trkpt><trkpt lat="40.5869483" lon="8.16493"><ele>23.0</ele><time>2026-03-28T12:09:15.386Z</time></trkpt><trkpt lat="40.5870717" lon="8.1650333"><ele>22.5</ele><time>2026-03-28T12:09:16.386Z</time></trkpt><trkpt lat="40.5871967" lon="8.1651267"><ele>22.0</ele><time>2026-03-28T12:09:17.386Z</time></trkpt><trkpt lat="40.5873283" lon="8.1651933"><ele>21.5</ele><time>2026-03-28T12:09:18.386Z</time></trkpt><trkpt lat="40.5874717" lon="8.1652467"><ele>21.0</ele><time>2026-03-28T12:09:19.386Z</time></trkpt><trkpt lat="40.5876267" lon="8.1653017"><ele>21.0</ele><time>2026-03-28T12:09:20.386Z</time></trkpt><trkpt lat="40.587775" lon="8.16537"><ele>21.0</ele><time>2026-03-28T12:09:21.386Z</time></trkpt><trkpt lat="40.5879217" lon="8.16543"><ele>21.0</ele><time>2026-03-28T12:09:22.386Z</time></trkpt><trkpt lat="40.5880667" lon="8.1654983"><ele>21.25</ele><time>2026-03-28T12:09:23.386Z</time></trkpt><trkpt lat="40.5882083" lon="8.16554"><ele>21.5</ele><time>2026-03-28T12:09:24.386Z</time></trkpt><trkpt lat="40.5883433" lon="8.16556"><ele>21.75</ele><time>2026-03-28T12:09:25.386Z</time></trkpt><trkpt lat="40.5884867" lon="8.165575"><ele>22.0</ele><time>2026-03-28T12:09:26.385Z</time></trkpt><trkpt lat="40.588645" lon="8.1655767"><ele>22.0</ele><time>2026-03-28T12:09:27.386Z</time></trkpt><trkpt lat="40.588805" lon="8.1655733"><ele>22.0</ele><time>2026-03-28T12:09:28.386Z</time></trkpt><trkpt lat="40.58897" lon="8.16559"><ele>22.0</ele><time>2026-03-28T12:09:29.386Z</time></trkpt><trkpt lat="40.589125" lon="8.1655917"><ele>22.0</ele><time>2026-03-28T12:09:30.386Z</time></trkpt><trkpt lat="40.5892717" lon="8.165585"><ele>22.0</ele><time>2026-03-28T12:09:31.385Z</time></trkpt><trkpt lat="40.5894083" lon="8.1655883"><ele>22.0</ele><time>2026-03-28T12:09:32.386Z</time></trkpt><trkpt lat="40.5895433" lon="8.1655883"><ele>22.0</ele><time>2026-03-28T12:09:33.386Z</time></trkpt><trkpt lat="40.5896683" lon="8.16559"><ele>21.5</ele><time>2026-03-28T12:09:34.385Z</time></trkpt><trkpt lat="40.589795" lon="8.1655967"><ele>21.0</ele><time>2026-03-28T12:09:35.386Z</time></trkpt><trkpt lat="40.5899133" lon="8.1656"><ele>20.5</ele><time>2026-03-28T12:09:36.386Z</time></trkpt><trkpt lat="40.5900183" lon="8.1656017"><ele>20.0</ele><time>2026-03-28T12:09:37.386Z</time></trkpt><trkpt lat="40.5901183" lon="8.1655933"><ele>20.0</ele><time>2026-03-28T12:09:38.386Z</time></trkpt><trkpt lat="40.5902183" lon="8.1655917"><ele>20.0</ele><time>2026-03-28T12:09:39.386Z</time></trkpt><trkpt lat="40.5903133" lon="8.1655967"><ele>20.0</ele><time>2026-03-28T12:09:40.386Z</time></trkpt><trkpt lat="40.5904083" lon="8.1656033"><ele>20.0</ele><time>2026-03-28T12:09:41.385Z</time></trkpt><trkpt lat="40.5904983" lon="8.1656117"><ele>20.0</ele><time>2026-03-28T12:09:42.386Z</time></trkpt><trkpt lat="40.5905883" lon="8.1656117"><ele>19.8</ele><time>2026-03-28T12:09:43.386Z</time></trkpt><trkpt lat="40.59067" lon="8.16562"><ele>19.6</ele><time>2026-03-28T12:09:44.385Z</time></trkpt><trkpt lat="40.5907467" lon="8.165625"><ele>19.4</ele><time>2026-03-28T12:09:45.385Z</time></trkpt><trkpt lat="40.5908283" lon="8.1656217"><ele>19.2</ele><time>2026-03-28T12:09:46.385Z</time></trkpt><trkpt lat="40.5909383" lon="8.1656167"><ele>19.0</ele><time>2026-03-28T12:09:47.386Z</time></trkpt><trkpt lat="40.5910667" lon="8.165625"><ele>18.75</ele><time>2026-03-28T12:09:48.385Z</time></trkpt><trkpt lat="40.5912117" lon="8.1656333"><ele>18.5</ele><time>2026-03-28T12:09:49.385Z</time></trkpt><trkpt lat="40.5913567" lon="8.165645"><ele>18.25</ele><time>2026-03-28T12:09:50.386Z</time></trkpt><trkpt lat="40.59151" lon="8.165665"><ele>18.0</ele><time>2026-03-28T12:09:51.385Z</time></trkpt><trkpt lat="40.591665" lon="8.1656717"><ele>18.0</ele><time>2026-03-28T12:09:52.386Z</time></trkpt><trkpt lat="40.591825" lon="8.165675"><ele>18.0</ele><time>2026-03-28T12:09:53.386Z</time></trkpt><trkpt lat="40.5919867" lon="8.1656867"><ele>18.0</ele><time>2026-03-28T12:09:54.385Z</time></trkpt><trkpt lat="40.5921433" lon="8.16568"><ele>17.5</ele><time>2026-03-28T12:09:55.386Z</time></trkpt><trkpt lat="40.5922933" lon="8.1656817"><ele>17.0</ele><time>2026-03-28T12:09:56.385Z</time></trkpt><trkpt lat="40.5924283" lon="8.165675"><ele>16.5</ele><time>2026-03-28T12:09:57.386Z</time></trkpt><trkpt lat="40.5925567" lon="8.1656667"><ele>16.0</ele><time>2026-03-28T12:09:58.385Z</time></trkpt><trkpt lat="40.5926933" lon="8.1656633"><ele>16.0</ele><time>2026-03-28T12:09:59.386Z</time></trkpt><trkpt lat="40.59282" lon="8.1656633"><ele>16.0</ele><time>2026-03-28T12:10:00.386Z</time></trkpt><trkpt lat="40.5929433" lon="8.165665"><ele>16.0</ele><time>2026-03-28T12:10:01.386Z</time></trkpt><trkpt lat="40.5930667" lon="8.1656517"><ele>16.0</ele><time>2026-03-28T12:10:02.385Z</time></trkpt><trkpt lat="40.5931833" lon="8.165665"><ele>15.5</ele><time>2026-03-28T12:10:03.386Z</time></trkpt><trkpt lat="40.593295" lon="8.16568"><ele>15.0</ele><time>2026-03-28T12:10:04.385Z</time></trkpt><trkpt lat="40.593405" lon="8.1657567"><ele>14.5</ele><time>2026-03-28T12:10:05.386Z</time></trkpt><trkpt lat="40.5935283" lon="8.1658667"><ele>14.0</ele><time>2026-03-28T12:10:06.385Z</time></trkpt><trkpt lat="40.5936567" lon="8.1659817"><ele>12.5</ele><time>2026-03-28T12:10:07.386Z</time></trkpt><trkpt lat="40.5937733" lon="8.1660817"><ele>11.0</ele><time>2026-03-28T12:10:08.386Z</time></trkpt><trkpt lat="40.593885" lon="8.1661783"><ele>9.5</ele><time>2026-03-28T12:10:09.386Z</time></trkpt><trkpt lat="40.593995" lon="8.166275"><ele>8.0</ele><time>2026-03-28T12:10:10.386Z</time></trkpt><trkpt lat="40.594095" lon="8.16636"><ele>8.0</ele><time>2026-03-28T12:10:11.386Z</time></trkpt><trkpt lat="40.5941833" lon="8.1664267"><ele>8.0</ele><time>2026-03-28T12:10:12.386Z</time></trkpt><trkpt lat="40.5942733" lon="8.1664767"><ele>8.0</ele><time>2026-03-28T12:10:13.385Z</time></trkpt><trkpt lat="40.5943667" lon="8.1665433"><ele>8.0</ele><time>2026-03-28T12:10:14.386Z</time></trkpt><trkpt lat="40.5944433" lon="8.166605"><ele>8.0</ele><time>2026-03-28T12:10:15.386Z</time></trkpt><trkpt lat="40.5945083" lon="8.1666683"><ele>7.800000000000001</ele><time>2026-03-28T12:10:16.385Z</time></trkpt><trkpt lat="40.5945767" lon="8.1667417"><ele>7.6000000000000005</ele><time>2026-03-28T12:10:17.386Z</time></trkpt><trkpt lat="40.5946583" lon="8.1668183"><ele>7.3999999999999995</ele><time>2026-03-28T12:10:18.386Z</time></trkpt><trkpt lat="40.59476" lon="8.1669"><ele>7.199999999999999</ele><time>2026-03-28T12:10:19.386Z</time></trkpt><trkpt lat="40.59487" lon="8.16699"><ele>7.0</ele><time>2026-03-28T12:10:20.385Z</time></trkpt><trkpt lat="40.5949817" lon="8.1670733"><ele>7.0</ele><time>2026-03-28T12:10:21.386Z</time></trkpt><trkpt lat="40.595085" lon="8.167155"><ele>7.0</ele><time>2026-03-28T12:10:22.386Z</time></trkpt><trkpt lat="40.5951783" lon="8.1672217"><ele>7.0</ele><time>2026-03-28T12:10:23.386Z</time></trkpt><trkpt lat="40.5953267" lon="8.16734"><ele>7.0</ele><time>2026-03-28T12:10:25.386Z</time></trkpt><trkpt lat="40.59548" lon="8.1674517"><ele>8.0</ele><time>2026-03-28T12:10:27.385Z</time></trkpt><trkpt lat="40.5955717" lon="8.16752"><ele>9.0</ele><time>2026-03-28T12:10:28.386Z</time></trkpt><trkpt lat="40.5956717" lon="8.1676133"><ele>10.0</ele><time>2026-03-28T12:10:29.385Z</time></trkpt><trkpt lat="40.5957717" lon="8.16774"><ele>11.0</ele><time>2026-03-28T12:10:30.386Z</time></trkpt><trkpt lat="40.59587" lon="8.167895"><ele>11.0</ele><time>2026-03-28T12:10:31.386Z</time></trkpt><trkpt lat="40.59596" lon="8.16806"><ele>11.0</ele><time>2026-03-28T12:10:32.386Z</time></trkpt><trkpt lat="40.5960383" lon="8.16824"><ele>11.0</ele><time>2026-03-28T12:10:33.386Z</time></trkpt><trkpt lat="40.59609" lon="8.1684317"><ele>11.0</ele><time>2026-03-28T12:10:34.386Z</time></trkpt><trkpt lat="40.5961217" lon="8.168635"><ele>11.0</ele><time>2026-03-28T12:10:35.386Z</time></trkpt><trkpt lat="40.5961533" lon="8.1688417"><ele>11.0</ele><time>2026-03-28T12:10:36.386Z</time></trkpt><trkpt lat="40.5961583" lon="8.1690483"><ele>11.333333333333332</ele><time>2026-03-28T12:10:37.386Z</time></trkpt><trkpt lat="40.5961433" lon="8.1692533"><ele>11.666666666666666</ele><time>2026-03-28T12:10:38.385Z</time></trkpt><trkpt lat="40.5961117" lon="8.169475"><ele>12.0</ele><time>2026-03-28T12:10:39.386Z</time></trkpt><trkpt lat="40.5960617" lon="8.1696767"><ele>13.0</ele><time>2026-03-28T12:10:40.386Z</time></trkpt><trkpt lat="40.5960083" lon="8.1699"><ele>14.0</ele><time>2026-03-28T12:10:41.386Z</time></trkpt><trkpt lat="40.5959533" lon="8.17013"><ele>15.0</ele><time>2026-03-28T12:10:42.386Z</time></trkpt><trkpt lat="40.5958967" lon="8.1703517"><ele>15.0</ele><time>2026-03-28T12:10:43.386Z</time></trkpt><trkpt lat="40.5958433" lon="8.170585"><ele>15.0</ele><time>2026-03-28T12:10:44.386Z</time></trkpt><trkpt lat="40.5957767" lon="8.1708183"><ele>15.0</ele><time>2026-03-28T12:10:45.386Z</time></trkpt><trkpt lat="40.59571" lon="8.171055"><ele>17.666666666666668</ele><time>2026-03-28T12:10:46.386Z</time></trkpt><trkpt lat="40.595635" lon="8.1712867"><ele>20.333333333333336</ele><time>2026-03-28T12:10:47.385Z</time></trkpt><trkpt lat="40.5955583" lon="8.17151"><ele>23.0</ele><time>2026-03-28T12:10:48.386Z</time></trkpt><trkpt lat="40.5954833" lon="8.1717317"><ele>22.0</ele><time>2026-03-28T12:10:49.386Z</time></trkpt><trkpt lat="40.5954133" lon="8.1719733"><ele>21.0</ele><time>2026-03-28T12:10:50.385Z</time></trkpt><trkpt lat="40.5953433" lon="8.1722117"><ele>20.0</ele><time>2026-03-28T12:10:51.386Z</time></trkpt><trkpt lat="40.595285" lon="8.1724583"><ele>20.0</ele><time>2026-03-28T12:10:52.386Z</time></trkpt><trkpt lat="40.5952367" lon="8.17271"><ele>20.0</ele><time>2026-03-28T12:10:53.385Z</time></trkpt><trkpt lat="40.5951917" lon="8.17297"><ele>20.0</ele><time>2026-03-28T12:10:54.386Z</time></trkpt><trkpt lat="40.595165" lon="8.1732467"><ele>22.666666666666668</ele><time>2026-03-28T12:10:55.386Z</time></trkpt><trkpt lat="40.59513" lon="8.17351"><ele>25.333333333333336</ele><time>2026-03-28T12:10:56.386Z</time></trkpt><trkpt lat="40.5950817" lon="8.1737417"><ele>28.0</ele><time>2026-03-28T12:10:57.386Z</time></trkpt><trkpt lat="40.5950167" lon="8.1739817"><ele>31.0</ele><time>2026-03-28T12:10:58.386Z</time></trkpt><trkpt lat="40.59494" lon="8.1742183"><ele>34.0</ele><time>2026-03-28T12:10:59.385Z</time></trkpt><trkpt lat="40.59487" lon="8.1744433"><ele>37.0</ele><time>2026-03-28T12:11:00.386Z</time></trkpt><trkpt lat="40.5948" lon="8.1746267"><ele>37.0</ele><time>2026-03-28T12:11:01.386Z</time></trkpt><trkpt lat="40.5947417" lon="8.174795"><ele>37.0</ele><time>2026-03-28T12:11:02.386Z</time></trkpt><trkpt lat="40.5947133" lon="8.1749967"><ele>37.0</ele><time>2026-03-28T12:11:03.385Z</time></trkpt><trkpt lat="40.59474" lon="8.17517"><ele>37.0</ele><time>2026-03-28T12:11:04.386Z</time></trkpt><trkpt lat="40.5948367" lon="8.1753133"><ele>35.66666666666667</ele><time>2026-03-28T12:11:05.386Z</time></trkpt><trkpt lat="40.5949533" lon="8.1754433"><ele>34.333333333333336</ele><time>2026-03-28T12:11:06.386Z</time></trkpt><trkpt lat="40.5951017" lon="8.175565"><ele>33.0</ele><time>2026-03-28T12:11:07.385Z</time></trkpt><trkpt lat="40.595255" lon="8.1757133"><ele>40.66666666666667</ele><time>2026-03-28T12:11:08.385Z</time></trkpt><trkpt lat="40.595415" lon="8.1758683"><ele>48.333333333333336</ele><time>2026-03-28T12:11:09.385Z</time></trkpt><trkpt lat="40.5955733" lon="8.1760267"><ele>56.0</ele><time>2026-03-28T12:11:10.386Z</time></trkpt><trkpt lat="40.5957217" lon="8.176205"><ele>56.0</ele><time>2026-03-28T12:11:11.386Z</time></trkpt><trkpt lat="40.5958783" lon="8.1763683"><ele>56.0</ele><time>2026-03-28T12:11:12.386Z</time></trkpt><trkpt lat="40.5960233" lon="8.1765267"><ele>56.0</ele><time>2026-03-28T12:11:13.386Z</time></trkpt><trkpt lat="40.5961483" lon="8.1766783"><ele>61.333333333333336</ele><time>2026-03-28T12:11:14.386Z</time></trkpt><trkpt lat="40.5962533" lon="8.1768317"><ele>66.66666666666667</ele><time>2026-03-28T12:11:15.386Z</time></trkpt><trkpt lat="40.5963283" lon="8.1770167"><ele>72.0</ele><time>2026-03-28T12:11:16.386Z</time></trkpt><trkpt lat="40.5963817" lon="8.17722"><ele>67.0</ele><time>2026-03-28T12:11:17.386Z</time></trkpt><trkpt lat="40.5964467" lon="8.177445"><ele>62.0</ele><time>2026-03-28T12:11:18.386Z</time></trkpt><trkpt lat="40.5965233" lon="8.1776567"><ele>57.0</ele><time>2026-03-28T12:11:19.386Z</time></trkpt><trkpt lat="40.5966217" lon="8.1778667"><ele>57.0</ele><time>2026-03-28T12:11:20.386Z</time></trkpt><trkpt lat="40.5967383" lon="8.178045"><ele>57.0</ele><time>2026-03-28T12:11:21.386Z</time></trkpt><trkpt lat="40.59684" lon="8.1782367"><ele>57.0</ele><time>2026-03-28T12:11:22.386Z</time></trkpt><trkpt lat="40.5969133" lon="8.17845"><ele>57.0</ele><time>2026-03-28T12:11:23.385Z</time></trkpt><trkpt lat="40.5969783" lon="8.178675"><ele>57.0</ele><time>2026-03-28T12:11:24.385Z</time></trkpt><trkpt lat="40.5970667" lon="8.1788883"><ele>57.0</ele><time>2026-03-28T12:11:25.386Z</time></trkpt><trkpt lat="40.5971667" lon="8.179095"><ele>57.0</ele><time>2026-03-28T12:11:26.386Z</time></trkpt><trkpt lat="40.5972767" lon="8.1792967"><ele>57.0</ele><time>2026-03-28T12:11:27.386Z</time></trkpt><trkpt lat="40.5973817" lon="8.1794867"><ele>57.0</ele><time>2026-03-28T12:11:28.385Z</time></trkpt><trkpt lat="40.5974933" lon="8.1796533"><ele>57.0</ele><time>2026-03-28T12:11:29.385Z</time></trkpt><trkpt lat="40.5976333" lon="8.17978"><ele>57.0</ele><time>2026-03-28T12:11:30.386Z</time></trkpt><trkpt lat="40.5978" lon="8.179875"><ele>57.0</ele><time>2026-03-28T12:11:31.386Z</time></trkpt><trkpt lat="40.597935" lon="8.1799883"><ele>58.33333333333333</ele><time>2026-03-28T12:11:32.386Z</time></trkpt><trkpt lat="40.598055" lon="8.1801417"><ele>59.666666666666664</ele><time>2026-03-28T12:11:33.386Z</time></trkpt><trkpt lat="40.5981483" lon="8.18033"><ele>61.0</ele><time>2026-03-28T12:11:34.386Z</time></trkpt><trkpt lat="40.59824" lon="8.18054"><ele>54.33333333333333</ele><time>2026-03-28T12:11:35.386Z</time></trkpt><trkpt lat="40.5983417" lon="8.180745"><ele>47.666666666666664</ele><time>2026-03-28T12:11:36.386Z</time></trkpt><trkpt lat="40.5984767" lon="8.1809017"><ele>41.0</ele><time>2026-03-28T12:11:37.386Z</time></trkpt><trkpt lat="40.5986367" lon="8.1810283"><ele>46.33333333333333</ele><time>2026-03-28T12:11:38.386Z</time></trkpt><trkpt lat="40.5988183" lon="8.1811317"><ele>51.666666666666664</ele><time>2026-03-28T12:11:39.386Z</time></trkpt><trkpt lat="40.5989983" lon="8.1812233"><ele>57.0</ele><time>2026-03-28T12:11:40.386Z</time></trkpt><trkpt lat="40.5991867" lon="8.1813033"><ele>57.0</ele><time>2026-03-28T12:11:41.386Z</time></trkpt><trkpt lat="40.599355" lon="8.1813583"><ele>57.0</ele><time>2026-03-28T12:11:42.386Z</time></trkpt><trkpt lat="40.59953" lon="8.1814033"><ele>57.0</ele><time>2026-03-28T12:11:43.386Z</time></trkpt><trkpt lat="40.5997" lon="8.181395"><ele>56.0</ele><time>2026-03-28T12:11:44.386Z</time></trkpt><trkpt lat="40.5998617" lon="8.18135"><ele>55.0</ele><time>2026-03-28T12:11:45.386Z</time></trkpt><trkpt lat="40.6000317" lon="8.181335"><ele>54.0</ele><time>2026-03-28T12:11:46.385Z</time></trkpt><trkpt lat="40.6002017" lon="8.1813767"><ele>53.33333333333333</ele><time>2026-03-28T12:11:47.386Z</time></trkpt><trkpt lat="40.60039" lon="8.1814467"><ele>52.666666666666664</ele><time>2026-03-28T12:11:48.386Z</time></trkpt><trkpt lat="40.6005717" lon="8.1815217"><ele>52.0</ele><time>2026-03-28T12:11:49.385Z</time></trkpt><trkpt lat="40.6007617" lon="8.181575"><ele>45.0</ele><time>2026-03-28T12:11:50.386Z</time></trkpt><trkpt lat="40.6009717" lon="8.1815967"><ele>38.0</ele><time>2026-03-28T12:11:51.386Z</time></trkpt><trkpt lat="40.601185" lon="8.181595"><ele>31.0</ele><time>2026-03-28T12:11:52.386Z</time></trkpt><trkpt lat="40.6013967" lon="8.1815917"><ele>31.0</ele><time>2026-03-28T12:11:53.386Z</time></trkpt><trkpt lat="40.6016067" lon="8.18159"><ele>31.0</ele><time>2026-03-28T12:11:54.386Z</time></trkpt><trkpt lat="40.6018" lon="8.181595"><ele>31.0</ele><time>2026-03-28T12:11:55.386Z</time></trkpt><trkpt lat="40.601975" lon="8.1816217"><ele>31.666666666666668</ele><time>2026-03-28T12:11:56.385Z</time></trkpt><trkpt lat="40.6021533" lon="8.181685"><ele>32.333333333333336</ele><time>2026-03-28T12:11:57.386Z</time></trkpt><trkpt lat="40.6023383" lon="8.1817917"><ele>33.0</ele><time>2026-03-28T12:11:58.386Z</time></trkpt><trkpt lat="40.602525" lon="8.1819183"><ele>33.0</ele><time>2026-03-28T12:11:59.386Z</time></trkpt><trkpt lat="40.6027117" lon="8.182065"><ele>33.0</ele><time>2026-03-28T12:12:00.386Z</time></trkpt><trkpt lat="40.602895" lon="8.1822117"><ele>33.0</ele><time>2026-03-28T12:12:01.386Z</time></trkpt><trkpt lat="40.60308" lon="8.1823333"><ele>29.666666666666668</ele><time>2026-03-28T12:12:02.386Z</time></trkpt><trkpt lat="40.60325" lon="8.1824483"><ele>26.333333333333336</ele><time>2026-03-28T12:12:03.386Z</time></trkpt><trkpt lat="40.6034133" lon="8.182565"><ele>23.0</ele><time>2026-03-28T12:12:04.386Z</time></trkpt><trkpt lat="40.6035817" lon="8.1826683"><ele>24.333333333333336</ele><time>2026-03-28T12:12:05.386Z</time></trkpt><trkpt lat="40.6037383" lon="8.1827567"><ele>25.666666666666668</ele><time>2026-03-28T12:12:06.386Z</time></trkpt><trkpt lat="40.6039" lon="8.1828233"><ele>27.0</ele><time>2026-03-28T12:12:07.386Z</time></trkpt><trkpt lat="40.6040583" lon="8.182865"><ele>27.0</ele><time>2026-03-28T12:12:08.386Z</time></trkpt><trkpt lat="40.604225" lon="8.1829117"><ele>27.0</ele><time>2026-03-28T12:12:09.386Z</time></trkpt><trkpt lat="40.6043733" lon="8.18296"><ele>27.0</ele><time>2026-03-28T12:12:10.385Z</time></trkpt><trkpt lat="40.60452" lon="8.1829933"><ele>27.75</ele><time>2026-03-28T12:12:11.385Z</time></trkpt><trkpt lat="40.6046583" lon="8.1830317"><ele>28.5</ele><time>2026-03-28T12:12:12.386Z</time></trkpt><trkpt lat="40.60479" lon="8.1830783"><ele>29.25</ele><time>2026-03-28T12:12:13.386Z</time></trkpt><trkpt lat="40.60492" lon="8.1831317"><ele>30.0</ele><time>2026-03-28T12:12:14.386Z</time></trkpt><trkpt lat="40.6050467" lon="8.1831767"><ele>27.5</ele><time>2026-03-28T12:12:15.386Z</time></trkpt><trkpt lat="40.6051833" lon="8.1832267"><ele>25.0</ele><time>2026-03-28T12:12:16.385Z</time></trkpt><trkpt lat="40.6053283" lon="8.1832667"><ele>22.5</ele><time>2026-03-28T12:12:17.386Z</time></trkpt><trkpt lat="40.6054833" lon="8.183315"><ele>20.0</ele><time>2026-03-28T12:12:18.386Z</time></trkpt><trkpt lat="40.605635" lon="8.183375"><ele>20.0</ele><time>2026-03-28T12:12:19.386Z</time></trkpt><trkpt lat="40.6057817" lon="8.1834533"><ele>20.0</ele><time>2026-03-28T12:12:20.386Z</time></trkpt><trkpt lat="40.60593" lon="8.1835467"><ele>20.0</ele><time>2026-03-28T12:12:21.386Z</time></trkpt><trkpt lat="40.606075" lon="8.1836583"><ele>22.666666666666668</ele><time>2026-03-28T12:12:22.386Z</time></trkpt><trkpt lat="40.6062233" lon="8.1837683"><ele>25.333333333333336</ele><time>2026-03-28T12:12:23.386Z</time></trkpt><trkpt lat="40.6063633" lon="8.18388"><ele>28.0</ele><time>2026-03-28T12:12:24.386Z</time></trkpt><trkpt lat="40.6064983" lon="8.1839833"><ele>25.75</ele><time>2026-03-28T12:12:25.386Z</time></trkpt><trkpt lat="40.606635" lon="8.1840867"><ele>23.5</ele><time>2026-03-28T12:12:26.386Z</time></trkpt><trkpt lat="40.6067517" lon="8.1841767"><ele>21.25</ele><time>2026-03-28T12:12:27.385Z</time></trkpt><trkpt lat="40.6068667" lon="8.1842667"><ele>19.0</ele><time>2026-03-28T12:12:28.386Z</time></trkpt><trkpt lat="40.6069767" lon="8.1843517"><ele>20.5</ele><time>2026-03-28T12:12:29.385Z</time></trkpt><trkpt lat="40.6070917" lon="8.1844517"><ele>22.0</ele><time>2026-03-28T12:12:30.386Z</time></trkpt><trkpt lat="40.6072" lon="8.18455"><ele>23.5</ele><time>2026-03-28T12:12:31.386Z</time></trkpt><trkpt lat="40.607315" lon="8.184645"><ele>25.0</ele><time>2026-03-28T12:12:32.386Z</time></trkpt><trkpt lat="40.60744" lon="8.18473"><ele>25.0</ele><time>2026-03-28T12:12:33.386Z</time></trkpt><trkpt lat="40.607565" lon="8.1848233"><ele>25.0</ele><time>2026-03-28T12:12:34.386Z</time></trkpt><trkpt lat="40.6077067" lon="8.1849183"><ele>25.0</ele><time>2026-03-28T12:12:35.386Z</time></trkpt><trkpt lat="40.6078667" lon="8.185"><ele>24.666666666666668</ele><time>2026-03-28T12:12:36.386Z</time></trkpt><trkpt lat="40.6080383" lon="8.1851067"><ele>24.333333333333336</ele><time>2026-03-28T12:12:37.386Z</time></trkpt><trkpt lat="40.608215" lon="8.1852317"><ele>24.0</ele><time>2026-03-28T12:12:38.386Z</time></trkpt><trkpt lat="40.60841" lon="8.185375"><ele>24.0</ele><time>2026-03-28T12:12:39.386Z</time></trkpt><trkpt lat="40.6086117" lon="8.1855333"><ele>24.0</ele><time>2026-03-28T12:12:40.386Z</time></trkpt><trkpt lat="40.6088167" lon="8.1857017"><ele>22.5</ele><time>2026-03-28T12:12:41.386Z</time></trkpt><trkpt lat="40.60901" lon="8.185875"><ele>21.0</ele><time>2026-03-28T12:12:42.386Z</time></trkpt><trkpt lat="40.6092" lon="8.1860383"><ele>21.0</ele><time>2026-03-28T12:12:43.385Z</time></trkpt><trkpt lat="40.609395" lon="8.1862"><ele>21.0</ele><time>2026-03-28T12:12:44.386Z</time></trkpt><trkpt lat="40.6095933" lon="8.18635"><ele>20.666666666666668</ele><time>2026-03-28T12:12:45.385Z</time></trkpt><trkpt lat="40.6097817" lon="8.18648"><ele>20.333333333333336</ele><time>2026-03-28T12:12:46.386Z</time></trkpt><trkpt lat="40.60997" lon="8.1866083"><ele>20.0</ele><time>2026-03-28T12:12:47.384Z</time></trkpt><trkpt lat="40.610145" lon="8.1867367"><ele>21.666666666666668</ele><time>2026-03-28T12:12:48.385Z</time></trkpt><trkpt lat="40.6103283" lon="8.18687"><ele>23.333333333333336</ele><time>2026-03-28T12:12:49.385Z</time></trkpt><trkpt lat="40.61051" lon="8.1870067"><ele>25.0</ele><time>2026-03-28T12:12:50.385Z</time></trkpt><trkpt lat="40.610685" lon="8.1871317"><ele>25.0</ele><time>2026-03-28T12:12:51.384Z</time></trkpt><trkpt lat="40.61087" lon="8.18726"><ele>25.0</ele><time>2026-03-28T12:12:52.385Z</time></trkpt><trkpt lat="40.6110517" lon="8.18737"><ele>25.0</ele><time>2026-03-28T12:12:53.385Z</time></trkpt><trkpt lat="40.6112567" lon="8.1874633"><ele>23.333333333333336</ele><time>2026-03-28T12:12:54.385Z</time></trkpt><trkpt lat="40.611455" lon="8.187505"><ele>21.666666666666668</ele><time>2026-03-28T12:12:55.385Z</time></trkpt><trkpt lat="40.611675" lon="8.1875467"><ele>20.0</ele><time>2026-03-28T12:12:56.385Z</time></trkpt><trkpt lat="40.6118967" lon="8.18759"><ele>19.333333333333336</ele><time>2026-03-28T12:12:57.385Z</time></trkpt><trkpt lat="40.61212" lon="8.18763"><ele>18.666666666666668</ele><time>2026-03-28T12:12:58.385Z</time></trkpt><trkpt lat="40.612325" lon="8.1876583"><ele>18.0</ele><time>2026-03-28T12:12:59.385Z</time></trkpt><trkpt lat="40.6125283" lon="8.1876867"><ele>18.0</ele><time>2026-03-28T12:13:00.384Z</time></trkpt><trkpt lat="40.612745" lon="8.1877467"><ele>18.0</ele><time>2026-03-28T12:13:01.385Z</time></trkpt><trkpt lat="40.6129633" lon="8.1877883"><ele>18.0</ele><time>2026-03-28T12:13:02.385Z</time></trkpt><trkpt lat="40.6131617" lon="8.187825"><ele>17.666666666666668</ele><time>2026-03-28T12:13:03.385Z</time></trkpt><trkpt lat="40.6133467" lon="8.1878717"><ele>17.333333333333336</ele><time>2026-03-28T12:13:04.385Z</time></trkpt><trkpt lat="40.613525" lon="8.187905"><ele>17.0</ele><time>2026-03-28T12:13:05.384Z</time></trkpt><trkpt lat="40.6136967" lon="8.187955"><ele>17.0</ele><time>2026-03-28T12:13:06.385Z</time></trkpt><trkpt lat="40.613875" lon="8.1879867"><ele>17.0</ele><time>2026-03-28T12:13:07.384Z</time></trkpt><trkpt lat="40.6140417" lon="8.1880117"><ele>17.0</ele><time>2026-03-28T12:13:08.385Z</time></trkpt><trkpt lat="40.6142083" lon="8.188045"><ele>17.0</ele><time>2026-03-28T12:13:09.384Z</time></trkpt><trkpt lat="40.6143733" lon="8.1880733"><ele>17.0</ele><time>2026-03-28T12:13:10.385Z</time></trkpt><trkpt lat="40.61453" lon="8.1880983"><ele>17.0</ele><time>2026-03-28T12:13:11.384Z</time></trkpt><trkpt lat="40.614685" lon="8.18814"><ele>14.0</ele><time>2026-03-28T12:13:12.385Z</time></trkpt><trkpt lat="40.6148333" lon="8.1881817"><ele>11.0</ele><time>2026-03-28T12:13:13.384Z</time></trkpt><trkpt lat="40.6149867" lon="8.188215"><ele>8.0</ele><time>2026-03-28T12:13:14.385Z</time></trkpt><trkpt lat="40.6151383" lon="8.18825"><ele>8.0</ele><time>2026-03-28T12:13:15.385Z</time></trkpt><trkpt lat="40.615295" lon="8.1882867"><ele>8.0</ele><time>2026-03-28T12:13:16.385Z</time></trkpt><trkpt lat="40.615445" lon="8.18833"><ele>8.0</ele><time>2026-03-28T12:13:17.385Z</time></trkpt><trkpt lat="40.6155967" lon="8.1883583"><ele>8.0</ele><time>2026-03-28T12:13:18.385Z</time></trkpt><trkpt lat="40.61575" lon="8.1883967"><ele>8.0</ele><time>2026-03-28T12:13:19.385Z</time></trkpt><trkpt lat="40.6158833" lon="8.18845"><ele>8.0</ele><time>2026-03-28T12:13:20.385Z</time></trkpt><trkpt lat="40.6160167" lon="8.1884933"><ele>8.0</ele><time>2026-03-28T12:13:21.385Z</time></trkpt><trkpt lat="40.6161533" lon="8.1885617"><ele>8.0</ele><time>2026-03-28T12:13:22.384Z</time></trkpt><trkpt lat="40.6162783" lon="8.18862"><ele>8.0</ele><time>2026-03-28T12:13:23.385Z</time></trkpt><trkpt lat="40.616395" lon="8.1886883"><ele>8.0</ele><time>2026-03-28T12:13:24.385Z</time></trkpt><trkpt lat="40.6165117" lon="8.1887583"><ele>8.0</ele><time>2026-03-28T12:13:25.385Z</time></trkpt><trkpt lat="40.6166333" lon="8.188845"><ele>8.0</ele><time>2026-03-28T12:13:26.385Z</time></trkpt><trkpt lat="40.616755" lon="8.18895"><ele>8.0</ele><time>2026-03-28T12:13:27.385Z</time></trkpt><trkpt lat="40.6168883" lon="8.1890633"><ele>8.0</ele><time>2026-03-28T12:13:28.385Z</time></trkpt><trkpt lat="40.61702" lon="8.1891817"><ele>6.666666666666666</ele><time>2026-03-28T12:13:29.385Z</time></trkpt><trkpt lat="40.6171683" lon="8.1893183"><ele>5.333333333333333</ele><time>2026-03-28T12:13:30.385Z</time></trkpt><trkpt lat="40.617325" lon="8.18947"><ele>4.0</ele><time>2026-03-28T12:13:31.385Z</time></trkpt><trkpt lat="40.617505" lon="8.1896467"><ele>4.0</ele><time>2026-03-28T12:13:32.385Z</time></trkpt><trkpt lat="40.6176767" lon="8.189825"><ele>4.0</ele><time>2026-03-28T12:13:33.385Z</time></trkpt><trkpt lat="40.61786" lon="8.19001"><ele>3.5</ele><time>2026-03-28T12:13:34.385Z</time></trkpt><trkpt lat="40.6180433" lon="8.1902017"><ele>3.0</ele><time>2026-03-28T12:13:35.385Z</time></trkpt><trkpt lat="40.6182267" lon="8.1903967"><ele>3.0</ele><time>2026-03-28T12:13:36.385Z</time></trkpt><trkpt lat="40.6184017" lon="8.1905817"><ele>3.0</ele><time>2026-03-28T12:13:37.385Z</time></trkpt><trkpt lat="40.6185783" lon="8.1907683"><ele>3.0</ele><time>2026-03-28T12:13:38.385Z</time></trkpt><trkpt lat="40.618765" lon="8.1909433"><ele>3.0</ele><time>2026-03-28T12:13:39.385Z</time></trkpt><trkpt lat="40.618945" lon="8.1911133"><ele>3.0</ele><time>2026-03-28T12:13:40.385Z</time></trkpt><trkpt lat="40.619135" lon="8.191285"><ele>3.0</ele><time>2026-03-28T12:13:41.384Z</time></trkpt><trkpt lat="40.6193233" lon="8.19147"><ele>3.0</ele><time>2026-03-28T12:13:42.385Z</time></trkpt><trkpt lat="40.619505" lon="8.1916433"><ele>3.0</ele><time>2026-03-28T12:13:43.385Z</time></trkpt><trkpt lat="40.61969" lon="8.1918267"><ele>3.0</ele><time>2026-03-28T12:13:44.385Z</time></trkpt><trkpt lat="40.6198767" lon="8.1920033"><ele>3.0</ele><time>2026-03-28T12:13:45.384Z</time></trkpt><trkpt lat="40.620055" lon="8.1921833"><ele>3.333333333333333</ele><time>2026-03-28T12:13:46.385Z</time></trkpt><trkpt lat="40.6202267" lon="8.19235"><ele>3.6666666666666665</ele><time>2026-03-28T12:13:47.385Z</time></trkpt><trkpt lat="40.62039" lon="8.1924983"><ele>4.0</ele><time>2026-03-28T12:13:48.385Z</time></trkpt><trkpt lat="40.620555" lon="8.19265"><ele>3.333333333333333</ele><time>2026-03-28T12:13:49.384Z</time></trkpt><trkpt lat="40.6207183" lon="8.1928133"><ele>2.6666666666666665</ele><time>2026-03-28T12:13:50.385Z</time></trkpt><trkpt lat="40.6208767" lon="8.1929783"><ele>2.0</ele><time>2026-03-28T12:13:51.385Z</time></trkpt><trkpt lat="40.621035" lon="8.193145"><ele>2.0</ele><time>2026-03-28T12:13:52.384Z</time></trkpt><trkpt lat="40.6211933" lon="8.1933067"><ele>2.0</ele><time>2026-03-28T12:13:53.384Z</time></trkpt><trkpt lat="40.6213517" lon="8.1934683"><ele>2.0</ele><time>2026-03-28T12:13:54.384Z</time></trkpt><trkpt lat="40.6215167" lon="8.1936317"><ele>2.0</ele><time>2026-03-28T12:13:55.385Z</time></trkpt><trkpt lat="40.6216783" lon="8.1937883"><ele>2.0</ele><time>2026-03-28T12:13:56.385Z</time></trkpt><trkpt lat="40.6218417" lon="8.1939567"><ele>2.0</ele><time>2026-03-28T12:13:57.384Z</time></trkpt><trkpt lat="40.6220217" lon="8.1941267"><ele>2.0</ele><time>2026-03-28T12:13:58.384Z</time></trkpt><trkpt lat="40.6221933" lon="8.1943067"><ele>2.0</ele><time>2026-03-28T12:13:59.385Z</time></trkpt><trkpt lat="40.6223633" lon="8.19448"><ele>2.0</ele><time>2026-03-28T12:14:00.385Z</time></trkpt><trkpt lat="40.62253" lon="8.1946383"><ele>2.0</ele><time>2026-03-28T12:14:01.384Z</time></trkpt><trkpt lat="40.6227033" lon="8.1947967"><ele>2.0</ele><time>2026-03-28T12:14:02.385Z</time></trkpt><trkpt lat="40.6228817" lon="8.19495"><ele>2.0</ele><time>2026-03-28T12:14:03.384Z</time></trkpt><trkpt lat="40.6230483" lon="8.1951117"><ele>2.333333333333333</ele><time>2026-03-28T12:14:04.385Z</time></trkpt><trkpt lat="40.6232133" lon="8.195275"><ele>2.6666666666666665</ele><time>2026-03-28T12:14:05.385Z</time></trkpt><trkpt lat="40.623375" lon="8.1954417"><ele>3.0</ele><time>2026-03-28T12:14:06.385Z</time></trkpt><trkpt lat="40.6235333" lon="8.1955933"><ele>3.333333333333333</ele><time>2026-03-28T12:14:07.385Z</time></trkpt><trkpt lat="40.623675" lon="8.19574"><ele>3.6666666666666665</ele><time>2026-03-28T12:14:08.385Z</time></trkpt><trkpt lat="40.6237933" lon="8.1959133"><ele>4.0</ele><time>2026-03-28T12:14:09.385Z</time></trkpt><trkpt lat="40.6238817" lon="8.19609"><ele>4.0</ele><time>2026-03-28T12:14:10.384Z</time></trkpt><trkpt lat="40.6239433" lon="8.196295"><ele>4.0</ele><time>2026-03-28T12:14:11.385Z</time></trkpt><trkpt lat="40.6239783" lon="8.1965217"><ele>4.0</ele><time>2026-03-28T12:14:12.385Z</time></trkpt><trkpt lat="40.6239917" lon="8.196765"><ele>4.0</ele><time>2026-03-28T12:14:13.384Z</time></trkpt><trkpt lat="40.62397" lon="8.1969967"><ele>4.0</ele><time>2026-03-28T12:14:14.385Z</time></trkpt><trkpt lat="40.6239167" lon="8.1972183"><ele>4.0</ele><time>2026-03-28T12:14:15.385Z</time></trkpt><trkpt lat="40.6238367" lon="8.1974583"><ele>4.0</ele><time>2026-03-28T12:14:16.384Z</time></trkpt><trkpt lat="40.623745" lon="8.197695"><ele>4.0</ele><time>2026-03-28T12:14:17.385Z</time></trkpt><trkpt lat="40.62366" lon="8.1979433"><ele>4.0</ele><time>2026-03-28T12:14:18.385Z</time></trkpt><trkpt lat="40.6235733" lon="8.19821"><ele>4.5</ele><time>2026-03-28T12:14:19.384Z</time></trkpt><trkpt lat="40.623495" lon="8.19849"><ele>5.0</ele><time>2026-03-28T12:14:20.385Z</time></trkpt><trkpt lat="40.6234133" lon="8.19877"><ele>5.0</ele><time>2026-03-28T12:14:21.384Z</time></trkpt><trkpt lat="40.6233383" lon="8.1990367"><ele>5.0</ele><time>2026-03-28T12:14:22.385Z</time></trkpt><trkpt lat="40.62325" lon="8.1993083"><ele>5.0</ele><time>2026-03-28T12:14:23.385Z</time></trkpt><trkpt lat="40.6231683" lon="8.1995717"><ele>5.0</ele><time>2026-03-28T12:14:24.385Z</time></trkpt><trkpt lat="40.62309" lon="8.1998433"><ele>5.0</ele><time>2026-03-28T12:14:25.385Z</time></trkpt><trkpt lat="40.6230083" lon="8.2001183"><ele>5.0</ele><time>2026-03-28T12:14:26.385Z</time></trkpt><trkpt lat="40.6229233" lon="8.2003933"><ele>5.0</ele><time>2026-03-28T12:14:27.385Z</time></trkpt><trkpt lat="40.6228467" lon="8.20066"><ele>5.0</ele><time>2026-03-28T12:14:28.385Z</time></trkpt><trkpt lat="40.6227633" lon="8.2009283"><ele>5.0</ele><time>2026-03-28T12:14:29.385Z</time></trkpt><trkpt lat="40.6226933" lon="8.2011883"><ele>5.666666666666667</ele><time>2026-03-28T12:14:30.385Z</time></trkpt><trkpt lat="40.6226067" lon="8.2014533"><ele>6.333333333333334</ele><time>2026-03-28T12:14:31.385Z</time></trkpt><trkpt lat="40.6225333" lon="8.2017267"><ele>7.0</ele><time>2026-03-28T12:14:32.384Z</time></trkpt><trkpt lat="40.62245" lon="8.202005"><ele>7.0</ele><time>2026-03-28T12:14:33.385Z</time></trkpt><trkpt lat="40.6223633" lon="8.202285"><ele>7.0</ele><time>2026-03-28T12:14:34.384Z</time></trkpt><trkpt lat="40.622285" lon="8.20257"><ele>7.0</ele><time>2026-03-28T12:14:35.385Z</time></trkpt><trkpt lat="40.6222017" lon="8.2028567"><ele>7.0</ele><time>2026-03-28T12:14:36.384Z</time></trkpt><trkpt lat="40.622125" lon="8.2031417"><ele>7.0</ele><time>2026-03-28T12:14:37.384Z</time></trkpt><trkpt lat="40.6220533" lon="8.20344"><ele>7.0</ele><time>2026-03-28T12:14:38.385Z</time></trkpt><trkpt lat="40.6219717" lon="8.2037183"><ele>7.333333333333334</ele><time>2026-03-28T12:14:39.385Z</time></trkpt><trkpt lat="40.62189" lon="8.2039967"><ele>7.666666666666666</ele><time>2026-03-28T12:14:40.385Z</time></trkpt><trkpt lat="40.6218117" lon="8.2042683"><ele>8.0</ele><time>2026-03-28T12:14:41.385Z</time></trkpt><trkpt lat="40.6217417" lon="8.20456"><ele>8.0</ele><time>2026-03-28T12:14:42.385Z</time></trkpt><trkpt lat="40.6216683" lon="8.2048367"><ele>8.0</ele><time>2026-03-28T12:14:43.384Z</time></trkpt><trkpt lat="40.6215883" lon="8.2051167"><ele>8.0</ele><time>2026-03-28T12:14:44.385Z</time></trkpt><trkpt lat="40.6215083" lon="8.2053817"><ele>8.0</ele><time>2026-03-28T12:14:45.385Z</time></trkpt><trkpt lat="40.6214283" lon="8.2056517"><ele>8.0</ele><time>2026-03-28T12:14:46.384Z</time></trkpt><trkpt lat="40.6213433" lon="8.2059333"><ele>8.0</ele><time>2026-03-28T12:14:47.385Z</time></trkpt><trkpt lat="40.6212667" lon="8.20621"><ele>8.0</ele><time>2026-03-28T12:14:48.385Z</time></trkpt><trkpt lat="40.62119" lon="8.2064883"><ele>8.0</ele><time>2026-03-28T12:14:49.384Z</time></trkpt><trkpt lat="40.6211067" lon="8.20677"><ele>8.0</ele><time>2026-03-28T12:14:50.385Z</time></trkpt><trkpt lat="40.621035" lon="8.20704"><ele>8.0</ele><time>2026-03-28T12:14:51.384Z</time></trkpt><trkpt lat="40.6209617" lon="8.20732"><ele>8.0</ele><time>2026-03-28T12:14:52.385Z</time></trkpt><trkpt lat="40.620875" lon="8.207585"><ele>8.0</ele><time>2026-03-28T12:14:53.384Z</time></trkpt><trkpt lat="40.6207683" lon="8.2078417"><ele>8.0</ele><time>2026-03-28T12:14:54.385Z</time></trkpt><trkpt lat="40.620625" lon="8.2080533"><ele>8.0</ele><time>2026-03-28T12:14:55.385Z</time></trkpt><trkpt lat="40.620465" lon="8.2082517"><ele>8.0</ele><time>2026-03-28T12:14:56.384Z</time></trkpt><trkpt lat="40.620285" lon="8.2084633"><ele>8.0</ele><time>2026-03-28T12:14:57.385Z</time></trkpt><trkpt lat="40.620125" lon="8.2086667"><ele>8.0</ele><time>2026-03-28T12:14:58.385Z</time></trkpt><trkpt lat="40.6199617" lon="8.2088783"><ele>8.0</ele><time>2026-03-28T12:14:59.385Z</time></trkpt><trkpt lat="40.619795" lon="8.20908"><ele>8.5</ele><time>2026-03-28T12:15:00.385Z</time></trkpt><trkpt lat="40.619635" lon="8.2092917"><ele>9.0</ele><time>2026-03-28T12:15:01.385Z</time></trkpt><trkpt lat="40.6194733" lon="8.2095067"><ele>9.333333333333334</ele><time>2026-03-28T12:15:02.384Z</time></trkpt><trkpt lat="40.6193183" lon="8.2097067"><ele>9.666666666666668</ele><time>2026-03-28T12:15:03.385Z</time></trkpt><trkpt lat="40.6191583" lon="8.20991"><ele>10.0</ele><time>2026-03-28T12:15:04.385Z</time></trkpt><trkpt lat="40.619005" lon="8.2101167"><ele>10.0</ele><time>2026-03-28T12:15:05.385Z</time></trkpt><trkpt lat="40.61885" lon="8.2103267"><ele>10.0</ele><time>2026-03-28T12:15:06.385Z</time></trkpt><trkpt lat="40.6186983" lon="8.21053"><ele>10.0</ele><time>2026-03-28T12:15:07.385Z</time></trkpt><trkpt lat="40.6185533" lon="8.2107333"><ele>10.333333333333334</ele><time>2026-03-28T12:15:08.385Z</time></trkpt><trkpt lat="40.6184083" lon="8.210955"><ele>10.666666666666666</ele><time>2026-03-28T12:15:09.385Z</time></trkpt><trkpt lat="40.6182633" lon="8.21116"><ele>11.0</ele><time>2026-03-28T12:15:10.385Z</time></trkpt><trkpt lat="40.6181167" lon="8.21136"><ele>12.0</ele><time>2026-03-28T12:15:11.385Z</time></trkpt><trkpt lat="40.6179633" lon="8.21155"><ele>13.0</ele><time>2026-03-28T12:15:12.385Z</time></trkpt><trkpt lat="40.61781" lon="8.21175"><ele>14.0</ele><time>2026-03-28T12:15:13.385Z</time></trkpt><trkpt lat="40.617665" lon="8.211965"><ele>14.0</ele><time>2026-03-28T12:15:14.385Z</time></trkpt><trkpt lat="40.6175167" lon="8.212155"><ele>14.0</ele><time>2026-03-28T12:15:15.385Z</time></trkpt><trkpt lat="40.617375" lon="8.2123333"><ele>14.0</ele><time>2026-03-28T12:15:16.385Z</time></trkpt><trkpt lat="40.6172317" lon="8.2125317"><ele>15.0</ele><time>2026-03-28T12:15:17.385Z</time></trkpt><trkpt lat="40.617095" lon="8.21273"><ele>16.0</ele><time>2026-03-28T12:15:18.385Z</time></trkpt><trkpt lat="40.6169483" lon="8.2129317"><ele>17.0</ele><time>2026-03-28T12:15:19.385Z</time></trkpt><trkpt lat="40.6167983" lon="8.21313"><ele>18.0</ele><time>2026-03-28T12:15:20.384Z</time></trkpt><trkpt lat="40.6166533" lon="8.213325"><ele>19.0</ele><time>2026-03-28T12:15:21.385Z</time></trkpt><trkpt lat="40.6165083" lon="8.21351"><ele>20.0</ele><time>2026-03-28T12:15:22.384Z</time></trkpt><trkpt lat="40.6163617" lon="8.2137117"><ele>20.0</ele><time>2026-03-28T12:15:23.384Z</time></trkpt><trkpt lat="40.61621" lon="8.2139167"><ele>20.0</ele><time>2026-03-28T12:15:24.385Z</time></trkpt><trkpt lat="40.6160617" lon="8.214115"><ele>20.0</ele><time>2026-03-28T12:15:25.385Z</time></trkpt><trkpt lat="40.6159167" lon="8.2143367"><ele>20.333333333333336</ele><time>2026-03-28T12:15:26.385Z</time></trkpt><trkpt lat="40.61577" lon="8.2145467"><ele>20.666666666666668</ele><time>2026-03-28T12:15:27.385Z</time></trkpt><trkpt lat="40.6156317" lon="8.2147417"><ele>21.0</ele><time>2026-03-28T12:15:28.385Z</time></trkpt><trkpt lat="40.6154833" lon="8.2149183"><ele>21.0</ele><time>2026-03-28T12:15:29.384Z</time></trkpt><trkpt lat="40.6153433" lon="8.21511"><ele>21.0</ele><time>2026-03-28T12:15:30.385Z</time></trkpt><trkpt lat="40.61522" lon="8.21528"><ele>21.0</ele><time>2026-03-28T12:15:31.385Z</time></trkpt><trkpt lat="40.6150967" lon="8.2154517"><ele>20.666666666666668</ele><time>2026-03-28T12:15:32.384Z</time></trkpt><trkpt lat="40.61496" lon="8.2156233"><ele>20.333333333333336</ele><time>2026-03-28T12:15:33.385Z</time></trkpt><trkpt lat="40.6148083" lon="8.2157817"><ele>20.0</ele><time>2026-03-28T12:15:34.384Z</time></trkpt><trkpt lat="40.6146417" lon="8.2158967"><ele>19.333333333333336</ele><time>2026-03-28T12:15:35.385Z</time></trkpt><trkpt lat="40.6144583" lon="8.215985"><ele>18.666666666666668</ele><time>2026-03-28T12:15:36.385Z</time></trkpt><trkpt lat="40.61426" lon="8.216055"><ele>18.0</ele><time>2026-03-28T12:15:37.385Z</time></trkpt><trkpt lat="40.614055" lon="8.2161183"><ele>18.0</ele><time>2026-03-28T12:15:38.385Z</time></trkpt><trkpt lat="40.6138483" lon="8.2161817"><ele>18.0</ele><time>2026-03-28T12:15:39.385Z</time></trkpt><trkpt lat="40.61364" lon="8.2162733"><ele>18.0</ele><time>2026-03-28T12:15:40.385Z</time></trkpt><trkpt lat="40.6134333" lon="8.2163467"><ele>18.0</ele><time>2026-03-28T12:15:41.384Z</time></trkpt><trkpt lat="40.6132367" lon="8.2164217"><ele>18.0</ele><time>2026-03-28T12:15:42.384Z</time></trkpt><trkpt lat="40.6130233" lon="8.2164967"><ele>18.0</ele><time>2026-03-28T12:15:43.385Z</time></trkpt><trkpt lat="40.6128233" lon="8.216565"><ele>17.666666666666668</ele><time>2026-03-28T12:15:44.385Z</time></trkpt><trkpt lat="40.612625" lon="8.216635"><ele>17.333333333333336</ele><time>2026-03-28T12:15:45.384Z</time></trkpt><trkpt lat="40.61243" lon="8.2167117"><ele>17.0</ele><time>2026-03-28T12:15:46.385Z</time></trkpt><trkpt lat="40.6122483" lon="8.2167783"><ele>17.0</ele><time>2026-03-28T12:15:47.385Z</time></trkpt><trkpt lat="40.6120517" lon="8.2168617"><ele>17.0</ele><time>2026-03-28T12:15:48.385Z</time></trkpt><trkpt lat="40.6118467" lon="8.2169317"><ele>17.0</ele><time>2026-03-28T12:15:49.385Z</time></trkpt><trkpt lat="40.6116533" lon="8.2170083"><ele>17.0</ele><time>2026-03-28T12:15:50.384Z</time></trkpt><trkpt lat="40.611455" lon="8.2170867"><ele>17.0</ele><time>2026-03-28T12:15:51.384Z</time></trkpt><trkpt lat="40.6112583" lon="8.21716"><ele>17.0</ele><time>2026-03-28T12:15:52.385Z</time></trkpt><trkpt lat="40.61106" lon="8.2172333"><ele>17.0</ele><time>2026-03-28T12:15:53.384Z</time></trkpt><trkpt lat="40.6108717" lon="8.2173033"><ele>17.0</ele><time>2026-03-28T12:15:54.384Z</time></trkpt><trkpt lat="40.6106783" lon="8.217385"><ele>17.0</ele><time>2026-03-28T12:15:55.385Z</time></trkpt><trkpt lat="40.610475" lon="8.217455"><ele>16.333333333333336</ele><time>2026-03-28T12:15:56.385Z</time></trkpt><trkpt lat="40.6102817" lon="8.2175233"><ele>15.666666666666668</ele><time>2026-03-28T12:15:57.385Z</time></trkpt><trkpt lat="40.6101017" lon="8.2175867"><ele>15.0</ele><time>2026-03-28T12:15:58.385Z</time></trkpt><trkpt lat="40.6099333" lon="8.2176533"><ele>15.0</ele><time>2026-03-28T12:15:59.385Z</time></trkpt><trkpt lat="40.6097783" lon="8.2177133"><ele>15.0</ele><time>2026-03-28T12:16:00.385Z</time></trkpt><trkpt lat="40.6096367" lon="8.2177767"><ele>15.0</ele><time>2026-03-28T12:16:01.385Z</time></trkpt><trkpt lat="40.60952" lon="8.21782"><ele>15.0</ele><time>2026-03-28T12:16:02.385Z</time></trkpt><trkpt lat="40.6094217" lon="8.21786"><ele>15.0</ele><time>2026-03-28T12:16:03.385Z</time></trkpt><trkpt lat="40.6093467" lon="8.217885"><ele>15.0</ele><time>2026-03-28T12:16:04.385Z</time></trkpt><trkpt lat="40.609275" lon="8.217895"><ele>15.0</ele><time>2026-03-28T12:16:06.384Z</time></trkpt></trkseg><trkseg><trkpt lat="40.608835" lon="8.218025"><ele>15.0</ele><time>2026-03-28T12:34:23.385Z</time></trkpt><trkpt lat="40.6087" lon="8.2181033"><ele>15.0</ele><time>2026-03-28T12:34:25.385Z</time></trkpt><trkpt lat="40.6085817" lon="8.2181533"><ele>15.0</ele><time>2026-03-28T12:34:26.385Z</time></trkpt><trkpt lat="40.608405" lon="8.2182183"><ele>15.0</ele><time>2026-03-28T12:34:27.384Z</time></trkpt><trkpt lat="40.60822" lon="8.21829"><ele>15.0</ele><time>2026-03-28T12:34:28.385Z</time></trkpt><trkpt lat="40.6078617" lon="8.2184267"><ele>15.333333333333332</ele><time>2026-03-28T12:34:30.385Z</time></trkpt><trkpt lat="40.6076817" lon="8.21849"><ele>15.666666666666666</ele><time>2026-03-28T12:34:31.385Z</time></trkpt><trkpt lat="40.6075167" lon="8.2185417"><ele>16.0</ele><time>2026-03-28T12:34:32.385Z</time></trkpt><trkpt lat="40.6073533" lon="8.2185733"><ele>16.0</ele><time>2026-03-28T12:34:33.385Z</time></trkpt><trkpt lat="40.6071883" lon="8.2186267"><ele>16.0</ele><time>2026-03-28T12:34:34.385Z</time></trkpt><trkpt lat="40.6070333" lon="8.2186933"><ele>16.0</ele><time>2026-03-28T12:34:35.385Z</time></trkpt><trkpt lat="40.6068833" lon="8.2187683"><ele>15.666666666666666</ele><time>2026-03-28T12:34:36.385Z</time></trkpt><trkpt lat="40.6067333" lon="8.21884"><ele>15.333333333333332</ele><time>2026-03-28T12:34:37.385Z</time></trkpt><trkpt lat="40.606585" lon="8.21891"><ele>15.0</ele><time>2026-03-28T12:34:38.385Z</time></trkpt><trkpt lat="40.606435" lon="8.2189717"><ele>15.333333333333332</ele><time>2026-03-28T12:34:39.385Z</time></trkpt><trkpt lat="40.6062917" lon="8.2190267"><ele>15.666666666666666</ele><time>2026-03-28T12:34:40.385Z</time></trkpt><trkpt lat="40.6061433" lon="8.2190933"><ele>16.0</ele><time>2026-03-28T12:34:41.385Z</time></trkpt><trkpt lat="40.606" lon="8.219165"><ele>15.333333333333332</ele><time>2026-03-28T12:34:42.385Z</time></trkpt><trkpt lat="40.6058533" lon="8.2192267"><ele>14.666666666666668</ele><time>2026-03-28T12:34:43.385Z</time></trkpt><trkpt lat="40.605695" lon="8.2192883"><ele>14.0</ele><time>2026-03-28T12:34:44.385Z</time></trkpt><trkpt lat="40.6055133" lon="8.2193583"><ele>14.0</ele><time>2026-03-28T12:34:45.385Z</time></trkpt><trkpt lat="40.6053383" lon="8.2194267"><ele>14.0</ele><time>2026-03-28T12:34:46.384Z</time></trkpt><trkpt lat="40.6051533" lon="8.2195"><ele>14.0</ele><time>2026-03-28T12:34:47.385Z</time></trkpt><trkpt lat="40.6049633" lon="8.21956"><ele>13.0</ele><time>2026-03-28T12:34:48.385Z</time></trkpt><trkpt lat="40.6047617" lon="8.2196233"><ele>12.0</ele><time>2026-03-28T12:34:49.385Z</time></trkpt><trkpt lat="40.60457" lon="8.2196933"><ele>11.0</ele><time>2026-03-28T12:34:50.384Z</time></trkpt><trkpt lat="40.60437" lon="8.21976"><ele>10.333333333333332</ele><time>2026-03-28T12:34:51.385Z</time></trkpt><trkpt lat="40.6041733" lon="8.21985"><ele>9.666666666666666</ele><time>2026-03-28T12:34:52.385Z</time></trkpt><trkpt lat="40.6039817" lon="8.21992"><ele>9.0</ele><time>2026-03-28T12:34:53.385Z</time></trkpt><trkpt lat="40.6037867" lon="8.219995"><ele>8.666666666666666</ele><time>2026-03-28T12:34:54.384Z</time></trkpt><trkpt lat="40.603595" lon="8.22007"><ele>8.333333333333332</ele><time>2026-03-28T12:34:55.385Z</time></trkpt><trkpt lat="40.6034033" lon="8.220155"><ele>8.0</ele><time>2026-03-28T12:34:56.384Z</time></trkpt><trkpt lat="40.6032133" lon="8.2202183"><ele>8.0</ele><time>2026-03-28T12:34:57.385Z</time></trkpt><trkpt lat="40.6030217" lon="8.2202817"><ele>8.0</ele><time>2026-03-28T12:34:58.385Z</time></trkpt><trkpt lat="40.6028267" lon="8.2203567"><ele>8.0</ele><time>2026-03-28T12:34:59.384Z</time></trkpt><trkpt lat="40.60264" lon="8.2204317"><ele>8.0</ele><time>2026-03-28T12:35:00.385Z</time></trkpt><trkpt lat="40.6024467" lon="8.2205"><ele>8.0</ele><time>2026-03-28T12:35:01.385Z</time></trkpt><trkpt lat="40.6022533" lon="8.22057"><ele>8.0</ele><time>2026-03-28T12:35:02.384Z</time></trkpt><trkpt lat="40.6020667" lon="8.2206367"><ele>7.333333333333333</ele><time>2026-03-28T12:35:03.385Z</time></trkpt><trkpt lat="40.60188" lon="8.220705"><ele>6.666666666666666</ele><time>2026-03-28T12:35:04.385Z</time></trkpt><trkpt lat="40.6016833" lon="8.22078"><ele>6.0</ele><time>2026-03-28T12:35:05.385Z</time></trkpt><trkpt lat="40.6014983" lon="8.22085"><ele>6.0</ele><time>2026-03-28T12:35:06.385Z</time></trkpt><trkpt lat="40.60131" lon="8.22093"><ele>6.0</ele><time>2026-03-28T12:35:07.385Z</time></trkpt><trkpt lat="40.6011217" lon="8.2210117"><ele>6.0</ele><time>2026-03-28T12:35:08.384Z</time></trkpt><trkpt lat="40.6009383" lon="8.2210783"><ele>7.333333333333334</ele><time>2026-03-28T12:35:09.385Z</time></trkpt><trkpt lat="40.600745" lon="8.2211583"><ele>8.666666666666668</ele><time>2026-03-28T12:35:10.384Z</time></trkpt><trkpt lat="40.6005583" lon="8.2212383"><ele>10.0</ele><time>2026-03-28T12:35:11.384Z</time></trkpt><trkpt lat="40.6003633" lon="8.22131"><ele>10.333333333333334</ele><time>2026-03-28T12:35:12.385Z</time></trkpt><trkpt lat="40.60018" lon="8.22138"><ele>10.666666666666666</ele><time>2026-03-28T12:35:13.384Z</time></trkpt><trkpt lat="40.5999983" lon="8.2214467"><ele>11.0</ele><time>2026-03-28T12:35:14.385Z</time></trkpt><trkpt lat="40.599815" lon="8.2215117"><ele>10.333333333333332</ele><time>2026-03-28T12:35:15.385Z</time></trkpt><trkpt lat="40.5996317" lon="8.2215733"><ele>9.666666666666666</ele><time>2026-03-28T12:35:16.385Z</time></trkpt><trkpt lat="40.5994617" lon="8.2216467"><ele>9.0</ele><time>2026-03-28T12:35:17.385Z</time></trkpt><trkpt lat="40.5992933" lon="8.22172"><ele>9.0</ele><time>2026-03-28T12:35:18.385Z</time></trkpt><trkpt lat="40.599135" lon="8.22178"><ele>9.0</ele><time>2026-03-28T12:35:19.385Z</time></trkpt><trkpt lat="40.5989817" lon="8.2218383"><ele>9.0</ele><time>2026-03-28T12:35:20.385Z</time></trkpt><trkpt lat="40.598835" lon="8.221905"><ele>9.0</ele><time>2026-03-28T12:35:21.385Z</time></trkpt><trkpt lat="40.5986967" lon="8.2219683"><ele>9.0</ele><time>2026-03-28T12:35:22.385Z</time></trkpt><trkpt lat="40.598555" lon="8.22202"><ele>9.0</ele><time>2026-03-28T12:35:23.384Z</time></trkpt><trkpt lat="40.5984333" lon="8.2220567"><ele>9.0</ele><time>2026-03-28T12:35:24.385Z</time></trkpt><trkpt lat="40.5983333" lon="8.2220767"><ele>9.333333333333334</ele><time>2026-03-28T12:35:25.385Z</time></trkpt><trkpt lat="40.5982467" lon="8.2220717"><ele>9.666666666666666</ele><time>2026-03-28T12:35:26.385Z</time></trkpt><trkpt lat="40.5981667" lon="8.2220583"><ele>10.0</ele><time>2026-03-28T12:35:27.385Z</time></trkpt><trkpt lat="40.5980917" lon="8.2220417"><ele>10.333333333333332</ele><time>2026-03-28T12:35:28.385Z</time></trkpt><trkpt lat="40.59802" lon="8.22202"><ele>10.666666666666666</ele><time>2026-03-28T12:35:29.385Z</time></trkpt><trkpt lat="40.59794" lon="8.2219783"><ele>11.0</ele><time>2026-03-28T12:35:30.384Z</time></trkpt><trkpt lat="40.59784" lon="8.22191"><ele>12.0</ele><time>2026-03-28T12:35:31.385Z</time></trkpt><trkpt lat="40.5977133" lon="8.2218133"><ele>13.0</ele><time>2026-03-28T12:35:32.385Z</time></trkpt><trkpt lat="40.59757" lon="8.2217"><ele>14.0</ele><time>2026-03-28T12:35:33.384Z</time></trkpt><trkpt lat="40.597425" lon="8.2215883"><ele>13.666666666666668</ele><time>2026-03-28T12:35:34.385Z</time></trkpt><trkpt lat="40.5972733" lon="8.2214667"><ele>13.333333333333332</ele><time>2026-03-28T12:35:35.385Z</time></trkpt><trkpt lat="40.5971233" lon="8.2213417"><ele>13.0</ele><time>2026-03-28T12:35:36.385Z</time></trkpt><trkpt lat="40.59697" lon="8.2212233"><ele>12.333333333333332</ele><time>2026-03-28T12:35:37.385Z</time></trkpt><trkpt lat="40.5968083" lon="8.221105"><ele>11.666666666666666</ele><time>2026-03-28T12:35:38.385Z</time></trkpt><trkpt lat="40.596645" lon="8.2209917"><ele>11.0</ele><time>2026-03-28T12:35:39.385Z</time></trkpt><trkpt lat="40.5964767" lon="8.22087"><ele>11.0</ele><time>2026-03-28T12:35:40.385Z</time></trkpt><trkpt lat="40.5963017" lon="8.22075"><ele>11.0</ele><time>2026-03-28T12:35:41.385Z</time></trkpt><trkpt lat="40.5961317" lon="8.2206183"><ele>11.0</ele><time>2026-03-28T12:35:42.385Z</time></trkpt><trkpt lat="40.5959667" lon="8.2204883"><ele>9.666666666666666</ele><time>2026-03-28T12:35:43.384Z</time></trkpt><trkpt lat="40.5958117" lon="8.2203633"><ele>8.333333333333334</ele><time>2026-03-28T12:35:44.385Z</time></trkpt><trkpt lat="40.595655" lon="8.2202517"><ele>7.0</ele><time>2026-03-28T12:35:45.385Z</time></trkpt><trkpt lat="40.595505" lon="8.2201483"><ele>7.0</ele><time>2026-03-28T12:35:46.384Z</time></trkpt><trkpt lat="40.5953517" lon="8.220035"><ele>7.0</ele><time>2026-03-28T12:35:47.385Z</time></trkpt><trkpt lat="40.59518" lon="8.2199133"><ele>7.0</ele><time>2026-03-28T12:35:48.385Z</time></trkpt><trkpt lat="40.59502" lon="8.2198033"><ele>6.333333333333334</ele><time>2026-03-28T12:35:49.385Z</time></trkpt><trkpt lat="40.5948567" lon="8.2196867"><ele>5.666666666666667</ele><time>2026-03-28T12:35:50.385Z</time></trkpt><trkpt lat="40.5947217" lon="8.2195783"><ele>5.0</ele><time>2026-03-28T12:35:51.385Z</time></trkpt><trkpt lat="40.5945867" lon="8.2194833"><ele>5.0</ele><time>2026-03-28T12:35:52.385Z</time></trkpt><trkpt lat="40.5944567" lon="8.2193817"><ele>5.0</ele><time>2026-03-28T12:35:53.385Z</time></trkpt><trkpt lat="40.5943217" lon="8.2192867"><ele>5.0</ele><time>2026-03-28T12:35:54.385Z</time></trkpt><trkpt lat="40.5941867" lon="8.219185"><ele>5.0</ele><time>2026-03-28T12:35:55.385Z</time></trkpt><trkpt lat="40.59406" lon="8.2190717"><ele>5.0</ele><time>2026-03-28T12:35:56.385Z</time></trkpt><trkpt lat="40.5939233" lon="8.2189767"><ele>5.0</ele><time>2026-03-28T12:35:57.385Z</time></trkpt><trkpt lat="40.5937867" lon="8.2188883"><ele>5.25</ele><time>2026-03-28T12:35:58.384Z</time></trkpt><trkpt lat="40.5936583" lon="8.218785"><ele>5.5</ele><time>2026-03-28T12:35:59.385Z</time></trkpt><trkpt lat="40.5935417" lon="8.218695"><ele>5.75</ele><time>2026-03-28T12:36:00.384Z</time></trkpt><trkpt lat="40.5934367" lon="8.2185933"><ele>6.0</ele><time>2026-03-28T12:36:01.385Z</time></trkpt><trkpt lat="40.5933333" lon="8.2184933"><ele>6.0</ele><time>2026-03-28T12:36:02.385Z</time></trkpt><trkpt lat="40.59326" lon="8.2184067"><ele>6.0</ele><time>2026-03-28T12:36:03.385Z</time></trkpt><trkpt lat="40.5932117" lon="8.218335"><ele>6.0</ele><time>2026-03-28T12:36:04.385Z</time></trkpt><trkpt lat="40.5931433" lon="8.218265"><ele>6.0</ele><time>2026-03-28T12:36:06.385Z</time></trkpt><trkpt lat="40.5930833" lon="8.2183017"><ele>6.0</ele><time>2026-03-28T12:36:08.385Z</time></trkpt><trkpt lat="40.5930267" lon="8.2184367"><ele>6.0</ele><time>2026-03-28T12:36:10.384Z</time></trkpt><trkpt lat="40.593" lon="8.218525"><ele>6.0</ele><time>2026-03-28T12:36:11.385Z</time></trkpt><trkpt lat="40.59296" lon="8.2186283"><ele>6.0</ele><time>2026-03-28T12:36:12.385Z</time></trkpt><trkpt lat="40.5929117" lon="8.2187333"><ele>6.0</ele><time>2026-03-28T12:36:13.385Z</time></trkpt><trkpt lat="40.5928583" lon="8.218845"><ele>6.0</ele><time>2026-03-28T12:36:14.385Z</time></trkpt><trkpt lat="40.5928067" lon="8.2189567"><ele>6.0</ele><time>2026-03-28T12:36:15.385Z</time></trkpt><trkpt lat="40.592755" lon="8.219075"><ele>6.5</ele><time>2026-03-28T12:36:16.385Z</time></trkpt><trkpt lat="40.5926917" lon="8.2192033"><ele>7.0</ele><time>2026-03-28T12:36:17.385Z</time></trkpt><trkpt lat="40.59263" lon="8.219325"><ele>7.5</ele><time>2026-03-28T12:36:18.385Z</time></trkpt><trkpt lat="40.5925683" lon="8.2194533"><ele>8.0</ele><time>2026-03-28T12:36:19.385Z</time></trkpt><trkpt lat="40.59251" lon="8.2195917"><ele>8.0</ele><time>2026-03-28T12:36:20.385Z</time></trkpt><trkpt lat="40.5924533" lon="8.219745"><ele>8.0</ele><time>2026-03-28T12:36:21.385Z</time></trkpt><trkpt lat="40.592395" lon="8.2199067"><ele>8.0</ele><time>2026-03-28T12:36:22.385Z</time></trkpt><trkpt lat="40.59233" lon="8.220055"><ele>8.0</ele><time>2026-03-28T12:36:23.385Z</time></trkpt><trkpt lat="40.5922683" lon="8.2202083"><ele>8.25</ele><time>2026-03-28T12:36:24.385Z</time></trkpt><trkpt lat="40.592195" lon="8.2203467"><ele>8.5</ele><time>2026-03-28T12:36:25.385Z</time></trkpt><trkpt lat="40.592135" lon="8.220475"><ele>8.75</ele><time>2026-03-28T12:36:26.384Z</time></trkpt><trkpt lat="40.5920717" lon="8.22062"><ele>9.0</ele><time>2026-03-28T12:36:27.385Z</time></trkpt><trkpt lat="40.5920083" lon="8.2207567"><ele>10.0</ele><time>2026-03-28T12:36:28.385Z</time></trkpt><trkpt lat="40.5919467" lon="8.2208867"><ele>11.0</ele><time>2026-03-28T12:36:29.385Z</time></trkpt><trkpt lat="40.59188" lon="8.2210117"><ele>12.0</ele><time>2026-03-28T12:36:30.385Z</time></trkpt><trkpt lat="40.59181" lon="8.22114"><ele>13.0</ele><time>2026-03-28T12:36:31.385Z</time></trkpt><trkpt lat="40.5917483" lon="8.2212783"><ele>13.0</ele><time>2026-03-28T12:36:32.384Z</time></trkpt><trkpt lat="40.5917" lon="8.2214233"><ele>13.0</ele><time>2026-03-28T12:36:33.384Z</time></trkpt><trkpt lat="40.5916467" lon="8.2215683"><ele>13.0</ele><time>2026-03-28T12:36:34.385Z</time></trkpt><trkpt lat="40.5915867" lon="8.2216967"><ele>13.0</ele><time>2026-03-28T12:36:35.385Z</time></trkpt><trkpt lat="40.5915117" lon="8.2218183"><ele>12.75</ele><time>2026-03-28T12:36:36.385Z</time></trkpt><trkpt lat="40.59143" lon="8.22193"><ele>12.5</ele><time>2026-03-28T12:36:37.385Z</time></trkpt><trkpt lat="40.5913433" lon="8.2220483"><ele>12.25</ele><time>2026-03-28T12:36:38.385Z</time></trkpt><trkpt lat="40.5912483" lon="8.22217"><ele>12.0</ele><time>2026-03-28T12:36:39.385Z</time></trkpt><trkpt lat="40.5911467" lon="8.22229"><ele>12.25</ele><time>2026-03-28T12:36:40.385Z</time></trkpt><trkpt lat="40.5910483" lon="8.2224083"><ele>12.5</ele><time>2026-03-28T12:36:41.385Z</time></trkpt><trkpt lat="40.5909617" lon="8.22253"><ele>12.75</ele><time>2026-03-28T12:36:42.385Z</time></trkpt><trkpt lat="40.5908767" lon="8.2226633"><ele>13.0</ele><time>2026-03-28T12:36:43.384Z</time></trkpt><trkpt lat="40.5907967" lon="8.2228033"><ele>13.0</ele><time>2026-03-28T12:36:44.384Z</time></trkpt><trkpt lat="40.5907083" lon="8.2229433"><ele>13.0</ele><time>2026-03-28T12:36:45.385Z</time></trkpt><trkpt lat="40.590635" lon="8.223075"><ele>13.0</ele><time>2026-03-28T12:36:46.385Z</time></trkpt><trkpt lat="40.590565" lon="8.2232017"><ele>13.0</ele><time>2026-03-28T12:36:47.385Z</time></trkpt><trkpt lat="40.5905" lon="8.2233217"><ele>12.600000000000001</ele><time>2026-03-28T12:36:48.384Z</time></trkpt><trkpt lat="40.5904383" lon="8.2234217"><ele>12.200000000000001</ele><time>2026-03-28T12:36:49.385Z</time></trkpt><trkpt lat="40.59038" lon="8.2235433"><ele>11.8</ele><time>2026-03-28T12:36:50.385Z</time></trkpt><trkpt lat="40.590335" lon="8.22367"><ele>11.4</ele><time>2026-03-28T12:36:51.384Z</time></trkpt><trkpt lat="40.5903283" lon="8.223815"><ele>11.0</ele><time>2026-03-28T12:36:52.385Z</time></trkpt><trkpt lat="40.59034" lon="8.2239733"><ele>10.75</ele><time>2026-03-28T12:36:53.384Z</time></trkpt><trkpt lat="40.5903583" lon="8.2241283"><ele>10.5</ele><time>2026-03-28T12:36:54.384Z</time></trkpt><trkpt lat="40.5903667" lon="8.22429"><ele>10.25</ele><time>2026-03-28T12:36:55.385Z</time></trkpt><trkpt lat="40.5903583" lon="8.22445"><ele>10.0</ele><time>2026-03-28T12:36:56.385Z</time></trkpt><trkpt lat="40.590335" lon="8.224615"><ele>10.0</ele><time>2026-03-28T12:36:57.385Z</time></trkpt><trkpt lat="40.5903067" lon="8.2247867"><ele>10.0</ele><time>2026-03-28T12:36:58.385Z</time></trkpt><trkpt lat="40.5902733" lon="8.22496"><ele>10.0</ele><time>2026-03-28T12:36:59.384Z</time></trkpt><trkpt lat="40.590225" lon="8.2251333"><ele>10.0</ele><time>2026-03-28T12:37:00.384Z</time></trkpt><trkpt lat="40.590155" lon="8.2252983"><ele>10.25</ele><time>2026-03-28T12:37:01.385Z</time></trkpt><trkpt lat="40.5900883" lon="8.2254617"><ele>10.5</ele><time>2026-03-28T12:37:02.384Z</time></trkpt><trkpt lat="40.5900167" lon="8.2256183"><ele>10.75</ele><time>2026-03-28T12:37:03.385Z</time></trkpt><trkpt lat="40.58995" lon="8.2257533"><ele>11.0</ele><time>2026-03-28T12:37:04.385Z</time></trkpt><trkpt lat="40.589875" lon="8.2258817"><ele>11.5</ele><time>2026-03-28T12:37:05.385Z</time></trkpt><trkpt lat="40.5897967" lon="8.226015"><ele>12.0</ele><time>2026-03-28T12:37:06.384Z</time></trkpt><trkpt lat="40.5897083" lon="8.2261433"><ele>12.5</ele><time>2026-03-28T12:37:07.384Z</time></trkpt><trkpt lat="40.5896217" lon="8.2262833"><ele>13.0</ele><time>2026-03-28T12:37:08.385Z</time></trkpt><trkpt lat="40.589535" lon="8.2264283"><ele>13.5</ele><time>2026-03-28T12:37:09.385Z</time></trkpt><trkpt lat="40.5894467" lon="8.2265733"><ele>14.0</ele><time>2026-03-28T12:37:10.385Z</time></trkpt><trkpt lat="40.58936" lon="8.226715"><ele>14.5</ele><time>2026-03-28T12:37:11.385Z</time></trkpt><trkpt lat="40.5892683" lon="8.2268683"><ele>15.0</ele><time>2026-03-28T12:37:12.385Z</time></trkpt><trkpt lat="40.5891867" lon="8.226995"><ele>15.0</ele><time>2026-03-28T12:37:13.385Z</time></trkpt><trkpt lat="40.5890933" lon="8.2271333"><ele>15.0</ele><time>2026-03-28T12:37:14.385Z</time></trkpt><trkpt lat="40.5890067" lon="8.2272783"><ele>15.0</ele><time>2026-03-28T12:37:15.385Z</time></trkpt><trkpt lat="40.5889217" lon="8.2274167"><ele>15.0</ele><time>2026-03-28T12:37:16.385Z</time></trkpt><trkpt lat="40.5888333" lon="8.2275533"><ele>15.75</ele><time>2026-03-28T12:37:17.385Z</time></trkpt><trkpt lat="40.5887567" lon="8.2276933"><ele>16.5</ele><time>2026-03-28T12:37:18.385Z</time></trkpt><trkpt lat="40.5886717" lon="8.2278317"><ele>17.25</ele><time>2026-03-28T12:37:19.385Z</time></trkpt><trkpt lat="40.5885833" lon="8.22798"><ele>18.0</ele><time>2026-03-28T12:37:20.385Z</time></trkpt><trkpt lat="40.5885017" lon="8.2281267"><ele>18.25</ele><time>2026-03-28T12:37:21.385Z</time></trkpt><trkpt lat="40.5884133" lon="8.2282683"><ele>18.5</ele><time>2026-03-28T12:37:22.385Z</time></trkpt><trkpt lat="40.5883333" lon="8.2283983"><ele>18.75</ele><time>2026-03-28T12:37:23.385Z</time></trkpt><trkpt lat="40.5882483" lon="8.228535"><ele>19.0</ele><time>2026-03-28T12:37:24.384Z</time></trkpt><trkpt lat="40.5881617" lon="8.2286833"><ele>19.0</ele><time>2026-03-28T12:37:25.385Z</time></trkpt><trkpt lat="40.58809" lon="8.2288167"><ele>19.0</ele><time>2026-03-28T12:37:26.385Z</time></trkpt><trkpt lat="40.588025" lon="8.22893"><ele>19.0</ele><time>2026-03-28T12:37:27.385Z</time></trkpt><trkpt lat="40.5879733" lon="8.229035"><ele>19.0</ele><time>2026-03-28T12:37:28.385Z</time></trkpt><trkpt lat="40.587915" lon="8.2291283"><ele>19.0</ele><time>2026-03-28T12:37:29.384Z</time></trkpt><trkpt lat="40.58786" lon="8.229205"><ele>19.428571428571427</ele><time>2026-03-28T12:37:30.385Z</time></trkpt><trkpt lat="40.5878117" lon="8.2292767"><ele>19.857142857142858</ele><time>2026-03-28T12:37:31.385Z</time></trkpt><trkpt lat="40.5877683" lon="8.2293417"><ele>20.285714285714285</ele><time>2026-03-28T12:37:32.385Z</time></trkpt><trkpt lat="40.5876917" lon="8.2293983"><ele>20.714285714285715</ele><time>2026-03-28T12:37:34.385Z</time></trkpt><trkpt lat="40.5876333" lon="8.229365"><ele>21.142857142857142</ele><time>2026-03-28T12:37:36.385Z</time></trkpt><trkpt lat="40.5875933" lon="8.229295"><ele>21.571428571428573</ele><time>2026-03-28T12:37:37.384Z</time></trkpt><trkpt lat="40.587545" lon="8.229215"><ele>22.0</ele><time>2026-03-28T12:37:38.385Z</time></trkpt><trkpt lat="40.5874867" lon="8.22912"><ele>22.0</ele><time>2026-03-28T12:37:39.385Z</time></trkpt><trkpt lat="40.5874217" lon="8.2290067"><ele>22.0</ele><time>2026-03-28T12:37:40.385Z</time></trkpt><trkpt lat="40.5873433" lon="8.2288867"><ele>22.0</ele><time>2026-03-28T12:37:41.384Z</time></trkpt><trkpt lat="40.5872683" lon="8.2287617"><ele>22.0</ele><time>2026-03-28T12:37:42.385Z</time></trkpt><trkpt lat="40.5871917" lon="8.22863"><ele>21.5</ele><time>2026-03-28T12:37:43.385Z</time></trkpt><trkpt lat="40.5871283" lon="8.2285067"><ele>21.0</ele><time>2026-03-28T12:37:44.385Z</time></trkpt><trkpt lat="40.587075" lon="8.22838"><ele>20.5</ele><time>2026-03-28T12:37:45.385Z</time></trkpt><trkpt lat="40.5870317" lon="8.228245"><ele>20.0</ele><time>2026-03-28T12:37:46.385Z</time></trkpt><trkpt lat="40.5869983" lon="8.2280967"><ele>19.25</ele><time>2026-03-28T12:37:47.385Z</time></trkpt><trkpt lat="40.5869717" lon="8.2279367"><ele>18.5</ele><time>2026-03-28T12:37:48.384Z</time></trkpt><trkpt lat="40.5869517" lon="8.22778"><ele>17.75</ele><time>2026-03-28T12:37:49.384Z</time></trkpt><trkpt lat="40.58694" lon="8.22761"><ele>17.0</ele><time>2026-03-28T12:37:50.384Z</time></trkpt><trkpt lat="40.5869417" lon="8.227445"><ele>16.75</ele><time>2026-03-28T12:37:51.385Z</time></trkpt><trkpt lat="40.5869367" lon="8.2272667"><ele>16.5</ele><time>2026-03-28T12:37:52.384Z</time></trkpt><trkpt lat="40.58693" lon="8.227085"><ele>16.25</ele><time>2026-03-28T12:37:53.384Z</time></trkpt><trkpt lat="40.58692" lon="8.2269033"><ele>16.0</ele><time>2026-03-28T12:37:54.385Z</time></trkpt><trkpt lat="40.58691" lon="8.226725"><ele>16.0</ele><time>2026-03-28T12:37:55.384Z</time></trkpt><trkpt lat="40.5868933" lon="8.2265517"><ele>16.0</ele><time>2026-03-28T12:37:56.385Z</time></trkpt><trkpt lat="40.5868667" lon="8.2263817"><ele>16.0</ele><time>2026-03-28T12:37:57.385Z</time></trkpt><trkpt lat="40.58683" lon="8.226205"><ele>16.0</ele><time>2026-03-28T12:37:58.385Z</time></trkpt><trkpt lat="40.586785" lon="8.2260317"><ele>15.75</ele><time>2026-03-28T12:37:59.385Z</time></trkpt><trkpt lat="40.586735" lon="8.2258767"><ele>15.5</ele><time>2026-03-28T12:38:00.385Z</time></trkpt><trkpt lat="40.5866667" lon="8.22573"><ele>15.25</ele><time>2026-03-28T12:38:01.385Z</time></trkpt><trkpt lat="40.586575" lon="8.2256067"><ele>15.0</ele><time>2026-03-28T12:38:02.385Z</time></trkpt><trkpt lat="40.586475" lon="8.2254967"><ele>15.5</ele><time>2026-03-28T12:38:03.385Z</time></trkpt><trkpt lat="40.586365" lon="8.2253667"><ele>16.0</ele><time>2026-03-28T12:38:04.385Z</time></trkpt><trkpt lat="40.5862667" lon="8.2252517"><ele>16.5</ele><time>2026-03-28T12:38:05.385Z</time></trkpt><trkpt lat="40.586165" lon="8.2251233"><ele>17.0</ele><time>2026-03-28T12:38:06.385Z</time></trkpt><trkpt lat="40.58607" lon="8.225005"><ele>18.0</ele><time>2026-03-28T12:38:07.385Z</time></trkpt><trkpt lat="40.585985" lon="8.2248917"><ele>19.0</ele><time>2026-03-28T12:38:08.384Z</time></trkpt><trkpt lat="40.5858983" lon="8.2247833"><ele>20.0</ele><time>2026-03-28T12:38:09.384Z</time></trkpt><trkpt lat="40.585815" lon="8.2246817"><ele>21.0</ele><time>2026-03-28T12:38:10.384Z</time></trkpt><trkpt lat="40.585725" lon="8.2245783"><ele>21.6</ele><time>2026-03-28T12:38:11.385Z</time></trkpt><trkpt lat="40.585645" lon="8.2244717"><ele>22.200000000000003</ele><time>2026-03-28T12:38:12.384Z</time></trkpt><trkpt lat="40.5855667" lon="8.224365"><ele>22.799999999999997</ele><time>2026-03-28T12:38:13.384Z</time></trkpt><trkpt lat="40.5855033" lon="8.2242633"><ele>23.4</ele><time>2026-03-28T12:38:14.384Z</time></trkpt><trkpt lat="40.5854367" lon="8.2241683"><ele>24.0</ele><time>2026-03-28T12:38:15.385Z</time></trkpt><trkpt lat="40.585385" lon="8.2240917"><ele>25.0</ele><time>2026-03-28T12:38:16.384Z</time></trkpt><trkpt lat="40.585335" lon="8.2240017"><ele>26.0</ele><time>2026-03-28T12:38:18.385Z</time></trkpt><trkpt lat="40.5852667" lon="8.2240167"><ele>27.0</ele><time>2026-03-28T12:38:22.384Z</time></trkpt><trkpt lat="40.5851767" lon="8.2241183"><ele>28.0</ele><time>2026-03-28T12:38:24.385Z</time></trkpt><trkpt lat="40.5851183" lon="8.2241983"><ele>29.0</ele><time>2026-03-28T12:38:25.385Z</time></trkpt><trkpt lat="40.5850533" lon="8.2243"><ele>29.0</ele><time>2026-03-28T12:38:26.385Z</time></trkpt><trkpt lat="40.584985" lon="8.2244017"><ele>29.0</ele><time>2026-03-28T12:38:27.385Z</time></trkpt><trkpt lat="40.5849167" lon="8.2245183"><ele>29.0</ele><time>2026-03-28T12:38:28.385Z</time></trkpt><trkpt lat="40.5848483" lon="8.224635"><ele>29.0</ele><time>2026-03-28T12:38:29.385Z</time></trkpt><trkpt lat="40.58478" lon="8.2247433"><ele>29.0</ele><time>2026-03-28T12:38:30.385Z</time></trkpt><trkpt lat="40.5846917" lon="8.2248583"><ele>28.5</ele><time>2026-03-28T12:38:31.384Z</time></trkpt><trkpt lat="40.5846" lon="8.22498"><ele>28.0</ele><time>2026-03-28T12:38:32.385Z</time></trkpt><trkpt lat="40.5845083" lon="8.2250983"><ele>27.5</ele><time>2026-03-28T12:38:33.385Z</time></trkpt><trkpt lat="40.584425" lon="8.2252117"><ele>27.0</ele><time>2026-03-28T12:38:34.385Z</time></trkpt><trkpt lat="40.5843467" lon="8.2253183"><ele>27.5</ele><time>2026-03-28T12:38:35.385Z</time></trkpt><trkpt lat="40.584265" lon="8.2254517"><ele>28.0</ele><time>2026-03-28T12:38:36.385Z</time></trkpt><trkpt lat="40.5841717" lon="8.2255767"><ele>28.5</ele><time>2026-03-28T12:38:37.385Z</time></trkpt><trkpt lat="40.5840783" lon="8.2256983"><ele>29.0</ele><time>2026-03-28T12:38:38.385Z</time></trkpt><trkpt lat="40.5839767" lon="8.2258167"><ele>29.0</ele><time>2026-03-28T12:38:39.385Z</time></trkpt><trkpt lat="40.5838833" lon="8.225945"><ele>29.0</ele><time>2026-03-28T12:38:40.385Z</time></trkpt><trkpt lat="40.5837917" lon="8.2260667"><ele>29.0</ele><time>2026-03-28T12:38:41.385Z</time></trkpt><trkpt lat="40.583695" lon="8.22619"><ele>29.0</ele><time>2026-03-28T12:38:42.384Z</time></trkpt><trkpt lat="40.5836133" lon="8.2263167"><ele>30.0</ele><time>2026-03-28T12:38:43.385Z</time></trkpt><trkpt lat="40.5835083" lon="8.2264617"><ele>31.0</ele><time>2026-03-28T12:38:44.385Z</time></trkpt><trkpt lat="40.583415" lon="8.2265767"><ele>32.0</ele><time>2026-03-28T12:38:45.384Z</time></trkpt><trkpt lat="40.5833167" lon="8.226715"><ele>33.0</ele><time>2026-03-28T12:38:46.385Z</time></trkpt><trkpt lat="40.5832183" lon="8.2268533"><ele>33.0</ele><time>2026-03-28T12:38:47.385Z</time></trkpt><trkpt lat="40.5831183" lon="8.2269917"><ele>33.0</ele><time>2026-03-28T12:38:48.385Z</time></trkpt><trkpt lat="40.5830217" lon="8.2271283"><ele>33.0</ele><time>2026-03-28T12:38:49.384Z</time></trkpt><trkpt lat="40.5829217" lon="8.22726"><ele>33.0</ele><time>2026-03-28T12:38:50.385Z</time></trkpt><trkpt lat="40.5828267" lon="8.2274"><ele>35.5</ele><time>2026-03-28T12:38:51.384Z</time></trkpt><trkpt lat="40.582735" lon="8.2275367"><ele>38.0</ele><time>2026-03-28T12:38:52.385Z</time></trkpt><trkpt lat="40.5826417" lon="8.22768"><ele>40.5</ele><time>2026-03-28T12:38:53.385Z</time></trkpt><trkpt lat="40.5825583" lon="8.2278167"><ele>43.0</ele><time>2026-03-28T12:38:54.384Z</time></trkpt><trkpt lat="40.58247" lon="8.22797"><ele>43.0</ele><time>2026-03-28T12:38:55.385Z</time></trkpt><trkpt lat="40.582375" lon="8.228115"><ele>43.0</ele><time>2026-03-28T12:38:56.385Z</time></trkpt><trkpt lat="40.5822667" lon="8.22827"><ele>43.0</ele><time>2026-03-28T12:38:57.385Z</time></trkpt><trkpt lat="40.582155" lon="8.2284167"><ele>43.333333333333336</ele><time>2026-03-28T12:38:58.385Z</time></trkpt><trkpt lat="40.5820467" lon="8.2285533"><ele>43.666666666666664</ele><time>2026-03-28T12:38:59.385Z</time></trkpt><trkpt lat="40.5819383" lon="8.2286883"><ele>44.0</ele><time>2026-03-28T12:39:00.385Z</time></trkpt><trkpt lat="40.58184" lon="8.22884"><ele>43.0</ele><time>2026-03-28T12:39:01.385Z</time></trkpt><trkpt lat="40.5817317" lon="8.228985"><ele>42.0</ele><time>2026-03-28T12:39:02.385Z</time></trkpt><trkpt lat="40.58161" lon="8.22912"><ele>41.0</ele><time>2026-03-28T12:39:03.385Z</time></trkpt><trkpt lat="40.5814983" lon="8.2292717"><ele>41.0</ele><time>2026-03-28T12:39:04.385Z</time></trkpt><trkpt lat="40.58138" lon="8.2294183"><ele>41.0</ele><time>2026-03-28T12:39:05.384Z</time></trkpt><trkpt lat="40.581265" lon="8.229575"><ele>41.0</ele><time>2026-03-28T12:39:06.385Z</time></trkpt><trkpt lat="40.5811517" lon="8.2297183"><ele>40.0</ele><time>2026-03-28T12:39:07.385Z</time></trkpt><trkpt lat="40.5810417" lon="8.229865"><ele>39.0</ele><time>2026-03-28T12:39:08.385Z</time></trkpt><trkpt lat="40.580925" lon="8.230005"><ele>38.0</ele><time>2026-03-28T12:39:09.385Z</time></trkpt><trkpt lat="40.580815" lon="8.2301467"><ele>38.0</ele><time>2026-03-28T12:39:10.385Z</time></trkpt><trkpt lat="40.5807067" lon="8.230285"><ele>38.0</ele><time>2026-03-28T12:39:11.385Z</time></trkpt><trkpt lat="40.5805967" lon="8.2304217"><ele>38.0</ele><time>2026-03-28T12:39:12.385Z</time></trkpt><trkpt lat="40.5804917" lon="8.2305433"><ele>38.0</ele><time>2026-03-28T12:39:13.385Z</time></trkpt><trkpt lat="40.5803983" lon="8.2306733"><ele>36.75</ele><time>2026-03-28T12:39:14.385Z</time></trkpt><trkpt lat="40.5803067" lon="8.2308083"><ele>35.5</ele><time>2026-03-28T12:39:15.385Z</time></trkpt><trkpt lat="40.5802117" lon="8.23093"><ele>34.25</ele><time>2026-03-28T12:39:16.385Z</time></trkpt><trkpt lat="40.58013" lon="8.231055"><ele>33.0</ele><time>2026-03-28T12:39:17.385Z</time></trkpt><trkpt lat="40.58007" lon="8.2311867"><ele>33.0</ele><time>2026-03-28T12:39:18.385Z</time></trkpt><trkpt lat="40.5800233" lon="8.2313333"><ele>33.0</ele><time>2026-03-28T12:39:19.384Z</time></trkpt><trkpt lat="40.57998" lon="8.2314817"><ele>33.0</ele><time>2026-03-28T12:39:20.385Z</time></trkpt><trkpt lat="40.5799483" lon="8.2316367"><ele>33.0</ele><time>2026-03-28T12:39:21.385Z</time></trkpt><trkpt lat="40.579915" lon="8.23179"><ele>32.5</ele><time>2026-03-28T12:39:22.384Z</time></trkpt><trkpt lat="40.5799067" lon="8.2319433"><ele>32.0</ele><time>2026-03-28T12:39:23.385Z</time></trkpt><trkpt lat="40.579915" lon="8.2320933"><ele>31.5</ele><time>2026-03-28T12:39:24.384Z</time></trkpt><trkpt lat="40.5799267" lon="8.2322467"><ele>31.0</ele><time>2026-03-28T12:39:25.385Z</time></trkpt><trkpt lat="40.579945" lon="8.2323967"><ele>31.0</ele><time>2026-03-28T12:39:26.385Z</time></trkpt><trkpt lat="40.5799783" lon="8.232555"><ele>31.0</ele><time>2026-03-28T12:39:27.385Z</time></trkpt><trkpt lat="40.5800267" lon="8.232705"><ele>31.0</ele><time>2026-03-28T12:39:28.385Z</time></trkpt><trkpt lat="40.580095" lon="8.2328417"><ele>31.0</ele><time>2026-03-28T12:39:29.385Z</time></trkpt><trkpt lat="40.5801483" lon="8.2329767"><ele>31.0</ele><time>2026-03-28T12:39:30.385Z</time></trkpt><trkpt lat="40.5801783" lon="8.2331133"><ele>31.0</ele><time>2026-03-28T12:39:31.384Z</time></trkpt><trkpt lat="40.5801933" lon="8.2332633"><ele>31.0</ele><time>2026-03-28T12:39:32.384Z</time></trkpt><trkpt lat="40.5801833" lon="8.2334133"><ele>31.0</ele><time>2026-03-28T12:39:33.385Z</time></trkpt><trkpt lat="40.5801533" lon="8.2335667"><ele>32.0</ele><time>2026-03-28T12:39:34.385Z</time></trkpt><trkpt lat="40.5801067" lon="8.233715"><ele>33.0</ele><time>2026-03-28T12:39:35.384Z</time></trkpt><trkpt lat="40.5800533" lon="8.2338467"><ele>34.0</ele><time>2026-03-28T12:39:36.384Z</time></trkpt><trkpt lat="40.5799833" lon="8.23397"><ele>35.0</ele><time>2026-03-28T12:39:37.385Z</time></trkpt><trkpt lat="40.57991" lon="8.23409"><ele>35.75</ele><time>2026-03-28T12:39:38.385Z</time></trkpt><trkpt lat="40.5798233" lon="8.234215"><ele>36.5</ele><time>2026-03-28T12:39:39.384Z</time></trkpt><trkpt lat="40.579735" lon="8.2343483"><ele>37.25</ele><time>2026-03-28T12:39:40.385Z</time></trkpt><trkpt lat="40.5796367" lon="8.23449"><ele>38.0</ele><time>2026-03-28T12:39:41.385Z</time></trkpt><trkpt lat="40.5795383" lon="8.23464"><ele>37.666666666666664</ele><time>2026-03-28T12:39:42.384Z</time></trkpt><trkpt lat="40.5794467" lon="8.2347967"><ele>37.333333333333336</ele><time>2026-03-28T12:39:43.385Z</time></trkpt><trkpt lat="40.5793433" lon="8.23496"><ele>37.0</ele><time>2026-03-28T12:39:44.385Z</time></trkpt><trkpt lat="40.5792517" lon="8.235115"><ele>37.0</ele><time>2026-03-28T12:39:45.385Z</time></trkpt><trkpt lat="40.5791633" lon="8.2352717"><ele>37.0</ele><time>2026-03-28T12:39:46.385Z</time></trkpt><trkpt lat="40.5790633" lon="8.2354333"><ele>37.0</ele><time>2026-03-28T12:39:47.384Z</time></trkpt><trkpt lat="40.57897" lon="8.2355833"><ele>37.66666666666667</ele><time>2026-03-28T12:39:48.385Z</time></trkpt><trkpt lat="40.5788717" lon="8.23574"><ele>38.333333333333336</ele><time>2026-03-28T12:39:49.385Z</time></trkpt><trkpt lat="40.5787767" lon="8.235895"><ele>39.0</ele><time>2026-03-28T12:39:50.385Z</time></trkpt><trkpt lat="40.578675" lon="8.2360583"><ele>38.333333333333336</ele><time>2026-03-28T12:39:51.385Z</time></trkpt><trkpt lat="40.5785733" lon="8.2362383"><ele>37.66666666666667</ele><time>2026-03-28T12:39:52.384Z</time></trkpt><trkpt lat="40.5784733" lon="8.2364017"><ele>37.0</ele><time>2026-03-28T12:39:53.384Z</time></trkpt><trkpt lat="40.5783783" lon="8.236565"><ele>37.0</ele><time>2026-03-28T12:39:54.385Z</time></trkpt><trkpt lat="40.5782867" lon="8.2367217"><ele>37.0</ele><time>2026-03-28T12:39:55.384Z</time></trkpt><trkpt lat="40.5781933" lon="8.2368883"><ele>37.0</ele><time>2026-03-28T12:39:56.385Z</time></trkpt><trkpt lat="40.578095" lon="8.2370567"><ele>37.0</ele><time>2026-03-28T12:39:57.385Z</time></trkpt><trkpt lat="40.57799" lon="8.2372133"><ele>37.0</ele><time>2026-03-28T12:39:58.385Z</time></trkpt><trkpt lat="40.57789" lon="8.23738"><ele>37.0</ele><time>2026-03-28T12:39:59.384Z</time></trkpt><trkpt lat="40.5777833" lon="8.2375517"><ele>36.0</ele><time>2026-03-28T12:40:00.385Z</time></trkpt><trkpt lat="40.577685" lon="8.2377217"><ele>35.0</ele><time>2026-03-28T12:40:01.385Z</time></trkpt><trkpt lat="40.5775833" lon="8.2378917"><ele>34.0</ele><time>2026-03-28T12:40:02.385Z</time></trkpt><trkpt lat="40.5774833" lon="8.2380483"><ele>34.333333333333336</ele><time>2026-03-28T12:40:03.385Z</time></trkpt><trkpt lat="40.57738" lon="8.23822"><ele>34.666666666666664</ele><time>2026-03-28T12:40:04.385Z</time></trkpt><trkpt lat="40.5772767" lon="8.2383867"><ele>35.0</ele><time>2026-03-28T12:40:05.385Z</time></trkpt><trkpt lat="40.5771733" lon="8.2385467"><ele>35.0</ele><time>2026-03-28T12:40:06.385Z</time></trkpt><trkpt lat="40.57707" lon="8.2387117"><ele>35.0</ele><time>2026-03-28T12:40:07.385Z</time></trkpt><trkpt lat="40.57697" lon="8.2388733"><ele>35.0</ele><time>2026-03-28T12:40:08.385Z</time></trkpt><trkpt lat="40.5768783" lon="8.23902"><ele>33.666666666666664</ele><time>2026-03-28T12:40:09.385Z</time></trkpt><trkpt lat="40.57678" lon="8.2391817"><ele>32.333333333333336</ele><time>2026-03-28T12:40:10.384Z</time></trkpt><trkpt lat="40.5766733" lon="8.2393333"><ele>31.0</ele><time>2026-03-28T12:40:11.385Z</time></trkpt><trkpt lat="40.5765817" lon="8.2395133"><ele>31.0</ele><time>2026-03-28T12:40:12.385Z</time></trkpt><trkpt lat="40.5764817" lon="8.239675"><ele>31.0</ele><time>2026-03-28T12:40:13.385Z</time></trkpt><trkpt lat="40.5763917" lon="8.239835"><ele>31.0</ele><time>2026-03-28T12:40:14.385Z</time></trkpt><trkpt lat="40.57629" lon="8.23999"><ele>31.333333333333336</ele><time>2026-03-28T12:40:15.385Z</time></trkpt><trkpt lat="40.57619" lon="8.240155"><ele>31.666666666666664</ele><time>2026-03-28T12:40:16.385Z</time></trkpt><trkpt lat="40.576085" lon="8.2403267"><ele>32.0</ele><time>2026-03-28T12:40:17.385Z</time></trkpt><trkpt lat="40.57599" lon="8.2404817"><ele>31.0</ele><time>2026-03-28T12:40:18.385Z</time></trkpt><trkpt lat="40.5758917" lon="8.24065"><ele>30.0</ele><time>2026-03-28T12:40:19.385Z</time></trkpt><trkpt lat="40.5757967" lon="8.2408083"><ele>29.0</ele><time>2026-03-28T12:40:20.385Z</time></trkpt><trkpt lat="40.5757133" lon="8.2409517"><ele>29.0</ele><time>2026-03-28T12:40:21.385Z</time></trkpt><trkpt lat="40.575625" lon="8.2411183"><ele>29.0</ele><time>2026-03-28T12:40:22.385Z</time></trkpt><trkpt lat="40.5755267" lon="8.2412867"><ele>29.0</ele><time>2026-03-28T12:40:23.385Z</time></trkpt><trkpt lat="40.5754333" lon="8.241445"><ele>28.0</ele><time>2026-03-28T12:40:24.384Z</time></trkpt><trkpt lat="40.57533" lon="8.2415833"><ele>27.0</ele><time>2026-03-28T12:40:25.384Z</time></trkpt><trkpt lat="40.5752133" lon="8.241695"><ele>26.0</ele><time>2026-03-28T12:40:26.385Z</time></trkpt><trkpt lat="40.5750783" lon="8.2417983"><ele>25.0</ele><time>2026-03-28T12:40:27.385Z</time></trkpt><trkpt lat="40.57493" lon="8.24187"><ele>25.0</ele><time>2026-03-28T12:40:28.385Z</time></trkpt><trkpt lat="40.57479" lon="8.2419483"><ele>25.0</ele><time>2026-03-28T12:40:29.385Z</time></trkpt><trkpt lat="40.5746533" lon="8.24204"><ele>25.0</ele><time>2026-03-28T12:40:30.384Z</time></trkpt><trkpt lat="40.5745333" lon="8.242145"><ele>24.5</ele><time>2026-03-28T12:40:31.385Z</time></trkpt><trkpt lat="40.5744217" lon="8.2422633"><ele>24.0</ele><time>2026-03-28T12:40:32.384Z</time></trkpt><trkpt lat="40.57432" lon="8.2423917"><ele>23.5</ele><time>2026-03-28T12:40:33.385Z</time></trkpt><trkpt lat="40.57423" lon="8.2425267"><ele>23.0</ele><time>2026-03-28T12:40:34.385Z</time></trkpt><trkpt lat="40.57417" lon="8.242665"><ele>24.5</ele><time>2026-03-28T12:40:35.385Z</time></trkpt><trkpt lat="40.5741183" lon="8.2427967"><ele>26.0</ele><time>2026-03-28T12:40:36.385Z</time></trkpt><trkpt lat="40.5740867" lon="8.2429383"><ele>27.5</ele><time>2026-03-28T12:40:37.384Z</time></trkpt><trkpt lat="40.5740767" lon="8.2431033"><ele>29.0</ele><time>2026-03-28T12:40:38.385Z</time></trkpt><trkpt lat="40.5740833" lon="8.2432867"><ele>29.5</ele><time>2026-03-28T12:40:39.385Z</time></trkpt><trkpt lat="40.5740867" lon="8.2434667"><ele>30.0</ele><time>2026-03-28T12:40:40.385Z</time></trkpt><trkpt lat="40.5740917" lon="8.2436367"><ele>30.5</ele><time>2026-03-28T12:40:41.385Z</time></trkpt><trkpt lat="40.574095" lon="8.2437867"><ele>31.0</ele><time>2026-03-28T12:40:42.384Z</time></trkpt><trkpt lat="40.5740983" lon="8.243905"><ele>30.166666666666668</ele><time>2026-03-28T12:40:43.385Z</time></trkpt><trkpt lat="40.5741" lon="8.244"><ele>29.333333333333336</ele><time>2026-03-28T12:40:44.385Z</time></trkpt><trkpt lat="40.574175" lon="8.2441117"><ele>28.5</ele><time>2026-03-28T12:40:46.384Z</time></trkpt><trkpt lat="40.57424" lon="8.2441383"><ele>27.666666666666664</ele><time>2026-03-28T12:40:47.385Z</time></trkpt><trkpt lat="40.5743133" lon="8.2441433"><ele>26.833333333333332</ele><time>2026-03-28T12:40:48.385Z</time></trkpt><trkpt lat="40.5743917" lon="8.244135"><ele>26.0</ele><time>2026-03-28T12:40:49.384Z</time></trkpt><trkpt lat="40.5744817" lon="8.2441283"><ele>26.8</ele><time>2026-03-28T12:40:50.385Z</time></trkpt><trkpt lat="40.5745733" lon="8.244135"><ele>27.6</ele><time>2026-03-28T12:40:51.385Z</time></trkpt><trkpt lat="40.574675" lon="8.2441567"><ele>28.4</ele><time>2026-03-28T12:40:52.385Z</time></trkpt><trkpt lat="40.5747767" lon="8.24419"><ele>29.2</ele><time>2026-03-28T12:40:53.385Z</time></trkpt><trkpt lat="40.5748783" lon="8.2442233"><ele>30.0</ele><time>2026-03-28T12:40:54.385Z</time></trkpt><trkpt lat="40.5749683" lon="8.24426"><ele>30.0</ele><time>2026-03-28T12:40:55.385Z</time></trkpt><trkpt lat="40.575035" lon="8.244315"><ele>30.0</ele><time>2026-03-28T12:40:56.385Z</time></trkpt><trkpt lat="40.5750683" lon="8.244415"><ele>30.0</ele><time>2026-03-28T12:40:57.385Z</time></trkpt><trkpt lat="40.5750733" lon="8.2445417"><ele>30.0</ele><time>2026-03-28T12:40:58.385Z</time></trkpt><trkpt lat="40.5750733" lon="8.2446783"><ele>30.0</ele><time>2026-03-28T12:40:59.384Z</time></trkpt><trkpt lat="40.5750833" lon="8.2448133"><ele>28.6</ele><time>2026-03-28T12:41:00.384Z</time></trkpt><trkpt lat="40.5751117" lon="8.2449233"><ele>27.2</ele><time>2026-03-28T12:41:01.384Z</time></trkpt><trkpt lat="40.57516" lon="8.24502"><ele>25.799999999999997</ele><time>2026-03-28T12:41:02.384Z</time></trkpt><trkpt lat="40.5752333" lon="8.24509"><ele>24.4</ele><time>2026-03-28T12:41:03.385Z</time></trkpt><trkpt lat="40.57532" lon="8.2451383"><ele>23.0</ele><time>2026-03-28T12:41:04.385Z</time></trkpt><trkpt lat="40.5754233" lon="8.2451567"><ele>23.0</ele><time>2026-03-28T12:41:05.384Z</time></trkpt><trkpt lat="40.57553" lon="8.2451633"><ele>23.0</ele><time>2026-03-28T12:41:06.385Z</time></trkpt><trkpt lat="40.575635" lon="8.2451783"><ele>23.0</ele><time>2026-03-28T12:41:07.385Z</time></trkpt><trkpt lat="40.5757317" lon="8.2451867"><ele>23.0</ele><time>2026-03-28T12:41:08.385Z</time></trkpt><trkpt lat="40.5758283" lon="8.24521"><ele>23.0</ele><time>2026-03-28T12:41:09.385Z</time></trkpt><trkpt lat="40.575925" lon="8.2452283"><ele>23.0</ele><time>2026-03-28T12:41:10.384Z</time></trkpt><trkpt lat="40.5760233" lon="8.245245"><ele>23.0</ele><time>2026-03-28T12:41:11.385Z</time></trkpt><trkpt lat="40.576115" lon="8.2452317"><ele>23.0</ele><time>2026-03-28T12:41:12.385Z</time></trkpt><trkpt lat="40.5762117" lon="8.2451983"><ele>23.0</ele><time>2026-03-28T12:41:13.385Z</time></trkpt><trkpt lat="40.5763167" lon="8.245165"><ele>23.0</ele><time>2026-03-28T12:41:14.385Z</time></trkpt><trkpt lat="40.5764317" lon="8.2451283"><ele>21.75</ele><time>2026-03-28T12:41:15.385Z</time></trkpt><trkpt lat="40.5765517" lon="8.245095"><ele>20.5</ele><time>2026-03-28T12:41:16.384Z</time></trkpt><trkpt lat="40.5766683" lon="8.245065"><ele>19.25</ele><time>2026-03-28T12:41:17.385Z</time></trkpt><trkpt lat="40.576785" lon="8.245055"><ele>18.0</ele><time>2026-03-28T12:41:18.385Z</time></trkpt><trkpt lat="40.5769017" lon="8.245045"><ele>18.0</ele><time>2026-03-28T12:41:19.385Z</time></trkpt><trkpt lat="40.5770167" lon="8.2450533"><ele>18.0</ele><time>2026-03-28T12:41:20.385Z</time></trkpt><trkpt lat="40.5771283" lon="8.245065"><ele>18.0</ele><time>2026-03-28T12:41:21.385Z</time></trkpt><trkpt lat="40.5772433" lon="8.245065"><ele>18.0</ele><time>2026-03-28T12:41:22.384Z</time></trkpt><trkpt lat="40.5773583" lon="8.2450633"><ele>17.6</ele><time>2026-03-28T12:41:23.385Z</time></trkpt><trkpt lat="40.5774717" lon="8.2450583"><ele>17.200000000000003</ele><time>2026-03-28T12:41:24.385Z</time></trkpt><trkpt lat="40.5775833" lon="8.2450583"><ele>16.8</ele><time>2026-03-28T12:41:25.385Z</time></trkpt><trkpt lat="40.57769" lon="8.24507"><ele>16.400000000000002</ele><time>2026-03-28T12:41:26.385Z</time></trkpt><trkpt lat="40.5777967" lon="8.245065"><ele>16.0</ele><time>2026-03-28T12:41:27.385Z</time></trkpt><trkpt lat="40.5779" lon="8.2450667"><ele>15.600000000000001</ele><time>2026-03-28T12:41:28.385Z</time></trkpt><trkpt lat="40.5780067" lon="8.245085"><ele>15.200000000000001</ele><time>2026-03-28T12:41:29.384Z</time></trkpt><trkpt lat="40.5781117" lon="8.245125"><ele>14.799999999999999</ele><time>2026-03-28T12:41:30.384Z</time></trkpt><trkpt lat="40.5782017" lon="8.2451583"><ele>14.399999999999999</ele><time>2026-03-28T12:41:31.385Z</time></trkpt><trkpt lat="40.5782983" lon="8.2451883"><ele>14.0</ele><time>2026-03-28T12:41:32.385Z</time></trkpt><trkpt lat="40.578395" lon="8.2452267"><ele>14.0</ele><time>2026-03-28T12:41:33.385Z</time></trkpt><trkpt lat="40.5785033" lon="8.2452633"><ele>13.999999999999998</ele><time>2026-03-28T12:41:34.384Z</time></trkpt><trkpt lat="40.5786133" lon="8.245305"><ele>13.999999999999998</ele><time>2026-03-28T12:41:35.384Z</time></trkpt><trkpt lat="40.5787217" lon="8.2453333"><ele>14.0</ele><time>2026-03-28T12:41:36.385Z</time></trkpt><trkpt lat="40.5788217" lon="8.24537"><ele>14.0</ele><time>2026-03-28T12:41:37.385Z</time></trkpt><trkpt lat="40.5789167" lon="8.24541"><ele>13.833333333333334</ele><time>2026-03-28T12:41:38.385Z</time></trkpt><trkpt lat="40.5790067" lon="8.2454333"><ele>13.666666666666668</ele><time>2026-03-28T12:41:39.385Z</time></trkpt><trkpt lat="40.5790967" lon="8.24545"><ele>13.5</ele><time>2026-03-28T12:41:40.384Z</time></trkpt><trkpt lat="40.5791833" lon="8.2454433"><ele>13.333333333333332</ele><time>2026-03-28T12:41:41.384Z</time></trkpt><trkpt lat="40.5792583" lon="8.2454133"><ele>13.166666666666666</ele><time>2026-03-28T12:41:42.385Z</time></trkpt><trkpt lat="40.5793367" lon="8.2453617"><ele>13.0</ele><time>2026-03-28T12:41:43.385Z</time></trkpt><trkpt lat="40.579395" lon="8.245305"><ele>12.999999999999998</ele><time>2026-03-28T12:41:44.385Z</time></trkpt><trkpt lat="40.57946" lon="8.24521"><ele>13.0</ele><time>2026-03-28T12:41:46.385Z</time></trkpt><trkpt lat="40.5795033" lon="8.2451383"><ele>13.0</ele><time>2026-03-28T12:41:48.385Z</time></trkpt><trkpt lat="40.579535" lon="8.245055"><ele>13.0</ele><time>2026-03-28T12:41:50.385Z</time></trkpt><trkpt lat="40.5795483" lon="8.2449633"><ele>12.999999999999998</ele><time>2026-03-28T12:41:51.385Z</time></trkpt><trkpt lat="40.579575" lon="8.2448617"><ele>13.0</ele><time>2026-03-28T12:41:52.385Z</time></trkpt><trkpt lat="40.5796033" lon="8.2447567"><ele>14.25</ele><time>2026-03-28T12:41:53.385Z</time></trkpt><trkpt lat="40.5796367" lon="8.24464"><ele>15.5</ele><time>2026-03-28T12:41:54.385Z</time></trkpt><trkpt lat="40.5796667" lon="8.24448"><ele>16.75</ele><time>2026-03-28T12:41:55.384Z</time></trkpt><trkpt lat="40.5797217" lon="8.2443017"><ele>18.0</ele><time>2026-03-28T12:41:56.385Z</time></trkpt><trkpt lat="40.5797817" lon="8.2441017"><ele>19.0</ele><time>2026-03-28T12:41:57.385Z</time></trkpt><trkpt lat="40.579825" lon="8.2438817"><ele>20.0</ele><time>2026-03-28T12:41:58.385Z</time></trkpt><trkpt lat="40.579885" lon="8.24365"><ele>21.0</ele><time>2026-03-28T12:41:59.385Z</time></trkpt><trkpt lat="40.5799583" lon="8.2434167"><ele>21.0</ele><time>2026-03-28T12:42:00.385Z</time></trkpt><trkpt lat="40.5800317" lon="8.2431783"><ele>21.0</ele><time>2026-03-28T12:42:01.385Z</time></trkpt><trkpt lat="40.5800983" lon="8.242915"><ele>21.0</ele><time>2026-03-28T12:42:02.385Z</time></trkpt><trkpt lat="40.5801633" lon="8.2426483"><ele>23.0</ele><time>2026-03-28T12:42:03.385Z</time></trkpt><trkpt lat="40.580225" lon="8.2424017"><ele>25.0</ele><time>2026-03-28T12:42:04.385Z</time></trkpt><trkpt lat="40.5802867" lon="8.24216"><ele>27.0</ele><time>2026-03-28T12:42:05.385Z</time></trkpt><trkpt lat="40.58035" lon="8.2419217"><ele>28.666666666666664</ele><time>2026-03-28T12:42:06.385Z</time></trkpt><trkpt lat="40.5804033" lon="8.2416967"><ele>30.333333333333332</ele><time>2026-03-28T12:42:07.385Z</time></trkpt><trkpt lat="40.5804783" lon="8.241505"><ele>32.0</ele><time>2026-03-28T12:42:08.385Z</time></trkpt><trkpt lat="40.5805667" lon="8.2413267"><ele>33.33333333333333</ele><time>2026-03-28T12:42:09.384Z</time></trkpt><trkpt lat="40.58067" lon="8.24115"><ele>34.666666666666664</ele><time>2026-03-28T12:42:10.385Z</time></trkpt><trkpt lat="40.5807767" lon="8.24097"><ele>36.0</ele><time>2026-03-28T12:42:11.385Z</time></trkpt><trkpt lat="40.58089" lon="8.24078"><ele>36.666666666666664</ele><time>2026-03-28T12:42:12.384Z</time></trkpt><trkpt lat="40.5810083" lon="8.2405867"><ele>37.33333333333333</ele><time>2026-03-28T12:42:13.385Z</time></trkpt><trkpt lat="40.5811367" lon="8.2403817"><ele>38.0</ele><time>2026-03-28T12:42:14.385Z</time></trkpt><trkpt lat="40.5812567" lon="8.2401767"><ele>38.0</ele><time>2026-03-28T12:42:15.385Z</time></trkpt><trkpt lat="40.5813683" lon="8.23997"><ele>38.0</ele><time>2026-03-28T12:42:16.385Z</time></trkpt><trkpt lat="40.5814783" lon="8.239765"><ele>38.0</ele><time>2026-03-28T12:42:17.385Z</time></trkpt><trkpt lat="40.5816017" lon="8.23956"><ele>39.0</ele><time>2026-03-28T12:42:18.385Z</time></trkpt><trkpt lat="40.5817267" lon="8.239355"><ele>40.0</ele><time>2026-03-28T12:42:19.384Z</time></trkpt><trkpt lat="40.58185" lon="8.2391467"><ele>41.0</ele><time>2026-03-28T12:42:20.384Z</time></trkpt><trkpt lat="40.5819717" lon="8.2389433"><ele>40.0</ele><time>2026-03-28T12:42:21.384Z</time></trkpt><trkpt lat="40.5820917" lon="8.2387467"><ele>39.0</ele><time>2026-03-28T12:42:22.385Z</time></trkpt><trkpt lat="40.5822233" lon="8.2385433"><ele>38.0</ele><time>2026-03-28T12:42:23.385Z</time></trkpt><trkpt lat="40.58235" lon="8.2383367"><ele>38.0</ele><time>2026-03-28T12:42:24.385Z</time></trkpt><trkpt lat="40.5824667" lon="8.2381267"><ele>38.0</ele><time>2026-03-28T12:42:25.385Z</time></trkpt><trkpt lat="40.58259" lon="8.2379133"><ele>38.0</ele><time>2026-03-28T12:42:26.385Z</time></trkpt><trkpt lat="40.5827117" lon="8.237705"><ele>37.33333333333333</ele><time>2026-03-28T12:42:27.385Z</time></trkpt><trkpt lat="40.58285" lon="8.2374917"><ele>36.666666666666664</ele><time>2026-03-28T12:42:28.385Z</time></trkpt><trkpt lat="40.5829817" lon="8.2372833"><ele>36.0</ele><time>2026-03-28T12:42:29.385Z</time></trkpt><trkpt lat="40.5831117" lon="8.237065"><ele>36.0</ele><time>2026-03-28T12:42:30.385Z</time></trkpt><trkpt lat="40.5832467" lon="8.2368483"><ele>36.0</ele><time>2026-03-28T12:42:31.385Z</time></trkpt><trkpt lat="40.58338" lon="8.2366317"><ele>36.0</ele><time>2026-03-28T12:42:32.385Z</time></trkpt><trkpt lat="40.58351" lon="8.2364217"><ele>37.0</ele><time>2026-03-28T12:42:33.385Z</time></trkpt><trkpt lat="40.5836433" lon="8.2362167"><ele>38.0</ele><time>2026-03-28T12:42:34.384Z</time></trkpt><trkpt lat="40.58377" lon="8.2360033"><ele>39.0</ele><time>2026-03-28T12:42:35.385Z</time></trkpt><trkpt lat="40.58388" lon="8.2357967"><ele>38.666666666666664</ele><time>2026-03-28T12:42:36.385Z</time></trkpt><trkpt lat="40.5839917" lon="8.2355983"><ele>38.33333333333333</ele><time>2026-03-28T12:42:37.385Z</time></trkpt><trkpt lat="40.5841" lon="8.2354083"><ele>38.0</ele><time>2026-03-28T12:42:38.385Z</time></trkpt><trkpt lat="40.5842133" lon="8.235215"><ele>38.0</ele><time>2026-03-28T12:42:39.385Z</time></trkpt><trkpt lat="40.5843333" lon="8.2350217"><ele>38.0</ele><time>2026-03-28T12:42:40.385Z</time></trkpt><trkpt lat="40.5844567" lon="8.2348133"><ele>38.0</ele><time>2026-03-28T12:42:41.385Z</time></trkpt><trkpt lat="40.5845833" lon="8.2346217"><ele>37.33333333333333</ele><time>2026-03-28T12:42:42.385Z</time></trkpt><trkpt lat="40.584705" lon="8.234425"><ele>36.666666666666664</ele><time>2026-03-28T12:42:43.385Z</time></trkpt><trkpt lat="40.5848233" lon="8.23423"><ele>36.0</ele><time>2026-03-28T12:42:44.385Z</time></trkpt><trkpt lat="40.5849433" lon="8.2340267"><ele>34.666666666666664</ele><time>2026-03-28T12:42:45.385Z</time></trkpt><trkpt lat="40.5850667" lon="8.2338217"><ele>33.33333333333333</ele><time>2026-03-28T12:42:46.385Z</time></trkpt><trkpt lat="40.5851983" lon="8.233635"><ele>32.0</ele><time>2026-03-28T12:42:47.385Z</time></trkpt><trkpt lat="40.5853267" lon="8.2334467"><ele>32.0</ele><time>2026-03-28T12:42:48.384Z</time></trkpt><trkpt lat="40.5854433" lon="8.23326"><ele>32.0</ele><time>2026-03-28T12:42:49.385Z</time></trkpt><trkpt lat="40.58556" lon="8.233065"><ele>32.0</ele><time>2026-03-28T12:42:50.385Z</time></trkpt><trkpt lat="40.5856667" lon="8.2328717"><ele>32.0</ele><time>2026-03-28T12:42:51.385Z</time></trkpt><trkpt lat="40.5857783" lon="8.2326683"><ele>32.0</ele><time>2026-03-28T12:42:52.384Z</time></trkpt><trkpt lat="40.5858933" lon="8.23248"><ele>32.0</ele><time>2026-03-28T12:42:53.385Z</time></trkpt><trkpt lat="40.5860083" lon="8.2322883"><ele>31.666666666666664</ele><time>2026-03-28T12:42:54.385Z</time></trkpt><trkpt lat="40.5861267" lon="8.2320967"><ele>31.333333333333336</ele><time>2026-03-28T12:42:55.385Z</time></trkpt><trkpt lat="40.58625" lon="8.231905"><ele>31.0</ele><time>2026-03-28T12:42:56.384Z</time></trkpt><trkpt lat="40.5863767" lon="8.231705"><ele>31.0</ele><time>2026-03-28T12:42:57.384Z</time></trkpt><trkpt lat="40.5865033" lon="8.231505"><ele>31.0</ele><time>2026-03-28T12:42:58.384Z</time></trkpt><trkpt lat="40.5866217" lon="8.231305"><ele>31.0</ele><time>2026-03-28T12:42:59.385Z</time></trkpt><trkpt lat="40.5867383" lon="8.2311217"><ele>29.666666666666668</ele><time>2026-03-28T12:43:00.384Z</time></trkpt><trkpt lat="40.5868567" lon="8.23094"><ele>28.333333333333336</ele><time>2026-03-28T12:43:01.384Z</time></trkpt><trkpt lat="40.5869717" lon="8.2307533"><ele>27.0</ele><time>2026-03-28T12:43:02.385Z</time></trkpt><trkpt lat="40.5870767" lon="8.23057"><ele>26.666666666666664</ele><time>2026-03-28T12:43:03.384Z</time></trkpt><trkpt lat="40.58719" lon="8.230395"><ele>26.333333333333332</ele><time>2026-03-28T12:43:04.385Z</time></trkpt><trkpt lat="40.5872933" lon="8.2302133"><ele>26.0</ele><time>2026-03-28T12:43:05.384Z</time></trkpt><trkpt lat="40.587395" lon="8.2300417"><ele>26.0</ele><time>2026-03-28T12:43:06.385Z</time></trkpt><trkpt lat="40.5874967" lon="8.229885"><ele>26.0</ele><time>2026-03-28T12:43:07.385Z</time></trkpt><trkpt lat="40.58759" lon="8.229755"><ele>26.0</ele><time>2026-03-28T12:43:08.384Z</time></trkpt><trkpt lat="40.5876517" lon="8.229645"><ele>26.0</ele><time>2026-03-28T12:43:09.385Z</time></trkpt><trkpt lat="40.5877033" lon="8.2295683"><ele>25.200000000000003</ele><time>2026-03-28T12:43:10.385Z</time></trkpt><trkpt lat="40.587765" lon="8.2294917"><ele>24.400000000000002</ele><time>2026-03-28T12:43:12.384Z</time></trkpt><trkpt lat="40.58783" lon="8.22953"><ele>23.6</ele><time>2026-03-28T12:43:14.385Z</time></trkpt><trkpt lat="40.5879333" lon="8.2296433"><ele>22.8</ele><time>2026-03-28T12:43:16.385Z</time></trkpt><trkpt lat="40.5880117" lon="8.2297167"><ele>22.0</ele><time>2026-03-28T12:43:17.385Z</time></trkpt><trkpt lat="40.588085" lon="8.229795"><ele>23.0</ele><time>2026-03-28T12:43:18.384Z</time></trkpt><trkpt lat="40.58817" lon="8.2298833"><ele>24.0</ele><time>2026-03-28T12:43:19.385Z</time></trkpt><trkpt lat="40.5882717" lon="8.229975"><ele>25.0</ele><time>2026-03-28T12:43:20.385Z</time></trkpt><trkpt lat="40.588375" lon="8.2300783"><ele>26.0</ele><time>2026-03-28T12:43:21.384Z</time></trkpt><trkpt lat="40.5884783" lon="8.230175"><ele>26.0</ele><time>2026-03-28T12:43:22.384Z</time></trkpt><trkpt lat="40.5885867" lon="8.2302733"><ele>26.0</ele><time>2026-03-28T12:43:23.385Z</time></trkpt><trkpt lat="40.588685" lon="8.2303833"><ele>26.0</ele><time>2026-03-28T12:43:24.385Z</time></trkpt><trkpt lat="40.5887817" lon="8.2304983"><ele>26.0</ele><time>2026-03-28T12:43:25.385Z</time></trkpt><trkpt lat="40.5888767" lon="8.23062"><ele>27.0</ele><time>2026-03-28T12:43:26.385Z</time></trkpt><trkpt lat="40.588975" lon="8.2307417"><ele>28.0</ele><time>2026-03-28T12:43:27.385Z</time></trkpt><trkpt lat="40.5890767" lon="8.230855"><ele>29.0</ele><time>2026-03-28T12:43:28.385Z</time></trkpt><trkpt lat="40.589185" lon="8.2309533"><ele>30.0</ele><time>2026-03-28T12:43:29.384Z</time></trkpt><trkpt lat="40.5892817" lon="8.23106"><ele>30.0</ele><time>2026-03-28T12:43:30.385Z</time></trkpt><trkpt lat="40.58939" lon="8.231165"><ele>30.0</ele><time>2026-03-28T12:43:31.385Z</time></trkpt><trkpt lat="40.5894967" lon="8.2312983"><ele>30.0</ele><time>2026-03-28T12:43:32.385Z</time></trkpt><trkpt lat="40.589605" lon="8.2314083"><ele>30.0</ele><time>2026-03-28T12:43:33.384Z</time></trkpt><trkpt lat="40.589725" lon="8.2315183"><ele>29.0</ele><time>2026-03-28T12:43:34.385Z</time></trkpt><trkpt lat="40.589845" lon="8.2316483"><ele>28.0</ele><time>2026-03-28T12:43:35.385Z</time></trkpt><trkpt lat="40.5899633" lon="8.2317833"><ele>27.0</ele><time>2026-03-28T12:43:36.385Z</time></trkpt><trkpt lat="40.5900833" lon="8.2319167"><ele>27.0</ele><time>2026-03-28T12:43:37.385Z</time></trkpt><trkpt lat="40.59019" lon="8.232045"><ele>27.0</ele><time>2026-03-28T12:43:38.385Z</time></trkpt><trkpt lat="40.5903033" lon="8.2321717"><ele>27.0</ele><time>2026-03-28T12:43:39.384Z</time></trkpt><trkpt lat="40.5904183" lon="8.2323067"><ele>27.0</ele><time>2026-03-28T12:43:40.384Z</time></trkpt><trkpt lat="40.59053" lon="8.23243"><ele>26.25</ele><time>2026-03-28T12:43:41.385Z</time></trkpt><trkpt lat="40.590645" lon="8.2325367"><ele>25.5</ele><time>2026-03-28T12:43:42.385Z</time></trkpt><trkpt lat="40.59076" lon="8.2326433"><ele>24.75</ele><time>2026-03-28T12:43:43.384Z</time></trkpt><trkpt lat="40.5908633" lon="8.232725"><ele>24.0</ele><time>2026-03-28T12:43:44.385Z</time></trkpt><trkpt lat="40.5909933" lon="8.23281"><ele>24.0</ele><time>2026-03-28T12:43:45.384Z</time></trkpt><trkpt lat="40.591135" lon="8.2328683"><ele>24.0</ele><time>2026-03-28T12:43:46.385Z</time></trkpt><trkpt lat="40.59128" lon="8.2329217"><ele>24.0</ele><time>2026-03-28T12:43:47.385Z</time></trkpt><trkpt lat="40.591435" lon="8.2329833"><ele>24.0</ele><time>2026-03-28T12:43:48.384Z</time></trkpt><trkpt lat="40.59159" lon="8.23305"><ele>24.0</ele><time>2026-03-28T12:43:49.384Z</time></trkpt><trkpt lat="40.5917417" lon="8.233115"><ele>24.0</ele><time>2026-03-28T12:43:50.385Z</time></trkpt><trkpt lat="40.5918883" lon="8.2331733"><ele>23.0</ele><time>2026-03-28T12:43:51.385Z</time></trkpt><trkpt lat="40.592045" lon="8.2332367"><ele>22.0</ele><time>2026-03-28T12:43:52.385Z</time></trkpt><trkpt lat="40.5922167" lon="8.2333217"><ele>21.0</ele><time>2026-03-28T12:43:53.384Z</time></trkpt><trkpt lat="40.5923917" lon="8.2334033"><ele>21.0</ele><time>2026-03-28T12:43:54.385Z</time></trkpt><trkpt lat="40.5925567" lon="8.2334733"><ele>21.0</ele><time>2026-03-28T12:43:55.385Z</time></trkpt><trkpt lat="40.5927183" lon="8.233545"><ele>21.0</ele><time>2026-03-28T12:43:56.385Z</time></trkpt><trkpt lat="40.5928783" lon="8.2336267"><ele>21.666666666666668</ele><time>2026-03-28T12:43:57.385Z</time></trkpt><trkpt lat="40.5930383" lon="8.233705"><ele>22.333333333333336</ele><time>2026-03-28T12:43:58.385Z</time></trkpt><trkpt lat="40.5932017" lon="8.2337667"><ele>23.0</ele><time>2026-03-28T12:43:59.385Z</time></trkpt><trkpt lat="40.593365" lon="8.23384"><ele>23.0</ele><time>2026-03-28T12:44:00.384Z</time></trkpt><trkpt lat="40.593525" lon="8.233895"><ele>23.0</ele><time>2026-03-28T12:44:01.385Z</time></trkpt><trkpt lat="40.593685" lon="8.2339633"><ele>23.0</ele><time>2026-03-28T12:44:02.385Z</time></trkpt><trkpt lat="40.5938467" lon="8.2340267"><ele>26.333333333333336</ele><time>2026-03-28T12:44:03.385Z</time></trkpt><trkpt lat="40.5939933" lon="8.234095"><ele>29.666666666666668</ele><time>2026-03-28T12:44:04.385Z</time></trkpt><trkpt lat="40.5941433" lon="8.234165"><ele>33.0</ele><time>2026-03-28T12:44:05.385Z</time></trkpt><trkpt lat="40.594285" lon="8.2342183"><ele>33.0</ele><time>2026-03-28T12:44:06.385Z</time></trkpt><trkpt lat="40.5944217" lon="8.2342717"><ele>33.0</ele><time>2026-03-28T12:44:07.385Z</time></trkpt><trkpt lat="40.5945733" lon="8.234315"><ele>33.0</ele><time>2026-03-28T12:44:08.385Z</time></trkpt><trkpt lat="40.59472" lon="8.234355"><ele>33.0</ele><time>2026-03-28T12:44:09.385Z</time></trkpt><trkpt lat="40.59487" lon="8.23439"><ele>34.0</ele><time>2026-03-28T12:44:10.385Z</time></trkpt><trkpt lat="40.5950233" lon="8.2344433"><ele>35.0</ele><time>2026-03-28T12:44:11.384Z</time></trkpt><trkpt lat="40.59517" lon="8.23448"><ele>36.0</ele><time>2026-03-28T12:44:12.385Z</time></trkpt><trkpt lat="40.5953" lon="8.2345367"><ele>37.0</ele><time>2026-03-28T12:44:13.385Z</time></trkpt><trkpt lat="40.5954183" lon="8.2345833"><ele>37.6</ele><time>2026-03-28T12:44:14.385Z</time></trkpt><trkpt lat="40.5955283" lon="8.2346267"><ele>38.2</ele><time>2026-03-28T12:44:15.385Z</time></trkpt><trkpt lat="40.5956333" lon="8.2346583"><ele>38.8</ele><time>2026-03-28T12:44:16.384Z</time></trkpt><trkpt lat="40.59572" lon="8.2346817"><ele>39.4</ele><time>2026-03-28T12:44:17.384Z</time></trkpt><trkpt lat="40.595785" lon="8.2346917"><ele>40.0</ele><time>2026-03-28T12:44:18.385Z</time></trkpt><trkpt lat="40.59587" lon="8.234735"><ele>40.75</ele><time>2026-03-28T12:44:20.384Z</time></trkpt><trkpt lat="40.595915" lon="8.234845"><ele>41.5</ele><time>2026-03-28T12:44:26.385Z</time></trkpt><trkpt lat="40.5958733" lon="8.2350783"><ele>42.25</ele><time>2026-03-28T12:44:28.385Z</time></trkpt><trkpt lat="40.595835" lon="8.2352667"><ele>43.0</ele><time>2026-03-28T12:44:29.385Z</time></trkpt><trkpt lat="40.5958033" lon="8.235465"><ele>44.333333333333336</ele><time>2026-03-28T12:44:30.385Z</time></trkpt><trkpt lat="40.5957633" lon="8.2356967"><ele>45.666666666666664</ele><time>2026-03-28T12:44:31.385Z</time></trkpt><trkpt lat="40.595715" lon="8.2359533"><ele>47.0</ele><time>2026-03-28T12:44:32.384Z</time></trkpt><trkpt lat="40.595665" lon="8.2362233"><ele>48.33333333333333</ele><time>2026-03-28T12:44:33.385Z</time></trkpt><trkpt lat="40.59562" lon="8.2364933"><ele>49.666666666666664</ele><time>2026-03-28T12:44:34.384Z</time></trkpt><trkpt lat="40.5955667" lon="8.2367783"><ele>51.0</ele><time>2026-03-28T12:44:35.385Z</time></trkpt><trkpt lat="40.5955067" lon="8.237105"><ele>52.5</ele><time>2026-03-28T12:44:36.385Z</time></trkpt><trkpt lat="40.59545" lon="8.2374167"><ele>54.0</ele><time>2026-03-28T12:44:37.384Z</time></trkpt><trkpt lat="40.5953867" lon="8.2377567"><ele>53.5</ele><time>2026-03-28T12:44:38.385Z</time></trkpt><trkpt lat="40.5953167" lon="8.2381233"><ele>53.0</ele><time>2026-03-28T12:44:39.385Z</time></trkpt><trkpt lat="40.595245" lon="8.2384767"><ele>54.0</ele><time>2026-03-28T12:44:40.384Z</time></trkpt><trkpt lat="40.595175" lon="8.2388433"><ele>55.0</ele><time>2026-03-28T12:44:41.385Z</time></trkpt><trkpt lat="40.5951267" lon="8.239195"><ele>56.0</ele><time>2026-03-28T12:44:42.385Z</time></trkpt><trkpt lat="40.595065" lon="8.239525"><ele>57.0</ele><time>2026-03-28T12:44:43.385Z</time></trkpt><trkpt lat="40.5950083" lon="8.2398367"><ele>58.0</ele><time>2026-03-28T12:44:44.385Z</time></trkpt><trkpt lat="40.5949567" lon="8.24014"><ele>59.0</ele><time>2026-03-28T12:44:45.385Z</time></trkpt><trkpt lat="40.5948933" lon="8.2404467"><ele>59.5</ele><time>2026-03-28T12:44:46.385Z</time></trkpt><trkpt lat="40.59483" lon="8.2407483"><ele>60.0</ele><time>2026-03-28T12:44:47.385Z</time></trkpt><trkpt lat="40.59476" lon="8.24106"><ele>60.0</ele><time>2026-03-28T12:44:48.384Z</time></trkpt><trkpt lat="40.594695" lon="8.2413733"><ele>60.0</ele><time>2026-03-28T12:44:49.384Z</time></trkpt><trkpt lat="40.59463" lon="8.2416767"><ele>60.0</ele><time>2026-03-28T12:44:50.385Z</time></trkpt><trkpt lat="40.59456" lon="8.241995"><ele>60.0</ele><time>2026-03-28T12:44:51.385Z</time></trkpt><trkpt lat="40.5945083" lon="8.2423133"><ele>57.5</ele><time>2026-03-28T12:44:52.385Z</time></trkpt><trkpt lat="40.59444" lon="8.2426333"><ele>55.0</ele><time>2026-03-28T12:44:53.385Z</time></trkpt><trkpt lat="40.5943883" lon="8.2429467"><ele>55.5</ele><time>2026-03-28T12:44:54.385Z</time></trkpt><trkpt lat="40.5943233" lon="8.24327"><ele>56.0</ele><time>2026-03-28T12:44:55.385Z</time></trkpt><trkpt lat="40.5942583" lon="8.24359"><ele>56.0</ele><time>2026-03-28T12:44:56.384Z</time></trkpt><trkpt lat="40.5941983" lon="8.24391"><ele>56.0</ele><time>2026-03-28T12:44:57.385Z</time></trkpt><trkpt lat="40.5941317" lon="8.2442233"><ele>57.0</ele><time>2026-03-28T12:44:58.385Z</time></trkpt><trkpt lat="40.5940667" lon="8.24454"><ele>58.0</ele><time>2026-03-28T12:44:59.385Z</time></trkpt><trkpt lat="40.5940067" lon="8.2448517"><ele>60.0</ele><time>2026-03-28T12:45:00.385Z</time></trkpt><trkpt lat="40.5939517" lon="8.2451783"><ele>62.0</ele><time>2026-03-28T12:45:01.384Z</time></trkpt><trkpt lat="40.5938917" lon="8.24549"><ele>64.5</ele><time>2026-03-28T12:45:02.385Z</time></trkpt><trkpt lat="40.593825" lon="8.2458117"><ele>67.0</ele><time>2026-03-28T12:45:03.384Z</time></trkpt><trkpt lat="40.5937717" lon="8.246125"><ele>67.0</ele><time>2026-03-28T12:45:04.385Z</time></trkpt><trkpt lat="40.5937117" lon="8.2464283"><ele>67.0</ele><time>2026-03-28T12:45:05.385Z</time></trkpt><trkpt lat="40.593645" lon="8.2467383"><ele>61.5</ele><time>2026-03-28T12:45:06.384Z</time></trkpt><trkpt lat="40.59358" lon="8.2470533"><ele>56.0</ele><time>2026-03-28T12:45:07.385Z</time></trkpt><trkpt lat="40.5935133" lon="8.2473567"><ele>56.0</ele><time>2026-03-28T12:45:08.385Z</time></trkpt><trkpt lat="40.5934467" lon="8.2476633"><ele>56.0</ele><time>2026-03-28T12:45:09.384Z</time></trkpt><trkpt lat="40.5933883" lon="8.2479767"><ele>55.5</ele><time>2026-03-28T12:45:10.385Z</time></trkpt><trkpt lat="40.59333" lon="8.2482833"><ele>55.0</ele><time>2026-03-28T12:45:11.385Z</time></trkpt><trkpt lat="40.5932767" lon="8.2485683"><ele>55.0</ele><time>2026-03-28T12:45:12.385Z</time></trkpt><trkpt lat="40.5932167" lon="8.24888"><ele>55.0</ele><time>2026-03-28T12:45:13.385Z</time></trkpt><trkpt lat="40.59315" lon="8.2491883"><ele>55.0</ele><time>2026-03-28T12:45:14.385Z</time></trkpt><trkpt lat="40.5930867" lon="8.249495"><ele>55.0</ele><time>2026-03-28T12:45:15.385Z</time></trkpt><trkpt lat="40.5930183" lon="8.2497967"><ele>55.5</ele><time>2026-03-28T12:45:16.385Z</time></trkpt><trkpt lat="40.59296" lon="8.2500817"><ele>56.0</ele><time>2026-03-28T12:45:17.384Z</time></trkpt><trkpt lat="40.5929017" lon="8.2503733"><ele>53.5</ele><time>2026-03-28T12:45:18.384Z</time></trkpt><trkpt lat="40.5928333" lon="8.2506733"><ele>51.0</ele><time>2026-03-28T12:45:19.385Z</time></trkpt><trkpt lat="40.592775" lon="8.2509817"><ele>51.0</ele><time>2026-03-28T12:45:20.384Z</time></trkpt><trkpt lat="40.5927133" lon="8.2513"><ele>51.0</ele><time>2026-03-28T12:45:21.384Z</time></trkpt><trkpt lat="40.5926533" lon="8.2516017"><ele>51.5</ele><time>2026-03-28T12:45:22.385Z</time></trkpt><trkpt lat="40.5926" lon="8.2519017"><ele>52.0</ele><time>2026-03-28T12:45:23.385Z</time></trkpt><trkpt lat="40.592535" lon="8.252195"><ele>52.5</ele><time>2026-03-28T12:45:24.385Z</time></trkpt><trkpt lat="40.5924717" lon="8.2524967"><ele>53.0</ele><time>2026-03-28T12:45:25.384Z</time></trkpt><trkpt lat="40.5923967" lon="8.2528017"><ele>53.0</ele><time>2026-03-28T12:45:26.384Z</time></trkpt><trkpt lat="40.5923267" lon="8.2531017"><ele>53.0</ele><time>2026-03-28T12:45:27.384Z</time></trkpt><trkpt lat="40.59226" lon="8.2534117"><ele>52.5</ele><time>2026-03-28T12:45:28.385Z</time></trkpt><trkpt lat="40.5921967" lon="8.253735"><ele>52.0</ele><time>2026-03-28T12:45:29.384Z</time></trkpt><trkpt lat="40.5921267" lon="8.2540567"><ele>51.5</ele><time>2026-03-28T12:45:30.384Z</time></trkpt><trkpt lat="40.59206" lon="8.2543783"><ele>51.0</ele><time>2026-03-28T12:45:31.385Z</time></trkpt><trkpt lat="40.5920033" lon="8.2546917"><ele>45.0</ele><time>2026-03-28T12:45:32.385Z</time></trkpt><trkpt lat="40.591955" lon="8.2550167"><ele>39.0</ele><time>2026-03-28T12:45:33.385Z</time></trkpt><trkpt lat="40.5918967" lon="8.25534"><ele>38.0</ele><time>2026-03-28T12:45:34.385Z</time></trkpt><trkpt lat="40.591835" lon="8.25568"><ele>37.0</ele><time>2026-03-28T12:45:35.385Z</time></trkpt><trkpt lat="40.5917767" lon="8.2560083"><ele>37.0</ele><time>2026-03-28T12:45:36.385Z</time></trkpt><trkpt lat="40.5917117" lon="8.2563267"><ele>37.0</ele><time>2026-03-28T12:45:37.385Z</time></trkpt><trkpt lat="40.5916433" lon="8.25664"><ele>37.0</ele><time>2026-03-28T12:45:38.385Z</time></trkpt><trkpt lat="40.5915767" lon="8.2569483"><ele>37.0</ele><time>2026-03-28T12:45:39.384Z</time></trkpt><trkpt lat="40.59151" lon="8.25727"><ele>37.0</ele><time>2026-03-28T12:45:40.384Z</time></trkpt><trkpt lat="40.5914517" lon="8.257565"><ele>37.0</ele><time>2026-03-28T12:45:41.385Z</time></trkpt><trkpt lat="40.591405" lon="8.2578767"><ele>37.5</ele><time>2026-03-28T12:45:42.384Z</time></trkpt><trkpt lat="40.591395" lon="8.2581917"><ele>38.0</ele><time>2026-03-28T12:45:43.385Z</time></trkpt><trkpt lat="40.59141" lon="8.2585083"><ele>38.0</ele><time>2026-03-28T12:45:44.385Z</time></trkpt><trkpt lat="40.5914533" lon="8.2588317"><ele>38.0</ele><time>2026-03-28T12:45:45.384Z</time></trkpt><trkpt lat="40.5915183" lon="8.2591517"><ele>35.5</ele><time>2026-03-28T12:45:46.385Z</time></trkpt><trkpt lat="40.591585" lon="8.2594767"><ele>33.0</ele><time>2026-03-28T12:45:47.385Z</time></trkpt><trkpt lat="40.5916383" lon="8.2598067"><ele>30.0</ele><time>2026-03-28T12:45:48.384Z</time></trkpt><trkpt lat="40.59171" lon="8.2601383"><ele>27.0</ele><time>2026-03-28T12:45:49.385Z</time></trkpt><trkpt lat="40.5917683" lon="8.26049"><ele>25.0</ele><time>2026-03-28T12:45:50.385Z</time></trkpt><trkpt lat="40.59183" lon="8.26082"><ele>23.0</ele><time>2026-03-28T12:45:51.385Z</time></trkpt><trkpt lat="40.59188" lon="8.261145"><ele>22.0</ele><time>2026-03-28T12:45:52.385Z</time></trkpt><trkpt lat="40.5919267" lon="8.261465"><ele>21.0</ele><time>2026-03-28T12:45:53.385Z</time></trkpt><trkpt lat="40.5919767" lon="8.2617817"><ele>22.5</ele><time>2026-03-28T12:45:54.385Z</time></trkpt><trkpt lat="40.5920283" lon="8.2620867"><ele>24.0</ele><time>2026-03-28T12:45:55.385Z</time></trkpt><trkpt lat="40.592085" lon="8.2623833"><ele>24.0</ele><time>2026-03-28T12:45:56.385Z</time></trkpt><trkpt lat="40.592135" lon="8.2626867"><ele>24.0</ele><time>2026-03-28T12:45:57.385Z</time></trkpt><trkpt lat="40.5921883" lon="8.2629883"><ele>22.5</ele><time>2026-03-28T12:45:58.385Z</time></trkpt><trkpt lat="40.592235" lon="8.2632983"><ele>21.0</ele><time>2026-03-28T12:45:59.385Z</time></trkpt><trkpt lat="40.592285" lon="8.2636233"><ele>21.0</ele><time>2026-03-28T12:46:00.385Z</time></trkpt><trkpt lat="40.592345" lon="8.2639383"><ele>21.0</ele><time>2026-03-28T12:46:01.385Z</time></trkpt><trkpt lat="40.5924067" lon="8.2642367"><ele>20.5</ele><time>2026-03-28T12:46:02.384Z</time></trkpt><trkpt lat="40.5924767" lon="8.2645417"><ele>20.0</ele><time>2026-03-28T12:46:03.384Z</time></trkpt><trkpt lat="40.59253" lon="8.2648583"><ele>19.5</ele><time>2026-03-28T12:46:04.384Z</time></trkpt><trkpt lat="40.5925867" lon="8.265175"><ele>19.0</ele><time>2026-03-28T12:46:05.385Z</time></trkpt><trkpt lat="40.5926367" lon="8.2654767"><ele>17.5</ele><time>2026-03-28T12:46:06.385Z</time></trkpt><trkpt lat="40.592675" lon="8.2657783"><ele>16.0</ele><time>2026-03-28T12:46:07.385Z</time></trkpt><trkpt lat="40.59271" lon="8.26609"><ele>16.0</ele><time>2026-03-28T12:46:08.385Z</time></trkpt><trkpt lat="40.5927683" lon="8.2663933"><ele>16.0</ele><time>2026-03-28T12:46:09.385Z</time></trkpt><trkpt lat="40.59282" lon="8.2666833"><ele>17.5</ele><time>2026-03-28T12:46:10.385Z</time></trkpt><trkpt lat="40.5928767" lon="8.266985"><ele>19.0</ele><time>2026-03-28T12:46:11.385Z</time></trkpt><trkpt lat="40.5929317" lon="8.2672917"><ele>19.0</ele><time>2026-03-28T12:46:12.384Z</time></trkpt><trkpt lat="40.5929883" lon="8.267595"><ele>19.0</ele><time>2026-03-28T12:46:13.385Z</time></trkpt><trkpt lat="40.5930433" lon="8.2678983"><ele>18.0</ele><time>2026-03-28T12:46:14.384Z</time></trkpt><trkpt lat="40.593095" lon="8.2681933"><ele>17.0</ele><time>2026-03-28T12:46:15.385Z</time></trkpt><trkpt lat="40.5931467" lon="8.2685033"><ele>17.0</ele><time>2026-03-28T12:46:16.384Z</time></trkpt><trkpt lat="40.593205" lon="8.2687967"><ele>17.0</ele><time>2026-03-28T12:46:17.385Z</time></trkpt><trkpt lat="40.5932483" lon="8.269095"><ele>16.5</ele><time>2026-03-28T12:46:18.385Z</time></trkpt><trkpt lat="40.5933" lon="8.2694"><ele>16.0</ele><time>2026-03-28T12:46:19.385Z</time></trkpt><trkpt lat="40.5933467" lon="8.26971"><ele>17.0</ele><time>2026-03-28T12:46:20.385Z</time></trkpt><trkpt lat="40.5933933" lon="8.2700017"><ele>18.0</ele><time>2026-03-28T12:46:21.385Z</time></trkpt><trkpt lat="40.593445" lon="8.2703067"><ele>17.0</ele><time>2026-03-28T12:46:22.385Z</time></trkpt><trkpt lat="40.5935033" lon="8.2706167"><ele>16.0</ele><time>2026-03-28T12:46:23.385Z</time></trkpt><trkpt lat="40.593565" lon="8.2709283"><ele>16.0</ele><time>2026-03-28T12:46:24.384Z</time></trkpt><trkpt lat="40.5936233" lon="8.2712383"><ele>16.0</ele><time>2026-03-28T12:46:25.385Z</time></trkpt><trkpt lat="40.5936783" lon="8.2715433"><ele>16.5</ele><time>2026-03-28T12:46:26.385Z</time></trkpt><trkpt lat="40.5937333" lon="8.2718467"><ele>17.0</ele><time>2026-03-28T12:46:27.385Z</time></trkpt><trkpt lat="40.5937783" lon="8.272155"><ele>15.0</ele><time>2026-03-28T12:46:28.385Z</time></trkpt><trkpt lat="40.5938217" lon="8.2724533"><ele>13.0</ele><time>2026-03-28T12:46:29.385Z</time></trkpt><trkpt lat="40.593865" lon="8.2727383"><ele>13.0</ele><time>2026-03-28T12:46:30.385Z</time></trkpt><trkpt lat="40.593925" lon="8.2730333"><ele>13.0</ele><time>2026-03-28T12:46:31.385Z</time></trkpt><trkpt lat="40.5939683" lon="8.2733417"><ele>13.5</ele><time>2026-03-28T12:46:32.385Z</time></trkpt><trkpt lat="40.5940233" lon="8.2736517"><ele>14.0</ele><time>2026-03-28T12:46:33.385Z</time></trkpt><trkpt lat="40.5940817" lon="8.2739467"><ele>14.5</ele><time>2026-03-28T12:46:34.385Z</time></trkpt><trkpt lat="40.59413" lon="8.27424"><ele>15.0</ele><time>2026-03-28T12:46:35.385Z</time></trkpt><trkpt lat="40.594185" lon="8.2745383"><ele>14.5</ele><time>2026-03-28T12:46:36.385Z</time></trkpt><trkpt lat="40.594235" lon="8.2748383"><ele>14.0</ele><time>2026-03-28T12:46:37.385Z</time></trkpt><trkpt lat="40.5942867" lon="8.2751383"><ele>14.0</ele><time>2026-03-28T12:46:38.385Z</time></trkpt><trkpt lat="40.594335" lon="8.275425"><ele>14.0</ele><time>2026-03-28T12:46:39.385Z</time></trkpt><trkpt lat="40.594385" lon="8.27572"><ele>12.5</ele><time>2026-03-28T12:46:40.385Z</time></trkpt><trkpt lat="40.5944383" lon="8.276025"><ele>11.0</ele><time>2026-03-28T12:46:41.385Z</time></trkpt><trkpt lat="40.5944933" lon="8.2763183"><ele>12.5</ele><time>2026-03-28T12:46:42.384Z</time></trkpt><trkpt lat="40.5945467" lon="8.2766283"><ele>14.0</ele><time>2026-03-28T12:46:43.384Z</time></trkpt><trkpt lat="40.594595" lon="8.276925"><ele>14.0</ele><time>2026-03-28T12:46:44.385Z</time></trkpt><trkpt lat="40.5946433" lon="8.2772183"><ele>14.0</ele><time>2026-03-28T12:46:45.385Z</time></trkpt><trkpt lat="40.5946967" lon="8.2774867"><ele>14.0</ele><time>2026-03-28T12:46:46.385Z</time></trkpt><trkpt lat="40.5947467" lon="8.277755"><ele>13.333333333333334</ele><time>2026-03-28T12:46:47.385Z</time></trkpt><trkpt lat="40.5947933" lon="8.278025"><ele>12.666666666666668</ele><time>2026-03-28T12:46:48.384Z</time></trkpt><trkpt lat="40.5948333" lon="8.2783117"><ele>12.0</ele><time>2026-03-28T12:46:49.384Z</time></trkpt><trkpt lat="40.594875" lon="8.2785933"><ele>12.0</ele><time>2026-03-28T12:46:50.385Z</time></trkpt><trkpt lat="40.5949183" lon="8.2788667"><ele>12.0</ele><time>2026-03-28T12:46:51.385Z</time></trkpt><trkpt lat="40.5949667" lon="8.2791467"><ele>12.0</ele><time>2026-03-28T12:46:52.385Z</time></trkpt><trkpt lat="40.5950183" lon="8.27943"><ele>12.0</ele><time>2026-03-28T12:46:53.385Z</time></trkpt><trkpt lat="40.595065" lon="8.2797317"><ele>12.0</ele><time>2026-03-28T12:46:54.385Z</time></trkpt><trkpt lat="40.5951033" lon="8.2800233"><ele>11.5</ele><time>2026-03-28T12:46:55.384Z</time></trkpt><trkpt lat="40.595155" lon="8.2803183"><ele>11.0</ele><time>2026-03-28T12:46:56.385Z</time></trkpt><trkpt lat="40.5952017" lon="8.2806117"><ele>11.0</ele><time>2026-03-28T12:46:57.385Z</time></trkpt><trkpt lat="40.59525" lon="8.28091"><ele>11.0</ele><time>2026-03-28T12:46:58.385Z</time></trkpt><trkpt lat="40.5953017" lon="8.281205"><ele>10.333333333333332</ele><time>2026-03-28T12:46:59.385Z</time></trkpt><trkpt lat="40.5953483" lon="8.2814883"><ele>9.666666666666666</ele><time>2026-03-28T12:47:00.385Z</time></trkpt><trkpt lat="40.59539" lon="8.2817567"><ele>9.0</ele><time>2026-03-28T12:47:01.384Z</time></trkpt><trkpt lat="40.5954333" lon="8.2820067"><ele>9.0</ele><time>2026-03-28T12:47:02.385Z</time></trkpt><trkpt lat="40.595475" lon="8.2822417"><ele>9.0</ele><time>2026-03-28T12:47:03.384Z</time></trkpt><trkpt lat="40.5955133" lon="8.2824417"><ele>9.0</ele><time>2026-03-28T12:47:04.385Z</time></trkpt><trkpt lat="40.5955483" lon="8.2826067"><ele>9.4</ele><time>2026-03-28T12:47:05.384Z</time></trkpt><trkpt lat="40.595565" lon="8.2827417"><ele>9.8</ele><time>2026-03-28T12:47:06.384Z</time></trkpt><trkpt lat="40.595575" lon="8.2828467"><ele>10.200000000000001</ele><time>2026-03-28T12:47:07.385Z</time></trkpt><trkpt lat="40.5955817" lon="8.2829517"><ele>10.600000000000001</ele><time>2026-03-28T12:47:08.385Z</time></trkpt><trkpt lat="40.5956067" lon="8.2830833"><ele>11.0</ele><time>2026-03-28T12:47:09.384Z</time></trkpt><trkpt lat="40.59562" lon="8.283245"><ele>11.0</ele><time>2026-03-28T12:47:10.385Z</time></trkpt><trkpt lat="40.5956033" lon="8.28344"><ele>11.0</ele><time>2026-03-28T12:47:11.385Z</time></trkpt><trkpt lat="40.5955833" lon="8.283645"><ele>11.0</ele><time>2026-03-28T12:47:12.384Z</time></trkpt><trkpt lat="40.5955583" lon="8.2838483"><ele>10.25</ele><time>2026-03-28T12:47:13.384Z</time></trkpt><trkpt lat="40.595535" lon="8.2840467"><ele>9.5</ele><time>2026-03-28T12:47:14.385Z</time></trkpt><trkpt lat="40.5955117" lon="8.2842333"><ele>8.75</ele><time>2026-03-28T12:47:15.385Z</time></trkpt><trkpt lat="40.5954817" lon="8.28441"><ele>8.0</ele><time>2026-03-28T12:47:16.385Z</time></trkpt><trkpt lat="40.59546" lon="8.2845767"><ele>8.0</ele><time>2026-03-28T12:47:17.385Z</time></trkpt><trkpt lat="40.59543" lon="8.2847433"><ele>8.0</ele><time>2026-03-28T12:47:18.385Z</time></trkpt><trkpt lat="40.5953967" lon="8.2848783"><ele>8.0</ele><time>2026-03-28T12:47:19.385Z</time></trkpt><trkpt lat="40.59537" lon="8.28499"><ele>8.0</ele><time>2026-03-28T12:47:20.385Z</time></trkpt><trkpt lat="40.5953517" lon="8.2850767"><ele>8.0</ele><time>2026-03-28T12:47:21.385Z</time></trkpt><trkpt lat="40.5954" lon="8.2851717"><ele>7.999999999999999</ele><time>2026-03-28T12:47:23.384Z</time></trkpt><trkpt lat="40.5955083" lon="8.2851317"><ele>8.0</ele><time>2026-03-28T12:47:25.385Z</time></trkpt><trkpt lat="40.5955433" lon="8.2850517"><ele>8.0</ele><time>2026-03-28T12:47:26.384Z</time></trkpt><trkpt lat="40.5955783" lon="8.2849317"><ele>8.0</ele><time>2026-03-28T12:47:28.385Z</time></trkpt><trkpt lat="40.5956017" lon="8.284835"><ele>7.999999999999999</ele><time>2026-03-28T12:47:33.385Z</time></trkpt><trkpt lat="40.5956633" lon="8.28476"><ele>8.0</ele><time>2026-03-28T12:47:36.385Z</time></trkpt><trkpt lat="40.5956567" lon="8.2846717"><ele>8.0</ele><time>2026-03-28T12:47:39.385Z</time></trkpt><trkpt lat="40.59557" lon="8.28469"><ele>8.0</ele><time>2026-03-28T12:47:42.385Z</time></trkpt><trkpt lat="40.5955467" lon="8.28478"><ele>8.0</ele><time>2026-03-28T12:47:45.384Z</time></trkpt><trkpt lat="40.5954867" lon="8.2849033"><ele>8.0</ele><time>2026-03-28T12:51:48.384Z</time></trkpt><trkpt lat="40.5954567" lon="8.2850417"><ele>8.0</ele><time>2026-03-28T12:51:50.384Z</time></trkpt><trkpt lat="40.5953983" lon="8.2851317"><ele>7.800000000000001</ele><time>2026-03-28T12:52:06.384Z</time></trkpt><trkpt lat="40.595355" lon="8.2852833"><ele>7.6000000000000005</ele><time>2026-03-28T12:52:08.384Z</time></trkpt><trkpt lat="40.5953383" lon="8.2854033"><ele>7.3999999999999995</ele><time>2026-03-28T12:52:09.384Z</time></trkpt><trkpt lat="40.5953283" lon="8.2855283"><ele>7.199999999999999</ele><time>2026-03-28T12:52:10.384Z</time></trkpt><trkpt lat="40.5953133" lon="8.28566"><ele>7.0</ele><time>2026-03-28T12:52:11.383Z</time></trkpt><trkpt lat="40.5952983" lon="8.2858033"><ele>6.5</ele><time>2026-03-28T12:52:12.384Z</time></trkpt><trkpt lat="40.5952783" lon="8.2859483"><ele>6.0</ele><time>2026-03-28T12:52:13.384Z</time></trkpt><trkpt lat="40.595265" lon="8.2861033"><ele>5.5</ele><time>2026-03-28T12:52:14.384Z</time></trkpt><trkpt lat="40.5952483" lon="8.2862733"><ele>5.0</ele><time>2026-03-28T12:52:15.384Z</time></trkpt><trkpt lat="40.59523" lon="8.2864517"><ele>5.0</ele><time>2026-03-28T12:52:16.384Z</time></trkpt><trkpt lat="40.59521" lon="8.2866317"><ele>5.0</ele><time>2026-03-28T12:52:17.384Z</time></trkpt><trkpt lat="40.595185" lon="8.2868067"><ele>5.0</ele><time>2026-03-28T12:52:18.383Z</time></trkpt><trkpt lat="40.595165" lon="8.2869867"><ele>5.0</ele><time>2026-03-28T12:52:19.384Z</time></trkpt><trkpt lat="40.59515" lon="8.2871733"><ele>4.25</ele><time>2026-03-28T12:52:20.384Z</time></trkpt><trkpt lat="40.5951283" lon="8.28735"><ele>3.5</ele><time>2026-03-28T12:52:21.383Z</time></trkpt><trkpt lat="40.595105" lon="8.2875183"><ele>2.75</ele><time>2026-03-28T12:52:22.384Z</time></trkpt><trkpt lat="40.595085" lon="8.2877"><ele>2.0</ele><time>2026-03-28T12:52:23.384Z</time></trkpt><trkpt lat="40.59506" lon="8.2878917"><ele>2.0</ele><time>2026-03-28T12:52:24.384Z</time></trkpt><trkpt lat="40.59504" lon="8.2880767"><ele>2.0</ele><time>2026-03-28T12:52:25.383Z</time></trkpt><trkpt lat="40.5950117" lon="8.2882733"><ele>2.0</ele><time>2026-03-28T12:52:26.384Z</time></trkpt><trkpt lat="40.5949833" lon="8.288485"><ele>2.333333333333333</ele><time>2026-03-28T12:52:27.384Z</time></trkpt><trkpt lat="40.5949633" lon="8.2886967"><ele>2.6666666666666665</ele><time>2026-03-28T12:52:28.383Z</time></trkpt><trkpt lat="40.594935" lon="8.2889083"><ele>3.0</ele><time>2026-03-28T12:52:29.383Z</time></trkpt><trkpt lat="40.59491" lon="8.289115"><ele>3.666666666666667</ele><time>2026-03-28T12:52:30.384Z</time></trkpt><trkpt lat="40.5948883" lon="8.2893167"><ele>4.333333333333334</ele><time>2026-03-28T12:52:31.384Z</time></trkpt><trkpt lat="40.59487" lon="8.289515"><ele>5.0</ele><time>2026-03-28T12:52:32.383Z</time></trkpt><trkpt lat="40.594845" lon="8.2897233"><ele>6.0</ele><time>2026-03-28T12:52:33.384Z</time></trkpt><trkpt lat="40.5948217" lon="8.28993"><ele>7.0</ele><time>2026-03-28T12:52:34.384Z</time></trkpt><trkpt lat="40.5947917" lon="8.2901433"><ele>8.0</ele><time>2026-03-28T12:52:35.384Z</time></trkpt><trkpt lat="40.5947633" lon="8.2903667"><ele>8.0</ele><time>2026-03-28T12:52:36.383Z</time></trkpt><trkpt lat="40.5947317" lon="8.2905833"><ele>8.0</ele><time>2026-03-28T12:52:37.384Z</time></trkpt><trkpt lat="40.5946983" lon="8.2907933"><ele>8.0</ele><time>2026-03-28T12:52:38.383Z</time></trkpt><trkpt lat="40.5946667" lon="8.291005"><ele>8.0</ele><time>2026-03-28T12:52:39.383Z</time></trkpt><trkpt lat="40.594625" lon="8.2912217"><ele>8.0</ele><time>2026-03-28T12:52:40.384Z</time></trkpt><trkpt lat="40.5945683" lon="8.2914317"><ele>8.0</ele><time>2026-03-28T12:52:41.384Z</time></trkpt><trkpt lat="40.5945167" lon="8.2916483"><ele>7.0</ele><time>2026-03-28T12:52:42.384Z</time></trkpt><trkpt lat="40.59446" lon="8.2918633"><ele>6.0</ele><time>2026-03-28T12:52:43.384Z</time></trkpt><trkpt lat="40.5944083" lon="8.29207"><ele>5.0</ele><time>2026-03-28T12:52:44.384Z</time></trkpt><trkpt lat="40.5943617" lon="8.2922667"><ele>4.333333333333334</ele><time>2026-03-28T12:52:45.384Z</time></trkpt><trkpt lat="40.5943117" lon="8.29245"><ele>3.666666666666667</ele><time>2026-03-28T12:52:46.384Z</time></trkpt><trkpt lat="40.5942567" lon="8.2926383"><ele>3.0</ele><time>2026-03-28T12:52:47.384Z</time></trkpt><trkpt lat="40.5942083" lon="8.2928267"><ele>3.0</ele><time>2026-03-28T12:52:48.384Z</time></trkpt><trkpt lat="40.5941617" lon="8.29301"><ele>3.0</ele><time>2026-03-28T12:52:49.384Z</time></trkpt><trkpt lat="40.5941267" lon="8.293205"><ele>3.0</ele><time>2026-03-28T12:52:50.384Z</time></trkpt><trkpt lat="40.5940833" lon="8.293375"><ele>3.0</ele><time>2026-03-28T12:52:51.384Z</time></trkpt><trkpt lat="40.594035" lon="8.2935533"><ele>2.6666666666666665</ele><time>2026-03-28T12:52:52.384Z</time></trkpt><trkpt lat="40.5939633" lon="8.2937233"><ele>2.333333333333333</ele><time>2026-03-28T12:52:53.384Z</time></trkpt><trkpt lat="40.5938783" lon="8.2938967"><ele>2.0</ele><time>2026-03-28T12:52:54.383Z</time></trkpt><trkpt lat="40.5937933" lon="8.2940783"><ele>2.0</ele><time>2026-03-28T12:52:55.384Z</time></trkpt><trkpt lat="40.5937167" lon="8.2942783"><ele>2.0</ele><time>2026-03-28T12:52:56.383Z</time></trkpt><trkpt lat="40.5936383" lon="8.294495"><ele>2.0</ele><time>2026-03-28T12:52:57.384Z</time></trkpt><trkpt lat="40.5935533" lon="8.2947033"><ele>1.6666666666666665</ele><time>2026-03-28T12:52:58.384Z</time></trkpt><trkpt lat="40.5934717" lon="8.29491"><ele>1.3333333333333333</ele><time>2026-03-28T12:52:59.384Z</time></trkpt><trkpt lat="40.5933883" lon="8.29513"><ele>1.0</ele><time>2026-03-28T12:53:00.384Z</time></trkpt><trkpt lat="40.5932867" lon="8.295355"><ele>1.0</ele><time>2026-03-28T12:53:01.384Z</time></trkpt><trkpt lat="40.593195" lon="8.29558"><ele>1.0</ele><time>2026-03-28T12:53:02.384Z</time></trkpt><trkpt lat="40.5931017" lon="8.2957967"><ele>1.0</ele><time>2026-03-28T12:53:03.384Z</time></trkpt><trkpt lat="40.593015" lon="8.296015"><ele>1.3333333333333333</ele><time>2026-03-28T12:53:04.384Z</time></trkpt><trkpt lat="40.592925" lon="8.29623"><ele>1.6666666666666665</ele><time>2026-03-28T12:53:05.384Z</time></trkpt><trkpt lat="40.5928333" lon="8.296425"><ele>2.0</ele><time>2026-03-28T12:53:06.383Z</time></trkpt><trkpt lat="40.5927517" lon="8.2966333"><ele>1.3333333333333333</ele><time>2026-03-28T12:53:07.384Z</time></trkpt><trkpt lat="40.5926717" lon="8.2968383"><ele>0.6666666666666666</ele><time>2026-03-28T12:53:08.384Z</time></trkpt><trkpt lat="40.5925983" lon="8.2970417"><ele>0.0</ele><time>2026-03-28T12:53:09.384Z</time></trkpt><trkpt lat="40.5925233" lon="8.2972367"><ele>0.6666666666666666</ele><time>2026-03-28T12:53:10.384Z</time></trkpt><trkpt lat="40.5924483" lon="8.2974217"><ele>1.3333333333333333</ele><time>2026-03-28T12:53:11.384Z</time></trkpt><trkpt lat="40.5923767" lon="8.2976133"><ele>2.0</ele><time>2026-03-28T12:53:12.384Z</time></trkpt><trkpt lat="40.592305" lon="8.2977883"><ele>2.0</ele><time>2026-03-28T12:53:13.384Z</time></trkpt><trkpt lat="40.5922367" lon="8.29796"><ele>2.0</ele><time>2026-03-28T12:53:14.383Z</time></trkpt><trkpt lat="40.5921567" lon="8.2981317"><ele>2.0</ele><time>2026-03-28T12:53:15.383Z</time></trkpt><trkpt lat="40.59208" lon="8.2983217"><ele>1.3333333333333333</ele><time>2026-03-28T12:53:16.384Z</time></trkpt><trkpt lat="40.5920033" lon="8.2984983"><ele>0.6666666666666666</ele><time>2026-03-28T12:53:17.384Z</time></trkpt><trkpt lat="40.5919317" lon="8.2986883"><ele>0.0</ele><time>2026-03-28T12:53:18.384Z</time></trkpt><trkpt lat="40.5918583" lon="8.2988783"><ele>0.3333333333333333</ele><time>2026-03-28T12:53:19.384Z</time></trkpt><trkpt lat="40.5917817" lon="8.299055"><ele>0.6666666666666666</ele><time>2026-03-28T12:53:20.384Z</time></trkpt><trkpt lat="40.591705" lon="8.2992267"><ele>1.0</ele><time>2026-03-28T12:53:21.383Z</time></trkpt><trkpt lat="40.591625" lon="8.2993867"><ele>1.0</ele><time>2026-03-28T12:53:22.384Z</time></trkpt><trkpt lat="40.59156" lon="8.2995617"><ele>1.0</ele><time>2026-03-28T12:53:23.384Z</time></trkpt><trkpt lat="40.59149" lon="8.299735"><ele>1.0</ele><time>2026-03-28T12:53:24.384Z</time></trkpt><trkpt lat="40.5914233" lon="8.2999"><ele>1.0</ele><time>2026-03-28T12:53:25.384Z</time></trkpt><trkpt lat="40.5913583" lon="8.30006"><ele>1.0</ele><time>2026-03-28T12:53:26.383Z</time></trkpt><trkpt lat="40.591295" lon="8.3002167"><ele>1.0</ele><time>2026-03-28T12:53:27.384Z</time></trkpt><trkpt lat="40.591235" lon="8.3003817"><ele>1.0</ele><time>2026-03-28T12:53:28.384Z</time></trkpt><trkpt lat="40.5911783" lon="8.3005333"><ele>1.0</ele><time>2026-03-28T12:53:29.384Z</time></trkpt><trkpt lat="40.59112" lon="8.30068"><ele>1.0</ele><time>2026-03-28T12:53:30.384Z</time></trkpt><trkpt lat="40.5910567" lon="8.300825"><ele>1.0</ele><time>2026-03-28T12:53:31.384Z</time></trkpt><trkpt lat="40.5910017" lon="8.300975"><ele>1.0</ele><time>2026-03-28T12:53:32.384Z</time></trkpt><trkpt lat="40.59094" lon="8.3011333"><ele>1.0</ele><time>2026-03-28T12:53:33.384Z</time></trkpt><trkpt lat="40.5908667" lon="8.3012867"><ele>1.75</ele><time>2026-03-28T12:53:34.383Z</time></trkpt><trkpt lat="40.59079" lon="8.301445"><ele>2.5</ele><time>2026-03-28T12:53:35.383Z</time></trkpt><trkpt lat="40.590715" lon="8.3015967"><ele>3.25</ele><time>2026-03-28T12:53:36.383Z</time></trkpt><trkpt lat="40.5906283" lon="8.3017483"><ele>4.0</ele><time>2026-03-28T12:53:37.384Z</time></trkpt><trkpt lat="40.5905417" lon="8.3019"><ele>4.0</ele><time>2026-03-28T12:53:38.384Z</time></trkpt><trkpt lat="40.5904433" lon="8.3020417"><ele>4.0</ele><time>2026-03-28T12:53:39.384Z</time></trkpt><trkpt lat="40.590335" lon="8.3021833"><ele>4.0</ele><time>2026-03-28T12:53:40.384Z</time></trkpt><trkpt lat="40.5902433" lon="8.3023317"><ele>4.0</ele><time>2026-03-28T12:53:41.384Z</time></trkpt><trkpt lat="40.590165" lon="8.3024617"><ele>3.75</ele><time>2026-03-28T12:53:42.384Z</time></trkpt><trkpt lat="40.5900833" lon="8.3025933"><ele>3.5</ele><time>2026-03-28T12:53:43.384Z</time></trkpt><trkpt lat="40.5899883" lon="8.302725"><ele>3.25</ele><time>2026-03-28T12:53:44.384Z</time></trkpt><trkpt lat="40.5898983" lon="8.3028483"><ele>3.0</ele><time>2026-03-28T12:53:45.384Z</time></trkpt><trkpt lat="40.58982" lon="8.3029783"><ele>3.0</ele><time>2026-03-28T12:53:46.384Z</time></trkpt><trkpt lat="40.589745" lon="8.3030983"><ele>3.0</ele><time>2026-03-28T12:53:47.384Z</time></trkpt><trkpt lat="40.5896633" lon="8.3032217"><ele>3.0</ele><time>2026-03-28T12:53:48.383Z</time></trkpt><trkpt lat="40.58958" lon="8.3033433"><ele>3.0</ele><time>2026-03-28T12:53:49.384Z</time></trkpt><trkpt lat="40.589495" lon="8.3034583"><ele>3.25</ele><time>2026-03-28T12:53:50.383Z</time></trkpt><trkpt lat="40.5894033" lon="8.30359"><ele>3.5</ele><time>2026-03-28T12:53:51.384Z</time></trkpt><trkpt lat="40.5893233" lon="8.3037383"><ele>3.75</ele><time>2026-03-28T12:53:52.384Z</time></trkpt><trkpt lat="40.5892233" lon="8.3038767"><ele>4.0</ele><time>2026-03-28T12:53:53.384Z</time></trkpt><trkpt lat="40.589125" lon="8.304015"><ele>3.5</ele><time>2026-03-28T12:53:54.384Z</time></trkpt><trkpt lat="40.5890267" lon="8.3041517"><ele>3.0</ele><time>2026-03-28T12:53:55.384Z</time></trkpt><trkpt lat="40.5889383" lon="8.3042833"><ele>2.5</ele><time>2026-03-28T12:53:56.384Z</time></trkpt><trkpt lat="40.5888467" lon="8.3044283"><ele>2.0</ele><time>2026-03-28T12:53:57.384Z</time></trkpt><trkpt lat="40.5887617" lon="8.3045633"><ele>2.0</ele><time>2026-03-28T12:53:58.384Z</time></trkpt><trkpt lat="40.5886867" lon="8.304675"><ele>2.0</ele><time>2026-03-28T12:53:59.384Z</time></trkpt><trkpt lat="40.5886117" lon="8.3048"><ele>2.0</ele><time>2026-03-28T12:54:00.384Z</time></trkpt><trkpt lat="40.5885417" lon="8.30492"><ele>2.0</ele><time>2026-03-28T12:54:01.384Z</time></trkpt><trkpt lat="40.5884617" lon="8.3050383"><ele>2.0</ele><time>2026-03-28T12:54:02.384Z</time></trkpt><trkpt lat="40.5883933" lon="8.30515"><ele>2.0</ele><time>2026-03-28T12:54:03.384Z</time></trkpt><trkpt lat="40.5883283" lon="8.3052617"><ele>2.0</ele><time>2026-03-28T12:54:04.383Z</time></trkpt><trkpt lat="40.5882533" lon="8.3053767"><ele>2.0</ele><time>2026-03-28T12:54:05.384Z</time></trkpt><trkpt lat="40.58817" lon="8.3055017"><ele>1.75</ele><time>2026-03-28T12:54:06.384Z</time></trkpt><trkpt lat="40.5880883" lon="8.30562"><ele>1.5</ele><time>2026-03-28T12:54:07.384Z</time></trkpt><trkpt lat="40.5880033" lon="8.3057483"><ele>1.25</ele><time>2026-03-28T12:54:08.383Z</time></trkpt><trkpt lat="40.5879217" lon="8.305875"><ele>1.0</ele><time>2026-03-28T12:54:09.384Z</time></trkpt><trkpt lat="40.5878417" lon="8.3060017"><ele>1.75</ele><time>2026-03-28T12:54:10.384Z</time></trkpt><trkpt lat="40.5877567" lon="8.3061383"><ele>2.5</ele><time>2026-03-28T12:54:11.384Z</time></trkpt><trkpt lat="40.58767" lon="8.306275"><ele>3.25</ele><time>2026-03-28T12:54:12.384Z</time></trkpt><trkpt lat="40.5875817" lon="8.306405"><ele>4.0</ele><time>2026-03-28T12:54:13.384Z</time></trkpt><trkpt lat="40.5874917" lon="8.3065283"><ele>4.0</ele><time>2026-03-28T12:54:14.384Z</time></trkpt><trkpt lat="40.58741" lon="8.3066617"><ele>4.0</ele><time>2026-03-28T12:54:15.383Z</time></trkpt><trkpt lat="40.5873333" lon="8.3067783"><ele>4.0</ele><time>2026-03-28T12:54:16.384Z</time></trkpt><trkpt lat="40.5872483" lon="8.3068967"><ele>4.0</ele><time>2026-03-28T12:54:17.384Z</time></trkpt><trkpt lat="40.5871617" lon="8.3070167"><ele>4.0</ele><time>2026-03-28T12:54:18.384Z</time></trkpt><trkpt lat="40.5870733" lon="8.3071383"><ele>4.0</ele><time>2026-03-28T12:54:19.384Z</time></trkpt><trkpt lat="40.58699" lon="8.307265"><ele>4.0</ele><time>2026-03-28T12:54:20.384Z</time></trkpt><trkpt lat="40.5869217" lon="8.307385"><ele>4.0</ele><time>2026-03-28T12:54:21.384Z</time></trkpt><trkpt lat="40.5868417" lon="8.3075083"><ele>5.0</ele><time>2026-03-28T12:54:22.383Z</time></trkpt><trkpt lat="40.5867467" lon="8.3076417"><ele>6.0</ele><time>2026-03-28T12:54:23.384Z</time></trkpt><trkpt lat="40.5866583" lon="8.30777"><ele>7.0</ele><time>2026-03-28T12:54:24.384Z</time></trkpt><trkpt lat="40.5865783" lon="8.3078933"><ele>8.0</ele><time>2026-03-28T12:54:25.383Z</time></trkpt><trkpt lat="40.58649" lon="8.3080317"><ele>8.5</ele><time>2026-03-28T12:54:26.383Z</time></trkpt><trkpt lat="40.5864083" lon="8.3081617"><ele>9.0</ele><time>2026-03-28T12:54:27.384Z</time></trkpt><trkpt lat="40.5863083" lon="8.3082983"><ele>9.5</ele><time>2026-03-28T12:54:28.384Z</time></trkpt><trkpt lat="40.5862183" lon="8.308435"><ele>10.0</ele><time>2026-03-28T12:54:29.384Z</time></trkpt><trkpt lat="40.5861333" lon="8.30855"><ele>10.0</ele><time>2026-03-28T12:54:30.383Z</time></trkpt><trkpt lat="40.5860467" lon="8.3086767"><ele>10.0</ele><time>2026-03-28T12:54:31.383Z</time></trkpt><trkpt lat="40.5859483" lon="8.3087983"><ele>10.0</ele><time>2026-03-28T12:54:32.384Z</time></trkpt><trkpt lat="40.585825" lon="8.3089133"><ele>10.0</ele><time>2026-03-28T12:54:33.384Z</time></trkpt><trkpt lat="40.5856867" lon="8.3090367"><ele>9.0</ele><time>2026-03-28T12:54:34.383Z</time></trkpt><trkpt lat="40.58556" lon="8.3091683"><ele>8.0</ele><time>2026-03-28T12:54:35.383Z</time></trkpt><trkpt lat="40.5854417" lon="8.3092883"><ele>7.0</ele><time>2026-03-28T12:54:36.384Z</time></trkpt><trkpt lat="40.5853267" lon="8.3094133"><ele>7.25</ele><time>2026-03-28T12:54:37.384Z</time></trkpt><trkpt lat="40.5852117" lon="8.3095367"><ele>7.5</ele><time>2026-03-28T12:54:38.384Z</time></trkpt><trkpt lat="40.5851067" lon="8.3096517"><ele>7.75</ele><time>2026-03-28T12:54:39.384Z</time></trkpt><trkpt lat="40.5849983" lon="8.30977"><ele>8.0</ele><time>2026-03-28T12:54:40.384Z</time></trkpt><trkpt lat="40.5848833" lon="8.3099033"><ele>8.0</ele><time>2026-03-28T12:54:41.384Z</time></trkpt><trkpt lat="40.5847683" lon="8.31001"><ele>8.0</ele><time>2026-03-28T12:54:42.384Z</time></trkpt><trkpt lat="40.584655" lon="8.3101083"><ele>8.0</ele><time>2026-03-28T12:54:43.383Z</time></trkpt><trkpt lat="40.584535" lon="8.3102133"><ele>8.0</ele><time>2026-03-28T12:54:44.384Z</time></trkpt><trkpt lat="40.5844283" lon="8.3103133"><ele>7.5</ele><time>2026-03-28T12:54:45.384Z</time></trkpt><trkpt lat="40.5843283" lon="8.310405"><ele>7.0</ele><time>2026-03-28T12:54:46.383Z</time></trkpt><trkpt lat="40.5842233" lon="8.31049"><ele>6.5</ele><time>2026-03-28T12:54:47.383Z</time></trkpt><trkpt lat="40.5841133" lon="8.310565"><ele>6.0</ele><time>2026-03-28T12:54:48.384Z</time></trkpt><trkpt lat="40.5840067" lon="8.3106433"><ele>6.0</ele><time>2026-03-28T12:54:49.384Z</time></trkpt><trkpt lat="40.58391" lon="8.3107117"><ele>6.0</ele><time>2026-03-28T12:54:50.384Z</time></trkpt><trkpt lat="40.5837767" lon="8.31077"><ele>6.0</ele><time>2026-03-28T12:54:51.384Z</time></trkpt><trkpt lat="40.5836433" lon="8.3108317"><ele>6.0</ele><time>2026-03-28T12:54:52.384Z</time></trkpt><trkpt lat="40.58352" lon="8.31089"><ele>7.25</ele><time>2026-03-28T12:54:53.384Z</time></trkpt><trkpt lat="40.5833933" lon="8.310945"><ele>8.5</ele><time>2026-03-28T12:54:54.384Z</time></trkpt><trkpt lat="40.5832617" lon="8.3110017"><ele>9.75</ele><time>2026-03-28T12:54:55.384Z</time></trkpt><trkpt lat="40.5831233" lon="8.3110617"><ele>11.0</ele><time>2026-03-28T12:54:56.384Z</time></trkpt><trkpt lat="40.58299" lon="8.311125"><ele>11.0</ele><time>2026-03-28T12:54:57.384Z</time></trkpt><trkpt lat="40.5828533" lon="8.3111867"><ele>11.0</ele><time>2026-03-28T12:54:58.384Z</time></trkpt><trkpt lat="40.5827233" lon="8.3112483"><ele>11.0</ele><time>2026-03-28T12:54:59.384Z</time></trkpt><trkpt lat="40.5826017" lon="8.3113067"><ele>11.0</ele><time>2026-03-28T12:55:00.384Z</time></trkpt><trkpt lat="40.5824867" lon="8.3113667"><ele>9.75</ele><time>2026-03-28T12:55:01.383Z</time></trkpt><trkpt lat="40.5823717" lon="8.31143"><ele>8.5</ele><time>2026-03-28T12:55:02.384Z</time></trkpt><trkpt lat="40.5822533" lon="8.3114883"><ele>7.25</ele><time>2026-03-28T12:55:03.384Z</time></trkpt><trkpt lat="40.58213" lon="8.3115417"><ele>6.0</ele><time>2026-03-28T12:55:04.384Z</time></trkpt><trkpt lat="40.5820017" lon="8.31157"><ele>6.0</ele><time>2026-03-28T12:55:05.384Z</time></trkpt><trkpt lat="40.5818817" lon="8.3116117"><ele>6.0</ele><time>2026-03-28T12:55:06.384Z</time></trkpt><trkpt lat="40.58174" lon="8.3116483"><ele>6.0</ele><time>2026-03-28T12:55:07.384Z</time></trkpt><trkpt lat="40.581605" lon="8.3116933"><ele>6.0</ele><time>2026-03-28T12:55:08.384Z</time></trkpt><trkpt lat="40.5814833" lon="8.3117383"><ele>6.0</ele><time>2026-03-28T12:55:09.384Z</time></trkpt><trkpt lat="40.5813633" lon="8.3117783"><ele>6.0</ele><time>2026-03-28T12:55:10.384Z</time></trkpt><trkpt lat="40.5812567" lon="8.3118217"><ele>6.0</ele><time>2026-03-28T12:55:11.384Z</time></trkpt><trkpt lat="40.58115" lon="8.3118617"><ele>6.0</ele><time>2026-03-28T12:55:12.384Z</time></trkpt><trkpt lat="40.5810483" lon="8.3118933"><ele>5.833333333333333</ele><time>2026-03-28T12:55:13.384Z</time></trkpt><trkpt lat="40.5809517" lon="8.3119283"><ele>5.666666666666667</ele><time>2026-03-28T12:55:14.384Z</time></trkpt><trkpt lat="40.5808583" lon="8.31196"><ele>5.5</ele><time>2026-03-28T12:55:15.384Z</time></trkpt><trkpt lat="40.5807717" lon="8.311985"><ele>5.333333333333334</ele><time>2026-03-28T12:55:16.383Z</time></trkpt><trkpt lat="40.5806883" lon="8.3120183"><ele>5.166666666666667</ele><time>2026-03-28T12:55:17.384Z</time></trkpt><trkpt lat="40.58062" lon="8.312035"><ele>5.0</ele><time>2026-03-28T12:55:18.384Z</time></trkpt><trkpt lat="40.5805583" lon="8.3120517"><ele>5.0</ele><time>2026-03-28T12:55:19.384Z</time></trkpt><trkpt lat="40.580495" lon="8.3120683"><ele>5.0</ele><time>2026-03-28T12:55:20.384Z</time></trkpt><trkpt lat="40.5804317" lon="8.3120867"><ele>5.0</ele><time>2026-03-28T12:55:21.384Z</time></trkpt><trkpt lat="40.580365" lon="8.3121067"><ele>5.0</ele><time>2026-03-28T12:55:22.384Z</time></trkpt><trkpt lat="40.5803" lon="8.312135"><ele>5.0</ele><time>2026-03-28T12:55:23.384Z</time></trkpt><trkpt lat="40.5802367" lon="8.3121683"><ele>5.0</ele><time>2026-03-28T12:55:24.383Z</time></trkpt><trkpt lat="40.5801617" lon="8.3121983"><ele>5.0</ele><time>2026-03-28T12:55:25.383Z</time></trkpt><trkpt lat="40.5800833" lon="8.31222"><ele>4.833333333333334</ele><time>2026-03-28T12:55:26.384Z</time></trkpt><trkpt lat="40.580005" lon="8.31225"><ele>4.666666666666667</ele><time>2026-03-28T12:55:27.384Z</time></trkpt><trkpt lat="40.57992" lon="8.3122917"><ele>4.5</ele><time>2026-03-28T12:55:28.384Z</time></trkpt><trkpt lat="40.5798383" lon="8.312325"><ele>4.333333333333333</ele><time>2026-03-28T12:55:29.383Z</time></trkpt><trkpt lat="40.579755" lon="8.3123717"><ele>4.166666666666666</ele><time>2026-03-28T12:55:30.384Z</time></trkpt><trkpt lat="40.5796667" lon="8.3124267"><ele>4.0</ele><time>2026-03-28T12:55:31.384Z</time></trkpt><trkpt lat="40.5795783" lon="8.31248"><ele>4.4</ele><time>2026-03-28T12:55:32.384Z</time></trkpt><trkpt lat="40.579485" lon="8.3125433"><ele>4.800000000000001</ele><time>2026-03-28T12:55:33.383Z</time></trkpt><trkpt lat="40.5794" lon="8.3126233"><ele>5.199999999999999</ele><time>2026-03-28T12:55:34.383Z</time></trkpt><trkpt lat="40.5793317" lon="8.312685"><ele>5.6</ele><time>2026-03-28T12:55:35.384Z</time></trkpt><trkpt lat="40.57926" lon="8.3127433"><ele>6.0</ele><time>2026-03-28T12:55:36.384Z</time></trkpt><trkpt lat="40.5791817" lon="8.31281"><ele>6.0</ele><time>2026-03-28T12:55:37.384Z</time></trkpt><trkpt lat="40.5790917" lon="8.3128733"><ele>6.0</ele><time>2026-03-28T12:55:38.384Z</time></trkpt><trkpt lat="40.579" lon="8.312925"><ele>6.0</ele><time>2026-03-28T12:55:39.384Z</time></trkpt><trkpt lat="40.5789133" lon="8.3129767"><ele>6.0</ele><time>2026-03-28T12:55:40.384Z</time></trkpt><trkpt lat="40.578835" lon="8.31303"><ele>6.0</ele><time>2026-03-28T12:55:41.384Z</time></trkpt><trkpt lat="40.5787417" lon="8.3130867"><ele>6.0</ele><time>2026-03-28T12:55:42.384Z</time></trkpt><trkpt lat="40.5786517" lon="8.313145"><ele>6.0</ele><time>2026-03-28T12:55:43.384Z</time></trkpt><trkpt lat="40.5785617" lon="8.3131967"><ele>6.0</ele><time>2026-03-28T12:55:44.383Z</time></trkpt><trkpt lat="40.5784717" lon="8.3132483"><ele>6.0</ele><time>2026-03-28T12:55:45.384Z</time></trkpt><trkpt lat="40.5783867" lon="8.3133183"><ele>6.0</ele><time>2026-03-28T12:55:46.384Z</time></trkpt><trkpt lat="40.5782983" lon="8.3133733"><ele>6.0</ele><time>2026-03-28T12:55:47.384Z</time></trkpt><trkpt lat="40.57821" lon="8.313425"><ele>6.0</ele><time>2026-03-28T12:55:48.384Z</time></trkpt><trkpt lat="40.5781233" lon="8.3134817"><ele>6.0</ele><time>2026-03-28T12:55:49.384Z</time></trkpt><trkpt lat="40.578045" lon="8.31354"><ele>6.0</ele><time>2026-03-28T12:55:50.384Z</time></trkpt><trkpt lat="40.57797" lon="8.3135817"><ele>6.0</ele><time>2026-03-28T12:55:51.384Z</time></trkpt><trkpt lat="40.5779083" lon="8.3136033"><ele>6.0</ele><time>2026-03-28T12:55:52.383Z</time></trkpt><trkpt lat="40.5778467" lon="8.3136317"><ele>5.7142857142857135</ele><time>2026-03-28T12:55:53.384Z</time></trkpt><trkpt lat="40.577785" lon="8.313655"><ele>5.428571428571429</ele><time>2026-03-28T12:55:54.384Z</time></trkpt><trkpt lat="40.5777233" lon="8.3136783"><ele>5.142857142857142</ele><time>2026-03-28T12:55:55.384Z</time></trkpt><trkpt lat="40.5776533" lon="8.31371"><ele>4.857142857142857</ele><time>2026-03-28T12:55:56.384Z</time></trkpt><trkpt lat="40.5775867" lon="8.3137433"><ele>4.571428571428571</ele><time>2026-03-28T12:55:57.384Z</time></trkpt><trkpt lat="40.5775167" lon="8.313775"><ele>4.285714285714286</ele><time>2026-03-28T12:55:58.384Z</time></trkpt><trkpt lat="40.5774483" lon="8.3138033"><ele>4.0</ele><time>2026-03-28T12:55:59.383Z</time></trkpt><trkpt lat="40.5773767" lon="8.3138383"><ele>3.9999999999999996</ele><time>2026-03-28T12:56:00.384Z</time></trkpt><trkpt lat="40.57731" lon="8.31388"><ele>4.0</ele><time>2026-03-28T12:56:01.384Z</time></trkpt><trkpt lat="40.57725" lon="8.3139217"><ele>4.0</ele><time>2026-03-28T12:56:02.383Z</time></trkpt><trkpt lat="40.5771917" lon="8.3139733"><ele>4.0</ele><time>2026-03-28T12:56:03.383Z</time></trkpt><trkpt lat="40.5771183" lon="8.3140217"><ele>3.9999999999999996</ele><time>2026-03-28T12:56:04.384Z</time></trkpt><trkpt lat="40.5770433" lon="8.3140683"><ele>4.0</ele><time>2026-03-28T12:56:05.384Z</time></trkpt><trkpt lat="40.5769783" lon="8.3141183"><ele>3.4999999999999996</ele><time>2026-03-28T12:56:06.384Z</time></trkpt><trkpt lat="40.5769217" lon="8.31418"><ele>3.0</ele><time>2026-03-28T12:56:07.383Z</time></trkpt><trkpt lat="40.57686" lon="8.31424"><ele>2.5</ele><time>2026-03-28T12:56:08.384Z</time></trkpt><trkpt lat="40.5768" lon="8.3142983"><ele>2.0</ele><time>2026-03-28T12:56:09.384Z</time></trkpt><trkpt lat="40.57674" lon="8.3143533"><ele>1.5</ele><time>2026-03-28T12:56:10.383Z</time></trkpt><trkpt lat="40.5766783" lon="8.3144083"><ele>1.0</ele><time>2026-03-28T12:56:11.383Z</time></trkpt><trkpt lat="40.5766067" lon="8.3144667"><ele>0.9999999999999999</ele><time>2026-03-28T12:56:12.384Z</time></trkpt><trkpt lat="40.57654" lon="8.31453"><ele>1.0</ele><time>2026-03-28T12:56:13.384Z</time></trkpt><trkpt lat="40.5764733" lon="8.3145933"><ele>1.0</ele><time>2026-03-28T12:56:14.384Z</time></trkpt><trkpt lat="40.5764017" lon="8.3146517"><ele>1.0</ele><time>2026-03-28T12:56:15.384Z</time></trkpt><trkpt lat="40.5763383" lon="8.3147067"><ele>0.9999999999999999</ele><time>2026-03-28T12:56:16.383Z</time></trkpt><trkpt lat="40.5762717" lon="8.31477"><ele>1.0</ele><time>2026-03-28T12:56:17.384Z</time></trkpt><trkpt lat="40.576205" lon="8.3148217"><ele>1.3333333333333333</ele><time>2026-03-28T12:56:18.384Z</time></trkpt><trkpt lat="40.5761367" lon="8.3148783"><ele>1.6666666666666665</ele><time>2026-03-28T12:56:19.384Z</time></trkpt><trkpt lat="40.5760683" lon="8.3149383"><ele>2.0</ele><time>2026-03-28T12:56:20.384Z</time></trkpt><trkpt lat="40.5759933" lon="8.31499"><ele>2.3333333333333335</ele><time>2026-03-28T12:56:21.384Z</time></trkpt><trkpt lat="40.5759183" lon="8.3150567"><ele>2.6666666666666665</ele><time>2026-03-28T12:56:22.384Z</time></trkpt><trkpt lat="40.575845" lon="8.315125"><ele>3.0</ele><time>2026-03-28T12:56:23.384Z</time></trkpt><trkpt lat="40.5757733" lon="8.3151917"><ele>3.0</ele><time>2026-03-28T12:56:24.383Z</time></trkpt><trkpt lat="40.5757033" lon="8.31525"><ele>3.0</ele><time>2026-03-28T12:56:25.384Z</time></trkpt><trkpt lat="40.5756267" lon="8.3153167"><ele>3.0</ele><time>2026-03-28T12:56:26.384Z</time></trkpt><trkpt lat="40.5755483" lon="8.31538"><ele>3.0</ele><time>2026-03-28T12:56:27.384Z</time></trkpt><trkpt lat="40.57547" lon="8.315445"><ele>3.0</ele><time>2026-03-28T12:56:28.384Z</time></trkpt><trkpt lat="40.5753967" lon="8.3155133"><ele>3.0</ele><time>2026-03-28T12:56:29.384Z</time></trkpt><trkpt lat="40.57532" lon="8.3155683"><ele>2.8333333333333335</ele><time>2026-03-28T12:56:30.384Z</time></trkpt><trkpt lat="40.5752433" lon="8.31561"><ele>2.6666666666666665</ele><time>2026-03-28T12:56:31.383Z</time></trkpt><trkpt lat="40.5751633" lon="8.315665"><ele>2.5</ele><time>2026-03-28T12:56:32.384Z</time></trkpt><trkpt lat="40.5750933" lon="8.3157283"><ele>2.333333333333333</ele><time>2026-03-28T12:56:33.384Z</time></trkpt><trkpt lat="40.57502" lon="8.315795"><ele>2.1666666666666665</ele><time>2026-03-28T12:56:34.384Z</time></trkpt><trkpt lat="40.574955" lon="8.3158517"><ele>2.0</ele><time>2026-03-28T12:56:35.383Z</time></trkpt><trkpt lat="40.57489" lon="8.3159167"><ele>1.9999999999999998</ele><time>2026-03-28T12:56:36.383Z</time></trkpt><trkpt lat="40.5748217" lon="8.3159867"><ele>2.0</ele><time>2026-03-28T12:56:37.384Z</time></trkpt><trkpt lat="40.57476" lon="8.3160517"><ele>2.0</ele><time>2026-03-28T12:56:38.383Z</time></trkpt><trkpt lat="40.5747033" lon="8.31611"><ele>2.0</ele><time>2026-03-28T12:56:39.383Z</time></trkpt><trkpt lat="40.5746383" lon="8.31616"><ele>1.9999999999999998</ele><time>2026-03-28T12:56:40.384Z</time></trkpt><trkpt lat="40.5745767" lon="8.3162167"><ele>2.0</ele><time>2026-03-28T12:56:41.384Z</time></trkpt><trkpt lat="40.574505" lon="8.3162833"><ele>1.857142857142857</ele><time>2026-03-28T12:56:42.384Z</time></trkpt><trkpt lat="40.574435" lon="8.3163417"><ele>1.714285714285714</ele><time>2026-03-28T12:56:43.384Z</time></trkpt><trkpt lat="40.5743733" lon="8.3163933"><ele>1.5714285714285714</ele><time>2026-03-28T12:56:44.384Z</time></trkpt><trkpt lat="40.574325" lon="8.3164483"><ele>1.4285714285714284</ele><time>2026-03-28T12:56:45.383Z</time></trkpt><trkpt lat="40.57427" lon="8.3165"><ele>1.2857142857142856</ele><time>2026-03-28T12:56:47.384Z</time></trkpt><trkpt lat="40.5742083" lon="8.3165817"><ele>1.1428571428571428</ele><time>2026-03-28T12:56:58.384Z</time></trkpt><trkpt lat="40.57415" lon="8.316625"><ele>1.0</ele><time>2026-03-28T12:56:59.383Z</time></trkpt><trkpt lat="40.57409" lon="8.316675"><ele>1.0</ele><time>2026-03-28T12:57:00.383Z</time></trkpt><trkpt lat="40.57403" lon="8.3167267"><ele>0.9999999999999999</ele><time>2026-03-28T12:57:01.384Z</time></trkpt><trkpt lat="40.57397" lon="8.31678"><ele>1.0</ele><time>2026-03-28T12:57:02.384Z</time></trkpt><trkpt lat="40.5739167" lon="8.3168317"><ele>1.0</ele><time>2026-03-28T12:57:03.384Z</time></trkpt><trkpt lat="40.5738617" lon="8.3168817"><ele>0.9999999999999999</ele><time>2026-03-28T12:57:04.383Z</time></trkpt><trkpt lat="40.57381" lon="8.3169333"><ele>1.0</ele><time>2026-03-28T12:57:05.384Z</time></trkpt><trkpt lat="40.5737617" lon="8.3169917"><ele>1.0</ele><time>2026-03-28T12:57:06.384Z</time></trkpt><trkpt lat="40.5737083" lon="8.317045"><ele>0.8571428571428571</ele><time>2026-03-28T12:57:07.383Z</time></trkpt><trkpt lat="40.573655" lon="8.3170967"><ele>0.7142857142857142</ele><time>2026-03-28T12:57:08.383Z</time></trkpt><trkpt lat="40.573595" lon="8.317155"><ele>0.5714285714285714</ele><time>2026-03-28T12:57:09.384Z</time></trkpt><trkpt lat="40.5735317" lon="8.3172067"><ele>0.42857142857142855</ele><time>2026-03-28T12:57:10.384Z</time></trkpt><trkpt lat="40.5734683" lon="8.3172633"><ele>0.2857142857142857</ele><time>2026-03-28T12:57:11.383Z</time></trkpt><trkpt lat="40.57341" lon="8.31733"><ele>0.14285714285714285</ele><time>2026-03-28T12:57:12.384Z</time></trkpt><trkpt lat="40.5733483" lon="8.3173967"><ele>0.0</ele><time>2026-03-28T12:57:13.384Z</time></trkpt><trkpt lat="40.5732917" lon="8.3174583"><ele>0.3333333333333333</ele><time>2026-03-28T12:57:14.383Z</time></trkpt><trkpt lat="40.5732367" lon="8.3175117"><ele>0.6666666666666666</ele><time>2026-03-28T12:57:15.383Z</time></trkpt><trkpt lat="40.5731717" lon="8.317555"><ele>1.0</ele><time>2026-03-28T12:57:16.384Z</time></trkpt><trkpt lat="40.5731033" lon="8.3176"><ele>1.3333333333333333</ele><time>2026-03-28T12:57:17.384Z</time></trkpt><trkpt lat="40.5730283" lon="8.3176417"><ele>1.6666666666666665</ele><time>2026-03-28T12:57:18.383Z</time></trkpt><trkpt lat="40.5729583" lon="8.3176783"><ele>2.0</ele><time>2026-03-28T12:57:19.384Z</time></trkpt><trkpt lat="40.572875" lon="8.3177067"><ele>1.6</ele><time>2026-03-28T12:57:20.383Z</time></trkpt><trkpt lat="40.5727817" lon="8.3177283"><ele>1.2000000000000002</ele><time>2026-03-28T12:57:22.383Z</time></trkpt><trkpt lat="40.57268" lon="8.317755"><ele>0.8</ele><time>2026-03-28T12:57:26.383Z</time></trkpt><trkpt lat="40.57256" lon="8.3177867"><ele>0.4</ele><time>2026-03-28T12:57:28.384Z</time></trkpt><trkpt lat="40.57248" lon="8.317815"><ele>0.0</ele><time>2026-03-28T12:57:29.383Z</time></trkpt><trkpt lat="40.572415" lon="8.31783"><ele>0.0</ele><time>2026-03-28T12:57:30.384Z</time></trkpt><trkpt lat="40.5722967" lon="8.317855"><ele>0.0</ele><time>2026-03-28T12:57:32.384Z</time></trkpt><trkpt lat="40.5722117" lon="8.3178833"><ele>0.0</ele><time>2026-03-28T12:57:33.384Z</time></trkpt><trkpt lat="40.5721117" lon="8.3179183"><ele>0.0</ele><time>2026-03-28T12:57:34.384Z</time></trkpt><trkpt lat="40.572015" lon="8.3179617"><ele>0.0</ele><time>2026-03-28T12:57:35.383Z</time></trkpt><trkpt lat="40.5719083" lon="8.318005"><ele>0.0</ele><time>2026-03-28T12:57:36.384Z</time></trkpt><trkpt lat="40.571795" lon="8.3180517"><ele>0.0</ele><time>2026-03-28T12:57:37.384Z</time></trkpt><trkpt lat="40.5716833" lon="8.3180983"><ele>0.0</ele><time>2026-03-28T12:57:38.384Z</time></trkpt><trkpt lat="40.5715717" lon="8.31815"><ele>0.0</ele><time>2026-03-28T12:57:39.384Z</time></trkpt><trkpt lat="40.5714733" lon="8.318195"><ele>0.5</ele><time>2026-03-28T12:57:40.383Z</time></trkpt><trkpt lat="40.5713667" lon="8.3182383"><ele>1.0</ele><time>2026-03-28T12:57:41.384Z</time></trkpt><trkpt lat="40.5712617" lon="8.3182833"><ele>1.5</ele><time>2026-03-28T12:57:42.384Z</time></trkpt><trkpt lat="40.5711517" lon="8.318335"><ele>2.0</ele><time>2026-03-28T12:57:43.384Z</time></trkpt><trkpt lat="40.5710367" lon="8.3183817"><ele>2.0</ele><time>2026-03-28T12:57:44.383Z</time></trkpt><trkpt lat="40.57092" lon="8.3184233"><ele>2.0</ele><time>2026-03-28T12:57:45.384Z</time></trkpt><trkpt lat="40.5707967" lon="8.3184667"><ele>2.0</ele><time>2026-03-28T12:57:46.383Z</time></trkpt><trkpt lat="40.570685" lon="8.318505"><ele>2.0</ele><time>2026-03-28T12:57:47.383Z</time></trkpt><trkpt lat="40.5705717" lon="8.3185433"><ele>2.0</ele><time>2026-03-28T12:57:48.384Z</time></trkpt><trkpt lat="40.5704567" lon="8.3185783"><ele>2.0</ele><time>2026-03-28T12:57:49.384Z</time></trkpt><trkpt lat="40.5703467" lon="8.3186183"><ele>2.0</ele><time>2026-03-28T12:57:50.384Z</time></trkpt><trkpt lat="40.5702433" lon="8.31866"><ele>2.0</ele><time>2026-03-28T12:57:51.383Z</time></trkpt><trkpt lat="40.5701417" lon="8.318705"><ele>2.0</ele><time>2026-03-28T12:57:52.383Z</time></trkpt><trkpt lat="40.5700417" lon="8.3187533"><ele>2.2</ele><time>2026-03-28T12:57:53.384Z</time></trkpt><trkpt lat="40.569945" lon="8.318795"><ele>2.4000000000000004</ele><time>2026-03-28T12:57:54.384Z</time></trkpt><trkpt lat="40.56985" lon="8.3188383"><ele>2.5999999999999996</ele><time>2026-03-28T12:57:55.384Z</time></trkpt><trkpt lat="40.5697483" lon="8.318875"><ele>2.8</ele><time>2026-03-28T12:57:56.383Z</time></trkpt><trkpt lat="40.5696467" lon="8.3189233"><ele>3.0</ele><time>2026-03-28T12:57:57.383Z</time></trkpt><trkpt lat="40.5695467" lon="8.318975"><ele>3.2</ele><time>2026-03-28T12:57:58.384Z</time></trkpt><trkpt lat="40.5694633" lon="8.31903"><ele>3.4</ele><time>2026-03-28T12:57:59.384Z</time></trkpt><trkpt lat="40.5693867" lon="8.3190817"><ele>3.6000000000000005</ele><time>2026-03-28T12:58:00.384Z</time></trkpt><trkpt lat="40.5693083" lon="8.3191217"><ele>3.8000000000000003</ele><time>2026-03-28T12:58:01.384Z</time></trkpt><trkpt lat="40.569225" lon="8.3191533"><ele>4.0</ele><time>2026-03-28T12:58:02.384Z</time></trkpt><trkpt lat="40.56913" lon="8.3191967"><ele>4.0</ele><time>2026-03-28T12:58:03.384Z</time></trkpt><trkpt lat="40.5690283" lon="8.319215"><ele>4.0</ele><time>2026-03-28T12:58:04.384Z</time></trkpt><trkpt lat="40.5689167" lon="8.31924"><ele>4.0</ele><time>2026-03-28T12:58:05.384Z</time></trkpt><trkpt lat="40.5688017" lon="8.31925"><ele>4.0</ele><time>2026-03-28T12:58:06.384Z</time></trkpt><trkpt lat="40.56869" lon="8.3192567"><ele>4.0</ele><time>2026-03-28T12:58:07.384Z</time></trkpt><trkpt lat="40.5685867" lon="8.3192517"><ele>3.833333333333333</ele><time>2026-03-28T12:58:08.383Z</time></trkpt><trkpt lat="40.5684833" lon="8.31923"><ele>3.6666666666666665</ele><time>2026-03-28T12:58:09.384Z</time></trkpt><trkpt lat="40.5683883" lon="8.31921"><ele>3.5</ele><time>2026-03-28T12:58:10.383Z</time></trkpt><trkpt lat="40.5683067" lon="8.31921"><ele>3.333333333333333</ele><time>2026-03-28T12:58:11.384Z</time></trkpt><trkpt lat="40.5682233" lon="8.319195"><ele>3.1666666666666665</ele><time>2026-03-28T12:58:12.383Z</time></trkpt><trkpt lat="40.5681583" lon="8.319175"><ele>3.0</ele><time>2026-03-28T12:58:13.384Z</time></trkpt><trkpt lat="40.5680517" lon="8.3191517"><ele>3.0</ele><time>2026-03-28T12:58:15.384Z</time></trkpt><trkpt lat="40.5679417" lon="8.3191283"><ele>3.0</ele><time>2026-03-28T12:58:17.383Z</time></trkpt><trkpt lat="40.5678717" lon="8.3191183"><ele>3.0</ele><time>2026-03-28T12:58:18.384Z</time></trkpt><trkpt lat="40.5677917" lon="8.3191017"><ele>3.0</ele><time>2026-03-28T12:58:19.384Z</time></trkpt><trkpt lat="40.5677067" lon="8.3190783"><ele>3.0</ele><time>2026-03-28T12:58:20.384Z</time></trkpt><trkpt lat="40.5676183" lon="8.31905"><ele>3.0</ele><time>2026-03-28T12:58:21.384Z</time></trkpt><trkpt lat="40.56753" lon="8.319025"><ele>3.0</ele><time>2026-03-28T12:58:22.384Z</time></trkpt><trkpt lat="40.567445" lon="8.31898"><ele>3.0</ele><time>2026-03-28T12:58:23.384Z</time></trkpt><trkpt lat="40.5673633" lon="8.3189467"><ele>3.0</ele><time>2026-03-28T12:58:24.384Z</time></trkpt><trkpt lat="40.567285" lon="8.31893"><ele>3.0</ele><time>2026-03-28T12:58:25.384Z</time></trkpt><trkpt lat="40.567205" lon="8.3189067"><ele>3.0</ele><time>2026-03-28T12:58:26.384Z</time></trkpt><trkpt lat="40.56712" lon="8.31888"><ele>3.0</ele><time>2026-03-28T12:58:27.383Z</time></trkpt><trkpt lat="40.567035" lon="8.3188517"><ele>2.5</ele><time>2026-03-28T12:58:28.384Z</time></trkpt><trkpt lat="40.5669417" lon="8.3188283"><ele>2.0</ele><time>2026-03-28T12:58:29.384Z</time></trkpt><trkpt lat="40.566855" lon="8.3188083"><ele>1.5</ele><time>2026-03-28T12:58:30.384Z</time></trkpt><trkpt lat="40.5667667" lon="8.3187833"><ele>1.0</ele><time>2026-03-28T12:58:31.384Z</time></trkpt><trkpt lat="40.5666917" lon="8.3187433"><ele>0.5</ele><time>2026-03-28T12:58:32.384Z</time></trkpt><trkpt lat="40.5666167" lon="8.3187083"><ele>0.0</ele><time>2026-03-28T12:58:33.384Z</time></trkpt><trkpt lat="40.5665483" lon="8.31868"><ele>0.0</ele><time>2026-03-28T12:58:34.384Z</time></trkpt><trkpt lat="40.5664733" lon="8.3186433"><ele>0.0</ele><time>2026-03-28T12:58:35.384Z</time></trkpt><trkpt lat="40.5664083" lon="8.31861"><ele>0.0</ele><time>2026-03-28T12:58:36.383Z</time></trkpt><trkpt lat="40.5663033" lon="8.3185483"><ele>0.0</ele><time>2026-03-28T12:58:38.384Z</time></trkpt><trkpt lat="40.56624" lon="8.3185033"><ele>0.0</ele><time>2026-03-28T12:58:40.384Z</time></trkpt><trkpt lat="40.5661567" lon="8.31845"><ele>0.0</ele><time>2026-03-28T12:58:51.384Z</time></trkpt><trkpt lat="40.5660333" lon="8.3183883"><ele>0.3333333333333333</ele><time>2026-03-28T12:58:53.384Z</time></trkpt><trkpt lat="40.5659667" lon="8.3183533"><ele>0.6666666666666666</ele><time>2026-03-28T12:58:54.384Z</time></trkpt><trkpt lat="40.5659" lon="8.3183133"><ele>1.0</ele><time>2026-03-28T12:58:55.383Z</time></trkpt><trkpt lat="40.56582" lon="8.3182717"><ele>1.3333333333333333</ele><time>2026-03-28T12:58:56.384Z</time></trkpt><trkpt lat="40.5657333" lon="8.3182233"><ele>1.6666666666666665</ele><time>2026-03-28T12:58:57.384Z</time></trkpt><trkpt lat="40.5656233" lon="8.3181683"><ele>2.0</ele><time>2026-03-28T12:58:58.384Z</time></trkpt><trkpt lat="40.56549" lon="8.3180883"><ele>1.6666666666666665</ele><time>2026-03-28T12:58:59.384Z</time></trkpt><trkpt lat="40.5653517" lon="8.317975"><ele>1.3333333333333333</ele><time>2026-03-28T12:59:00.384Z</time></trkpt><trkpt lat="40.5651867" lon="8.3178617"><ele>1.0</ele><time>2026-03-28T12:59:01.384Z</time></trkpt><trkpt lat="40.5650133" lon="8.3177517"><ele>1.0</ele><time>2026-03-28T12:59:02.383Z</time></trkpt><trkpt lat="40.5648183" lon="8.3176167"><ele>1.0</ele><time>2026-03-28T12:59:03.383Z</time></trkpt><trkpt lat="40.5646133" lon="8.3174667"><ele>1.0</ele><time>2026-03-28T12:59:04.384Z</time></trkpt><trkpt lat="40.5644267" lon="8.3173367"><ele>1.0</ele><time>2026-03-28T12:59:05.384Z</time></trkpt><trkpt lat="40.5642517" lon="8.3172167"><ele>1.0</ele><time>2026-03-28T12:59:06.384Z</time></trkpt><trkpt lat="40.5640933" lon="8.31711"><ele>1.0</ele><time>2026-03-28T12:59:07.384Z</time></trkpt><trkpt lat="40.5639467" lon="8.3170183"><ele>1.0</ele><time>2026-03-28T12:59:08.384Z</time></trkpt><trkpt lat="40.5638017" lon="8.3169317"><ele>1.0</ele><time>2026-03-28T12:59:09.384Z</time></trkpt><trkpt lat="40.5636767" lon="8.316855"><ele>1.2000000000000002</ele><time>2026-03-28T12:59:10.384Z</time></trkpt><trkpt lat="40.56355" lon="8.31678"><ele>1.4000000000000001</ele><time>2026-03-28T12:59:11.384Z</time></trkpt><trkpt lat="40.563445" lon="8.316715"><ele>1.6</ele><time>2026-03-28T12:59:12.384Z</time></trkpt><trkpt lat="40.5633667" lon="8.3166733"><ele>1.8</ele><time>2026-03-28T12:59:13.383Z</time></trkpt><trkpt lat="40.5632717" lon="8.31662"><ele>2.0</ele><time>2026-03-28T12:59:15.383Z</time></trkpt><trkpt lat="40.56316" lon="8.3165783"><ele>2.0</ele><time>2026-03-28T12:59:30.384Z</time></trkpt><trkpt lat="40.5630517" lon="8.31652"><ele>2.0</ele><time>2026-03-28T12:59:31.384Z</time></trkpt><trkpt lat="40.5629267" lon="8.31644"><ele>2.0</ele><time>2026-03-28T12:59:32.384Z</time></trkpt><trkpt lat="40.5628" lon="8.3163617"><ele>2.0</ele><time>2026-03-28T12:59:33.384Z</time></trkpt><trkpt lat="40.562665" lon="8.3162817"><ele>2.0</ele><time>2026-03-28T12:59:34.384Z</time></trkpt><trkpt lat="40.5625233" lon="8.3161933"><ele>2.0</ele><time>2026-03-28T12:59:35.383Z</time></trkpt><trkpt lat="40.5623917" lon="8.31612"><ele>2.0</ele><time>2026-03-28T12:59:36.384Z</time></trkpt><trkpt lat="40.5622583" lon="8.31604"><ele>2.0</ele><time>2026-03-28T12:59:37.384Z</time></trkpt><trkpt lat="40.5621317" lon="8.31596"><ele>2.0</ele><time>2026-03-28T12:59:38.384Z</time></trkpt><trkpt lat="40.56201" lon="8.315885"><ele>2.0</ele><time>2026-03-28T12:59:39.384Z</time></trkpt><trkpt lat="40.561905" lon="8.3158217"><ele>2.0</ele><time>2026-03-28T12:59:40.383Z</time></trkpt><trkpt lat="40.5618117" lon="8.3157733"><ele>2.0</ele><time>2026-03-28T12:59:41.384Z</time></trkpt><trkpt lat="40.56172" lon="8.315725"><ele>2.0</ele><time>2026-03-28T12:59:42.383Z</time></trkpt><trkpt lat="40.5616333" lon="8.315675"><ele>2.0</ele><time>2026-03-28T12:59:43.383Z</time></trkpt><trkpt lat="40.5615533" lon="8.31563"><ele>2.0</ele><time>2026-03-28T12:59:44.384Z</time></trkpt><trkpt lat="40.56147" lon="8.3155833"><ele>2.0</ele><time>2026-03-28T12:59:45.383Z</time></trkpt><trkpt lat="40.5613833" lon="8.315525"><ele>2.0</ele><time>2026-03-28T12:59:46.383Z</time></trkpt><trkpt lat="40.561285" lon="8.3154683"><ele>2.0</ele><time>2026-03-28T12:59:47.384Z</time></trkpt><trkpt lat="40.5611783" lon="8.315415"><ele>1.5</ele><time>2026-03-28T12:59:48.383Z</time></trkpt><trkpt lat="40.5610717" lon="8.31535"><ele>1.0</ele><time>2026-03-28T12:59:49.384Z</time></trkpt><trkpt lat="40.5609567" lon="8.31529"><ele>0.5</ele><time>2026-03-28T12:59:50.384Z</time></trkpt><trkpt lat="40.560835" lon="8.315235"><ele>0.0</ele><time>2026-03-28T12:59:51.384Z</time></trkpt><trkpt lat="40.5607267" lon="8.315175"><ele>0.0</ele><time>2026-03-28T12:59:52.384Z</time></trkpt><trkpt lat="40.56063" lon="8.315115"><ele>0.0</ele><time>2026-03-28T12:59:53.384Z</time></trkpt><trkpt lat="40.5605383" lon="8.3150567"><ele>0.0</ele><time>2026-03-28T12:59:54.384Z</time></trkpt><trkpt lat="40.560455" lon="8.3150233"><ele>0.0</ele><time>2026-03-28T12:59:55.384Z</time></trkpt><trkpt lat="40.5603783" lon="8.3150267"><ele>0.0</ele><time>2026-03-28T12:59:56.384Z</time></trkpt><trkpt lat="40.5602817" lon="8.31504"><ele>1.25</ele><time>2026-03-28T12:59:57.384Z</time></trkpt><trkpt lat="40.5601733" lon="8.3150617"><ele>2.5</ele><time>2026-03-28T12:59:58.384Z</time></trkpt><trkpt lat="40.5600567" lon="8.31507"><ele>3.75</ele><time>2026-03-28T12:59:59.383Z</time></trkpt><trkpt lat="40.55994" lon="8.3150417"><ele>5.0</ele><time>2026-03-28T13:00:00.383Z</time></trkpt><trkpt lat="40.5598067" lon="8.3150017"><ele>5.0</ele><time>2026-03-28T13:00:01.384Z</time></trkpt><trkpt lat="40.559685" lon="8.31496"><ele>5.0</ele><time>2026-03-28T13:00:02.384Z</time></trkpt><trkpt lat="40.5595733" lon="8.31493"><ele>5.0</ele><time>2026-03-28T13:00:03.384Z</time></trkpt><trkpt lat="40.5594533" lon="8.3149283"><ele>5.0</ele><time>2026-03-28T13:00:04.384Z</time></trkpt><trkpt lat="40.55934" lon="8.31496"><ele>7.25</ele><time>2026-03-28T13:00:05.384Z</time></trkpt><trkpt lat="40.559235" lon="8.3150217"><ele>9.5</ele><time>2026-03-28T13:00:06.384Z</time></trkpt><trkpt lat="40.5591367" lon="8.3150983"><ele>11.75</ele><time>2026-03-28T13:00:07.383Z</time></trkpt><trkpt lat="40.5590333" lon="8.3151833"><ele>14.0</ele><time>2026-03-28T13:00:08.384Z</time></trkpt><trkpt lat="40.5589417" lon="8.3152667"><ele>14.0</ele><time>2026-03-28T13:00:09.384Z</time></trkpt><trkpt lat="40.5588517" lon="8.315335"><ele>13.999999999999998</ele><time>2026-03-28T13:00:10.384Z</time></trkpt><trkpt lat="40.5587583" lon="8.3154133"><ele>13.999999999999998</ele><time>2026-03-28T13:00:11.384Z</time></trkpt><trkpt lat="40.558665" lon="8.3154983"><ele>14.0</ele><time>2026-03-28T13:00:12.384Z</time></trkpt><trkpt lat="40.558575" lon="8.3155817"><ele>14.0</ele><time>2026-03-28T13:00:13.384Z</time></trkpt><trkpt lat="40.5584583" lon="8.31566"><ele>14.5</ele><time>2026-03-28T13:00:14.384Z</time></trkpt><trkpt lat="40.5583383" lon="8.3157433"><ele>15.0</ele><time>2026-03-28T13:00:15.384Z</time></trkpt><trkpt lat="40.5582233" lon="8.3158417"><ele>15.5</ele><time>2026-03-28T13:00:16.383Z</time></trkpt><trkpt lat="40.558115" lon="8.3159317"><ele>16.0</ele><time>2026-03-28T13:00:17.384Z</time></trkpt><trkpt lat="40.5580117" lon="8.3160067"><ele>16.0</ele><time>2026-03-28T13:00:18.383Z</time></trkpt><trkpt lat="40.5579" lon="8.3160933"><ele>16.0</ele><time>2026-03-28T13:00:19.384Z</time></trkpt><trkpt lat="40.5577967" lon="8.3161667"><ele>16.0</ele><time>2026-03-28T13:00:20.384Z</time></trkpt><trkpt lat="40.557695" lon="8.3162417"><ele>16.0</ele><time>2026-03-28T13:00:21.384Z</time></trkpt><trkpt lat="40.5575983" lon="8.3163283"><ele>16.166666666666664</ele><time>2026-03-28T13:00:22.383Z</time></trkpt><trkpt lat="40.557505" lon="8.3164117"><ele>16.333333333333332</ele><time>2026-03-28T13:00:23.384Z</time></trkpt><trkpt lat="40.5574117" lon="8.31648"><ele>16.5</ele><time>2026-03-28T13:00:24.384Z</time></trkpt><trkpt lat="40.5573467" lon="8.316545"><ele>16.666666666666668</ele><time>2026-03-28T13:00:25.384Z</time></trkpt><trkpt lat="40.55728" lon="8.3165983"><ele>16.833333333333336</ele><time>2026-03-28T13:00:26.384Z</time></trkpt><trkpt lat="40.5572183" lon="8.31664"><ele>17.0</ele><time>2026-03-28T13:00:27.384Z</time></trkpt><trkpt lat="40.5571417" lon="8.3165883"><ele>17.0</ele><time>2026-03-28T13:00:29.383Z</time></trkpt><trkpt lat="40.557095" lon="8.3164583"><ele>17.0</ele><time>2026-03-28T13:00:30.384Z</time></trkpt><trkpt lat="40.5570417" lon="8.3163217"><ele>17.0</ele><time>2026-03-28T13:00:31.384Z</time></trkpt><trkpt lat="40.556995" lon="8.3161933"><ele>17.0</ele><time>2026-03-28T13:00:32.383Z</time></trkpt><trkpt lat="40.5569467" lon="8.3160733"><ele>17.0</ele><time>2026-03-28T13:00:33.384Z</time></trkpt><trkpt lat="40.5568983" lon="8.3159617"><ele>16.166666666666668</ele><time>2026-03-28T13:00:34.384Z</time></trkpt><trkpt lat="40.55686" lon="8.3158683"><ele>15.333333333333334</ele><time>2026-03-28T13:00:35.384Z</time></trkpt><trkpt lat="40.5568233" lon="8.3157817"><ele>14.5</ele><time>2026-03-28T13:00:36.384Z</time></trkpt><trkpt lat="40.5567833" lon="8.3157"><ele>13.666666666666668</ele><time>2026-03-28T13:00:37.384Z</time></trkpt><trkpt lat="40.5567383" lon="8.315625"><ele>12.833333333333334</ele><time>2026-03-28T13:00:38.383Z</time></trkpt><trkpt lat="40.5566783" lon="8.3155717"><ele>12.0</ele><time>2026-03-28T13:00:39.384Z</time></trkpt><trkpt lat="40.556605" lon="8.31554"><ele>11.833333333333334</ele><time>2026-03-28T13:00:40.384Z</time></trkpt><trkpt lat="40.556535" lon="8.315505"><ele>11.666666666666666</ele><time>2026-03-28T13:00:41.384Z</time></trkpt><trkpt lat="40.5564667" lon="8.3154733"><ele>11.5</ele><time>2026-03-28T13:00:42.383Z</time></trkpt><trkpt lat="40.5563417" lon="8.315485"><ele>11.333333333333332</ele><time>2026-03-28T13:00:44.384Z</time></trkpt><trkpt lat="40.5562767" lon="8.315505"><ele>11.166666666666666</ele><time>2026-03-28T13:00:45.384Z</time></trkpt><trkpt lat="40.556215" lon="8.31553"><ele>11.0</ele><time>2026-03-28T13:00:46.384Z</time></trkpt><trkpt lat="40.5561583" lon="8.3155667"><ele>10.857142857142858</ele><time>2026-03-28T13:00:47.384Z</time></trkpt><trkpt lat="40.5560983" lon="8.3156083"><ele>10.714285714285714</ele><time>2026-03-28T13:00:48.383Z</time></trkpt><trkpt lat="40.5560417" lon="8.3156483"><ele>10.571428571428571</ele><time>2026-03-28T13:00:49.383Z</time></trkpt><trkpt lat="40.555985" lon="8.3157017"><ele>10.428571428571429</ele><time>2026-03-28T13:00:50.384Z</time></trkpt><trkpt lat="40.5559267" lon="8.3157433"><ele>10.285714285714286</ele><time>2026-03-28T13:00:51.384Z</time></trkpt><trkpt lat="40.5558717" lon="8.3157917"><ele>10.142857142857142</ele><time>2026-03-28T13:00:52.384Z</time></trkpt><trkpt lat="40.5558133" lon="8.3158367"><ele>10.0</ele><time>2026-03-28T13:00:53.384Z</time></trkpt><trkpt lat="40.5557467" lon="8.3158817"><ele>10.0</ele><time>2026-03-28T13:00:54.383Z</time></trkpt><trkpt lat="40.555675" lon="8.3158983"><ele>10.0</ele><time>2026-03-28T13:00:55.384Z</time></trkpt><trkpt lat="40.5555983" lon="8.3159083"><ele>10.0</ele><time>2026-03-28T13:00:56.384Z</time></trkpt><trkpt lat="40.5555267" lon="8.315905"><ele>10.0</ele><time>2026-03-28T13:00:57.384Z</time></trkpt><trkpt lat="40.5554517" lon="8.3159017"><ele>10.0</ele><time>2026-03-28T13:00:58.384Z</time></trkpt><trkpt lat="40.555385" lon="8.3158933"><ele>10.0</ele><time>2026-03-28T13:00:59.384Z</time></trkpt><trkpt lat="40.5553167" lon="8.315875"><ele>10.0</ele><time>2026-03-28T13:01:00.383Z</time></trkpt><trkpt lat="40.5552483" lon="8.3158633"><ele>10.0</ele><time>2026-03-28T13:01:01.383Z</time></trkpt><trkpt lat="40.55518" lon="8.3158333"><ele>10.0</ele><time>2026-03-28T13:01:02.384Z</time></trkpt><trkpt lat="40.555115" lon="8.31578"><ele>10.0</ele><time>2026-03-28T13:01:03.384Z</time></trkpt><trkpt lat="40.5550483" lon="8.3157233"><ele>10.0</ele><time>2026-03-28T13:01:04.384Z</time></trkpt><trkpt lat="40.554985" lon="8.3156867"><ele>10.0</ele><time>2026-03-28T13:01:05.384Z</time></trkpt><trkpt lat="40.5549167" lon="8.3156583"><ele>10.0</ele><time>2026-03-28T13:01:06.384Z</time></trkpt><trkpt lat="40.5548433" lon="8.31565"><ele>10.0</ele><time>2026-03-28T13:01:07.384Z</time></trkpt><trkpt lat="40.5547633" lon="8.315655"><ele>10.0</ele><time>2026-03-28T13:01:08.384Z</time></trkpt><trkpt lat="40.5546933" lon="8.3156733"><ele>10.0</ele><time>2026-03-28T13:01:09.384Z</time></trkpt><trkpt lat="40.5546217" lon="8.3156933"><ele>10.0</ele><time>2026-03-28T13:01:10.384Z</time></trkpt><trkpt lat="40.5545467" lon="8.315715"><ele>10.0</ele><time>2026-03-28T13:01:11.383Z</time></trkpt><trkpt lat="40.5544783" lon="8.3157367"><ele>10.0</ele><time>2026-03-28T13:01:12.384Z</time></trkpt><trkpt lat="40.55441" lon="8.3157617"><ele>10.0</ele><time>2026-03-28T13:01:13.384Z</time></trkpt><trkpt lat="40.55434" lon="8.3158017"><ele>10.0</ele><time>2026-03-28T13:01:14.383Z</time></trkpt><trkpt lat="40.5542683" lon="8.3158267"><ele>9.666666666666668</ele><time>2026-03-28T13:01:15.384Z</time></trkpt><trkpt lat="40.5541917" lon="8.31586"><ele>9.333333333333334</ele><time>2026-03-28T13:01:16.384Z</time></trkpt><trkpt lat="40.554115" lon="8.315885"><ele>9.0</ele><time>2026-03-28T13:01:17.384Z</time></trkpt><trkpt lat="40.55404" lon="8.3159167"><ele>8.666666666666666</ele><time>2026-03-28T13:01:18.384Z</time></trkpt><trkpt lat="40.553955" lon="8.3159567"><ele>8.333333333333332</ele><time>2026-03-28T13:01:19.383Z</time></trkpt><trkpt lat="40.553875" lon="8.3160017"><ele>8.0</ele><time>2026-03-28T13:01:20.384Z</time></trkpt><trkpt lat="40.5537933" lon="8.316045"><ele>7.999999999999999</ele><time>2026-03-28T13:01:21.384Z</time></trkpt><trkpt lat="40.5537083" lon="8.3160817"><ele>8.0</ele><time>2026-03-28T13:01:22.383Z</time></trkpt><trkpt lat="40.5536367" lon="8.316115"><ele>8.0</ele><time>2026-03-28T13:01:23.384Z</time></trkpt><trkpt lat="40.553565" lon="8.3161367"><ele>8.0</ele><time>2026-03-28T13:01:24.384Z</time></trkpt><trkpt lat="40.55348" lon="8.3161567"><ele>7.999999999999999</ele><time>2026-03-28T13:01:25.384Z</time></trkpt><trkpt lat="40.5534067" lon="8.31617"><ele>8.0</ele><time>2026-03-28T13:01:26.384Z</time></trkpt><trkpt lat="40.5533317" lon="8.3161883"><ele>7.499999999999999</ele><time>2026-03-28T13:01:27.384Z</time></trkpt><trkpt lat="40.5532467" lon="8.3162"><ele>7.0</ele><time>2026-03-28T13:01:28.383Z</time></trkpt><trkpt lat="40.5531567" lon="8.316225"><ele>6.5</ele><time>2026-03-28T13:01:29.384Z</time></trkpt><trkpt lat="40.553075" lon="8.3162383"><ele>6.0</ele><time>2026-03-28T13:01:30.384Z</time></trkpt><trkpt lat="40.552995" lon="8.3162517"><ele>5.5</ele><time>2026-03-28T13:01:31.384Z</time></trkpt><trkpt lat="40.5529217" lon="8.316265"><ele>5.0</ele><time>2026-03-28T13:01:32.384Z</time></trkpt><trkpt lat="40.55285" lon="8.31628"><ele>4.5</ele><time>2026-03-28T13:01:33.384Z</time></trkpt><trkpt lat="40.5527867" lon="8.3163"><ele>4.0</ele><time>2026-03-28T13:01:34.384Z</time></trkpt><trkpt lat="40.552685" lon="8.3163783"><ele>3.5</ele><time>2026-03-28T13:01:36.383Z</time></trkpt><trkpt lat="40.5526433" lon="8.3164417"><ele>3.0</ele><time>2026-03-28T13:01:37.383Z</time></trkpt><trkpt lat="40.5526083" lon="8.316525"><ele>2.5</ele><time>2026-03-28T13:01:38.384Z</time></trkpt><trkpt lat="40.5525833" lon="8.3166183"><ele>2.0</ele><time>2026-03-28T13:01:39.383Z</time></trkpt><trkpt lat="40.5525667" lon="8.3167117"><ele>3.0</ele><time>2026-03-28T13:01:40.384Z</time></trkpt><trkpt lat="40.5525517" lon="8.316805"><ele>4.0</ele><time>2026-03-28T13:01:41.384Z</time></trkpt><trkpt lat="40.5525333" lon="8.3168917"><ele>5.0</ele><time>2026-03-28T13:01:42.384Z</time></trkpt><trkpt lat="40.552515" lon="8.3169883"><ele>6.0</ele><time>2026-03-28T13:01:43.384Z</time></trkpt><trkpt lat="40.5524933" lon="8.31709"><ele>6.999999999999999</ele><time>2026-03-28T13:01:44.384Z</time></trkpt><trkpt lat="40.5524717" lon="8.3171933"><ele>8.0</ele><time>2026-03-28T13:01:45.384Z</time></trkpt><trkpt lat="40.5524517" lon="8.3173017"><ele>8.5</ele><time>2026-03-28T13:01:46.384Z</time></trkpt><trkpt lat="40.5524283" lon="8.3173983"><ele>9.0</ele><time>2026-03-28T13:01:47.384Z</time></trkpt><trkpt lat="40.5524083" lon="8.3174917"><ele>9.5</ele><time>2026-03-28T13:01:48.384Z</time></trkpt><trkpt lat="40.5523867" lon="8.317575"><ele>10.0</ele><time>2026-03-28T13:01:49.384Z</time></trkpt><trkpt lat="40.55235" lon="8.3177067"><ele>10.5</ele><time>2026-03-28T13:01:51.384Z</time></trkpt><trkpt lat="40.55233" lon="8.3178033"><ele>11.0</ele><time>2026-03-28T13:01:53.383Z</time></trkpt><trkpt lat="40.552405" lon="8.3177583"><ele>11.0</ele><time>2026-03-28T13:03:11.384Z</time></trkpt><trkpt lat="40.5523683" lon="8.3178267"><ele>11.0</ele><time>2026-03-28T13:41:17.385Z</time></trkpt><trkpt lat="40.5522967" lon="8.3179783"><ele>11.0</ele><time>2026-03-28T13:41:19.385Z</time></trkpt><trkpt lat="40.55222" lon="8.3181733"><ele>11.0</ele><time>2026-03-28T13:41:20.385Z</time></trkpt><trkpt lat="40.5521467" lon="8.3183583"><ele>12.333333333333332</ele><time>2026-03-28T13:41:21.385Z</time></trkpt><trkpt lat="40.5520567" lon="8.318535"><ele>13.666666666666666</ele><time>2026-03-28T13:41:22.384Z</time></trkpt><trkpt lat="40.5519533" lon="8.318685"><ele>15.0</ele><time>2026-03-28T13:41:23.385Z</time></trkpt><trkpt lat="40.551815" lon="8.3187783"><ele>15.25</ele><time>2026-03-28T13:41:24.385Z</time></trkpt><trkpt lat="40.5516617" lon="8.31882"><ele>15.5</ele><time>2026-03-28T13:41:25.385Z</time></trkpt><trkpt lat="40.5515283" lon="8.31883"><ele>15.75</ele><time>2026-03-28T13:41:26.384Z</time></trkpt><trkpt lat="40.551415" lon="8.3188733"><ele>16.0</ele><time>2026-03-28T13:41:27.385Z</time></trkpt><trkpt lat="40.551305" lon="8.3189633"><ele>13.0</ele><time>2026-03-28T13:41:28.385Z</time></trkpt><trkpt lat="40.5511867" lon="8.3191033"><ele>10.0</ele><time>2026-03-28T13:41:29.385Z</time></trkpt><trkpt lat="40.5510817" lon="8.3192833"><ele>7.0</ele><time>2026-03-28T13:41:30.385Z</time></trkpt><trkpt lat="40.5509783" lon="8.319505"><ele>9.333333333333334</ele><time>2026-03-28T13:41:31.385Z</time></trkpt><trkpt lat="40.5508783" lon="8.3197383"><ele>11.666666666666668</ele><time>2026-03-28T13:41:32.385Z</time></trkpt><trkpt lat="40.55079" lon="8.3199533"><ele>14.0</ele><time>2026-03-28T13:41:33.384Z</time></trkpt><trkpt lat="40.55071" lon="8.3201483"><ele>14.0</ele><time>2026-03-28T13:41:34.385Z</time></trkpt><trkpt lat="40.5506283" lon="8.3203283"><ele>14.0</ele><time>2026-03-28T13:41:35.385Z</time></trkpt><trkpt lat="40.5505483" lon="8.320485"><ele>14.0</ele><time>2026-03-28T13:41:36.385Z</time></trkpt><trkpt lat="40.550445" lon="8.3206067"><ele>14.0</ele><time>2026-03-28T13:41:37.385Z</time></trkpt><trkpt lat="40.550325" lon="8.3206983"><ele>13.0</ele><time>2026-03-28T13:41:38.385Z</time></trkpt><trkpt lat="40.5501783" lon="8.32078"><ele>12.0</ele><time>2026-03-28T13:41:39.385Z</time></trkpt><trkpt lat="40.5500167" lon="8.3208383"><ele>11.0</ele><time>2026-03-28T13:41:40.385Z</time></trkpt><trkpt lat="40.5498617" lon="8.3209217"><ele>11.0</ele><time>2026-03-28T13:41:41.385Z</time></trkpt><trkpt lat="40.5496933" lon="8.3209767"><ele>11.0</ele><time>2026-03-28T13:41:42.385Z</time></trkpt><trkpt lat="40.54952" lon="8.3210233"><ele>11.0</ele><time>2026-03-28T13:41:43.384Z</time></trkpt><trkpt lat="40.5493567" lon="8.3210383"><ele>10.25</ele><time>2026-03-28T13:41:44.384Z</time></trkpt><trkpt lat="40.5491983" lon="8.321025"><ele>9.5</ele><time>2026-03-28T13:41:45.385Z</time></trkpt><trkpt lat="40.5490583" lon="8.321"><ele>8.75</ele><time>2026-03-28T13:41:46.385Z</time></trkpt><trkpt lat="40.5489417" lon="8.32097"><ele>8.0</ele><time>2026-03-28T13:41:47.385Z</time></trkpt><trkpt lat="40.548835" lon="8.3209433"><ele>8.0</ele><time>2026-03-28T13:41:48.385Z</time></trkpt><trkpt lat="40.5487367" lon="8.3209167"><ele>8.0</ele><time>2026-03-28T13:41:49.384Z</time></trkpt><trkpt lat="40.54865" lon="8.3209183"><ele>8.0</ele><time>2026-03-28T13:41:50.385Z</time></trkpt><trkpt lat="40.54855" lon="8.3209483"><ele>8.0</ele><time>2026-03-28T13:41:51.385Z</time></trkpt><trkpt lat="40.54845" lon="8.3210083"><ele>8.0</ele><time>2026-03-28T13:41:52.385Z</time></trkpt><trkpt lat="40.5483817" lon="8.3211117"><ele>9.25</ele><time>2026-03-28T13:41:53.385Z</time></trkpt><trkpt lat="40.5483083" lon="8.3212467"><ele>10.5</ele><time>2026-03-28T13:41:54.385Z</time></trkpt><trkpt lat="40.5482567" lon="8.3214083"><ele>11.75</ele><time>2026-03-28T13:41:55.385Z</time></trkpt><trkpt lat="40.5482133" lon="8.321575"><ele>13.0</ele><time>2026-03-28T13:41:56.385Z</time></trkpt><trkpt lat="40.5481767" lon="8.32175"><ele>15.0</ele><time>2026-03-28T13:41:57.385Z</time></trkpt><trkpt lat="40.5481433" lon="8.321935"><ele>17.0</ele><time>2026-03-28T13:41:58.385Z</time></trkpt><trkpt lat="40.5481067" lon="8.3221017"><ele>19.0</ele><time>2026-03-28T13:41:59.385Z</time></trkpt><trkpt lat="40.548055" lon="8.3222733"><ele>21.0</ele><time>2026-03-28T13:42:00.385Z</time></trkpt><trkpt lat="40.5479933" lon="8.3224117"><ele>20.75</ele><time>2026-03-28T13:42:01.385Z</time></trkpt><trkpt lat="40.5479183" lon="8.3225367"><ele>20.5</ele><time>2026-03-28T13:42:02.385Z</time></trkpt><trkpt lat="40.54782" lon="8.3226367"><ele>20.25</ele><time>2026-03-28T13:42:03.385Z</time></trkpt><trkpt lat="40.54771" lon="8.322725"><ele>20.0</ele><time>2026-03-28T13:42:04.385Z</time></trkpt><trkpt lat="40.5475867" lon="8.3227783"><ele>20.0</ele><time>2026-03-28T13:42:05.385Z</time></trkpt><trkpt lat="40.5474733" lon="8.3228167"><ele>20.0</ele><time>2026-03-28T13:42:06.385Z</time></trkpt><trkpt lat="40.5473733" lon="8.32285"><ele>20.0</ele><time>2026-03-28T13:42:07.385Z</time></trkpt><trkpt lat="40.5472667" lon="8.32287"><ele>20.0</ele><time>2026-03-28T13:42:08.385Z</time></trkpt><trkpt lat="40.5471633" lon="8.322865"><ele>20.0</ele><time>2026-03-28T13:42:09.385Z</time></trkpt><trkpt lat="40.5470567" lon="8.3228533"><ele>19.75</ele><time>2026-03-28T13:42:10.384Z</time></trkpt><trkpt lat="40.5469583" lon="8.3227967"><ele>19.5</ele><time>2026-03-28T13:42:11.384Z</time></trkpt><trkpt lat="40.5468483" lon="8.3227183"><ele>19.25</ele><time>2026-03-28T13:42:12.385Z</time></trkpt><trkpt lat="40.54673" lon="8.32263"><ele>19.0</ele><time>2026-03-28T13:42:13.384Z</time></trkpt><trkpt lat="40.5466017" lon="8.3225333"><ele>19.0</ele><time>2026-03-28T13:42:14.385Z</time></trkpt><trkpt lat="40.5464717" lon="8.3224333"><ele>19.0</ele><time>2026-03-28T13:42:15.385Z</time></trkpt><trkpt lat="40.5463267" lon="8.3223483"><ele>19.0</ele><time>2026-03-28T13:42:16.385Z</time></trkpt><trkpt lat="40.5461733" lon="8.3222683"><ele>16.0</ele><time>2026-03-28T13:42:17.385Z</time></trkpt><trkpt lat="40.5460033" lon="8.3221867"><ele>13.0</ele><time>2026-03-28T13:42:18.385Z</time></trkpt><trkpt lat="40.5458267" lon="8.322095"><ele>10.0</ele><time>2026-03-28T13:42:19.385Z</time></trkpt><trkpt lat="40.545655" lon="8.32202"><ele>10.0</ele><time>2026-03-28T13:42:20.385Z</time></trkpt><trkpt lat="40.5454933" lon="8.3219483"><ele>10.0</ele><time>2026-03-28T13:42:21.385Z</time></trkpt><trkpt lat="40.5453283" lon="8.321875"><ele>10.0</ele><time>2026-03-28T13:42:22.385Z</time></trkpt><trkpt lat="40.5451633" lon="8.32179"><ele>10.333333333333334</ele><time>2026-03-28T13:42:23.385Z</time></trkpt><trkpt lat="40.5450267" lon="8.3216883"><ele>10.666666666666666</ele><time>2026-03-28T13:42:24.385Z</time></trkpt><trkpt lat="40.5448983" lon="8.321575"><ele>11.0</ele><time>2026-03-28T13:42:25.385Z</time></trkpt><trkpt lat="40.5447817" lon="8.3214567"><ele>9.0</ele><time>2026-03-28T13:42:26.385Z</time></trkpt><trkpt lat="40.544655" lon="8.3213683"><ele>7.0</ele><time>2026-03-28T13:42:27.385Z</time></trkpt><trkpt lat="40.544525" lon="8.3213067"><ele>5.0</ele><time>2026-03-28T13:42:28.384Z</time></trkpt><trkpt lat="40.5443967" lon="8.3212917"><ele>3.0</ele><time>2026-03-28T13:42:29.385Z</time></trkpt><trkpt lat="40.5442667" lon="8.321325"><ele>5.5</ele><time>2026-03-28T13:42:30.384Z</time></trkpt><trkpt lat="40.54414" lon="8.3214117"><ele>8.0</ele><time>2026-03-28T13:42:31.385Z</time></trkpt><trkpt lat="40.5440267" lon="8.32154"><ele>10.5</ele><time>2026-03-28T13:42:32.385Z</time></trkpt><trkpt lat="40.5439417" lon="8.3217"><ele>13.0</ele><time>2026-03-28T13:42:33.385Z</time></trkpt><trkpt lat="40.5438967" lon="8.32189"><ele>13.0</ele><time>2026-03-28T13:42:34.384Z</time></trkpt><trkpt lat="40.5438733" lon="8.3220767"><ele>13.0</ele><time>2026-03-28T13:42:35.385Z</time></trkpt><trkpt lat="40.5438583" lon="8.3222483"><ele>13.0</ele><time>2026-03-28T13:42:36.385Z</time></trkpt><trkpt lat="40.543825" lon="8.3224333"><ele>13.0</ele><time>2026-03-28T13:42:37.385Z</time></trkpt><trkpt lat="40.5437567" lon="8.3226033"><ele>11.333333333333332</ele><time>2026-03-28T13:42:38.385Z</time></trkpt><trkpt lat="40.54367" lon="8.32276"><ele>9.666666666666666</ele><time>2026-03-28T13:42:39.385Z</time></trkpt><trkpt lat="40.5435517" lon="8.3229033"><ele>8.0</ele><time>2026-03-28T13:42:40.385Z</time></trkpt><trkpt lat="40.543415" lon="8.3230117"><ele>12.0</ele><time>2026-03-28T13:42:41.385Z</time></trkpt><trkpt lat="40.5432583" lon="8.3230733"><ele>16.0</ele><time>2026-03-28T13:42:42.385Z</time></trkpt><trkpt lat="40.5430967" lon="8.323095"><ele>20.0</ele><time>2026-03-28T13:42:43.384Z</time></trkpt><trkpt lat="40.54295" lon="8.3230817"><ele>17.5</ele><time>2026-03-28T13:42:44.385Z</time></trkpt><trkpt lat="40.542815" lon="8.323005"><ele>15.0</ele><time>2026-03-28T13:42:45.385Z</time></trkpt><trkpt lat="40.5426883" lon="8.322905"><ele>12.5</ele><time>2026-03-28T13:42:46.385Z</time></trkpt><trkpt lat="40.54258" lon="8.3227833"><ele>10.0</ele><time>2026-03-28T13:42:47.384Z</time></trkpt><trkpt lat="40.542485" lon="8.3226383"><ele>10.0</ele><time>2026-03-28T13:42:48.385Z</time></trkpt><trkpt lat="40.5424067" lon="8.3224917"><ele>10.0</ele><time>2026-03-28T13:42:49.385Z</time></trkpt><trkpt lat="40.54233" lon="8.3223183"><ele>10.0</ele><time>2026-03-28T13:42:50.385Z</time></trkpt><trkpt lat="40.5422683" lon="8.3221567"><ele>10.0</ele><time>2026-03-28T13:42:51.385Z</time></trkpt><trkpt lat="40.5421817" lon="8.3220083"><ele>9.0</ele><time>2026-03-28T13:42:52.385Z</time></trkpt><trkpt lat="40.5420667" lon="8.3219217"><ele>8.0</ele><time>2026-03-28T13:42:53.385Z</time></trkpt><trkpt lat="40.5419433" lon="8.3218933"><ele>7.0</ele><time>2026-03-28T13:42:54.385Z</time></trkpt><trkpt lat="40.5418167" lon="8.3219133"><ele>6.0</ele><time>2026-03-28T13:42:55.385Z</time></trkpt><trkpt lat="40.5417033" lon="8.3219733"><ele>6.0</ele><time>2026-03-28T13:42:56.385Z</time></trkpt><trkpt lat="40.5415867" lon="8.3220917"><ele>6.0</ele><time>2026-03-28T13:42:57.385Z</time></trkpt><trkpt lat="40.541495" lon="8.3222433"><ele>6.0</ele><time>2026-03-28T13:42:58.385Z</time></trkpt><trkpt lat="40.5414017" lon="8.3224167"><ele>5.666666666666667</ele><time>2026-03-28T13:42:59.385Z</time></trkpt><trkpt lat="40.541295" lon="8.3226"><ele>5.333333333333334</ele><time>2026-03-28T13:43:00.385Z</time></trkpt><trkpt lat="40.54118" lon="8.3227783"><ele>5.0</ele><time>2026-03-28T13:43:01.385Z</time></trkpt><trkpt lat="40.5410567" lon="8.3229683"><ele>10.0</ele><time>2026-03-28T13:43:02.384Z</time></trkpt><trkpt lat="40.540925" lon="8.3231317"><ele>15.0</ele><time>2026-03-28T13:43:03.385Z</time></trkpt><trkpt lat="40.54079" lon="8.32327"><ele>20.0</ele><time>2026-03-28T13:43:04.385Z</time></trkpt><trkpt lat="40.5406567" lon="8.323405"><ele>20.0</ele><time>2026-03-28T13:43:05.384Z</time></trkpt><trkpt lat="40.540475" lon="8.3235167"><ele>20.0</ele><time>2026-03-28T13:43:06.385Z</time></trkpt><trkpt lat="40.5402817" lon="8.323635"><ele>20.0</ele><time>2026-03-28T13:43:07.385Z</time></trkpt><trkpt lat="40.5400933" lon="8.3237533"><ele>20.333333333333336</ele><time>2026-03-28T13:43:08.385Z</time></trkpt><trkpt lat="40.5399167" lon="8.32386"><ele>20.666666666666668</ele><time>2026-03-28T13:43:09.385Z</time></trkpt><trkpt lat="40.53976" lon="8.3239767"><ele>21.0</ele><time>2026-03-28T13:43:10.384Z</time></trkpt><trkpt lat="40.5396133" lon="8.324095"><ele>17.666666666666668</ele><time>2026-03-28T13:43:11.385Z</time></trkpt><trkpt lat="40.5394567" lon="8.324205"><ele>14.333333333333332</ele><time>2026-03-28T13:43:12.385Z</time></trkpt><trkpt lat="40.5392783" lon="8.3242883"><ele>11.0</ele><time>2026-03-28T13:43:13.384Z</time></trkpt><trkpt lat="40.5390883" lon="8.3243333"><ele>11.0</ele><time>2026-03-28T13:43:14.384Z</time></trkpt><trkpt lat="40.538905" lon="8.3243217"><ele>11.0</ele><time>2026-03-28T13:43:15.384Z</time></trkpt><trkpt lat="40.5387183" lon="8.3242717"><ele>11.0</ele><time>2026-03-28T13:43:16.385Z</time></trkpt><trkpt lat="40.53854" lon="8.3241867"><ele>11.333333333333332</ele><time>2026-03-28T13:43:17.384Z</time></trkpt><trkpt lat="40.5383617" lon="8.32412"><ele>11.666666666666666</ele><time>2026-03-28T13:43:18.385Z</time></trkpt><trkpt lat="40.5381917" lon="8.3240467"><ele>12.0</ele><time>2026-03-28T13:43:19.385Z</time></trkpt><trkpt lat="40.53802" lon="8.3239867"><ele>9.666666666666666</ele><time>2026-03-28T13:43:20.385Z</time></trkpt><trkpt lat="40.53784" lon="8.3239267"><ele>7.333333333333334</ele><time>2026-03-28T13:43:21.385Z</time></trkpt><trkpt lat="40.5376717" lon="8.3238683"><ele>5.0</ele><time>2026-03-28T13:43:22.385Z</time></trkpt><trkpt lat="40.5374983" lon="8.3238317"><ele>5.0</ele><time>2026-03-28T13:43:23.385Z</time></trkpt><trkpt lat="40.53735" lon="8.3238167"><ele>5.0</ele><time>2026-03-28T13:43:24.385Z</time></trkpt><trkpt lat="40.537195" lon="8.32384"><ele>5.0</ele><time>2026-03-28T13:43:25.384Z</time></trkpt><trkpt lat="40.53705" lon="8.3238967"><ele>7.333333333333334</ele><time>2026-03-28T13:43:26.385Z</time></trkpt><trkpt lat="40.53692" lon="8.3240167"><ele>9.666666666666666</ele><time>2026-03-28T13:43:27.385Z</time></trkpt><trkpt lat="40.536805" lon="8.32418"><ele>12.0</ele><time>2026-03-28T13:43:28.384Z</time></trkpt><trkpt lat="40.536705" lon="8.3243783"><ele>12.0</ele><time>2026-03-28T13:43:29.385Z</time></trkpt><trkpt lat="40.536625" lon="8.3245883"><ele>12.0</ele><time>2026-03-28T13:43:30.385Z</time></trkpt><trkpt lat="40.5365617" lon="8.3248217"><ele>12.0</ele><time>2026-03-28T13:43:31.385Z</time></trkpt><trkpt lat="40.5364933" lon="8.3250483"><ele>16.666666666666664</ele><time>2026-03-28T13:43:32.384Z</time></trkpt><trkpt lat="40.5364183" lon="8.3252733"><ele>21.333333333333332</ele><time>2026-03-28T13:43:33.385Z</time></trkpt><trkpt lat="40.5363183" lon="8.3254633"><ele>26.0</ele><time>2026-03-28T13:43:34.385Z</time></trkpt><trkpt lat="40.5361917" lon="8.3256017"><ele>26.333333333333332</ele><time>2026-03-28T13:43:35.385Z</time></trkpt><trkpt lat="40.53602" lon="8.3256733"><ele>26.666666666666664</ele><time>2026-03-28T13:43:36.385Z</time></trkpt><trkpt lat="40.5358433" lon="8.3257367"><ele>27.0</ele><time>2026-03-28T13:43:37.385Z</time></trkpt><trkpt lat="40.5356533" lon="8.3258133"><ele>27.0</ele><time>2026-03-28T13:43:38.384Z</time></trkpt><trkpt lat="40.53544" lon="8.3258917"><ele>27.0</ele><time>2026-03-28T13:43:39.384Z</time></trkpt><trkpt lat="40.5352333" lon="8.3259617"><ele>27.0</ele><time>2026-03-28T13:43:40.385Z</time></trkpt><trkpt lat="40.53502" lon="8.3260267"><ele>24.333333333333332</ele><time>2026-03-28T13:43:41.385Z</time></trkpt><trkpt lat="40.534825" lon="8.326115"><ele>21.666666666666664</ele><time>2026-03-28T13:43:42.385Z</time></trkpt><trkpt lat="40.5346333" lon="8.3261917"><ele>19.0</ele><time>2026-03-28T13:43:43.385Z</time></trkpt><trkpt lat="40.5344417" lon="8.3262767"><ele>16.666666666666664</ele><time>2026-03-28T13:43:44.384Z</time></trkpt><trkpt lat="40.5342333" lon="8.326335"><ele>14.333333333333332</ele><time>2026-03-28T13:43:45.385Z</time></trkpt><trkpt lat="40.534025" lon="8.3264033"><ele>12.0</ele><time>2026-03-28T13:43:46.385Z</time></trkpt><trkpt lat="40.5338117" lon="8.3264733"><ele>20.5</ele><time>2026-03-28T13:43:47.385Z</time></trkpt><trkpt lat="40.5335983" lon="8.3265633"><ele>29.0</ele><time>2026-03-28T13:43:48.385Z</time></trkpt><trkpt lat="40.53338" lon="8.3266517"><ele>29.0</ele><time>2026-03-28T13:43:49.384Z</time></trkpt><trkpt lat="40.53317" lon="8.3267317"><ele>29.0</ele><time>2026-03-28T13:43:50.385Z</time></trkpt><trkpt lat="40.5329683" lon="8.326795"><ele>29.0</ele><time>2026-03-28T13:43:51.385Z</time></trkpt><trkpt lat="40.5327633" lon="8.3268633"><ele>27.666666666666664</ele><time>2026-03-28T13:43:52.385Z</time></trkpt><trkpt lat="40.5325617" lon="8.3269183"><ele>26.333333333333336</ele><time>2026-03-28T13:43:53.385Z</time></trkpt><trkpt lat="40.53237" lon="8.3269267"><ele>25.0</ele><time>2026-03-28T13:43:54.385Z</time></trkpt><trkpt lat="40.532195" lon="8.326885"><ele>25.0</ele><time>2026-03-28T13:43:55.385Z</time></trkpt><trkpt lat="40.5320117" lon="8.326835"><ele>25.0</ele><time>2026-03-28T13:43:56.385Z</time></trkpt><trkpt lat="40.53185" lon="8.3268167"><ele>25.0</ele><time>2026-03-28T13:43:57.384Z</time></trkpt><trkpt lat="40.5316833" lon="8.3268217"><ele>25.0</ele><time>2026-03-28T13:43:58.385Z</time></trkpt><trkpt lat="40.5315" lon="8.3268667"><ele>25.0</ele><time>2026-03-28T13:43:59.385Z</time></trkpt><trkpt lat="40.5313167" lon="8.3269317"><ele>25.0</ele><time>2026-03-28T13:44:00.385Z</time></trkpt><trkpt lat="40.531135" lon="8.3270017"><ele>21.666666666666668</ele><time>2026-03-28T13:44:01.385Z</time></trkpt><trkpt lat="40.5309483" lon="8.3270767"><ele>18.333333333333336</ele><time>2026-03-28T13:44:02.385Z</time></trkpt><trkpt lat="40.5307933" lon="8.3271633"><ele>15.0</ele><time>2026-03-28T13:44:03.385Z</time></trkpt><trkpt lat="40.530655" lon="8.32728"><ele>16.333333333333332</ele><time>2026-03-28T13:44:04.385Z</time></trkpt><trkpt lat="40.5305267" lon="8.3274417"><ele>17.666666666666664</ele><time>2026-03-28T13:44:05.385Z</time></trkpt><trkpt lat="40.530405" lon="8.3276367"><ele>19.0</ele><time>2026-03-28T13:44:06.385Z</time></trkpt><trkpt lat="40.5302617" lon="8.327855"><ele>24.333333333333332</ele><time>2026-03-28T13:44:07.385Z</time></trkpt><trkpt lat="40.5301217" lon="8.3280783"><ele>29.666666666666664</ele><time>2026-03-28T13:44:08.385Z</time></trkpt><trkpt lat="40.5299833" lon="8.3283"><ele>35.0</ele><time>2026-03-28T13:44:09.385Z</time></trkpt><trkpt lat="40.52984" lon="8.3285067"><ele>35.0</ele><time>2026-03-28T13:44:10.385Z</time></trkpt><trkpt lat="40.5297183" lon="8.328705"><ele>35.0</ele><time>2026-03-28T13:44:11.385Z</time></trkpt><trkpt lat="40.5296" lon="8.328835"><ele>35.0</ele><time>2026-03-28T13:44:12.385Z</time></trkpt><trkpt lat="40.529475" lon="8.3289067"><ele>29.0</ele><time>2026-03-28T13:44:13.385Z</time></trkpt><trkpt lat="40.5293317" lon="8.328885"><ele>23.0</ele><time>2026-03-28T13:44:14.385Z</time></trkpt><trkpt lat="40.5291667" lon="8.328805"><ele>17.0</ele><time>2026-03-28T13:44:15.384Z</time></trkpt><trkpt lat="40.5290117" lon="8.3287283"><ele>17.0</ele><time>2026-03-28T13:44:16.385Z</time></trkpt><trkpt lat="40.52885" lon="8.3286767"><ele>17.0</ele><time>2026-03-28T13:44:17.385Z</time></trkpt><trkpt lat="40.528725" lon="8.328705"><ele>17.0</ele><time>2026-03-28T13:44:18.385Z</time></trkpt><trkpt lat="40.52863" lon="8.3288"><ele>17.0</ele><time>2026-03-28T13:44:19.385Z</time></trkpt><trkpt lat="40.5285483" lon="8.32897"><ele>20.333333333333336</ele><time>2026-03-28T13:44:20.385Z</time></trkpt><trkpt lat="40.528455" lon="8.32917"><ele>23.666666666666668</ele><time>2026-03-28T13:44:21.385Z</time></trkpt><trkpt lat="40.52835" lon="8.3293667"><ele>27.0</ele><time>2026-03-28T13:44:22.385Z</time></trkpt><trkpt lat="40.5282117" lon="8.3295517"><ele>27.0</ele><time>2026-03-28T13:44:23.384Z</time></trkpt><trkpt lat="40.528045" lon="8.32972"><ele>27.0</ele><time>2026-03-28T13:44:24.385Z</time></trkpt><trkpt lat="40.527875" lon="8.3298933"><ele>27.0</ele><time>2026-03-28T13:44:25.385Z</time></trkpt><trkpt lat="40.5276933" lon="8.3300567"><ele>26.666666666666664</ele><time>2026-03-28T13:44:26.385Z</time></trkpt><trkpt lat="40.52751" lon="8.3302167"><ele>26.333333333333332</ele><time>2026-03-28T13:44:27.385Z</time></trkpt><trkpt lat="40.5273" lon="8.3303333"><ele>26.0</ele><time>2026-03-28T13:44:28.385Z</time></trkpt><trkpt lat="40.5270867" lon="8.3304533"><ele>28.666666666666664</ele><time>2026-03-28T13:44:29.385Z</time></trkpt><trkpt lat="40.52689" lon="8.3305467"><ele>31.333333333333336</ele><time>2026-03-28T13:44:30.385Z</time></trkpt><trkpt lat="40.526705" lon="8.3306233"><ele>34.0</ele><time>2026-03-28T13:44:31.384Z</time></trkpt><trkpt lat="40.5265383" lon="8.3306767"><ele>34.0</ele><time>2026-03-28T13:44:32.384Z</time></trkpt><trkpt lat="40.52638" lon="8.3307067"><ele>34.0</ele><time>2026-03-28T13:44:33.385Z</time></trkpt><trkpt lat="40.52622" lon="8.3307433"><ele>34.0</ele><time>2026-03-28T13:44:34.384Z</time></trkpt><trkpt lat="40.5260667" lon="8.3308283"><ele>27.0</ele><time>2026-03-28T13:44:35.384Z</time></trkpt><trkpt lat="40.5258983" lon="8.3309667"><ele>20.0</ele><time>2026-03-28T13:44:36.384Z</time></trkpt><trkpt lat="40.52574" lon="8.331145"><ele>13.0</ele><time>2026-03-28T13:44:37.384Z</time></trkpt><trkpt lat="40.5256017" lon="8.3313317"><ele>13.333333333333332</ele><time>2026-03-28T13:44:38.385Z</time></trkpt><trkpt lat="40.525455" lon="8.331515"><ele>13.666666666666668</ele><time>2026-03-28T13:44:39.384Z</time></trkpt><trkpt lat="40.5253067" lon="8.3317"><ele>14.0</ele><time>2026-03-28T13:44:40.385Z</time></trkpt><trkpt lat="40.5251433" lon="8.3318683"><ele>14.0</ele><time>2026-03-28T13:44:41.385Z</time></trkpt><trkpt lat="40.5249617" lon="8.3320183"><ele>14.0</ele><time>2026-03-28T13:44:42.384Z</time></trkpt><trkpt lat="40.5247717" lon="8.332155"><ele>14.0</ele><time>2026-03-28T13:44:43.384Z</time></trkpt><trkpt lat="40.5245733" lon="8.3322733"><ele>15.666666666666668</ele><time>2026-03-28T13:44:44.385Z</time></trkpt><trkpt lat="40.5243667" lon="8.3323867"><ele>17.333333333333332</ele><time>2026-03-28T13:44:45.384Z</time></trkpt><trkpt lat="40.5241667" lon="8.3324917"><ele>19.0</ele><time>2026-03-28T13:44:46.385Z</time></trkpt><trkpt lat="40.5239733" lon="8.3325833"><ele>19.0</ele><time>2026-03-28T13:44:47.384Z</time></trkpt><trkpt lat="40.5238017" lon="8.33266"><ele>19.0</ele><time>2026-03-28T13:44:48.385Z</time></trkpt><trkpt lat="40.5236383" lon="8.3327417"><ele>19.0</ele><time>2026-03-28T13:44:49.385Z</time></trkpt><trkpt lat="40.5235033" lon="8.3328467"><ele>20.0</ele><time>2026-03-28T13:44:50.385Z</time></trkpt><trkpt lat="40.5233817" lon="8.3329883"><ele>21.0</ele><time>2026-03-28T13:44:51.385Z</time></trkpt><trkpt lat="40.5232833" lon="8.3331717"><ele>22.0</ele><time>2026-03-28T13:44:52.385Z</time></trkpt><trkpt lat="40.5231967" lon="8.3333717"><ele>22.0</ele><time>2026-03-28T13:44:53.385Z</time></trkpt><trkpt lat="40.5231117" lon="8.3335717"><ele>22.0</ele><time>2026-03-28T13:44:54.385Z</time></trkpt><trkpt lat="40.5230367" lon="8.3337683"><ele>22.0</ele><time>2026-03-28T13:44:55.385Z</time></trkpt><trkpt lat="40.522995" lon="8.3339467"><ele>24.25</ele><time>2026-03-28T13:44:56.384Z</time></trkpt><trkpt lat="40.5230167" lon="8.334125"><ele>26.5</ele><time>2026-03-28T13:44:57.384Z</time></trkpt><trkpt lat="40.5230933" lon="8.334295"><ele>28.75</ele><time>2026-03-28T13:44:58.385Z</time></trkpt><trkpt lat="40.5231917" lon="8.3344567"><ele>31.0</ele><time>2026-03-28T13:44:59.385Z</time></trkpt><trkpt lat="40.5233067" lon="8.3346233"><ele>33.66666666666667</ele><time>2026-03-28T13:45:00.385Z</time></trkpt><trkpt lat="40.5234167" lon="8.3348217"><ele>36.333333333333336</ele><time>2026-03-28T13:45:01.385Z</time></trkpt><trkpt lat="40.5235233" lon="8.3350383"><ele>39.0</ele><time>2026-03-28T13:45:02.385Z</time></trkpt><trkpt lat="40.5235883" lon="8.3352633"><ele>39.0</ele><time>2026-03-28T13:45:03.384Z</time></trkpt><trkpt lat="40.5236167" lon="8.3355067"><ele>39.0</ele><time>2026-03-28T13:45:04.385Z</time></trkpt><trkpt lat="40.5236233" lon="8.3357783"><ele>39.0</ele><time>2026-03-28T13:45:05.385Z</time></trkpt><trkpt lat="40.52362" lon="8.336035"><ele>42.33333333333333</ele><time>2026-03-28T13:45:06.384Z</time></trkpt><trkpt lat="40.5236283" lon="8.3363017"><ele>45.666666666666664</ele><time>2026-03-28T13:45:07.384Z</time></trkpt><trkpt lat="40.523615" lon="8.3365767"><ele>49.0</ele><time>2026-03-28T13:45:08.385Z</time></trkpt><trkpt lat="40.523615" lon="8.3368367"><ele>50.666666666666664</ele><time>2026-03-28T13:45:09.385Z</time></trkpt><trkpt lat="40.5235967" lon="8.337075"><ele>52.33333333333333</ele><time>2026-03-28T13:45:10.384Z</time></trkpt><trkpt lat="40.5235483" lon="8.3372917"><ele>54.0</ele><time>2026-03-28T13:45:11.384Z</time></trkpt><trkpt lat="40.5234783" lon="8.33751"><ele>55.0</ele><time>2026-03-28T13:45:12.385Z</time></trkpt><trkpt lat="40.5233883" lon="8.3377217"><ele>56.0</ele><time>2026-03-28T13:45:13.385Z</time></trkpt><trkpt lat="40.5232567" lon="8.3379133"><ele>57.0</ele><time>2026-03-28T13:45:14.385Z</time></trkpt><trkpt lat="40.52313" lon="8.3381317"><ele>58.0</ele><time>2026-03-28T13:45:15.384Z</time></trkpt><trkpt lat="40.5229967" lon="8.3383533"><ele>59.0</ele><time>2026-03-28T13:45:16.384Z</time></trkpt><trkpt lat="40.5228633" lon="8.33859"><ele>60.0</ele><time>2026-03-28T13:45:17.384Z</time></trkpt><trkpt lat="40.52273" lon="8.3388283"><ele>62.66666666666667</ele><time>2026-03-28T13:45:18.385Z</time></trkpt><trkpt lat="40.522595" lon="8.3390667"><ele>65.33333333333334</ele><time>2026-03-28T13:45:19.385Z</time></trkpt><trkpt lat="40.5224683" lon="8.339295"><ele>68.0</ele><time>2026-03-28T13:45:20.385Z</time></trkpt><trkpt lat="40.52234" lon="8.3395333"><ele>70.0</ele><time>2026-03-28T13:45:21.385Z</time></trkpt><trkpt lat="40.522205" lon="8.33977"><ele>72.0</ele><time>2026-03-28T13:45:22.385Z</time></trkpt><trkpt lat="40.52207" lon="8.3400117"><ele>73.0</ele><time>2026-03-28T13:45:23.385Z</time></trkpt><trkpt lat="40.521935" lon="8.3402433"><ele>74.0</ele><time>2026-03-28T13:45:24.385Z</time></trkpt><trkpt lat="40.5218017" lon="8.34047"><ele>75.0</ele><time>2026-03-28T13:45:25.384Z</time></trkpt><trkpt lat="40.5216817" lon="8.3407133"><ele>75.33333333333333</ele><time>2026-03-28T13:45:26.385Z</time></trkpt><trkpt lat="40.521565" lon="8.3409417"><ele>75.66666666666666</ele><time>2026-03-28T13:45:27.385Z</time></trkpt><trkpt lat="40.5214483" lon="8.3411733"><ele>76.0</ele><time>2026-03-28T13:45:28.385Z</time></trkpt><trkpt lat="40.5213367" lon="8.3414033"><ele>77.33333333333333</ele><time>2026-03-28T13:45:29.385Z</time></trkpt><trkpt lat="40.5212217" lon="8.3416183"><ele>78.66666666666667</ele><time>2026-03-28T13:45:30.385Z</time></trkpt><trkpt lat="40.5210767" lon="8.3417967"><ele>80.0</ele><time>2026-03-28T13:45:31.385Z</time></trkpt><trkpt lat="40.520915" lon="8.34194"><ele>80.0</ele><time>2026-03-28T13:45:32.385Z</time></trkpt><trkpt lat="40.5207483" lon="8.3420617"><ele>80.0</ele><time>2026-03-28T13:45:33.385Z</time></trkpt><trkpt lat="40.52056" lon="8.3421783"><ele>80.0</ele><time>2026-03-28T13:45:34.385Z</time></trkpt><trkpt lat="40.5203767" lon="8.3422817"><ele>82.66666666666667</ele><time>2026-03-28T13:45:35.384Z</time></trkpt><trkpt lat="40.52019" lon="8.342385"><ele>85.33333333333333</ele><time>2026-03-28T13:45:36.385Z</time></trkpt><trkpt lat="40.52001" lon="8.34245"><ele>88.0</ele><time>2026-03-28T13:45:37.385Z</time></trkpt><trkpt lat="40.5198183" lon="8.342475"><ele>88.0</ele><time>2026-03-28T13:45:38.385Z</time></trkpt><trkpt lat="40.5196183" lon="8.3424667"><ele>88.0</ele><time>2026-03-28T13:45:39.384Z</time></trkpt><trkpt lat="40.5194367" lon="8.3424383"><ele>88.0</ele><time>2026-03-28T13:45:40.385Z</time></trkpt><trkpt lat="40.5192417" lon="8.3423933"><ele>89.33333333333333</ele><time>2026-03-28T13:45:41.385Z</time></trkpt><trkpt lat="40.5190333" lon="8.3423383"><ele>90.66666666666667</ele><time>2026-03-28T13:45:42.385Z</time></trkpt><trkpt lat="40.5188167" lon="8.3423067"><ele>92.0</ele><time>2026-03-28T13:45:43.385Z</time></trkpt><trkpt lat="40.5185917" lon="8.3422783"><ele>92.33333333333334</ele><time>2026-03-28T13:45:44.385Z</time></trkpt><trkpt lat="40.5183783" lon="8.3422533"><ele>92.66666666666667</ele><time>2026-03-28T13:45:45.384Z</time></trkpt><trkpt lat="40.5181533" lon="8.34224"><ele>93.0</ele><time>2026-03-28T13:45:46.385Z</time></trkpt><trkpt lat="40.517925" lon="8.3422433"><ele>93.0</ele><time>2026-03-28T13:45:47.385Z</time></trkpt><trkpt lat="40.5176967" lon="8.3422517"><ele>93.0</ele><time>2026-03-28T13:45:48.385Z</time></trkpt><trkpt lat="40.51747" lon="8.342245"><ele>93.0</ele><time>2026-03-28T13:45:49.385Z</time></trkpt><trkpt lat="40.5172417" lon="8.3422433"><ele>93.0</ele><time>2026-03-28T13:45:50.384Z</time></trkpt><trkpt lat="40.5170133" lon="8.3422433"><ele>93.0</ele><time>2026-03-28T13:45:51.385Z</time></trkpt><trkpt lat="40.5167967" lon="8.3422467"><ele>93.0</ele><time>2026-03-28T13:45:52.385Z</time></trkpt><trkpt lat="40.5165833" lon="8.34226"><ele>93.0</ele><time>2026-03-28T13:45:53.384Z</time></trkpt><trkpt lat="40.5163683" lon="8.3422533"><ele>93.66666666666667</ele><time>2026-03-28T13:45:54.384Z</time></trkpt><trkpt lat="40.516155" lon="8.3422383"><ele>94.33333333333334</ele><time>2026-03-28T13:45:55.385Z</time></trkpt><trkpt lat="40.51595" lon="8.3422533"><ele>95.0</ele><time>2026-03-28T13:45:56.385Z</time></trkpt><trkpt lat="40.51576" lon="8.3422533"><ele>95.0</ele><time>2026-03-28T13:45:57.385Z</time></trkpt><trkpt lat="40.5155867" lon="8.3422767"><ele>95.0</ele><time>2026-03-28T13:45:58.385Z</time></trkpt><trkpt lat="40.5153883" lon="8.3423117"><ele>95.0</ele><time>2026-03-28T13:45:59.385Z</time></trkpt><trkpt lat="40.5151867" lon="8.342405"><ele>94.66666666666667</ele><time>2026-03-28T13:46:00.385Z</time></trkpt><trkpt lat="40.5149917" lon="8.342525"><ele>94.33333333333333</ele><time>2026-03-28T13:46:01.385Z</time></trkpt><trkpt lat="40.514795" lon="8.3426517"><ele>94.0</ele><time>2026-03-28T13:46:02.385Z</time></trkpt><trkpt lat="40.5146033" lon="8.3427733"><ele>94.0</ele><time>2026-03-28T13:46:03.385Z</time></trkpt><trkpt lat="40.514415" lon="8.3428983"><ele>94.0</ele><time>2026-03-28T13:46:04.385Z</time></trkpt><trkpt lat="40.5142433" lon="8.3430467"><ele>94.0</ele><time>2026-03-28T13:46:05.385Z</time></trkpt><trkpt lat="40.514095" lon="8.3432167"><ele>94.66666666666666</ele><time>2026-03-28T13:46:06.385Z</time></trkpt><trkpt lat="40.5139517" lon="8.3434033"><ele>95.33333333333333</ele><time>2026-03-28T13:46:07.384Z</time></trkpt><trkpt lat="40.51382" lon="8.3436117"><ele>96.0</ele><time>2026-03-28T13:46:08.384Z</time></trkpt><trkpt lat="40.51369" lon="8.3438317"><ele>95.66666666666667</ele><time>2026-03-28T13:46:09.384Z</time></trkpt><trkpt lat="40.5135683" lon="8.3440667"><ele>95.33333333333334</ele><time>2026-03-28T13:46:10.385Z</time></trkpt><trkpt lat="40.5134417" lon="8.3443217"><ele>95.0</ele><time>2026-03-28T13:46:11.384Z</time></trkpt><trkpt lat="40.5133117" lon="8.3445583"><ele>96.33333333333334</ele><time>2026-03-28T13:46:12.385Z</time></trkpt><trkpt lat="40.513175" lon="8.3447983"><ele>97.66666666666667</ele><time>2026-03-28T13:46:13.384Z</time></trkpt><trkpt lat="40.5130467" lon="8.3450267"><ele>99.0</ele><time>2026-03-28T13:46:14.384Z</time></trkpt><trkpt lat="40.512925" lon="8.345255"><ele>99.0</ele><time>2026-03-28T13:46:15.385Z</time></trkpt><trkpt lat="40.5128033" lon="8.345485"><ele>99.0</ele><time>2026-03-28T13:46:16.384Z</time></trkpt><trkpt lat="40.5127" lon="8.345655"><ele>99.0</ele><time>2026-03-28T13:46:17.385Z</time></trkpt><trkpt lat="40.5126" lon="8.3458767"><ele>99.0</ele><time>2026-03-28T13:46:18.385Z</time></trkpt><trkpt lat="40.5125067" lon="8.3461133"><ele>99.0</ele><time>2026-03-28T13:46:19.384Z</time></trkpt><trkpt lat="40.5124367" lon="8.3463533"><ele>99.0</ele><time>2026-03-28T13:46:20.385Z</time></trkpt><trkpt lat="40.5123833" lon="8.3466083"><ele>99.0</ele><time>2026-03-28T13:46:21.385Z</time></trkpt><trkpt lat="40.512345" lon="8.3468667"><ele>99.0</ele><time>2026-03-28T13:46:22.384Z</time></trkpt><trkpt lat="40.5123233" lon="8.3471367"><ele>99.0</ele><time>2026-03-28T13:46:23.384Z</time></trkpt><trkpt lat="40.5122983" lon="8.347415"><ele>99.66666666666666</ele><time>2026-03-28T13:46:24.385Z</time></trkpt><trkpt lat="40.5122667" lon="8.34768"><ele>100.33333333333333</ele><time>2026-03-28T13:46:25.384Z</time></trkpt><trkpt lat="40.5122333" lon="8.3479367"><ele>101.0</ele><time>2026-03-28T13:46:26.385Z</time></trkpt><trkpt lat="40.5121683" lon="8.3483867"><ele>101.33333333333333</ele><time>2026-03-28T13:46:28.385Z</time></trkpt><trkpt lat="40.5121717" lon="8.3485967"><ele>101.66666666666666</ele><time>2026-03-28T13:46:29.384Z</time></trkpt><trkpt lat="40.5121917" lon="8.3487783"><ele>102.0</ele><time>2026-03-28T13:46:30.385Z</time></trkpt><trkpt lat="40.512225" lon="8.3489733"><ele>102.75</ele><time>2026-03-28T13:46:31.385Z</time></trkpt><trkpt lat="40.5122617" lon="8.3491633"><ele>103.5</ele><time>2026-03-28T13:46:32.384Z</time></trkpt><trkpt lat="40.512285" lon="8.3493517"><ele>104.25</ele><time>2026-03-28T13:46:33.384Z</time></trkpt><trkpt lat="40.5123133" lon="8.3495483"><ele>105.0</ele><time>2026-03-28T13:46:34.385Z</time></trkpt><trkpt lat="40.5123383" lon="8.3497783"><ele>105.33333333333334</ele><time>2026-03-28T13:46:35.385Z</time></trkpt><trkpt lat="40.5123567" lon="8.350015"><ele>105.66666666666667</ele><time>2026-03-28T13:46:36.385Z</time></trkpt><trkpt lat="40.51239" lon="8.3502533"><ele>106.0</ele><time>2026-03-28T13:46:37.384Z</time></trkpt><trkpt lat="40.51243" lon="8.350495"><ele>105.66666666666667</ele><time>2026-03-28T13:46:38.385Z</time></trkpt><trkpt lat="40.5124617" lon="8.3507533"><ele>105.33333333333334</ele><time>2026-03-28T13:46:39.384Z</time></trkpt><trkpt lat="40.512505" lon="8.3510133"><ele>105.0</ele><time>2026-03-28T13:46:40.385Z</time></trkpt><trkpt lat="40.5126533" lon="8.3520433"><ele>107.66666666666666</ele><time>2026-03-28T13:46:44.385Z</time></trkpt><trkpt lat="40.5126867" lon="8.3523067"><ele>110.33333333333333</ele><time>2026-03-28T13:46:45.385Z</time></trkpt><trkpt lat="40.5127283" lon="8.3525367"><ele>113.0</ele><time>2026-03-28T13:46:46.385Z</time></trkpt><trkpt lat="40.512745" lon="8.3527367"><ele>113.0</ele><time>2026-03-28T13:46:47.385Z</time></trkpt><trkpt lat="40.512735" lon="8.3529367"><ele>113.0</ele><time>2026-03-28T13:46:48.385Z</time></trkpt><trkpt lat="40.5127017" lon="8.35311"><ele>113.0</ele><time>2026-03-28T13:46:49.384Z</time></trkpt><trkpt lat="40.5126433" lon="8.3532983"><ele>113.0</ele><time>2026-03-28T13:46:50.385Z</time></trkpt><trkpt lat="40.51255" lon="8.3534833"><ele>112.0</ele><time>2026-03-28T13:46:51.385Z</time></trkpt><trkpt lat="40.5124417" lon="8.3536733"><ele>111.0</ele><time>2026-03-28T13:46:52.385Z</time></trkpt><trkpt lat="40.51233" lon="8.3538767"><ele>110.0</ele><time>2026-03-28T13:46:53.385Z</time></trkpt><trkpt lat="40.5122167" lon="8.35409"><ele>108.33333333333333</ele><time>2026-03-28T13:46:54.385Z</time></trkpt><trkpt lat="40.5121" lon="8.3543117"><ele>106.66666666666666</ele><time>2026-03-28T13:46:55.385Z</time></trkpt><trkpt lat="40.511985" lon="8.3545383"><ele>105.0</ele><time>2026-03-28T13:46:56.385Z</time></trkpt><trkpt lat="40.511875" lon="8.3547483"><ele>101.33333333333333</ele><time>2026-03-28T13:46:57.384Z</time></trkpt><trkpt lat="40.5117517" lon="8.35495"><ele>97.66666666666666</ele><time>2026-03-28T13:46:58.385Z</time></trkpt><trkpt lat="40.511635" lon="8.3551317"><ele>94.0</ele><time>2026-03-28T13:46:59.385Z</time></trkpt><trkpt lat="40.51149" lon="8.355305"><ele>94.0</ele><time>2026-03-28T13:47:00.385Z</time></trkpt><trkpt lat="40.5112967" lon="8.3554583"><ele>94.0</ele><time>2026-03-28T13:47:01.385Z</time></trkpt><trkpt lat="40.51112" lon="8.3556283"><ele>94.0</ele><time>2026-03-28T13:47:02.385Z</time></trkpt><trkpt lat="40.5109467" lon="8.3558017"><ele>91.0</ele><time>2026-03-28T13:47:03.385Z</time></trkpt><trkpt lat="40.5107717" lon="8.35598"><ele>88.0</ele><time>2026-03-28T13:47:04.385Z</time></trkpt><trkpt lat="40.51061" lon="8.3561233"><ele>85.0</ele><time>2026-03-28T13:47:05.385Z</time></trkpt><trkpt lat="40.51046" lon="8.3562583"><ele>82.0</ele><time>2026-03-28T13:47:06.384Z</time></trkpt><trkpt lat="40.5103133" lon="8.3563883"><ele>79.0</ele><time>2026-03-28T13:47:07.385Z</time></trkpt><trkpt lat="40.5101583" lon="8.3565017"><ele>76.0</ele><time>2026-03-28T13:47:08.385Z</time></trkpt><trkpt lat="40.5099967" lon="8.356585"><ele>76.0</ele><time>2026-03-28T13:47:09.385Z</time></trkpt><trkpt lat="40.5098033" lon="8.3566233"><ele>76.0</ele><time>2026-03-28T13:47:10.385Z</time></trkpt><trkpt lat="40.509595" lon="8.3566317"><ele>76.0</ele><time>2026-03-28T13:47:11.384Z</time></trkpt><trkpt lat="40.5093717" lon="8.3566283"><ele>73.33333333333333</ele><time>2026-03-28T13:47:12.384Z</time></trkpt><trkpt lat="40.5091517" lon="8.3565983"><ele>70.66666666666667</ele><time>2026-03-28T13:47:13.385Z</time></trkpt><trkpt lat="40.5089267" lon="8.35657"><ele>68.0</ele><time>2026-03-28T13:47:14.385Z</time></trkpt><trkpt lat="40.5086933" lon="8.3565433"><ele>65.5</ele><time>2026-03-28T13:47:15.385Z</time></trkpt><trkpt lat="40.5084583" lon="8.356525"><ele>63.0</ele><time>2026-03-28T13:47:16.385Z</time></trkpt><trkpt lat="40.508225" lon="8.35652"><ele>63.0</ele><time>2026-03-28T13:47:17.385Z</time></trkpt><trkpt lat="40.50799" lon="8.356515"><ele>63.0</ele><time>2026-03-28T13:47:18.385Z</time></trkpt><trkpt lat="40.5077433" lon="8.3564983"><ele>61.0</ele><time>2026-03-28T13:47:19.385Z</time></trkpt><trkpt lat="40.5075083" lon="8.356465"><ele>59.0</ele><time>2026-03-28T13:47:20.384Z</time></trkpt><trkpt lat="40.50728" lon="8.3564517"><ele>58.0</ele><time>2026-03-28T13:47:21.385Z</time></trkpt><trkpt lat="40.5070617" lon="8.356445"><ele>57.0</ele><time>2026-03-28T13:47:22.384Z</time></trkpt><trkpt lat="40.50685" lon="8.3564417"><ele>56.0</ele><time>2026-03-28T13:47:23.385Z</time></trkpt><trkpt lat="40.50664" lon="8.3564383"><ele>56.0</ele><time>2026-03-28T13:47:24.385Z</time></trkpt><trkpt lat="40.5064517" lon="8.356435"><ele>56.0</ele><time>2026-03-28T13:47:25.384Z</time></trkpt><trkpt lat="40.5062683" lon="8.3564733"><ele>56.0</ele><time>2026-03-28T13:47:26.385Z</time></trkpt><trkpt lat="40.5060717" lon="8.3565483"><ele>56.333333333333336</ele><time>2026-03-28T13:47:27.385Z</time></trkpt><trkpt lat="40.5058767" lon="8.3566667"><ele>56.66666666666667</ele><time>2026-03-28T13:47:28.385Z</time></trkpt><trkpt lat="40.505675" lon="8.3568033"><ele>57.0</ele><time>2026-03-28T13:47:29.384Z</time></trkpt><trkpt lat="40.5054733" lon="8.3569417"><ele>58.33333333333333</ele><time>2026-03-28T13:47:30.385Z</time></trkpt><trkpt lat="40.505285" lon="8.357095"><ele>59.666666666666664</ele><time>2026-03-28T13:47:31.385Z</time></trkpt><trkpt lat="40.5050883" lon="8.357245"><ele>61.0</ele><time>2026-03-28T13:47:32.384Z</time></trkpt><trkpt lat="40.5048867" lon="8.3573783"><ele>61.0</ele><time>2026-03-28T13:47:33.384Z</time></trkpt><trkpt lat="40.50469" lon="8.3574917"><ele>61.0</ele><time>2026-03-28T13:47:34.385Z</time></trkpt><trkpt lat="40.504485" lon="8.3576017"><ele>61.0</ele><time>2026-03-28T13:47:35.384Z</time></trkpt><trkpt lat="40.504265" lon="8.3576883"><ele>62.5</ele><time>2026-03-28T13:47:36.385Z</time></trkpt><trkpt lat="40.504045" lon="8.357775"><ele>64.0</ele><time>2026-03-28T13:47:37.385Z</time></trkpt><trkpt lat="40.5038317" lon="8.3578633"><ele>64.33333333333333</ele><time>2026-03-28T13:47:38.385Z</time></trkpt><trkpt lat="40.5036283" lon="8.3579367"><ele>64.66666666666667</ele><time>2026-03-28T13:47:39.385Z</time></trkpt><trkpt lat="40.5034317" lon="8.358005"><ele>65.0</ele><time>2026-03-28T13:47:40.384Z</time></trkpt><trkpt lat="40.5032583" lon="8.3580917"><ele>65.0</ele><time>2026-03-28T13:47:41.384Z</time></trkpt><trkpt lat="40.50312" lon="8.358205"><ele>65.0</ele><time>2026-03-28T13:47:42.385Z</time></trkpt><trkpt lat="40.502995" lon="8.3583533"><ele>65.0</ele><time>2026-03-28T13:47:43.384Z</time></trkpt><trkpt lat="40.5028983" lon="8.3585367"><ele>68.33333333333334</ele><time>2026-03-28T13:47:44.385Z</time></trkpt><trkpt lat="40.5028233" lon="8.358745"><ele>71.66666666666667</ele><time>2026-03-28T13:47:45.384Z</time></trkpt><trkpt lat="40.5027433" lon="8.3589933"><ele>75.0</ele><time>2026-03-28T13:47:46.384Z</time></trkpt><trkpt lat="40.50266" lon="8.359225"><ele>75.0</ele><time>2026-03-28T13:47:47.385Z</time></trkpt><trkpt lat="40.5025733" lon="8.3594383"><ele>75.0</ele><time>2026-03-28T13:47:48.385Z</time></trkpt><trkpt lat="40.5024983" lon="8.3596833"><ele>75.0</ele><time>2026-03-28T13:47:49.384Z</time></trkpt><trkpt lat="40.502445" lon="8.3599333"><ele>73.0</ele><time>2026-03-28T13:47:50.385Z</time></trkpt><trkpt lat="40.5024133" lon="8.360195"><ele>71.0</ele><time>2026-03-28T13:47:51.385Z</time></trkpt><trkpt lat="40.5023867" lon="8.3604517"><ele>69.0</ele><time>2026-03-28T13:47:52.385Z</time></trkpt><trkpt lat="40.5023667" lon="8.3607133"><ele>67.33333333333333</ele><time>2026-03-28T13:47:53.384Z</time></trkpt><trkpt lat="40.5023317" lon="8.3609583"><ele>65.66666666666666</ele><time>2026-03-28T13:47:54.385Z</time></trkpt><trkpt lat="40.5022733" lon="8.3612183"><ele>64.0</ele><time>2026-03-28T13:47:55.385Z</time></trkpt><trkpt lat="40.5022083" lon="8.3614767"><ele>62.33333333333333</ele><time>2026-03-28T13:47:56.385Z</time></trkpt><trkpt lat="40.50215" lon="8.3617517"><ele>60.66666666666667</ele><time>2026-03-28T13:47:57.384Z</time></trkpt><trkpt lat="40.5020967" lon="8.3620167"><ele>59.0</ele><time>2026-03-28T13:47:58.385Z</time></trkpt><trkpt lat="40.5020333" lon="8.3622967"><ele>63.0</ele><time>2026-03-28T13:47:59.385Z</time></trkpt><trkpt lat="40.501975" lon="8.3625583"><ele>67.0</ele><time>2026-03-28T13:48:00.385Z</time></trkpt><trkpt lat="40.5019183" lon="8.36283"><ele>71.0</ele><time>2026-03-28T13:48:01.385Z</time></trkpt><trkpt lat="40.5018667" lon="8.36309"><ele>71.0</ele><time>2026-03-28T13:48:02.384Z</time></trkpt><trkpt lat="40.5018183" lon="8.36335"><ele>71.0</ele><time>2026-03-28T13:48:03.385Z</time></trkpt><trkpt lat="40.50176" lon="8.36361"><ele>71.0</ele><time>2026-03-28T13:48:04.385Z</time></trkpt><trkpt lat="40.5016833" lon="8.3638617"><ele>68.66666666666667</ele><time>2026-03-28T13:48:05.385Z</time></trkpt><trkpt lat="40.5016217" lon="8.3641"><ele>66.33333333333333</ele><time>2026-03-28T13:48:06.385Z</time></trkpt><trkpt lat="40.5015617" lon="8.3643283"><ele>64.0</ele><time>2026-03-28T13:48:07.385Z</time></trkpt><trkpt lat="40.5014983" lon="8.3645583"><ele>66.33333333333333</ele><time>2026-03-28T13:48:08.385Z</time></trkpt><trkpt lat="40.501425" lon="8.36479"><ele>68.66666666666667</ele><time>2026-03-28T13:48:09.385Z</time></trkpt><trkpt lat="40.501325" lon="8.3650017"><ele>71.0</ele><time>2026-03-28T13:48:10.384Z</time></trkpt><trkpt lat="40.501195" lon="8.365185"><ele>71.0</ele><time>2026-03-28T13:48:11.385Z</time></trkpt><trkpt lat="40.5010533" lon="8.3653333"><ele>71.0</ele><time>2026-03-28T13:48:12.385Z</time></trkpt><trkpt lat="40.5008917" lon="8.3654717"><ele>71.0</ele><time>2026-03-28T13:48:13.384Z</time></trkpt><trkpt lat="40.5007183" lon="8.3656017"><ele>64.0</ele><time>2026-03-28T13:48:14.385Z</time></trkpt><trkpt lat="40.5005267" lon="8.365725"><ele>57.0</ele><time>2026-03-28T13:48:15.385Z</time></trkpt><trkpt lat="40.5003283" lon="8.36583"><ele>50.0</ele><time>2026-03-28T13:48:16.384Z</time></trkpt><trkpt lat="40.5001533" lon="8.3659517"><ele>50.0</ele><time>2026-03-28T13:48:17.385Z</time></trkpt><trkpt lat="40.499975" lon="8.36607"><ele>50.0</ele><time>2026-03-28T13:48:18.385Z</time></trkpt><trkpt lat="40.499825" lon="8.3661883"><ele>50.0</ele><time>2026-03-28T13:48:19.385Z</time></trkpt><trkpt lat="40.4996967" lon="8.36634"><ele>48.66666666666667</ele><time>2026-03-28T13:48:20.385Z</time></trkpt><trkpt lat="40.4995933" lon="8.3665117"><ele>47.333333333333336</ele><time>2026-03-28T13:48:21.385Z</time></trkpt><trkpt lat="40.4995167" lon="8.3667033"><ele>46.0</ele><time>2026-03-28T13:48:22.385Z</time></trkpt><trkpt lat="40.4994717" lon="8.366915"><ele>46.0</ele><time>2026-03-28T13:48:23.384Z</time></trkpt><trkpt lat="40.4994467" lon="8.367145"><ele>46.0</ele><time>2026-03-28T13:48:24.384Z</time></trkpt><trkpt lat="40.4994133" lon="8.3673633"><ele>46.0</ele><time>2026-03-28T13:48:25.385Z</time></trkpt><trkpt lat="40.49937" lon="8.3675667"><ele>42.0</ele><time>2026-03-28T13:48:26.385Z</time></trkpt><trkpt lat="40.4992867" lon="8.367775"><ele>38.0</ele><time>2026-03-28T13:48:27.385Z</time></trkpt><trkpt lat="40.4991783" lon="8.3679433"><ele>34.0</ele><time>2026-03-28T13:48:28.385Z</time></trkpt><trkpt lat="40.4990583" lon="8.3680617"><ele>28.333333333333336</ele><time>2026-03-28T13:48:29.384Z</time></trkpt><trkpt lat="40.4989083" lon="8.3681117"><ele>22.666666666666668</ele><time>2026-03-28T13:48:30.385Z</time></trkpt><trkpt lat="40.4987483" lon="8.3681183"><ele>17.0</ele><time>2026-03-28T13:48:31.385Z</time></trkpt><trkpt lat="40.498585" lon="8.3680967"><ele>16.0</ele><time>2026-03-28T13:48:32.384Z</time></trkpt><trkpt lat="40.4984217" lon="8.3680267"><ele>15.0</ele><time>2026-03-28T13:48:33.385Z</time></trkpt><trkpt lat="40.4982617" lon="8.367955"><ele>14.0</ele><time>2026-03-28T13:48:34.385Z</time></trkpt><trkpt lat="40.4981083" lon="8.367905"><ele>14.5</ele><time>2026-03-28T13:48:35.385Z</time></trkpt><trkpt lat="40.4979733" lon="8.3679"><ele>15.0</ele><time>2026-03-28T13:48:36.385Z</time></trkpt><trkpt lat="40.4978617" lon="8.36796"><ele>15.5</ele><time>2026-03-28T13:48:37.385Z</time></trkpt><trkpt lat="40.49776" lon="8.36808"><ele>16.0</ele><time>2026-03-28T13:48:38.385Z</time></trkpt><trkpt lat="40.4976833" lon="8.36826"><ele>14.0</ele><time>2026-03-28T13:48:39.385Z</time></trkpt><trkpt lat="40.497645" lon="8.3684633"><ele>12.0</ele><time>2026-03-28T13:48:40.385Z</time></trkpt><trkpt lat="40.4976217" lon="8.36868"><ele>10.0</ele><time>2026-03-28T13:48:41.385Z</time></trkpt><trkpt lat="40.4975933" lon="8.3689267"><ele>9.666666666666668</ele><time>2026-03-28T13:48:42.385Z</time></trkpt><trkpt lat="40.4975633" lon="8.36918"><ele>9.333333333333334</ele><time>2026-03-28T13:48:43.385Z</time></trkpt><trkpt lat="40.4975133" lon="8.3694467"><ele>9.0</ele><time>2026-03-28T13:48:44.385Z</time></trkpt><trkpt lat="40.497475" lon="8.3697017"><ele>10.333333333333332</ele><time>2026-03-28T13:48:45.385Z</time></trkpt><trkpt lat="40.497435" lon="8.369965"><ele>11.666666666666666</ele><time>2026-03-28T13:48:46.385Z</time></trkpt><trkpt lat="40.4973967" lon="8.3702267"><ele>13.0</ele><time>2026-03-28T13:48:47.385Z</time></trkpt><trkpt lat="40.4973533" lon="8.37047"><ele>15.0</ele><time>2026-03-28T13:48:48.385Z</time></trkpt><trkpt lat="40.497305" lon="8.3707017"><ele>17.0</ele><time>2026-03-28T13:48:49.385Z</time></trkpt><trkpt lat="40.4972367" lon="8.37088"><ele>19.0</ele><time>2026-03-28T13:48:50.385Z</time></trkpt><trkpt lat="40.4971433" lon="8.371035"><ele>18.0</ele><time>2026-03-28T13:48:51.384Z</time></trkpt><trkpt lat="40.4970133" lon="8.3711367"><ele>17.0</ele><time>2026-03-28T13:48:52.385Z</time></trkpt><trkpt lat="40.49685" lon="8.3711783"><ele>16.0</ele><time>2026-03-28T13:48:53.385Z</time></trkpt><trkpt lat="40.4966733" lon="8.3712233"><ele>16.0</ele><time>2026-03-28T13:48:54.385Z</time></trkpt><trkpt lat="40.4964817" lon="8.3712683"><ele>16.0</ele><time>2026-03-28T13:48:55.385Z</time></trkpt><trkpt lat="40.4962883" lon="8.371325"><ele>16.0</ele><time>2026-03-28T13:48:56.385Z</time></trkpt><trkpt lat="40.4960933" lon="8.3713967"><ele>17.0</ele><time>2026-03-28T13:48:57.385Z</time></trkpt><trkpt lat="40.4959017" lon="8.3714667"><ele>18.0</ele><time>2026-03-28T13:48:58.384Z</time></trkpt><trkpt lat="40.4957" lon="8.37154"><ele>19.0</ele><time>2026-03-28T13:48:59.385Z</time></trkpt><trkpt lat="40.4955033" lon="8.3716233"><ele>19.333333333333332</ele><time>2026-03-28T13:49:00.385Z</time></trkpt><trkpt lat="40.4953083" lon="8.3717033"><ele>19.666666666666668</ele><time>2026-03-28T13:49:01.385Z</time></trkpt><trkpt lat="40.49512" lon="8.3718033"><ele>20.0</ele><time>2026-03-28T13:49:02.384Z</time></trkpt><trkpt lat="40.4949317" lon="8.3718983"><ele>20.0</ele><time>2026-03-28T13:49:03.384Z</time></trkpt><trkpt lat="40.49474" lon="8.3719983"><ele>20.0</ele><time>2026-03-28T13:49:04.384Z</time></trkpt><trkpt lat="40.4945483" lon="8.3721033"><ele>20.0</ele><time>2026-03-28T13:49:05.385Z</time></trkpt><trkpt lat="40.4943767" lon="8.3722"><ele>22.0</ele><time>2026-03-28T13:49:06.385Z</time></trkpt><trkpt lat="40.4942217" lon="8.37231"><ele>24.0</ele><time>2026-03-28T13:49:07.384Z</time></trkpt><trkpt lat="40.4940733" lon="8.37245"><ele>26.0</ele><time>2026-03-28T13:49:08.385Z</time></trkpt><trkpt lat="40.493935" lon="8.372615"><ele>26.0</ele><time>2026-03-28T13:49:09.385Z</time></trkpt><trkpt lat="40.4938067" lon="8.3728083"><ele>26.0</ele><time>2026-03-28T13:49:10.384Z</time></trkpt><trkpt lat="40.4936767" lon="8.373"><ele>26.0</ele><time>2026-03-28T13:49:11.385Z</time></trkpt><trkpt lat="40.4935333" lon="8.3732133"><ele>27.666666666666664</ele><time>2026-03-28T13:49:12.384Z</time></trkpt><trkpt lat="40.493395" lon="8.3734117"><ele>29.333333333333336</ele><time>2026-03-28T13:49:13.385Z</time></trkpt><trkpt lat="40.4932583" lon="8.373615"><ele>31.0</ele><time>2026-03-28T13:49:14.385Z</time></trkpt><trkpt lat="40.4931383" lon="8.3737683"><ele>33.66666666666667</ele><time>2026-03-28T13:49:15.385Z</time></trkpt><trkpt lat="40.4930033" lon="8.373865"><ele>36.333333333333336</ele><time>2026-03-28T13:49:16.385Z</time></trkpt><trkpt lat="40.4928367" lon="8.3739367"><ele>39.0</ele><time>2026-03-28T13:49:17.385Z</time></trkpt><trkpt lat="40.4926667" lon="8.3739817"><ele>39.0</ele><time>2026-03-28T13:49:18.385Z</time></trkpt><trkpt lat="40.4924883" lon="8.3740117"><ele>39.0</ele><time>2026-03-28T13:49:19.384Z</time></trkpt><trkpt lat="40.49232" lon="8.37405"><ele>39.0</ele><time>2026-03-28T13:49:20.384Z</time></trkpt><trkpt lat="40.4921483" lon="8.374095"><ele>36.666666666666664</ele><time>2026-03-28T13:49:21.385Z</time></trkpt><trkpt lat="40.49198" lon="8.3741833"><ele>34.33333333333333</ele><time>2026-03-28T13:49:22.385Z</time></trkpt><trkpt lat="40.49182" lon="8.3743083"><ele>32.0</ele><time>2026-03-28T13:49:23.385Z</time></trkpt><trkpt lat="40.4916667" lon="8.3744483"><ele>32.0</ele><time>2026-03-28T13:49:24.385Z</time></trkpt><trkpt lat="40.49151" lon="8.3745883"><ele>32.0</ele><time>2026-03-28T13:49:25.385Z</time></trkpt><trkpt lat="40.4913417" lon="8.3747283"><ele>32.0</ele><time>2026-03-28T13:49:26.385Z</time></trkpt><trkpt lat="40.4911817" lon="8.3748583"><ele>35.33333333333333</ele><time>2026-03-28T13:49:27.384Z</time></trkpt><trkpt lat="40.491015" lon="8.3750067"><ele>38.666666666666664</ele><time>2026-03-28T13:49:28.385Z</time></trkpt><trkpt lat="40.49085" lon="8.37516"><ele>42.0</ele><time>2026-03-28T13:49:29.385Z</time></trkpt><trkpt lat="40.4906867" lon="8.3752983"><ele>42.0</ele><time>2026-03-28T13:49:30.385Z</time></trkpt><trkpt lat="40.490555" lon="8.3754267"><ele>42.0</ele><time>2026-03-28T13:49:31.385Z</time></trkpt><trkpt lat="40.4904533" lon="8.37558"><ele>42.0</ele><time>2026-03-28T13:49:32.385Z</time></trkpt><trkpt lat="40.49037" lon="8.37577"><ele>43.0</ele><time>2026-03-28T13:49:33.384Z</time></trkpt><trkpt lat="40.490325" lon="8.37596"><ele>44.0</ele><time>2026-03-28T13:49:34.385Z</time></trkpt><trkpt lat="40.490315" lon="8.3761683"><ele>45.0</ele><time>2026-03-28T13:49:35.385Z</time></trkpt><trkpt lat="40.4903283" lon="8.37639"><ele>45.0</ele><time>2026-03-28T13:49:36.385Z</time></trkpt><trkpt lat="40.4903917" lon="8.3765917"><ele>45.0</ele><time>2026-03-28T13:49:37.385Z</time></trkpt><trkpt lat="40.4904833" lon="8.3768"><ele>45.0</ele><time>2026-03-28T13:49:38.385Z</time></trkpt><trkpt lat="40.4905967" lon="8.3769983"><ele>49.33333333333333</ele><time>2026-03-28T13:49:39.385Z</time></trkpt><trkpt lat="40.490715" lon="8.3772083"><ele>53.666666666666664</ele><time>2026-03-28T13:49:40.385Z</time></trkpt><trkpt lat="40.4908067" lon="8.3774117"><ele>58.0</ele><time>2026-03-28T13:49:41.384Z</time></trkpt><trkpt lat="40.4908617" lon="8.3776217"><ele>58.0</ele><time>2026-03-28T13:49:42.385Z</time></trkpt><trkpt lat="40.490885" lon="8.3778083"><ele>58.0</ele><time>2026-03-28T13:49:43.385Z</time></trkpt><trkpt lat="40.4908517" lon="8.3780017"><ele>58.0</ele><time>2026-03-28T13:49:44.384Z</time></trkpt><trkpt lat="40.490785" lon="8.37818"><ele>58.0</ele><time>2026-03-28T13:49:45.385Z</time></trkpt><trkpt lat="40.4906867" lon="8.3783317"><ele>56.0</ele><time>2026-03-28T13:49:46.385Z</time></trkpt><trkpt lat="40.490545" lon="8.3784567"><ele>54.0</ele><time>2026-03-28T13:49:47.384Z</time></trkpt><trkpt lat="40.4903867" lon="8.3785317"><ele>52.0</ele><time>2026-03-28T13:49:48.384Z</time></trkpt><trkpt lat="40.490205" lon="8.3785483"><ele>52.0</ele><time>2026-03-28T13:49:49.384Z</time></trkpt><trkpt lat="40.490035" lon="8.3785"><ele>52.0</ele><time>2026-03-28T13:49:50.385Z</time></trkpt><trkpt lat="40.4898817" lon="8.37839"><ele>52.0</ele><time>2026-03-28T13:49:51.385Z</time></trkpt><trkpt lat="40.4897483" lon="8.37825"><ele>52.0</ele><time>2026-03-28T13:49:52.385Z</time></trkpt><trkpt lat="40.4896317" lon="8.37807"><ele>52.0</ele><time>2026-03-28T13:49:53.384Z</time></trkpt><trkpt lat="40.4895267" lon="8.3779033"><ele>52.0</ele><time>2026-03-28T13:49:54.384Z</time></trkpt><trkpt lat="40.4894183" lon="8.3777683"><ele>50.5</ele><time>2026-03-28T13:49:55.385Z</time></trkpt><trkpt lat="40.489345" lon="8.3776383"><ele>49.0</ele><time>2026-03-28T13:49:56.385Z</time></trkpt><trkpt lat="40.4893083" lon="8.3774867"><ele>47.5</ele><time>2026-03-28T13:49:57.385Z</time></trkpt><trkpt lat="40.4892867" lon="8.3773333"><ele>46.0</ele><time>2026-03-28T13:49:58.385Z</time></trkpt><trkpt lat="40.4892667" lon="8.3771733"><ele>44.199999999999996</ele><time>2026-03-28T13:49:59.385Z</time></trkpt><trkpt lat="40.4892567" lon="8.377015"><ele>42.4</ele><time>2026-03-28T13:50:00.385Z</time></trkpt><trkpt lat="40.4892367" lon="8.3768783"><ele>40.6</ele><time>2026-03-28T13:50:01.384Z</time></trkpt><trkpt lat="40.4892083" lon="8.376745"><ele>38.8</ele><time>2026-03-28T13:50:02.385Z</time></trkpt><trkpt lat="40.4891917" lon="8.3766117"><ele>37.0</ele><time>2026-03-28T13:50:03.385Z</time></trkpt><trkpt lat="40.48917" lon="8.3764683"><ele>35.25</ele><time>2026-03-28T13:50:04.385Z</time></trkpt><trkpt lat="40.4891283" lon="8.3763167"><ele>33.5</ele><time>2026-03-28T13:50:05.385Z</time></trkpt><trkpt lat="40.4890683" lon="8.3761717"><ele>31.75</ele><time>2026-03-28T13:50:06.385Z</time></trkpt><trkpt lat="40.4889817" lon="8.3760433"><ele>30.0</ele><time>2026-03-28T13:50:07.385Z</time></trkpt><trkpt lat="40.4888683" lon="8.375945"><ele>29.5</ele><time>2026-03-28T13:50:08.385Z</time></trkpt><trkpt lat="40.4887367" lon="8.3758767"><ele>29.0</ele><time>2026-03-28T13:50:09.385Z</time></trkpt><trkpt lat="40.4886017" lon="8.37585"><ele>28.5</ele><time>2026-03-28T13:50:10.384Z</time></trkpt><trkpt lat="40.488475" lon="8.375855"><ele>28.0</ele><time>2026-03-28T13:50:11.384Z</time></trkpt><trkpt lat="40.4883417" lon="8.375905"><ele>28.0</ele><time>2026-03-28T13:50:12.385Z</time></trkpt><trkpt lat="40.4882067" lon="8.375975"><ele>28.0</ele><time>2026-03-28T13:50:13.385Z</time></trkpt><trkpt lat="40.488085" lon="8.376055"><ele>28.0</ele><time>2026-03-28T13:50:14.385Z</time></trkpt><trkpt lat="40.4879717" lon="8.376145"><ele>28.0</ele><time>2026-03-28T13:50:15.385Z</time></trkpt><trkpt lat="40.4878583" lon="8.3762333"><ele>29.75</ele><time>2026-03-28T13:50:16.384Z</time></trkpt><trkpt lat="40.4877533" lon="8.37633"><ele>31.5</ele><time>2026-03-28T13:50:17.384Z</time></trkpt><trkpt lat="40.4876467" lon="8.3764167"><ele>33.25</ele><time>2026-03-28T13:50:18.385Z</time></trkpt><trkpt lat="40.4875467" lon="8.3765067"><ele>35.0</ele><time>2026-03-28T13:50:19.385Z</time></trkpt><trkpt lat="40.4874533" lon="8.37661"><ele>35.0</ele><time>2026-03-28T13:50:20.385Z</time></trkpt><trkpt lat="40.48736" lon="8.37671"><ele>35.0</ele><time>2026-03-28T13:50:21.385Z</time></trkpt><trkpt lat="40.4872833" lon="8.37682"><ele>35.0</ele><time>2026-03-28T13:50:22.385Z</time></trkpt><trkpt lat="40.4872083" lon="8.37694"><ele>35.0</ele><time>2026-03-28T13:50:23.384Z</time></trkpt><trkpt lat="40.4871417" lon="8.3770767"><ele>33.75</ele><time>2026-03-28T13:50:24.385Z</time></trkpt><trkpt lat="40.487085" lon="8.3772333"><ele>32.5</ele><time>2026-03-28T13:50:25.385Z</time></trkpt><trkpt lat="40.4870367" lon="8.3774017"><ele>31.25</ele><time>2026-03-28T13:50:26.385Z</time></trkpt><trkpt lat="40.4869983" lon="8.3775633"><ele>30.0</ele><time>2026-03-28T13:50:27.385Z</time></trkpt><trkpt lat="40.4869633" lon="8.377715"><ele>30.0</ele><time>2026-03-28T13:50:28.385Z</time></trkpt><trkpt lat="40.486925" lon="8.3778683"><ele>30.0</ele><time>2026-03-28T13:50:29.384Z</time></trkpt><trkpt lat="40.4868717" lon="8.3780083"><ele>30.0</ele><time>2026-03-28T13:50:30.385Z</time></trkpt><trkpt lat="40.4867883" lon="8.3781383"><ele>30.0</ele><time>2026-03-28T13:50:31.383Z</time></trkpt><trkpt lat="40.4866833" lon="8.3782233"><ele>32.0</ele><time>2026-03-28T13:50:32.384Z</time></trkpt><trkpt lat="40.486575" lon="8.3782833"><ele>34.0</ele><time>2026-03-28T13:50:33.384Z</time></trkpt><trkpt lat="40.4864567" lon="8.3783467"><ele>36.0</ele><time>2026-03-28T13:50:34.383Z</time></trkpt><trkpt lat="40.4863467" lon="8.3784033"><ele>38.0</ele><time>2026-03-28T13:50:35.384Z</time></trkpt><trkpt lat="40.48622" lon="8.3784333"><ele>38.5</ele><time>2026-03-28T13:50:36.384Z</time></trkpt><trkpt lat="40.4860883" lon="8.3784617"><ele>39.0</ele><time>2026-03-28T13:50:37.383Z</time></trkpt><trkpt lat="40.48594" lon="8.3784733"><ele>39.5</ele><time>2026-03-28T13:50:38.384Z</time></trkpt><trkpt lat="40.4858033" lon="8.3784433"><ele>40.0</ele><time>2026-03-28T13:50:39.384Z</time></trkpt><trkpt lat="40.4856717" lon="8.3783667"><ele>40.0</ele><time>2026-03-28T13:50:40.384Z</time></trkpt><trkpt lat="40.4855583" lon="8.37826"><ele>40.0</ele><time>2026-03-28T13:50:41.383Z</time></trkpt><trkpt lat="40.4854717" lon="8.3781167"><ele>40.0</ele><time>2026-03-28T13:50:42.384Z</time></trkpt><trkpt lat="40.4854" lon="8.3779683"><ele>40.0</ele><time>2026-03-28T13:50:43.384Z</time></trkpt><trkpt lat="40.48533" lon="8.377815"><ele>39.25</ele><time>2026-03-28T13:50:44.384Z</time></trkpt><trkpt lat="40.4852683" lon="8.37768"><ele>38.5</ele><time>2026-03-28T13:50:45.384Z</time></trkpt><trkpt lat="40.4851933" lon="8.37755"><ele>37.75</ele><time>2026-03-28T13:50:46.384Z</time></trkpt><trkpt lat="40.485115" lon="8.377445"><ele>37.0</ele><time>2026-03-28T13:50:47.383Z</time></trkpt><trkpt lat="40.4850233" lon="8.3773517"><ele>37.0</ele><time>2026-03-28T13:50:48.383Z</time></trkpt><trkpt lat="40.4849233" lon="8.3772783"><ele>37.0</ele><time>2026-03-28T13:50:49.383Z</time></trkpt><trkpt lat="40.4848233" lon="8.3772233"><ele>37.0</ele><time>2026-03-28T13:50:50.383Z</time></trkpt><trkpt lat="40.4847183" lon="8.3771767"><ele>37.0</ele><time>2026-03-28T13:50:51.384Z</time></trkpt><trkpt lat="40.4846" lon="8.3771433"><ele>36.75</ele><time>2026-03-28T13:50:52.384Z</time></trkpt><trkpt lat="40.484485" lon="8.3771367"><ele>36.5</ele><time>2026-03-28T13:50:53.384Z</time></trkpt><trkpt lat="40.484365" lon="8.3771483"><ele>36.25</ele><time>2026-03-28T13:50:54.384Z</time></trkpt><trkpt lat="40.48423" lon="8.3771983"><ele>36.0</ele><time>2026-03-28T13:50:55.383Z</time></trkpt><trkpt lat="40.4840833" lon="8.37728"><ele>36.0</ele><time>2026-03-28T13:50:56.384Z</time></trkpt><trkpt lat="40.4839267" lon="8.37738"><ele>36.0</ele><time>2026-03-28T13:50:57.384Z</time></trkpt><trkpt lat="40.4837617" lon="8.3774883"><ele>36.0</ele><time>2026-03-28T13:50:58.383Z</time></trkpt><trkpt lat="40.483595" lon="8.3775983"><ele>36.333333333333336</ele><time>2026-03-28T13:50:59.383Z</time></trkpt><trkpt lat="40.4834183" lon="8.3777017"><ele>36.66666666666667</ele><time>2026-03-28T13:51:00.384Z</time></trkpt><trkpt lat="40.4832383" lon="8.3777867"><ele>37.0</ele><time>2026-03-28T13:51:01.384Z</time></trkpt><trkpt lat="40.483055" lon="8.3778633"><ele>36.0</ele><time>2026-03-28T13:51:02.383Z</time></trkpt><trkpt lat="40.4828783" lon="8.3779083"><ele>35.0</ele><time>2026-03-28T13:51:03.384Z</time></trkpt><trkpt lat="40.4827" lon="8.3779333"><ele>34.0</ele><time>2026-03-28T13:51:04.384Z</time></trkpt><trkpt lat="40.4825033" lon="8.3779183"><ele>34.0</ele><time>2026-03-28T13:51:05.384Z</time></trkpt><trkpt lat="40.4823033" lon="8.3778967"><ele>34.0</ele><time>2026-03-28T13:51:06.384Z</time></trkpt><trkpt lat="40.4820883" lon="8.3778683"><ele>34.0</ele><time>2026-03-28T13:51:07.383Z</time></trkpt><trkpt lat="40.4818683" lon="8.3778333"><ele>32.66666666666667</ele><time>2026-03-28T13:51:08.384Z</time></trkpt><trkpt lat="40.4816667" lon="8.3777917"><ele>31.333333333333336</ele><time>2026-03-28T13:51:09.383Z</time></trkpt><trkpt lat="40.4814783" lon="8.3777717"><ele>30.0</ele><time>2026-03-28T13:51:10.383Z</time></trkpt><trkpt lat="40.481275" lon="8.3777333"><ele>29.333333333333336</ele><time>2026-03-28T13:51:11.384Z</time></trkpt><trkpt lat="40.4810867" lon="8.3777"><ele>28.666666666666668</ele><time>2026-03-28T13:51:12.384Z</time></trkpt><trkpt lat="40.4808983" lon="8.3776717"><ele>28.0</ele><time>2026-03-28T13:51:13.384Z</time></trkpt><trkpt lat="40.4807183" lon="8.3776433"><ele>28.0</ele><time>2026-03-28T13:51:14.384Z</time></trkpt><trkpt lat="40.4805317" lon="8.3776367"><ele>28.0</ele><time>2026-03-28T13:51:15.384Z</time></trkpt><trkpt lat="40.4803433" lon="8.3776567"><ele>28.0</ele><time>2026-03-28T13:51:16.384Z</time></trkpt><trkpt lat="40.4801567" lon="8.3776967"><ele>29.0</ele><time>2026-03-28T13:51:17.383Z</time></trkpt><trkpt lat="40.479965" lon="8.3777267"><ele>30.0</ele><time>2026-03-28T13:51:18.383Z</time></trkpt><trkpt lat="40.4797533" lon="8.37778"><ele>31.0</ele><time>2026-03-28T13:51:19.384Z</time></trkpt><trkpt lat="40.4795433" lon="8.3778567"><ele>31.0</ele><time>2026-03-28T13:51:20.384Z</time></trkpt><trkpt lat="40.4793467" lon="8.3779367"><ele>31.0</ele><time>2026-03-28T13:51:21.384Z</time></trkpt><trkpt lat="40.47915" lon="8.3780067"><ele>31.0</ele><time>2026-03-28T13:51:22.383Z</time></trkpt><trkpt lat="40.4789667" lon="8.3780817"><ele>34.66666666666667</ele><time>2026-03-28T13:51:23.383Z</time></trkpt><trkpt lat="40.4787817" lon="8.3781667"><ele>38.333333333333336</ele><time>2026-03-28T13:51:24.383Z</time></trkpt><trkpt lat="40.47861" lon="8.3782817"><ele>42.0</ele><time>2026-03-28T13:51:25.384Z</time></trkpt><trkpt lat="40.4784467" lon="8.3784333"><ele>42.0</ele><time>2026-03-28T13:51:26.383Z</time></trkpt><trkpt lat="40.4782833" lon="8.378595"><ele>42.0</ele><time>2026-03-28T13:51:27.383Z</time></trkpt><trkpt lat="40.4781217" lon="8.3787783"><ele>42.0</ele><time>2026-03-28T13:51:28.383Z</time></trkpt><trkpt lat="40.4779667" lon="8.378955"><ele>44.0</ele><time>2026-03-28T13:51:29.384Z</time></trkpt><trkpt lat="40.4778017" lon="8.37915"><ele>46.0</ele><time>2026-03-28T13:51:30.383Z</time></trkpt><trkpt lat="40.4776467" lon="8.3793333"><ele>48.0</ele><time>2026-03-28T13:51:31.383Z</time></trkpt><trkpt lat="40.4775033" lon="8.379495"><ele>48.0</ele><time>2026-03-28T13:51:32.384Z</time></trkpt><trkpt lat="40.4773517" lon="8.3796583"><ele>48.0</ele><time>2026-03-28T13:51:33.384Z</time></trkpt><trkpt lat="40.4771933" lon="8.3797883"><ele>48.0</ele><time>2026-03-28T13:51:34.383Z</time></trkpt><trkpt lat="40.4770233" lon="8.3799117"><ele>48.66666666666667</ele><time>2026-03-28T13:51:35.384Z</time></trkpt><trkpt lat="40.4768433" lon="8.3799717"><ele>49.333333333333336</ele><time>2026-03-28T13:51:36.384Z</time></trkpt><trkpt lat="40.4766517" lon="8.3799833"><ele>50.0</ele><time>2026-03-28T13:51:37.384Z</time></trkpt><trkpt lat="40.4764617" lon="8.379995"><ele>50.0</ele><time>2026-03-28T13:51:38.384Z</time></trkpt><trkpt lat="40.4762717" lon="8.3800167"><ele>50.0</ele><time>2026-03-28T13:51:39.384Z</time></trkpt><trkpt lat="40.476085" lon="8.3800617"><ele>50.0</ele><time>2026-03-28T13:51:40.383Z</time></trkpt><trkpt lat="40.4758983" lon="8.3801417"><ele>50.333333333333336</ele><time>2026-03-28T13:51:41.384Z</time></trkpt><trkpt lat="40.475735" lon="8.3802633"><ele>50.66666666666667</ele><time>2026-03-28T13:51:42.384Z</time></trkpt><trkpt lat="40.4755717" lon="8.3804183"><ele>51.0</ele><time>2026-03-28T13:51:43.384Z</time></trkpt><trkpt lat="40.475425" lon="8.380565"><ele>51.0</ele><time>2026-03-28T13:51:44.384Z</time></trkpt><trkpt lat="40.4752667" lon="8.380705"><ele>51.0</ele><time>2026-03-28T13:51:45.384Z</time></trkpt><trkpt lat="40.4750833" lon="8.3808167"><ele>51.0</ele><time>2026-03-28T13:51:46.384Z</time></trkpt><trkpt lat="40.4749067" lon="8.3809"><ele>51.0</ele><time>2026-03-28T13:51:47.384Z</time></trkpt><trkpt lat="40.4747133" lon="8.3809717"><ele>51.0</ele><time>2026-03-28T13:51:48.384Z</time></trkpt><trkpt lat="40.4745183" lon="8.381025"><ele>51.0</ele><time>2026-03-28T13:51:49.384Z</time></trkpt><trkpt lat="40.4743133" lon="8.3810733"><ele>49.0</ele><time>2026-03-28T13:51:50.383Z</time></trkpt><trkpt lat="40.4740883" lon="8.3811267"><ele>47.0</ele><time>2026-03-28T13:51:51.384Z</time></trkpt><trkpt lat="40.4738633" lon="8.3811817"><ele>45.33333333333333</ele><time>2026-03-28T13:51:52.384Z</time></trkpt><trkpt lat="40.4736567" lon="8.3811767"><ele>43.666666666666664</ele><time>2026-03-28T13:51:53.384Z</time></trkpt><trkpt lat="40.4734483" lon="8.381115"><ele>42.0</ele><time>2026-03-28T13:51:54.383Z</time></trkpt><trkpt lat="40.4732533" lon="8.3810583"><ele>42.0</ele><time>2026-03-28T13:51:55.384Z</time></trkpt><trkpt lat="40.4730633" lon="8.3810133"><ele>42.0</ele><time>2026-03-28T13:51:56.384Z</time></trkpt><trkpt lat="40.4728733" lon="8.3810083"><ele>42.0</ele><time>2026-03-28T13:51:57.384Z</time></trkpt><trkpt lat="40.472665" lon="8.38102"><ele>41.0</ele><time>2026-03-28T13:51:58.384Z</time></trkpt><trkpt lat="40.47247" lon="8.3810483"><ele>40.0</ele><time>2026-03-28T13:51:59.384Z</time></trkpt><trkpt lat="40.4722667" lon="8.3811017"><ele>39.0</ele><time>2026-03-28T13:52:00.384Z</time></trkpt><trkpt lat="40.472065" lon="8.3811483"><ele>36.666666666666664</ele><time>2026-03-28T13:52:01.383Z</time></trkpt><trkpt lat="40.47187" lon="8.381205"><ele>34.33333333333333</ele><time>2026-03-28T13:52:02.384Z</time></trkpt><trkpt lat="40.4716583" lon="8.38124"><ele>32.0</ele><time>2026-03-28T13:52:03.383Z</time></trkpt><trkpt lat="40.4714667" lon="8.3812717"><ele>31.333333333333332</ele><time>2026-03-28T13:52:04.384Z</time></trkpt><trkpt lat="40.4712717" lon="8.3813167"><ele>30.666666666666664</ele><time>2026-03-28T13:52:05.384Z</time></trkpt><trkpt lat="40.47111" lon="8.381385"><ele>30.0</ele><time>2026-03-28T13:52:06.384Z</time></trkpt><trkpt lat="40.470955" lon="8.381485"><ele>38.33333333333333</ele><time>2026-03-28T13:52:07.384Z</time></trkpt><trkpt lat="40.4708067" lon="8.3816117"><ele>46.666666666666664</ele><time>2026-03-28T13:52:08.384Z</time></trkpt><trkpt lat="40.4706583" lon="8.38173"><ele>55.0</ele><time>2026-03-28T13:52:09.384Z</time></trkpt><trkpt lat="40.470495" lon="8.3818033"><ele>54.75</ele><time>2026-03-28T13:52:10.384Z</time></trkpt><trkpt lat="40.4703417" lon="8.381835"><ele>54.5</ele><time>2026-03-28T13:52:11.384Z</time></trkpt><trkpt lat="40.4702117" lon="8.381845"><ele>54.25</ele><time>2026-03-28T13:52:12.384Z</time></trkpt><trkpt lat="40.4700967" lon="8.3817917"><ele>54.0</ele><time>2026-03-28T13:52:13.383Z</time></trkpt><trkpt lat="40.469995" lon="8.3816833"><ele>54.0</ele><time>2026-03-28T13:52:14.384Z</time></trkpt><trkpt lat="40.4699267" lon="8.3814883"><ele>54.0</ele><time>2026-03-28T13:52:15.384Z</time></trkpt><trkpt lat="40.4698817" lon="8.38131"><ele>54.0</ele><time>2026-03-28T13:52:16.384Z</time></trkpt><trkpt lat="40.4698083" lon="8.381135"><ele>47.333333333333336</ele><time>2026-03-28T13:52:17.383Z</time></trkpt><trkpt lat="40.4697117" lon="8.3809917"><ele>40.66666666666667</ele><time>2026-03-28T13:52:18.383Z</time></trkpt><trkpt lat="40.4695883" lon="8.3808717"><ele>34.0</ele><time>2026-03-28T13:52:19.384Z</time></trkpt><trkpt lat="40.4694417" lon="8.3807967"><ele>34.0</ele><time>2026-03-28T13:52:20.384Z</time></trkpt><trkpt lat="40.469275" lon="8.3807717"><ele>34.0</ele><time>2026-03-28T13:52:21.384Z</time></trkpt><trkpt lat="40.4691067" lon="8.3807817"><ele>34.0</ele><time>2026-03-28T13:52:22.384Z</time></trkpt><trkpt lat="40.4689483" lon="8.38084"><ele>34.0</ele><time>2026-03-28T13:52:23.384Z</time></trkpt><trkpt lat="40.4687833" lon="8.38095"><ele>34.0</ele><time>2026-03-28T13:52:24.384Z</time></trkpt><trkpt lat="40.4686367" lon="8.3810967"><ele>34.0</ele><time>2026-03-28T13:52:25.383Z</time></trkpt><trkpt lat="40.4685033" lon="8.3812667"><ele>36.66666666666667</ele><time>2026-03-28T13:52:26.384Z</time></trkpt><trkpt lat="40.4683883" lon="8.3814567"><ele>39.333333333333336</ele><time>2026-03-28T13:52:27.383Z</time></trkpt><trkpt lat="40.4682817" lon="8.38168"><ele>42.0</ele><time>2026-03-28T13:52:28.384Z</time></trkpt><trkpt lat="40.4681867" lon="8.3819183"><ele>42.0</ele><time>2026-03-28T13:52:29.384Z</time></trkpt><trkpt lat="40.4680917" lon="8.3821383"><ele>42.0</ele><time>2026-03-28T13:52:30.384Z</time></trkpt><trkpt lat="40.4679833" lon="8.3823583"><ele>42.0</ele><time>2026-03-28T13:52:31.384Z</time></trkpt><trkpt lat="40.4678633" lon="8.3825317"><ele>41.0</ele><time>2026-03-28T13:52:32.384Z</time></trkpt><trkpt lat="40.467715" lon="8.38268"><ele>40.0</ele><time>2026-03-28T13:52:33.384Z</time></trkpt><trkpt lat="40.4675467" lon="8.3828367"><ele>39.0</ele><time>2026-03-28T13:52:34.384Z</time></trkpt><trkpt lat="40.4673667" lon="8.3829917"><ele>38.666666666666664</ele><time>2026-03-28T13:52:35.384Z</time></trkpt><trkpt lat="40.4671933" lon="8.3831517"><ele>38.33333333333333</ele><time>2026-03-28T13:52:36.384Z</time></trkpt><trkpt lat="40.4670367" lon="8.3833067"><ele>38.0</ele><time>2026-03-28T13:52:37.384Z</time></trkpt><trkpt lat="40.4669017" lon="8.3834917"><ele>38.0</ele><time>2026-03-28T13:52:38.383Z</time></trkpt><trkpt lat="40.4667633" lon="8.3837"><ele>38.0</ele><time>2026-03-28T13:52:39.384Z</time></trkpt><trkpt lat="40.46663" lon="8.3839083"><ele>38.0</ele><time>2026-03-28T13:52:40.384Z</time></trkpt><trkpt lat="40.4664983" lon="8.3841283"><ele>37.0</ele><time>2026-03-28T13:52:41.384Z</time></trkpt><trkpt lat="40.4663683" lon="8.3843317"><ele>36.0</ele><time>2026-03-28T13:52:42.384Z</time></trkpt><trkpt lat="40.4662367" lon="8.3845367"><ele>35.0</ele><time>2026-03-28T13:52:43.384Z</time></trkpt><trkpt lat="40.4660917" lon="8.3846883"><ele>42.666666666666664</ele><time>2026-03-28T13:52:44.384Z</time></trkpt><trkpt lat="40.46592" lon="8.3848233"><ele>50.33333333333333</ele><time>2026-03-28T13:52:45.383Z</time></trkpt><trkpt lat="40.465745" lon="8.384955"><ele>58.0</ele><time>2026-03-28T13:52:46.384Z</time></trkpt><trkpt lat="40.46556" lon="8.3850583"><ele>56.0</ele><time>2026-03-28T13:52:47.383Z</time></trkpt><trkpt lat="40.465375" lon="8.3851483"><ele>54.0</ele><time>2026-03-28T13:52:48.384Z</time></trkpt><trkpt lat="40.46518" lon="8.3852317"><ele>52.0</ele><time>2026-03-28T13:52:49.383Z</time></trkpt><trkpt lat="40.464975" lon="8.3852933"><ele>52.0</ele><time>2026-03-28T13:52:50.384Z</time></trkpt><trkpt lat="40.4647767" lon="8.3853717"><ele>52.0</ele><time>2026-03-28T13:52:51.384Z</time></trkpt><trkpt lat="40.464565" lon="8.3854233"><ele>52.0</ele><time>2026-03-28T13:52:52.384Z</time></trkpt><trkpt lat="40.4643617" lon="8.38547"><ele>57.0</ele><time>2026-03-28T13:52:53.383Z</time></trkpt><trkpt lat="40.4641583" lon="8.3855233"><ele>62.0</ele><time>2026-03-28T13:52:54.384Z</time></trkpt><trkpt lat="40.4639483" lon="8.3855867"><ele>67.0</ele><time>2026-03-28T13:52:55.384Z</time></trkpt><trkpt lat="40.463735" lon="8.3856483"><ele>67.0</ele><time>2026-03-28T13:52:56.384Z</time></trkpt><trkpt lat="40.46352" lon="8.3857"><ele>67.0</ele><time>2026-03-28T13:52:57.384Z</time></trkpt><trkpt lat="40.4633033" lon="8.3857417"><ele>67.0</ele><time>2026-03-28T13:52:58.384Z</time></trkpt><trkpt lat="40.463075" lon="8.3857867"><ele>67.0</ele><time>2026-03-28T13:52:59.384Z</time></trkpt><trkpt lat="40.4628417" lon="8.3858067"><ele>67.0</ele><time>2026-03-28T13:53:00.383Z</time></trkpt><trkpt lat="40.4626133" lon="8.38581"><ele>67.0</ele><time>2026-03-28T13:53:01.384Z</time></trkpt><trkpt lat="40.46238" lon="8.3858083"><ele>67.0</ele><time>2026-03-28T13:53:02.384Z</time></trkpt><trkpt lat="40.46215" lon="8.3857883"><ele>65.66666666666666</ele><time>2026-03-28T13:53:03.384Z</time></trkpt><trkpt lat="40.461925" lon="8.3857667"><ele>64.33333333333333</ele><time>2026-03-28T13:53:04.384Z</time></trkpt><trkpt lat="40.4617217" lon="8.3857683"><ele>63.0</ele><time>2026-03-28T13:53:05.384Z</time></trkpt><trkpt lat="40.461545" lon="8.38578"><ele>63.0</ele><time>2026-03-28T13:53:06.384Z</time></trkpt><trkpt lat="40.461385" lon="8.3857883"><ele>63.0</ele><time>2026-03-28T13:53:07.384Z</time></trkpt><trkpt lat="40.4612317" lon="8.38583"><ele>63.0</ele><time>2026-03-28T13:53:08.384Z</time></trkpt><trkpt lat="40.4610817" lon="8.3859283"><ele>62.75</ele><time>2026-03-28T13:53:09.384Z</time></trkpt><trkpt lat="40.4609567" lon="8.3860533"><ele>62.5</ele><time>2026-03-28T13:53:10.384Z</time></trkpt><trkpt lat="40.4608417" lon="8.3861633"><ele>62.25</ele><time>2026-03-28T13:53:11.384Z</time></trkpt><trkpt lat="40.4607133" lon="8.38625"><ele>62.0</ele><time>2026-03-28T13:53:12.383Z</time></trkpt><trkpt lat="40.4605783" lon="8.38627"><ele>64.66666666666667</ele><time>2026-03-28T13:53:13.383Z</time></trkpt><trkpt lat="40.46044" lon="8.3862183"><ele>67.33333333333333</ele><time>2026-03-28T13:53:14.384Z</time></trkpt><trkpt lat="40.46032" lon="8.3860783"><ele>70.0</ele><time>2026-03-28T13:53:15.384Z</time></trkpt><trkpt lat="40.4601933" lon="8.38594"><ele>70.0</ele><time>2026-03-28T13:53:16.384Z</time></trkpt><trkpt lat="40.460055" lon="8.3858083"><ele>70.0</ele><time>2026-03-28T13:53:17.383Z</time></trkpt><trkpt lat="40.4599033" lon="8.3857333"><ele>70.0</ele><time>2026-03-28T13:53:18.383Z</time></trkpt><trkpt lat="40.4597217" lon="8.3857"><ele>71.0</ele><time>2026-03-28T13:53:19.384Z</time></trkpt><trkpt lat="40.459545" lon="8.3856717"><ele>72.0</ele><time>2026-03-28T13:53:20.384Z</time></trkpt><trkpt lat="40.459365" lon="8.385645"><ele>73.0</ele><time>2026-03-28T13:53:21.384Z</time></trkpt><trkpt lat="40.4592" lon="8.3856383"><ele>73.0</ele><time>2026-03-28T13:53:22.383Z</time></trkpt><trkpt lat="40.45906" lon="8.3856417"><ele>73.0</ele><time>2026-03-28T13:53:23.384Z</time></trkpt><trkpt lat="40.45891" lon="8.3856967"><ele>73.0</ele><time>2026-03-28T13:53:24.384Z</time></trkpt><trkpt lat="40.4587467" lon="8.38582"><ele>67.66666666666666</ele><time>2026-03-28T13:53:25.384Z</time></trkpt><trkpt lat="40.45859" lon="8.38597"><ele>62.33333333333333</ele><time>2026-03-28T13:53:26.384Z</time></trkpt><trkpt lat="40.4584217" lon="8.38611"><ele>57.0</ele><time>2026-03-28T13:53:27.384Z</time></trkpt><trkpt lat="40.45824" lon="8.3862217"><ele>57.0</ele><time>2026-03-28T13:53:28.384Z</time></trkpt><trkpt lat="40.4580533" lon="8.386325"><ele>57.0</ele><time>2026-03-28T13:53:29.384Z</time></trkpt><trkpt lat="40.4578567" lon="8.38637"><ele>57.0</ele><time>2026-03-28T13:53:30.384Z</time></trkpt><trkpt lat="40.4576517" lon="8.38639"><ele>61.66666666666667</ele><time>2026-03-28T13:53:31.383Z</time></trkpt><trkpt lat="40.4574467" lon="8.386415"><ele>66.33333333333334</ele><time>2026-03-28T13:53:32.383Z</time></trkpt><trkpt lat="40.4572433" lon="8.3864417"><ele>71.0</ele><time>2026-03-28T13:53:33.384Z</time></trkpt><trkpt lat="40.457045" lon="8.386495"><ele>71.0</ele><time>2026-03-28T13:53:34.384Z</time></trkpt><trkpt lat="40.456835" lon="8.3865467"><ele>71.0</ele><time>2026-03-28T13:53:35.383Z</time></trkpt><trkpt lat="40.456635" lon="8.3866117"><ele>71.0</ele><time>2026-03-28T13:53:36.384Z</time></trkpt><trkpt lat="40.4564283" lon="8.386695"><ele>69.66666666666667</ele><time>2026-03-28T13:53:37.384Z</time></trkpt><trkpt lat="40.4562117" lon="8.3867867"><ele>68.33333333333333</ele><time>2026-03-28T13:53:38.383Z</time></trkpt><trkpt lat="40.45602" lon="8.3868767"><ele>67.0</ele><time>2026-03-28T13:53:39.383Z</time></trkpt><trkpt lat="40.45581" lon="8.3869683"><ele>67.0</ele><time>2026-03-28T13:53:40.384Z</time></trkpt><trkpt lat="40.4556" lon="8.387045"><ele>67.0</ele><time>2026-03-28T13:53:41.384Z</time></trkpt><trkpt lat="40.4553933" lon="8.38712"><ele>67.0</ele><time>2026-03-28T13:53:42.384Z</time></trkpt><trkpt lat="40.4551733" lon="8.3871867"><ele>70.66666666666666</ele><time>2026-03-28T13:53:43.384Z</time></trkpt><trkpt lat="40.4549633" lon="8.387255"><ele>74.33333333333333</ele><time>2026-03-28T13:53:44.384Z</time></trkpt><trkpt lat="40.45476" lon="8.3873467"><ele>78.0</ele><time>2026-03-28T13:53:45.384Z</time></trkpt><trkpt lat="40.454555" lon="8.3874133"><ele>78.0</ele><time>2026-03-28T13:53:46.384Z</time></trkpt><trkpt lat="40.454375" lon="8.3874717"><ele>78.0</ele><time>2026-03-28T13:53:47.384Z</time></trkpt><trkpt lat="40.4542083" lon="8.387535"><ele>78.0</ele><time>2026-03-28T13:53:48.384Z</time></trkpt><trkpt lat="40.45406" lon="8.3876117"><ele>78.0</ele><time>2026-03-28T13:53:49.384Z</time></trkpt><trkpt lat="40.4539283" lon="8.3877617"><ele>78.0</ele><time>2026-03-28T13:53:50.384Z</time></trkpt><trkpt lat="40.4537967" lon="8.387955"><ele>78.0</ele><time>2026-03-28T13:53:51.384Z</time></trkpt><trkpt lat="40.4536733" lon="8.3881517"><ele>81.33333333333333</ele><time>2026-03-28T13:53:52.384Z</time></trkpt><trkpt lat="40.453545" lon="8.3883383"><ele>84.66666666666666</ele><time>2026-03-28T13:53:53.384Z</time></trkpt><trkpt lat="40.4534017" lon="8.3885"><ele>88.0</ele><time>2026-03-28T13:53:54.384Z</time></trkpt><trkpt lat="40.4532367" lon="8.3886333"><ele>88.0</ele><time>2026-03-28T13:53:55.384Z</time></trkpt><trkpt lat="40.4530467" lon="8.388745"><ele>88.0</ele><time>2026-03-28T13:53:56.383Z</time></trkpt><trkpt lat="40.452845" lon="8.3888233"><ele>88.0</ele><time>2026-03-28T13:53:57.384Z</time></trkpt><trkpt lat="40.452665" lon="8.3888583"><ele>85.66666666666666</ele><time>2026-03-28T13:53:58.384Z</time></trkpt><trkpt lat="40.45248" lon="8.3888383"><ele>83.33333333333333</ele><time>2026-03-28T13:53:59.383Z</time></trkpt><trkpt lat="40.4522983" lon="8.38879"><ele>81.0</ele><time>2026-03-28T13:54:00.383Z</time></trkpt><trkpt lat="40.45214" lon="8.3887567"><ele>83.0</ele><time>2026-03-28T13:54:01.383Z</time></trkpt><trkpt lat="40.4520017" lon="8.3887417"><ele>85.0</ele><time>2026-03-28T13:54:02.384Z</time></trkpt><trkpt lat="40.451895" lon="8.388825"><ele>87.0</ele><time>2026-03-28T13:54:03.384Z</time></trkpt><trkpt lat="40.4518033" lon="8.3889683"><ele>89.0</ele><time>2026-03-28T13:54:04.383Z</time></trkpt><trkpt lat="40.4517567" lon="8.38915"><ele>89.0</ele><time>2026-03-28T13:54:05.384Z</time></trkpt><trkpt lat="40.4517333" lon="8.3893583"><ele>89.0</ele><time>2026-03-28T13:54:06.384Z</time></trkpt><trkpt lat="40.45172" lon="8.389565"><ele>89.0</ele><time>2026-03-28T13:54:07.384Z</time></trkpt><trkpt lat="40.4516817" lon="8.38978"><ele>97.0</ele><time>2026-03-28T13:54:08.384Z</time></trkpt><trkpt lat="40.4516117" lon="8.389955"><ele>105.0</ele><time>2026-03-28T13:54:09.383Z</time></trkpt><trkpt lat="40.4515" lon="8.390085"><ele>113.0</ele><time>2026-03-28T13:54:10.384Z</time></trkpt><trkpt lat="40.4513433" lon="8.3901717"><ele>106.66666666666666</ele><time>2026-03-28T13:54:11.384Z</time></trkpt><trkpt lat="40.4511733" lon="8.3902533"><ele>100.33333333333333</ele><time>2026-03-28T13:54:12.384Z</time></trkpt><trkpt lat="40.4509817" lon="8.3903383"><ele>94.0</ele><time>2026-03-28T13:54:13.384Z</time></trkpt><trkpt lat="40.450795" lon="8.3904233"><ele>101.66666666666666</ele><time>2026-03-28T13:54:14.384Z</time></trkpt><trkpt lat="40.4506133" lon="8.39052"><ele>109.33333333333333</ele><time>2026-03-28T13:54:15.384Z</time></trkpt><trkpt lat="40.45043" lon="8.3906333"><ele>117.0</ele><time>2026-03-28T13:54:16.384Z</time></trkpt><trkpt lat="40.4502467" lon="8.3907617"><ele>117.0</ele><time>2026-03-28T13:54:17.384Z</time></trkpt><trkpt lat="40.4500717" lon="8.3908867"><ele>117.0</ele><time>2026-03-28T13:54:18.383Z</time></trkpt><trkpt lat="40.4499" lon="8.3910033"><ele>117.0</ele><time>2026-03-28T13:54:19.384Z</time></trkpt><trkpt lat="40.4497467" lon="8.39114"><ele>119.33333333333334</ele><time>2026-03-28T13:54:20.384Z</time></trkpt><trkpt lat="40.4496117" lon="8.391285"><ele>121.66666666666667</ele><time>2026-03-28T13:54:21.384Z</time></trkpt><trkpt lat="40.4494833" lon="8.39141"><ele>124.0</ele><time>2026-03-28T13:54:22.384Z</time></trkpt><trkpt lat="40.4493383" lon="8.3915233"><ele>124.0</ele><time>2026-03-28T13:54:23.384Z</time></trkpt><trkpt lat="40.449215" lon="8.3916217"><ele>124.0</ele><time>2026-03-28T13:54:24.384Z</time></trkpt><trkpt lat="40.4491233" lon="8.391755"><ele>124.0</ele><time>2026-03-28T13:54:25.384Z</time></trkpt><trkpt lat="40.44906" lon="8.3919267"><ele>124.0</ele><time>2026-03-28T13:54:26.383Z</time></trkpt><trkpt lat="40.4489983" lon="8.3921317"><ele>127.66666666666667</ele><time>2026-03-28T13:54:27.384Z</time></trkpt><trkpt lat="40.44892" lon="8.39236"><ele>131.33333333333334</ele><time>2026-03-28T13:54:28.384Z</time></trkpt><trkpt lat="40.4488483" lon="8.392555"><ele>135.0</ele><time>2026-03-28T13:54:29.383Z</time></trkpt><trkpt lat="40.4487467" lon="8.3927067"><ele>135.0</ele><time>2026-03-28T13:54:30.383Z</time></trkpt><trkpt lat="40.4486283" lon="8.3928017"><ele>135.0</ele><time>2026-03-28T13:54:31.384Z</time></trkpt><trkpt lat="40.4484967" lon="8.3928333"><ele>135.0</ele><time>2026-03-28T13:54:32.384Z</time></trkpt><trkpt lat="40.4483533" lon="8.3927983"><ele>135.0</ele><time>2026-03-28T13:54:33.384Z</time></trkpt><trkpt lat="40.448185" lon="8.3927567"><ele>135.0</ele><time>2026-03-28T13:54:34.384Z</time></trkpt><trkpt lat="40.4480183" lon="8.39275"><ele>135.0</ele><time>2026-03-28T13:54:35.384Z</time></trkpt><trkpt lat="40.447845" lon="8.39278"><ele>135.0</ele><time>2026-03-28T13:54:36.384Z</time></trkpt><trkpt lat="40.44767" lon="8.3927933"><ele>134.0</ele><time>2026-03-28T13:54:37.384Z</time></trkpt><trkpt lat="40.447505" lon="8.3927667"><ele>133.0</ele><time>2026-03-28T13:54:38.383Z</time></trkpt><trkpt lat="40.4473383" lon="8.39271"><ele>132.0</ele><time>2026-03-28T13:54:39.384Z</time></trkpt><trkpt lat="40.447155" lon="8.3926383"><ele>136.0</ele><time>2026-03-28T13:54:40.384Z</time></trkpt><trkpt lat="40.446985" lon="8.392605"><ele>140.0</ele><time>2026-03-28T13:54:41.384Z</time></trkpt><trkpt lat="40.4468" lon="8.3926067"><ele>144.0</ele><time>2026-03-28T13:54:42.384Z</time></trkpt><trkpt lat="40.4466233" lon="8.3926033"><ele>144.0</ele><time>2026-03-28T13:54:43.384Z</time></trkpt><trkpt lat="40.4464367" lon="8.39259"><ele>144.0</ele><time>2026-03-28T13:54:44.384Z</time></trkpt><trkpt lat="40.44625" lon="8.3925817"><ele>144.0</ele><time>2026-03-28T13:54:45.384Z</time></trkpt><trkpt lat="40.4460683" lon="8.39258"><ele>141.0</ele><time>2026-03-28T13:54:46.384Z</time></trkpt><trkpt lat="40.4459083" lon="8.3926283"><ele>138.0</ele><time>2026-03-28T13:54:47.384Z</time></trkpt><trkpt lat="40.44575" lon="8.3927417"><ele>135.0</ele><time>2026-03-28T13:54:48.383Z</time></trkpt><trkpt lat="40.4456" lon="8.3928867"><ele>142.0</ele><time>2026-03-28T13:54:49.383Z</time></trkpt><trkpt lat="40.4454533" lon="8.3930317"><ele>149.0</ele><time>2026-03-28T13:54:50.384Z</time></trkpt><trkpt lat="40.4453" lon="8.3931683"><ele>156.0</ele><time>2026-03-28T13:54:51.384Z</time></trkpt><trkpt lat="40.4451317" lon="8.3932517"><ele>156.0</ele><time>2026-03-28T13:54:52.384Z</time></trkpt><trkpt lat="40.4449483" lon="8.3932967"><ele>156.0</ele><time>2026-03-28T13:54:53.384Z</time></trkpt><trkpt lat="40.444745" lon="8.3933283"><ele>156.0</ele><time>2026-03-28T13:54:54.384Z</time></trkpt><trkpt lat="40.44455" lon="8.3933467"><ele>150.0</ele><time>2026-03-28T13:54:55.384Z</time></trkpt><trkpt lat="40.4443517" lon="8.3933733"><ele>144.0</ele><time>2026-03-28T13:54:56.383Z</time></trkpt><trkpt lat="40.4441617" lon="8.3934433"><ele>138.0</ele><time>2026-03-28T13:54:57.384Z</time></trkpt><trkpt lat="40.4439817" lon="8.3935317"><ele>138.0</ele><time>2026-03-28T13:54:58.383Z</time></trkpt><trkpt lat="40.4438067" lon="8.3936583"><ele>138.0</ele><time>2026-03-28T13:54:59.384Z</time></trkpt><trkpt lat="40.443645" lon="8.3938283"><ele>138.0</ele><time>2026-03-28T13:55:00.384Z</time></trkpt><trkpt lat="40.4434733" lon="8.3940033"><ele>138.66666666666666</ele><time>2026-03-28T13:55:01.384Z</time></trkpt><trkpt lat="40.443325" lon="8.3941667"><ele>139.33333333333331</ele><time>2026-03-28T13:55:02.384Z</time></trkpt><trkpt lat="40.4432067" lon="8.3943417"><ele>140.0</ele><time>2026-03-28T13:55:03.383Z</time></trkpt><trkpt lat="40.4430933" lon="8.3945383"><ele>147.33333333333331</ele><time>2026-03-28T13:55:04.384Z</time></trkpt><trkpt lat="40.4430383" lon="8.3947783"><ele>154.66666666666666</ele><time>2026-03-28T13:55:05.384Z</time></trkpt><trkpt lat="40.4429933" lon="8.3950183"><ele>162.0</ele><time>2026-03-28T13:55:06.384Z</time></trkpt><trkpt lat="40.44291" lon="8.395215"><ele>157.0</ele><time>2026-03-28T13:55:07.384Z</time></trkpt><trkpt lat="40.4428" lon="8.3953633"><ele>152.0</ele><time>2026-03-28T13:55:08.384Z</time></trkpt><trkpt lat="40.44267" lon="8.39547"><ele>147.0</ele><time>2026-03-28T13:55:09.383Z</time></trkpt><trkpt lat="40.4424967" lon="8.3955117"><ele>147.0</ele><time>2026-03-28T13:55:10.383Z</time></trkpt><trkpt lat="40.4423167" lon="8.3955117"><ele>147.0</ele><time>2026-03-28T13:55:11.384Z</time></trkpt><trkpt lat="40.442135" lon="8.3954667"><ele>147.0</ele><time>2026-03-28T13:55:12.384Z</time></trkpt><trkpt lat="40.4419517" lon="8.3954367"><ele>141.0</ele><time>2026-03-28T13:55:13.384Z</time></trkpt><trkpt lat="40.4417883" lon="8.3954467"><ele>135.0</ele><time>2026-03-28T13:55:14.384Z</time></trkpt><trkpt lat="40.4416233" lon="8.395465"><ele>129.0</ele><time>2026-03-28T13:55:15.383Z</time></trkpt><trkpt lat="40.4414617" lon="8.3955217"><ele>117.0</ele><time>2026-03-28T13:55:16.384Z</time></trkpt><trkpt lat="40.4412917" lon="8.3956383"><ele>105.0</ele><time>2026-03-28T13:55:17.384Z</time></trkpt><trkpt lat="40.4411317" lon="8.395765"><ele>93.0</ele><time>2026-03-28T13:55:18.384Z</time></trkpt><trkpt lat="40.4410333" lon="8.3959517"><ele>93.0</ele><time>2026-03-28T13:55:19.384Z</time></trkpt><trkpt lat="40.440965" lon="8.3961483"><ele>93.0</ele><time>2026-03-28T13:55:20.384Z</time></trkpt><trkpt lat="40.440905" lon="8.39636"><ele>93.0</ele><time>2026-03-28T13:55:21.384Z</time></trkpt><trkpt lat="40.4408583" lon="8.3965883"><ele>94.33333333333334</ele><time>2026-03-28T13:55:22.384Z</time></trkpt><trkpt lat="40.4408467" lon="8.396835"><ele>95.66666666666667</ele><time>2026-03-28T13:55:23.384Z</time></trkpt><trkpt lat="40.4408633" lon="8.3970817"><ele>97.0</ele><time>2026-03-28T13:55:24.384Z</time></trkpt><trkpt lat="40.4409067" lon="8.397305"><ele>97.0</ele><time>2026-03-28T13:55:25.383Z</time></trkpt><trkpt lat="40.4409717" lon="8.3975333"><ele>97.0</ele><time>2026-03-28T13:55:26.383Z</time></trkpt><trkpt lat="40.4410233" lon="8.3977583"><ele>97.0</ele><time>2026-03-28T13:55:27.383Z</time></trkpt><trkpt lat="40.4411" lon="8.39799"><ele>94.0</ele><time>2026-03-28T13:55:28.384Z</time></trkpt><trkpt lat="40.4411483" lon="8.398215"><ele>91.0</ele><time>2026-03-28T13:55:29.384Z</time></trkpt><trkpt lat="40.4411767" lon="8.3984267"><ele>88.0</ele><time>2026-03-28T13:55:30.383Z</time></trkpt><trkpt lat="40.4411883" lon="8.39862"><ele>88.0</ele><time>2026-03-28T13:55:31.384Z</time></trkpt><trkpt lat="40.4412" lon="8.3988217"><ele>88.0</ele><time>2026-03-28T13:55:32.384Z</time></trkpt><trkpt lat="40.44119" lon="8.3990183"><ele>88.0</ele><time>2026-03-28T13:55:33.383Z</time></trkpt><trkpt lat="40.4411683" lon="8.3991983"><ele>88.0</ele><time>2026-03-28T13:55:34.384Z</time></trkpt><trkpt lat="40.4411083" lon="8.39936"><ele>89.0</ele><time>2026-03-28T13:55:35.382Z</time></trkpt><trkpt lat="40.4410267" lon="8.3995017"><ele>90.0</ele><time>2026-03-28T13:55:36.384Z</time></trkpt><trkpt lat="40.440925" lon="8.3996367"><ele>91.0</ele><time>2026-03-28T13:55:37.383Z</time></trkpt><trkpt lat="40.44081" lon="8.399735"><ele>92.0</ele><time>2026-03-28T13:55:38.384Z</time></trkpt><trkpt lat="40.4406717" lon="8.3998133"><ele>94.0</ele><time>2026-03-28T13:55:39.384Z</time></trkpt><trkpt lat="40.4405317" lon="8.3998483"><ele>96.0</ele><time>2026-03-28T13:55:40.384Z</time></trkpt><trkpt lat="40.4403917" lon="8.399845"><ele>98.0</ele><time>2026-03-28T13:55:41.384Z</time></trkpt><trkpt lat="40.4402483" lon="8.399825"><ele>100.0</ele><time>2026-03-28T13:55:42.384Z</time></trkpt><trkpt lat="40.4400933" lon="8.3998033"><ele>101.33333333333334</ele><time>2026-03-28T13:55:43.384Z</time></trkpt><trkpt lat="40.4399467" lon="8.3997733"><ele>102.66666666666666</ele><time>2026-03-28T13:55:44.383Z</time></trkpt><trkpt lat="40.43979" lon="8.3997317"><ele>104.0</ele><time>2026-03-28T13:55:45.383Z</time></trkpt><trkpt lat="40.439635" lon="8.39968"><ele>100.66666666666666</ele><time>2026-03-28T13:55:46.384Z</time></trkpt><trkpt lat="40.439485" lon="8.399645"><ele>97.33333333333333</ele><time>2026-03-28T13:55:47.384Z</time></trkpt><trkpt lat="40.4393283" lon="8.399615"><ele>94.0</ele><time>2026-03-28T13:55:48.383Z</time></trkpt><trkpt lat="40.439165" lon="8.39957"><ele>94.0</ele><time>2026-03-28T13:55:49.384Z</time></trkpt><trkpt lat="40.4390017" lon="8.3995383"><ele>94.0</ele><time>2026-03-28T13:55:50.384Z</time></trkpt><trkpt lat="40.4388567" lon="8.39952"><ele>94.0</ele><time>2026-03-28T13:55:51.384Z</time></trkpt><trkpt lat="40.4387017" lon="8.3995067"><ele>96.33333333333333</ele><time>2026-03-28T13:55:52.384Z</time></trkpt><trkpt lat="40.43855" lon="8.3994683"><ele>98.66666666666666</ele><time>2026-03-28T13:55:53.384Z</time></trkpt><trkpt lat="40.4383933" lon="8.3994367"><ele>101.0</ele><time>2026-03-28T13:55:54.384Z</time></trkpt><trkpt lat="40.43825" lon="8.3994233"><ele>101.0</ele><time>2026-03-28T13:55:55.384Z</time></trkpt><trkpt lat="40.4381083" lon="8.3993933"><ele>101.0</ele><time>2026-03-28T13:55:56.384Z</time></trkpt><trkpt lat="40.4379633" lon="8.399365"><ele>101.0</ele><time>2026-03-28T13:55:57.384Z</time></trkpt><trkpt lat="40.4378233" lon="8.3993183"><ele>101.0</ele><time>2026-03-28T13:55:58.384Z</time></trkpt><trkpt lat="40.4376817" lon="8.3992867"><ele>102.25</ele><time>2026-03-28T13:55:59.384Z</time></trkpt><trkpt lat="40.43754" lon="8.39925"><ele>103.5</ele><time>2026-03-28T13:56:00.384Z</time></trkpt><trkpt lat="40.4374" lon="8.3992233"><ele>104.75</ele><time>2026-03-28T13:56:01.384Z</time></trkpt><trkpt lat="40.4372517" lon="8.3991883"><ele>106.0</ele><time>2026-03-28T13:56:02.384Z</time></trkpt><trkpt lat="40.4371167" lon="8.3991733"><ele>109.5</ele><time>2026-03-28T13:56:03.383Z</time></trkpt><trkpt lat="40.4369767" lon="8.3991967"><ele>113.0</ele><time>2026-03-28T13:56:04.384Z</time></trkpt><trkpt lat="40.4368383" lon="8.3992367"><ele>116.5</ele><time>2026-03-28T13:56:05.384Z</time></trkpt><trkpt lat="40.4367133" lon="8.39931"><ele>120.0</ele><time>2026-03-28T13:56:06.383Z</time></trkpt><trkpt lat="40.4365967" lon="8.3994183"><ele>120.0</ele><time>2026-03-28T13:56:07.383Z</time></trkpt><trkpt lat="40.4364883" lon="8.3995617"><ele>120.0</ele><time>2026-03-28T13:56:08.383Z</time></trkpt><trkpt lat="40.4364083" lon="8.3997167"><ele>120.0</ele><time>2026-03-28T13:56:09.384Z</time></trkpt><trkpt lat="40.43634" lon="8.3998933"><ele>120.0</ele><time>2026-03-28T13:56:10.384Z</time></trkpt><trkpt lat="40.4362933" lon="8.4000917"><ele>117.0</ele><time>2026-03-28T13:56:11.384Z</time></trkpt><trkpt lat="40.4362533" lon="8.4002683"><ele>114.0</ele><time>2026-03-28T13:56:12.384Z</time></trkpt><trkpt lat="40.4362133" lon="8.4004633"><ele>111.0</ele><time>2026-03-28T13:56:13.384Z</time></trkpt><trkpt lat="40.4361667" lon="8.400665"><ele>111.0</ele><time>2026-03-28T13:56:14.384Z</time></trkpt><trkpt lat="40.4361183" lon="8.400885"><ele>111.0</ele><time>2026-03-28T13:56:15.383Z</time></trkpt><trkpt lat="40.4360733" lon="8.4010833"><ele>111.0</ele><time>2026-03-28T13:56:16.384Z</time></trkpt><trkpt lat="40.4360183" lon="8.40129"><ele>116.0</ele><time>2026-03-28T13:56:17.383Z</time></trkpt><trkpt lat="40.4359733" lon="8.401485"><ele>121.0</ele><time>2026-03-28T13:56:18.384Z</time></trkpt><trkpt lat="40.4359283" lon="8.4016917"><ele>126.0</ele><time>2026-03-28T13:56:19.384Z</time></trkpt><trkpt lat="40.4358817" lon="8.401905"><ele>126.0</ele><time>2026-03-28T13:56:20.384Z</time></trkpt><trkpt lat="40.43584" lon="8.402105"><ele>126.0</ele><time>2026-03-28T13:56:21.384Z</time></trkpt><trkpt lat="40.435815" lon="8.4023017"><ele>126.0</ele><time>2026-03-28T13:56:22.384Z</time></trkpt><trkpt lat="40.4358017" lon="8.402505"><ele>128.33333333333334</ele><time>2026-03-28T13:56:23.384Z</time></trkpt><trkpt lat="40.43578" lon="8.4027133"><ele>130.66666666666669</ele><time>2026-03-28T13:56:24.384Z</time></trkpt><trkpt lat="40.43576" lon="8.40293"><ele>133.0</ele><time>2026-03-28T13:56:25.384Z</time></trkpt><trkpt lat="40.4357583" lon="8.40315"><ele>135.0</ele><time>2026-03-28T13:56:26.384Z</time></trkpt><trkpt lat="40.435745" lon="8.4033433"><ele>137.0</ele><time>2026-03-28T13:56:27.384Z</time></trkpt><trkpt lat="40.4357367" lon="8.4035267"><ele>139.0</ele><time>2026-03-28T13:56:28.383Z</time></trkpt><trkpt lat="40.4357283" lon="8.403705"><ele>141.0</ele><time>2026-03-28T13:56:29.383Z</time></trkpt><trkpt lat="40.4357167" lon="8.403905"><ele>142.75</ele><time>2026-03-28T13:56:30.384Z</time></trkpt><trkpt lat="40.435705" lon="8.404095"><ele>144.5</ele><time>2026-03-28T13:56:31.384Z</time></trkpt><trkpt lat="40.4356883" lon="8.4043017"><ele>146.25</ele><time>2026-03-28T13:56:32.384Z</time></trkpt><trkpt lat="40.4356717" lon="8.4044817"><ele>148.0</ele><time>2026-03-28T13:56:33.384Z</time></trkpt><trkpt lat="40.4356717" lon="8.40466"><ele>149.0</ele><time>2026-03-28T13:56:34.384Z</time></trkpt><trkpt lat="40.4356567" lon="8.4048367"><ele>150.0</ele><time>2026-03-28T13:56:35.384Z</time></trkpt><trkpt lat="40.4356417" lon="8.405015"><ele>151.0</ele><time>2026-03-28T13:56:36.384Z</time></trkpt><trkpt lat="40.4356483" lon="8.4051933"><ele>152.0</ele><time>2026-03-28T13:56:37.384Z</time></trkpt><trkpt lat="40.435665" lon="8.4053967"><ele>151.5</ele><time>2026-03-28T13:56:38.383Z</time></trkpt><trkpt lat="40.435685" lon="8.4056083"><ele>151.0</ele><time>2026-03-28T13:56:39.384Z</time></trkpt><trkpt lat="40.4356933" lon="8.405785"><ele>150.5</ele><time>2026-03-28T13:56:40.384Z</time></trkpt><trkpt lat="40.4356667" lon="8.4059633"><ele>150.0</ele><time>2026-03-28T13:56:41.384Z</time></trkpt><trkpt lat="40.4356" lon="8.40614"><ele>150.0</ele><time>2026-03-28T13:56:42.384Z</time></trkpt><trkpt lat="40.43552" lon="8.4063"><ele>150.0</ele><time>2026-03-28T13:56:43.383Z</time></trkpt><trkpt lat="40.4354017" lon="8.4064117"><ele>150.0</ele><time>2026-03-28T13:56:44.384Z</time></trkpt><trkpt lat="40.4352683" lon="8.406505"><ele>150.0</ele><time>2026-03-28T13:56:45.384Z</time></trkpt><trkpt lat="40.4351183" lon="8.4065967"><ele>146.33333333333334</ele><time>2026-03-28T13:56:46.384Z</time></trkpt><trkpt lat="40.4349567" lon="8.40665"><ele>142.66666666666669</ele><time>2026-03-28T13:56:47.384Z</time></trkpt><trkpt lat="40.4348017" lon="8.406655"><ele>139.0</ele><time>2026-03-28T13:56:48.384Z</time></trkpt><trkpt lat="40.4346467" lon="8.4066083"><ele>147.33333333333334</ele><time>2026-03-28T13:56:49.384Z</time></trkpt><trkpt lat="40.4344917" lon="8.4065483"><ele>155.66666666666666</ele><time>2026-03-28T13:56:50.384Z</time></trkpt><trkpt lat="40.4343383" lon="8.40647"><ele>164.0</ele><time>2026-03-28T13:56:51.383Z</time></trkpt><trkpt lat="40.4341867" lon="8.406385"><ele>159.66666666666666</ele><time>2026-03-28T13:56:52.384Z</time></trkpt><trkpt lat="40.434045" lon="8.406275"><ele>155.33333333333334</ele><time>2026-03-28T13:56:53.383Z</time></trkpt><trkpt lat="40.4339267" lon="8.40611"><ele>151.0</ele><time>2026-03-28T13:56:54.384Z</time></trkpt><trkpt lat="40.4338267" lon="8.405905"><ele>157.66666666666669</ele><time>2026-03-28T13:56:55.384Z</time></trkpt><trkpt lat="40.43375" lon="8.4056783"><ele>164.33333333333334</ele><time>2026-03-28T13:56:56.384Z</time></trkpt><trkpt lat="40.43369" lon="8.405445"><ele>171.0</ele><time>2026-03-28T13:56:57.384Z</time></trkpt><trkpt lat="40.4336683" lon="8.4052117"><ele>171.0</ele><time>2026-03-28T13:56:58.384Z</time></trkpt><trkpt lat="40.4336417" lon="8.4049833"><ele>171.0</ele><time>2026-03-28T13:56:59.384Z</time></trkpt><trkpt lat="40.4335883" lon="8.40477"><ele>171.0</ele><time>2026-03-28T13:57:00.384Z</time></trkpt><trkpt lat="40.4335267" lon="8.4045617"><ele>165.33333333333334</ele><time>2026-03-28T13:57:01.384Z</time></trkpt><trkpt lat="40.4334417" lon="8.4043583"><ele>159.66666666666669</ele><time>2026-03-28T13:57:02.384Z</time></trkpt><trkpt lat="40.4333383" lon="8.404165"><ele>154.0</ele><time>2026-03-28T13:57:03.384Z</time></trkpt><trkpt lat="40.433225" lon="8.40396"><ele>149.66666666666669</ele><time>2026-03-28T13:57:04.384Z</time></trkpt><trkpt lat="40.433105" lon="8.4037483"><ele>145.33333333333334</ele><time>2026-03-28T13:57:05.384Z</time></trkpt><trkpt lat="40.4329867" lon="8.4035567"><ele>141.0</ele><time>2026-03-28T13:57:06.384Z</time></trkpt><trkpt lat="40.4328817" lon="8.403375"><ele>146.0</ele><time>2026-03-28T13:57:07.384Z</time></trkpt><trkpt lat="40.4327967" lon="8.4032283"><ele>151.0</ele><time>2026-03-28T13:57:08.384Z</time></trkpt><trkpt lat="40.432705" lon="8.4030833"><ele>156.0</ele><time>2026-03-28T13:57:09.383Z</time></trkpt><trkpt lat="40.432595" lon="8.4029333"><ele>161.0</ele><time>2026-03-28T13:57:10.384Z</time></trkpt><trkpt lat="40.432475" lon="8.402785"><ele>161.0</ele><time>2026-03-28T13:57:11.384Z</time></trkpt><trkpt lat="40.4323433" lon="8.402645"><ele>161.0</ele><time>2026-03-28T13:57:12.384Z</time></trkpt><trkpt lat="40.4321967" lon="8.4025167"><ele>161.0</ele><time>2026-03-28T13:57:13.384Z</time></trkpt><trkpt lat="40.432035" lon="8.4024033"><ele>161.33333333333331</ele><time>2026-03-28T13:57:14.384Z</time></trkpt><trkpt lat="40.43188" lon="8.4023017"><ele>161.66666666666666</ele><time>2026-03-28T13:57:15.383Z</time></trkpt><trkpt lat="40.4317" lon="8.4021883"><ele>162.0</ele><time>2026-03-28T13:57:16.384Z</time></trkpt><trkpt lat="40.4315233" lon="8.4020883"><ele>162.0</ele><time>2026-03-28T13:57:17.384Z</time></trkpt><trkpt lat="40.4313533" lon="8.4020083"><ele>162.0</ele><time>2026-03-28T13:57:18.384Z</time></trkpt><trkpt lat="40.4311683" lon="8.4019367"><ele>162.0</ele><time>2026-03-28T13:57:19.383Z</time></trkpt><trkpt lat="40.430975" lon="8.401875"><ele>164.66666666666666</ele><time>2026-03-28T13:57:20.384Z</time></trkpt><trkpt lat="40.4307817" lon="8.401835"><ele>167.33333333333331</ele><time>2026-03-28T13:57:21.384Z</time></trkpt><trkpt lat="40.430575" lon="8.401805"><ele>170.0</ele><time>2026-03-28T13:57:22.383Z</time></trkpt><trkpt lat="40.43036" lon="8.4017783"><ele>173.66666666666666</ele><time>2026-03-28T13:57:23.383Z</time></trkpt><trkpt lat="40.430145" lon="8.401755"><ele>177.33333333333334</ele><time>2026-03-28T13:57:24.384Z</time></trkpt><trkpt lat="40.42992" lon="8.40172"><ele>181.0</ele><time>2026-03-28T13:57:25.384Z</time></trkpt><trkpt lat="40.429705" lon="8.4016933"><ele>183.0</ele><time>2026-03-28T13:57:26.384Z</time></trkpt><trkpt lat="40.4294883" lon="8.4016517"><ele>185.0</ele><time>2026-03-28T13:57:27.384Z</time></trkpt><trkpt lat="40.429275" lon="8.401615"><ele>187.0</ele><time>2026-03-28T13:57:28.384Z</time></trkpt><trkpt lat="40.429075" lon="8.4015833"><ele>187.0</ele><time>2026-03-28T13:57:29.384Z</time></trkpt><trkpt lat="40.4288833" lon="8.4015483"><ele>187.0</ele><time>2026-03-28T13:57:30.384Z</time></trkpt><trkpt lat="40.428705" lon="8.4015183"><ele>187.0</ele><time>2026-03-28T13:57:31.383Z</time></trkpt><trkpt lat="40.4285233" lon="8.401525"><ele>188.66666666666669</ele><time>2026-03-28T13:57:32.384Z</time></trkpt><trkpt lat="40.42834" lon="8.4015567"><ele>190.33333333333334</ele><time>2026-03-28T13:57:33.384Z</time></trkpt><trkpt lat="40.4281467" lon="8.401615"><ele>192.0</ele><time>2026-03-28T13:57:34.384Z</time></trkpt><trkpt lat="40.427965" lon="8.4016967"><ele>192.0</ele><time>2026-03-28T13:57:35.384Z</time></trkpt><trkpt lat="40.4277733" lon="8.4017783"><ele>192.0</ele><time>2026-03-28T13:57:36.384Z</time></trkpt><trkpt lat="40.4275833" lon="8.4018567"><ele>192.0</ele><time>2026-03-28T13:57:37.384Z</time></trkpt><trkpt lat="40.4274017" lon="8.4019467"><ele>192.0</ele><time>2026-03-28T13:57:38.383Z</time></trkpt><trkpt lat="40.427215" lon="8.4020233"><ele>192.0</ele><time>2026-03-28T13:57:39.383Z</time></trkpt><trkpt lat="40.4270417" lon="8.4020933"><ele>192.0</ele><time>2026-03-28T13:57:40.383Z</time></trkpt><trkpt lat="40.4268633" lon="8.4021433"><ele>191.33333333333334</ele><time>2026-03-28T13:57:41.384Z</time></trkpt><trkpt lat="40.4266883" lon="8.40216"><ele>190.66666666666669</ele><time>2026-03-28T13:57:42.384Z</time></trkpt><trkpt lat="40.4265183" lon="8.4021617"><ele>190.0</ele><time>2026-03-28T13:57:43.384Z</time></trkpt><trkpt lat="40.4263433" lon="8.40215"><ele>192.0</ele><time>2026-03-28T13:57:44.384Z</time></trkpt><trkpt lat="40.4261633" lon="8.402135"><ele>194.0</ele><time>2026-03-28T13:57:45.384Z</time></trkpt><trkpt lat="40.42598" lon="8.4021383"><ele>196.0</ele><time>2026-03-28T13:57:46.384Z</time></trkpt><trkpt lat="40.4257933" lon="8.4021267"><ele>196.0</ele><time>2026-03-28T13:57:47.384Z</time></trkpt><trkpt lat="40.4256117" lon="8.40212"><ele>196.0</ele><time>2026-03-28T13:57:48.383Z</time></trkpt><trkpt lat="40.42543" lon="8.4021233"><ele>196.0</ele><time>2026-03-28T13:57:49.384Z</time></trkpt><trkpt lat="40.4252517" lon="8.4021317"><ele>205.0</ele><time>2026-03-28T13:57:50.383Z</time></trkpt><trkpt lat="40.425075" lon="8.402165"><ele>214.0</ele><time>2026-03-28T13:57:51.384Z</time></trkpt><trkpt lat="40.4248983" lon="8.4022467"><ele>223.0</ele><time>2026-03-28T13:57:52.384Z</time></trkpt><trkpt lat="40.42472" lon="8.4023483"><ele>217.66666666666666</ele><time>2026-03-28T13:57:53.384Z</time></trkpt><trkpt lat="40.4245533" lon="8.402435"><ele>212.33333333333331</ele><time>2026-03-28T13:57:54.384Z</time></trkpt><trkpt lat="40.4244067" lon="8.4025583"><ele>207.0</ele><time>2026-03-28T13:57:55.384Z</time></trkpt><trkpt lat="40.42428" lon="8.4027117"><ele>207.0</ele><time>2026-03-28T13:57:56.383Z</time></trkpt><trkpt lat="40.42418" lon="8.40287"><ele>207.0</ele><time>2026-03-28T13:57:57.384Z</time></trkpt><trkpt lat="40.4240683" lon="8.4030083"><ele>207.0</ele><time>2026-03-28T13:57:58.384Z</time></trkpt><trkpt lat="40.42398" lon="8.4031417"><ele>207.0</ele><time>2026-03-28T13:57:59.384Z</time></trkpt><trkpt lat="40.4238933" lon="8.4032633"><ele>206.6</ele><time>2026-03-28T13:58:00.384Z</time></trkpt><trkpt lat="40.4238117" lon="8.4033717"><ele>206.2</ele><time>2026-03-28T13:58:01.384Z</time></trkpt><trkpt lat="40.423735" lon="8.4034583"><ele>205.8</ele><time>2026-03-28T13:58:02.384Z</time></trkpt><trkpt lat="40.42366" lon="8.4035433"><ele>205.4</ele><time>2026-03-28T13:58:03.384Z</time></trkpt><trkpt lat="40.423595" lon="8.40362"><ele>205.0</ele><time>2026-03-28T13:58:04.383Z</time></trkpt><trkpt lat="40.423535" lon="8.4036983"><ele>205.0</ele><time>2026-03-28T13:58:05.383Z</time></trkpt><trkpt lat="40.423485" lon="8.403765"><ele>205.0</ele><time>2026-03-28T13:58:06.384Z</time></trkpt><trkpt lat="40.4234183" lon="8.4038567"><ele>205.0</ele><time>2026-03-28T13:58:07.384Z</time></trkpt><trkpt lat="40.42335" lon="8.4039617"><ele>205.0</ele><time>2026-03-28T13:58:08.384Z</time></trkpt><trkpt lat="40.423275" lon="8.4040567"><ele>205.0</ele><time>2026-03-28T13:58:09.384Z</time></trkpt><trkpt lat="40.42322" lon="8.4041333"><ele>208.99999999999997</ele><time>2026-03-28T13:58:10.383Z</time></trkpt><trkpt lat="40.423165" lon="8.40419"><ele>213.0</ele><time>2026-03-28T13:58:11.383Z</time></trkpt><trkpt lat="40.4231067" lon="8.4042467"><ele>217.0</ele><time>2026-03-28T13:58:13.384Z</time></trkpt><trkpt lat="40.42309" lon="8.4043633"><ele>221.0</ele><time>2026-03-28T14:00:07.384Z</time></trkpt><trkpt lat="40.4230433" lon="8.4044683"><ele>224.99999999999997</ele><time>2026-03-28T14:00:08.384Z</time></trkpt><trkpt lat="40.422995" lon="8.4045883"><ele>229.0</ele><time>2026-03-28T14:00:09.383Z</time></trkpt><trkpt lat="40.4229533" lon="8.4046933"><ele>229.0</ele><time>2026-03-28T14:00:10.384Z</time></trkpt><trkpt lat="40.4229217" lon="8.40479"><ele>229.0</ele><time>2026-03-28T14:00:11.384Z</time></trkpt><trkpt lat="40.4229017" lon="8.4048833"><ele>229.0</ele><time>2026-03-28T14:00:12.384Z</time></trkpt><trkpt lat="40.42287" lon="8.4050017"><ele>229.0</ele><time>2026-03-28T14:00:14.384Z</time></trkpt><trkpt lat="40.4227867" lon="8.405285"><ele>229.0</ele><time>2026-03-28T14:00:17.384Z</time></trkpt><trkpt lat="40.422755" lon="8.4054367"><ele>229.0</ele><time>2026-03-28T14:00:18.383Z</time></trkpt><trkpt lat="40.4227083" lon="8.4056183"><ele>229.0</ele><time>2026-03-28T14:00:19.384Z</time></trkpt><trkpt lat="40.422655" lon="8.4058167"><ele>229.0</ele><time>2026-03-28T14:00:20.384Z</time></trkpt><trkpt lat="40.422595" lon="8.4060217"><ele>229.66666666666666</ele><time>2026-03-28T14:00:21.384Z</time></trkpt><trkpt lat="40.4225417" lon="8.4062283"><ele>230.33333333333331</ele><time>2026-03-28T14:00:22.384Z</time></trkpt><trkpt lat="40.42249" lon="8.4064317"><ele>231.0</ele><time>2026-03-28T14:00:23.383Z</time></trkpt><trkpt lat="40.4224167" lon="8.40662"><ele>232.5</ele><time>2026-03-28T14:00:24.384Z</time></trkpt><trkpt lat="40.4223533" lon="8.406795"><ele>234.0</ele><time>2026-03-28T14:00:25.384Z</time></trkpt><trkpt lat="40.422285" lon="8.40696"><ele>235.5</ele><time>2026-03-28T14:00:26.384Z</time></trkpt><trkpt lat="40.4221917" lon="8.4070983"><ele>237.0</ele><time>2026-03-28T14:00:27.383Z</time></trkpt><trkpt lat="40.4220517" lon="8.4071783"><ele>238.33333333333331</ele><time>2026-03-28T14:00:28.384Z</time></trkpt><trkpt lat="40.4219133" lon="8.4072367"><ele>239.66666666666666</ele><time>2026-03-28T14:00:29.384Z</time></trkpt><trkpt lat="40.4217583" lon="8.40724"><ele>241.0</ele><time>2026-03-28T14:00:30.384Z</time></trkpt><trkpt lat="40.4215883" lon="8.4072167"><ele>241.0</ele><time>2026-03-28T14:00:31.384Z</time></trkpt><trkpt lat="40.4214067" lon="8.4071667"><ele>241.0</ele><time>2026-03-28T14:00:32.383Z</time></trkpt><trkpt lat="40.4212167" lon="8.4071167"><ele>241.0</ele><time>2026-03-28T14:00:33.384Z</time></trkpt><trkpt lat="40.4210267" lon="8.4070617"><ele>231.66666666666666</ele><time>2026-03-28T14:00:34.383Z</time></trkpt><trkpt lat="40.4208367" lon="8.4069883"><ele>222.33333333333331</ele><time>2026-03-28T14:00:35.384Z</time></trkpt><trkpt lat="40.42066" lon="8.406895"><ele>213.0</ele><time>2026-03-28T14:00:36.384Z</time></trkpt><trkpt lat="40.4204833" lon="8.4068033"><ele>215.0</ele><time>2026-03-28T14:00:37.383Z</time></trkpt><trkpt lat="40.4202917" lon="8.4067367"><ele>217.0</ele><time>2026-03-28T14:00:38.383Z</time></trkpt><trkpt lat="40.4201083" lon="8.40669"><ele>219.0</ele><time>2026-03-28T14:00:39.383Z</time></trkpt><trkpt lat="40.4199433" lon="8.4066767"><ele>219.0</ele><time>2026-03-28T14:00:40.384Z</time></trkpt><trkpt lat="40.4197617" lon="8.4067183"><ele>219.0</ele><time>2026-03-28T14:00:41.384Z</time></trkpt><trkpt lat="40.4195867" lon="8.406785"><ele>219.0</ele><time>2026-03-28T14:00:42.384Z</time></trkpt><trkpt lat="40.4194083" lon="8.4068783"><ele>218.66666666666669</ele><time>2026-03-28T14:00:43.384Z</time></trkpt><trkpt lat="40.41922" lon="8.406965"><ele>218.33333333333334</ele><time>2026-03-28T14:00:44.383Z</time></trkpt><trkpt lat="40.4190417" lon="8.40699"><ele>218.0</ele><time>2026-03-28T14:00:45.384Z</time></trkpt><trkpt lat="40.4188733" lon="8.406935"><ele>222.66666666666669</ele><time>2026-03-28T14:00:46.384Z</time></trkpt><trkpt lat="40.4187167" lon="8.4068367"><ele>227.33333333333331</ele><time>2026-03-28T14:00:47.383Z</time></trkpt><trkpt lat="40.418535" lon="8.4067583"><ele>232.0</ele><time>2026-03-28T14:00:48.383Z</time></trkpt><trkpt lat="40.4183367" lon="8.406725"><ele>232.0</ele><time>2026-03-28T14:00:49.383Z</time></trkpt><trkpt lat="40.4181417" lon="8.4067217"><ele>232.0</ele><time>2026-03-28T14:00:50.384Z</time></trkpt><trkpt lat="40.4179317" lon="8.4067217"><ele>232.0</ele><time>2026-03-28T14:00:51.384Z</time></trkpt><trkpt lat="40.4177567" lon="8.406775"><ele>228.0</ele><time>2026-03-28T14:00:52.384Z</time></trkpt><trkpt lat="40.41759" lon="8.4068733"><ele>224.0</ele><time>2026-03-28T14:00:53.384Z</time></trkpt><trkpt lat="40.4174283" lon="8.40701"><ele>220.0</ele><time>2026-03-28T14:00:54.383Z</time></trkpt><trkpt lat="40.4172917" lon="8.4071683"><ele>220.33333333333331</ele><time>2026-03-28T14:00:55.384Z</time></trkpt><trkpt lat="40.4171783" lon="8.407365"><ele>220.66666666666669</ele><time>2026-03-28T14:00:56.384Z</time></trkpt><trkpt lat="40.4170817" lon="8.407585"><ele>221.0</ele><time>2026-03-28T14:00:57.384Z</time></trkpt><trkpt lat="40.4169983" lon="8.4078133"><ele>229.0</ele><time>2026-03-28T14:00:58.384Z</time></trkpt><trkpt lat="40.4169167" lon="8.4080217"><ele>237.0</ele><time>2026-03-28T14:00:59.384Z</time></trkpt><trkpt lat="40.4168267" lon="8.4081867"><ele>245.0</ele><time>2026-03-28T14:01:00.384Z</time></trkpt><trkpt lat="40.4167167" lon="8.408325"><ele>245.0</ele><time>2026-03-28T14:01:01.383Z</time></trkpt><trkpt lat="40.416565" lon="8.40842"><ele>245.0</ele><time>2026-03-28T14:01:02.384Z</time></trkpt><trkpt lat="40.4163933" lon="8.4084667"><ele>245.0</ele><time>2026-03-28T14:01:03.384Z</time></trkpt><trkpt lat="40.4161983" lon="8.4084167"><ele>244.33333333333334</ele><time>2026-03-28T14:01:04.384Z</time></trkpt><trkpt lat="40.4159983" lon="8.4083267"><ele>243.66666666666669</ele><time>2026-03-28T14:01:05.384Z</time></trkpt><trkpt lat="40.4157933" lon="8.4082417"><ele>243.0</ele><time>2026-03-28T14:01:06.384Z</time></trkpt><trkpt lat="40.4155767" lon="8.4081817"><ele>247.0</ele><time>2026-03-28T14:01:07.383Z</time></trkpt><trkpt lat="40.415355" lon="8.4081067"><ele>251.0</ele><time>2026-03-28T14:01:08.384Z</time></trkpt><trkpt lat="40.41513" lon="8.4080517"><ele>251.0</ele><time>2026-03-28T14:01:09.383Z</time></trkpt><trkpt lat="40.414905" lon="8.4080033"><ele>251.0</ele><time>2026-03-28T14:01:10.384Z</time></trkpt><trkpt lat="40.4146983" lon="8.407935"><ele>251.0</ele><time>2026-03-28T14:01:11.384Z</time></trkpt><trkpt lat="40.4145133" lon="8.407835"><ele>245.33333333333334</ele><time>2026-03-28T14:01:12.384Z</time></trkpt><trkpt lat="40.41433" lon="8.4077183"><ele>239.66666666666669</ele><time>2026-03-28T14:01:13.384Z</time></trkpt><trkpt lat="40.4141617" lon="8.4076067"><ele>234.0</ele><time>2026-03-28T14:01:14.383Z</time></trkpt><trkpt lat="40.414005" lon="8.4075"><ele>234.0</ele><time>2026-03-28T14:01:15.384Z</time></trkpt><trkpt lat="40.4138317" lon="8.4074217"><ele>234.0</ele><time>2026-03-28T14:01:16.384Z</time></trkpt><trkpt lat="40.4136367" lon="8.4073933"><ele>234.0</ele><time>2026-03-28T14:01:17.384Z</time></trkpt><trkpt lat="40.41343" lon="8.40741"><ele>232.66666666666669</ele><time>2026-03-28T14:01:18.384Z</time></trkpt><trkpt lat="40.4132183" lon="8.4074517"><ele>231.33333333333334</ele><time>2026-03-28T14:01:19.384Z</time></trkpt><trkpt lat="40.412995" lon="8.4075117"><ele>230.0</ele><time>2026-03-28T14:01:20.384Z</time></trkpt><trkpt lat="40.4127733" lon="8.4075533"><ele>228.66666666666669</ele><time>2026-03-28T14:01:21.384Z</time></trkpt><trkpt lat="40.4125683" lon="8.4075817"><ele>227.33333333333331</ele><time>2026-03-28T14:01:22.383Z</time></trkpt><trkpt lat="40.4123733" lon="8.40757"><ele>226.0</ele><time>2026-03-28T14:01:23.384Z</time></trkpt><trkpt lat="40.4121733" lon="8.4075333"><ele>225.33333333333331</ele><time>2026-03-28T14:01:24.384Z</time></trkpt><trkpt lat="40.41199" lon="8.4074667"><ele>224.66666666666669</ele><time>2026-03-28T14:01:25.383Z</time></trkpt><trkpt lat="40.411775" lon="8.4073683"><ele>224.0</ele><time>2026-03-28T14:01:26.384Z</time></trkpt><trkpt lat="40.411555" lon="8.407275"><ele>224.0</ele><time>2026-03-28T14:01:27.383Z</time></trkpt><trkpt lat="40.4113283" lon="8.4071783"><ele>224.0</ele><time>2026-03-28T14:01:28.384Z</time></trkpt><trkpt lat="40.4111017" lon="8.4070883"><ele>212.5</ele><time>2026-03-28T14:01:29.383Z</time></trkpt><trkpt lat="40.4108683" lon="8.407015"><ele>201.0</ele><time>2026-03-28T14:01:30.384Z</time></trkpt><trkpt lat="40.4106533" lon="8.4069533"><ele>198.0</ele><time>2026-03-28T14:01:31.384Z</time></trkpt><trkpt lat="40.41043" lon="8.4069017"><ele>195.0</ele><time>2026-03-28T14:01:32.384Z</time></trkpt><trkpt lat="40.4102133" lon="8.4068567"><ele>192.0</ele><time>2026-03-28T14:01:33.384Z</time></trkpt><trkpt lat="40.41" lon="8.4068183"><ele>192.0</ele><time>2026-03-28T14:01:34.384Z</time></trkpt><trkpt lat="40.40981" lon="8.4068033"><ele>192.0</ele><time>2026-03-28T14:01:35.384Z</time></trkpt><trkpt lat="40.4096283" lon="8.40681"><ele>192.0</ele><time>2026-03-28T14:01:36.384Z</time></trkpt><trkpt lat="40.4094433" lon="8.4068517"><ele>190.0</ele><time>2026-03-28T14:01:37.383Z</time></trkpt><trkpt lat="40.409245" lon="8.40693"><ele>188.0</ele><time>2026-03-28T14:01:38.384Z</time></trkpt><trkpt lat="40.4090367" lon="8.407045"><ele>186.0</ele><time>2026-03-28T14:01:39.384Z</time></trkpt><trkpt lat="40.40883" lon="8.4071817"><ele>188.0</ele><time>2026-03-28T14:01:40.383Z</time></trkpt><trkpt lat="40.4086317" lon="8.4073183"><ele>190.0</ele><time>2026-03-28T14:01:41.384Z</time></trkpt><trkpt lat="40.4084317" lon="8.4074467"><ele>192.0</ele><time>2026-03-28T14:01:42.384Z</time></trkpt><trkpt lat="40.4082467" lon="8.40756"><ele>192.0</ele><time>2026-03-28T14:01:43.384Z</time></trkpt><trkpt lat="40.4080533" lon="8.4076767"><ele>192.0</ele><time>2026-03-28T14:01:44.384Z</time></trkpt><trkpt lat="40.4078867" lon="8.4078217"><ele>192.0</ele><time>2026-03-28T14:01:45.383Z</time></trkpt><trkpt lat="40.40774" lon="8.408"><ele>187.33333333333334</ele><time>2026-03-28T14:01:46.384Z</time></trkpt><trkpt lat="40.40762" lon="8.4082067"><ele>182.66666666666669</ele><time>2026-03-28T14:01:47.384Z</time></trkpt><trkpt lat="40.407545" lon="8.4084283"><ele>178.0</ele><time>2026-03-28T14:01:48.384Z</time></trkpt><trkpt lat="40.407505" lon="8.4086583"><ele>176.66666666666669</ele><time>2026-03-28T14:01:49.384Z</time></trkpt><trkpt lat="40.4074983" lon="8.4088867"><ele>175.33333333333334</ele><time>2026-03-28T14:01:50.384Z</time></trkpt><trkpt lat="40.4075267" lon="8.4091433"><ele>174.0</ele><time>2026-03-28T14:01:51.384Z</time></trkpt><trkpt lat="40.407585" lon="8.409375"><ele>174.0</ele><time>2026-03-28T14:01:52.383Z</time></trkpt><trkpt lat="40.4076633" lon="8.4096217"><ele>174.0</ele><time>2026-03-28T14:01:53.384Z</time></trkpt><trkpt lat="40.407765" lon="8.409835"><ele>174.0</ele><time>2026-03-28T14:01:54.384Z</time></trkpt><trkpt lat="40.4078717" lon="8.4100433"><ele>175.0</ele><time>2026-03-28T14:01:55.384Z</time></trkpt><trkpt lat="40.4079583" lon="8.41026"><ele>176.0</ele><time>2026-03-28T14:01:56.384Z</time></trkpt><trkpt lat="40.40801" lon="8.4104717"><ele>177.0</ele><time>2026-03-28T14:01:57.384Z</time></trkpt><trkpt lat="40.4080267" lon="8.4107033"><ele>172.33333333333334</ele><time>2026-03-28T14:01:58.383Z</time></trkpt><trkpt lat="40.4079883" lon="8.4109467"><ele>167.66666666666669</ele><time>2026-03-28T14:01:59.384Z</time></trkpt><trkpt lat="40.4079283" lon="8.411195"><ele>163.0</ele><time>2026-03-28T14:02:00.384Z</time></trkpt><trkpt lat="40.4078233" lon="8.411435"><ele>163.0</ele><time>2026-03-28T14:02:01.383Z</time></trkpt><trkpt lat="40.407695" lon="8.4116617"><ele>163.0</ele><time>2026-03-28T14:02:02.383Z</time></trkpt><trkpt lat="40.4075417" lon="8.411865"><ele>163.0</ele><time>2026-03-28T14:02:03.384Z</time></trkpt><trkpt lat="40.4074167" lon="8.4121017"><ele>168.0</ele><time>2026-03-28T14:02:04.384Z</time></trkpt><trkpt lat="40.407295" lon="8.41233"><ele>173.0</ele><time>2026-03-28T14:02:05.384Z</time></trkpt><trkpt lat="40.407165" lon="8.4125583"><ele>178.0</ele><time>2026-03-28T14:02:06.383Z</time></trkpt><trkpt lat="40.4070533" lon="8.412795"><ele>168.33333333333334</ele><time>2026-03-28T14:02:07.383Z</time></trkpt><trkpt lat="40.4069333" lon="8.4130383"><ele>158.66666666666666</ele><time>2026-03-28T14:02:08.384Z</time></trkpt><trkpt lat="40.4068233" lon="8.41325"><ele>149.0</ele><time>2026-03-28T14:02:09.384Z</time></trkpt><trkpt lat="40.40669" lon="8.4134117"><ele>149.0</ele><time>2026-03-28T14:02:10.384Z</time></trkpt><trkpt lat="40.4065167" lon="8.4135067"><ele>149.0</ele><time>2026-03-28T14:02:11.383Z</time></trkpt><trkpt lat="40.4063333" lon="8.4135883"><ele>149.0</ele><time>2026-03-28T14:02:12.384Z</time></trkpt><trkpt lat="40.4061367" lon="8.413615"><ele>147.33333333333331</ele><time>2026-03-28T14:02:13.384Z</time></trkpt><trkpt lat="40.4059617" lon="8.4135633"><ele>145.66666666666666</ele><time>2026-03-28T14:02:14.384Z</time></trkpt><trkpt lat="40.4058017" lon="8.4134633"><ele>144.0</ele><time>2026-03-28T14:02:15.384Z</time></trkpt><trkpt lat="40.4056583" lon="8.413295"><ele>144.0</ele><time>2026-03-28T14:02:16.384Z</time></trkpt><trkpt lat="40.405515" lon="8.4130933"><ele>144.0</ele><time>2026-03-28T14:02:17.383Z</time></trkpt><trkpt lat="40.4053617" lon="8.41289"><ele>144.0</ele><time>2026-03-28T14:02:18.384Z</time></trkpt><trkpt lat="40.4052" lon="8.4127133"><ele>145.5</ele><time>2026-03-28T14:02:19.383Z</time></trkpt><trkpt lat="40.4050267" lon="8.4125283"><ele>147.0</ele><time>2026-03-28T14:02:20.383Z</time></trkpt><trkpt lat="40.4048267" lon="8.41236"><ele>147.0</ele><time>2026-03-28T14:02:21.383Z</time></trkpt><trkpt lat="40.4046317" lon="8.4122017"><ele>147.0</ele><time>2026-03-28T14:02:22.383Z</time></trkpt><trkpt lat="40.4044417" lon="8.41204"><ele>147.0</ele><time>2026-03-28T14:02:23.384Z</time></trkpt><trkpt lat="40.4042567" lon="8.41188"><ele>147.0</ele><time>2026-03-28T14:02:24.384Z</time></trkpt><trkpt lat="40.4041083" lon="8.4116867"><ele>147.0</ele><time>2026-03-28T14:02:25.384Z</time></trkpt><trkpt lat="40.4039767" lon="8.4114917"><ele>143.66666666666666</ele><time>2026-03-28T14:02:26.384Z</time></trkpt><trkpt lat="40.403875" lon="8.4112733"><ele>140.33333333333331</ele><time>2026-03-28T14:02:27.384Z</time></trkpt><trkpt lat="40.403775" lon="8.4110383"><ele>137.0</ele><time>2026-03-28T14:02:28.383Z</time></trkpt><trkpt lat="40.4036833" lon="8.4107867"><ele>145.0</ele><time>2026-03-28T14:02:29.383Z</time></trkpt><trkpt lat="40.4035833" lon="8.4105367"><ele>153.0</ele><time>2026-03-28T14:02:30.384Z</time></trkpt><trkpt lat="40.40348" lon="8.41029"><ele>161.0</ele><time>2026-03-28T14:02:31.384Z</time></trkpt><trkpt lat="40.40338" lon="8.410025"><ele>161.0</ele><time>2026-03-28T14:02:32.384Z</time></trkpt><trkpt lat="40.403265" lon="8.4097867"><ele>161.0</ele><time>2026-03-28T14:02:33.384Z</time></trkpt><trkpt lat="40.40315" lon="8.409585"><ele>161.0</ele><time>2026-03-28T14:02:34.383Z</time></trkpt><trkpt lat="40.40302" lon="8.4094167"><ele>164.0</ele><time>2026-03-28T14:02:35.384Z</time></trkpt><trkpt lat="40.4028517" lon="8.4092683"><ele>167.0</ele><time>2026-03-28T14:02:36.384Z</time></trkpt><trkpt lat="40.402675" lon="8.4091583"><ele>170.0</ele><time>2026-03-28T14:02:37.384Z</time></trkpt><trkpt lat="40.4024983" lon="8.4090783"><ele>170.0</ele><time>2026-03-28T14:02:38.383Z</time></trkpt><trkpt lat="40.40233" lon="8.4090367"><ele>170.0</ele><time>2026-03-28T14:02:39.384Z</time></trkpt><trkpt lat="40.40217" lon="8.4090167"><ele>170.0</ele><time>2026-03-28T14:02:40.384Z</time></trkpt><trkpt lat="40.4020133" lon="8.4090633"><ele>167.0</ele><time>2026-03-28T14:02:41.383Z</time></trkpt><trkpt lat="40.40188" lon="8.4091733"><ele>164.0</ele><time>2026-03-28T14:02:42.384Z</time></trkpt><trkpt lat="40.40176" lon="8.40931"><ele>161.0</ele><time>2026-03-28T14:02:43.384Z</time></trkpt><trkpt lat="40.4016333" lon="8.4094633"><ele>161.0</ele><time>2026-03-28T14:02:44.384Z</time></trkpt><trkpt lat="40.4014867" lon="8.4096367"><ele>161.0</ele><time>2026-03-28T14:02:45.384Z</time></trkpt><trkpt lat="40.40133" lon="8.4098117"><ele>161.0</ele><time>2026-03-28T14:02:46.384Z</time></trkpt><trkpt lat="40.4011667" lon="8.4099867"><ele>163.66666666666666</ele><time>2026-03-28T14:02:47.384Z</time></trkpt><trkpt lat="40.401005" lon="8.4101717"><ele>166.33333333333334</ele><time>2026-03-28T14:02:48.383Z</time></trkpt><trkpt lat="40.4008333" lon="8.41036"><ele>169.0</ele><time>2026-03-28T14:02:49.383Z</time></trkpt><trkpt lat="40.40066" lon="8.4105517"><ele>172.66666666666669</ele><time>2026-03-28T14:02:50.384Z</time></trkpt><trkpt lat="40.40049" lon="8.410735"><ele>176.33333333333334</ele><time>2026-03-28T14:02:51.384Z</time></trkpt><trkpt lat="40.4003433" lon="8.41092"><ele>180.0</ele><time>2026-03-28T14:02:52.384Z</time></trkpt><trkpt lat="40.4001783" lon="8.4110583"><ele>180.0</ele><time>2026-03-28T14:02:53.384Z</time></trkpt><trkpt lat="40.4000017" lon="8.41115"><ele>180.0</ele><time>2026-03-28T14:02:54.383Z</time></trkpt><trkpt lat="40.39981" lon="8.41115"><ele>180.0</ele><time>2026-03-28T14:02:55.384Z</time></trkpt><trkpt lat="40.399615" lon="8.4111183"><ele>183.66666666666666</ele><time>2026-03-28T14:02:56.383Z</time></trkpt><trkpt lat="40.39942" lon="8.4110767"><ele>187.33333333333331</ele><time>2026-03-28T14:02:57.383Z</time></trkpt><trkpt lat="40.3992383" lon="8.411035"><ele>191.0</ele><time>2026-03-28T14:02:58.383Z</time></trkpt><trkpt lat="40.3990683" lon="8.41096"><ele>191.0</ele><time>2026-03-28T14:02:59.384Z</time></trkpt><trkpt lat="40.398915" lon="8.4108633"><ele>191.0</ele><time>2026-03-28T14:03:00.384Z</time></trkpt><trkpt lat="40.3987667" lon="8.4107167"><ele>191.0</ele><time>2026-03-28T14:03:01.384Z</time></trkpt><trkpt lat="40.3986433" lon="8.4105217"><ele>194.66666666666666</ele><time>2026-03-28T14:03:02.384Z</time></trkpt><trkpt lat="40.398515" lon="8.410305"><ele>198.33333333333331</ele><time>2026-03-28T14:03:03.383Z</time></trkpt><trkpt lat="40.3983667" lon="8.410085"><ele>202.0</ele><time>2026-03-28T14:03:04.384Z</time></trkpt><trkpt lat="40.3982217" lon="8.4098617"><ele>201.66666666666666</ele><time>2026-03-28T14:03:05.384Z</time></trkpt><trkpt lat="40.3981" lon="8.4096317"><ele>201.33333333333331</ele><time>2026-03-28T14:03:06.383Z</time></trkpt><trkpt lat="40.3979983" lon="8.4094133"><ele>201.0</ele><time>2026-03-28T14:03:07.384Z</time></trkpt><trkpt lat="40.39793" lon="8.4091883"><ele>208.66666666666669</ele><time>2026-03-28T14:03:08.384Z</time></trkpt><trkpt lat="40.397895" lon="8.4089383"><ele>216.33333333333334</ele><time>2026-03-28T14:03:09.384Z</time></trkpt><trkpt lat="40.3979117" lon="8.4087033"><ele>224.0</ele><time>2026-03-28T14:03:10.384Z</time></trkpt><trkpt lat="40.3979733" lon="8.4084783"><ele>220.0</ele><time>2026-03-28T14:03:11.384Z</time></trkpt><trkpt lat="40.3980833" lon="8.4082817"><ele>216.0</ele><time>2026-03-28T14:03:12.384Z</time></trkpt><trkpt lat="40.39823" lon="8.40814"><ele>212.0</ele><time>2026-03-28T14:03:13.383Z</time></trkpt><trkpt lat="40.3984067" lon="8.4080183"><ele>211.33333333333334</ele><time>2026-03-28T14:03:14.384Z</time></trkpt><trkpt lat="40.398595" lon="8.4079117"><ele>210.66666666666669</ele><time>2026-03-28T14:03:15.384Z</time></trkpt><trkpt lat="40.398775" lon="8.4078267"><ele>210.0</ele><time>2026-03-28T14:03:16.384Z</time></trkpt><trkpt lat="40.3989367" lon="8.4077233"><ele>210.0</ele><time>2026-03-28T14:03:17.384Z</time></trkpt><trkpt lat="40.399075" lon="8.4075983"><ele>210.0</ele><time>2026-03-28T14:03:18.383Z</time></trkpt><trkpt lat="40.3991683" lon="8.4074083"><ele>210.0</ele><time>2026-03-28T14:03:19.384Z</time></trkpt><trkpt lat="40.3992317" lon="8.407195"><ele>211.33333333333331</ele><time>2026-03-28T14:03:20.384Z</time></trkpt><trkpt lat="40.399245" lon="8.4069483"><ele>212.66666666666666</ele><time>2026-03-28T14:03:21.384Z</time></trkpt><trkpt lat="40.399225" lon="8.4066917"><ele>214.0</ele><time>2026-03-28T14:03:22.384Z</time></trkpt><trkpt lat="40.3991883" lon="8.406415"><ele>212.0</ele><time>2026-03-28T14:03:23.384Z</time></trkpt><trkpt lat="40.3991283" lon="8.4061267"><ele>210.0</ele><time>2026-03-28T14:03:24.384Z</time></trkpt><trkpt lat="40.3990617" lon="8.4058333"><ele>210.0</ele><time>2026-03-28T14:03:25.384Z</time></trkpt><trkpt lat="40.3989933" lon="8.4055317"><ele>210.0</ele><time>2026-03-28T14:03:26.384Z</time></trkpt><trkpt lat="40.3989317" lon="8.4052167"><ele>203.5</ele><time>2026-03-28T14:03:27.384Z</time></trkpt><trkpt lat="40.3988883" lon="8.40491"><ele>197.0</ele><time>2026-03-28T14:03:28.384Z</time></trkpt><trkpt lat="40.3988533" lon="8.4046183"><ele>207.33333333333334</ele><time>2026-03-28T14:03:29.384Z</time></trkpt><trkpt lat="40.3988133" lon="8.4043467"><ele>217.66666666666669</ele><time>2026-03-28T14:03:30.383Z</time></trkpt><trkpt lat="40.39878" lon="8.4040967"><ele>228.0</ele><time>2026-03-28T14:03:31.384Z</time></trkpt><trkpt lat="40.3987283" lon="8.40386"><ele>220.66666666666669</ele><time>2026-03-28T14:03:32.384Z</time></trkpt><trkpt lat="40.3986333" lon="8.40368"><ele>213.33333333333334</ele><time>2026-03-28T14:03:33.383Z</time></trkpt><trkpt lat="40.3985017" lon="8.40352"><ele>206.0</ele><time>2026-03-28T14:03:34.383Z</time></trkpt><trkpt lat="40.3983317" lon="8.4033733"><ele>206.0</ele><time>2026-03-28T14:03:35.384Z</time></trkpt><trkpt lat="40.3981383" lon="8.403285"><ele>206.0</ele><time>2026-03-28T14:03:36.383Z</time></trkpt><trkpt lat="40.3979333" lon="8.4032433"><ele>206.0</ele><time>2026-03-28T14:03:37.384Z</time></trkpt><trkpt lat="40.3979983" lon="8.4094133"><ele>212.0</ele><time>2026-03-28T14:03:07.384Z</time></trkpt><trkpt lat="40.39793" lon="8.4091883"><ele>218.0</ele><time>2026-03-28T14:03:08.384Z</time></trkpt><trkpt lat="40.397895" lon="8.4089383"><ele>224.0</ele><time>2026-03-28T14:03:09.384Z</time></trkpt><trkpt lat="40.3979117" lon="8.4087033"><ele>224.33333333333334</ele><time>2026-03-28T14:03:10.384Z</time></trkpt><trkpt lat="40.3979733" lon="8.4084783"><ele>224.66666666666669</ele><time>2026-03-28T14:03:11.384Z</time></trkpt><trkpt lat="40.3980833" lon="8.4082817"><ele>225.0</ele><time>2026-03-28T14:03:12.384Z</time></trkpt><trkpt lat="40.39823" lon="8.40814"><ele>225.33333333333331</ele><time>2026-03-28T14:03:13.383Z</time></trkpt><trkpt lat="40.3984067" lon="8.4080183"><ele>225.66666666666666</ele><time>2026-03-28T14:03:14.384Z</time></trkpt><trkpt lat="40.398595" lon="8.4079117"><ele>226.0</ele><time>2026-03-28T14:03:15.384Z</time></trkpt><trkpt lat="40.398775" lon="8.4078267"><ele>220.66666666666666</ele><time>2026-03-28T14:03:16.384Z</time></trkpt><trkpt lat="40.3989367" lon="8.4077233"><ele>215.33333333333331</ele><time>2026-03-28T14:03:17.384Z</time></trkpt><trkpt lat="40.399075" lon="8.4075983"><ele>210.0</ele><time>2026-03-28T14:03:18.383Z</time></trkpt><trkpt lat="40.3991683" lon="8.4074083"><ele>210.0</ele><time>2026-03-28T14:03:19.384Z</time></trkpt><trkpt lat="40.3992317" lon="8.407195"><ele>210.0</ele><time>2026-03-28T14:03:20.384Z</time></trkpt><trkpt lat="40.399245" lon="8.4069483"><ele>210.0</ele><time>2026-03-28T14:03:21.384Z</time></trkpt><trkpt lat="40.399225" lon="8.4066917"><ele>210.0</ele><time>2026-03-28T14:03:22.384Z</time></trkpt><trkpt lat="40.3991883" lon="8.406415"><ele>210.0</ele><time>2026-03-28T14:03:23.384Z</time></trkpt><trkpt lat="40.3991283" lon="8.4061267"><ele>210.0</ele><time>2026-03-28T14:03:24.384Z</time></trkpt><trkpt lat="40.3990617" lon="8.4058333"><ele>210.0</ele><time>2026-03-28T14:03:25.384Z</time></trkpt><trkpt lat="40.3989933" lon="8.4055317"><ele>210.0</ele><time>2026-03-28T14:03:26.384Z</time></trkpt><trkpt lat="40.3989317" lon="8.4052167"><ele>203.5</ele><time>2026-03-28T14:03:27.384Z</time></trkpt><trkpt lat="40.3988883" lon="8.40491"><ele>197.0</ele><time>2026-03-28T14:03:28.384Z</time></trkpt><trkpt lat="40.3988533" lon="8.4046183"><ele>207.33333333333334</ele><time>2026-03-28T14:03:29.384Z</time></trkpt><trkpt lat="40.3988133" lon="8.4043467"><ele>217.66666666666669</ele><time>2026-03-28T14:03:30.383Z</time></trkpt><trkpt lat="40.39878" lon="8.4040967"><ele>228.0</ele><time>2026-03-28T14:03:31.384Z</time></trkpt><trkpt lat="40.3987283" lon="8.40386"><ele>220.66666666666669</ele><time>2026-03-28T14:03:32.384Z</time></trkpt><trkpt lat="40.3986333" lon="8.40368"><ele>213.33333333333334</ele><time>2026-03-28T14:03:33.383Z</time></trkpt><trkpt lat="40.3985017" lon="8.40352"><ele>206.0</ele><time>2026-03-28T14:03:34.383Z</time></trkpt><trkpt lat="40.3983317" lon="8.4033733"><ele>206.0</ele><time>2026-03-28T14:03:35.384Z</time></trkpt><trkpt lat="40.3981383" lon="8.403285"><ele>206.0</ele><time>2026-03-28T14:03:36.383Z</time></trkpt><trkpt lat="40.3979333" lon="8.4032433"><ele>206.0</ele><time>2026-03-28T14:03:37.384Z</time></trkpt><trkpt lat="40.3977233" lon="8.403225"><ele>207.0</ele><time>2026-03-28T14:03:38.384Z</time></trkpt><trkpt lat="40.39752" lon="8.4032383"><ele>208.0</ele><time>2026-03-28T14:03:39.384Z</time></trkpt><trkpt lat="40.39732" lon="8.4032967"><ele>209.0</ele><time>2026-03-28T14:03:40.384Z</time></trkpt><trkpt lat="40.397135" lon="8.4034"><ele>209.0</ele><time>2026-03-28T14:03:41.384Z</time></trkpt><trkpt lat="40.3969583" lon="8.403555"><ele>209.0</ele><time>2026-03-28T14:03:42.384Z</time></trkpt><trkpt lat="40.3968017" lon="8.403745"><ele>209.0</ele><time>2026-03-28T14:03:43.384Z</time></trkpt><trkpt lat="40.3966667" lon="8.4039433"><ele>210.33333333333334</ele><time>2026-03-28T14:03:44.384Z</time></trkpt><trkpt lat="40.3965483" lon="8.4041633"><ele>211.66666666666669</ele><time>2026-03-28T14:03:45.383Z</time></trkpt><trkpt lat="40.39643" lon="8.4043967"><ele>213.0</ele><time>2026-03-28T14:03:46.384Z</time></trkpt><trkpt lat="40.3963167" lon="8.4046217"><ele>216.33333333333331</ele><time>2026-03-28T14:03:47.383Z</time></trkpt><trkpt lat="40.3962017" lon="8.4047983"><ele>219.66666666666666</ele><time>2026-03-28T14:03:48.383Z</time></trkpt><trkpt lat="40.3960533" lon="8.40493"><ele>223.0</ele><time>2026-03-28T14:03:49.384Z</time></trkpt><trkpt lat="40.395885" lon="8.40498"><ele>223.0</ele><time>2026-03-28T14:03:50.383Z</time></trkpt><trkpt lat="40.395715" lon="8.404985"><ele>223.0</ele><time>2026-03-28T14:03:51.383Z</time></trkpt><trkpt lat="40.3955367" lon="8.4049367"><ele>223.0</ele><time>2026-03-28T14:03:52.384Z</time></trkpt><trkpt lat="40.39535" lon="8.4048917"><ele>222.33333333333331</ele><time>2026-03-28T14:03:53.384Z</time></trkpt><trkpt lat="40.3951417" lon="8.4048467"><ele>221.66666666666669</ele><time>2026-03-28T14:03:54.384Z</time></trkpt><trkpt lat="40.394915" lon="8.4048383"><ele>221.0</ele><time>2026-03-28T14:03:55.384Z</time></trkpt><trkpt lat="40.3946717" lon="8.4048367"><ele>221.5</ele><time>2026-03-28T14:03:56.383Z</time></trkpt><trkpt lat="40.39442" lon="8.404845"><ele>222.0</ele><time>2026-03-28T14:03:57.384Z</time></trkpt><trkpt lat="40.3941567" lon="8.40486"><ele>222.0</ele><time>2026-03-28T14:03:58.384Z</time></trkpt><trkpt lat="40.3939067" lon="8.4048733"><ele>222.0</ele><time>2026-03-28T14:03:59.383Z</time></trkpt><trkpt lat="40.3936667" lon="8.4048917"><ele>222.5</ele><time>2026-03-28T14:04:00.384Z</time></trkpt><trkpt lat="40.39344" lon="8.4049067"><ele>223.0</ele><time>2026-03-28T14:04:01.383Z</time></trkpt><trkpt lat="40.3932133" lon="8.404905"><ele>229.0</ele><time>2026-03-28T14:04:02.384Z</time></trkpt><trkpt lat="40.3929883" lon="8.4048933"><ele>235.0</ele><time>2026-03-28T14:04:03.383Z</time></trkpt><trkpt lat="40.392765" lon="8.40485"><ele>235.0</ele><time>2026-03-28T14:04:04.384Z</time></trkpt><trkpt lat="40.3925467" lon="8.4047617"><ele>235.0</ele><time>2026-03-28T14:04:05.383Z</time></trkpt><trkpt lat="40.3923283" lon="8.4046583"><ele>227.33333333333331</ele><time>2026-03-28T14:04:06.383Z</time></trkpt><trkpt lat="40.3921183" lon="8.404555"><ele>219.66666666666669</ele><time>2026-03-28T14:04:07.383Z</time></trkpt><trkpt lat="40.3919233" lon="8.40446"><ele>212.0</ele><time>2026-03-28T14:04:08.384Z</time></trkpt><trkpt lat="40.3917467" lon="8.4044067"><ele>212.0</ele><time>2026-03-28T14:04:09.383Z</time></trkpt><trkpt lat="40.39157" lon="8.4043983"><ele>212.0</ele><time>2026-03-28T14:04:10.383Z</time></trkpt><trkpt lat="40.3913983" lon="8.4044517"><ele>212.0</ele><time>2026-03-28T14:04:11.384Z</time></trkpt><trkpt lat="40.3912367" lon="8.404565"><ele>219.0</ele><time>2026-03-28T14:04:12.384Z</time></trkpt><trkpt lat="40.39111" lon="8.40472"><ele>226.0</ele><time>2026-03-28T14:04:13.384Z</time></trkpt><trkpt lat="40.390995" lon="8.404895"><ele>233.0</ele><time>2026-03-28T14:04:14.383Z</time></trkpt><trkpt lat="40.3908683" lon="8.405015"><ele>233.0</ele><time>2026-03-28T14:04:15.384Z</time></trkpt><trkpt lat="40.39072" lon="8.4050733"><ele>233.0</ele><time>2026-03-28T14:04:16.384Z</time></trkpt><trkpt lat="40.3905683" lon="8.4050783"><ele>233.0</ele><time>2026-03-28T14:04:17.384Z</time></trkpt><trkpt lat="40.3904133" lon="8.4050283"><ele>234.0</ele><time>2026-03-28T14:04:18.384Z</time></trkpt><trkpt lat="40.39027" lon="8.404925"><ele>235.0</ele><time>2026-03-28T14:04:19.384Z</time></trkpt><trkpt lat="40.390145" lon="8.404765"><ele>236.0</ele><time>2026-03-28T14:04:20.384Z</time></trkpt><trkpt lat="40.3900483" lon="8.4045717"><ele>233.66666666666669</ele><time>2026-03-28T14:04:21.384Z</time></trkpt><trkpt lat="40.3899933" lon="8.4043483"><ele>231.33333333333331</ele><time>2026-03-28T14:04:22.384Z</time></trkpt><trkpt lat="40.3899767" lon="8.4040967"><ele>229.0</ele><time>2026-03-28T14:04:23.384Z</time></trkpt><trkpt lat="40.3899883" lon="8.403835"><ele>228.0</ele><time>2026-03-28T14:04:24.383Z</time></trkpt><trkpt lat="40.390005" lon="8.4036117"><ele>227.0</ele><time>2026-03-28T14:04:25.384Z</time></trkpt><trkpt lat="40.39" lon="8.4033883"><ele>226.0</ele><time>2026-03-28T14:04:26.384Z</time></trkpt><trkpt lat="40.38994" lon="8.40319"><ele>226.0</ele><time>2026-03-28T14:04:27.384Z</time></trkpt><trkpt lat="40.389855" lon="8.4030217"><ele>226.0</ele><time>2026-03-28T14:04:28.384Z</time></trkpt><trkpt lat="40.389745" lon="8.4029117"><ele>226.0</ele><time>2026-03-28T14:04:29.384Z</time></trkpt><trkpt lat="40.38961" lon="8.402835"><ele>226.0</ele><time>2026-03-28T14:04:30.384Z</time></trkpt><trkpt lat="40.38943" lon="8.4027917"><ele>221.0</ele><time>2026-03-28T14:04:31.384Z</time></trkpt><trkpt lat="40.38924" lon="8.4027667"><ele>216.0</ele><time>2026-03-28T14:04:32.384Z</time></trkpt><trkpt lat="40.3890267" lon="8.4027617"><ele>211.0</ele><time>2026-03-28T14:04:33.383Z</time></trkpt><trkpt lat="40.3888" lon="8.4027433"><ele>211.0</ele><time>2026-03-28T14:04:34.384Z</time></trkpt><trkpt lat="40.3885633" lon="8.40274"><ele>211.0</ele><time>2026-03-28T14:04:35.384Z</time></trkpt><trkpt lat="40.38832" lon="8.4027283"><ele>211.0</ele><time>2026-03-28T14:04:36.383Z</time></trkpt><trkpt lat="40.3880617" lon="8.4027167"><ele>211.0</ele><time>2026-03-28T14:04:37.384Z</time></trkpt><trkpt lat="40.387815" lon="8.4027133"><ele>213.5</ele><time>2026-03-28T14:04:38.384Z</time></trkpt><trkpt lat="40.3875633" lon="8.4027017"><ele>216.0</ele><time>2026-03-28T14:04:39.383Z</time></trkpt><trkpt lat="40.3873167" lon="8.40269"><ele>215.0</ele><time>2026-03-28T14:04:40.384Z</time></trkpt><trkpt lat="40.3870783" lon="8.4026917"><ele>214.0</ele><time>2026-03-28T14:04:41.384Z</time></trkpt><trkpt lat="40.3868383" lon="8.40272"><ele>214.0</ele><time>2026-03-28T14:04:42.384Z</time></trkpt><trkpt lat="40.3865933" lon="8.402755"><ele>214.0</ele><time>2026-03-28T14:04:43.384Z</time></trkpt><trkpt lat="40.3863517" lon="8.4027817"><ele>219.5</ele><time>2026-03-28T14:04:44.384Z</time></trkpt><trkpt lat="40.386115" lon="8.4028083"><ele>225.0</ele><time>2026-03-28T14:04:45.384Z</time></trkpt><trkpt lat="40.3858833" lon="8.40284"><ele>225.0</ele><time>2026-03-28T14:04:46.383Z</time></trkpt><trkpt lat="40.3856767" lon="8.402865"><ele>225.0</ele><time>2026-03-28T14:04:47.384Z</time></trkpt><trkpt lat="40.3854883" lon="8.4028883"><ele>225.0</ele><time>2026-03-28T14:04:48.384Z</time></trkpt><trkpt lat="40.3853133" lon="8.4029167"><ele>225.33333333333331</ele><time>2026-03-28T14:04:49.383Z</time></trkpt><trkpt lat="40.3851517" lon="8.4029767"><ele>225.66666666666666</ele><time>2026-03-28T14:04:50.384Z</time></trkpt><trkpt lat="40.3850233" lon="8.403075"><ele>226.0</ele><time>2026-03-28T14:04:51.383Z</time></trkpt><trkpt lat="40.3849267" lon="8.4032283"><ele>232.66666666666666</ele><time>2026-03-28T14:04:52.383Z</time></trkpt><trkpt lat="40.384845" lon="8.4034167"><ele>239.33333333333331</ele><time>2026-03-28T14:04:53.384Z</time></trkpt><trkpt lat="40.3847733" lon="8.4036033"><ele>246.0</ele><time>2026-03-28T14:04:54.384Z</time></trkpt><trkpt lat="40.3846967" lon="8.40379"><ele>247.25</ele><time>2026-03-28T14:04:55.384Z</time></trkpt><trkpt lat="40.3846233" lon="8.4039633"><ele>248.5</ele><time>2026-03-28T14:04:56.384Z</time></trkpt><trkpt lat="40.3845533" lon="8.4041383"><ele>249.75</ele><time>2026-03-28T14:04:57.384Z</time></trkpt><trkpt lat="40.3844867" lon="8.4042733"><ele>251.0</ele><time>2026-03-28T14:04:58.384Z</time></trkpt><trkpt lat="40.3843967" lon="8.4043633"><ele>251.0</ele><time>2026-03-28T14:04:59.384Z</time></trkpt><trkpt lat="40.3842833" lon="8.404445"><ele>251.0</ele><time>2026-03-28T14:05:00.383Z</time></trkpt><trkpt lat="40.38416" lon="8.4045183"><ele>251.0</ele><time>2026-03-28T14:05:01.384Z</time></trkpt><trkpt lat="40.3840333" lon="8.4045633"><ele>251.0</ele><time>2026-03-28T14:05:02.383Z</time></trkpt><trkpt lat="40.3839117" lon="8.404575"><ele>254.25</ele><time>2026-03-28T14:05:03.384Z</time></trkpt><trkpt lat="40.383805" lon="8.4045383"><ele>257.5</ele><time>2026-03-28T14:05:04.384Z</time></trkpt><trkpt lat="40.3836883" lon="8.4044783"><ele>260.75</ele><time>2026-03-28T14:05:05.384Z</time></trkpt><trkpt lat="40.38358" lon="8.404395"><ele>264.0</ele><time>2026-03-28T14:05:06.383Z</time></trkpt><trkpt lat="40.38349" lon="8.4042817"><ele>264.0</ele><time>2026-03-28T14:05:07.384Z</time></trkpt><trkpt lat="40.3834" lon="8.40415"><ele>264.0</ele><time>2026-03-28T14:05:08.384Z</time></trkpt><trkpt lat="40.3833217" lon="8.40401"><ele>264.0</ele><time>2026-03-28T14:05:09.384Z</time></trkpt><trkpt lat="40.3832333" lon="8.4038733"><ele>264.0</ele><time>2026-03-28T14:05:10.384Z</time></trkpt><trkpt lat="40.3831417" lon="8.4037633"><ele>262.0</ele><time>2026-03-28T14:05:11.383Z</time></trkpt><trkpt lat="40.3830283" lon="8.4036633"><ele>260.0</ele><time>2026-03-28T14:05:12.384Z</time></trkpt><trkpt lat="40.3829083" lon="8.403605"><ele>258.0</ele><time>2026-03-28T14:05:13.384Z</time></trkpt><trkpt lat="40.38278" lon="8.4035917"><ele>256.0</ele><time>2026-03-28T14:05:14.384Z</time></trkpt><trkpt lat="40.38265" lon="8.40359"><ele>256.0</ele><time>2026-03-28T14:05:15.384Z</time></trkpt><trkpt lat="40.3825217" lon="8.4036167"><ele>256.0</ele><time>2026-03-28T14:05:16.384Z</time></trkpt><trkpt lat="40.3823967" lon="8.40369"><ele>256.0</ele><time>2026-03-28T14:05:17.384Z</time></trkpt><trkpt lat="40.3822833" lon="8.4038167"><ele>256.0</ele><time>2026-03-28T14:05:18.384Z</time></trkpt><trkpt lat="40.3821683" lon="8.4039833"><ele>257.3333333333333</ele><time>2026-03-28T14:05:19.383Z</time></trkpt><trkpt lat="40.382075" lon="8.40418"><ele>258.6666666666667</ele><time>2026-03-28T14:05:20.384Z</time></trkpt><trkpt lat="40.38198" lon="8.4043967"><ele>260.0</ele><time>2026-03-28T14:05:21.384Z</time></trkpt><trkpt lat="40.38188" lon="8.4046433"><ele>270.5</ele><time>2026-03-28T14:05:22.384Z</time></trkpt><trkpt lat="40.3817667" lon="8.40491"><ele>281.0</ele><time>2026-03-28T14:05:23.384Z</time></trkpt><trkpt lat="40.3816417" lon="8.4052033"><ele>281.0</ele><time>2026-03-28T14:05:24.384Z</time></trkpt><trkpt lat="40.38151" lon="8.405495"><ele>281.0</ele><time>2026-03-28T14:05:25.383Z</time></trkpt><trkpt lat="40.381375" lon="8.4057917"><ele>285.0</ele><time>2026-03-28T14:05:26.384Z</time></trkpt><trkpt lat="40.3812533" lon="8.4061017"><ele>289.0</ele><time>2026-03-28T14:05:27.384Z</time></trkpt><trkpt lat="40.3811383" lon="8.4063783"><ele>289.0</ele><time>2026-03-28T14:05:28.384Z</time></trkpt><trkpt lat="40.3810333" lon="8.4066283"><ele>289.0</ele><time>2026-03-28T14:05:29.384Z</time></trkpt><trkpt lat="40.3809317" lon="8.406875"><ele>289.0</ele><time>2026-03-28T14:05:30.384Z</time></trkpt><trkpt lat="40.38084" lon="8.4071083"><ele>295.0</ele><time>2026-03-28T14:05:31.384Z</time></trkpt><trkpt lat="40.3807433" lon="8.4072967"><ele>301.0</ele><time>2026-03-28T14:05:32.383Z</time></trkpt><trkpt lat="40.3806367" lon="8.407435"><ele>307.0</ele><time>2026-03-28T14:05:33.384Z</time></trkpt><trkpt lat="40.3804967" lon="8.40754"><ele>307.0</ele><time>2026-03-28T14:05:34.384Z</time></trkpt><trkpt lat="40.380335" lon="8.4075917"><ele>307.0</ele><time>2026-03-28T14:05:35.384Z</time></trkpt><trkpt lat="40.380175" lon="8.40759"><ele>307.0</ele><time>2026-03-28T14:05:36.384Z</time></trkpt><trkpt lat="40.3800183" lon="8.40753"><ele>307.0</ele><time>2026-03-28T14:05:37.383Z</time></trkpt><trkpt lat="40.3798733" lon="8.4074167"><ele>307.0</ele><time>2026-03-28T14:05:38.384Z</time></trkpt><trkpt lat="40.3797433" lon="8.4072717"><ele>307.0</ele><time>2026-03-28T14:05:39.384Z</time></trkpt><trkpt lat="40.3796217" lon="8.40707"><ele>310.0</ele><time>2026-03-28T14:05:40.383Z</time></trkpt><trkpt lat="40.379505" lon="8.4068633"><ele>313.0</ele><time>2026-03-28T14:05:41.384Z</time></trkpt><trkpt lat="40.3793833" lon="8.4066633"><ele>316.0</ele><time>2026-03-28T14:05:42.384Z</time></trkpt><trkpt lat="40.3792533" lon="8.40651"><ele>316.0</ele><time>2026-03-28T14:05:43.384Z</time></trkpt><trkpt lat="40.3791217" lon="8.40639"><ele>316.0</ele><time>2026-03-28T14:05:44.384Z</time></trkpt><trkpt lat="40.378965" lon="8.40631"><ele>316.0</ele><time>2026-03-28T14:05:45.383Z</time></trkpt><trkpt lat="40.3787917" lon="8.40626"><ele>317.3333333333333</ele><time>2026-03-28T14:05:46.383Z</time></trkpt><trkpt lat="40.378625" lon="8.4062183"><ele>318.6666666666667</ele><time>2026-03-28T14:05:47.384Z</time></trkpt><trkpt lat="40.378465" lon="8.406175"><ele>320.0</ele><time>2026-03-28T14:05:48.384Z</time></trkpt><trkpt lat="40.3783333" lon="8.4060867"><ele>320.0</ele><time>2026-03-28T14:05:49.384Z</time></trkpt><trkpt lat="40.378215" lon="8.4059383"><ele>320.0</ele><time>2026-03-28T14:05:50.383Z</time></trkpt><trkpt lat="40.3781183" lon="8.4057417"><ele>320.0</ele><time>2026-03-28T14:05:51.384Z</time></trkpt><trkpt lat="40.3780333" lon="8.405505"><ele>329.33333333333337</ele><time>2026-03-28T14:05:52.384Z</time></trkpt><trkpt lat="40.3779667" lon="8.4052533"><ele>338.6666666666667</ele><time>2026-03-28T14:05:53.384Z</time></trkpt><trkpt lat="40.3779067" lon="8.4050083"><ele>348.0</ele><time>2026-03-28T14:05:54.384Z</time></trkpt><trkpt lat="40.377855" lon="8.4047717"><ele>346.6666666666667</ele><time>2026-03-28T14:05:55.384Z</time></trkpt><trkpt lat="40.37779" lon="8.40456"><ele>345.33333333333337</ele><time>2026-03-28T14:05:56.383Z</time></trkpt><trkpt lat="40.3776883" lon="8.4043733"><ele>344.0</ele><time>2026-03-28T14:05:57.384Z</time></trkpt><trkpt lat="40.377565" lon="8.4042283"><ele>344.0</ele><time>2026-03-28T14:05:58.384Z</time></trkpt><trkpt lat="40.3774083" lon="8.4041267"><ele>344.0</ele><time>2026-03-28T14:05:59.384Z</time></trkpt><trkpt lat="40.3772333" lon="8.4040767"><ele>344.0</ele><time>2026-03-28T14:06:00.384Z</time></trkpt><trkpt lat="40.37704" lon="8.40406"><ele>345.5</ele><time>2026-03-28T14:06:01.384Z</time></trkpt><trkpt lat="40.376815" lon="8.4040567"><ele>347.0</ele><time>2026-03-28T14:06:02.384Z</time></trkpt><trkpt lat="40.3765883" lon="8.40406"><ele>347.0</ele><time>2026-03-28T14:06:03.384Z</time></trkpt><trkpt lat="40.3763533" lon="8.4040617"><ele>347.0</ele><time>2026-03-28T14:06:04.384Z</time></trkpt><trkpt lat="40.37613" lon="8.4040667"><ele>347.6666666666667</ele><time>2026-03-28T14:06:05.384Z</time></trkpt><trkpt lat="40.3759417" lon="8.4040767"><ele>348.3333333333333</ele><time>2026-03-28T14:06:06.384Z</time></trkpt><trkpt lat="40.3757667" lon="8.4040967"><ele>349.0</ele><time>2026-03-28T14:06:07.384Z</time></trkpt><trkpt lat="40.3756067" lon="8.4041683"><ele>349.66666666666663</ele><time>2026-03-28T14:06:08.383Z</time></trkpt><trkpt lat="40.37547" lon="8.4043133"><ele>350.3333333333333</ele><time>2026-03-28T14:06:09.384Z</time></trkpt><trkpt lat="40.375355" lon="8.404515"><ele>351.0</ele><time>2026-03-28T14:06:10.384Z</time></trkpt><trkpt lat="40.3752767" lon="8.4047383"><ele>351.0</ele><time>2026-03-28T14:06:11.384Z</time></trkpt><trkpt lat="40.375195" lon="8.4049683"><ele>351.0</ele><time>2026-03-28T14:06:12.383Z</time></trkpt><trkpt lat="40.3751133" lon="8.4051533"><ele>351.0</ele><time>2026-03-28T14:06:13.384Z</time></trkpt><trkpt lat="40.375015" lon="8.4052633"><ele>351.0</ele><time>2026-03-28T14:06:14.384Z</time></trkpt><trkpt lat="40.3748967" lon="8.4053167"><ele>351.0</ele><time>2026-03-28T14:06:15.383Z</time></trkpt><trkpt lat="40.3747533" lon="8.405355"><ele>351.0</ele><time>2026-03-28T14:06:16.384Z</time></trkpt><trkpt lat="40.3746017" lon="8.4053417"><ele>351.0</ele><time>2026-03-28T14:06:17.384Z</time></trkpt><trkpt lat="40.3744483" lon="8.40529"><ele>352.3333333333333</ele><time>2026-03-28T14:06:18.383Z</time></trkpt><trkpt lat="40.3742783" lon="8.4052433"><ele>353.66666666666663</ele><time>2026-03-28T14:06:19.383Z</time></trkpt><trkpt lat="40.374105" lon="8.4052017"><ele>355.0</ele><time>2026-03-28T14:06:20.384Z</time></trkpt><trkpt lat="40.3739333" lon="8.4051583"><ele>359.0</ele><time>2026-03-28T14:06:21.384Z</time></trkpt><trkpt lat="40.373775" lon="8.4051217"><ele>363.0</ele><time>2026-03-28T14:06:22.384Z</time></trkpt><trkpt lat="40.3734967" lon="8.405045"><ele>367.0</ele><time>2026-03-28T14:06:24.384Z</time></trkpt><trkpt lat="40.3733683" lon="8.4050017"><ele>367.0</ele><time>2026-03-28T14:06:25.384Z</time></trkpt><trkpt lat="40.37325" lon="8.4049433"><ele>367.0</ele><time>2026-03-28T14:06:26.384Z</time></trkpt><trkpt lat="40.373145" lon="8.4048267"><ele>367.0</ele><time>2026-03-28T14:06:27.384Z</time></trkpt><trkpt lat="40.373055" lon="8.4046683"><ele>367.0</ele><time>2026-03-28T14:06:28.383Z</time></trkpt><trkpt lat="40.3729967" lon="8.4044817"><ele>372.3333333333333</ele><time>2026-03-28T14:06:29.384Z</time></trkpt><trkpt lat="40.3729717" lon="8.4042633"><ele>377.6666666666667</ele><time>2026-03-28T14:06:30.384Z</time></trkpt><trkpt lat="40.3729833" lon="8.4040333"><ele>383.0</ele><time>2026-03-28T14:06:31.384Z</time></trkpt><trkpt lat="40.373" lon="8.403795"><ele>383.0</ele><time>2026-03-28T14:06:32.383Z</time></trkpt><trkpt lat="40.373015" lon="8.4035367"><ele>383.0</ele><time>2026-03-28T14:06:33.384Z</time></trkpt><trkpt lat="40.3730183" lon="8.4032783"><ele>383.0</ele><time>2026-03-28T14:06:34.384Z</time></trkpt><trkpt lat="40.373" lon="8.4030383"><ele>380.0</ele><time>2026-03-28T14:06:35.384Z</time></trkpt><trkpt lat="40.3729633" lon="8.4028167"><ele>377.0</ele><time>2026-03-28T14:06:36.384Z</time></trkpt><trkpt lat="40.3729183" lon="8.4026"><ele>374.0</ele><time>2026-03-28T14:06:37.383Z</time></trkpt><trkpt lat="40.37285" lon="8.4024117"><ele>374.0</ele><time>2026-03-28T14:06:38.384Z</time></trkpt><trkpt lat="40.3727683" lon="8.40224"><ele>374.0</ele><time>2026-03-28T14:06:39.384Z</time></trkpt><trkpt lat="40.3726567" lon="8.4021067"><ele>374.0</ele><time>2026-03-28T14:06:40.384Z</time></trkpt><trkpt lat="40.3725133" lon="8.402015"><ele>370.0</ele><time>2026-03-28T14:06:41.384Z</time></trkpt><trkpt lat="40.3723567" lon="8.4019817"><ele>366.0</ele><time>2026-03-28T14:06:42.383Z</time></trkpt><trkpt lat="40.372175" lon="8.40196"><ele>362.0</ele><time>2026-03-28T14:06:43.383Z</time></trkpt><trkpt lat="40.3719783" lon="8.4019533"><ele>361.0</ele><time>2026-03-28T14:06:44.384Z</time></trkpt><trkpt lat="40.3717767" lon="8.40195"><ele>360.0</ele><time>2026-03-28T14:06:45.383Z</time></trkpt><trkpt lat="40.37156" lon="8.4019217"><ele>359.0</ele><time>2026-03-28T14:06:46.384Z</time></trkpt><trkpt lat="40.3713317" lon="8.4018917"><ele>359.0</ele><time>2026-03-28T14:06:47.384Z</time></trkpt><trkpt lat="40.3710917" lon="8.4018683"><ele>359.0</ele><time>2026-03-28T14:06:48.384Z</time></trkpt><trkpt lat="40.3708517" lon="8.4018333"><ele>359.0</ele><time>2026-03-28T14:06:49.384Z</time></trkpt><trkpt lat="40.3706133" lon="8.4018033"><ele>359.0</ele><time>2026-03-28T14:06:50.384Z</time></trkpt><trkpt lat="40.3703767" lon="8.4017783"><ele>359.0</ele><time>2026-03-28T14:06:51.384Z</time></trkpt><trkpt lat="40.3701433" lon="8.4017533"><ele>359.0</ele><time>2026-03-28T14:06:52.384Z</time></trkpt><trkpt lat="40.369915" lon="8.4017183"><ele>362.0</ele><time>2026-03-28T14:06:53.384Z</time></trkpt><trkpt lat="40.3696883" lon="8.40169"><ele>365.0</ele><time>2026-03-28T14:06:54.384Z</time></trkpt><trkpt lat="40.369465" lon="8.40165"><ele>365.0</ele><time>2026-03-28T14:06:55.384Z</time></trkpt><trkpt lat="40.3692417" lon="8.4016283"><ele>365.0</ele><time>2026-03-28T14:06:56.384Z</time></trkpt><trkpt lat="40.3690267" lon="8.4016167"><ele>365.0</ele><time>2026-03-28T14:06:57.384Z</time></trkpt><trkpt lat="40.36881" lon="8.40161"><ele>365.0</ele><time>2026-03-28T14:06:58.384Z</time></trkpt><trkpt lat="40.3685867" lon="8.4016267"><ele>365.0</ele><time>2026-03-28T14:06:59.384Z</time></trkpt><trkpt lat="40.3683767" lon="8.4016517"><ele>365.0</ele><time>2026-03-28T14:07:00.384Z</time></trkpt><trkpt lat="40.3681667" lon="8.4016667"><ele>365.6666666666667</ele><time>2026-03-28T14:07:01.384Z</time></trkpt><trkpt lat="40.3679517" lon="8.401675"><ele>366.3333333333333</ele><time>2026-03-28T14:07:02.384Z</time></trkpt><trkpt lat="40.3677433" lon="8.4016533"><ele>367.0</ele><time>2026-03-28T14:07:03.384Z</time></trkpt><trkpt lat="40.3729833" lon="8.4040333"><ele>372.3333333333333</ele><time>2026-03-28T14:06:31.384Z</time></trkpt><trkpt lat="40.373" lon="8.403795"><ele>377.6666666666667</ele><time>2026-03-28T14:06:32.383Z</time></trkpt><trkpt lat="40.373015" lon="8.4035367"><ele>383.0</ele><time>2026-03-28T14:06:33.384Z</time></trkpt><trkpt lat="40.3730183" lon="8.4032783"><ele>383.0</ele><time>2026-03-28T14:06:34.384Z</time></trkpt><trkpt lat="40.373" lon="8.4030383"><ele>383.0</ele><time>2026-03-28T14:06:35.384Z</time></trkpt><trkpt lat="40.3729633" lon="8.4028167"><ele>383.0</ele><time>2026-03-28T14:06:36.384Z</time></trkpt><trkpt lat="40.3729183" lon="8.4026"><ele>380.0</ele><time>2026-03-28T14:06:37.383Z</time></trkpt><trkpt lat="40.37285" lon="8.4024117"><ele>377.0</ele><time>2026-03-28T14:06:38.384Z</time></trkpt><trkpt lat="40.3727683" lon="8.40224"><ele>374.0</ele><time>2026-03-28T14:06:39.384Z</time></trkpt><trkpt lat="40.3726567" lon="8.4021067"><ele>370.0</ele><time>2026-03-28T14:06:40.384Z</time></trkpt><trkpt lat="40.3725133" lon="8.402015"><ele>366.0</ele><time>2026-03-28T14:06:41.384Z</time></trkpt><trkpt lat="40.3723567" lon="8.4019817"><ele>362.0</ele><time>2026-03-28T14:06:42.383Z</time></trkpt><trkpt lat="40.372175" lon="8.40196"><ele>359.6666666666667</ele><time>2026-03-28T14:06:43.383Z</time></trkpt><trkpt lat="40.3719783" lon="8.4019533"><ele>357.3333333333333</ele><time>2026-03-28T14:06:44.384Z</time></trkpt><trkpt lat="40.3717767" lon="8.40195"><ele>355.0</ele><time>2026-03-28T14:06:45.383Z</time></trkpt><trkpt lat="40.37156" lon="8.4019217"><ele>357.0</ele><time>2026-03-28T14:06:46.384Z</time></trkpt><trkpt lat="40.3713317" lon="8.4018917"><ele>359.0</ele><time>2026-03-28T14:06:47.384Z</time></trkpt><trkpt lat="40.3710917" lon="8.4018683"><ele>359.0</ele><time>2026-03-28T14:06:48.384Z</time></trkpt><trkpt lat="40.3708517" lon="8.4018333"><ele>359.0</ele><time>2026-03-28T14:06:49.384Z</time></trkpt><trkpt lat="40.3706133" lon="8.4018033"><ele>359.0</ele><time>2026-03-28T14:06:50.384Z</time></trkpt><trkpt lat="40.3703767" lon="8.4017783"><ele>359.0</ele><time>2026-03-28T14:06:51.384Z</time></trkpt><trkpt lat="40.3701433" lon="8.4017533"><ele>359.0</ele><time>2026-03-28T14:06:52.384Z</time></trkpt><trkpt lat="40.369915" lon="8.4017183"><ele>359.0</ele><time>2026-03-28T14:06:53.384Z</time></trkpt><trkpt lat="40.3696883" lon="8.40169"><ele>361.0</ele><time>2026-03-28T14:06:54.384Z</time></trkpt><trkpt lat="40.369465" lon="8.40165"><ele>363.0</ele><time>2026-03-28T14:06:55.384Z</time></trkpt><trkpt lat="40.3692417" lon="8.4016283"><ele>365.0</ele><time>2026-03-28T14:06:56.384Z</time></trkpt><trkpt lat="40.3690267" lon="8.4016167"><ele>365.0</ele><time>2026-03-28T14:06:57.384Z</time></trkpt><trkpt lat="40.36881" lon="8.40161"><ele>365.0</ele><time>2026-03-28T14:06:58.384Z</time></trkpt><trkpt lat="40.3685867" lon="8.4016267"><ele>365.0</ele><time>2026-03-28T14:06:59.384Z</time></trkpt><trkpt lat="40.3683767" lon="8.4016517"><ele>365.0</ele><time>2026-03-28T14:07:00.384Z</time></trkpt><trkpt lat="40.3681667" lon="8.4016667"><ele>365.0</ele><time>2026-03-28T14:07:01.384Z</time></trkpt><trkpt lat="40.3679517" lon="8.401675"><ele>365.0</ele><time>2026-03-28T14:07:02.384Z</time></trkpt><trkpt lat="40.3677433" lon="8.4016533"><ele>365.6666666666667</ele><time>2026-03-28T14:07:03.384Z</time></trkpt><trkpt lat="40.3675483" lon="8.4015983"><ele>366.3333333333333</ele><time>2026-03-28T14:07:04.383Z</time></trkpt><trkpt lat="40.3673567" lon="8.4015033"><ele>367.0</ele><time>2026-03-28T14:07:05.384Z</time></trkpt><trkpt lat="40.36716" lon="8.4014"><ele>360.0</ele><time>2026-03-28T14:07:06.384Z</time></trkpt><trkpt lat="40.3669917" lon="8.40129"><ele>353.0</ele><time>2026-03-28T14:07:07.384Z</time></trkpt><trkpt lat="40.3668083" lon="8.4012217"><ele>346.0</ele><time>2026-03-28T14:07:08.383Z</time></trkpt><trkpt lat="40.3666467" lon="8.4011983"><ele>346.0</ele><time>2026-03-28T14:07:09.384Z</time></trkpt><trkpt lat="40.3664817" lon="8.4012367"><ele>346.0</ele><time>2026-03-28T14:07:10.383Z</time></trkpt><trkpt lat="40.3663317" lon="8.401345"><ele>346.0</ele><time>2026-03-28T14:07:11.383Z</time></trkpt><trkpt lat="40.3661933" lon="8.4015183"><ele>349.0</ele><time>2026-03-28T14:07:12.384Z</time></trkpt><trkpt lat="40.366065" lon="8.4016967"><ele>352.0</ele><time>2026-03-28T14:07:13.384Z</time></trkpt><trkpt lat="40.3659317" lon="8.401855"><ele>355.0</ele><time>2026-03-28T14:07:14.384Z</time></trkpt><trkpt lat="40.36577" lon="8.4019567"><ele>355.0</ele><time>2026-03-28T14:07:15.384Z</time></trkpt><trkpt lat="40.3655883" lon="8.4019833"><ele>355.0</ele><time>2026-03-28T14:07:16.384Z</time></trkpt><trkpt lat="40.36539" lon="8.4019817"><ele>355.0</ele><time>2026-03-28T14:07:17.384Z</time></trkpt><trkpt lat="40.3652117" lon="8.4020033"><ele>352.5</ele><time>2026-03-28T14:07:18.384Z</time></trkpt><trkpt lat="40.36507" lon="8.4020467"><ele>350.0</ele><time>2026-03-28T14:07:19.384Z</time></trkpt><trkpt lat="40.364935" lon="8.4021117"><ele>347.5</ele><time>2026-03-28T14:07:20.384Z</time></trkpt><trkpt lat="40.36482" lon="8.4022217"><ele>345.0</ele><time>2026-03-28T14:07:21.383Z</time></trkpt><trkpt lat="40.3647417" lon="8.4023667"><ele>346.6666666666667</ele><time>2026-03-28T14:07:22.383Z</time></trkpt><trkpt lat="40.3646783" lon="8.4025467"><ele>348.33333333333337</ele><time>2026-03-28T14:07:23.384Z</time></trkpt><trkpt lat="40.3646483" lon="8.4027583"><ele>350.0</ele><time>2026-03-28T14:07:24.383Z</time></trkpt><trkpt lat="40.3646617" lon="8.402965"><ele>356.0</ele><time>2026-03-28T14:07:25.384Z</time></trkpt><trkpt lat="40.3647117" lon="8.4031567"><ele>362.0</ele><time>2026-03-28T14:07:26.383Z</time></trkpt><trkpt lat="40.3647983" lon="8.40332"><ele>368.0</ele><time>2026-03-28T14:07:27.384Z</time></trkpt><trkpt lat="40.364915" lon="8.4034533"><ele>368.0</ele><time>2026-03-28T14:07:28.384Z</time></trkpt><trkpt lat="40.3650717" lon="8.4035517"><ele>368.0</ele><time>2026-03-28T14:07:29.384Z</time></trkpt><trkpt lat="40.36524" lon="8.4036267"><ele>368.0</ele><time>2026-03-28T14:07:30.384Z</time></trkpt><trkpt lat="40.3654233" lon="8.403715"><ele>366.33333333333337</ele><time>2026-03-28T14:07:31.384Z</time></trkpt><trkpt lat="40.3656067" lon="8.4038083"><ele>364.6666666666667</ele><time>2026-03-28T14:07:32.384Z</time></trkpt><trkpt lat="40.3657967" lon="8.40392"><ele>363.0</ele><time>2026-03-28T14:07:33.384Z</time></trkpt><trkpt lat="40.3659783" lon="8.4040667"><ele>363.0</ele><time>2026-03-28T14:07:34.384Z</time></trkpt><trkpt lat="40.36614" lon="8.4042383"><ele>363.0</ele><time>2026-03-28T14:07:35.384Z</time></trkpt><trkpt lat="40.3662917" lon="8.4044167"><ele>363.0</ele><time>2026-03-28T14:07:36.384Z</time></trkpt><trkpt lat="40.3664383" lon="8.4045917"><ele>361.6666666666667</ele><time>2026-03-28T14:07:37.384Z</time></trkpt><trkpt lat="40.3665767" lon="8.40478"><ele>360.33333333333337</ele><time>2026-03-28T14:07:38.383Z</time></trkpt><trkpt lat="40.366725" lon="8.40494"><ele>359.0</ele><time>2026-03-28T14:07:39.384Z</time></trkpt><trkpt lat="40.3668883" lon="8.405065"><ele>359.0</ele><time>2026-03-28T14:07:40.384Z</time></trkpt><trkpt lat="40.36704" lon="8.4051817"><ele>359.0</ele><time>2026-03-28T14:07:41.383Z</time></trkpt><trkpt lat="40.3671817" lon="8.4052833"><ele>359.0</ele><time>2026-03-28T14:07:42.384Z</time></trkpt><trkpt lat="40.3672983" lon="8.40541"><ele>359.0</ele><time>2026-03-28T14:07:43.384Z</time></trkpt><trkpt lat="40.3673783" lon="8.405555"><ele>359.0</ele><time>2026-03-28T14:07:44.383Z</time></trkpt><trkpt lat="40.3674167" lon="8.4057367"><ele>359.0</ele><time>2026-03-28T14:07:45.384Z</time></trkpt><trkpt lat="40.3674183" lon="8.4059367"><ele>359.0</ele><time>2026-03-28T14:07:46.384Z</time></trkpt><trkpt lat="40.3673683" lon="8.4061383"><ele>359.0</ele><time>2026-03-28T14:07:47.384Z</time></trkpt><trkpt lat="40.3672667" lon="8.4063233"><ele>359.0</ele><time>2026-03-28T14:07:48.384Z</time></trkpt><trkpt lat="40.367135" lon="8.406495"><ele>359.0</ele><time>2026-03-28T14:07:49.384Z</time></trkpt><trkpt lat="40.3670033" lon="8.4066933"><ele>355.6666666666667</ele><time>2026-03-28T14:07:50.383Z</time></trkpt><trkpt lat="40.3668767" lon="8.4068933"><ele>352.3333333333333</ele><time>2026-03-28T14:07:51.384Z</time></trkpt><trkpt lat="40.3667383" lon="8.4070983"><ele>349.0</ele><time>2026-03-28T14:07:52.384Z</time></trkpt><trkpt lat="40.3666033" lon="8.4072983"><ele>349.0</ele><time>2026-03-28T14:07:53.384Z</time></trkpt><trkpt lat="40.3664933" lon="8.4075"><ele>349.0</ele><time>2026-03-28T14:07:54.383Z</time></trkpt><trkpt lat="40.3664017" lon="8.407695"><ele>349.0</ele><time>2026-03-28T14:07:55.384Z</time></trkpt><trkpt lat="40.3663483" lon="8.4079117"><ele>349.3333333333333</ele><time>2026-03-28T14:07:56.384Z</time></trkpt><trkpt lat="40.3663267" lon="8.4081483"><ele>349.6666666666667</ele><time>2026-03-28T14:07:57.384Z</time></trkpt><trkpt lat="40.3663383" lon="8.408415"><ele>350.0</ele><time>2026-03-28T14:07:58.384Z</time></trkpt><trkpt lat="40.3663717" lon="8.4086767"><ele>346.0</ele><time>2026-03-28T14:07:59.384Z</time></trkpt><trkpt lat="40.366395" lon="8.4089317"><ele>342.0</ele><time>2026-03-28T14:08:00.384Z</time></trkpt><trkpt lat="40.3663933" lon="8.4091817"><ele>338.0</ele><time>2026-03-28T14:08:01.383Z</time></trkpt><trkpt lat="40.3663667" lon="8.4094167"><ele>336.33333333333337</ele><time>2026-03-28T14:08:02.384Z</time></trkpt><trkpt lat="40.3663017" lon="8.409625"><ele>334.6666666666667</ele><time>2026-03-28T14:08:03.384Z</time></trkpt><trkpt lat="40.3661833" lon="8.409805"><ele>333.0</ele><time>2026-03-28T14:08:04.384Z</time></trkpt><trkpt lat="40.36604" lon="8.4099533"><ele>333.0</ele><time>2026-03-28T14:08:05.384Z</time></trkpt><trkpt lat="40.3658867" lon="8.41007"><ele>333.0</ele><time>2026-03-28T14:08:06.383Z</time></trkpt><trkpt lat="40.3657067" lon="8.4101667"><ele>333.0</ele><time>2026-03-28T14:08:07.384Z</time></trkpt><trkpt lat="40.3655167" lon="8.4102583"><ele>333.6666666666667</ele><time>2026-03-28T14:08:08.384Z</time></trkpt><trkpt lat="40.3653383" lon="8.410365"><ele>334.33333333333337</ele><time>2026-03-28T14:08:09.384Z</time></trkpt><trkpt lat="40.365165" lon="8.4104433"><ele>335.0</ele><time>2026-03-28T14:08:10.384Z</time></trkpt><trkpt lat="40.3649933" lon="8.41053"><ele>335.0</ele><time>2026-03-28T14:08:11.384Z</time></trkpt><trkpt lat="40.3648417" lon="8.4106667"><ele>335.0</ele><time>2026-03-28T14:08:12.384Z</time></trkpt><trkpt lat="40.364695" lon="8.41084"><ele>335.0</ele><time>2026-03-28T14:08:13.383Z</time></trkpt><trkpt lat="40.3645433" lon="8.4110367"><ele>324.5</ele><time>2026-03-28T14:08:14.384Z</time></trkpt><trkpt lat="40.3643867" lon="8.411265"><ele>314.0</ele><time>2026-03-28T14:08:15.384Z</time></trkpt><trkpt lat="40.364225" lon="8.4114967"><ele>314.0</ele><time>2026-03-28T14:08:16.384Z</time></trkpt><trkpt lat="40.3640467" lon="8.4117083"><ele>314.0</ele><time>2026-03-28T14:08:17.384Z</time></trkpt><trkpt lat="40.3638883" lon="8.411945"><ele>310.0</ele><time>2026-03-28T14:08:18.384Z</time></trkpt><trkpt lat="40.36373" lon="8.412175"><ele>306.0</ele><time>2026-03-28T14:08:19.384Z</time></trkpt><trkpt lat="40.3635717" lon="8.4124"><ele>306.0</ele><time>2026-03-28T14:08:20.384Z</time></trkpt><trkpt lat="40.363415" lon="8.4126217"><ele>306.0</ele><time>2026-03-28T14:08:21.384Z</time></trkpt><trkpt lat="40.3632767" lon="8.4128517"><ele>309.5</ele><time>2026-03-28T14:08:22.383Z</time></trkpt><trkpt lat="40.3631267" lon="8.413085"><ele>313.0</ele><time>2026-03-28T14:08:23.384Z</time></trkpt><trkpt lat="40.3628" lon="8.41352"><ele>312.5</ele><time>2026-03-28T14:08:25.384Z</time></trkpt><trkpt lat="40.3626367" lon="8.4137417"><ele>312.0</ele><time>2026-03-28T14:08:26.384Z</time></trkpt><trkpt lat="40.3624717" lon="8.41396"><ele>312.0</ele><time>2026-03-28T14:08:27.383Z</time></trkpt><trkpt lat="40.3623083" lon="8.414175"><ele>312.0</ele><time>2026-03-28T14:08:28.383Z</time></trkpt><trkpt lat="40.3621383" lon="8.4144017"><ele>303.0</ele><time>2026-03-28T14:08:29.383Z</time></trkpt><trkpt lat="40.36197" lon="8.4146333"><ele>294.0</ele><time>2026-03-28T14:08:30.384Z</time></trkpt><trkpt lat="40.3618133" lon="8.4148733"><ele>294.0</ele><time>2026-03-28T14:08:31.384Z</time></trkpt><trkpt lat="40.3616483" lon="8.4151167"><ele>294.0</ele><time>2026-03-28T14:08:32.384Z</time></trkpt><trkpt lat="40.3614867" lon="8.415355"><ele>290.0</ele><time>2026-03-28T14:08:33.384Z</time></trkpt><trkpt lat="40.3613167" lon="8.415585"><ele>286.0</ele><time>2026-03-28T14:08:34.384Z</time></trkpt><trkpt lat="40.3611367" lon="8.4158117"><ele>286.0</ele><time>2026-03-28T14:08:35.384Z</time></trkpt><trkpt lat="40.360965" lon="8.4160533"><ele>286.0</ele><time>2026-03-28T14:08:36.383Z</time></trkpt><trkpt lat="40.3607967" lon="8.416285"><ele>284.0</ele><time>2026-03-28T14:08:37.384Z</time></trkpt><trkpt lat="40.3606383" lon="8.4165217"><ele>282.0</ele><time>2026-03-28T14:08:38.383Z</time></trkpt><trkpt lat="40.360485" lon="8.416765"><ele>282.0</ele><time>2026-03-28T14:08:39.384Z</time></trkpt><trkpt lat="40.36034" lon="8.417015"><ele>282.0</ele><time>2026-03-28T14:08:40.384Z</time></trkpt><trkpt lat="40.3602" lon="8.4172917"><ele>286.0</ele><time>2026-03-28T14:08:41.383Z</time></trkpt><trkpt lat="40.360055" lon="8.417575"><ele>290.0</ele><time>2026-03-28T14:08:42.384Z</time></trkpt><trkpt lat="40.3599117" lon="8.4178667"><ele>294.0</ele><time>2026-03-28T14:08:43.384Z</time></trkpt><trkpt lat="40.3597633" lon="8.4181583"><ele>298.0</ele><time>2026-03-28T14:08:44.384Z</time></trkpt><trkpt lat="40.3596217" lon="8.4184433"><ele>290.0</ele><time>2026-03-28T14:08:45.384Z</time></trkpt><trkpt lat="40.3594933" lon="8.418735"><ele>282.0</ele><time>2026-03-28T14:08:46.384Z</time></trkpt><trkpt lat="40.359365" lon="8.4190217"><ele>282.0</ele><time>2026-03-28T14:08:47.383Z</time></trkpt><trkpt lat="40.359235" lon="8.4192983"><ele>282.0</ele><time>2026-03-28T14:08:48.384Z</time></trkpt><trkpt lat="40.3591067" lon="8.4195667"><ele>288.0</ele><time>2026-03-28T14:08:49.384Z</time></trkpt><trkpt lat="40.3589833" lon="8.419845"><ele>294.0</ele><time>2026-03-28T14:08:50.384Z</time></trkpt><trkpt lat="40.3588517" lon="8.42012"><ele>285.0</ele><time>2026-03-28T14:08:51.384Z</time></trkpt><trkpt lat="40.3587267" lon="8.4203883"><ele>276.0</ele><time>2026-03-28T14:08:52.383Z</time></trkpt><trkpt lat="40.3586083" lon="8.420635"><ele>276.0</ele><time>2026-03-28T14:08:53.384Z</time></trkpt><trkpt lat="40.3584883" lon="8.4208433"><ele>276.0</ele><time>2026-03-28T14:08:54.384Z</time></trkpt><trkpt lat="40.3583417" lon="8.4210167"><ele>276.0</ele><time>2026-03-28T14:08:55.384Z</time></trkpt><trkpt lat="40.35817" lon="8.421135"><ele>273.0</ele><time>2026-03-28T14:08:56.383Z</time></trkpt><trkpt lat="40.3579667" lon="8.4212333"><ele>270.0</ele><time>2026-03-28T14:08:57.384Z</time></trkpt><trkpt lat="40.3577517" lon="8.4212783"><ele>267.0</ele><time>2026-03-28T14:08:58.383Z</time></trkpt><trkpt lat="40.3575467" lon="8.42128"><ele>267.0</ele><time>2026-03-28T14:08:59.384Z</time></trkpt><trkpt lat="40.3573633" lon="8.4212667"><ele>267.0</ele><time>2026-03-28T14:09:00.384Z</time></trkpt><trkpt lat="40.357195" lon="8.421285"><ele>267.0</ele><time>2026-03-28T14:09:01.384Z</time></trkpt><trkpt lat="40.3570267" lon="8.4213333"><ele>275.6666666666667</ele><time>2026-03-28T14:09:02.384Z</time></trkpt><trkpt lat="40.356865" lon="8.421435"><ele>284.33333333333337</ele><time>2026-03-28T14:09:03.384Z</time></trkpt><trkpt lat="40.3567333" lon="8.4215783"><ele>293.0</ele><time>2026-03-28T14:09:04.383Z</time></trkpt><trkpt lat="40.3565983" lon="8.4217617"><ele>293.0</ele><time>2026-03-28T14:09:05.384Z</time></trkpt><trkpt lat="40.3564583" lon="8.421965"><ele>293.0</ele><time>2026-03-28T14:09:06.383Z</time></trkpt><trkpt lat="40.3563233" lon="8.422195"><ele>293.0</ele><time>2026-03-28T14:09:07.384Z</time></trkpt><trkpt lat="40.356185" lon="8.4224433"><ele>293.6666666666667</ele><time>2026-03-28T14:09:08.383Z</time></trkpt><trkpt lat="40.3560567" lon="8.42267"><ele>294.3333333333333</ele><time>2026-03-28T14:09:09.384Z</time></trkpt><trkpt lat="40.3559283" lon="8.4229133"><ele>295.0</ele><time>2026-03-28T14:09:10.384Z</time></trkpt><trkpt lat="40.35578" lon="8.4231717"><ele>301.0</ele><time>2026-03-28T14:09:11.383Z</time></trkpt><trkpt lat="40.3556383" lon="8.423425"><ele>307.0</ele><time>2026-03-28T14:09:12.383Z</time></trkpt><trkpt lat="40.3555033" lon="8.4236817"><ele>298.5</ele><time>2026-03-28T14:09:13.384Z</time></trkpt><trkpt lat="40.3553633" lon="8.4239383"><ele>290.0</ele><time>2026-03-28T14:09:14.384Z</time></trkpt><trkpt lat="40.3552217" lon="8.424195"><ele>290.0</ele><time>2026-03-28T14:09:15.384Z</time></trkpt><trkpt lat="40.3550833" lon="8.4244433"><ele>290.0</ele><time>2026-03-28T14:09:16.384Z</time></trkpt><trkpt lat="40.3549417" lon="8.4246967"><ele>293.5</ele><time>2026-03-28T14:09:17.384Z</time></trkpt><trkpt lat="40.3547967" lon="8.4249567"><ele>297.0</ele><time>2026-03-28T14:09:18.384Z</time></trkpt><trkpt lat="40.3546417" lon="8.425215"><ele>285.5</ele><time>2026-03-28T14:09:19.384Z</time></trkpt><trkpt lat="40.354495" lon="8.4254867"><ele>274.0</ele><time>2026-03-28T14:09:20.384Z</time></trkpt><trkpt lat="40.3543533" lon="8.4257583"><ele>274.0</ele><time>2026-03-28T14:09:21.384Z</time></trkpt><trkpt lat="40.354205" lon="8.4260183"><ele>274.0</ele><time>2026-03-28T14:09:22.384Z</time></trkpt><trkpt lat="40.3540617" lon="8.4262783"><ele>279.5</ele><time>2026-03-28T14:09:23.384Z</time></trkpt><trkpt lat="40.3539233" lon="8.4265433"><ele>285.0</ele><time>2026-03-28T14:09:24.384Z</time></trkpt><trkpt lat="40.3537867" lon="8.4268067"><ele>274.5</ele><time>2026-03-28T14:09:25.384Z</time></trkpt><trkpt lat="40.3536617" lon="8.42706"><ele>264.0</ele><time>2026-03-28T14:09:26.383Z</time></trkpt><trkpt lat="40.353535" lon="8.4273033"><ele>264.0</ele><time>2026-03-28T14:09:27.384Z</time></trkpt><trkpt lat="40.35341" lon="8.4275383"><ele>264.0</ele><time>2026-03-28T14:09:28.384Z</time></trkpt><trkpt lat="40.3532867" lon="8.4277683"><ele>264.0</ele><time>2026-03-28T14:09:29.383Z</time></trkpt><trkpt lat="40.353165" lon="8.42798"><ele>266.0</ele><time>2026-03-28T14:09:30.384Z</time></trkpt><trkpt lat="40.3530433" lon="8.4281867"><ele>268.0</ele><time>2026-03-28T14:09:31.384Z</time></trkpt><trkpt lat="40.3529283" lon="8.42838"><ele>270.0</ele><time>2026-03-28T14:09:32.383Z</time></trkpt><trkpt lat="40.3528233" lon="8.4285933"><ele>265.6666666666667</ele><time>2026-03-28T14:09:33.384Z</time></trkpt><trkpt lat="40.3527133" lon="8.4287933"><ele>261.33333333333337</ele><time>2026-03-28T14:09:34.384Z</time></trkpt><trkpt lat="40.352605" lon="8.4289933"><ele>257.0</ele><time>2026-03-28T14:09:35.384Z</time></trkpt><trkpt lat="40.3524967" lon="8.4291917"><ele>257.0</ele><time>2026-03-28T14:09:36.383Z</time></trkpt><trkpt lat="40.3523933" lon="8.4293767"><ele>257.0</ele><time>2026-03-28T14:09:37.384Z</time></trkpt><trkpt lat="40.3522933" lon="8.4295617"><ele>257.0</ele><time>2026-03-28T14:09:38.384Z</time></trkpt><trkpt lat="40.352175" lon="8.4297083"><ele>259.6666666666667</ele><time>2026-03-28T14:09:39.384Z</time></trkpt><trkpt lat="40.3520233" lon="8.4298217"><ele>262.3333333333333</ele><time>2026-03-28T14:09:40.384Z</time></trkpt><trkpt lat="40.3518717" lon="8.4299083"><ele>265.0</ele><time>2026-03-28T14:09:41.384Z</time></trkpt><trkpt lat="40.3517" lon="8.4299617"><ele>265.0</ele><time>2026-03-28T14:09:42.384Z</time></trkpt><trkpt lat="40.3515267" lon="8.4299867"><ele>265.0</ele><time>2026-03-28T14:09:43.383Z</time></trkpt><trkpt lat="40.3513433" lon="8.4299667"><ele>265.0</ele><time>2026-03-28T14:09:44.384Z</time></trkpt><trkpt lat="40.3511467" lon="8.4299317"><ele>262.66666666666663</ele><time>2026-03-28T14:09:45.384Z</time></trkpt><trkpt lat="40.3509483" lon="8.4298733"><ele>260.3333333333333</ele><time>2026-03-28T14:09:46.384Z</time></trkpt><trkpt lat="40.3507483" lon="8.4298283"><ele>258.0</ele><time>2026-03-28T14:09:47.384Z</time></trkpt><trkpt lat="40.3505417" lon="8.429785"><ele>256.3333333333333</ele><time>2026-03-28T14:09:48.384Z</time></trkpt><trkpt lat="40.35033" lon="8.42974"><ele>254.66666666666666</ele><time>2026-03-28T14:09:49.383Z</time></trkpt><trkpt lat="40.3501083" lon="8.4296783"><ele>253.0</ele><time>2026-03-28T14:09:50.384Z</time></trkpt><trkpt lat="40.349885" lon="8.42963"><ele>246.0</ele><time>2026-03-28T14:09:51.384Z</time></trkpt><trkpt lat="40.3496783" lon="8.4295917"><ele>239.0</ele><time>2026-03-28T14:09:52.384Z</time></trkpt><trkpt lat="40.3494867" lon="8.4295533"><ele>232.0</ele><time>2026-03-28T14:09:53.384Z</time></trkpt><trkpt lat="40.3493033" lon="8.4294967"><ele>232.0</ele><time>2026-03-28T14:09:54.384Z</time></trkpt><trkpt lat="40.3491267" lon="8.42945"><ele>232.0</ele><time>2026-03-28T14:09:55.384Z</time></trkpt><trkpt lat="40.3489617" lon="8.429375"><ele>232.0</ele><time>2026-03-28T14:09:56.384Z</time></trkpt><trkpt lat="40.34882" lon="8.429245"><ele>231.0</ele><time>2026-03-28T14:09:57.384Z</time></trkpt><trkpt lat="40.3486967" lon="8.4290667"><ele>230.0</ele><time>2026-03-28T14:09:58.384Z</time></trkpt><trkpt lat="40.348595" lon="8.428855"><ele>229.0</ele><time>2026-03-28T14:09:59.384Z</time></trkpt><trkpt lat="40.3485383" lon="8.4286283"><ele>229.0</ele><time>2026-03-28T14:10:00.383Z</time></trkpt><trkpt lat="40.3484567" lon="8.428385"><ele>229.0</ele><time>2026-03-28T14:10:01.384Z</time></trkpt><trkpt lat="40.348385" lon="8.4281383"><ele>229.0</ele><time>2026-03-28T14:10:02.383Z</time></trkpt><trkpt lat="40.3483083" lon="8.4278883"><ele>228.0</ele><time>2026-03-28T14:10:03.384Z</time></trkpt><trkpt lat="40.3482117" lon="8.4276433"><ele>227.0</ele><time>2026-03-28T14:10:04.384Z</time></trkpt><trkpt lat="40.3481067" lon="8.427395"><ele>226.0</ele><time>2026-03-28T14:10:05.384Z</time></trkpt><trkpt lat="40.3480167" lon="8.4271417"><ele>226.0</ele><time>2026-03-28T14:10:06.383Z</time></trkpt><trkpt lat="40.3479233" lon="8.426895"><ele>226.0</ele><time>2026-03-28T14:10:07.384Z</time></trkpt><trkpt lat="40.34781" lon="8.4266567"><ele>226.0</ele><time>2026-03-28T14:10:08.384Z</time></trkpt><trkpt lat="40.3476933" lon="8.42641"><ele>221.33333333333331</ele><time>2026-03-28T14:10:09.384Z</time></trkpt><trkpt lat="40.3475733" lon="8.4261733"><ele>216.66666666666669</ele><time>2026-03-28T14:10:10.384Z</time></trkpt><trkpt lat="40.3474283" lon="8.4259417"><ele>212.0</ele><time>2026-03-28T14:10:11.383Z</time></trkpt><trkpt lat="40.34728" lon="8.4257133"><ele>208.5</ele><time>2026-03-28T14:10:12.384Z</time></trkpt><trkpt lat="40.3471183" lon="8.425475"><ele>205.0</ele><time>2026-03-28T14:10:13.384Z</time></trkpt><trkpt lat="40.3469483" lon="8.4252383"><ele>205.0</ele><time>2026-03-28T14:10:14.384Z</time></trkpt><trkpt lat="40.3467783" lon="8.4249983"><ele>205.0</ele><time>2026-03-28T14:10:15.384Z</time></trkpt><trkpt lat="40.3466133" lon="8.4247517"><ele>201.5</ele><time>2026-03-28T14:10:16.384Z</time></trkpt><trkpt lat="40.3464533" lon="8.4245083"><ele>198.0</ele><time>2026-03-28T14:10:17.384Z</time></trkpt><trkpt lat="40.3462933" lon="8.4242667"><ele>198.0</ele><time>2026-03-28T14:10:18.384Z</time></trkpt><trkpt lat="40.34613" lon="8.4240283"><ele>198.0</ele><time>2026-03-28T14:10:19.384Z</time></trkpt><trkpt lat="40.3459633" lon="8.423795"><ele>195.0</ele><time>2026-03-28T14:10:20.384Z</time></trkpt><trkpt lat="40.3458" lon="8.423555"><ele>192.0</ele><time>2026-03-28T14:10:21.384Z</time></trkpt><trkpt lat="40.3456517" lon="8.4233267"><ele>193.0</ele><time>2026-03-28T14:10:22.383Z</time></trkpt><trkpt lat="40.3455167" lon="8.4231433"><ele>194.0</ele><time>2026-03-28T14:10:23.383Z</time></trkpt><trkpt lat="40.34539" lon="8.4229983"><ele>195.0</ele><time>2026-03-28T14:10:24.384Z</time></trkpt><trkpt lat="40.34527" lon="8.422855"><ele>195.0</ele><time>2026-03-28T14:10:25.384Z</time></trkpt><trkpt lat="40.3451133" lon="8.4227783"><ele>195.0</ele><time>2026-03-28T14:10:26.384Z</time></trkpt><trkpt lat="40.3449383" lon="8.4227583"><ele>195.0</ele><time>2026-03-28T14:10:27.383Z</time></trkpt><trkpt lat="40.3447533" lon="8.42278"><ele>196.33333333333331</ele><time>2026-03-28T14:10:28.384Z</time></trkpt><trkpt lat="40.34456" lon="8.42285"><ele>197.66666666666666</ele><time>2026-03-28T14:10:29.384Z</time></trkpt><trkpt lat="40.3443667" lon="8.4229367"><ele>199.0</ele><time>2026-03-28T14:10:30.384Z</time></trkpt><trkpt lat="40.344195" lon="8.4230417"><ele>199.0</ele><time>2026-03-28T14:10:31.384Z</time></trkpt><trkpt lat="40.3440233" lon="8.4231567"><ele>199.0</ele><time>2026-03-28T14:10:32.384Z</time></trkpt><trkpt lat="40.3438783" lon="8.4232917"><ele>199.0</ele><time>2026-03-28T14:10:33.384Z</time></trkpt><trkpt lat="40.34376" lon="8.4234367"><ele>191.33333333333331</ele><time>2026-03-28T14:10:34.384Z</time></trkpt><trkpt lat="40.3436617" lon="8.4236067"><ele>183.66666666666666</ele><time>2026-03-28T14:10:35.384Z</time></trkpt><trkpt lat="40.34359" lon="8.4238083"><ele>176.0</ele><time>2026-03-28T14:10:36.384Z</time></trkpt><trkpt lat="40.3435483" lon="8.4240383"><ele>176.0</ele><time>2026-03-28T14:10:37.384Z</time></trkpt><trkpt lat="40.34353" lon="8.424295"><ele>176.0</ele><time>2026-03-28T14:10:38.384Z</time></trkpt><trkpt lat="40.3435317" lon="8.42457"><ele>176.0</ele><time>2026-03-28T14:10:39.384Z</time></trkpt><trkpt lat="40.343565" lon="8.4248383"><ele>172.66666666666666</ele><time>2026-03-28T14:10:40.383Z</time></trkpt><trkpt lat="40.34361" lon="8.4250933"><ele>169.33333333333334</ele><time>2026-03-28T14:10:41.384Z</time></trkpt><trkpt lat="40.3436767" lon="8.4253283"><ele>166.0</ele><time>2026-03-28T14:10:42.383Z</time></trkpt><trkpt lat="40.3437567" lon="8.4255567"><ele>160.33333333333334</ele><time>2026-03-28T14:10:43.383Z</time></trkpt><trkpt lat="40.3438617" lon="8.4257617"><ele>154.66666666666666</ele><time>2026-03-28T14:10:44.384Z</time></trkpt><trkpt lat="40.343955" lon="8.4259683"><ele>149.0</ele><time>2026-03-28T14:10:45.384Z</time></trkpt><trkpt lat="40.3439967" lon="8.4261933"><ele>159.66666666666666</ele><time>2026-03-28T14:10:46.384Z</time></trkpt><trkpt lat="40.3439983" lon="8.4264183"><ele>170.33333333333334</ele><time>2026-03-28T14:10:47.384Z</time></trkpt><trkpt lat="40.3439617" lon="8.42663"><ele>181.0</ele><time>2026-03-28T14:10:48.384Z</time></trkpt><trkpt lat="40.3438983" lon="8.4268667"><ele>172.66666666666669</ele><time>2026-03-28T14:10:49.383Z</time></trkpt><trkpt lat="40.3438267" lon="8.4270967"><ele>164.33333333333334</ele><time>2026-03-28T14:10:50.384Z</time></trkpt><trkpt lat="40.3437383" lon="8.427295"><ele>156.0</ele><time>2026-03-28T14:10:51.384Z</time></trkpt><trkpt lat="40.3436333" lon="8.427465"><ele>156.0</ele><time>2026-03-28T14:10:52.383Z</time></trkpt><trkpt lat="40.343505" lon="8.427625"><ele>156.0</ele><time>2026-03-28T14:10:53.383Z</time></trkpt><trkpt lat="40.3433517" lon="8.427745"><ele>156.0</ele><time>2026-03-28T14:10:54.384Z</time></trkpt><trkpt lat="40.3431867" lon="8.4278233"><ele>157.0</ele><time>2026-03-28T14:10:55.384Z</time></trkpt><trkpt lat="40.343" lon="8.4278817"><ele>158.0</ele><time>2026-03-28T14:10:56.384Z</time></trkpt><trkpt lat="40.3428167" lon="8.42793"><ele>159.0</ele><time>2026-03-28T14:10:57.384Z</time></trkpt><trkpt lat="40.3426367" lon="8.4279867"><ele>159.0</ele><time>2026-03-28T14:10:58.383Z</time></trkpt><trkpt lat="40.34246" lon="8.428055"><ele>159.0</ele><time>2026-03-28T14:10:59.384Z</time></trkpt><trkpt lat="40.342295" lon="8.4281467"><ele>159.0</ele><time>2026-03-28T14:11:00.384Z</time></trkpt><trkpt lat="40.342155" lon="8.4282867"><ele>150.33333333333334</ele><time>2026-03-28T14:11:01.384Z</time></trkpt><trkpt lat="40.3420483" lon="8.4284583"><ele>141.66666666666669</ele><time>2026-03-28T14:11:02.384Z</time></trkpt><trkpt lat="40.341945" lon="8.4286417"><ele>133.0</ele><time>2026-03-28T14:11:03.384Z</time></trkpt><trkpt lat="40.3418383" lon="8.4288083"><ele>137.0</ele><time>2026-03-28T14:11:04.384Z</time></trkpt><trkpt lat="40.3417133" lon="8.428955"><ele>141.0</ele><time>2026-03-28T14:11:05.383Z</time></trkpt><trkpt lat="40.3415583" lon="8.4290283"><ele>145.0</ele><time>2026-03-28T14:11:06.384Z</time></trkpt><trkpt lat="40.3414067" lon="8.4290733"><ele>142.33333333333334</ele><time>2026-03-28T14:11:07.384Z</time></trkpt><trkpt lat="40.341235" lon="8.4290633"><ele>139.66666666666666</ele><time>2026-03-28T14:11:08.384Z</time></trkpt><trkpt lat="40.34106" lon="8.428995"><ele>137.0</ele><time>2026-03-28T14:11:09.384Z</time></trkpt><trkpt lat="40.3408883" lon="8.4289033"><ele>137.0</ele><time>2026-03-28T14:11:10.384Z</time></trkpt><trkpt lat="40.3407333" lon="8.4288433"><ele>137.0</ele><time>2026-03-28T14:11:11.384Z</time></trkpt><trkpt lat="40.340575" lon="8.4288117"><ele>137.0</ele><time>2026-03-28T14:11:12.384Z</time></trkpt><trkpt lat="40.34043" lon="8.4288367"><ele>131.0</ele><time>2026-03-28T14:11:13.384Z</time></trkpt><trkpt lat="40.340285" lon="8.4289"><ele>125.0</ele><time>2026-03-28T14:11:14.383Z</time></trkpt><trkpt lat="40.34016" lon="8.42904"><ele>119.0</ele><time>2026-03-28T14:11:15.384Z</time></trkpt><trkpt lat="40.3400633" lon="8.4292083"><ele>119.0</ele><time>2026-03-28T14:11:16.384Z</time></trkpt><trkpt lat="40.340015" lon="8.4294133"><ele>119.0</ele><time>2026-03-28T14:11:17.384Z</time></trkpt><trkpt lat="40.339995" lon="8.4296233"><ele>119.0</ele><time>2026-03-28T14:11:18.384Z</time></trkpt><trkpt lat="40.3400167" lon="8.4298467"><ele>118.66666666666666</ele><time>2026-03-28T14:11:19.384Z</time></trkpt><trkpt lat="40.3400517" lon="8.4300933"><ele>118.33333333333334</ele><time>2026-03-28T14:11:20.383Z</time></trkpt><trkpt lat="40.3401" lon="8.43033"><ele>118.0</ele><time>2026-03-28T14:11:21.384Z</time></trkpt><trkpt lat="40.3401217" lon="8.4305633"><ele>116.33333333333334</ele><time>2026-03-28T14:11:22.384Z</time></trkpt><trkpt lat="40.340125" lon="8.4307733"><ele>114.66666666666666</ele><time>2026-03-28T14:11:23.384Z</time></trkpt><trkpt lat="40.34009" lon="8.430965"><ele>113.0</ele><time>2026-03-28T14:11:24.384Z</time></trkpt><trkpt lat="40.3400083" lon="8.43114"><ele>113.0</ele><time>2026-03-28T14:11:25.384Z</time></trkpt><trkpt lat="40.33988" lon="8.431265"><ele>113.0</ele><time>2026-03-28T14:11:26.384Z</time></trkpt><trkpt lat="40.339745" lon="8.4313533"><ele>113.0</ele><time>2026-03-28T14:11:27.383Z</time></trkpt><trkpt lat="40.3395833" lon="8.4313633"><ele>116.33333333333333</ele><time>2026-03-28T14:11:28.384Z</time></trkpt><trkpt lat="40.3394067" lon="8.4313533"><ele>119.66666666666666</ele><time>2026-03-28T14:11:29.384Z</time></trkpt><trkpt lat="40.3392367" lon="8.43134"><ele>123.0</ele><time>2026-03-28T14:11:30.383Z</time></trkpt><trkpt lat="40.3390717" lon="8.4313033"><ele>117.66666666666666</ele><time>2026-03-28T14:11:31.384Z</time></trkpt><trkpt lat="40.338925" lon="8.43122"><ele>112.33333333333333</ele><time>2026-03-28T14:11:32.384Z</time></trkpt><trkpt lat="40.338785" lon="8.4310767"><ele>107.0</ele><time>2026-03-28T14:11:33.384Z</time></trkpt><trkpt lat="40.3386367" lon="8.4309067"><ele>107.0</ele><time>2026-03-28T14:11:34.383Z</time></trkpt><trkpt lat="40.3385" lon="8.4307117"><ele>107.0</ele><time>2026-03-28T14:11:35.384Z</time></trkpt><trkpt lat="40.33835" lon="8.430515"><ele>107.0</ele><time>2026-03-28T14:11:36.384Z</time></trkpt><trkpt lat="40.338205" lon="8.4303333"><ele>104.0</ele><time>2026-03-28T14:11:37.383Z</time></trkpt><trkpt lat="40.3380567" lon="8.4301583"><ele>101.0</ele><time>2026-03-28T14:11:38.383Z</time></trkpt><trkpt lat="40.33791" lon="8.4300017"><ele>98.0</ele><time>2026-03-28T14:11:39.383Z</time></trkpt><trkpt lat="40.3377517" lon="8.4298933"><ele>98.0</ele><time>2026-03-28T14:11:40.384Z</time></trkpt><trkpt lat="40.3375983" lon="8.4298"><ele>98.0</ele><time>2026-03-28T14:11:41.384Z</time></trkpt><trkpt lat="40.3374333" lon="8.4297283"><ele>98.0</ele><time>2026-03-28T14:11:42.384Z</time></trkpt><trkpt lat="40.3372617" lon="8.4297067"><ele>96.66666666666666</ele><time>2026-03-28T14:11:43.384Z</time></trkpt><trkpt lat="40.3370817" lon="8.4297417"><ele>95.33333333333333</ele><time>2026-03-28T14:11:44.383Z</time></trkpt><trkpt lat="40.3368867" lon="8.429805"><ele>94.0</ele><time>2026-03-28T14:11:45.384Z</time></trkpt><trkpt lat="40.3366933" lon="8.42987"><ele>94.0</ele><time>2026-03-28T14:11:46.383Z</time></trkpt><trkpt lat="40.3365117" lon="8.4299267"><ele>94.0</ele><time>2026-03-28T14:11:47.383Z</time></trkpt><trkpt lat="40.3363383" lon="8.42998"><ele>94.0</ele><time>2026-03-28T14:11:48.384Z</time></trkpt><trkpt lat="40.33618" lon="8.430045"><ele>88.33333333333333</ele><time>2026-03-28T14:11:49.384Z</time></trkpt><trkpt lat="40.3360383" lon="8.43012"><ele>82.66666666666667</ele><time>2026-03-28T14:11:50.384Z</time></trkpt><trkpt lat="40.3359167" lon="8.4302283"><ele>77.0</ele><time>2026-03-28T14:11:51.383Z</time></trkpt><trkpt lat="40.3357983" lon="8.4303867"><ele>74.33333333333334</ele><time>2026-03-28T14:11:52.384Z</time></trkpt><trkpt lat="40.3356917" lon="8.4305767"><ele>71.66666666666667</ele><time>2026-03-28T14:11:53.384Z</time></trkpt><trkpt lat="40.3356033" lon="8.4307883"><ele>69.0</ele><time>2026-03-28T14:11:54.384Z</time></trkpt><trkpt lat="40.33551" lon="8.4310117"><ele>69.0</ele><time>2026-03-28T14:11:55.384Z</time></trkpt><trkpt lat="40.33542" lon="8.4312433"><ele>69.0</ele><time>2026-03-28T14:11:56.383Z</time></trkpt><trkpt lat="40.3353267" lon="8.4314783"><ele>69.0</ele><time>2026-03-28T14:11:57.384Z</time></trkpt><trkpt lat="40.3352283" lon="8.4317083"><ele>71.33333333333333</ele><time>2026-03-28T14:11:58.383Z</time></trkpt><trkpt lat="40.33513" lon="8.4319433"><ele>73.66666666666666</ele><time>2026-03-28T14:11:59.384Z</time></trkpt><trkpt lat="40.3350367" lon="8.4321633"><ele>76.0</ele><time>2026-03-28T14:12:00.384Z</time></trkpt><trkpt lat="40.3349617" lon="8.4323833"><ele>79.66666666666666</ele><time>2026-03-28T14:12:01.383Z</time></trkpt><trkpt lat="40.3348983" lon="8.4326017"><ele>83.33333333333333</ele><time>2026-03-28T14:12:02.384Z</time></trkpt><trkpt lat="40.3348567" lon="8.4328267"><ele>87.0</ele><time>2026-03-28T14:12:03.384Z</time></trkpt><trkpt lat="40.33484" lon="8.4330467"><ele>89.66666666666667</ele><time>2026-03-28T14:12:04.383Z</time></trkpt><trkpt lat="40.3348067" lon="8.4332567"><ele>92.33333333333334</ele><time>2026-03-28T14:12:05.383Z</time></trkpt><trkpt lat="40.3347633" lon="8.4334483"><ele>95.0</ele><time>2026-03-28T14:12:06.384Z</time></trkpt><trkpt lat="40.33469" lon="8.4336083"><ele>93.66666666666667</ele><time>2026-03-28T14:12:07.383Z</time></trkpt><trkpt lat="40.3345633" lon="8.433755"><ele>92.33333333333333</ele><time>2026-03-28T14:12:08.383Z</time></trkpt><trkpt lat="40.33443" lon="8.4338883"><ele>91.0</ele><time>2026-03-28T14:12:09.383Z</time></trkpt><trkpt lat="40.334275" lon="8.4340167"><ele>91.0</ele><time>2026-03-28T14:12:10.383Z</time></trkpt><trkpt lat="40.3341133" lon="8.4341567"><ele>91.0</ele><time>2026-03-28T14:12:11.384Z</time></trkpt><trkpt lat="40.333925" lon="8.4342983"><ele>91.0</ele><time>2026-03-28T14:12:12.384Z</time></trkpt><trkpt lat="40.333745" lon="8.434445"><ele>89.0</ele><time>2026-03-28T14:12:13.384Z</time></trkpt><trkpt lat="40.33357" lon="8.434605"><ele>87.0</ele><time>2026-03-28T14:12:14.383Z</time></trkpt><trkpt lat="40.3334017" lon="8.4347583"><ele>85.0</ele><time>2026-03-28T14:12:15.384Z</time></trkpt><trkpt lat="40.333235" lon="8.4349317"><ele>85.0</ele><time>2026-03-28T14:12:16.383Z</time></trkpt><trkpt lat="40.33307" lon="8.43511"><ele>85.0</ele><time>2026-03-28T14:12:17.384Z</time></trkpt><trkpt lat="40.332895" lon="8.4353083"><ele>85.0</ele><time>2026-03-28T14:12:18.383Z</time></trkpt><trkpt lat="40.33273" lon="8.435515"><ele>81.5</ele><time>2026-03-28T14:12:19.383Z</time></trkpt><trkpt lat="40.3325617" lon="8.43573"><ele>78.0</ele><time>2026-03-28T14:12:20.384Z</time></trkpt><trkpt lat="40.3323883" lon="8.4359467"><ele>80.0</ele><time>2026-03-28T14:12:21.384Z</time></trkpt><trkpt lat="40.33222" lon="8.4361417"><ele>82.0</ele><time>2026-03-28T14:12:22.384Z</time></trkpt><trkpt lat="40.3320617" lon="8.4363467"><ele>84.0</ele><time>2026-03-28T14:12:23.384Z</time></trkpt><trkpt lat="40.3319083" lon="8.43653"><ele>77.66666666666667</ele><time>2026-03-28T14:12:24.384Z</time></trkpt><trkpt lat="40.3317333" lon="8.4366767"><ele>71.33333333333334</ele><time>2026-03-28T14:12:25.384Z</time></trkpt><trkpt lat="40.3315567" lon="8.4368067"><ele>65.0</ele><time>2026-03-28T14:12:26.384Z</time></trkpt><trkpt lat="40.3313733" lon="8.43689"><ele>62.0</ele><time>2026-03-28T14:12:27.384Z</time></trkpt><trkpt lat="40.3312117" lon="8.4369117"><ele>59.0</ele><time>2026-03-28T14:12:28.383Z</time></trkpt><trkpt lat="40.331045" lon="8.4368983"><ele>56.0</ele><time>2026-03-28T14:12:29.384Z</time></trkpt><trkpt lat="40.330865" lon="8.436845"><ele>56.0</ele><time>2026-03-28T14:12:30.384Z</time></trkpt><trkpt lat="40.3306817" lon="8.4367517"><ele>56.0</ele><time>2026-03-28T14:12:31.383Z</time></trkpt><trkpt lat="40.3305083" lon="8.4366383"><ele>56.0</ele><time>2026-03-28T14:12:32.383Z</time></trkpt><trkpt lat="40.3303383" lon="8.43648"><ele>53.0</ele><time>2026-03-28T14:12:33.384Z</time></trkpt><trkpt lat="40.3301733" lon="8.4363083"><ele>50.0</ele><time>2026-03-28T14:12:34.384Z</time></trkpt><trkpt lat="40.33001" lon="8.4361533"><ele>47.0</ele><time>2026-03-28T14:12:35.384Z</time></trkpt><trkpt lat="40.3298633" lon="8.4360333"><ele>43.0</ele><time>2026-03-28T14:12:36.384Z</time></trkpt><trkpt lat="40.3297083" lon="8.4359583"><ele>39.0</ele><time>2026-03-28T14:12:37.384Z</time></trkpt><trkpt lat="40.32955" lon="8.4359183"><ele>35.0</ele><time>2026-03-28T14:12:38.384Z</time></trkpt><trkpt lat="40.3293783" lon="8.435915"><ele>35.0</ele><time>2026-03-28T14:12:39.383Z</time></trkpt><trkpt lat="40.329205" lon="8.4359733"><ele>35.0</ele><time>2026-03-28T14:12:40.384Z</time></trkpt><trkpt lat="40.3290383" lon="8.4360683"><ele>35.0</ele><time>2026-03-28T14:12:41.383Z</time></trkpt><trkpt lat="40.3288933" lon="8.436205"><ele>34.0</ele><time>2026-03-28T14:12:42.384Z</time></trkpt><trkpt lat="40.3287717" lon="8.43638"><ele>33.0</ele><time>2026-03-28T14:12:43.384Z</time></trkpt><trkpt lat="40.3286433" lon="8.436595"><ele>32.0</ele><time>2026-03-28T14:12:44.384Z</time></trkpt><trkpt lat="40.3285067" lon="8.436805"><ele>32.0</ele><time>2026-03-28T14:12:45.384Z</time></trkpt><trkpt lat="40.328365" lon="8.4370233"><ele>32.0</ele><time>2026-03-28T14:12:46.383Z</time></trkpt><trkpt lat="40.328225" lon="8.4372517"><ele>32.0</ele><time>2026-03-28T14:12:47.384Z</time></trkpt><trkpt lat="40.3280817" lon="8.4374833"><ele>32.33333333333333</ele><time>2026-03-28T14:12:48.384Z</time></trkpt><trkpt lat="40.32793" lon="8.437705"><ele>32.666666666666664</ele><time>2026-03-28T14:12:49.384Z</time></trkpt><trkpt lat="40.3277833" lon="8.4379133"><ele>33.0</ele><time>2026-03-28T14:12:50.384Z</time></trkpt><trkpt lat="40.327655" lon="8.4381233"><ele>33.0</ele><time>2026-03-28T14:12:51.383Z</time></trkpt><trkpt lat="40.3275317" lon="8.4383533"><ele>33.0</ele><time>2026-03-28T14:12:52.383Z</time></trkpt><trkpt lat="40.3274117" lon="8.4385967"><ele>33.0</ele><time>2026-03-28T14:12:53.383Z</time></trkpt><trkpt lat="40.3272967" lon="8.4388433"><ele>31.666666666666664</ele><time>2026-03-28T14:12:54.383Z</time></trkpt><trkpt lat="40.3271917" lon="8.4390717"><ele>30.333333333333332</ele><time>2026-03-28T14:12:55.383Z</time></trkpt><trkpt lat="40.3270867" lon="8.4392967"><ele>29.0</ele><time>2026-03-28T14:12:56.383Z</time></trkpt><trkpt lat="40.326985" lon="8.4395083"><ele>31.0</ele><time>2026-03-28T14:12:57.383Z</time></trkpt><trkpt lat="40.32688" lon="8.439705"><ele>33.0</ele><time>2026-03-28T14:12:58.384Z</time></trkpt><trkpt lat="40.3268" lon="8.4399217"><ele>35.0</ele><time>2026-03-28T14:12:59.384Z</time></trkpt><trkpt lat="40.3267717" lon="8.440155"><ele>35.0</ele><time>2026-03-28T14:13:00.384Z</time></trkpt><trkpt lat="40.3267567" lon="8.4404117"><ele>35.0</ele><time>2026-03-28T14:13:01.384Z</time></trkpt><trkpt lat="40.3267483" lon="8.4406783"><ele>35.0</ele><time>2026-03-28T14:13:02.384Z</time></trkpt><trkpt lat="40.3267333" lon="8.4409567"><ele>35.0</ele><time>2026-03-28T14:13:03.384Z</time></trkpt><trkpt lat="40.32672" lon="8.4412367"><ele>35.0</ele><time>2026-03-28T14:13:04.384Z</time></trkpt><trkpt lat="40.326705" lon="8.441525"><ele>35.0</ele><time>2026-03-28T14:13:05.384Z</time></trkpt><trkpt lat="40.3266867" lon="8.4417883"><ele>35.0</ele><time>2026-03-28T14:13:06.383Z</time></trkpt><trkpt lat="40.32666" lon="8.442055"><ele>35.0</ele><time>2026-03-28T14:13:07.384Z</time></trkpt><trkpt lat="40.326635" lon="8.4423067"><ele>35.0</ele><time>2026-03-28T14:13:08.384Z</time></trkpt><trkpt lat="40.3266183" lon="8.4425733"><ele>34.0</ele><time>2026-03-28T14:13:09.384Z</time></trkpt><trkpt lat="40.3266433" lon="8.4428483"><ele>33.0</ele><time>2026-03-28T14:13:10.384Z</time></trkpt><trkpt lat="40.3266833" lon="8.443125"><ele>32.0</ele><time>2026-03-28T14:13:11.384Z</time></trkpt><trkpt lat="40.32675" lon="8.4433933"><ele>31.666666666666664</ele><time>2026-03-28T14:13:12.384Z</time></trkpt><trkpt lat="40.3268133" lon="8.4436667"><ele>31.333333333333336</ele><time>2026-03-28T14:13:13.384Z</time></trkpt><trkpt lat="40.3268733" lon="8.4439483"><ele>31.0</ele><time>2026-03-28T14:13:14.384Z</time></trkpt><trkpt lat="40.3269317" lon="8.444225"><ele>31.0</ele><time>2026-03-28T14:13:15.384Z</time></trkpt><trkpt lat="40.32699" lon="8.444495"><ele>31.0</ele><time>2026-03-28T14:13:16.384Z</time></trkpt><trkpt lat="40.3270483" lon="8.4447717"><ele>31.0</ele><time>2026-03-28T14:13:17.384Z</time></trkpt><trkpt lat="40.3271" lon="8.4450183"><ele>34.66666666666667</ele><time>2026-03-28T14:13:18.383Z</time></trkpt><trkpt lat="40.3271267" lon="8.4452517"><ele>38.333333333333336</ele><time>2026-03-28T14:13:19.384Z</time></trkpt><trkpt lat="40.3271117" lon="8.4454733"><ele>42.0</ele><time>2026-03-28T14:13:20.384Z</time></trkpt><trkpt lat="40.3270617" lon="8.4456883"><ele>42.333333333333336</ele><time>2026-03-28T14:13:21.384Z</time></trkpt><trkpt lat="40.32699" lon="8.445915"><ele>42.66666666666667</ele><time>2026-03-28T14:13:22.383Z</time></trkpt><trkpt lat="40.32691" lon="8.4461683"><ele>43.0</ele><time>2026-03-28T14:13:23.384Z</time></trkpt><trkpt lat="40.32682" lon="8.4464283"><ele>43.0</ele><time>2026-03-28T14:13:24.384Z</time></trkpt><trkpt lat="40.3267317" lon="8.4467067"><ele>43.0</ele><time>2026-03-28T14:13:25.383Z</time></trkpt><trkpt lat="40.326635" lon="8.44699"><ele>47.0</ele><time>2026-03-28T14:13:26.384Z</time></trkpt><trkpt lat="40.3265467" lon="8.4472883"><ele>51.0</ele><time>2026-03-28T14:13:27.384Z</time></trkpt><trkpt lat="40.32646" lon="8.44759"><ele>47.0</ele><time>2026-03-28T14:13:28.384Z</time></trkpt><trkpt lat="40.326375" lon="8.447865"><ele>43.0</ele><time>2026-03-28T14:13:29.384Z</time></trkpt><trkpt lat="40.3262883" lon="8.4481367"><ele>43.0</ele><time>2026-03-28T14:13:30.384Z</time></trkpt><trkpt lat="40.3262083" lon="8.448395"><ele>43.0</ele><time>2026-03-28T14:13:31.383Z</time></trkpt><trkpt lat="40.3261467" lon="8.4486533"><ele>43.0</ele><time>2026-03-28T14:13:32.384Z</time></trkpt><trkpt lat="40.3261017" lon="8.4489083"><ele>43.333333333333336</ele><time>2026-03-28T14:13:33.384Z</time></trkpt><trkpt lat="40.3260783" lon="8.449195"><ele>43.666666666666664</ele><time>2026-03-28T14:13:34.384Z</time></trkpt><trkpt lat="40.3260933" lon="8.44949"><ele>44.0</ele><time>2026-03-28T14:13:35.384Z</time></trkpt><trkpt lat="40.3261083" lon="8.449785"><ele>44.666666666666664</ele><time>2026-03-28T14:13:36.384Z</time></trkpt><trkpt lat="40.3261167" lon="8.450085"><ele>45.333333333333336</ele><time>2026-03-28T14:13:37.384Z</time></trkpt><trkpt lat="40.326125" lon="8.4503533"><ele>46.0</ele><time>2026-03-28T14:13:38.383Z</time></trkpt><trkpt lat="40.32612" lon="8.4506067"><ele>46.66666666666667</ele><time>2026-03-28T14:13:39.384Z</time></trkpt><trkpt lat="40.32612" lon="8.4508433"><ele>47.333333333333336</ele><time>2026-03-28T14:13:40.384Z</time></trkpt><trkpt lat="40.3260967" lon="8.45104"><ele>48.0</ele><time>2026-03-28T14:13:41.384Z</time></trkpt><trkpt lat="40.3260367" lon="8.45121"><ele>48.5</ele><time>2026-03-28T14:13:42.384Z</time></trkpt><trkpt lat="40.3259433" lon="8.4513133"><ele>49.0</ele><time>2026-03-28T14:13:43.384Z</time></trkpt><trkpt lat="40.3258267" lon="8.45137"><ele>49.5</ele><time>2026-03-28T14:13:44.384Z</time></trkpt><trkpt lat="40.325705" lon="8.45143"><ele>50.0</ele><time>2026-03-28T14:13:45.384Z</time></trkpt><trkpt lat="40.3255783" lon="8.451485"><ele>50.25</ele><time>2026-03-28T14:13:46.384Z</time></trkpt><trkpt lat="40.3254633" lon="8.4515467"><ele>50.5</ele><time>2026-03-28T14:13:47.384Z</time></trkpt><trkpt lat="40.3253467" lon="8.4516033"><ele>50.75</ele><time>2026-03-28T14:13:48.384Z</time></trkpt><trkpt lat="40.3252267" lon="8.451665"><ele>51.0</ele><time>2026-03-28T14:13:49.383Z</time></trkpt><trkpt lat="40.325095" lon="8.4517283"><ele>51.0</ele><time>2026-03-28T14:13:50.383Z</time></trkpt><trkpt lat="40.3249567" lon="8.45181"><ele>51.0</ele><time>2026-03-28T14:13:51.384Z</time></trkpt><trkpt lat="40.32482" lon="8.45188"><ele>51.0</ele><time>2026-03-28T14:13:52.384Z</time></trkpt><trkpt lat="40.3246783" lon="8.45194"><ele>51.0</ele><time>2026-03-28T14:13:53.383Z</time></trkpt><trkpt lat="40.3245383" lon="8.452"><ele>52.0</ele><time>2026-03-28T14:13:54.384Z</time></trkpt><trkpt lat="40.3244083" lon="8.452055"><ele>53.0</ele><time>2026-03-28T14:13:55.384Z</time></trkpt><trkpt lat="40.3242767" lon="8.45212"><ele>54.0</ele><time>2026-03-28T14:13:56.384Z</time></trkpt><trkpt lat="40.32415" lon="8.4521733"><ele>55.0</ele><time>2026-03-28T14:13:57.384Z</time></trkpt><trkpt lat="40.32405" lon="8.4522567"><ele>55.0</ele><time>2026-03-28T14:13:58.383Z</time></trkpt><trkpt lat="40.3239633" lon="8.4523883"><ele>55.0</ele><time>2026-03-28T14:13:59.384Z</time></trkpt><trkpt lat="40.3238817" lon="8.4525383"><ele>55.0</ele><time>2026-03-28T14:14:00.383Z</time></trkpt><trkpt lat="40.3238067" lon="8.4526833"><ele>55.0</ele><time>2026-03-28T14:14:01.383Z</time></trkpt><trkpt lat="40.3237467" lon="8.45283"><ele>55.25</ele><time>2026-03-28T14:14:02.384Z</time></trkpt><trkpt lat="40.3236933" lon="8.45297"><ele>55.5</ele><time>2026-03-28T14:14:03.384Z</time></trkpt><trkpt lat="40.32366" lon="8.4531117"><ele>55.75</ele><time>2026-03-28T14:14:04.383Z</time></trkpt><trkpt lat="40.323635" lon="8.453245"><ele>56.0</ele><time>2026-03-28T14:14:05.383Z</time></trkpt><trkpt lat="40.323605" lon="8.4533983"><ele>56.0</ele><time>2026-03-28T14:14:06.384Z</time></trkpt><trkpt lat="40.3235567" lon="8.4535833"><ele>56.0</ele><time>2026-03-28T14:14:07.384Z</time></trkpt><trkpt lat="40.3235033" lon="8.45379"><ele>56.0</ele><time>2026-03-28T14:14:08.384Z</time></trkpt><trkpt lat="40.3234533" lon="8.45402"><ele>57.0</ele><time>2026-03-28T14:14:09.384Z</time></trkpt><trkpt lat="40.3233933" lon="8.4542533"><ele>58.0</ele><time>2026-03-28T14:14:10.384Z</time></trkpt><trkpt lat="40.323335" lon="8.4544833"><ele>59.0</ele><time>2026-03-28T14:14:11.384Z</time></trkpt><trkpt lat="40.3232833" lon="8.454715"><ele>60.66666666666667</ele><time>2026-03-28T14:14:12.383Z</time></trkpt><trkpt lat="40.3232117" lon="8.4549333"><ele>62.33333333333333</ele><time>2026-03-28T14:14:13.383Z</time></trkpt><trkpt lat="40.3231317" lon="8.4551483"><ele>64.0</ele><time>2026-03-28T14:14:14.384Z</time></trkpt><trkpt lat="40.3230283" lon="8.455345"><ele>60.666666666666664</ele><time>2026-03-28T14:14:15.384Z</time></trkpt><trkpt lat="40.322905" lon="8.4555167"><ele>57.33333333333333</ele><time>2026-03-28T14:14:16.383Z</time></trkpt><trkpt lat="40.3227767" lon="8.4556783"><ele>54.0</ele><time>2026-03-28T14:14:17.384Z</time></trkpt><trkpt lat="40.32265" lon="8.4558233"><ele>54.0</ele><time>2026-03-28T14:14:18.384Z</time></trkpt><trkpt lat="40.32253" lon="8.4559617"><ele>54.0</ele><time>2026-03-28T14:14:19.383Z</time></trkpt><trkpt lat="40.3224133" lon="8.4560933"><ele>54.0</ele><time>2026-03-28T14:14:20.384Z</time></trkpt><trkpt lat="40.3223017" lon="8.456225"><ele>52.5</ele><time>2026-03-28T14:14:21.384Z</time></trkpt><trkpt lat="40.32219" lon="8.45633"><ele>51.0</ele><time>2026-03-28T14:14:22.384Z</time></trkpt><trkpt lat="40.322065" lon="8.4564283"><ele>49.5</ele><time>2026-03-28T14:14:23.384Z</time></trkpt><trkpt lat="40.3219483" lon="8.456515"><ele>48.0</ele><time>2026-03-28T14:14:24.384Z</time></trkpt><trkpt lat="40.3218317" lon="8.4565817"><ele>48.0</ele><time>2026-03-28T14:14:25.384Z</time></trkpt><trkpt lat="40.3217383" lon="8.4566733"><ele>48.0</ele><time>2026-03-28T14:14:26.384Z</time></trkpt><trkpt lat="40.321655" lon="8.4567967"><ele>48.0</ele><time>2026-03-28T14:14:27.384Z</time></trkpt><trkpt lat="40.3215767" lon="8.4569417"><ele>48.0</ele><time>2026-03-28T14:14:28.383Z</time></trkpt><trkpt lat="40.321505" lon="8.4570917"><ele>50.5</ele><time>2026-03-28T14:14:29.384Z</time></trkpt><trkpt lat="40.3214617" lon="8.4572717"><ele>53.0</ele><time>2026-03-28T14:14:30.384Z</time></trkpt><trkpt lat="40.32139" lon="8.4574367"><ele>55.5</ele><time>2026-03-28T14:14:31.384Z</time></trkpt><trkpt lat="40.321325" lon="8.4576133"><ele>58.0</ele><time>2026-03-28T14:14:32.384Z</time></trkpt><trkpt lat="40.3212683" lon="8.4577883"><ele>53.25</ele><time>2026-03-28T14:14:33.384Z</time></trkpt><trkpt lat="40.321205" lon="8.4579533"><ele>48.5</ele><time>2026-03-28T14:14:34.384Z</time></trkpt><trkpt lat="40.32113" lon="8.458105"><ele>43.75</ele><time>2026-03-28T14:14:35.384Z</time></trkpt><trkpt lat="40.3210467" lon="8.4582267"><ele>39.0</ele><time>2026-03-28T14:14:36.384Z</time></trkpt><trkpt lat="40.3209667" lon="8.45834"><ele>39.0</ele><time>2026-03-28T14:14:37.384Z</time></trkpt><trkpt lat="40.3208917" lon="8.4584533"><ele>39.0</ele><time>2026-03-28T14:14:38.384Z</time></trkpt><trkpt lat="40.3208317" lon="8.4585867"><ele>39.0</ele><time>2026-03-28T14:14:39.383Z</time></trkpt><trkpt lat="40.3207817" lon="8.4587267"><ele>39.0</ele><time>2026-03-28T14:14:40.384Z</time></trkpt><trkpt lat="40.3207267" lon="8.458875"><ele>42.5</ele><time>2026-03-28T14:14:41.383Z</time></trkpt><trkpt lat="40.3206783" lon="8.4590133"><ele>46.0</ele><time>2026-03-28T14:14:42.384Z</time></trkpt><trkpt lat="40.3206267" lon="8.4591667"><ele>49.5</ele><time>2026-03-28T14:14:43.383Z</time></trkpt><trkpt lat="40.3205733" lon="8.4593117"><ele>53.0</ele><time>2026-03-28T14:14:44.384Z</time></trkpt><trkpt lat="40.3205183" lon="8.4594583"><ele>49.25</ele><time>2026-03-28T14:14:45.384Z</time></trkpt><trkpt lat="40.3204583" lon="8.4595967"><ele>45.5</ele><time>2026-03-28T14:14:46.384Z</time></trkpt><trkpt lat="40.3203817" lon="8.4597217"><ele>41.75</ele><time>2026-03-28T14:14:47.384Z</time></trkpt><trkpt lat="40.3202883" lon="8.4598267"><ele>38.0</ele><time>2026-03-28T14:14:48.383Z</time></trkpt><trkpt lat="40.3201933" lon="8.4599217"><ele>38.0</ele><time>2026-03-28T14:14:49.384Z</time></trkpt><trkpt lat="40.320085" lon="8.4599967"><ele>38.0</ele><time>2026-03-28T14:14:50.384Z</time></trkpt><trkpt lat="40.3199817" lon="8.46008"><ele>38.0</ele><time>2026-03-28T14:14:51.384Z</time></trkpt><trkpt lat="40.3199" lon="8.4601917"><ele>38.0</ele><time>2026-03-28T14:14:52.384Z</time></trkpt><trkpt lat="40.3198233" lon="8.460345"><ele>42.0</ele><time>2026-03-28T14:14:53.384Z</time></trkpt><trkpt lat="40.3197533" lon="8.4605333"><ele>46.0</ele><time>2026-03-28T14:14:54.384Z</time></trkpt><trkpt lat="40.3196817" lon="8.4607367"><ele>50.0</ele><time>2026-03-28T14:14:55.383Z</time></trkpt><trkpt lat="40.3196067" lon="8.4609667"><ele>42.66666666666667</ele><time>2026-03-28T14:14:56.384Z</time></trkpt><trkpt lat="40.319525" lon="8.4612217"><ele>35.333333333333336</ele><time>2026-03-28T14:14:57.383Z</time></trkpt><trkpt lat="40.3194467" lon="8.4614817"><ele>28.0</ele><time>2026-03-28T14:14:58.384Z</time></trkpt><trkpt lat="40.3193567" lon="8.4617383"><ele>28.0</ele><time>2026-03-28T14:14:59.383Z</time></trkpt><trkpt lat="40.3192833" lon="8.4620033"><ele>28.0</ele><time>2026-03-28T14:15:00.384Z</time></trkpt><trkpt lat="40.319205" lon="8.4622667"><ele>28.0</ele><time>2026-03-28T14:15:01.383Z</time></trkpt><trkpt lat="40.31912" lon="8.46251"><ele>25.333333333333336</ele><time>2026-03-28T14:15:02.384Z</time></trkpt><trkpt lat="40.3190183" lon="8.46274"><ele>22.666666666666668</ele><time>2026-03-28T14:15:03.384Z</time></trkpt><trkpt lat="40.318905" lon="8.462955"><ele>20.0</ele><time>2026-03-28T14:15:04.384Z</time></trkpt><trkpt lat="40.31879" lon="8.4631733"><ele>20.0</ele><time>2026-03-28T14:15:05.384Z</time></trkpt><trkpt lat="40.3186883" lon="8.46339"><ele>20.0</ele><time>2026-03-28T14:15:06.384Z</time></trkpt><trkpt lat="40.3186167" lon="8.4636233"><ele>20.0</ele><time>2026-03-28T14:15:07.383Z</time></trkpt><trkpt lat="40.3185633" lon="8.4638833"><ele>20.333333333333336</ele><time>2026-03-28T14:15:08.383Z</time></trkpt><trkpt lat="40.3185333" lon="8.4641633"><ele>20.666666666666668</ele><time>2026-03-28T14:15:09.383Z</time></trkpt><trkpt lat="40.3184917" lon="8.46446"><ele>21.0</ele><time>2026-03-28T14:15:10.383Z</time></trkpt><trkpt lat="40.318455" lon="8.464775"><ele>21.0</ele><time>2026-03-28T14:15:11.384Z</time></trkpt><trkpt lat="40.3184217" lon="8.4650833"><ele>21.0</ele><time>2026-03-28T14:15:12.384Z</time></trkpt><trkpt lat="40.3183733" lon="8.4653867"><ele>20.5</ele><time>2026-03-28T14:15:13.384Z</time></trkpt><trkpt lat="40.3183283" lon="8.4656867"><ele>20.0</ele><time>2026-03-28T14:15:14.384Z</time></trkpt><trkpt lat="40.3182733" lon="8.465965"><ele>20.0</ele><time>2026-03-28T14:15:15.383Z</time></trkpt><trkpt lat="40.3181983" lon="8.4662433"><ele>20.0</ele><time>2026-03-28T14:15:16.384Z</time></trkpt><trkpt lat="40.3181117" lon="8.4665183"><ele>17.0</ele><time>2026-03-28T14:15:17.384Z</time></trkpt><trkpt lat="40.31801" lon="8.4667983"><ele>14.0</ele><time>2026-03-28T14:15:18.383Z</time></trkpt><trkpt lat="40.3178933" lon="8.4670667"><ele>14.333333333333334</ele><time>2026-03-28T14:15:19.383Z</time></trkpt><trkpt lat="40.3177967" lon="8.46734"><ele>14.666666666666668</ele><time>2026-03-28T14:15:20.384Z</time></trkpt><trkpt lat="40.317695" lon="8.4675933"><ele>15.0</ele><time>2026-03-28T14:15:21.384Z</time></trkpt><trkpt lat="40.31761" lon="8.46786"><ele>17.0</ele><time>2026-03-28T14:15:22.384Z</time></trkpt><trkpt lat="40.3175217" lon="8.4681517"><ele>19.0</ele><time>2026-03-28T14:15:23.384Z</time></trkpt><trkpt lat="40.3174467" lon="8.4684433"><ele>19.0</ele><time>2026-03-28T14:15:24.384Z</time></trkpt><trkpt lat="40.317375" lon="8.46874"><ele>19.0</ele><time>2026-03-28T14:15:25.384Z</time></trkpt><trkpt lat="40.3173083" lon="8.4690433"><ele>19.5</ele><time>2026-03-28T14:15:26.383Z</time></trkpt><trkpt lat="40.3172417" lon="8.46936"><ele>20.0</ele><time>2026-03-28T14:15:27.384Z</time></trkpt><trkpt lat="40.3171717" lon="8.46967"><ele>20.0</ele><time>2026-03-28T14:15:28.383Z</time></trkpt><trkpt lat="40.3171017" lon="8.469975"><ele>20.0</ele><time>2026-03-28T14:15:29.384Z</time></trkpt><trkpt lat="40.31703" lon="8.470265"><ele>20.333333333333336</ele><time>2026-03-28T14:15:30.384Z</time></trkpt><trkpt lat="40.316965" lon="8.4705467"><ele>20.666666666666668</ele><time>2026-03-28T14:15:31.384Z</time></trkpt><trkpt lat="40.3169033" lon="8.4708183"><ele>21.0</ele><time>2026-03-28T14:15:32.384Z</time></trkpt><trkpt lat="40.3168483" lon="8.4710583"><ele>22.0</ele><time>2026-03-28T14:15:33.384Z</time></trkpt><trkpt lat="40.3168017" lon="8.471305"><ele>23.0</ele><time>2026-03-28T14:15:34.384Z</time></trkpt><trkpt lat="40.3167767" lon="8.4715383"><ele>24.0</ele><time>2026-03-28T14:15:35.384Z</time></trkpt><trkpt lat="40.316795" lon="8.4717833"><ele>24.0</ele><time>2026-03-28T14:15:36.384Z</time></trkpt><trkpt lat="40.3168317" lon="8.47203"><ele>24.0</ele><time>2026-03-28T14:15:37.384Z</time></trkpt><trkpt lat="40.3168583" lon="8.4722883"><ele>24.0</ele><time>2026-03-28T14:15:38.384Z</time></trkpt><trkpt lat="40.316845" lon="8.4725467"><ele>25.333333333333336</ele><time>2026-03-28T14:15:39.384Z</time></trkpt><trkpt lat="40.31679" lon="8.4728133"><ele>26.666666666666668</ele><time>2026-03-28T14:15:40.384Z</time></trkpt><trkpt lat="40.31671" lon="8.47307"><ele>28.0</ele><time>2026-03-28T14:15:41.383Z</time></trkpt><trkpt lat="40.3166217" lon="8.4733317"><ele>29.666666666666668</ele><time>2026-03-28T14:15:42.384Z</time></trkpt><trkpt lat="40.316545" lon="8.4736067"><ele>31.333333333333336</ele><time>2026-03-28T14:15:43.384Z</time></trkpt><trkpt lat="40.316485" lon="8.4738867"><ele>33.0</ele><time>2026-03-28T14:15:44.384Z</time></trkpt><trkpt lat="40.3164483" lon="8.4741633"><ele>34.0</ele><time>2026-03-28T14:15:45.384Z</time></trkpt><trkpt lat="40.3164467" lon="8.4744467"><ele>35.0</ele><time>2026-03-28T14:15:46.384Z</time></trkpt><trkpt lat="40.3164483" lon="8.4747333"><ele>36.0</ele><time>2026-03-28T14:15:47.384Z</time></trkpt><trkpt lat="40.3164317" lon="8.475025"><ele>35.0</ele><time>2026-03-28T14:15:48.384Z</time></trkpt><trkpt lat="40.316395" lon="8.4753133"><ele>34.0</ele><time>2026-03-28T14:15:49.384Z</time></trkpt><trkpt lat="40.3163333" lon="8.4755983"><ele>33.0</ele><time>2026-03-28T14:15:50.384Z</time></trkpt><trkpt lat="40.316265" lon="8.4758867"><ele>33.0</ele><time>2026-03-28T14:15:51.384Z</time></trkpt><trkpt lat="40.31622" lon="8.4761733"><ele>33.0</ele><time>2026-03-28T14:15:52.384Z</time></trkpt><trkpt lat="40.3161783" lon="8.4764533"><ele>33.0</ele><time>2026-03-28T14:15:53.384Z</time></trkpt><trkpt lat="40.3161383" lon="8.4767317"><ele>34.0</ele><time>2026-03-28T14:15:54.384Z</time></trkpt><trkpt lat="40.3161033" lon="8.4770183"><ele>35.0</ele><time>2026-03-28T14:15:55.384Z</time></trkpt><trkpt lat="40.3160467" lon="8.4772733"><ele>36.0</ele><time>2026-03-28T14:15:56.383Z</time></trkpt><trkpt lat="40.31597" lon="8.47753"><ele>36.666666666666664</ele><time>2026-03-28T14:15:57.384Z</time></trkpt><trkpt lat="40.3158717" lon="8.4777833"><ele>37.33333333333333</ele><time>2026-03-28T14:15:58.384Z</time></trkpt><trkpt lat="40.3157667" lon="8.4780467"><ele>38.0</ele><time>2026-03-28T14:15:59.383Z</time></trkpt><trkpt lat="40.315655" lon="8.4783133"><ele>41.0</ele><time>2026-03-28T14:16:00.384Z</time></trkpt><trkpt lat="40.3155467" lon="8.4785867"><ele>44.0</ele><time>2026-03-28T14:16:01.384Z</time></trkpt><trkpt lat="40.3154333" lon="8.47886"><ele>44.0</ele><time>2026-03-28T14:16:02.384Z</time></trkpt><trkpt lat="40.3153217" lon="8.479125"><ele>44.0</ele><time>2026-03-28T14:16:03.383Z</time></trkpt><trkpt lat="40.31522" lon="8.4793717"><ele>44.0</ele><time>2026-03-28T14:16:04.384Z</time></trkpt><trkpt lat="40.31511" lon="8.4796383"><ele>46.666666666666664</ele><time>2026-03-28T14:16:05.384Z</time></trkpt><trkpt lat="40.3150033" lon="8.4799033"><ele>49.33333333333333</ele><time>2026-03-28T14:16:06.383Z</time></trkpt><trkpt lat="40.3148883" lon="8.4801383"><ele>52.0</ele><time>2026-03-28T14:16:07.384Z</time></trkpt><trkpt lat="40.3147817" lon="8.4803783"><ele>54.33333333333333</ele><time>2026-03-28T14:16:08.384Z</time></trkpt><trkpt lat="40.3146917" lon="8.4806283"><ele>56.66666666666667</ele><time>2026-03-28T14:16:09.384Z</time></trkpt><trkpt lat="40.3146267" lon="8.4809033"><ele>59.0</ele><time>2026-03-28T14:16:10.384Z</time></trkpt><trkpt lat="40.314565" lon="8.4811983"><ele>59.0</ele><time>2026-03-28T14:16:11.384Z</time></trkpt><trkpt lat="40.3145117" lon="8.4815017"><ele>59.0</ele><time>2026-03-28T14:16:12.384Z</time></trkpt><trkpt lat="40.3144617" lon="8.4818033"><ele>58.5</ele><time>2026-03-28T14:16:13.384Z</time></trkpt><trkpt lat="40.3144183" lon="8.4821067"><ele>58.0</ele><time>2026-03-28T14:16:14.383Z</time></trkpt><trkpt lat="40.314365" lon="8.482405"><ele>58.0</ele><time>2026-03-28T14:16:15.383Z</time></trkpt><trkpt lat="40.314315" lon="8.4827067"><ele>58.0</ele><time>2026-03-28T14:16:16.384Z</time></trkpt><trkpt lat="40.3142567" lon="8.4830217"><ele>58.5</ele><time>2026-03-28T14:16:17.384Z</time></trkpt><trkpt lat="40.3142033" lon="8.4833367"><ele>59.0</ele><time>2026-03-28T14:16:18.384Z</time></trkpt><trkpt lat="40.3141467" lon="8.4836317"><ele>63.0</ele><time>2026-03-28T14:16:19.384Z</time></trkpt><trkpt lat="40.31409" lon="8.4839367"><ele>67.0</ele><time>2026-03-28T14:16:20.384Z</time></trkpt><trkpt lat="40.3140367" lon="8.4842167"><ele>67.0</ele><time>2026-03-28T14:16:21.384Z</time></trkpt><trkpt lat="40.3139917" lon="8.4844783"><ele>67.0</ele><time>2026-03-28T14:16:22.384Z</time></trkpt><trkpt lat="40.3139383" lon="8.484735"><ele>67.0</ele><time>2026-03-28T14:16:23.383Z</time></trkpt><trkpt lat="40.3138967" lon="8.4849717"><ele>72.33333333333333</ele><time>2026-03-28T14:16:24.384Z</time></trkpt><trkpt lat="40.3138517" lon="8.48519"><ele>77.66666666666667</ele><time>2026-03-28T14:16:25.384Z</time></trkpt><trkpt lat="40.313805" lon="8.4853817"><ele>83.0</ele><time>2026-03-28T14:16:26.384Z</time></trkpt><trkpt lat="40.3137383" lon="8.4855483"><ele>83.0</ele><time>2026-03-28T14:16:27.384Z</time></trkpt><trkpt lat="40.3136717" lon="8.4857233"><ele>83.0</ele><time>2026-03-28T14:16:28.384Z</time></trkpt><trkpt lat="40.31359" lon="8.4858733"><ele>83.0</ele><time>2026-03-28T14:16:29.384Z</time></trkpt><trkpt lat="40.3135083" lon="8.4860217"><ele>83.0</ele><time>2026-03-28T14:16:30.384Z</time></trkpt><trkpt lat="40.3134167" lon="8.4861933"><ele>80.66666666666667</ele><time>2026-03-28T14:16:31.384Z</time></trkpt><trkpt lat="40.31333" lon="8.4863767"><ele>78.33333333333333</ele><time>2026-03-28T14:16:32.384Z</time></trkpt><trkpt lat="40.313235" lon="8.486585"><ele>76.0</ele><time>2026-03-28T14:16:33.384Z</time></trkpt><trkpt lat="40.3131283" lon="8.4867967"><ele>77.0</ele><time>2026-03-28T14:16:34.384Z</time></trkpt><trkpt lat="40.3130133" lon="8.4870133"><ele>78.0</ele><time>2026-03-28T14:16:35.384Z</time></trkpt><trkpt lat="40.3128933" lon="8.4872367"><ele>79.0</ele><time>2026-03-28T14:16:36.384Z</time></trkpt><trkpt lat="40.3127717" lon="8.4874767"><ele>79.0</ele><time>2026-03-28T14:16:37.384Z</time></trkpt><trkpt lat="40.31268" lon="8.4877083"><ele>79.0</ele><time>2026-03-28T14:16:38.384Z</time></trkpt><trkpt lat="40.3125783" lon="8.487895"><ele>79.0</ele><time>2026-03-28T14:16:39.384Z</time></trkpt><trkpt lat="40.3124617" lon="8.4880717"><ele>78.66666666666666</ele><time>2026-03-28T14:16:40.384Z</time></trkpt><trkpt lat="40.3123133" lon="8.4882417"><ele>78.33333333333333</ele><time>2026-03-28T14:16:41.384Z</time></trkpt><trkpt lat="40.3121567" lon="8.488385"><ele>78.0</ele><time>2026-03-28T14:16:42.384Z</time></trkpt><trkpt lat="40.312" lon="8.4885233"><ele>78.0</ele><time>2026-03-28T14:16:43.384Z</time></trkpt><trkpt lat="40.31185" lon="8.4886233"><ele>78.0</ele><time>2026-03-28T14:16:44.384Z</time></trkpt><trkpt lat="40.3116883" lon="8.488685"><ele>78.0</ele><time>2026-03-28T14:16:45.384Z</time></trkpt><trkpt lat="40.3115233" lon="8.488685"><ele>75.66666666666667</ele><time>2026-03-28T14:16:46.384Z</time></trkpt><trkpt lat="40.3113533" lon="8.4886517"><ele>73.33333333333334</ele><time>2026-03-28T14:16:47.384Z</time></trkpt><trkpt lat="40.3111717" lon="8.4886133"><ele>71.0</ele><time>2026-03-28T14:16:48.384Z</time></trkpt><trkpt lat="40.3109917" lon="8.4885817"><ele>71.0</ele><time>2026-03-28T14:16:49.384Z</time></trkpt><trkpt lat="40.3108167" lon="8.4885467"><ele>71.0</ele><time>2026-03-28T14:16:50.384Z</time></trkpt><trkpt lat="40.3106633" lon="8.4884917"><ele>71.0</ele><time>2026-03-28T14:16:51.384Z</time></trkpt><trkpt lat="40.310535" lon="8.4883933"><ele>68.33333333333334</ele><time>2026-03-28T14:16:52.384Z</time></trkpt><trkpt lat="40.3104167" lon="8.4882383"><ele>65.66666666666667</ele><time>2026-03-28T14:16:53.383Z</time></trkpt><trkpt lat="40.3103033" lon="8.48806"><ele>63.0</ele><time>2026-03-28T14:16:54.384Z</time></trkpt><trkpt lat="40.310185" lon="8.4878517"><ele>63.0</ele><time>2026-03-28T14:16:55.384Z</time></trkpt><trkpt lat="40.310055" lon="8.4876433"><ele>63.0</ele><time>2026-03-28T14:16:56.384Z</time></trkpt><trkpt lat="40.309925" lon="8.4874217"><ele>63.0</ele><time>2026-03-28T14:16:57.383Z</time></trkpt><trkpt lat="40.3098" lon="8.4872117"><ele>60.0</ele><time>2026-03-28T14:16:58.384Z</time></trkpt><trkpt lat="40.3096783" lon="8.4870167"><ele>57.0</ele><time>2026-03-28T14:16:59.384Z</time></trkpt><trkpt lat="40.3095583" lon="8.48683"><ele>54.0</ele><time>2026-03-28T14:17:00.383Z</time></trkpt><trkpt lat="40.30942" lon="8.4866667"><ele>54.0</ele><time>2026-03-28T14:17:01.384Z</time></trkpt><trkpt lat="40.3092517" lon="8.4865217"><ele>54.0</ele><time>2026-03-28T14:17:02.384Z</time></trkpt><trkpt lat="40.30905" lon="8.4864017"><ele>54.0</ele><time>2026-03-28T14:17:03.384Z</time></trkpt><trkpt lat="40.30885" lon="8.4862767"><ele>53.66666666666667</ele><time>2026-03-28T14:17:04.384Z</time></trkpt><trkpt lat="40.3086483" lon="8.4861583"><ele>53.333333333333336</ele><time>2026-03-28T14:17:05.384Z</time></trkpt><trkpt lat="40.308455" lon="8.4860433"><ele>53.0</ele><time>2026-03-28T14:17:06.384Z</time></trkpt><trkpt lat="40.3082783" lon="8.4859433"><ele>53.0</ele><time>2026-03-28T14:17:07.384Z</time></trkpt><trkpt lat="40.3081183" lon="8.4858517"><ele>53.0</ele><time>2026-03-28T14:17:08.384Z</time></trkpt><trkpt lat="40.307975" lon="8.4857483"><ele>53.0</ele><time>2026-03-28T14:17:09.383Z</time></trkpt><trkpt lat="40.3078533" lon="8.4856133"><ele>49.333333333333336</ele><time>2026-03-28T14:17:10.384Z</time></trkpt><trkpt lat="40.307755" lon="8.4854317"><ele>45.66666666666667</ele><time>2026-03-28T14:17:11.384Z</time></trkpt><trkpt lat="40.30767" lon="8.4852167"><ele>42.0</ele><time>2026-03-28T14:17:12.383Z</time></trkpt><trkpt lat="40.3075767" lon="8.4850133"><ele>42.0</ele><time>2026-03-28T14:17:13.384Z</time></trkpt><trkpt lat="40.3074833" lon="8.48483"><ele>42.0</ele><time>2026-03-28T14:17:14.384Z</time></trkpt><trkpt lat="40.3073617" lon="8.48468"><ele>42.0</ele><time>2026-03-28T14:17:15.384Z</time></trkpt><trkpt lat="40.30721" lon="8.4845683"><ele>42.0</ele><time>2026-03-28T14:17:16.384Z</time></trkpt><trkpt lat="40.3070333" lon="8.4844967"><ele>42.0</ele><time>2026-03-28T14:17:17.384Z</time></trkpt><trkpt lat="40.3068367" lon="8.4844267"><ele>42.0</ele><time>2026-03-28T14:17:18.384Z</time></trkpt><trkpt lat="40.3066217" lon="8.4843633"><ele>42.0</ele><time>2026-03-28T14:17:19.384Z</time></trkpt><trkpt lat="40.3064183" lon="8.4842933"><ele>42.0</ele><time>2026-03-28T14:17:20.383Z</time></trkpt><trkpt lat="40.3062067" lon="8.4842483"><ele>42.0</ele><time>2026-03-28T14:17:21.384Z</time></trkpt><trkpt lat="40.3060017" lon="8.4842"><ele>39.333333333333336</ele><time>2026-03-28T14:17:22.383Z</time></trkpt><trkpt lat="40.3057867" lon="8.484165"><ele>36.66666666666667</ele><time>2026-03-28T14:17:23.384Z</time></trkpt><trkpt lat="40.3055733" lon="8.4841483"><ele>34.0</ele><time>2026-03-28T14:17:24.383Z</time></trkpt><trkpt lat="40.3053617" lon="8.48412"><ele>31.0</ele><time>2026-03-28T14:17:25.384Z</time></trkpt><trkpt lat="40.3051467" lon="8.4841"><ele>28.0</ele><time>2026-03-28T14:17:26.384Z</time></trkpt><trkpt lat="40.3049217" lon="8.48407"><ele>25.0</ele><time>2026-03-28T14:17:27.383Z</time></trkpt><trkpt lat="40.3047033" lon="8.4840467"><ele>24.0</ele><time>2026-03-28T14:17:28.383Z</time></trkpt><trkpt lat="40.3044883" lon="8.4840167"><ele>23.0</ele><time>2026-03-28T14:17:29.383Z</time></trkpt><trkpt lat="40.30427" lon="8.484"><ele>22.0</ele><time>2026-03-28T14:17:30.383Z</time></trkpt><trkpt lat="40.3040533" lon="8.4839983"><ele>21.333333333333332</ele><time>2026-03-28T14:17:31.384Z</time></trkpt><trkpt lat="40.3038433" lon="8.4839933"><ele>20.666666666666668</ele><time>2026-03-28T14:17:32.384Z</time></trkpt><trkpt lat="40.3036283" lon="8.484015"><ele>20.0</ele><time>2026-03-28T14:17:33.384Z</time></trkpt><trkpt lat="40.30342" lon="8.4840417"><ele>20.0</ele><time>2026-03-28T14:17:34.384Z</time></trkpt><trkpt lat="40.3032083" lon="8.4841"><ele>20.0</ele><time>2026-03-28T14:17:35.384Z</time></trkpt><trkpt lat="40.303" lon="8.484155"><ele>20.0</ele><time>2026-03-28T14:17:36.384Z</time></trkpt><trkpt lat="40.3028033" lon="8.4842183"><ele>20.333333333333336</ele><time>2026-03-28T14:17:37.384Z</time></trkpt><trkpt lat="40.302615" lon="8.4842767"><ele>20.666666666666668</ele><time>2026-03-28T14:17:38.384Z</time></trkpt><trkpt lat="40.3024267" lon="8.4843717"><ele>21.0</ele><time>2026-03-28T14:17:39.384Z</time></trkpt><trkpt lat="40.30225" lon="8.4845133"><ele>17.0</ele><time>2026-03-28T14:17:40.384Z</time></trkpt><trkpt lat="40.3020867" lon="8.48465"><ele>13.0</ele><time>2026-03-28T14:17:41.384Z</time></trkpt><trkpt lat="40.3019233" lon="8.48475"><ele>9.0</ele><time>2026-03-28T14:17:42.384Z</time></trkpt><trkpt lat="40.30174" lon="8.4848117"><ele>9.0</ele><time>2026-03-28T14:17:43.384Z</time></trkpt><trkpt lat="40.3015317" lon="8.48483"><ele>9.0</ele><time>2026-03-28T14:17:44.384Z</time></trkpt><trkpt lat="40.3013167" lon="8.4848233"><ele>9.0</ele><time>2026-03-28T14:17:45.384Z</time></trkpt><trkpt lat="40.3011017" lon="8.4848117"><ele>8.0</ele><time>2026-03-28T14:17:46.383Z</time></trkpt><trkpt lat="40.3009033" lon="8.4847967"><ele>7.0</ele><time>2026-03-28T14:17:47.383Z</time></trkpt><trkpt lat="40.300705" lon="8.4847867"><ele>6.0</ele><time>2026-03-28T14:17:48.384Z</time></trkpt><trkpt lat="40.3005133" lon="8.4847783"><ele>5.666666666666667</ele><time>2026-03-28T14:17:49.383Z</time></trkpt><trkpt lat="40.30033" lon="8.4847683"><ele>5.333333333333334</ele><time>2026-03-28T14:17:50.384Z</time></trkpt><trkpt lat="40.3001617" lon="8.4847583"><ele>5.0</ele><time>2026-03-28T14:17:51.384Z</time></trkpt><trkpt lat="40.2999983" lon="8.4847533"><ele>5.0</ele><time>2026-03-28T14:17:52.383Z</time></trkpt><trkpt lat="40.29984" lon="8.4847567"><ele>5.0</ele><time>2026-03-28T14:17:53.384Z</time></trkpt><trkpt lat="40.2996983" lon="8.48476"><ele>5.0</ele><time>2026-03-28T14:17:54.384Z</time></trkpt><trkpt lat="40.299565" lon="8.48477"><ele>5.0</ele><time>2026-03-28T14:17:55.383Z</time></trkpt><trkpt lat="40.299435" lon="8.4847817"><ele>5.0</ele><time>2026-03-28T14:17:56.383Z</time></trkpt><trkpt lat="40.29931" lon="8.48479"><ele>5.0</ele><time>2026-03-28T14:17:57.384Z</time></trkpt><trkpt lat="40.29919" lon="8.4848083"><ele>5.0</ele><time>2026-03-28T14:17:58.384Z</time></trkpt><trkpt lat="40.29908" lon="8.4848117"><ele>5.0</ele><time>2026-03-28T14:17:59.384Z</time></trkpt><trkpt lat="40.2989667" lon="8.4848183"><ele>4.5</ele><time>2026-03-28T14:18:00.383Z</time></trkpt><trkpt lat="40.2988317" lon="8.4848333"><ele>4.0</ele><time>2026-03-28T14:18:01.384Z</time></trkpt><trkpt lat="40.2986933" lon="8.4848467"><ele>3.5</ele><time>2026-03-28T14:18:02.384Z</time></trkpt><trkpt lat="40.2985417" lon="8.4848533"><ele>3.0</ele><time>2026-03-28T14:18:03.384Z</time></trkpt><trkpt lat="40.2983883" lon="8.48486"><ele>3.0</ele><time>2026-03-28T14:18:04.384Z</time></trkpt><trkpt lat="40.2982383" lon="8.4848767"><ele>3.0</ele><time>2026-03-28T14:18:05.384Z</time></trkpt><trkpt lat="40.2981017" lon="8.48489"><ele>3.0</ele><time>2026-03-28T14:18:06.383Z</time></trkpt><trkpt lat="40.2979683" lon="8.4848883"><ele>3.0</ele><time>2026-03-28T14:18:07.384Z</time></trkpt><trkpt lat="40.29784" lon="8.4848917"><ele>3.0</ele><time>2026-03-28T14:18:08.383Z</time></trkpt><trkpt lat="40.2977217" lon="8.4849"><ele>3.0</ele><time>2026-03-28T14:18:09.384Z</time></trkpt><trkpt lat="40.2976117" lon="8.4849217"><ele>3.0</ele><time>2026-03-28T14:18:10.384Z</time></trkpt><trkpt lat="40.2975083" lon="8.4849217"><ele>3.0</ele><time>2026-03-28T14:18:11.384Z</time></trkpt><trkpt lat="40.2974083" lon="8.4849183"><ele>3.0</ele><time>2026-03-28T14:18:12.384Z</time></trkpt><trkpt lat="40.2973133" lon="8.48491"><ele>3.0</ele><time>2026-03-28T14:18:13.384Z</time></trkpt><trkpt lat="40.297235" lon="8.4849067"><ele>3.0</ele><time>2026-03-28T14:18:14.384Z</time></trkpt><trkpt lat="40.2971617" lon="8.484915"><ele>3.0</ele><time>2026-03-28T14:18:15.384Z</time></trkpt><trkpt lat="40.297075" lon="8.4849267"><ele>3.0</ele><time>2026-03-28T14:18:16.383Z</time></trkpt><trkpt lat="40.2969733" lon="8.4849433"><ele>3.0</ele><time>2026-03-28T14:18:17.384Z</time></trkpt><trkpt lat="40.2968583" lon="8.4849617"><ele>3.0</ele><time>2026-03-28T14:18:18.384Z</time></trkpt><trkpt lat="40.296735" lon="8.4849733"><ele>3.0</ele><time>2026-03-28T14:18:19.384Z</time></trkpt><trkpt lat="40.2965983" lon="8.48498"><ele>3.0</ele><time>2026-03-28T14:18:20.383Z</time></trkpt><trkpt lat="40.2964667" lon="8.4849667"><ele>3.0</ele><time>2026-03-28T14:18:21.384Z</time></trkpt><trkpt lat="40.2963283" lon="8.4849517"><ele>2.8</ele><time>2026-03-28T14:18:22.383Z</time></trkpt><trkpt lat="40.2961967" lon="8.484895"><ele>2.5999999999999996</ele><time>2026-03-28T14:18:23.384Z</time></trkpt><trkpt lat="40.2960833" lon="8.4848183"><ele>2.4000000000000004</ele><time>2026-03-28T14:18:24.383Z</time></trkpt><trkpt lat="40.29599" lon="8.48475"><ele>2.2</ele><time>2026-03-28T14:18:25.383Z</time></trkpt><trkpt lat="40.29593" lon="8.484705"><ele>2.0</ele><time>2026-03-28T14:18:26.384Z</time></trkpt><trkpt lat="40.2958617" lon="8.484655"><ele>2.0</ele><time>2026-03-28T14:18:27.384Z</time></trkpt><trkpt lat="40.29579" lon="8.484605"><ele>2.0</ele><time>2026-03-28T14:18:28.384Z</time></trkpt><trkpt lat="40.2957067" lon="8.4845467"><ele>2.0</ele><time>2026-03-28T14:18:29.384Z</time></trkpt><trkpt lat="40.2955983" lon="8.4844733"><ele>2.0</ele><time>2026-03-28T14:18:30.384Z</time></trkpt><trkpt lat="40.29547" lon="8.4844083"><ele>2.0</ele><time>2026-03-28T14:18:31.384Z</time></trkpt><trkpt lat="40.2953467" lon="8.4843317"><ele>1.75</ele><time>2026-03-28T14:18:32.384Z</time></trkpt><trkpt lat="40.29522" lon="8.4842633"><ele>1.5</ele><time>2026-03-28T14:18:33.383Z</time></trkpt><trkpt lat="40.2951033" lon="8.4841867"><ele>1.25</ele><time>2026-03-28T14:18:34.384Z</time></trkpt><trkpt lat="40.29501" lon="8.4841267"><ele>1.0</ele><time>2026-03-28T14:18:35.383Z</time></trkpt><trkpt lat="40.2949233" lon="8.48409"><ele>0.9999999999999999</ele><time>2026-03-28T14:18:36.384Z</time></trkpt><trkpt lat="40.294845" lon="8.4840933"><ele>1.0</ele><time>2026-03-28T14:18:37.384Z</time></trkpt><trkpt lat="40.2947917" lon="8.48415"><ele>1.0</ele><time>2026-03-28T14:18:38.383Z</time></trkpt><trkpt lat="40.29475" lon="8.484245"><ele>1.0</ele><time>2026-03-28T14:18:39.384Z</time></trkpt><trkpt lat="40.294715" lon="8.4843617"><ele>0.9999999999999999</ele><time>2026-03-28T14:18:40.384Z</time></trkpt><trkpt lat="40.29468" lon="8.484485"><ele>1.0</ele><time>2026-03-28T14:18:41.384Z</time></trkpt><trkpt lat="40.2946333" lon="8.484615"><ele>1.5</ele><time>2026-03-28T14:18:42.383Z</time></trkpt><trkpt lat="40.2946117" lon="8.484765"><ele>2.0</ele><time>2026-03-28T14:18:43.384Z</time></trkpt><trkpt lat="40.2945917" lon="8.4849117"><ele>2.5</ele><time>2026-03-28T14:18:44.384Z</time></trkpt><trkpt lat="40.2945683" lon="8.4850667"><ele>3.0</ele><time>2026-03-28T14:18:45.384Z</time></trkpt><trkpt lat="40.2945417" lon="8.485235"><ele>3.0</ele><time>2026-03-28T14:18:46.383Z</time></trkpt><trkpt lat="40.2945" lon="8.4854067"><ele>3.0</ele><time>2026-03-28T14:18:47.384Z</time></trkpt><trkpt lat="40.294445" lon="8.48558"><ele>3.0</ele><time>2026-03-28T14:18:48.384Z</time></trkpt><trkpt lat="40.29437" lon="8.4857467"><ele>3.0</ele><time>2026-03-28T14:18:49.384Z</time></trkpt><trkpt lat="40.2942817" lon="8.4859083"><ele>2.6666666666666665</ele><time>2026-03-28T14:18:50.383Z</time></trkpt><trkpt lat="40.2941817" lon="8.4860733"><ele>2.333333333333333</ele><time>2026-03-28T14:18:51.384Z</time></trkpt><trkpt lat="40.29409" lon="8.486245"><ele>2.0</ele><time>2026-03-28T14:18:52.383Z</time></trkpt><trkpt lat="40.2940117" lon="8.48643"><ele>2.0</ele><time>2026-03-28T14:18:53.383Z</time></trkpt><trkpt lat="40.2939333" lon="8.4866267"><ele>2.0</ele><time>2026-03-28T14:18:54.384Z</time></trkpt><trkpt lat="40.2938567" lon="8.4868217"><ele>2.0</ele><time>2026-03-28T14:18:55.384Z</time></trkpt><trkpt lat="40.2937933" lon="8.4870383"><ele>2.333333333333333</ele><time>2026-03-28T14:18:56.384Z</time></trkpt><trkpt lat="40.2937317" lon="8.487255"><ele>2.6666666666666665</ele><time>2026-03-28T14:18:57.384Z</time></trkpt><trkpt lat="40.2936667" lon="8.4874633"><ele>3.0</ele><time>2026-03-28T14:18:58.384Z</time></trkpt><trkpt lat="40.2935967" lon="8.4876833"><ele>3.0</ele><time>2026-03-28T14:18:59.384Z</time></trkpt><trkpt lat="40.2935317" lon="8.4879083"><ele>3.0</ele><time>2026-03-28T14:19:00.383Z</time></trkpt><trkpt lat="40.2934683" lon="8.4881217"><ele>3.0</ele><time>2026-03-28T14:19:01.384Z</time></trkpt><trkpt lat="40.2934" lon="8.4883417"><ele>3.0</ele><time>2026-03-28T14:19:02.383Z</time></trkpt><trkpt lat="40.2933383" lon="8.488565"><ele>3.0</ele><time>2026-03-28T14:19:03.384Z</time></trkpt><trkpt lat="40.293275" lon="8.4887933"><ele>3.0</ele><time>2026-03-28T14:19:04.384Z</time></trkpt><trkpt lat="40.2932133" lon="8.4890083"><ele>3.0</ele><time>2026-03-28T14:19:05.384Z</time></trkpt><trkpt lat="40.2931483" lon="8.48922"><ele>3.0</ele><time>2026-03-28T14:19:06.384Z</time></trkpt><trkpt lat="40.29311" lon="8.48944"><ele>3.0</ele><time>2026-03-28T14:19:07.383Z</time></trkpt><trkpt lat="40.293075" lon="8.4896733"><ele>3.0</ele><time>2026-03-28T14:19:08.383Z</time></trkpt><trkpt lat="40.293045" lon="8.4899083"><ele>3.0</ele><time>2026-03-28T14:19:09.384Z</time></trkpt><trkpt lat="40.293015" lon="8.490165"><ele>3.0</ele><time>2026-03-28T14:19:10.384Z</time></trkpt><trkpt lat="40.2929817" lon="8.4904317"><ele>3.333333333333333</ele><time>2026-03-28T14:19:11.383Z</time></trkpt><trkpt lat="40.2929567" lon="8.490695"><ele>3.6666666666666665</ele><time>2026-03-28T14:19:12.384Z</time></trkpt><trkpt lat="40.2929317" lon="8.4909533"><ele>4.0</ele><time>2026-03-28T14:19:13.383Z</time></trkpt><trkpt lat="40.2929033" lon="8.4912267"><ele>4.333333333333333</ele><time>2026-03-28T14:19:14.384Z</time></trkpt><trkpt lat="40.2928683" lon="8.4914767"><ele>4.666666666666667</ele><time>2026-03-28T14:19:15.384Z</time></trkpt><trkpt lat="40.2928317" lon="8.49172"><ele>5.0</ele><time>2026-03-28T14:19:16.384Z</time></trkpt><trkpt lat="40.2928017" lon="8.4919533"><ele>4.333333333333334</ele><time>2026-03-28T14:19:17.383Z</time></trkpt><trkpt lat="40.2927833" lon="8.4921783"><ele>3.666666666666667</ele><time>2026-03-28T14:19:18.384Z</time></trkpt><trkpt lat="40.2927567" lon="8.4923883"><ele>3.0</ele><time>2026-03-28T14:19:19.383Z</time></trkpt><trkpt lat="40.2927417" lon="8.4925617"><ele>3.0</ele><time>2026-03-28T14:19:20.384Z</time></trkpt><trkpt lat="40.2927417" lon="8.4927333"><ele>3.0</ele><time>2026-03-28T14:19:21.383Z</time></trkpt><trkpt lat="40.2927917" lon="8.492905"><ele>3.0</ele><time>2026-03-28T14:19:22.384Z</time></trkpt><trkpt lat="40.2928767" lon="8.4930667"><ele>3.0</ele><time>2026-03-28T14:19:23.384Z</time></trkpt><trkpt lat="40.29298" lon="8.49322"><ele>3.333333333333333</ele><time>2026-03-28T14:19:24.384Z</time></trkpt><trkpt lat="40.2931183" lon="8.4933667"><ele>3.6666666666666665</ele><time>2026-03-28T14:19:25.384Z</time></trkpt><trkpt lat="40.2932583" lon="8.493525"><ele>4.0</ele><time>2026-03-28T14:19:26.383Z</time></trkpt><trkpt lat="40.2934133" lon="8.4936733"><ele>3.6666666666666665</ele><time>2026-03-28T14:19:27.383Z</time></trkpt><trkpt lat="40.2935667" lon="8.4938183"><ele>3.333333333333333</ele><time>2026-03-28T14:19:28.383Z</time></trkpt><trkpt lat="40.2937083" lon="8.4939583"><ele>3.0</ele><time>2026-03-28T14:19:29.384Z</time></trkpt><trkpt lat="40.2938383" lon="8.4940983"><ele>3.0</ele><time>2026-03-28T14:19:30.384Z</time></trkpt><trkpt lat="40.293965" lon="8.494235"><ele>3.0</ele><time>2026-03-28T14:19:31.384Z</time></trkpt><trkpt lat="40.2940967" lon="8.4943817"><ele>3.0</ele><time>2026-03-28T14:19:32.384Z</time></trkpt><trkpt lat="40.2942283" lon="8.4945233"><ele>3.0</ele><time>2026-03-28T14:19:33.384Z</time></trkpt><trkpt lat="40.2943533" lon="8.4946533"><ele>3.0</ele><time>2026-03-28T14:19:34.384Z</time></trkpt><trkpt lat="40.2944767" lon="8.4947883"><ele>3.0</ele><time>2026-03-28T14:19:35.383Z</time></trkpt><trkpt lat="40.2945967" lon="8.4949033"><ele>3.0</ele><time>2026-03-28T14:19:36.384Z</time></trkpt><trkpt lat="40.2947033" lon="8.4950067"><ele>3.0</ele><time>2026-03-28T14:19:37.383Z</time></trkpt><trkpt lat="40.2948033" lon="8.4951017"><ele>3.0</ele><time>2026-03-28T14:19:38.384Z</time></trkpt><trkpt lat="40.2948883" lon="8.4951933"><ele>3.0</ele><time>2026-03-28T14:19:39.384Z</time></trkpt><trkpt lat="40.2949667" lon="8.4952783"><ele>3.0</ele><time>2026-03-28T14:19:40.384Z</time></trkpt><trkpt lat="40.2950383" lon="8.4953633"><ele>3.0</ele><time>2026-03-28T14:19:41.383Z</time></trkpt><trkpt lat="40.2951183" lon="8.4954383"><ele>3.0</ele><time>2026-03-28T14:19:42.384Z</time></trkpt><trkpt lat="40.2951883" lon="8.49552"><ele>3.0</ele><time>2026-03-28T14:19:43.383Z</time></trkpt><trkpt lat="40.2952633" lon="8.495595"><ele>3.0</ele><time>2026-03-28T14:19:44.383Z</time></trkpt><trkpt lat="40.29534" lon="8.4956767"><ele>3.0</ele><time>2026-03-28T14:19:45.384Z</time></trkpt><trkpt lat="40.2954067" lon="8.4957833"><ele>3.0</ele><time>2026-03-28T14:19:46.384Z</time></trkpt><trkpt lat="40.2954733" lon="8.495895"><ele>3.0</ele><time>2026-03-28T14:19:47.384Z</time></trkpt><trkpt lat="40.295535" lon="8.496005"><ele>3.0</ele><time>2026-03-28T14:19:48.384Z</time></trkpt><trkpt lat="40.2955817" lon="8.4961133"><ele>3.0</ele><time>2026-03-28T14:19:49.383Z</time></trkpt><trkpt lat="40.295625" lon="8.4962183"><ele>2.8</ele><time>2026-03-28T14:19:50.384Z</time></trkpt><trkpt lat="40.29567" lon="8.496335"><ele>2.5999999999999996</ele><time>2026-03-28T14:19:51.384Z</time></trkpt><trkpt lat="40.2957083" lon="8.496455"><ele>2.4000000000000004</ele><time>2026-03-28T14:19:52.384Z</time></trkpt><trkpt lat="40.2957433" lon="8.4965833"><ele>2.2</ele><time>2026-03-28T14:19:53.384Z</time></trkpt><trkpt lat="40.2957767" lon="8.4967133"><ele>2.0</ele><time>2026-03-28T14:19:54.384Z</time></trkpt><trkpt lat="40.2958083" lon="8.496845"><ele>2.0</ele><time>2026-03-28T14:19:55.384Z</time></trkpt><trkpt lat="40.2958283" lon="8.4969683"><ele>2.0</ele><time>2026-03-28T14:19:56.384Z</time></trkpt><trkpt lat="40.2958467" lon="8.4970917"><ele>2.0</ele><time>2026-03-28T14:19:57.384Z</time></trkpt><trkpt lat="40.2958633" lon="8.4972217"><ele>2.0</ele><time>2026-03-28T14:19:58.384Z</time></trkpt><trkpt lat="40.2958717" lon="8.4973467"><ele>2.0</ele><time>2026-03-28T14:19:59.384Z</time></trkpt><trkpt lat="40.2958683" lon="8.4974617"><ele>2.4000000000000004</ele><time>2026-03-28T14:20:00.383Z</time></trkpt><trkpt lat="40.2958767" lon="8.49758"><ele>2.8000000000000003</ele><time>2026-03-28T14:20:01.384Z</time></trkpt><trkpt lat="40.2958833" lon="8.4976967"><ele>3.2</ele><time>2026-03-28T14:20:02.384Z</time></trkpt><trkpt lat="40.2958883" lon="8.4978233"><ele>3.6</ele><time>2026-03-28T14:20:03.383Z</time></trkpt><trkpt lat="40.295895" lon="8.4979467"><ele>4.0</ele><time>2026-03-28T14:20:04.383Z</time></trkpt><trkpt lat="40.2959017" lon="8.4980667"><ele>4.333333333333333</ele><time>2026-03-28T14:20:05.383Z</time></trkpt><trkpt lat="40.2959033" lon="8.4981783"><ele>4.666666666666666</ele><time>2026-03-28T14:20:06.384Z</time></trkpt><trkpt lat="40.2959067" lon="8.4982883"><ele>5.0</ele><time>2026-03-28T14:20:07.383Z</time></trkpt><trkpt lat="40.2958983" lon="8.4983967"><ele>5.333333333333333</ele><time>2026-03-28T14:20:08.384Z</time></trkpt><trkpt lat="40.295885" lon="8.4985033"><ele>5.666666666666667</ele><time>2026-03-28T14:20:09.384Z</time></trkpt><trkpt lat="40.295865" lon="8.49861"><ele>6.0</ele><time>2026-03-28T14:20:10.384Z</time></trkpt><trkpt lat="40.2958367" lon="8.4987317"><ele>6.0</ele><time>2026-03-28T14:20:11.383Z</time></trkpt><trkpt lat="40.2958133" lon="8.4988583"><ele>6.0</ele><time>2026-03-28T14:20:12.384Z</time></trkpt><trkpt lat="40.295775" lon="8.498965"><ele>6.0</ele><time>2026-03-28T14:20:13.384Z</time></trkpt><trkpt lat="40.2957367" lon="8.499075"><ele>6.0</ele><time>2026-03-28T14:20:14.383Z</time></trkpt><trkpt lat="40.29569" lon="8.499185"><ele>6.0</ele><time>2026-03-28T14:20:15.383Z</time></trkpt><trkpt lat="40.2956483" lon="8.4992983"><ele>6.0</ele><time>2026-03-28T14:20:16.384Z</time></trkpt><trkpt lat="40.2956183" lon="8.4994117"><ele>6.0</ele><time>2026-03-28T14:20:17.383Z</time></trkpt><trkpt lat="40.29558" lon="8.499515"><ele>6.0</ele><time>2026-03-28T14:20:18.384Z</time></trkpt><trkpt lat="40.2955417" lon="8.4996133"><ele>6.0</ele><time>2026-03-28T14:20:19.384Z</time></trkpt><trkpt lat="40.2955117" lon="8.49972"><ele>6.0</ele><time>2026-03-28T14:20:20.383Z</time></trkpt><trkpt lat="40.2954883" lon="8.499815"><ele>6.0</ele><time>2026-03-28T14:20:21.383Z</time></trkpt><trkpt lat="40.2954733" lon="8.49991"><ele>5.833333333333333</ele><time>2026-03-28T14:20:22.383Z</time></trkpt><trkpt lat="40.295455" lon="8.5000117"><ele>5.666666666666667</ele><time>2026-03-28T14:20:23.384Z</time></trkpt><trkpt lat="40.2954283" lon="8.5001183"><ele>5.5</ele><time>2026-03-28T14:20:24.383Z</time></trkpt><trkpt lat="40.2954033" lon="8.50022"><ele>5.333333333333334</ele><time>2026-03-28T14:20:25.383Z</time></trkpt><trkpt lat="40.2953767" lon="8.50033"><ele>5.166666666666667</ele><time>2026-03-28T14:20:26.384Z</time></trkpt><trkpt lat="40.2953517" lon="8.5004383"><ele>5.0</ele><time>2026-03-28T14:20:27.383Z</time></trkpt><trkpt lat="40.2953233" lon="8.5005467"><ele>5.0</ele><time>2026-03-28T14:20:28.384Z</time></trkpt><trkpt lat="40.295295" lon="8.50065"><ele>5.0</ele><time>2026-03-28T14:20:29.384Z</time></trkpt><trkpt lat="40.2952717" lon="8.5007583"><ele>5.0</ele><time>2026-03-28T14:20:30.384Z</time></trkpt><trkpt lat="40.2952483" lon="8.50086"><ele>5.0</ele><time>2026-03-28T14:20:31.384Z</time></trkpt><trkpt lat="40.2952417" lon="8.50097"><ele>5.0</ele><time>2026-03-28T14:20:32.384Z</time></trkpt><trkpt lat="40.29523" lon="8.50108"><ele>5.0</ele><time>2026-03-28T14:20:33.384Z</time></trkpt><trkpt lat="40.2952167" lon="8.501185"><ele>5.0</ele><time>2026-03-28T14:20:34.384Z</time></trkpt><trkpt lat="40.2952033" lon="8.50128"><ele>5.0</ele><time>2026-03-28T14:20:35.384Z</time></trkpt><trkpt lat="40.2951883" lon="8.501365"><ele>5.0</ele><time>2026-03-28T14:20:36.384Z</time></trkpt><trkpt lat="40.2951667" lon="8.5015117"><ele>5.0</ele><time>2026-03-28T14:20:38.384Z</time></trkpt><trkpt lat="40.2951317" lon="8.501645"><ele>5.0</ele><time>2026-03-28T14:20:40.384Z</time></trkpt><trkpt lat="40.2951117" lon="8.50178"><ele>5.0</ele><time>2026-03-28T14:20:42.384Z</time></trkpt><trkpt lat="40.295085" lon="8.501925"><ele>5.0</ele><time>2026-03-28T14:20:44.384Z</time></trkpt><trkpt lat="40.29506" lon="8.5020767"><ele>5.0</ele><time>2026-03-28T14:20:46.384Z</time></trkpt><trkpt lat="40.29504" lon="8.5022467"><ele>5.0</ele><time>2026-03-28T14:20:48.384Z</time></trkpt><trkpt lat="40.2950267" lon="8.50234"><ele>5.0</ele><time>2026-03-28T14:20:49.383Z</time></trkpt><trkpt lat="40.2950167" lon="8.5024433"><ele>5.428571428571429</ele><time>2026-03-28T14:20:50.384Z</time></trkpt><trkpt lat="40.295005" lon="8.5025367"><ele>5.857142857142858</ele><time>2026-03-28T14:20:51.383Z</time></trkpt><trkpt lat="40.2949933" lon="8.502625"><ele>6.285714285714286</ele><time>2026-03-28T14:20:52.384Z</time></trkpt><trkpt lat="40.2949817" lon="8.5027083"><ele>6.7142857142857135</ele><time>2026-03-28T14:20:53.384Z</time></trkpt><trkpt lat="40.2949683" lon="8.50279"><ele>7.142857142857142</ele><time>2026-03-28T14:20:54.384Z</time></trkpt><trkpt lat="40.2949567" lon="8.5028783"><ele>7.571428571428571</ele><time>2026-03-28T14:20:55.383Z</time></trkpt><trkpt lat="40.2949417" lon="8.50302"><ele>8.0</ele><time>2026-03-28T14:20:57.384Z</time></trkpt><trkpt lat="40.2949367" lon="8.50314"><ele>8.200000000000001</ele><time>2026-03-28T14:20:59.383Z</time></trkpt><trkpt lat="40.2949433" lon="8.5032333"><ele>8.4</ele><time>2026-03-28T14:21:02.384Z</time></trkpt><trkpt lat="40.294945" lon="8.50334"><ele>8.600000000000001</ele><time>2026-03-28T14:21:06.383Z</time></trkpt><trkpt lat="40.294935" lon="8.5034817"><ele>8.8</ele><time>2026-03-28T14:21:09.384Z</time></trkpt><trkpt lat="40.2948933" lon="8.5035817"><ele>9.0</ele><time>2026-03-28T14:21:11.384Z</time></trkpt><trkpt lat="40.2947717" lon="8.5036033"><ele>8.4</ele><time>2026-03-28T14:21:13.384Z</time></trkpt><trkpt lat="40.2947017" lon="8.5035817"><ele>7.800000000000001</ele><time>2026-03-28T14:21:14.384Z</time></trkpt><trkpt lat="40.294615" lon="8.5035533"><ele>7.199999999999999</ele><time>2026-03-28T14:21:16.384Z</time></trkpt><trkpt lat="40.2945133" lon="8.5035283"><ele>6.6</ele><time>2026-03-28T14:21:18.384Z</time></trkpt><trkpt lat="40.29441" lon="8.5035283"><ele>6.0</ele><time>2026-03-28T14:21:20.384Z</time></trkpt><trkpt lat="40.2942933" lon="8.5035167"><ele>6.0</ele><time>2026-03-28T14:21:22.384Z</time></trkpt><trkpt lat="40.29418" lon="8.5034917"><ele>6.0</ele><time>2026-03-28T14:21:24.384Z</time></trkpt><trkpt lat="40.294065" lon="8.5034717"><ele>6.0</ele><time>2026-03-28T14:21:26.383Z</time></trkpt><trkpt lat="40.2939567" lon="8.5034467"><ele>6.0</ele><time>2026-03-28T14:21:28.383Z</time></trkpt><trkpt lat="40.2938867" lon="8.5034383"><ele>6.0</ele><time>2026-03-28T14:21:29.384Z</time></trkpt><trkpt lat="40.2938117" lon="8.5034383"><ele>6.166666666666667</ele><time>2026-03-28T14:21:30.384Z</time></trkpt><trkpt lat="40.2937367" lon="8.5034317"><ele>6.333333333333334</ele><time>2026-03-28T14:21:31.384Z</time></trkpt><trkpt lat="40.2936483" lon="8.503435"><ele>6.5</ele><time>2026-03-28T14:21:32.383Z</time></trkpt><trkpt lat="40.29356" lon="8.503425"><ele>6.666666666666667</ele><time>2026-03-28T14:21:33.384Z</time></trkpt><trkpt lat="40.29347" lon="8.5034183"><ele>6.833333333333334</ele><time>2026-03-28T14:21:34.384Z</time></trkpt><trkpt lat="40.293375" lon="8.503415"><ele>7.0</ele><time>2026-03-28T14:21:35.384Z</time></trkpt><trkpt lat="40.2932767" lon="8.5034117"><ele>7.0</ele><time>2026-03-28T14:21:36.383Z</time></trkpt><trkpt lat="40.29318" lon="8.5033883"><ele>6.999999999999999</ele><time>2026-03-28T14:21:37.384Z</time></trkpt><trkpt lat="40.293075" lon="8.5033867"><ele>6.999999999999999</ele><time>2026-03-28T14:21:38.384Z</time></trkpt><trkpt lat="40.29297" lon="8.5033817"><ele>7.0</ele><time>2026-03-28T14:21:39.383Z</time></trkpt><trkpt lat="40.29285" lon="8.5033733"><ele>7.0</ele><time>2026-03-28T14:21:40.384Z</time></trkpt><trkpt lat="40.2927383" lon="8.5033667"><ele>6.6</ele><time>2026-03-28T14:21:41.384Z</time></trkpt><trkpt lat="40.292635" lon="8.5033617"><ele>6.199999999999999</ele><time>2026-03-28T14:21:42.384Z</time></trkpt><trkpt lat="40.2925417" lon="8.5033483"><ele>5.8</ele><time>2026-03-28T14:21:43.383Z</time></trkpt><trkpt lat="40.2924333" lon="8.50334"><ele>5.4</ele><time>2026-03-28T14:21:44.383Z</time></trkpt><trkpt lat="40.2923333" lon="8.50334"><ele>5.0</ele><time>2026-03-28T14:21:45.384Z</time></trkpt><trkpt lat="40.292235" lon="8.5033317"><ele>5.0</ele><time>2026-03-28T14:21:46.384Z</time></trkpt><trkpt lat="40.2921467" lon="8.5033283"><ele>5.0</ele><time>2026-03-28T14:21:47.384Z</time></trkpt><trkpt lat="40.292055" lon="8.5033167"><ele>5.0</ele><time>2026-03-28T14:21:48.384Z</time></trkpt><trkpt lat="40.291965" lon="8.5033083"><ele>5.0</ele><time>2026-03-28T14:21:49.384Z</time></trkpt><trkpt lat="40.2918667" lon="8.5033033"><ele>5.0</ele><time>2026-03-28T14:21:50.383Z</time></trkpt><trkpt lat="40.2917683" lon="8.5032967"><ele>5.0</ele><time>2026-03-28T14:21:51.384Z</time></trkpt><trkpt lat="40.2916683" lon="8.5032833"><ele>5.0</ele><time>2026-03-28T14:21:52.384Z</time></trkpt><trkpt lat="40.29157" lon="8.5032733"><ele>5.0</ele><time>2026-03-28T14:21:53.383Z</time></trkpt><trkpt lat="40.2914667" lon="8.5032717"><ele>5.0</ele><time>2026-03-28T14:21:54.383Z</time></trkpt><trkpt lat="40.2913667" lon="8.5032767"><ele>5.0</ele><time>2026-03-28T14:21:55.384Z</time></trkpt><trkpt lat="40.29126" lon="8.5032817"><ele>5.25</ele><time>2026-03-28T14:21:56.384Z</time></trkpt><trkpt lat="40.291155" lon="8.503275"><ele>5.5</ele><time>2026-03-28T14:21:57.384Z</time></trkpt><trkpt lat="40.2910467" lon="8.503255"><ele>5.75</ele><time>2026-03-28T14:21:58.384Z</time></trkpt><trkpt lat="40.290925" lon="8.5032517"><ele>6.0</ele><time>2026-03-28T14:21:59.384Z</time></trkpt><trkpt lat="40.2908017" lon="8.5032467"><ele>6.0</ele><time>2026-03-28T14:22:00.384Z</time></trkpt><trkpt lat="40.29067" lon="8.50325"><ele>6.0</ele><time>2026-03-28T14:22:01.384Z</time></trkpt><trkpt lat="40.290545" lon="8.5032683"><ele>6.0</ele><time>2026-03-28T14:22:02.384Z</time></trkpt><trkpt lat="40.2904217" lon="8.503325"><ele>6.0</ele><time>2026-03-28T14:22:03.384Z</time></trkpt><trkpt lat="40.2903083" lon="8.503405"><ele>7.75</ele><time>2026-03-28T14:22:04.384Z</time></trkpt><trkpt lat="40.2901967" lon="8.5035183"><ele>9.5</ele><time>2026-03-28T14:22:05.384Z</time></trkpt><trkpt lat="40.2900983" lon="8.503655"><ele>11.25</ele><time>2026-03-28T14:22:06.383Z</time></trkpt><trkpt lat="40.290015" lon="8.5037917"><ele>13.0</ele><time>2026-03-28T14:22:07.384Z</time></trkpt><trkpt lat="40.2899467" lon="8.5039367"><ele>13.0</ele><time>2026-03-28T14:22:08.384Z</time></trkpt><trkpt lat="40.2898867" lon="8.50409"><ele>13.0</ele><time>2026-03-28T14:22:09.383Z</time></trkpt><trkpt lat="40.2898333" lon="8.504245"><ele>13.0</ele><time>2026-03-28T14:22:10.383Z</time></trkpt><trkpt lat="40.2897783" lon="8.5043917"><ele>13.0</ele><time>2026-03-28T14:22:11.384Z</time></trkpt><trkpt lat="40.28973" lon="8.5045417"><ele>17.25</ele><time>2026-03-28T14:22:12.384Z</time></trkpt><trkpt lat="40.2896817" lon="8.5046933"><ele>21.5</ele><time>2026-03-28T14:22:13.384Z</time></trkpt><trkpt lat="40.2896283" lon="8.50486"><ele>25.75</ele><time>2026-03-28T14:22:14.383Z</time></trkpt><trkpt lat="40.2895833" lon="8.5050317"><ele>30.0</ele><time>2026-03-28T14:22:15.383Z</time></trkpt><trkpt lat="40.2895383" lon="8.5052117"><ele>30.0</ele><time>2026-03-28T14:22:16.384Z</time></trkpt><trkpt lat="40.2895017" lon="8.5054083"><ele>30.0</ele><time>2026-03-28T14:22:17.384Z</time></trkpt><trkpt lat="40.2894783" lon="8.5055817"><ele>30.0</ele><time>2026-03-28T14:22:18.384Z</time></trkpt><trkpt lat="40.289465" lon="8.5057533"><ele>30.0</ele><time>2026-03-28T14:22:19.384Z</time></trkpt><trkpt lat="40.2894483" lon="8.505915"><ele>30.0</ele><time>2026-03-28T14:22:20.384Z</time></trkpt><trkpt lat="40.2894133" lon="8.5060483"><ele>30.0</ele><time>2026-03-28T14:22:21.384Z</time></trkpt><trkpt lat="40.28935" lon="8.5061683"><ele>30.0</ele><time>2026-03-28T14:22:22.383Z</time></trkpt><trkpt lat="40.289265" lon="8.5062217"><ele>30.0</ele><time>2026-03-28T14:22:23.383Z</time></trkpt><trkpt lat="40.2891517" lon="8.5062067"><ele>30.0</ele><time>2026-03-28T14:22:24.384Z</time></trkpt><trkpt lat="40.2890533" lon="8.5061417"><ele>30.0</ele><time>2026-03-28T14:22:25.384Z</time></trkpt><trkpt lat="40.28898" lon="8.506025"><ele>30.0</ele><time>2026-03-28T14:22:26.384Z</time></trkpt><trkpt lat="40.28893" lon="8.5059017"><ele>30.0</ele><time>2026-03-28T14:22:27.384Z</time></trkpt><trkpt lat="40.2889167" lon="8.5057617"><ele>30.0</ele><time>2026-03-28T14:22:28.384Z</time></trkpt><trkpt lat="40.28892" lon="8.505625"><ele>30.0</ele><time>2026-03-28T14:22:29.384Z</time></trkpt><trkpt lat="40.2889317" lon="8.50549"><ele>30.0</ele><time>2026-03-28T14:22:30.384Z</time></trkpt><trkpt lat="40.2889333" lon="8.5053467"><ele>30.0</ele><time>2026-03-28T14:22:31.384Z</time></trkpt><trkpt lat="40.2889317" lon="8.5051967"><ele>30.0</ele><time>2026-03-28T14:22:32.384Z</time></trkpt><trkpt lat="40.2889267" lon="8.5050417"><ele>30.0</ele><time>2026-03-28T14:22:33.384Z</time></trkpt><trkpt lat="40.288925" lon="8.5048733"><ele>34.666666666666664</ele><time>2026-03-28T14:22:34.384Z</time></trkpt><trkpt lat="40.2889217" lon="8.504695"><ele>39.33333333333333</ele><time>2026-03-28T14:22:35.383Z</time></trkpt><trkpt lat="40.2889067" lon="8.5044717"><ele>44.0</ele><time>2026-03-28T14:22:36.384Z</time></trkpt><trkpt lat="40.2889017" lon="8.5042017"><ele>44.5</ele><time>2026-03-28T14:22:37.383Z</time></trkpt><trkpt lat="40.28891" lon="8.503905"><ele>45.0</ele><time>2026-03-28T14:22:38.384Z</time></trkpt><trkpt lat="40.288915" lon="8.5036033"><ele>46.66666666666667</ele><time>2026-03-28T14:22:39.383Z</time></trkpt><trkpt lat="40.2889117" lon="8.50332"><ele>48.333333333333336</ele><time>2026-03-28T14:22:40.384Z</time></trkpt><trkpt lat="40.2888983" lon="8.50308"><ele>50.0</ele><time>2026-03-28T14:22:41.384Z</time></trkpt><trkpt lat="40.28888" lon="8.5028933"><ele>50.0</ele><time>2026-03-28T14:22:42.383Z</time></trkpt><trkpt lat="40.288845" lon="8.5027267"><ele>50.0</ele><time>2026-03-28T14:22:43.384Z</time></trkpt><trkpt lat="40.2887883" lon="8.50263"><ele>50.0</ele><time>2026-03-28T14:22:44.384Z</time></trkpt><trkpt lat="40.28871" lon="8.5025817"><ele>50.0</ele><time>2026-03-28T14:22:45.384Z</time></trkpt><trkpt lat="40.2886283" lon="8.5026217"><ele>50.0</ele><time>2026-03-28T14:22:46.383Z</time></trkpt><trkpt lat="40.28856" lon="8.50273"><ele>50.0</ele><time>2026-03-28T14:22:47.384Z</time></trkpt><trkpt lat="40.2885183" lon="8.5028967"><ele>50.0</ele><time>2026-03-28T14:22:48.383Z</time></trkpt><trkpt lat="40.2884783" lon="8.503085"><ele>50.0</ele><time>2026-03-28T14:22:49.383Z</time></trkpt><trkpt lat="40.2884217" lon="8.5032667"><ele>50.0</ele><time>2026-03-28T14:22:50.384Z</time></trkpt><trkpt lat="40.2883267" lon="8.5034333"><ele>51.333333333333336</ele><time>2026-03-28T14:22:51.384Z</time></trkpt><trkpt lat="40.2882" lon="8.5035883"><ele>52.66666666666667</ele><time>2026-03-28T14:22:52.384Z</time></trkpt><trkpt lat="40.2880483" lon="8.503755"><ele>54.0</ele><time>2026-03-28T14:22:53.384Z</time></trkpt><trkpt lat="40.2878733" lon="8.5039333"><ele>61.5</ele><time>2026-03-28T14:22:54.384Z</time></trkpt><trkpt lat="40.2877067" lon="8.5041383"><ele>69.0</ele><time>2026-03-28T14:22:55.384Z</time></trkpt><trkpt lat="40.2875433" lon="8.50434"><ele>69.0</ele><time>2026-03-28T14:22:56.384Z</time></trkpt><trkpt lat="40.28741" lon="8.5045633"><ele>69.0</ele><time>2026-03-28T14:22:57.384Z</time></trkpt><trkpt lat="40.2873067" lon="8.50482"><ele>69.0</ele><time>2026-03-28T14:22:58.384Z</time></trkpt><trkpt lat="40.2872317" lon="8.5050817"><ele>84.0</ele><time>2026-03-28T14:22:59.384Z</time></trkpt><trkpt lat="40.2871833" lon="8.50536"><ele>99.0</ele><time>2026-03-28T14:23:00.384Z</time></trkpt><trkpt lat="40.2871717" lon="8.5056733"><ele>99.0</ele><time>2026-03-28T14:23:01.384Z</time></trkpt><trkpt lat="40.2871783" lon="8.5060183"><ele>99.0</ele><time>2026-03-28T14:23:02.383Z</time></trkpt><trkpt lat="40.2871617" lon="8.5064117"><ele>101.5</ele><time>2026-03-28T14:23:03.384Z</time></trkpt><trkpt lat="40.2871717" lon="8.5067817"><ele>104.0</ele><time>2026-03-28T14:23:04.384Z</time></trkpt><trkpt lat="40.2872183" lon="8.5071533"><ele>87.5</ele><time>2026-03-28T14:23:05.384Z</time></trkpt><trkpt lat="40.2872633" lon="8.5075167"><ele>71.0</ele><time>2026-03-28T14:23:06.384Z</time></trkpt><trkpt lat="40.2872983" lon="8.5078767"><ele>73.66666666666667</ele><time>2026-03-28T14:23:07.384Z</time></trkpt><trkpt lat="40.2873367" lon="8.5081883"><ele>76.33333333333333</ele><time>2026-03-28T14:23:08.384Z</time></trkpt><trkpt lat="40.2873467" lon="8.5084467"><ele>79.0</ele><time>2026-03-28T14:23:09.384Z</time></trkpt><trkpt lat="40.2873467" lon="8.508635"><ele>80.25</ele><time>2026-03-28T14:23:10.384Z</time></trkpt><trkpt lat="40.2873533" lon="8.508795"><ele>81.5</ele><time>2026-03-28T14:23:11.383Z</time></trkpt><trkpt lat="40.28733" lon="8.5089417"><ele>82.75</ele><time>2026-03-28T14:23:12.383Z</time></trkpt><trkpt lat="40.2872733" lon="8.5090683"><ele>84.0</ele><time>2026-03-28T14:23:13.383Z</time></trkpt><trkpt lat="40.2871967" lon="8.5091833"><ele>89.0</ele><time>2026-03-28T14:23:14.384Z</time></trkpt><trkpt lat="40.2870933" lon="8.5092883"><ele>94.0</ele><time>2026-03-28T14:23:15.384Z</time></trkpt><trkpt lat="40.28697" lon="8.5094133"><ele>99.0</ele><time>2026-03-28T14:23:16.384Z</time></trkpt><trkpt lat="40.2868183" lon="8.5095617"><ele>96.0</ele><time>2026-03-28T14:23:17.384Z</time></trkpt><trkpt lat="40.28667" lon="8.5097"><ele>93.0</ele><time>2026-03-28T14:23:18.383Z</time></trkpt><trkpt lat="40.2865333" lon="8.5098367"><ele>90.0</ele><time>2026-03-28T14:23:19.384Z</time></trkpt><trkpt lat="40.2864167" lon="8.510005"><ele>92.25</ele><time>2026-03-28T14:23:20.384Z</time></trkpt><trkpt lat="40.28631" lon="8.5101583"><ele>94.5</ele><time>2026-03-28T14:23:21.384Z</time></trkpt><trkpt lat="40.28623" lon="8.510275"><ele>96.75</ele><time>2026-03-28T14:23:22.384Z</time></trkpt><trkpt lat="40.286155" lon="8.5103667"><ele>99.0</ele><time>2026-03-28T14:23:23.384Z</time></trkpt><trkpt lat="40.2860917" lon="8.51044"><ele>99.0</ele><time>2026-03-28T14:23:24.383Z</time></trkpt><trkpt lat="40.2860017" lon="8.510515"><ele>99.0</ele><time>2026-03-28T14:23:26.384Z</time></trkpt><trkpt lat="40.285945" lon="8.5105617"><ele>99.0</ele><time>2026-03-28T14:23:28.384Z</time></trkpt><trkpt lat="40.2860267" lon="8.510385"><ele>99.0</ele><time>2026-03-28T14:24:31.384Z</time></trkpt><trkpt lat="40.286285" lon="8.5101317"><ele>96.0</ele><time>2026-03-28T14:24:33.384Z</time></trkpt><trkpt lat="40.2864617" lon="8.5099417"><ele>93.0</ele><time>2026-03-28T14:24:34.384Z</time></trkpt><trkpt lat="40.286635" lon="8.5097667"><ele>90.0</ele><time>2026-03-28T14:24:35.384Z</time></trkpt><trkpt lat="40.2868117" lon="8.5096167"><ele>94.5</ele><time>2026-03-28T14:24:36.384Z</time></trkpt><trkpt lat="40.2871167" lon="8.5093183"><ele>99.0</ele><time>2026-03-28T14:24:38.384Z</time></trkpt><trkpt lat="40.2872383" lon="8.50917"><ele>95.25</ele><time>2026-03-28T14:24:39.384Z</time></trkpt><trkpt lat="40.287325" lon="8.50902"><ele>91.5</ele><time>2026-03-28T14:24:40.384Z</time></trkpt><trkpt lat="40.2873817" lon="8.5088533"><ele>87.75</ele><time>2026-03-28T14:24:41.383Z</time></trkpt><trkpt lat="40.2874117" lon="8.5086517"><ele>84.0</ele><time>2026-03-28T14:24:42.384Z</time></trkpt><trkpt lat="40.287405" lon="8.508425"><ele>82.33333333333333</ele><time>2026-03-28T14:24:43.384Z</time></trkpt><trkpt lat="40.2873717" lon="8.5081867"><ele>80.66666666666666</ele><time>2026-03-28T14:24:44.384Z</time></trkpt><trkpt lat="40.2873417" lon="8.5079583"><ele>79.0</ele><time>2026-03-28T14:24:45.384Z</time></trkpt><trkpt lat="40.2873133" lon="8.5077383"><ele>76.33333333333333</ele><time>2026-03-28T14:24:46.384Z</time></trkpt><trkpt lat="40.2872983" lon="8.5075267"><ele>73.66666666666667</ele><time>2026-03-28T14:24:47.384Z</time></trkpt><trkpt lat="40.2872933" lon="8.5073117"><ele>71.0</ele><time>2026-03-28T14:24:48.384Z</time></trkpt><trkpt lat="40.2872833" lon="8.5071"><ele>68.66666666666667</ele><time>2026-03-28T14:24:49.384Z</time></trkpt><trkpt lat="40.287265" lon="8.506885"><ele>66.33333333333333</ele><time>2026-03-28T14:24:50.384Z</time></trkpt><trkpt lat="40.2872467" lon="8.5066483"><ele>64.0</ele><time>2026-03-28T14:24:51.384Z</time></trkpt><trkpt lat="40.2872417" lon="8.5061183"><ele>62.666666666666664</ele><time>2026-03-28T14:24:53.384Z</time></trkpt><trkpt lat="40.28723" lon="8.5058417"><ele>61.33333333333333</ele><time>2026-03-28T14:24:54.384Z</time></trkpt><trkpt lat="40.2872467" lon="8.5055567"><ele>60.0</ele><time>2026-03-28T14:24:55.384Z</time></trkpt><trkpt lat="40.28727" lon="8.505285"><ele>60.0</ele><time>2026-03-28T14:24:56.384Z</time></trkpt><trkpt lat="40.287295" lon="8.5050217"><ele>60.0</ele><time>2026-03-28T14:24:57.384Z</time></trkpt><trkpt lat="40.2874717" lon="8.5045517"><ele>63.0</ele><time>2026-03-28T14:24:59.384Z</time></trkpt><trkpt lat="40.2876033" lon="8.5043467"><ele>66.0</ele><time>2026-03-28T14:25:00.384Z</time></trkpt><trkpt lat="40.2877633" lon="8.504165"><ele>69.0</ele><time>2026-03-28T14:25:01.384Z</time></trkpt><trkpt lat="40.2879267" lon="8.5040017"><ele>69.0</ele><time>2026-03-28T14:25:02.384Z</time></trkpt><trkpt lat="40.2880867" lon="8.5038317"><ele>69.0</ele><time>2026-03-28T14:25:03.384Z</time></trkpt><trkpt lat="40.2882367" lon="8.50367"><ele>69.0</ele><time>2026-03-28T14:25:04.384Z</time></trkpt><trkpt lat="40.28858" lon="8.5031983"><ele>65.25</ele><time>2026-03-28T14:25:07.383Z</time></trkpt><trkpt lat="40.2886283" lon="8.5030183"><ele>61.5</ele><time>2026-03-28T14:25:08.384Z</time></trkpt><trkpt lat="40.2886383" lon="8.5028567"><ele>57.75</ele><time>2026-03-28T14:25:09.384Z</time></trkpt><trkpt lat="40.2886217" lon="8.5027233"><ele>54.0</ele><time>2026-03-28T14:25:10.383Z</time></trkpt><trkpt lat="40.2886617" lon="8.5026267"><ele>54.0</ele><time>2026-03-28T14:25:11.384Z</time></trkpt><trkpt lat="40.2887267" lon="8.5025933"><ele>54.00000000000001</ele><time>2026-03-28T14:25:12.384Z</time></trkpt><trkpt lat="40.288795" lon="8.50264"><ele>54.00000000000001</ele><time>2026-03-28T14:25:13.384Z</time></trkpt><trkpt lat="40.288835" lon="8.502765"><ele>54.0</ele><time>2026-03-28T14:25:14.383Z</time></trkpt><trkpt lat="40.288855" lon="8.5029517"><ele>54.0</ele><time>2026-03-28T14:25:15.384Z</time></trkpt><trkpt lat="40.2888733" lon="8.5031917"><ele>54.0</ele><time>2026-03-28T14:25:16.384Z</time></trkpt><trkpt lat="40.2888817" lon="8.5034917"><ele>54.0</ele><time>2026-03-28T14:25:17.384Z</time></trkpt><trkpt lat="40.2888933" lon="8.5038367"><ele>49.5</ele><time>2026-03-28T14:25:18.383Z</time></trkpt><trkpt lat="40.2889017" lon="8.504205"><ele>45.0</ele><time>2026-03-28T14:25:19.384Z</time></trkpt><trkpt lat="40.2889083" lon="8.5045617"><ele>44.5</ele><time>2026-03-28T14:25:20.384Z</time></trkpt><trkpt lat="40.2889017" lon="8.5048833"><ele>44.0</ele><time>2026-03-28T14:25:21.384Z</time></trkpt><trkpt lat="40.2888967" lon="8.5051833"><ele>42.0</ele><time>2026-03-28T14:25:22.384Z</time></trkpt><trkpt lat="40.288895" lon="8.5054333"><ele>40.0</ele><time>2026-03-28T14:25:23.384Z</time></trkpt><trkpt lat="40.2888933" lon="8.5056533"><ele>38.0</ele><time>2026-03-28T14:25:24.384Z</time></trkpt><trkpt lat="40.2888867" lon="8.5058567"><ele>38.0</ele><time>2026-03-28T14:25:25.384Z</time></trkpt><trkpt lat="40.2889033" lon="8.5060233"><ele>38.0</ele><time>2026-03-28T14:25:26.384Z</time></trkpt><trkpt lat="40.28894" lon="8.506165"><ele>38.0</ele><time>2026-03-28T14:25:27.384Z</time></trkpt><trkpt lat="40.289025" lon="8.5062617"><ele>38.0</ele><time>2026-03-28T14:25:28.384Z</time></trkpt><trkpt lat="40.2891467" lon="8.50629"><ele>36.0</ele><time>2026-03-28T14:25:29.383Z</time></trkpt><trkpt lat="40.289275" lon="8.50626"><ele>34.0</ele><time>2026-03-28T14:25:30.384Z</time></trkpt><trkpt lat="40.2894" lon="8.5061833"><ele>32.0</ele><time>2026-03-28T14:25:31.384Z</time></trkpt><trkpt lat="40.2894717" lon="8.5060433"><ele>30.0</ele><time>2026-03-28T14:25:32.383Z</time></trkpt><trkpt lat="40.2895167" lon="8.5058733"><ele>30.0</ele><time>2026-03-28T14:25:33.384Z</time></trkpt><trkpt lat="40.28954" lon="8.5056617"><ele>30.0</ele><time>2026-03-28T14:25:34.384Z</time></trkpt><trkpt lat="40.2895517" lon="8.5054317"><ele>30.0</ele><time>2026-03-28T14:25:35.383Z</time></trkpt><trkpt lat="40.2895933" lon="8.50518"><ele>30.0</ele><time>2026-03-28T14:25:36.384Z</time></trkpt><trkpt lat="40.2896633" lon="8.5049283"><ele>30.0</ele><time>2026-03-28T14:25:37.384Z</time></trkpt><trkpt lat="40.28974" lon="8.5046833"><ele>30.0</ele><time>2026-03-28T14:25:38.384Z</time></trkpt><trkpt lat="40.2898233" lon="8.5044583"><ele>24.333333333333332</ele><time>2026-03-28T14:25:39.384Z</time></trkpt><trkpt lat="40.2898983" lon="8.5042467"><ele>18.666666666666664</ele><time>2026-03-28T14:25:40.384Z</time></trkpt><trkpt lat="40.2899833" lon="8.504035"><ele>13.0</ele><time>2026-03-28T14:25:41.384Z</time></trkpt><trkpt lat="40.29006" lon="8.5038417"><ele>13.5</ele><time>2026-03-28T14:25:42.384Z</time></trkpt><trkpt lat="40.2901483" lon="8.5036783"><ele>14.0</ele><time>2026-03-28T14:25:43.384Z</time></trkpt><trkpt lat="40.2902533" lon="8.5035367"><ele>14.5</ele><time>2026-03-28T14:25:44.384Z</time></trkpt><trkpt lat="40.29036" lon="8.5034317"><ele>15.0</ele><time>2026-03-28T14:25:45.384Z</time></trkpt><trkpt lat="40.290485" lon="8.5033467"><ele>12.75</ele><time>2026-03-28T14:25:46.384Z</time></trkpt><trkpt lat="40.29062" lon="8.5032917"><ele>10.5</ele><time>2026-03-28T14:25:47.384Z</time></trkpt><trkpt lat="40.2907583" lon="8.503275"><ele>8.25</ele><time>2026-03-28T14:25:48.383Z</time></trkpt><trkpt lat="40.2908983" lon="8.5032733"><ele>6.0</ele><time>2026-03-28T14:25:49.384Z</time></trkpt><trkpt lat="40.2910283" lon="8.5032867"><ele>6.0</ele><time>2026-03-28T14:25:50.384Z</time></trkpt><trkpt lat="40.2911633" lon="8.5033017"><ele>6.0</ele><time>2026-03-28T14:25:51.384Z</time></trkpt><trkpt lat="40.2912967" lon="8.5033133"><ele>6.0</ele><time>2026-03-28T14:25:52.384Z</time></trkpt><trkpt lat="40.2914183" lon="8.5033267"><ele>6.0</ele><time>2026-03-28T14:25:53.384Z</time></trkpt><trkpt lat="40.2915267" lon="8.5033383"><ele>5.8</ele><time>2026-03-28T14:25:54.384Z</time></trkpt><trkpt lat="40.2916417" lon="8.503345"><ele>5.6</ele><time>2026-03-28T14:25:55.383Z</time></trkpt><trkpt lat="40.2917317" lon="8.50335"><ele>5.4</ele><time>2026-03-28T14:25:56.384Z</time></trkpt><trkpt lat="40.29182" lon="8.5033567"><ele>5.2</ele><time>2026-03-28T14:25:57.384Z</time></trkpt><trkpt lat="40.2919167" lon="8.5033617"><ele>5.0</ele><time>2026-03-28T14:25:58.384Z</time></trkpt><trkpt lat="40.2920133" lon="8.5033767"><ele>5.0</ele><time>2026-03-28T14:25:59.384Z</time></trkpt><trkpt lat="40.2921" lon="8.5033767"><ele>5.0</ele><time>2026-03-28T14:26:00.383Z</time></trkpt><trkpt lat="40.2921917" lon="8.5033867"><ele>5.0</ele><time>2026-03-28T14:26:01.384Z</time></trkpt><trkpt lat="40.2922917" lon="8.5033883"><ele>5.0</ele><time>2026-03-28T14:26:02.384Z</time></trkpt><trkpt lat="40.292395" lon="8.5034067"><ele>5.0</ele><time>2026-03-28T14:26:03.384Z</time></trkpt><trkpt lat="40.2924983" lon="8.5034167"><ele>5.0</ele><time>2026-03-28T14:26:04.383Z</time></trkpt><trkpt lat="40.2926033" lon="8.5034167"><ele>5.0</ele><time>2026-03-28T14:26:05.384Z</time></trkpt><trkpt lat="40.2927117" lon="8.5034317"><ele>5.0</ele><time>2026-03-28T14:26:06.384Z</time></trkpt><trkpt lat="40.292815" lon="8.50345"><ele>5.0</ele><time>2026-03-28T14:26:07.384Z</time></trkpt><trkpt lat="40.2929217" lon="8.5034567"><ele>5.0</ele><time>2026-03-28T14:26:08.383Z</time></trkpt><trkpt lat="40.2930267" lon="8.5034517"><ele>5.285714285714286</ele><time>2026-03-28T14:26:09.384Z</time></trkpt><trkpt lat="40.2931033" lon="8.5034583"><ele>5.571428571428571</ele><time>2026-03-28T14:26:10.384Z</time></trkpt><trkpt lat="40.293175" lon="8.50347"><ele>5.857142857142858</ele><time>2026-03-28T14:26:11.384Z</time></trkpt><trkpt lat="40.2932433" lon="8.5034567"><ele>6.142857142857142</ele><time>2026-03-28T14:26:12.384Z</time></trkpt><trkpt lat="40.2933067" lon="8.50343"><ele>6.428571428571429</ele><time>2026-03-28T14:26:13.384Z</time></trkpt><trkpt lat="40.293345" lon="8.5033617"><ele>6.714285714285714</ele><time>2026-03-28T14:26:14.383Z</time></trkpt><trkpt lat="40.2933633" lon="8.50325"><ele>7.0</ele><time>2026-03-28T14:26:15.384Z</time></trkpt><trkpt lat="40.2933567" lon="8.50312"><ele>7.0</ele><time>2026-03-28T14:26:16.384Z</time></trkpt><trkpt lat="40.2933317" lon="8.5029667"><ele>7.0</ele><time>2026-03-28T14:26:17.384Z</time></trkpt><trkpt lat="40.2933117" lon="8.5027917"><ele>7.0</ele><time>2026-03-28T14:26:18.383Z</time></trkpt><trkpt lat="40.2932767" lon="8.5026"><ele>7.0</ele><time>2026-03-28T14:26:19.384Z</time></trkpt><trkpt lat="40.2932433" lon="8.5024183"><ele>6.333333333333334</ele><time>2026-03-28T14:26:20.383Z</time></trkpt><trkpt lat="40.293215" lon="8.5022233"><ele>5.666666666666667</ele><time>2026-03-28T14:26:21.384Z</time></trkpt><trkpt lat="40.2932017" lon="8.5020283"><ele>5.0</ele><time>2026-03-28T14:26:22.384Z</time></trkpt><trkpt lat="40.2931833" lon="8.50181"><ele>5.0</ele><time>2026-03-28T14:26:23.384Z</time></trkpt><trkpt lat="40.2931683" lon="8.5016017"><ele>5.0</ele><time>2026-03-28T14:26:24.384Z</time></trkpt><trkpt lat="40.29314" lon="8.5013767"><ele>5.0</ele><time>2026-03-28T14:26:25.384Z</time></trkpt><trkpt lat="40.2931083" lon="8.5011367"><ele>4.666666666666667</ele><time>2026-03-28T14:26:26.383Z</time></trkpt><trkpt lat="40.2930783" lon="8.50089"><ele>4.333333333333333</ele><time>2026-03-28T14:26:27.384Z</time></trkpt><trkpt lat="40.2930333" lon="8.5005967"><ele>4.0</ele><time>2026-03-28T14:26:28.384Z</time></trkpt><trkpt lat="40.2929967" lon="8.5002817"><ele>4.0</ele><time>2026-03-28T14:26:29.383Z</time></trkpt><trkpt lat="40.2929733" lon="8.499955"><ele>4.0</ele><time>2026-03-28T14:26:30.383Z</time></trkpt><trkpt lat="40.292955" lon="8.4996233"><ele>4.5</ele><time>2026-03-28T14:26:31.384Z</time></trkpt><trkpt lat="40.2929383" lon="8.499315"><ele>5.0</ele><time>2026-03-28T14:26:32.384Z</time></trkpt><trkpt lat="40.292915" lon="8.499025"><ele>4.666666666666667</ele><time>2026-03-28T14:26:33.384Z</time></trkpt><trkpt lat="40.2928933" lon="8.4987483"><ele>4.333333333333333</ele><time>2026-03-28T14:26:34.384Z</time></trkpt><trkpt lat="40.2928667" lon="8.4984717"><ele>4.0</ele><time>2026-03-28T14:26:35.384Z</time></trkpt><trkpt lat="40.2928317" lon="8.4981917"><ele>4.0</ele><time>2026-03-28T14:26:36.383Z</time></trkpt><trkpt lat="40.2928" lon="8.497925"><ele>4.0</ele><time>2026-03-28T14:26:37.384Z</time></trkpt><trkpt lat="40.2927683" lon="8.4976683"><ele>4.0</ele><time>2026-03-28T14:26:38.384Z</time></trkpt><trkpt lat="40.2927533" lon="8.4974233"><ele>3.6666666666666665</ele><time>2026-03-28T14:26:39.384Z</time></trkpt><trkpt lat="40.29274" lon="8.497205"><ele>3.333333333333333</ele><time>2026-03-28T14:26:40.383Z</time></trkpt><trkpt lat="40.2927217" lon="8.4969683"><ele>3.0</ele><time>2026-03-28T14:26:41.384Z</time></trkpt><trkpt lat="40.2926933" lon="8.4967283"><ele>3.0</ele><time>2026-03-28T14:26:42.384Z</time></trkpt><trkpt lat="40.2926617" lon="8.4964883"><ele>3.0</ele><time>2026-03-28T14:26:43.383Z</time></trkpt><trkpt lat="40.29263" lon="8.4962617"><ele>3.0</ele><time>2026-03-28T14:26:44.384Z</time></trkpt><trkpt lat="40.292595" lon="8.4960233"><ele>3.0</ele><time>2026-03-28T14:26:45.384Z</time></trkpt><trkpt lat="40.29257" lon="8.495805"><ele>3.0</ele><time>2026-03-28T14:26:46.384Z</time></trkpt><trkpt lat="40.2925383" lon="8.495585"><ele>3.0</ele><time>2026-03-28T14:26:47.384Z</time></trkpt><trkpt lat="40.2925217" lon="8.4953617"><ele>4.333333333333334</ele><time>2026-03-28T14:26:48.384Z</time></trkpt><trkpt lat="40.2924967" lon="8.4951367"><ele>5.666666666666667</ele><time>2026-03-28T14:26:49.384Z</time></trkpt><trkpt lat="40.292485" lon="8.4949283"><ele>7.0</ele><time>2026-03-28T14:26:50.384Z</time></trkpt><trkpt lat="40.292475" lon="8.4947067"><ele>8.0</ele><time>2026-03-28T14:26:51.383Z</time></trkpt><trkpt lat="40.292465" lon="8.4944933"><ele>9.0</ele><time>2026-03-28T14:26:52.383Z</time></trkpt><trkpt lat="40.2924433" lon="8.4942917"><ele>10.0</ele><time>2026-03-28T14:26:53.384Z</time></trkpt><trkpt lat="40.2924267" lon="8.494085"><ele>10.0</ele><time>2026-03-28T14:26:54.383Z</time></trkpt><trkpt lat="40.2924083" lon="8.493885"><ele>10.0</ele><time>2026-03-28T14:26:55.384Z</time></trkpt><trkpt lat="40.2923933" lon="8.4936867"><ele>10.0</ele><time>2026-03-28T14:26:56.384Z</time></trkpt><trkpt lat="40.2923667" lon="8.4934767"><ele>9.0</ele><time>2026-03-28T14:26:57.384Z</time></trkpt><trkpt lat="40.2923383" lon="8.4932833"><ele>8.0</ele><time>2026-03-28T14:26:58.383Z</time></trkpt><trkpt lat="40.2923017" lon="8.493065"><ele>7.0</ele><time>2026-03-28T14:26:59.384Z</time></trkpt><trkpt lat="40.2922567" lon="8.4928683"><ele>11.333333333333334</ele><time>2026-03-28T14:27:00.384Z</time></trkpt><trkpt lat="40.2922033" lon="8.4926733"><ele>15.666666666666668</ele><time>2026-03-28T14:27:01.383Z</time></trkpt><trkpt lat="40.29215" lon="8.492465"><ele>20.0</ele><time>2026-03-28T14:27:02.384Z</time></trkpt><trkpt lat="40.2921" lon="8.4922683"><ele>20.0</ele><time>2026-03-28T14:27:03.384Z</time></trkpt><trkpt lat="40.2920583" lon="8.492085"><ele>20.0</ele><time>2026-03-28T14:27:04.384Z</time></trkpt><trkpt lat="40.2920167" lon="8.4918933"><ele>20.0</ele><time>2026-03-28T14:27:05.384Z</time></trkpt><trkpt lat="40.2919733" lon="8.4917067"><ele>20.0</ele><time>2026-03-28T14:27:06.384Z</time></trkpt><trkpt lat="40.2919267" lon="8.4915133"><ele>20.0</ele><time>2026-03-28T14:27:07.383Z</time></trkpt><trkpt lat="40.2918733" lon="8.4913217"><ele>20.0</ele><time>2026-03-28T14:27:08.383Z</time></trkpt><trkpt lat="40.2918067" lon="8.4911267"><ele>20.0</ele><time>2026-03-28T14:27:09.384Z</time></trkpt><trkpt lat="40.2917767" lon="8.490925"><ele>16.333333333333336</ele><time>2026-03-28T14:27:10.384Z</time></trkpt><trkpt lat="40.2917533" lon="8.490715"><ele>12.666666666666668</ele><time>2026-03-28T14:27:11.383Z</time></trkpt><trkpt lat="40.2917317" lon="8.4905033"><ele>9.0</ele><time>2026-03-28T14:27:12.384Z</time></trkpt><trkpt lat="40.2917083" lon="8.4903033"><ele>8.666666666666666</ele><time>2026-03-28T14:27:13.383Z</time></trkpt><trkpt lat="40.291725" lon="8.490085"><ele>8.333333333333332</ele><time>2026-03-28T14:27:14.384Z</time></trkpt><trkpt lat="40.2917533" lon="8.4898533"><ele>8.0</ele><time>2026-03-28T14:27:15.384Z</time></trkpt><trkpt lat="40.2917883" lon="8.48965"><ele>7.333333333333333</ele><time>2026-03-28T14:27:16.383Z</time></trkpt><trkpt lat="40.2918317" lon="8.4894433"><ele>6.666666666666666</ele><time>2026-03-28T14:27:17.384Z</time></trkpt><trkpt lat="40.29187" lon="8.48923"><ele>6.0</ele><time>2026-03-28T14:27:18.384Z</time></trkpt><trkpt lat="40.29192" lon="8.4890167"><ele>6.0</ele><time>2026-03-28T14:27:19.383Z</time></trkpt><trkpt lat="40.2919717" lon="8.4888183"><ele>6.0</ele><time>2026-03-28T14:27:20.383Z</time></trkpt><trkpt lat="40.2920233" lon="8.4886"><ele>6.0</ele><time>2026-03-28T14:27:21.384Z</time></trkpt><trkpt lat="40.2920833" lon="8.4883917"><ele>5.0</ele><time>2026-03-28T14:27:22.384Z</time></trkpt><trkpt lat="40.2921383" lon="8.4881617"><ele>4.0</ele><time>2026-03-28T14:27:23.384Z</time></trkpt><trkpt lat="40.2922" lon="8.4879367"><ele>3.0</ele><time>2026-03-28T14:27:24.383Z</time></trkpt><trkpt lat="40.2922533" lon="8.4877017"><ele>3.0</ele><time>2026-03-28T14:27:25.384Z</time></trkpt><trkpt lat="40.292305" lon="8.4874817"><ele>3.0</ele><time>2026-03-28T14:27:26.383Z</time></trkpt><trkpt lat="40.2923483" lon="8.4872533"><ele>3.0</ele><time>2026-03-28T14:27:27.383Z</time></trkpt><trkpt lat="40.2924017" lon="8.48702"><ele>3.333333333333333</ele><time>2026-03-28T14:27:28.383Z</time></trkpt><trkpt lat="40.29244" lon="8.48679"><ele>3.6666666666666665</ele><time>2026-03-28T14:27:29.383Z</time></trkpt><trkpt lat="40.2924867" lon="8.486565"><ele>4.0</ele><time>2026-03-28T14:27:30.383Z</time></trkpt><trkpt lat="40.29253" lon="8.486335"><ele>4.0</ele><time>2026-03-28T14:27:31.384Z</time></trkpt><trkpt lat="40.292585" lon="8.4861083"><ele>4.0</ele><time>2026-03-28T14:27:32.384Z</time></trkpt><trkpt lat="40.29264" lon="8.4858933"><ele>4.0</ele><time>2026-03-28T14:27:33.384Z</time></trkpt><trkpt lat="40.2926933" lon="8.4856783"><ele>4.0</ele><time>2026-03-28T14:27:34.384Z</time></trkpt><trkpt lat="40.2927283" lon="8.485465"><ele>4.0</ele><time>2026-03-28T14:27:35.384Z</time></trkpt><trkpt lat="40.2927583" lon="8.485265"><ele>4.0</ele><time>2026-03-28T14:27:36.383Z</time></trkpt><trkpt lat="40.2927983" lon="8.4850633"><ele>3.75</ele><time>2026-03-28T14:27:37.384Z</time></trkpt><trkpt lat="40.2928217" lon="8.4848767"><ele>3.5</ele><time>2026-03-28T14:27:38.384Z</time></trkpt><trkpt lat="40.29282" lon="8.484685"><ele>3.25</ele><time>2026-03-28T14:27:39.384Z</time></trkpt><trkpt lat="40.2927967" lon="8.4844967"><ele>3.0</ele><time>2026-03-28T14:27:40.384Z</time></trkpt><trkpt lat="40.292785" lon="8.484325"><ele>2.8</ele><time>2026-03-28T14:27:41.384Z</time></trkpt><trkpt lat="40.2927767" lon="8.4841683"><ele>2.5999999999999996</ele><time>2026-03-28T14:27:42.383Z</time></trkpt><trkpt lat="40.2927833" lon="8.4840233"><ele>2.4000000000000004</ele><time>2026-03-28T14:27:43.383Z</time></trkpt><trkpt lat="40.2928183" lon="8.4838983"><ele>2.2</ele><time>2026-03-28T14:27:44.383Z</time></trkpt><trkpt lat="40.2928617" lon="8.48379"><ele>2.0</ele><time>2026-03-28T14:27:45.383Z</time></trkpt><trkpt lat="40.2928817" lon="8.483705"><ele>2.0</ele><time>2026-03-28T14:27:46.383Z</time></trkpt><trkpt lat="40.2928583" lon="8.4836083"><ele>2.0</ele><time>2026-03-28T14:27:47.384Z</time></trkpt><trkpt lat="40.2928033" lon="8.483525"><ele>2.0</ele><time>2026-03-28T14:27:48.384Z</time></trkpt><trkpt lat="40.2927283" lon="8.4834533"><ele>2.0</ele><time>2026-03-28T14:27:49.384Z</time></trkpt><trkpt lat="40.2926433" lon="8.4833567"><ele>2.0</ele><time>2026-03-28T14:27:50.384Z</time></trkpt><trkpt lat="40.2925683" lon="8.48322"><ele>2.0</ele><time>2026-03-28T14:27:51.383Z</time></trkpt><trkpt lat="40.2925033" lon="8.4830333"><ele>2.0</ele><time>2026-03-28T14:27:52.384Z</time></trkpt><trkpt lat="40.2924433" lon="8.4828417"><ele>2.0</ele><time>2026-03-28T14:27:53.384Z</time></trkpt><trkpt lat="40.292385" lon="8.4826583"><ele>2.333333333333333</ele><time>2026-03-28T14:27:54.384Z</time></trkpt><trkpt lat="40.2923233" lon="8.482465"><ele>2.6666666666666665</ele><time>2026-03-28T14:27:55.384Z</time></trkpt><trkpt lat="40.2922767" lon="8.48227"><ele>3.0</ele><time>2026-03-28T14:27:56.384Z</time></trkpt><trkpt lat="40.2922317" lon="8.4820883"><ele>3.0</ele><time>2026-03-28T14:27:57.384Z</time></trkpt><trkpt lat="40.2921967" lon="8.4819117"><ele>3.0</ele><time>2026-03-28T14:27:58.384Z</time></trkpt><trkpt lat="40.2921667" lon="8.4817317"><ele>3.0</ele><time>2026-03-28T14:27:59.384Z</time></trkpt><trkpt lat="40.29211" lon="8.4815517"><ele>3.0</ele><time>2026-03-28T14:28:00.383Z</time></trkpt><trkpt lat="40.29207" lon="8.4813767"><ele>3.25</ele><time>2026-03-28T14:28:01.384Z</time></trkpt><trkpt lat="40.2920267" lon="8.4812"><ele>3.5</ele><time>2026-03-28T14:28:02.383Z</time></trkpt><trkpt lat="40.2919783" lon="8.481025"><ele>3.75</ele><time>2026-03-28T14:28:03.383Z</time></trkpt><trkpt lat="40.291925" lon="8.48085"><ele>4.0</ele><time>2026-03-28T14:28:04.384Z</time></trkpt><trkpt lat="40.2918833" lon="8.4806717"><ele>4.0</ele><time>2026-03-28T14:28:05.384Z</time></trkpt><trkpt lat="40.2918367" lon="8.4805067"><ele>4.0</ele><time>2026-03-28T14:28:06.384Z</time></trkpt><trkpt lat="40.291785" lon="8.480355"><ele>4.0</ele><time>2026-03-28T14:28:07.384Z</time></trkpt><trkpt lat="40.2917433" lon="8.4801983"><ele>4.0</ele><time>2026-03-28T14:28:08.384Z</time></trkpt><trkpt lat="40.2916883" lon="8.4800417"><ele>3.75</ele><time>2026-03-28T14:28:09.383Z</time></trkpt><trkpt lat="40.2916517" lon="8.4798867"><ele>3.5</ele><time>2026-03-28T14:28:10.384Z</time></trkpt><trkpt lat="40.2916267" lon="8.4797217"><ele>3.25</ele><time>2026-03-28T14:28:11.384Z</time></trkpt><trkpt lat="40.291575" lon="8.4795667"><ele>3.0</ele><time>2026-03-28T14:28:12.383Z</time></trkpt><trkpt lat="40.2915483" lon="8.47942"><ele>3.0</ele><time>2026-03-28T14:28:13.384Z</time></trkpt><trkpt lat="40.2915083" lon="8.4792817"><ele>3.0</ele><time>2026-03-28T14:28:14.384Z</time></trkpt><trkpt lat="40.2914767" lon="8.4791483"><ele>3.0</ele><time>2026-03-28T14:28:15.384Z</time></trkpt><trkpt lat="40.29144" lon="8.4790217"><ele>3.0</ele><time>2026-03-28T14:28:16.384Z</time></trkpt><trkpt lat="40.291405" lon="8.4789067"><ele>3.0</ele><time>2026-03-28T14:28:17.384Z</time></trkpt><trkpt lat="40.2913817" lon="8.4788"><ele>3.2</ele><time>2026-03-28T14:28:18.384Z</time></trkpt><trkpt lat="40.2913633" lon="8.4787117"><ele>3.4</ele><time>2026-03-28T14:28:19.384Z</time></trkpt><trkpt lat="40.2913333" lon="8.4785633"><ele>3.6000000000000005</ele><time>2026-03-28T14:28:21.384Z</time></trkpt><trkpt lat="40.2913217" lon="8.478475"><ele>3.8000000000000003</ele><time>2026-03-28T14:28:23.383Z</time></trkpt><trkpt lat="40.291285" lon="8.478355"><ele>4.0</ele><time>2026-03-28T14:28:27.384Z</time></trkpt><trkpt lat="40.2912717" lon="8.4782233"><ele>4.0</ele><time>2026-03-28T14:28:29.383Z</time></trkpt><trkpt lat="40.291245" lon="8.4781033"><ele>4.0</ele><time>2026-03-28T14:28:31.384Z</time></trkpt><trkpt lat="40.2912133" lon="8.4779817"><ele>4.0</ele><time>2026-03-28T14:28:33.384Z</time></trkpt><trkpt lat="40.2911767" lon="8.477865"><ele>4.0</ele><time>2026-03-28T14:28:35.384Z</time></trkpt><trkpt lat="40.2911433" lon="8.4777583"><ele>4.0</ele><time>2026-03-28T14:28:37.384Z</time></trkpt><trkpt lat="40.29111" lon="8.4776267"><ele>3.9999999999999996</ele><time>2026-03-28T14:28:39.384Z</time></trkpt><trkpt lat="40.29106" lon="8.4775117"><ele>4.0</ele><time>2026-03-28T14:28:41.384Z</time></trkpt><trkpt lat="40.2910033" lon="8.47739"><ele>4.0</ele><time>2026-03-28T14:28:43.383Z</time></trkpt><trkpt lat="40.2909583" lon="8.4773217"><ele>4.0</ele><time>2026-03-28T14:28:44.384Z</time></trkpt><trkpt lat="40.29092" lon="8.4772483"><ele>3.9999999999999996</ele><time>2026-03-28T14:28:45.384Z</time></trkpt><trkpt lat="40.290885" lon="8.4771583"><ele>4.0</ele><time>2026-03-28T14:28:46.383Z</time></trkpt><trkpt lat="40.2908433" lon="8.4770817"><ele>3.9999999999999996</ele><time>2026-03-28T14:28:47.384Z</time></trkpt><trkpt lat="40.2908083" lon="8.4769967"><ele>4.0</ele><time>2026-03-28T14:28:48.383Z</time></trkpt><trkpt lat="40.2907683" lon="8.4769167"><ele>4.0</ele><time>2026-03-28T14:28:49.384Z</time></trkpt><trkpt lat="40.2906967" lon="8.476775"><ele>4.0</ele><time>2026-03-28T14:28:51.384Z</time></trkpt><trkpt lat="40.29065" lon="8.4766933"><ele>3.9999999999999996</ele><time>2026-03-28T14:28:52.383Z</time></trkpt><trkpt lat="40.2906067" lon="8.4766117"><ele>4.0</ele><time>2026-03-28T14:28:53.383Z</time></trkpt><trkpt lat="40.2905667" lon="8.4765283"><ele>3.9999999999999996</ele><time>2026-03-28T14:28:54.384Z</time></trkpt><trkpt lat="40.2905233" lon="8.4764533"><ele>4.0</ele><time>2026-03-28T14:28:55.384Z</time></trkpt><trkpt lat="40.2904733" lon="8.4763733"><ele>4.0</ele><time>2026-03-28T14:28:56.384Z</time></trkpt><trkpt lat="40.2904217" lon="8.4762833"><ele>4.0</ele><time>2026-03-28T14:28:57.384Z</time></trkpt><trkpt lat="40.2903767" lon="8.4761817"><ele>3.9999999999999996</ele><time>2026-03-28T14:28:58.384Z</time></trkpt><trkpt lat="40.2903233" lon="8.4760817"><ele>4.0</ele><time>2026-03-28T14:28:59.383Z</time></trkpt><trkpt lat="40.2902767" lon="8.47599"><ele>3.6666666666666665</ele><time>2026-03-28T14:29:00.384Z</time></trkpt><trkpt lat="40.2902333" lon="8.4758867"><ele>3.333333333333333</ele><time>2026-03-28T14:29:01.384Z</time></trkpt><trkpt lat="40.2901917" lon="8.47579"><ele>3.0</ele><time>2026-03-28T14:29:02.384Z</time></trkpt><trkpt lat="40.2901467" lon="8.4756933"><ele>2.6666666666666665</ele><time>2026-03-28T14:29:03.383Z</time></trkpt><trkpt lat="40.2900983" lon="8.4755967"><ele>2.333333333333333</ele><time>2026-03-28T14:29:04.383Z</time></trkpt><trkpt lat="40.290045" lon="8.4755017"><ele>2.0</ele><time>2026-03-28T14:29:05.384Z</time></trkpt><trkpt lat="40.289995" lon="8.4754033"><ele>1.9999999999999998</ele><time>2026-03-28T14:29:06.384Z</time></trkpt><trkpt lat="40.2899517" lon="8.47531"><ele>2.0</ele><time>2026-03-28T14:29:07.384Z</time></trkpt><trkpt lat="40.2899083" lon="8.4752217"><ele>2.0</ele><time>2026-03-28T14:29:08.383Z</time></trkpt><trkpt lat="40.2898667" lon="8.4751283"><ele>2.0</ele><time>2026-03-28T14:29:09.384Z</time></trkpt><trkpt lat="40.2898283" lon="8.4750483"><ele>1.9999999999999998</ele><time>2026-03-28T14:29:10.383Z</time></trkpt><trkpt lat="40.289775" lon="8.4749683"><ele>2.0</ele><time>2026-03-28T14:29:11.384Z</time></trkpt><trkpt lat="40.289715" lon="8.4748933"><ele>1.9999999999999998</ele><time>2026-03-28T14:29:12.384Z</time></trkpt><trkpt lat="40.28965" lon="8.4748333"><ele>2.0</ele><time>2026-03-28T14:29:13.384Z</time></trkpt><trkpt lat="40.2895867" lon="8.474775"><ele>2.0</ele><time>2026-03-28T14:29:14.384Z</time></trkpt><trkpt lat="40.2895067" lon="8.474725"><ele>2.0</ele><time>2026-03-28T14:29:15.384Z</time></trkpt><trkpt lat="40.2894317" lon="8.4746883"><ele>1.9999999999999998</ele><time>2026-03-28T14:29:16.384Z</time></trkpt><trkpt lat="40.289345" lon="8.4746717"><ele>2.0</ele><time>2026-03-28T14:29:17.384Z</time></trkpt><trkpt lat="40.2892567" lon="8.4746583"><ele>1.9999999999999998</ele><time>2026-03-28T14:29:18.384Z</time></trkpt><trkpt lat="40.28917" lon="8.474645"><ele>2.0</ele><time>2026-03-28T14:29:19.383Z</time></trkpt><trkpt lat="40.289085" lon="8.47463"><ele>2.0</ele><time>2026-03-28T14:29:20.383Z</time></trkpt><trkpt lat="40.2889983" lon="8.4746183"><ele>2.0</ele><time>2026-03-28T14:29:21.384Z</time></trkpt><trkpt lat="40.288915" lon="8.4746067"><ele>1.9999999999999998</ele><time>2026-03-28T14:29:22.383Z</time></trkpt><trkpt lat="40.2888317" lon="8.4745917"><ele>2.0</ele><time>2026-03-28T14:29:23.384Z</time></trkpt><trkpt lat="40.28875" lon="8.474575"><ele>2.1666666666666665</ele><time>2026-03-28T14:29:24.384Z</time></trkpt><trkpt lat="40.2886833" lon="8.4745533"><ele>2.333333333333333</ele><time>2026-03-28T14:29:25.384Z</time></trkpt><trkpt lat="40.2885733" lon="8.4745167"><ele>2.5</ele><time>2026-03-28T14:29:27.384Z</time></trkpt><trkpt lat="40.2885067" lon="8.4745033"><ele>2.6666666666666665</ele><time>2026-03-28T14:29:28.384Z</time></trkpt><trkpt lat="40.2884367" lon="8.474485"><ele>2.8333333333333335</ele><time>2026-03-28T14:29:29.384Z</time></trkpt><trkpt lat="40.28837" lon="8.4744667"><ele>3.0</ele><time>2026-03-28T14:29:30.384Z</time></trkpt><trkpt lat="40.2882617" lon="8.4744517"><ele>3.0</ele><time>2026-03-28T14:29:32.384Z</time></trkpt><trkpt lat="40.2881633" lon="8.474455"><ele>3.0</ele><time>2026-03-28T14:29:34.384Z</time></trkpt><trkpt lat="40.2880617" lon="8.4744683"><ele>3.0</ele><time>2026-03-28T14:29:36.384Z</time></trkpt><trkpt lat="40.288" lon="8.47451"><ele>3.0</ele><time>2026-03-28T14:29:37.384Z</time></trkpt><trkpt lat="40.2879383" lon="8.4745483"><ele>3.0</ele><time>2026-03-28T14:29:38.384Z</time></trkpt><trkpt lat="40.2878317" lon="8.4745933"><ele>3.0</ele><time>2026-03-28T14:29:40.384Z</time></trkpt><trkpt lat="40.2877233" lon="8.47466"><ele>3.0</ele><time>2026-03-28T14:29:42.384Z</time></trkpt><trkpt lat="40.2876567" lon="8.474715"><ele>3.0</ele><time>2026-03-28T14:29:43.384Z</time></trkpt><trkpt lat="40.287585" lon="8.4747567"><ele>3.0</ele><time>2026-03-28T14:29:44.384Z</time></trkpt><trkpt lat="40.28752" lon="8.4747817"><ele>3.0</ele><time>2026-03-28T14:29:45.384Z</time></trkpt><trkpt lat="40.2874067" lon="8.4747783"><ele>3.0</ele><time>2026-03-28T14:29:47.384Z</time></trkpt><trkpt lat="40.2873333" lon="8.47478"><ele>3.0</ele><time>2026-03-28T14:29:49.384Z</time></trkpt><trkpt lat="40.287395" lon="8.4748483"><ele>3.0</ele><time>2026-03-28T14:29:53.383Z</time></trkpt><trkpt lat="40.2875" lon="8.4748317"><ele>3.0</ele><time>2026-03-28T14:29:55.384Z</time></trkpt><trkpt lat="40.2876167" lon="8.4747933"><ele>3.0</ele><time>2026-03-28T14:29:57.383Z</time></trkpt><trkpt lat="40.28771" lon="8.4747667"><ele>3.0</ele><time>2026-03-28T14:29:59.384Z</time></trkpt><trkpt lat="40.287775" lon="8.4747367"><ele>3.0</ele><time>2026-03-28T14:30:01.384Z</time></trkpt><trkpt lat="40.2878483" lon="8.47468"><ele>3.0</ele><time>2026-03-28T14:32:35.384Z</time></trkpt><trkpt lat="40.2879" lon="8.4745967"><ele>3.0</ele><time>2026-03-28T14:32:37.384Z</time></trkpt><trkpt lat="40.28796" lon="8.4745467"><ele>3.0</ele><time>2026-03-28T14:32:38.383Z</time></trkpt><trkpt lat="40.288045" lon="8.4745017"><ele>3.0</ele><time>2026-03-28T14:32:39.384Z</time></trkpt><trkpt lat="40.2881183" lon="8.4744717"><ele>3.0</ele><time>2026-03-28T14:32:40.384Z</time></trkpt><trkpt lat="40.2882217" lon="8.4744633"><ele>3.0</ele><time>2026-03-28T14:32:42.384Z</time></trkpt><trkpt lat="40.288305" lon="8.4744783"><ele>3.0</ele><time>2026-03-28T14:32:45.384Z</time></trkpt><trkpt lat="40.2883817" lon="8.4745033"><ele>3.0</ele><time>2026-03-28T14:32:48.384Z</time></trkpt><trkpt lat="40.288445" lon="8.4745067"><ele>3.0</ele><time>2026-03-28T14:32:50.384Z</time></trkpt><trkpt lat="40.2885683" lon="8.4745383"><ele>3.0</ele><time>2026-03-28T14:32:52.384Z</time></trkpt><trkpt lat="40.28865" lon="8.47457"><ele>3.0</ele><time>2026-03-28T14:32:53.383Z</time></trkpt><trkpt lat="40.2887567" lon="8.4746017"><ele>3.0</ele><time>2026-03-28T14:32:54.384Z</time></trkpt><trkpt lat="40.28891" lon="8.4746167"><ele>3.0</ele><time>2026-03-28T14:32:55.384Z</time></trkpt><trkpt lat="40.28908" lon="8.4746333"><ele>2.75</ele><time>2026-03-28T14:32:56.384Z</time></trkpt><trkpt lat="40.28924" lon="8.4746683"><ele>2.5</ele><time>2026-03-28T14:32:57.384Z</time></trkpt><trkpt lat="40.2893833" lon="8.4747133"><ele>2.25</ele><time>2026-03-28T14:32:58.384Z</time></trkpt><trkpt lat="40.2895083" lon="8.47478"><ele>2.0</ele><time>2026-03-28T14:32:59.384Z</time></trkpt><trkpt lat="40.2896317" lon="8.4748583"><ele>2.0</ele><time>2026-03-28T14:33:00.384Z</time></trkpt><trkpt lat="40.289735" lon="8.4749567"><ele>2.0</ele><time>2026-03-28T14:33:01.384Z</time></trkpt><trkpt lat="40.2898283" lon="8.475065"><ele>2.0</ele><time>2026-03-28T14:33:02.384Z</time></trkpt><trkpt lat="40.289885" lon="8.4751817"><ele>2.0</ele><time>2026-03-28T14:33:03.383Z</time></trkpt><trkpt lat="40.2899383" lon="8.4752917"><ele>2.0</ele><time>2026-03-28T14:33:04.384Z</time></trkpt><trkpt lat="40.2899883" lon="8.47541"><ele>2.0</ele><time>2026-03-28T14:33:05.383Z</time></trkpt><trkpt lat="40.290045" lon="8.4755467"><ele>2.0</ele><time>2026-03-28T14:33:06.384Z</time></trkpt><trkpt lat="40.2901133" lon="8.4756917"><ele>2.0</ele><time>2026-03-28T14:33:07.384Z</time></trkpt><trkpt lat="40.2901817" lon="8.4758383"><ele>2.0</ele><time>2026-03-28T14:33:08.384Z</time></trkpt><trkpt lat="40.2902533" lon="8.4759717"><ele>2.0</ele><time>2026-03-28T14:33:09.383Z</time></trkpt><trkpt lat="40.290315" lon="8.4760933"><ele>2.0</ele><time>2026-03-28T14:33:10.384Z</time></trkpt><trkpt lat="40.290365" lon="8.4762167"><ele>2.0</ele><time>2026-03-28T14:33:11.384Z</time></trkpt><trkpt lat="40.29039" lon="8.4763417"><ele>2.0</ele><time>2026-03-28T14:33:12.384Z</time></trkpt><trkpt lat="40.290395" lon="8.4764633"><ele>2.333333333333333</ele><time>2026-03-28T14:33:13.384Z</time></trkpt><trkpt lat="40.29039" lon="8.47657"><ele>2.6666666666666665</ele><time>2026-03-28T14:33:14.384Z</time></trkpt><trkpt lat="40.2903733" lon="8.476685"><ele>3.0</ele><time>2026-03-28T14:33:15.384Z</time></trkpt><trkpt lat="40.2903433" lon="8.4768"><ele>3.333333333333333</ele><time>2026-03-28T14:33:16.384Z</time></trkpt><trkpt lat="40.290315" lon="8.4769083"><ele>3.6666666666666665</ele><time>2026-03-28T14:33:17.384Z</time></trkpt><trkpt lat="40.29029" lon="8.4770017"><ele>4.0</ele><time>2026-03-28T14:33:18.384Z</time></trkpt><trkpt lat="40.29026" lon="8.47709"><ele>3.8000000000000003</ele><time>2026-03-28T14:33:19.384Z</time></trkpt><trkpt lat="40.2902367" lon="8.4771733"><ele>3.6000000000000005</ele><time>2026-03-28T14:33:20.384Z</time></trkpt><trkpt lat="40.290205" lon="8.477265"><ele>3.4</ele><time>2026-03-28T14:33:21.384Z</time></trkpt><trkpt lat="40.2901583" lon="8.4773767"><ele>3.2</ele><time>2026-03-28T14:33:22.384Z</time></trkpt><trkpt lat="40.29011" lon="8.4775083"><ele>3.0</ele><time>2026-03-28T14:33:23.384Z</time></trkpt><trkpt lat="40.2900467" lon="8.4776583"><ele>3.0</ele><time>2026-03-28T14:33:24.384Z</time></trkpt><trkpt lat="40.2899967" lon="8.477815"><ele>3.0</ele><time>2026-03-28T14:33:25.384Z</time></trkpt><trkpt lat="40.2899467" lon="8.4779767"><ele>3.0</ele><time>2026-03-28T14:33:26.384Z</time></trkpt><trkpt lat="40.2898817" lon="8.478145"><ele>3.0</ele><time>2026-03-28T14:33:27.383Z</time></trkpt><trkpt lat="40.2898283" lon="8.4783067"><ele>3.0</ele><time>2026-03-28T14:33:28.384Z</time></trkpt><trkpt lat="40.28977" lon="8.4784717"><ele>3.0</ele><time>2026-03-28T14:33:29.384Z</time></trkpt><trkpt lat="40.2897267" lon="8.4786283"><ele>3.0</ele><time>2026-03-28T14:33:30.384Z</time></trkpt><trkpt lat="40.2896733" lon="8.478785"><ele>3.0</ele><time>2026-03-28T14:33:31.383Z</time></trkpt><trkpt lat="40.2896233" lon="8.4789317"><ele>3.0</ele><time>2026-03-28T14:33:32.384Z</time></trkpt><trkpt lat="40.28958" lon="8.47905"><ele>3.0</ele><time>2026-03-28T14:33:33.383Z</time></trkpt><trkpt lat="40.2895333" lon="8.4791617"><ele>3.0</ele><time>2026-03-28T14:33:34.384Z</time></trkpt><trkpt lat="40.2894967" lon="8.47926"><ele>3.0</ele><time>2026-03-28T14:33:35.384Z</time></trkpt><trkpt lat="40.2894583" lon="8.47934"><ele>3.0</ele><time>2026-03-28T14:33:36.383Z</time></trkpt><trkpt lat="40.2894567" lon="8.4794483"><ele>3.0</ele><time>2026-03-28T14:33:38.384Z</time></trkpt><trkpt lat="40.2895" lon="8.479515"><ele>3.0</ele><time>2026-03-28T14:33:40.384Z</time></trkpt><trkpt lat="40.2896233" lon="8.47953"><ele>3.0</ele><time>2026-03-28T14:33:42.383Z</time></trkpt><trkpt lat="40.289705" lon="8.479515"><ele>3.0</ele><time>2026-03-28T14:33:43.383Z</time></trkpt><trkpt lat="40.2897783" lon="8.4794783"><ele>3.0</ele><time>2026-03-28T14:33:44.384Z</time></trkpt><trkpt lat="40.28985" lon="8.4794317"><ele>3.0</ele><time>2026-03-28T14:33:45.384Z</time></trkpt><trkpt lat="40.289925" lon="8.479355"><ele>3.2</ele><time>2026-03-28T14:33:46.384Z</time></trkpt><trkpt lat="40.2900167" lon="8.47924"><ele>3.4</ele><time>2026-03-28T14:33:47.384Z</time></trkpt><trkpt lat="40.2901033" lon="8.4791483"><ele>3.6000000000000005</ele><time>2026-03-28T14:33:48.384Z</time></trkpt><trkpt lat="40.2901867" lon="8.4790633"><ele>3.8000000000000003</ele><time>2026-03-28T14:33:49.383Z</time></trkpt><trkpt lat="40.2902683" lon="8.4789833"><ele>4.0</ele><time>2026-03-28T14:33:50.384Z</time></trkpt><trkpt lat="40.2903433" lon="8.4788983"><ele>4.0</ele><time>2026-03-28T14:33:51.384Z</time></trkpt><trkpt lat="40.290425" lon="8.4788117"><ele>4.0</ele><time>2026-03-28T14:33:52.384Z</time></trkpt><trkpt lat="40.2904967" lon="8.478725"><ele>4.0</ele><time>2026-03-28T14:33:53.384Z</time></trkpt><trkpt lat="40.2905767" lon="8.4786467"><ele>4.0</ele><time>2026-03-28T14:33:54.383Z</time></trkpt><trkpt lat="40.290645" lon="8.4785867"><ele>4.0</ele><time>2026-03-28T14:33:55.384Z</time></trkpt><trkpt lat="40.29071" lon="8.478535"><ele>3.9999999999999996</ele><time>2026-03-28T14:33:56.384Z</time></trkpt><trkpt lat="40.2907667" lon="8.47846"><ele>4.0</ele><time>2026-03-28T14:33:57.384Z</time></trkpt><trkpt lat="40.2908267" lon="8.4783917"><ele>4.0</ele><time>2026-03-28T14:33:58.384Z</time></trkpt><trkpt lat="40.2908917" lon="8.478325"><ele>4.0</ele><time>2026-03-28T14:33:59.384Z</time></trkpt><trkpt lat="40.2909583" lon="8.4782767"><ele>3.9999999999999996</ele><time>2026-03-28T14:34:00.384Z</time></trkpt><trkpt lat="40.29102" lon="8.4782433"><ele>4.0</ele><time>2026-03-28T14:34:01.384Z</time></trkpt><trkpt lat="40.291105" lon="8.478195"><ele>3.9999999999999996</ele><time>2026-03-28T14:34:03.384Z</time></trkpt><trkpt lat="40.2911917" lon="8.4781917"><ele>4.0</ele><time>2026-03-28T14:34:06.384Z</time></trkpt><trkpt lat="40.29124" lon="8.4782833"><ele>4.0</ele><time>2026-03-28T14:34:08.384Z</time></trkpt><trkpt lat="40.29127" lon="8.4783583"><ele>4.0</ele><time>2026-03-28T14:34:09.384Z</time></trkpt><trkpt lat="40.29129" lon="8.4784567"><ele>3.9999999999999996</ele><time>2026-03-28T14:34:10.384Z</time></trkpt><trkpt lat="40.2913083" lon="8.4785733"><ele>4.0</ele><time>2026-03-28T14:34:11.384Z</time></trkpt><trkpt lat="40.2913367" lon="8.478705"><ele>4.0</ele><time>2026-03-28T14:34:12.384Z</time></trkpt><trkpt lat="40.2913667" lon="8.4788567"><ele>4.0</ele><time>2026-03-28T14:34:13.384Z</time></trkpt><trkpt lat="40.2913967" lon="8.479"><ele>4.0</ele><time>2026-03-28T14:34:14.384Z</time></trkpt><trkpt lat="40.2914167" lon="8.4791433"><ele>4.0</ele><time>2026-03-28T14:34:15.384Z</time></trkpt><trkpt lat="40.2914483" lon="8.4792933"><ele>3.75</ele><time>2026-03-28T14:34:16.383Z</time></trkpt><trkpt lat="40.2914917" lon="8.4794333"><ele>3.5</ele><time>2026-03-28T14:34:17.384Z</time></trkpt><trkpt lat="40.291525" lon="8.4795717"><ele>3.25</ele><time>2026-03-28T14:34:18.384Z</time></trkpt><trkpt lat="40.29157" lon="8.4797033"><ele>3.0</ele><time>2026-03-28T14:34:19.383Z</time></trkpt><trkpt lat="40.2916" lon="8.479855"><ele>3.0</ele><time>2026-03-28T14:34:20.384Z</time></trkpt><trkpt lat="40.2916217" lon="8.480015"><ele>3.0</ele><time>2026-03-28T14:34:21.383Z</time></trkpt><trkpt lat="40.2916583" lon="8.480155"><ele>3.0</ele><time>2026-03-28T14:34:22.383Z</time></trkpt><trkpt lat="40.2916917" lon="8.4802967"><ele>3.0</ele><time>2026-03-28T14:34:23.383Z</time></trkpt><trkpt lat="40.291725" lon="8.4804467"><ele>3.25</ele><time>2026-03-28T14:34:24.384Z</time></trkpt><trkpt lat="40.2917483" lon="8.48061"><ele>3.5</ele><time>2026-03-28T14:34:25.383Z</time></trkpt><trkpt lat="40.2917833" lon="8.4807667"><ele>3.75</ele><time>2026-03-28T14:34:26.384Z</time></trkpt><trkpt lat="40.2918217" lon="8.4809367"><ele>4.0</ele><time>2026-03-28T14:34:27.384Z</time></trkpt><trkpt lat="40.2918667" lon="8.4811033"><ele>3.75</ele><time>2026-03-28T14:34:28.384Z</time></trkpt><trkpt lat="40.291915" lon="8.481285"><ele>3.5</ele><time>2026-03-28T14:34:29.384Z</time></trkpt><trkpt lat="40.29197" lon="8.481465"><ele>3.25</ele><time>2026-03-28T14:34:30.384Z</time></trkpt><trkpt lat="40.2920367" lon="8.48164"><ele>3.0</ele><time>2026-03-28T14:34:31.384Z</time></trkpt><trkpt lat="40.2920833" lon="8.4818317"><ele>3.0</ele><time>2026-03-28T14:34:32.384Z</time></trkpt><trkpt lat="40.2921383" lon="8.48202"><ele>3.0</ele><time>2026-03-28T14:34:33.384Z</time></trkpt><trkpt lat="40.2921683" lon="8.4822183"><ele>3.0</ele><time>2026-03-28T14:34:34.383Z</time></trkpt><trkpt lat="40.292225" lon="8.4824183"><ele>3.0</ele><time>2026-03-28T14:34:35.383Z</time></trkpt><trkpt lat="40.2922833" lon="8.4826167"><ele>3.0</ele><time>2026-03-28T14:34:36.384Z</time></trkpt><trkpt lat="40.2923417" lon="8.482805"><ele>3.0</ele><time>2026-03-28T14:34:37.384Z</time></trkpt><trkpt lat="40.2923933" lon="8.4829817"><ele>2.75</ele><time>2026-03-28T14:34:38.384Z</time></trkpt><trkpt lat="40.292435" lon="8.4831617"><ele>2.5</ele><time>2026-03-28T14:34:39.383Z</time></trkpt><trkpt lat="40.2924667" lon="8.48333"><ele>2.25</ele><time>2026-03-28T14:34:40.384Z</time></trkpt><trkpt lat="40.2924983" lon="8.4834883"><ele>2.0</ele><time>2026-03-28T14:34:41.384Z</time></trkpt><trkpt lat="40.2925333" lon="8.4836317"><ele>1.9999999999999998</ele><time>2026-03-28T14:34:42.384Z</time></trkpt><trkpt lat="40.29255" lon="8.48376"><ele>2.0</ele><time>2026-03-28T14:34:43.384Z</time></trkpt><trkpt lat="40.2925733" lon="8.4838667"><ele>2.0</ele><time>2026-03-28T14:34:44.383Z</time></trkpt><trkpt lat="40.2926117" lon="8.4839417"><ele>2.0</ele><time>2026-03-28T14:34:45.384Z</time></trkpt><trkpt lat="40.2926783" lon="8.48397"><ele>1.9999999999999998</ele><time>2026-03-28T14:34:46.384Z</time></trkpt><trkpt lat="40.29276" lon="8.483945"><ele>2.0</ele><time>2026-03-28T14:34:47.384Z</time></trkpt><trkpt lat="40.2928433" lon="8.48387"><ele>2.0</ele><time>2026-03-28T14:34:48.384Z</time></trkpt><trkpt lat="40.2929183" lon="8.48378"><ele>2.0</ele><time>2026-03-28T14:34:49.384Z</time></trkpt><trkpt lat="40.2930233" lon="8.4836883"><ele>2.0</ele><time>2026-03-28T14:34:50.383Z</time></trkpt><trkpt lat="40.2931317" lon="8.483635"><ele>2.0</ele><time>2026-03-28T14:34:51.384Z</time></trkpt><trkpt lat="40.2932633" lon="8.483625"><ele>1.75</ele><time>2026-03-28T14:34:52.383Z</time></trkpt><trkpt lat="40.2934033" lon="8.4836533"><ele>1.5</ele><time>2026-03-28T14:34:53.384Z</time></trkpt><trkpt lat="40.29354" lon="8.4837283"><ele>1.25</ele><time>2026-03-28T14:34:54.384Z</time></trkpt><trkpt lat="40.2936633" lon="8.4838067"><ele>1.0</ele><time>2026-03-28T14:34:55.384Z</time></trkpt><trkpt lat="40.2937883" lon="8.4839017"><ele>1.0</ele><time>2026-03-28T14:34:56.384Z</time></trkpt><trkpt lat="40.2939067" lon="8.48398"><ele>1.0</ele><time>2026-03-28T14:34:57.384Z</time></trkpt><trkpt lat="40.294015" lon="8.4840583"><ele>1.0</ele><time>2026-03-28T14:34:58.384Z</time></trkpt><trkpt lat="40.29413" lon="8.4841417"><ele>1.0</ele><time>2026-03-28T14:34:59.383Z</time></trkpt><trkpt lat="40.2942433" lon="8.4842267"><ele>1.0</ele><time>2026-03-28T14:35:00.383Z</time></trkpt><trkpt lat="40.2943633" lon="8.48431"><ele>1.0</ele><time>2026-03-28T14:35:01.383Z</time></trkpt><trkpt lat="40.29448" lon="8.4843917"><ele>1.0</ele><time>2026-03-28T14:35:02.383Z</time></trkpt><trkpt lat="40.2946067" lon="8.4844767"><ele>1.0</ele><time>2026-03-28T14:35:03.383Z</time></trkpt><trkpt lat="40.294735" lon="8.4845767"><ele>1.25</ele><time>2026-03-28T14:35:04.384Z</time></trkpt><trkpt lat="40.2948633" lon="8.48468"><ele>1.5</ele><time>2026-03-28T14:35:05.383Z</time></trkpt><trkpt lat="40.295" lon="8.4847617"><ele>1.75</ele><time>2026-03-28T14:35:06.384Z</time></trkpt><trkpt lat="40.2951217" lon="8.48485"><ele>2.0</ele><time>2026-03-28T14:35:07.383Z</time></trkpt><trkpt lat="40.2952483" lon="8.4849283"><ele>2.0</ele><time>2026-03-28T14:35:08.384Z</time></trkpt><trkpt lat="40.2953667" lon="8.485005"><ele>2.0</ele><time>2026-03-28T14:35:09.384Z</time></trkpt><trkpt lat="40.2955" lon="8.4850717"><ele>2.0</ele><time>2026-03-28T14:35:10.384Z</time></trkpt><trkpt lat="40.29564" lon="8.4851067"><ele>2.0</ele><time>2026-03-28T14:35:11.384Z</time></trkpt><trkpt lat="40.2957933" lon="8.4851267"><ele>2.0</ele><time>2026-03-28T14:35:12.383Z</time></trkpt><trkpt lat="40.29594" lon="8.4851183"><ele>2.0</ele><time>2026-03-28T14:35:13.384Z</time></trkpt><trkpt lat="40.296095" lon="8.485105"><ele>2.0</ele><time>2026-03-28T14:35:14.384Z</time></trkpt><trkpt lat="40.2962367" lon="8.4850867"><ele>2.0</ele><time>2026-03-28T14:35:15.383Z</time></trkpt><trkpt lat="40.2963917" lon="8.4850733"><ele>2.25</ele><time>2026-03-28T14:35:16.384Z</time></trkpt><trkpt lat="40.29653" lon="8.4850583"><ele>2.5</ele><time>2026-03-28T14:35:17.384Z</time></trkpt><trkpt lat="40.29666" lon="8.4850383"><ele>2.75</ele><time>2026-03-28T14:35:18.384Z</time></trkpt><trkpt lat="40.2967833" lon="8.48503"><ele>3.0</ele><time>2026-03-28T14:35:19.384Z</time></trkpt><trkpt lat="40.2968983" lon="8.4850217"><ele>3.0</ele><time>2026-03-28T14:35:20.384Z</time></trkpt><trkpt lat="40.2969933" lon="8.4850217"><ele>3.0</ele><time>2026-03-28T14:35:21.383Z</time></trkpt><trkpt lat="40.2970817" lon="8.4850283"><ele>3.0</ele><time>2026-03-28T14:35:22.384Z</time></trkpt><trkpt lat="40.2971567" lon="8.485045"><ele>3.0</ele><time>2026-03-28T14:35:23.384Z</time></trkpt><trkpt lat="40.29722" lon="8.4850617"><ele>3.0</ele><time>2026-03-28T14:35:24.383Z</time></trkpt><trkpt lat="40.2972967" lon="8.485045"><ele>3.0</ele><time>2026-03-28T14:35:25.384Z</time></trkpt><trkpt lat="40.2973817" lon="8.4850167"><ele>3.0</ele><time>2026-03-28T14:35:26.383Z</time></trkpt><trkpt lat="40.2975017" lon="8.485"><ele>3.0</ele><time>2026-03-28T14:35:27.384Z</time></trkpt><trkpt lat="40.297635" lon="8.4849833"><ele>3.0</ele><time>2026-03-28T14:35:28.383Z</time></trkpt><trkpt lat="40.297785" lon="8.4849717"><ele>3.0</ele><time>2026-03-28T14:35:29.384Z</time></trkpt><trkpt lat="40.2979467" lon="8.48496"><ele>3.0</ele><time>2026-03-28T14:35:30.384Z</time></trkpt><trkpt lat="40.298125" lon="8.48494"><ele>3.0</ele><time>2026-03-28T14:35:31.384Z</time></trkpt><trkpt lat="40.2982983" lon="8.484935"><ele>3.0</ele><time>2026-03-28T14:35:32.384Z</time></trkpt><trkpt lat="40.298485" lon="8.484925"><ele>3.0</ele><time>2026-03-28T14:35:33.384Z</time></trkpt><trkpt lat="40.29867" lon="8.4848983"><ele>3.0</ele><time>2026-03-28T14:35:34.384Z</time></trkpt><trkpt lat="40.298875" lon="8.4848783"><ele>3.0</ele><time>2026-03-28T14:35:35.383Z</time></trkpt><trkpt lat="40.29906" lon="8.4848717"><ele>3.666666666666667</ele><time>2026-03-28T14:35:36.384Z</time></trkpt><trkpt lat="40.2992533" lon="8.484865"><ele>4.333333333333334</ele><time>2026-03-28T14:35:37.384Z</time></trkpt><trkpt lat="40.299465" lon="8.4848467"><ele>5.0</ele><time>2026-03-28T14:35:38.383Z</time></trkpt><trkpt lat="40.29967" lon="8.4848267"><ele>5.0</ele><time>2026-03-28T14:35:39.383Z</time></trkpt><trkpt lat="40.2998783" lon="8.4848067"><ele>5.0</ele><time>2026-03-28T14:35:40.383Z</time></trkpt><trkpt lat="40.3001183" lon="8.4847967"><ele>5.0</ele><time>2026-03-28T14:35:41.383Z</time></trkpt><trkpt lat="40.3003667" lon="8.4848017"><ele>5.5</ele><time>2026-03-28T14:35:42.383Z</time></trkpt><trkpt lat="40.300605" lon="8.4848067"><ele>6.0</ele><time>2026-03-28T14:35:43.382Z</time></trkpt><trkpt lat="40.300845" lon="8.4848083"><ele>6.0</ele><time>2026-03-28T14:35:44.383Z</time></trkpt><trkpt lat="40.30107" lon="8.48482"><ele>6.0</ele><time>2026-03-28T14:35:45.383Z</time></trkpt><trkpt lat="40.3012883" lon="8.484835"><ele>6.0</ele><time>2026-03-28T14:35:46.383Z</time></trkpt><trkpt lat="40.301485" lon="8.48485"><ele>7.0</ele><time>2026-03-28T14:35:47.383Z</time></trkpt><trkpt lat="40.301675" lon="8.4848583"><ele>8.0</ele><time>2026-03-28T14:35:48.383Z</time></trkpt><trkpt lat="40.3018717" lon="8.4848233"><ele>9.0</ele><time>2026-03-28T14:35:49.383Z</time></trkpt><trkpt lat="40.3020533" lon="8.48475"><ele>9.0</ele><time>2026-03-28T14:35:50.383Z</time></trkpt><trkpt lat="40.3022233" lon="8.48465"><ele>9.0</ele><time>2026-03-28T14:35:51.383Z</time></trkpt><trkpt lat="40.3023867" lon="8.48453"><ele>9.0</ele><time>2026-03-28T14:35:52.383Z</time></trkpt><trkpt lat="40.3025517" lon="8.4843983"><ele>12.666666666666668</ele><time>2026-03-28T14:35:53.383Z</time></trkpt><trkpt lat="40.302735" lon="8.484295"><ele>16.333333333333336</ele><time>2026-03-28T14:35:54.383Z</time></trkpt><trkpt lat="40.3029333" lon="8.4842267"><ele>20.0</ele><time>2026-03-28T14:35:55.383Z</time></trkpt><trkpt lat="40.3031483" lon="8.4841717"><ele>20.0</ele><time>2026-03-28T14:35:56.383Z</time></trkpt><trkpt lat="40.3033667" lon="8.484125"><ele>20.0</ele><time>2026-03-28T14:35:57.383Z</time></trkpt><trkpt lat="40.3035717" lon="8.4840917"><ele>20.0</ele><time>2026-03-28T14:35:58.383Z</time></trkpt><trkpt lat="40.3037717" lon="8.4840633"><ele>20.666666666666668</ele><time>2026-03-28T14:35:59.383Z</time></trkpt><trkpt lat="40.30398" lon="8.4840483"><ele>21.333333333333332</ele><time>2026-03-28T14:36:00.383Z</time></trkpt><trkpt lat="40.304205" lon="8.48404"><ele>22.0</ele><time>2026-03-28T14:36:01.383Z</time></trkpt><trkpt lat="40.3044367" lon="8.4840583"><ele>22.0</ele><time>2026-03-28T14:36:02.383Z</time></trkpt><trkpt lat="40.3046567" lon="8.4840967"><ele>22.0</ele><time>2026-03-28T14:36:03.383Z</time></trkpt><trkpt lat="40.3048783" lon="8.484125"><ele>22.0</ele><time>2026-03-28T14:36:04.382Z</time></trkpt><trkpt lat="40.3051133" lon="8.4841567"><ele>23.5</ele><time>2026-03-28T14:36:05.383Z</time></trkpt><trkpt lat="40.305365" lon="8.4841817"><ele>25.0</ele><time>2026-03-28T14:36:06.383Z</time></trkpt><trkpt lat="40.3055883" lon="8.4842067"><ele>28.0</ele><time>2026-03-28T14:36:07.383Z</time></trkpt><trkpt lat="40.3058133" lon="8.4842333"><ele>31.0</ele><time>2026-03-28T14:36:08.383Z</time></trkpt><trkpt lat="40.3060317" lon="8.4842533"><ele>34.0</ele><time>2026-03-28T14:36:09.383Z</time></trkpt><trkpt lat="40.3062367" lon="8.484275"><ele>36.66666666666667</ele><time>2026-03-28T14:36:10.383Z</time></trkpt><trkpt lat="40.3064367" lon="8.4843217"><ele>39.333333333333336</ele><time>2026-03-28T14:36:11.383Z</time></trkpt><trkpt lat="40.3066367" lon="8.484385"><ele>42.0</ele><time>2026-03-28T14:36:12.382Z</time></trkpt><trkpt lat="40.30684" lon="8.48447"><ele>42.0</ele><time>2026-03-28T14:36:13.383Z</time></trkpt><trkpt lat="40.3070383" lon="8.4845667"><ele>42.0</ele><time>2026-03-28T14:36:14.383Z</time></trkpt><trkpt lat="40.307215" lon="8.48466"><ele>42.0</ele><time>2026-03-28T14:36:15.383Z</time></trkpt><trkpt lat="40.3073767" lon="8.4847483"><ele>42.0</ele><time>2026-03-28T14:36:16.383Z</time></trkpt><trkpt lat="40.3075083" lon="8.4848833"><ele>42.0</ele><time>2026-03-28T14:36:17.383Z</time></trkpt><trkpt lat="40.30761" lon="8.485075"><ele>42.0</ele><time>2026-03-28T14:36:18.383Z</time></trkpt><trkpt lat="40.3077067" lon="8.4852867"><ele>39.333333333333336</ele><time>2026-03-28T14:36:19.382Z</time></trkpt><trkpt lat="40.307795" lon="8.48548"><ele>36.66666666666667</ele><time>2026-03-28T14:36:20.383Z</time></trkpt><trkpt lat="40.307875" lon="8.4856433"><ele>34.0</ele><time>2026-03-28T14:36:21.382Z</time></trkpt><trkpt lat="40.30796" lon="8.485775"><ele>34.0</ele><time>2026-03-28T14:36:22.383Z</time></trkpt><trkpt lat="40.30805" lon="8.485885"><ele>34.0</ele><time>2026-03-28T14:36:23.383Z</time></trkpt><trkpt lat="40.308165" lon="8.485955"><ele>34.0</ele><time>2026-03-28T14:36:24.383Z</time></trkpt><trkpt lat="40.3082967" lon="8.486015"><ele>34.0</ele><time>2026-03-28T14:36:25.383Z</time></trkpt><trkpt lat="40.3084517" lon="8.48608"><ele>35.66666666666667</ele><time>2026-03-28T14:36:26.383Z</time></trkpt><trkpt lat="40.3086183" lon="8.48618"><ele>37.333333333333336</ele><time>2026-03-28T14:36:27.383Z</time></trkpt><trkpt lat="40.3087917" lon="8.48629"><ele>39.0</ele><time>2026-03-28T14:36:28.382Z</time></trkpt><trkpt lat="40.3089633" lon="8.486405"><ele>44.0</ele><time>2026-03-28T14:36:29.382Z</time></trkpt><trkpt lat="40.3091367" lon="8.4865267"><ele>49.0</ele><time>2026-03-28T14:36:30.383Z</time></trkpt><trkpt lat="40.309305" lon="8.4866433"><ele>54.0</ele><time>2026-03-28T14:36:31.383Z</time></trkpt><trkpt lat="40.3094583" lon="8.4867733"><ele>54.0</ele><time>2026-03-28T14:36:32.383Z</time></trkpt><trkpt lat="40.3095983" lon="8.48694"><ele>54.0</ele><time>2026-03-28T14:36:33.383Z</time></trkpt><trkpt lat="40.30975" lon="8.487135"><ele>54.0</ele><time>2026-03-28T14:36:34.383Z</time></trkpt><trkpt lat="40.30988" lon="8.48736"><ele>54.66666666666667</ele><time>2026-03-28T14:36:35.383Z</time></trkpt><trkpt lat="40.3100167" lon="8.48758"><ele>55.333333333333336</ele><time>2026-03-28T14:36:36.383Z</time></trkpt><trkpt lat="40.3101533" lon="8.4878083"><ele>56.0</ele><time>2026-03-28T14:36:37.383Z</time></trkpt><trkpt lat="40.3102867" lon="8.4880017"><ele>56.0</ele><time>2026-03-28T14:36:38.383Z</time></trkpt><trkpt lat="40.310415" lon="8.4881983"><ele>56.0</ele><time>2026-03-28T14:36:39.383Z</time></trkpt><trkpt lat="40.3105283" lon="8.4883867"><ele>56.0</ele><time>2026-03-28T14:36:40.382Z</time></trkpt><trkpt lat="40.3106383" lon="8.4885133"><ele>61.0</ele><time>2026-03-28T14:36:41.383Z</time></trkpt><trkpt lat="40.310775" lon="8.4885867"><ele>66.0</ele><time>2026-03-28T14:36:42.383Z</time></trkpt><trkpt lat="40.3109417" lon="8.4886083"><ele>71.0</ele><time>2026-03-28T14:36:43.383Z</time></trkpt><trkpt lat="40.3111367" lon="8.4886283"><ele>71.0</ele><time>2026-03-28T14:36:44.382Z</time></trkpt><trkpt lat="40.311335" lon="8.4886567"><ele>71.0</ele><time>2026-03-28T14:36:45.382Z</time></trkpt><trkpt lat="40.3115233" lon="8.4886783"><ele>71.0</ele><time>2026-03-28T14:36:46.383Z</time></trkpt><trkpt lat="40.3116967" lon="8.4886917"><ele>73.33333333333334</ele><time>2026-03-28T14:36:47.383Z</time></trkpt><trkpt lat="40.3118567" lon="8.48865"><ele>75.66666666666667</ele><time>2026-03-28T14:36:48.382Z</time></trkpt><trkpt lat="40.3120167" lon="8.488555"><ele>78.0</ele><time>2026-03-28T14:36:49.383Z</time></trkpt><trkpt lat="40.31218" lon="8.4884217"><ele>72.66666666666667</ele><time>2026-03-28T14:36:50.382Z</time></trkpt><trkpt lat="40.31234" lon="8.4882867"><ele>67.33333333333334</ele><time>2026-03-28T14:36:51.383Z</time></trkpt><trkpt lat="40.312475" lon="8.4881383"><ele>62.0</ele><time>2026-03-28T14:36:52.383Z</time></trkpt><trkpt lat="40.3126067" lon="8.4879567"><ele>67.66666666666667</ele><time>2026-03-28T14:36:53.382Z</time></trkpt><trkpt lat="40.3127083" lon="8.4877367"><ele>73.33333333333333</ele><time>2026-03-28T14:36:54.383Z</time></trkpt><trkpt lat="40.312815" lon="8.4874867"><ele>79.0</ele><time>2026-03-28T14:36:55.383Z</time></trkpt><trkpt lat="40.31293" lon="8.4872083"><ele>77.5</ele><time>2026-03-28T14:36:56.382Z</time></trkpt><trkpt lat="40.313065" lon="8.4869333"><ele>76.0</ele><time>2026-03-28T14:36:57.383Z</time></trkpt><trkpt lat="40.3132017" lon="8.48665"><ele>76.0</ele><time>2026-03-28T14:36:58.382Z</time></trkpt><trkpt lat="40.3133383" lon="8.4863683"><ele>76.0</ele><time>2026-03-28T14:36:59.383Z</time></trkpt><trkpt lat="40.3134667" lon="8.48611"><ele>78.33333333333333</ele><time>2026-03-28T14:37:00.383Z</time></trkpt><trkpt lat="40.31359" lon="8.4858667"><ele>80.66666666666667</ele><time>2026-03-28T14:37:01.382Z</time></trkpt><trkpt lat="40.313705" lon="8.4856317"><ele>83.0</ele><time>2026-03-28T14:37:02.382Z</time></trkpt><trkpt lat="40.3138" lon="8.4853933"><ele>84.66666666666667</ele><time>2026-03-28T14:37:03.383Z</time></trkpt><trkpt lat="40.313895" lon="8.4851483"><ele>86.33333333333333</ele><time>2026-03-28T14:37:04.382Z</time></trkpt><trkpt lat="40.31396" lon="8.4848883"><ele>88.0</ele><time>2026-03-28T14:37:05.382Z</time></trkpt><trkpt lat="40.3140067" lon="8.484615"><ele>77.5</ele><time>2026-03-28T14:37:06.383Z</time></trkpt><trkpt lat="40.31405" lon="8.4843267"><ele>67.0</ele><time>2026-03-28T14:37:07.383Z</time></trkpt><trkpt lat="40.3141017" lon="8.4840267"><ele>64.33333333333333</ele><time>2026-03-28T14:37:08.383Z</time></trkpt><trkpt lat="40.3141533" lon="8.4837467"><ele>61.66666666666667</ele><time>2026-03-28T14:37:09.383Z</time></trkpt><trkpt lat="40.3141967" lon="8.4834567"><ele>59.0</ele><time>2026-03-28T14:37:10.382Z</time></trkpt><trkpt lat="40.3142467" lon="8.4831583"><ele>58.5</ele><time>2026-03-28T14:37:11.383Z</time></trkpt><trkpt lat="40.3142983" lon="8.4828633"><ele>58.0</ele><time>2026-03-28T14:37:12.382Z</time></trkpt><trkpt lat="40.3143467" lon="8.4825667"><ele>58.0</ele><time>2026-03-28T14:37:13.382Z</time></trkpt><trkpt lat="40.3144017" lon="8.4822617"><ele>58.0</ele><time>2026-03-28T14:37:14.382Z</time></trkpt><trkpt lat="40.31445" lon="8.48195"><ele>58.33333333333333</ele><time>2026-03-28T14:37:15.382Z</time></trkpt><trkpt lat="40.3145083" lon="8.4816767"><ele>58.66666666666667</ele><time>2026-03-28T14:37:16.382Z</time></trkpt><trkpt lat="40.3145583" lon="8.4814133"><ele>59.0</ele><time>2026-03-28T14:37:17.383Z</time></trkpt><trkpt lat="40.3146083" lon="8.48114"><ele>59.0</ele><time>2026-03-28T14:37:18.383Z</time></trkpt><trkpt lat="40.3146533" lon="8.4808767"><ele>59.0</ele><time>2026-03-28T14:37:19.383Z</time></trkpt><trkpt lat="40.3146933" lon="8.480615"><ele>59.0</ele><time>2026-03-28T14:37:20.382Z</time></trkpt><trkpt lat="40.3147767" lon="8.4803633"><ele>56.66666666666667</ele><time>2026-03-28T14:37:21.383Z</time></trkpt><trkpt lat="40.3148717" lon="8.4801133"><ele>54.33333333333333</ele><time>2026-03-28T14:37:22.383Z</time></trkpt><trkpt lat="40.314975" lon="8.4798583"><ele>52.0</ele><time>2026-03-28T14:37:23.382Z</time></trkpt><trkpt lat="40.315085" lon="8.4795917"><ele>48.0</ele><time>2026-03-28T14:37:24.382Z</time></trkpt><trkpt lat="40.3152017" lon="8.4793233"><ele>44.0</ele><time>2026-03-28T14:37:25.383Z</time></trkpt><trkpt lat="40.3153183" lon="8.4790517"><ele>44.0</ele><time>2026-03-28T14:37:26.383Z</time></trkpt><trkpt lat="40.31544" lon="8.4787833"><ele>44.0</ele><time>2026-03-28T14:37:27.383Z</time></trkpt><trkpt lat="40.31556" lon="8.4785383"><ele>43.666666666666664</ele><time>2026-03-28T14:37:28.383Z</time></trkpt><trkpt lat="40.3156717" lon="8.478285"><ele>43.333333333333336</ele><time>2026-03-28T14:37:29.383Z</time></trkpt><trkpt lat="40.315775" lon="8.4780233"><ele>43.0</ele><time>2026-03-28T14:37:30.383Z</time></trkpt><trkpt lat="40.315875" lon="8.4777917"><ele>41.333333333333336</ele><time>2026-03-28T14:37:31.382Z</time></trkpt><trkpt lat="40.315955" lon="8.4775733"><ele>39.666666666666664</ele><time>2026-03-28T14:37:32.383Z</time></trkpt><trkpt lat="40.31605" lon="8.4773417"><ele>38.0</ele><time>2026-03-28T14:37:33.382Z</time></trkpt><trkpt lat="40.3161117" lon="8.477095"><ele>37.33333333333333</ele><time>2026-03-28T14:37:34.383Z</time></trkpt><trkpt lat="40.3161517" lon="8.476825"><ele>36.666666666666664</ele><time>2026-03-28T14:37:35.383Z</time></trkpt><trkpt lat="40.3161867" lon="8.47655"><ele>36.0</ele><time>2026-03-28T14:37:36.383Z</time></trkpt><trkpt lat="40.31623" lon="8.4762633"><ele>35.0</ele><time>2026-03-28T14:37:37.383Z</time></trkpt><trkpt lat="40.3162783" lon="8.4759883"><ele>34.0</ele><time>2026-03-28T14:37:38.383Z</time></trkpt><trkpt lat="40.3163317" lon="8.4757233"><ele>33.0</ele><time>2026-03-28T14:37:39.383Z</time></trkpt><trkpt lat="40.316385" lon="8.47546"><ele>34.666666666666664</ele><time>2026-03-28T14:37:40.382Z</time></trkpt><trkpt lat="40.316445" lon="8.475205"><ele>36.33333333333333</ele><time>2026-03-28T14:37:41.383Z</time></trkpt><trkpt lat="40.31649" lon="8.47494"><ele>38.0</ele><time>2026-03-28T14:37:42.383Z</time></trkpt><trkpt lat="40.31651" lon="8.47466"><ele>37.33333333333333</ele><time>2026-03-28T14:37:43.382Z</time></trkpt><trkpt lat="40.316515" lon="8.47438"><ele>36.666666666666664</ele><time>2026-03-28T14:37:44.383Z</time></trkpt><trkpt lat="40.3165183" lon="8.4741133"><ele>36.0</ele><time>2026-03-28T14:37:45.383Z</time></trkpt><trkpt lat="40.31654" lon="8.4738633"><ele>35.0</ele><time>2026-03-28T14:37:46.383Z</time></trkpt><trkpt lat="40.31658" lon="8.4735983"><ele>34.0</ele><time>2026-03-28T14:37:47.383Z</time></trkpt><trkpt lat="40.31664" lon="8.47333"><ele>33.0</ele><time>2026-03-28T14:37:48.382Z</time></trkpt><trkpt lat="40.3167117" lon="8.4730683"><ele>31.333333333333336</ele><time>2026-03-28T14:37:49.383Z</time></trkpt><trkpt lat="40.3167967" lon="8.4728117"><ele>29.666666666666668</ele><time>2026-03-28T14:37:50.382Z</time></trkpt><trkpt lat="40.3168583" lon="8.472575"><ele>28.0</ele><time>2026-03-28T14:37:51.382Z</time></trkpt><trkpt lat="40.3169017" lon="8.4723283"><ele>26.666666666666668</ele><time>2026-03-28T14:37:52.382Z</time></trkpt><trkpt lat="40.3169" lon="8.47208"><ele>25.333333333333336</ele><time>2026-03-28T14:37:53.383Z</time></trkpt><trkpt lat="40.3168783" lon="8.4718033"><ele>24.0</ele><time>2026-03-28T14:37:54.382Z</time></trkpt><trkpt lat="40.316835" lon="8.4715467"><ele>24.0</ele><time>2026-03-28T14:37:55.383Z</time></trkpt><trkpt lat="40.3168383" lon="8.47131"><ele>24.0</ele><time>2026-03-28T14:37:56.383Z</time></trkpt><trkpt lat="40.3168717" lon="8.47106"><ele>24.0</ele><time>2026-03-28T14:37:57.382Z</time></trkpt><trkpt lat="40.316925" lon="8.47081"><ele>22.5</ele><time>2026-03-28T14:37:58.383Z</time></trkpt><trkpt lat="40.31699" lon="8.4705283"><ele>21.0</ele><time>2026-03-28T14:37:59.383Z</time></trkpt><trkpt lat="40.317065" lon="8.4702283"><ele>20.5</ele><time>2026-03-28T14:38:00.383Z</time></trkpt><trkpt lat="40.3171467" lon="8.469925"><ele>20.0</ele><time>2026-03-28T14:38:01.383Z</time></trkpt><trkpt lat="40.31722" lon="8.469605"><ele>21.0</ele><time>2026-03-28T14:38:02.383Z</time></trkpt><trkpt lat="40.3172983" lon="8.469275"><ele>22.0</ele><time>2026-03-28T14:38:03.383Z</time></trkpt><trkpt lat="40.3173683" lon="8.4689633"><ele>20.5</ele><time>2026-03-28T14:38:04.383Z</time></trkpt><trkpt lat="40.3174367" lon="8.46866"><ele>19.0</ele><time>2026-03-28T14:38:05.382Z</time></trkpt><trkpt lat="40.3175017" lon="8.4683733"><ele>19.0</ele><time>2026-03-28T14:38:06.382Z</time></trkpt><trkpt lat="40.317565" lon="8.46809"><ele>19.0</ele><time>2026-03-28T14:38:07.383Z</time></trkpt><trkpt lat="40.3176433" lon="8.467815"><ele>19.0</ele><time>2026-03-28T14:38:08.382Z</time></trkpt><trkpt lat="40.3177333" lon="8.4675367"><ele>17.0</ele><time>2026-03-28T14:38:09.382Z</time></trkpt><trkpt lat="40.3178317" lon="8.4672583"><ele>15.0</ele><time>2026-03-28T14:38:10.382Z</time></trkpt><trkpt lat="40.3179483" lon="8.466975"><ele>14.5</ele><time>2026-03-28T14:38:11.382Z</time></trkpt><trkpt lat="40.3180583" lon="8.4667017"><ele>14.0</ele><time>2026-03-28T14:38:12.383Z</time></trkpt><trkpt lat="40.31817" lon="8.46643"><ele>17.0</ele><time>2026-03-28T14:38:13.383Z</time></trkpt><trkpt lat="40.318265" lon="8.4661417"><ele>20.0</ele><time>2026-03-28T14:38:14.383Z</time></trkpt><trkpt lat="40.318345" lon="8.4658317"><ele>20.0</ele><time>2026-03-28T14:38:15.383Z</time></trkpt><trkpt lat="40.318405" lon="8.46551"><ele>20.0</ele><time>2026-03-28T14:38:16.383Z</time></trkpt><trkpt lat="40.3184467" lon="8.465185"><ele>20.5</ele><time>2026-03-28T14:38:17.383Z</time></trkpt><trkpt lat="40.31849" lon="8.46486"><ele>21.0</ele><time>2026-03-28T14:38:18.383Z</time></trkpt><trkpt lat="40.318535" lon="8.4645417"><ele>21.0</ele><time>2026-03-28T14:38:19.383Z</time></trkpt><trkpt lat="40.318575" lon="8.46422"><ele>21.0</ele><time>2026-03-28T14:38:20.383Z</time></trkpt><trkpt lat="40.3186117" lon="8.4639"><ele>20.666666666666668</ele><time>2026-03-28T14:38:21.383Z</time></trkpt><trkpt lat="40.3186633" lon="8.463615"><ele>20.333333333333336</ele><time>2026-03-28T14:38:22.382Z</time></trkpt><trkpt lat="40.3187317" lon="8.4633517"><ele>20.0</ele><time>2026-03-28T14:38:23.383Z</time></trkpt><trkpt lat="40.31882" lon="8.4631"><ele>25.666666666666668</ele><time>2026-03-28T14:38:24.383Z</time></trkpt><trkpt lat="40.31894" lon="8.4628633"><ele>31.333333333333336</ele><time>2026-03-28T14:38:25.383Z</time></trkpt><trkpt lat="40.3190617" lon="8.4626167"><ele>37.0</ele><time>2026-03-28T14:38:26.383Z</time></trkpt><trkpt lat="40.319185" lon="8.4623683"><ele>32.5</ele><time>2026-03-28T14:38:27.382Z</time></trkpt><trkpt lat="40.319285" lon="8.4620983"><ele>28.0</ele><time>2026-03-28T14:38:28.383Z</time></trkpt><trkpt lat="40.3193783" lon="8.46181"><ele>28.0</ele><time>2026-03-28T14:38:29.382Z</time></trkpt><trkpt lat="40.3194717" lon="8.4615167"><ele>28.0</ele><time>2026-03-28T14:38:30.382Z</time></trkpt><trkpt lat="40.31956" lon="8.4612117"><ele>26.5</ele><time>2026-03-28T14:38:31.383Z</time></trkpt><trkpt lat="40.3196533" lon="8.460915"><ele>25.0</ele><time>2026-03-28T14:38:32.382Z</time></trkpt><trkpt lat="40.3197467" lon="8.4606467"><ele>29.333333333333336</ele><time>2026-03-28T14:38:33.382Z</time></trkpt><trkpt lat="40.3198417" lon="8.460415"><ele>33.666666666666664</ele><time>2026-03-28T14:38:34.383Z</time></trkpt><trkpt lat="40.3199383" lon="8.4602167"><ele>38.0</ele><time>2026-03-28T14:38:35.383Z</time></trkpt><trkpt lat="40.32004" lon="8.4600733"><ele>38.0</ele><time>2026-03-28T14:38:36.383Z</time></trkpt><trkpt lat="40.3201583" lon="8.45994"><ele>38.0</ele><time>2026-03-28T14:38:37.383Z</time></trkpt><trkpt lat="40.3203033" lon="8.459815"><ele>38.0</ele><time>2026-03-28T14:38:38.383Z</time></trkpt><trkpt lat="40.3204417" lon="8.45968"><ele>43.0</ele><time>2026-03-28T14:38:39.383Z</time></trkpt><trkpt lat="40.320555" lon="8.4595067"><ele>48.0</ele><time>2026-03-28T14:38:40.383Z</time></trkpt><trkpt lat="40.32065" lon="8.45928"><ele>53.0</ele><time>2026-03-28T14:38:41.383Z</time></trkpt><trkpt lat="40.3207317" lon="8.4590333"><ele>53.0</ele><time>2026-03-28T14:38:42.383Z</time></trkpt><trkpt lat="40.3208183" lon="8.4587883"><ele>53.0</ele><time>2026-03-28T14:38:43.383Z</time></trkpt><trkpt lat="40.3209117" lon="8.45854"><ele>53.0</ele><time>2026-03-28T14:38:44.383Z</time></trkpt><trkpt lat="40.3210117" lon="8.45834"><ele>48.333333333333336</ele><time>2026-03-28T14:38:45.383Z</time></trkpt><trkpt lat="40.3211267" lon="8.458155"><ele>43.66666666666667</ele><time>2026-03-28T14:38:46.382Z</time></trkpt><trkpt lat="40.321235" lon="8.457965"><ele>39.0</ele><time>2026-03-28T14:38:47.382Z</time></trkpt><trkpt lat="40.3213217" lon="8.4577617"><ele>42.0</ele><time>2026-03-28T14:38:48.382Z</time></trkpt><trkpt lat="40.3214033" lon="8.4575133"><ele>45.0</ele><time>2026-03-28T14:38:49.382Z</time></trkpt><trkpt lat="40.3214883" lon="8.457255"><ele>48.0</ele><time>2026-03-28T14:38:50.383Z</time></trkpt><trkpt lat="40.3215833" lon="8.457015"><ele>48.0</ele><time>2026-03-28T14:38:51.382Z</time></trkpt><trkpt lat="40.3216783" lon="8.45682"><ele>48.0</ele><time>2026-03-28T14:38:52.383Z</time></trkpt><trkpt lat="40.3217883" lon="8.45666"><ele>48.0</ele><time>2026-03-28T14:38:53.383Z</time></trkpt><trkpt lat="40.3219233" lon="8.4565167"><ele>48.0</ele><time>2026-03-28T14:38:54.383Z</time></trkpt><trkpt lat="40.3220933" lon="8.4563867"><ele>48.0</ele><time>2026-03-28T14:38:55.382Z</time></trkpt><trkpt lat="40.3222667" lon="8.4562717"><ele>48.0</ele><time>2026-03-28T14:38:56.383Z</time></trkpt><trkpt lat="40.32244" lon="8.4561133"><ele>50.0</ele><time>2026-03-28T14:38:57.383Z</time></trkpt><trkpt lat="40.3226033" lon="8.45592"><ele>52.0</ele><time>2026-03-28T14:38:58.383Z</time></trkpt><trkpt lat="40.322755" lon="8.4557233"><ele>54.0</ele><time>2026-03-28T14:38:59.383Z</time></trkpt><trkpt lat="40.32291" lon="8.4555333"><ele>57.33333333333333</ele><time>2026-03-28T14:39:00.383Z</time></trkpt><trkpt lat="40.3230517" lon="8.4553483"><ele>60.666666666666664</ele><time>2026-03-28T14:39:01.382Z</time></trkpt><trkpt lat="40.323175" lon="8.455145"><ele>64.0</ele><time>2026-03-28T14:39:02.382Z</time></trkpt><trkpt lat="40.323275" lon="8.4549117"><ele>64.0</ele><time>2026-03-28T14:39:03.383Z</time></trkpt><trkpt lat="40.3233533" lon="8.4546467"><ele>64.0</ele><time>2026-03-28T14:39:04.382Z</time></trkpt><trkpt lat="40.32342" lon="8.454365"><ele>64.0</ele><time>2026-03-28T14:39:05.383Z</time></trkpt><trkpt lat="40.323485" lon="8.4540667"><ele>60.0</ele><time>2026-03-28T14:39:06.382Z</time></trkpt><trkpt lat="40.3235517" lon="8.4537683"><ele>56.0</ele><time>2026-03-28T14:39:07.382Z</time></trkpt><trkpt lat="40.323615" lon="8.45348"><ele>56.0</ele><time>2026-03-28T14:39:08.383Z</time></trkpt><trkpt lat="40.3236767" lon="8.4532183"><ele>56.0</ele><time>2026-03-28T14:39:09.382Z</time></trkpt><trkpt lat="40.3237433" lon="8.4529733"><ele>56.0</ele><time>2026-03-28T14:39:10.383Z</time></trkpt><trkpt lat="40.3238233" lon="8.45274"><ele>55.66666666666667</ele><time>2026-03-28T14:39:11.383Z</time></trkpt><trkpt lat="40.323925" lon="8.4525283"><ele>55.33333333333333</ele><time>2026-03-28T14:39:12.382Z</time></trkpt><trkpt lat="40.32403" lon="8.4523417"><ele>55.0</ele><time>2026-03-28T14:39:13.382Z</time></trkpt><trkpt lat="40.3241483" lon="8.4521933"><ele>52.0</ele><time>2026-03-28T14:39:14.383Z</time></trkpt><trkpt lat="40.3242917" lon="8.4520833"><ele>49.0</ele><time>2026-03-28T14:39:15.382Z</time></trkpt><trkpt lat="40.324475" lon="8.4520067"><ele>46.0</ele><time>2026-03-28T14:39:16.383Z</time></trkpt><trkpt lat="40.3246767" lon="8.4519383"><ele>47.66666666666667</ele><time>2026-03-28T14:39:17.383Z</time></trkpt><trkpt lat="40.324885" lon="8.4518467"><ele>49.333333333333336</ele><time>2026-03-28T14:39:18.383Z</time></trkpt><trkpt lat="40.3251" lon="8.4517483"><ele>51.0</ele><time>2026-03-28T14:39:19.383Z</time></trkpt><trkpt lat="40.3253" lon="8.45165"><ele>51.0</ele><time>2026-03-28T14:39:20.382Z</time></trkpt><trkpt lat="40.32549" lon="8.4515483"><ele>51.0</ele><time>2026-03-28T14:39:21.383Z</time></trkpt><trkpt lat="40.325665" lon="8.451455"><ele>51.0</ele><time>2026-03-28T14:39:22.383Z</time></trkpt><trkpt lat="40.3258283" lon="8.45137"><ele>50.25</ele><time>2026-03-28T14:39:23.383Z</time></trkpt><trkpt lat="40.3259517" lon="8.4512883"><ele>49.5</ele><time>2026-03-28T14:39:24.382Z</time></trkpt><trkpt lat="40.3260583" lon="8.4511933"><ele>48.75</ele><time>2026-03-28T14:39:25.383Z</time></trkpt><trkpt lat="40.32613" lon="8.451065"><ele>48.0</ele><time>2026-03-28T14:39:26.383Z</time></trkpt><trkpt lat="40.3261767" lon="8.4508833"><ele>48.0</ele><time>2026-03-28T14:39:27.382Z</time></trkpt><trkpt lat="40.3261767" lon="8.4506717"><ele>48.0</ele><time>2026-03-28T14:39:28.383Z</time></trkpt><trkpt lat="40.3261733" lon="8.4504283"><ele>48.0</ele><time>2026-03-28T14:39:29.383Z</time></trkpt><trkpt lat="40.326165" lon="8.4501583"><ele>47.333333333333336</ele><time>2026-03-28T14:39:30.383Z</time></trkpt><trkpt lat="40.3261583" lon="8.4498767"><ele>46.66666666666667</ele><time>2026-03-28T14:39:31.383Z</time></trkpt><trkpt lat="40.3261433" lon="8.44959"><ele>46.0</ele><time>2026-03-28T14:39:32.383Z</time></trkpt><trkpt lat="40.3261383" lon="8.449315"><ele>45.333333333333336</ele><time>2026-03-28T14:39:33.382Z</time></trkpt><trkpt lat="40.3261383" lon="8.4490683"><ele>44.666666666666664</ele><time>2026-03-28T14:39:34.383Z</time></trkpt><trkpt lat="40.326155" lon="8.4488183"><ele>44.0</ele><time>2026-03-28T14:39:35.383Z</time></trkpt><trkpt lat="40.3261933" lon="8.4485783"><ele>43.666666666666664</ele><time>2026-03-28T14:39:36.383Z</time></trkpt><trkpt lat="40.32626" lon="8.44834"><ele>43.333333333333336</ele><time>2026-03-28T14:39:37.383Z</time></trkpt><trkpt lat="40.32634" lon="8.4480867"><ele>43.0</ele><time>2026-03-28T14:39:38.383Z</time></trkpt><trkpt lat="40.3264283" lon="8.44782"><ele>47.0</ele><time>2026-03-28T14:39:39.383Z</time></trkpt><trkpt lat="40.326515" lon="8.4475417"><ele>51.0</ele><time>2026-03-28T14:39:40.383Z</time></trkpt><trkpt lat="40.32661" lon="8.4472483"><ele>47.0</ele><time>2026-03-28T14:39:41.383Z</time></trkpt><trkpt lat="40.3267067" lon="8.44696"><ele>43.0</ele><time>2026-03-28T14:39:42.383Z</time></trkpt><trkpt lat="40.3268" lon="8.4466567"><ele>43.0</ele><time>2026-03-28T14:39:43.382Z</time></trkpt><trkpt lat="40.3268833" lon="8.44637"><ele>43.0</ele><time>2026-03-28T14:39:44.383Z</time></trkpt><trkpt lat="40.3269617" lon="8.446105"><ele>42.66666666666667</ele><time>2026-03-28T14:39:45.383Z</time></trkpt><trkpt lat="40.3270417" lon="8.4458517"><ele>42.333333333333336</ele><time>2026-03-28T14:39:46.382Z</time></trkpt><trkpt lat="40.327105" lon="8.4456183"><ele>42.0</ele><time>2026-03-28T14:39:47.383Z</time></trkpt><trkpt lat="40.32714" lon="8.4453983"><ele>42.0</ele><time>2026-03-28T14:39:48.383Z</time></trkpt><trkpt lat="40.3271567" lon="8.4451483"><ele>42.0</ele><time>2026-03-28T14:39:49.383Z</time></trkpt><trkpt lat="40.3271367" lon="8.4448917"><ele>42.0</ele><time>2026-03-28T14:39:50.383Z</time></trkpt><trkpt lat="40.32708" lon="8.4446217"><ele>36.5</ele><time>2026-03-28T14:39:51.382Z</time></trkpt><trkpt lat="40.327015" lon="8.4443283"><ele>31.0</ele><time>2026-03-28T14:39:52.383Z</time></trkpt><trkpt lat="40.32695" lon="8.4440183"><ele>30.0</ele><time>2026-03-28T14:39:53.382Z</time></trkpt><trkpt lat="40.3268917" lon="8.443705"><ele>29.0</ele><time>2026-03-28T14:39:54.383Z</time></trkpt><trkpt lat="40.3268317" lon="8.443405"><ele>29.0</ele><time>2026-03-28T14:39:55.383Z</time></trkpt><trkpt lat="40.326785" lon="8.4431267"><ele>29.0</ele><time>2026-03-28T14:39:56.383Z</time></trkpt><trkpt lat="40.326745" lon="8.4428667"><ele>29.0</ele><time>2026-03-28T14:39:57.383Z</time></trkpt><trkpt lat="40.3267033" lon="8.4426067"><ele>30.0</ele><time>2026-03-28T14:39:58.382Z</time></trkpt><trkpt lat="40.3266833" lon="8.4423367"><ele>31.0</ele><time>2026-03-28T14:39:59.383Z</time></trkpt><trkpt lat="40.326695" lon="8.4420633"><ele>32.0</ele><time>2026-03-28T14:40:00.383Z</time></trkpt><trkpt lat="40.3267117" lon="8.44178"><ele>33.5</ele><time>2026-03-28T14:40:01.383Z</time></trkpt><trkpt lat="40.32673" lon="8.441485"><ele>35.0</ele><time>2026-03-28T14:40:02.382Z</time></trkpt><trkpt lat="40.326745" lon="8.44118"><ele>36.0</ele><time>2026-03-28T14:40:03.383Z</time></trkpt><trkpt lat="40.3267683" lon="8.4408833"><ele>37.0</ele><time>2026-03-28T14:40:04.383Z</time></trkpt><trkpt lat="40.326795" lon="8.440585"><ele>36.333333333333336</ele><time>2026-03-28T14:40:05.382Z</time></trkpt><trkpt lat="40.3268233" lon="8.4403083"><ele>35.666666666666664</ele><time>2026-03-28T14:40:06.383Z</time></trkpt><trkpt lat="40.3268433" lon="8.4400667"><ele>35.0</ele><time>2026-03-28T14:40:07.383Z</time></trkpt><trkpt lat="40.326885" lon="8.4398417"><ele>33.0</ele><time>2026-03-28T14:40:08.383Z</time></trkpt><trkpt lat="40.3269633" lon="8.439615"><ele>31.0</ele><time>2026-03-28T14:40:09.382Z</time></trkpt><trkpt lat="40.3270733" lon="8.4394017"><ele>29.0</ele><time>2026-03-28T14:40:10.383Z</time></trkpt><trkpt lat="40.3271883" lon="8.4391817"><ele>31.0</ele><time>2026-03-28T14:40:11.383Z</time></trkpt><trkpt lat="40.3273117" lon="8.4389433"><ele>33.0</ele><time>2026-03-28T14:40:12.383Z</time></trkpt><trkpt lat="40.3274367" lon="8.43869"><ele>33.0</ele><time>2026-03-28T14:40:13.383Z</time></trkpt><trkpt lat="40.327555" lon="8.4384333"><ele>33.0</ele><time>2026-03-28T14:40:14.383Z</time></trkpt><trkpt lat="40.32767" lon="8.4381817"><ele>29.5</ele><time>2026-03-28T14:40:15.383Z</time></trkpt><trkpt lat="40.3278133" lon="8.43793"><ele>26.0</ele><time>2026-03-28T14:40:16.383Z</time></trkpt><trkpt lat="40.32798" lon="8.4376867"><ele>30.0</ele><time>2026-03-28T14:40:17.382Z</time></trkpt><trkpt lat="40.32815" lon="8.437435"><ele>34.0</ele><time>2026-03-28T14:40:18.383Z</time></trkpt><trkpt lat="40.32832" lon="8.4371867"><ele>33.0</ele><time>2026-03-28T14:40:19.383Z</time></trkpt><trkpt lat="40.328485" lon="8.43695"><ele>32.0</ele><time>2026-03-28T14:40:20.382Z</time></trkpt><trkpt lat="40.3286367" lon="8.4367167"><ele>32.0</ele><time>2026-03-28T14:40:21.383Z</time></trkpt><trkpt lat="40.3287767" lon="8.4365033"><ele>32.0</ele><time>2026-03-28T14:40:22.382Z</time></trkpt><trkpt lat="40.3289217" lon="8.4363183"><ele>32.0</ele><time>2026-03-28T14:40:23.383Z</time></trkpt><trkpt lat="40.3290783" lon="8.43615"><ele>33.0</ele><time>2026-03-28T14:40:24.383Z</time></trkpt><trkpt lat="40.3292433" lon="8.4360383"><ele>34.0</ele><time>2026-03-28T14:40:25.383Z</time></trkpt><trkpt lat="40.329405" lon="8.43598"><ele>35.0</ele><time>2026-03-28T14:40:26.383Z</time></trkpt><trkpt lat="40.3295733" lon="8.4359767"><ele>39.0</ele><time>2026-03-28T14:40:27.383Z</time></trkpt><trkpt lat="40.3297483" lon="8.436015"><ele>43.0</ele><time>2026-03-28T14:40:28.383Z</time></trkpt><trkpt lat="40.3299133" lon="8.43609"><ele>47.0</ele><time>2026-03-28T14:40:29.382Z</time></trkpt><trkpt lat="40.3300733" lon="8.43622"><ele>45.666666666666664</ele><time>2026-03-28T14:40:30.383Z</time></trkpt><trkpt lat="40.3302317" lon="8.43638"><ele>44.333333333333336</ele><time>2026-03-28T14:40:31.383Z</time></trkpt><trkpt lat="40.3303883" lon="8.43654"><ele>43.0</ele><time>2026-03-28T14:40:32.383Z</time></trkpt><trkpt lat="40.3305467" lon="8.43669"><ele>47.333333333333336</ele><time>2026-03-28T14:40:33.383Z</time></trkpt><trkpt lat="40.3307083" lon="8.43682"><ele>51.66666666666667</ele><time>2026-03-28T14:40:34.382Z</time></trkpt><trkpt lat="40.3308817" lon="8.4368983"><ele>56.0</ele><time>2026-03-28T14:40:35.382Z</time></trkpt><trkpt lat="40.3310667" lon="8.4369317"><ele>56.0</ele><time>2026-03-28T14:40:36.383Z</time></trkpt><trkpt lat="40.3312583" lon="8.43692"><ele>56.0</ele><time>2026-03-28T14:40:37.382Z</time></trkpt><trkpt lat="40.33146" lon="8.436875"><ele>56.0</ele><time>2026-03-28T14:40:38.382Z</time></trkpt><trkpt lat="40.3316567" lon="8.4367883"><ele>59.0</ele><time>2026-03-28T14:40:39.382Z</time></trkpt><trkpt lat="40.331835" lon="8.4366617"><ele>62.0</ele><time>2026-03-28T14:40:40.383Z</time></trkpt><trkpt lat="40.332" lon="8.4365017"><ele>65.0</ele><time>2026-03-28T14:40:41.383Z</time></trkpt><trkpt lat="40.3321433" lon="8.4363133"><ele>69.33333333333334</ele><time>2026-03-28T14:40:42.382Z</time></trkpt><trkpt lat="40.3322883" lon="8.4361133"><ele>73.66666666666667</ele><time>2026-03-28T14:40:43.383Z</time></trkpt><trkpt lat="40.3324467" lon="8.4359067"><ele>78.0</ele><time>2026-03-28T14:40:44.383Z</time></trkpt><trkpt lat="40.332615" lon="8.4357083"><ele>78.0</ele><time>2026-03-28T14:40:45.383Z</time></trkpt><trkpt lat="40.332795" lon="8.435515"><ele>78.0</ele><time>2026-03-28T14:40:46.383Z</time></trkpt><trkpt lat="40.33297" lon="8.4353033"><ele>81.5</ele><time>2026-03-28T14:40:47.383Z</time></trkpt><trkpt lat="40.3331467" lon="8.4350917"><ele>85.0</ele><time>2026-03-28T14:40:48.383Z</time></trkpt><trkpt lat="40.3333217" lon="8.4348967"><ele>85.0</ele><time>2026-03-28T14:40:49.383Z</time></trkpt><trkpt lat="40.3335033" lon="8.434715"><ele>85.0</ele><time>2026-03-28T14:40:50.382Z</time></trkpt><trkpt lat="40.3337" lon="8.4345267"><ele>88.0</ele><time>2026-03-28T14:40:51.382Z</time></trkpt><trkpt lat="40.3339033" lon="8.434345"><ele>91.0</ele><time>2026-03-28T14:40:52.383Z</time></trkpt><trkpt lat="40.334085" lon="8.434185"><ele>91.0</ele><time>2026-03-28T14:40:53.382Z</time></trkpt><trkpt lat="40.33427" lon="8.4340417"><ele>91.0</ele><time>2026-03-28T14:40:54.383Z</time></trkpt><trkpt lat="40.3344433" lon="8.4339033"><ele>91.0</ele><time>2026-03-28T14:40:55.383Z</time></trkpt><trkpt lat="40.3345967" lon="8.4337533"><ele>92.33333333333333</ele><time>2026-03-28T14:40:56.383Z</time></trkpt><trkpt lat="40.3347233" lon="8.43361"><ele>93.66666666666667</ele><time>2026-03-28T14:40:57.383Z</time></trkpt><trkpt lat="40.3348217" lon="8.433445"><ele>95.0</ele><time>2026-03-28T14:40:58.383Z</time></trkpt><trkpt lat="40.3348917" lon="8.43325"><ele>95.0</ele><time>2026-03-28T14:40:59.383Z</time></trkpt><trkpt lat="40.3349233" lon="8.4329983"><ele>95.0</ele><time>2026-03-28T14:41:00.383Z</time></trkpt><trkpt lat="40.3349417" lon="8.4327467"><ele>95.0</ele><time>2026-03-28T14:41:01.383Z</time></trkpt><trkpt lat="40.3349817" lon="8.4324817"><ele>92.33333333333334</ele><time>2026-03-28T14:41:02.383Z</time></trkpt><trkpt lat="40.3350567" lon="8.4322133"><ele>89.66666666666667</ele><time>2026-03-28T14:41:03.383Z</time></trkpt><trkpt lat="40.335155" lon="8.4319467"><ele>87.0</ele><time>2026-03-28T14:41:04.383Z</time></trkpt><trkpt lat="40.3352783" lon="8.4316767"><ele>81.5</ele><time>2026-03-28T14:41:05.383Z</time></trkpt><trkpt lat="40.3353817" lon="8.4314083"><ele>76.0</ele><time>2026-03-28T14:41:06.382Z</time></trkpt><trkpt lat="40.3354867" lon="8.4311433"><ele>76.33333333333333</ele><time>2026-03-28T14:41:07.382Z</time></trkpt><trkpt lat="40.3355833" lon="8.4308983"><ele>76.66666666666667</ele><time>2026-03-28T14:41:08.383Z</time></trkpt><trkpt lat="40.3356917" lon="8.4306583"><ele>77.0</ele><time>2026-03-28T14:41:09.383Z</time></trkpt><trkpt lat="40.3358033" lon="8.4304533"><ele>77.0</ele><time>2026-03-28T14:41:10.383Z</time></trkpt><trkpt lat="40.33591" lon="8.4302783"><ele>77.0</ele><time>2026-03-28T14:41:11.383Z</time></trkpt><trkpt lat="40.336035" lon="8.4301417"><ele>77.0</ele><time>2026-03-28T14:41:12.383Z</time></trkpt><trkpt lat="40.3362" lon="8.4300333"><ele>77.0</ele><time>2026-03-28T14:41:13.383Z</time></trkpt><trkpt lat="40.336365" lon="8.4299783"><ele>77.0</ele><time>2026-03-28T14:41:14.382Z</time></trkpt><trkpt lat="40.3365617" lon="8.4299367"><ele>77.0</ele><time>2026-03-28T14:41:15.383Z</time></trkpt><trkpt lat="40.3367583" lon="8.4298883"><ele>82.66666666666667</ele><time>2026-03-28T14:41:16.383Z</time></trkpt><trkpt lat="40.3369483" lon="8.4298333"><ele>88.33333333333333</ele><time>2026-03-28T14:41:17.383Z</time></trkpt><trkpt lat="40.3371283" lon="8.4298"><ele>94.0</ele><time>2026-03-28T14:41:18.383Z</time></trkpt><trkpt lat="40.3372817" lon="8.4297667"><ele>95.33333333333333</ele><time>2026-03-28T14:41:19.382Z</time></trkpt><trkpt lat="40.33744" lon="8.4297767"><ele>96.66666666666666</ele><time>2026-03-28T14:41:20.383Z</time></trkpt><trkpt lat="40.337585" lon="8.4298233"><ele>98.0</ele><time>2026-03-28T14:41:21.383Z</time></trkpt><trkpt lat="40.337715" lon="8.4299217"><ele>98.0</ele><time>2026-03-28T14:41:22.383Z</time></trkpt><trkpt lat="40.337845" lon="8.4300333"><ele>98.0</ele><time>2026-03-28T14:41:23.382Z</time></trkpt><trkpt lat="40.337975" lon="8.4301617"><ele>98.0</ele><time>2026-03-28T14:41:24.383Z</time></trkpt><trkpt lat="40.3381033" lon="8.4303033"><ele>101.0</ele><time>2026-03-28T14:41:25.383Z</time></trkpt><trkpt lat="40.338225" lon="8.4304467"><ele>104.0</ele><time>2026-03-28T14:41:26.382Z</time></trkpt><trkpt lat="40.338345" lon="8.4306067"><ele>107.0</ele><time>2026-03-28T14:41:27.383Z</time></trkpt><trkpt lat="40.3384583" lon="8.4307617"><ele>107.0</ele><time>2026-03-28T14:41:28.383Z</time></trkpt><trkpt lat="40.33857" lon="8.430905"><ele>107.0</ele><time>2026-03-28T14:41:29.383Z</time></trkpt><trkpt lat="40.33867" lon="8.4310433"><ele>107.0</ele><time>2026-03-28T14:41:30.383Z</time></trkpt><trkpt lat="40.3387633" lon="8.43117"><ele>107.0</ele><time>2026-03-28T14:41:31.383Z</time></trkpt><trkpt lat="40.33888" lon="8.4312767"><ele>111.0</ele><time>2026-03-28T14:41:32.383Z</time></trkpt><trkpt lat="40.3389917" lon="8.4313617"><ele>115.0</ele><time>2026-03-28T14:41:33.383Z</time></trkpt><trkpt lat="40.3391283" lon="8.4314117"><ele>119.0</ele><time>2026-03-28T14:41:34.383Z</time></trkpt><trkpt lat="40.3392683" lon="8.4314217"><ele>123.0</ele><time>2026-03-28T14:41:35.383Z</time></trkpt><trkpt lat="40.339425" lon="8.4314217"><ele>123.0</ele><time>2026-03-28T14:41:36.382Z</time></trkpt><trkpt lat="40.33958" lon="8.431405"><ele>123.0</ele><time>2026-03-28T14:41:37.383Z</time></trkpt><trkpt lat="40.339735" lon="8.4313867"><ele>123.0</ele><time>2026-03-28T14:41:38.383Z</time></trkpt><trkpt lat="40.3398683" lon="8.4313217"><ele>120.5</ele><time>2026-03-28T14:41:39.383Z</time></trkpt><trkpt lat="40.33998" lon="8.4312283"><ele>118.0</ele><time>2026-03-28T14:41:40.383Z</time></trkpt><trkpt lat="40.3400717" lon="8.4311067"><ele>115.5</ele><time>2026-03-28T14:41:41.383Z</time></trkpt><trkpt lat="40.34014" lon="8.4309283"><ele>113.0</ele><time>2026-03-28T14:41:42.383Z</time></trkpt><trkpt lat="40.34018" lon="8.4307267"><ele>113.0</ele><time>2026-03-28T14:41:43.382Z</time></trkpt><trkpt lat="40.3401883" lon="8.430535"><ele>113.0</ele><time>2026-03-28T14:41:44.383Z</time></trkpt><trkpt lat="40.34016" lon="8.43034"><ele>113.0</ele><time>2026-03-28T14:41:45.382Z</time></trkpt><trkpt lat="40.3401183" lon="8.4301367"><ele>114.66666666666666</ele><time>2026-03-28T14:41:46.383Z</time></trkpt><trkpt lat="40.340075" lon="8.4299383"><ele>116.33333333333334</ele><time>2026-03-28T14:41:47.382Z</time></trkpt><trkpt lat="40.3400417" lon="8.429745"><ele>118.0</ele><time>2026-03-28T14:41:48.383Z</time></trkpt><trkpt lat="40.3400283" lon="8.4295517"><ele>118.25</ele><time>2026-03-28T14:41:49.382Z</time></trkpt><trkpt lat="40.34005" lon="8.4293633"><ele>118.5</ele><time>2026-03-28T14:41:50.383Z</time></trkpt><trkpt lat="40.3401017" lon="8.4292033"><ele>118.75</ele><time>2026-03-28T14:41:51.383Z</time></trkpt><trkpt lat="40.34018" lon="8.429075"><ele>119.0</ele><time>2026-03-28T14:41:52.383Z</time></trkpt><trkpt lat="40.3402783" lon="8.4289567"><ele>119.0</ele><time>2026-03-28T14:41:53.383Z</time></trkpt><trkpt lat="40.3403933" lon="8.4288733"><ele>119.0</ele><time>2026-03-28T14:41:54.383Z</time></trkpt><trkpt lat="40.34051" lon="8.42885"><ele>119.0</ele><time>2026-03-28T14:41:55.383Z</time></trkpt><trkpt lat="40.3406467" lon="8.42886"><ele>119.0</ele><time>2026-03-28T14:41:56.383Z</time></trkpt><trkpt lat="40.3407817" lon="8.4288917"><ele>123.5</ele><time>2026-03-28T14:41:57.383Z</time></trkpt><trkpt lat="40.3409167" lon="8.42894"><ele>128.0</ele><time>2026-03-28T14:41:58.383Z</time></trkpt><trkpt lat="40.3410483" lon="8.4290017"><ele>132.5</ele><time>2026-03-28T14:41:59.383Z</time></trkpt><trkpt lat="40.341185" lon="8.4290567"><ele>137.0</ele><time>2026-03-28T14:42:00.383Z</time></trkpt><trkpt lat="40.3413" lon="8.4290967"><ele>139.0</ele><time>2026-03-28T14:42:01.383Z</time></trkpt><trkpt lat="40.34142" lon="8.4291067"><ele>141.0</ele><time>2026-03-28T14:42:02.383Z</time></trkpt><trkpt lat="40.3415533" lon="8.429085"><ele>143.0</ele><time>2026-03-28T14:42:03.383Z</time></trkpt><trkpt lat="40.3416783" lon="8.4290233"><ele>145.0</ele><time>2026-03-28T14:42:04.383Z</time></trkpt><trkpt lat="40.3417917" lon="8.42894"><ele>145.0</ele><time>2026-03-28T14:42:05.383Z</time></trkpt><trkpt lat="40.3418817" lon="8.4288183"><ele>145.0</ele><time>2026-03-28T14:42:06.383Z</time></trkpt><trkpt lat="40.3419667" lon="8.4286783"><ele>145.0</ele><time>2026-03-28T14:42:07.383Z</time></trkpt><trkpt lat="40.3420417" lon="8.428515"><ele>145.0</ele><time>2026-03-28T14:42:08.383Z</time></trkpt><trkpt lat="40.3421317" lon="8.4283717"><ele>148.5</ele><time>2026-03-28T14:42:09.382Z</time></trkpt><trkpt lat="40.342235" lon="8.4282467"><ele>152.0</ele><time>2026-03-28T14:42:10.383Z</time></trkpt><trkpt lat="40.3423483" lon="8.42814"><ele>155.5</ele><time>2026-03-28T14:42:11.383Z</time></trkpt><trkpt lat="40.342475" lon="8.4280617"><ele>159.0</ele><time>2026-03-28T14:42:12.383Z</time></trkpt><trkpt lat="40.3426033" lon="8.4280067"><ele>158.25</ele><time>2026-03-28T14:42:13.383Z</time></trkpt><trkpt lat="40.3427283" lon="8.4279567"><ele>157.5</ele><time>2026-03-28T14:42:14.383Z</time></trkpt><trkpt lat="40.3428683" lon="8.4279083"><ele>156.75</ele><time>2026-03-28T14:42:15.382Z</time></trkpt><trkpt lat="40.3430117" lon="8.4278583"><ele>156.0</ele><time>2026-03-28T14:42:16.382Z</time></trkpt><trkpt lat="40.34319" lon="8.4278183"><ele>156.0</ele><time>2026-03-28T14:42:17.382Z</time></trkpt><trkpt lat="40.3433683" lon="8.4277567"><ele>156.0</ele><time>2026-03-28T14:42:18.383Z</time></trkpt><trkpt lat="40.3435317" lon="8.427645"><ele>156.0</ele><time>2026-03-28T14:42:19.383Z</time></trkpt><trkpt lat="40.3436717" lon="8.42748"><ele>156.0</ele><time>2026-03-28T14:42:20.383Z</time></trkpt><trkpt lat="40.3437833" lon="8.427275"><ele>156.0</ele><time>2026-03-28T14:42:21.383Z</time></trkpt><trkpt lat="40.3438717" lon="8.427015"><ele>156.0</ele><time>2026-03-28T14:42:22.383Z</time></trkpt><trkpt lat="40.343945" lon="8.42674"><ele>164.33333333333334</ele><time>2026-03-28T14:42:23.383Z</time></trkpt><trkpt lat="40.344" lon="8.4265067"><ele>172.66666666666669</ele><time>2026-03-28T14:42:24.383Z</time></trkpt><trkpt lat="40.34401" lon="8.42627"><ele>181.0</ele><time>2026-03-28T14:42:25.383Z</time></trkpt><trkpt lat="40.3439817" lon="8.4260233"><ele>185.33333333333334</ele><time>2026-03-28T14:42:26.382Z</time></trkpt><trkpt lat="40.343905" lon="8.425765"><ele>189.66666666666669</ele><time>2026-03-28T14:42:27.382Z</time></trkpt><trkpt lat="40.3438033" lon="8.42552"><ele>194.0</ele><time>2026-03-28T14:42:28.383Z</time></trkpt><trkpt lat="40.3437117" lon="8.425305"><ele>188.0</ele><time>2026-03-28T14:42:29.383Z</time></trkpt><trkpt lat="40.34364" lon="8.42506"><ele>182.0</ele><time>2026-03-28T14:42:30.383Z</time></trkpt><trkpt lat="40.34359" lon="8.4248117"><ele>176.0</ele><time>2026-03-28T14:42:31.383Z</time></trkpt><trkpt lat="40.3435717" lon="8.4245583"><ele>176.0</ele><time>2026-03-28T14:42:32.382Z</time></trkpt><trkpt lat="40.3435683" lon="8.4242967"><ele>176.0</ele><time>2026-03-28T14:42:33.382Z</time></trkpt><trkpt lat="40.3435833" lon="8.42404"><ele>176.0</ele><time>2026-03-28T14:42:34.383Z</time></trkpt><trkpt lat="40.3436267" lon="8.4238033"><ele>173.66666666666666</ele><time>2026-03-28T14:42:35.383Z</time></trkpt><trkpt lat="40.3436983" lon="8.4235783"><ele>171.33333333333334</ele><time>2026-03-28T14:42:36.383Z</time></trkpt><trkpt lat="40.3437867" lon="8.4234067"><ele>169.0</ele><time>2026-03-28T14:42:37.382Z</time></trkpt><trkpt lat="40.3439167" lon="8.423265"><ele>172.66666666666669</ele><time>2026-03-28T14:42:38.383Z</time></trkpt><trkpt lat="40.3440883" lon="8.4231483"><ele>176.33333333333334</ele><time>2026-03-28T14:42:39.382Z</time></trkpt><trkpt lat="40.344255" lon="8.4230483"><ele>180.0</ele><time>2026-03-28T14:42:40.383Z</time></trkpt><trkpt lat="40.3444233" lon="8.42295"><ele>180.0</ele><time>2026-03-28T14:42:41.382Z</time></trkpt><trkpt lat="40.3446" lon="8.4228633"><ele>180.0</ele><time>2026-03-28T14:42:42.383Z</time></trkpt><trkpt lat="40.34479" lon="8.422815"><ele>180.0</ele><time>2026-03-28T14:42:43.382Z</time></trkpt><trkpt lat="40.344965" lon="8.4228017"><ele>185.0</ele><time>2026-03-28T14:42:44.383Z</time></trkpt><trkpt lat="40.345135" lon="8.4228233"><ele>190.0</ele><time>2026-03-28T14:42:45.382Z</time></trkpt><trkpt lat="40.3452917" lon="8.4228917"><ele>195.0</ele><time>2026-03-28T14:42:46.382Z</time></trkpt><trkpt lat="40.3454233" lon="8.4230267"><ele>194.0</ele><time>2026-03-28T14:42:47.382Z</time></trkpt><trkpt lat="40.3455617" lon="8.4232133"><ele>193.0</ele><time>2026-03-28T14:42:48.383Z</time></trkpt><trkpt lat="40.3456867" lon="8.42343"><ele>192.0</ele><time>2026-03-28T14:42:49.383Z</time></trkpt><trkpt lat="40.34583" lon="8.4236517"><ele>195.0</ele><time>2026-03-28T14:42:50.383Z</time></trkpt><trkpt lat="40.3459883" lon="8.42388"><ele>198.0</ele><time>2026-03-28T14:42:51.383Z</time></trkpt><trkpt lat="40.3461667" lon="8.4241267"><ele>198.0</ele><time>2026-03-28T14:42:52.383Z</time></trkpt><trkpt lat="40.34634" lon="8.42438"><ele>198.0</ele><time>2026-03-28T14:42:53.383Z</time></trkpt><trkpt lat="40.346515" lon="8.42463"><ele>201.5</ele><time>2026-03-28T14:42:54.383Z</time></trkpt><trkpt lat="40.3466867" lon="8.4249017"><ele>205.0</ele><time>2026-03-28T14:42:55.383Z</time></trkpt><trkpt lat="40.3468617" lon="8.425175"><ele>205.0</ele><time>2026-03-28T14:42:56.383Z</time></trkpt><trkpt lat="40.34703" lon="8.42544"><ele>205.0</ele><time>2026-03-28T14:42:57.383Z</time></trkpt><trkpt lat="40.34719" lon="8.42568"><ele>208.5</ele><time>2026-03-28T14:42:58.383Z</time></trkpt><trkpt lat="40.3473467" lon="8.4259083"><ele>212.0</ele><time>2026-03-28T14:42:59.382Z</time></trkpt><trkpt lat="40.3474967" lon="8.4261533"><ele>219.0</ele><time>2026-03-28T14:43:00.383Z</time></trkpt><trkpt lat="40.347635" lon="8.4264283"><ele>226.0</ele><time>2026-03-28T14:43:01.383Z</time></trkpt><trkpt lat="40.3477783" lon="8.4266833"><ele>226.0</ele><time>2026-03-28T14:43:02.383Z</time></trkpt><trkpt lat="40.3478983" lon="8.4269333"><ele>226.0</ele><time>2026-03-28T14:43:03.383Z</time></trkpt><trkpt lat="40.3480167" lon="8.42717"><ele>226.0</ele><time>2026-03-28T14:43:04.382Z</time></trkpt><trkpt lat="40.3481217" lon="8.4273967"><ele>227.0</ele><time>2026-03-28T14:43:05.383Z</time></trkpt><trkpt lat="40.348215" lon="8.4276167"><ele>228.0</ele><time>2026-03-28T14:43:06.383Z</time></trkpt><trkpt lat="40.3482983" lon="8.4278367"><ele>229.0</ele><time>2026-03-28T14:43:07.383Z</time></trkpt><trkpt lat="40.3483817" lon="8.4280733"><ele>229.0</ele><time>2026-03-28T14:43:08.382Z</time></trkpt><trkpt lat="40.3484583" lon="8.4283217"><ele>229.0</ele><time>2026-03-28T14:43:09.383Z</time></trkpt><trkpt lat="40.34854" lon="8.4285833"><ele>229.0</ele><time>2026-03-28T14:43:10.383Z</time></trkpt><trkpt lat="40.3486033" lon="8.428845"><ele>230.0</ele><time>2026-03-28T14:43:11.383Z</time></trkpt><trkpt lat="40.348675" lon="8.4290667"><ele>231.0</ele><time>2026-03-28T14:43:12.382Z</time></trkpt><trkpt lat="40.3487783" lon="8.4292567"><ele>232.0</ele><time>2026-03-28T14:43:13.382Z</time></trkpt><trkpt lat="40.3489133" lon="8.429425"><ele>232.0</ele><time>2026-03-28T14:43:14.383Z</time></trkpt><trkpt lat="40.3490783" lon="8.4295267"><ele>232.0</ele><time>2026-03-28T14:43:15.383Z</time></trkpt><trkpt lat="40.3492517" lon="8.42958"><ele>232.0</ele><time>2026-03-28T14:43:16.383Z</time></trkpt><trkpt lat="40.3494583" lon="8.4296083"><ele>232.0</ele><time>2026-03-28T14:43:17.383Z</time></trkpt><trkpt lat="40.3496733" lon="8.4296417"><ele>232.0</ele><time>2026-03-28T14:43:18.383Z</time></trkpt><trkpt lat="40.34989" lon="8.4296817"><ele>232.0</ele><time>2026-03-28T14:43:19.383Z</time></trkpt><trkpt lat="40.3501067" lon="8.42972"><ele>239.0</ele><time>2026-03-28T14:43:20.382Z</time></trkpt><trkpt lat="40.3503217" lon="8.429775"><ele>246.0</ele><time>2026-03-28T14:43:21.382Z</time></trkpt><trkpt lat="40.35054" lon="8.42984"><ele>253.0</ele><time>2026-03-28T14:43:22.383Z</time></trkpt><trkpt lat="40.3507683" lon="8.42989"><ele>254.66666666666666</ele><time>2026-03-28T14:43:23.382Z</time></trkpt><trkpt lat="40.3509867" lon="8.4299417"><ele>256.3333333333333</ele><time>2026-03-28T14:43:24.382Z</time></trkpt><trkpt lat="40.3512033" lon="8.4299967"><ele>258.0</ele><time>2026-03-28T14:43:25.383Z</time></trkpt><trkpt lat="40.351415" lon="8.4300333"><ele>260.3333333333333</ele><time>2026-03-28T14:43:26.383Z</time></trkpt><trkpt lat="40.351635" lon="8.4300267"><ele>262.66666666666663</ele><time>2026-03-28T14:43:27.383Z</time></trkpt><trkpt lat="40.35185" lon="8.4299833"><ele>265.0</ele><time>2026-03-28T14:43:28.383Z</time></trkpt><trkpt lat="40.3520383" lon="8.4298917"><ele>265.0</ele><time>2026-03-28T14:43:29.383Z</time></trkpt><trkpt lat="40.3521967" lon="8.4297667"><ele>265.0</ele><time>2026-03-28T14:43:30.383Z</time></trkpt><trkpt lat="40.3523467" lon="8.4296067"><ele>265.0</ele><time>2026-03-28T14:43:31.383Z</time></trkpt><trkpt lat="40.3524733" lon="8.4293967"><ele>262.3333333333333</ele><time>2026-03-28T14:43:32.382Z</time></trkpt><trkpt lat="40.3525883" lon="8.4291633"><ele>259.6666666666667</ele><time>2026-03-28T14:43:33.383Z</time></trkpt><trkpt lat="40.3527033" lon="8.42891"><ele>257.0</ele><time>2026-03-28T14:43:34.382Z</time></trkpt><trkpt lat="40.3528383" lon="8.4286567"><ele>251.0</ele><time>2026-03-28T14:43:35.383Z</time></trkpt><trkpt lat="40.352975" lon="8.4283983"><ele>245.0</ele><time>2026-03-28T14:43:36.383Z</time></trkpt><trkpt lat="40.3531133" lon="8.4281283"><ele>254.5</ele><time>2026-03-28T14:43:37.383Z</time></trkpt><trkpt lat="40.35326" lon="8.427855"><ele>264.0</ele><time>2026-03-28T14:43:38.383Z</time></trkpt><trkpt lat="40.3534083" lon="8.427575"><ele>264.0</ele><time>2026-03-28T14:43:39.383Z</time></trkpt><trkpt lat="40.35355" lon="8.4272967"><ele>264.0</ele><time>2026-03-28T14:43:40.383Z</time></trkpt><trkpt lat="40.3537067" lon="8.4270183"><ele>262.5</ele><time>2026-03-28T14:43:41.383Z</time></trkpt><trkpt lat="40.3538633" lon="8.4267317"><ele>261.0</ele><time>2026-03-28T14:43:42.383Z</time></trkpt><trkpt lat="40.3540167" lon="8.4264517"><ele>267.5</ele><time>2026-03-28T14:43:43.383Z</time></trkpt><trkpt lat="40.35417" lon="8.4261683"><ele>274.0</ele><time>2026-03-28T14:43:44.383Z</time></trkpt><trkpt lat="40.354335" lon="8.4258933"><ele>274.0</ele><time>2026-03-28T14:43:45.383Z</time></trkpt><trkpt lat="40.354485" lon="8.42562"><ele>274.0</ele><time>2026-03-28T14:43:46.383Z</time></trkpt><trkpt lat="40.35464" lon="8.4253433"><ele>285.5</ele><time>2026-03-28T14:43:47.383Z</time></trkpt><trkpt lat="40.35479" lon="8.425065"><ele>297.0</ele><time>2026-03-28T14:43:48.383Z</time></trkpt><trkpt lat="40.354935" lon="8.4247967"><ele>293.5</ele><time>2026-03-28T14:43:49.383Z</time></trkpt><trkpt lat="40.355075" lon="8.4245367"><ele>290.0</ele><time>2026-03-28T14:43:50.383Z</time></trkpt><trkpt lat="40.3552217" lon="8.4242817"><ele>290.0</ele><time>2026-03-28T14:43:51.383Z</time></trkpt><trkpt lat="40.355365" lon="8.4240317"><ele>290.0</ele><time>2026-03-28T14:43:52.383Z</time></trkpt><trkpt lat="40.3554983" lon="8.4237683"><ele>295.6666666666667</ele><time>2026-03-28T14:43:53.383Z</time></trkpt><trkpt lat="40.3556333" lon="8.423525"><ele>301.3333333333333</ele><time>2026-03-28T14:43:54.383Z</time></trkpt><trkpt lat="40.3557433" lon="8.4232917"><ele>307.0</ele><time>2026-03-28T14:43:55.383Z</time></trkpt><trkpt lat="40.3558667" lon="8.423095"><ele>303.0</ele><time>2026-03-28T14:43:56.383Z</time></trkpt><trkpt lat="40.3559867" lon="8.4229067"><ele>299.0</ele><time>2026-03-28T14:43:57.382Z</time></trkpt><trkpt lat="40.3560867" lon="8.4227117"><ele>295.0</ele><time>2026-03-28T14:43:58.383Z</time></trkpt><trkpt lat="40.3561867" lon="8.4225383"><ele>295.0</ele><time>2026-03-28T14:43:59.383Z</time></trkpt><trkpt lat="40.356285" lon="8.42237"><ele>295.0</ele><time>2026-03-28T14:44:00.383Z</time></trkpt><trkpt lat="40.3563767" lon="8.4222067"><ele>295.0</ele><time>2026-03-28T14:44:01.383Z</time></trkpt><trkpt lat="40.356465" lon="8.4220517"><ele>294.5</ele><time>2026-03-28T14:44:02.383Z</time></trkpt><trkpt lat="40.3565567" lon="8.42189"><ele>294.0</ele><time>2026-03-28T14:44:03.382Z</time></trkpt><trkpt lat="40.3566483" lon="8.4217433"><ele>293.5</ele><time>2026-03-28T14:44:04.382Z</time></trkpt><trkpt lat="40.356755" lon="8.421605"><ele>293.0</ele><time>2026-03-28T14:44:05.383Z</time></trkpt><trkpt lat="40.356965" lon="8.4213933"><ele>293.0</ele><time>2026-03-28T14:44:07.383Z</time></trkpt><trkpt lat="40.3570983" lon="8.4213183"><ele>293.0</ele><time>2026-03-28T14:44:08.383Z</time></trkpt><trkpt lat="40.3572417" lon="8.4212617"><ele>293.0</ele><time>2026-03-28T14:44:09.383Z</time></trkpt><trkpt lat="40.35739" lon="8.4212367"><ele>293.0</ele><time>2026-03-28T14:44:10.382Z</time></trkpt><trkpt lat="40.35755" lon="8.42123"><ele>287.33333333333337</ele><time>2026-03-28T14:44:11.382Z</time></trkpt><trkpt lat="40.3577283" lon="8.421235"><ele>281.6666666666667</ele><time>2026-03-28T14:44:12.382Z</time></trkpt><trkpt lat="40.3578967" lon="8.4212283"><ele>276.0</ele><time>2026-03-28T14:44:13.382Z</time></trkpt><trkpt lat="40.3580683" lon="8.4211783"><ele>276.0</ele><time>2026-03-28T14:44:14.383Z</time></trkpt><trkpt lat="40.3582367" lon="8.4210933"><ele>276.0</ele><time>2026-03-28T14:44:15.383Z</time></trkpt><trkpt lat="40.3583867" lon="8.4209717"><ele>276.0</ele><time>2026-03-28T14:44:16.383Z</time></trkpt><trkpt lat="40.358515" lon="8.420815"><ele>276.0</ele><time>2026-03-28T14:44:17.382Z</time></trkpt><trkpt lat="40.35862" lon="8.4206167"><ele>276.0</ele><time>2026-03-28T14:44:18.383Z</time></trkpt><trkpt lat="40.3587217" lon="8.4204083"><ele>276.0</ele><time>2026-03-28T14:44:19.383Z</time></trkpt><trkpt lat="40.3588217" lon="8.4201717"><ele>285.0</ele><time>2026-03-28T14:44:20.383Z</time></trkpt><trkpt lat="40.35894" lon="8.4199267"><ele>294.0</ele><time>2026-03-28T14:44:21.383Z</time></trkpt><trkpt lat="40.3590617" lon="8.4196667"><ele>288.0</ele><time>2026-03-28T14:44:22.383Z</time></trkpt><trkpt lat="40.359195" lon="8.41941"><ele>282.0</ele><time>2026-03-28T14:44:23.383Z</time></trkpt><trkpt lat="40.35933" lon="8.419145"><ele>282.0</ele><time>2026-03-28T14:44:24.383Z</time></trkpt><trkpt lat="40.359465" lon="8.41887"><ele>282.0</ele><time>2026-03-28T14:44:25.383Z</time></trkpt><trkpt lat="40.3596" lon="8.418585"><ele>290.0</ele><time>2026-03-28T14:44:26.383Z</time></trkpt><trkpt lat="40.3597367" lon="8.41831"><ele>298.0</ele><time>2026-03-28T14:44:27.383Z</time></trkpt><trkpt lat="40.35987" lon="8.41802"><ele>294.0</ele><time>2026-03-28T14:44:28.383Z</time></trkpt><trkpt lat="40.3600067" lon="8.417735"><ele>290.0</ele><time>2026-03-28T14:44:29.382Z</time></trkpt><trkpt lat="40.360145" lon="8.417455"><ele>290.0</ele><time>2026-03-28T14:44:30.383Z</time></trkpt><trkpt lat="40.3602817" lon="8.4171817"><ele>290.0</ele><time>2026-03-28T14:44:31.383Z</time></trkpt><trkpt lat="40.36042" lon="8.4169167"><ele>297.0</ele><time>2026-03-28T14:44:32.383Z</time></trkpt><trkpt lat="40.3605783" lon="8.4166567"><ele>304.0</ele><time>2026-03-28T14:44:33.383Z</time></trkpt><trkpt lat="40.3607517" lon="8.4164083"><ele>295.0</ele><time>2026-03-28T14:44:34.383Z</time></trkpt><trkpt lat="40.36092" lon="8.4161683"><ele>286.0</ele><time>2026-03-28T14:44:35.383Z</time></trkpt><trkpt lat="40.3610917" lon="8.415925"><ele>286.0</ele><time>2026-03-28T14:44:36.383Z</time></trkpt><trkpt lat="40.3612617" lon="8.4156833"><ele>286.0</ele><time>2026-03-28T14:44:37.383Z</time></trkpt><trkpt lat="40.3614367" lon="8.415435"><ele>290.0</ele><time>2026-03-28T14:44:38.383Z</time></trkpt><trkpt lat="40.3616167" lon="8.41518"><ele>294.0</ele><time>2026-03-28T14:44:39.383Z</time></trkpt><trkpt lat="40.3618083" lon="8.4149217"><ele>294.0</ele><time>2026-03-28T14:44:40.383Z</time></trkpt><trkpt lat="40.3620033" lon="8.414655"><ele>294.0</ele><time>2026-03-28T14:44:41.383Z</time></trkpt><trkpt lat="40.362195" lon="8.4143933"><ele>303.0</ele><time>2026-03-28T14:44:42.383Z</time></trkpt><trkpt lat="40.3623783" lon="8.4141367"><ele>312.0</ele><time>2026-03-28T14:44:43.383Z</time></trkpt><trkpt lat="40.3625683" lon="8.4138717"><ele>305.5</ele><time>2026-03-28T14:44:44.383Z</time></trkpt><trkpt lat="40.3627667" lon="8.4136067"><ele>299.0</ele><time>2026-03-28T14:44:45.383Z</time></trkpt><trkpt lat="40.3629533" lon="8.413335"><ele>302.5</ele><time>2026-03-28T14:44:46.382Z</time></trkpt><trkpt lat="40.363145" lon="8.413075"><ele>306.0</ele><time>2026-03-28T14:44:47.382Z</time></trkpt><trkpt lat="40.3633167" lon="8.4128233"><ele>306.0</ele><time>2026-03-28T14:44:48.383Z</time></trkpt><trkpt lat="40.3634883" lon="8.4125783"><ele>306.0</ele><time>2026-03-28T14:44:49.383Z</time></trkpt><trkpt lat="40.3636583" lon="8.4123333"><ele>310.0</ele><time>2026-03-28T14:44:50.383Z</time></trkpt><trkpt lat="40.3638233" lon="8.412085"><ele>314.0</ele><time>2026-03-28T14:44:51.383Z</time></trkpt><trkpt lat="40.3639933" lon="8.4118467"><ele>314.0</ele><time>2026-03-28T14:44:52.382Z</time></trkpt><trkpt lat="40.364165" lon="8.4116117"><ele>314.0</ele><time>2026-03-28T14:44:53.383Z</time></trkpt><trkpt lat="40.3643283" lon="8.4113767"><ele>311.0</ele><time>2026-03-28T14:44:54.382Z</time></trkpt><trkpt lat="40.3644933" lon="8.4111617"><ele>308.0</ele><time>2026-03-28T14:44:55.382Z</time></trkpt><trkpt lat="40.3646533" lon="8.410955"><ele>317.0</ele><time>2026-03-28T14:44:56.383Z</time></trkpt><trkpt lat="40.3648033" lon="8.41077"><ele>326.0</ele><time>2026-03-28T14:44:57.382Z</time></trkpt><trkpt lat="40.3649517" lon="8.4106133"><ele>335.0</ele><time>2026-03-28T14:44:58.383Z</time></trkpt><trkpt lat="40.36511" lon="8.4104933"><ele>334.33333333333337</ele><time>2026-03-28T14:44:59.383Z</time></trkpt><trkpt lat="40.3652883" lon="8.410405"><ele>333.6666666666667</ele><time>2026-03-28T14:45:00.383Z</time></trkpt><trkpt lat="40.365485" lon="8.4103267"><ele>333.0</ele><time>2026-03-28T14:45:01.383Z</time></trkpt><trkpt lat="40.36568" lon="8.4102267"><ele>333.0</ele><time>2026-03-28T14:45:02.383Z</time></trkpt><trkpt lat="40.3658783" lon="8.41013"><ele>333.0</ele><time>2026-03-28T14:45:03.382Z</time></trkpt><trkpt lat="40.3660517" lon="8.4100017"><ele>333.0</ele><time>2026-03-28T14:45:04.383Z</time></trkpt><trkpt lat="40.3662083" lon="8.40986"><ele>333.0</ele><time>2026-03-28T14:45:05.383Z</time></trkpt><trkpt lat="40.3663283" lon="8.4096867"><ele>333.0</ele><time>2026-03-28T14:45:06.383Z</time></trkpt><trkpt lat="40.3664083" lon="8.4095067"><ele>333.0</ele><time>2026-03-28T14:45:07.383Z</time></trkpt><trkpt lat="40.3664517" lon="8.40929"><ele>334.6666666666667</ele><time>2026-03-28T14:45:08.383Z</time></trkpt><trkpt lat="40.3664533" lon="8.4090233"><ele>336.33333333333337</ele><time>2026-03-28T14:45:09.382Z</time></trkpt><trkpt lat="40.36644" lon="8.4087567"><ele>338.0</ele><time>2026-03-28T14:45:10.383Z</time></trkpt><trkpt lat="40.366415" lon="8.40848"><ele>341.6666666666667</ele><time>2026-03-28T14:45:11.382Z</time></trkpt><trkpt lat="40.3663867" lon="8.4082033"><ele>345.3333333333333</ele><time>2026-03-28T14:45:12.383Z</time></trkpt><trkpt lat="40.3663817" lon="8.4079467"><ele>349.0</ele><time>2026-03-28T14:45:13.383Z</time></trkpt><trkpt lat="40.3664267" lon="8.4077283"><ele>349.0</ele><time>2026-03-28T14:45:14.383Z</time></trkpt><trkpt lat="40.36652" lon="8.4075283"><ele>349.0</ele><time>2026-03-28T14:45:15.383Z</time></trkpt><trkpt lat="40.3666367" lon="8.4073333"><ele>349.0</ele><time>2026-03-28T14:45:16.383Z</time></trkpt><trkpt lat="40.3667617" lon="8.40714"><ele>345.66666666666663</ele><time>2026-03-28T14:45:17.382Z</time></trkpt><trkpt lat="40.3669" lon="8.4069433"><ele>342.3333333333333</ele><time>2026-03-28T14:45:18.382Z</time></trkpt><trkpt lat="40.3670333" lon="8.40674"><ele>339.0</ele><time>2026-03-28T14:45:19.382Z</time></trkpt><trkpt lat="40.36717" lon="8.40654"><ele>345.6666666666667</ele><time>2026-03-28T14:45:20.383Z</time></trkpt><trkpt lat="40.36729" lon="8.4063367"><ele>352.33333333333337</ele><time>2026-03-28T14:45:21.383Z</time></trkpt><trkpt lat="40.3673833" lon="8.40616"><ele>359.0</ele><time>2026-03-28T14:45:22.383Z</time></trkpt><trkpt lat="40.3674417" lon="8.4059667"><ele>359.0</ele><time>2026-03-28T14:45:23.382Z</time></trkpt><trkpt lat="40.36745" lon="8.40577"><ele>359.0</ele><time>2026-03-28T14:45:24.382Z</time></trkpt><trkpt lat="40.3674133" lon="8.4055767"><ele>359.0</ele><time>2026-03-28T14:45:25.383Z</time></trkpt><trkpt lat="40.3673267" lon="8.40539"><ele>359.0</ele><time>2026-03-28T14:45:26.383Z</time></trkpt><trkpt lat="40.3672133" lon="8.4052283"><ele>359.0</ele><time>2026-03-28T14:45:27.382Z</time></trkpt><trkpt lat="40.3670683" lon="8.4051"><ele>359.0</ele><time>2026-03-28T14:45:28.383Z</time></trkpt><trkpt lat="40.3669017" lon="8.4049917"><ele>359.0</ele><time>2026-03-28T14:45:29.382Z</time></trkpt><trkpt lat="40.3667233" lon="8.4048733"><ele>359.0</ele><time>2026-03-28T14:45:30.383Z</time></trkpt><trkpt lat="40.36657" lon="8.4047117"><ele>359.0</ele><time>2026-03-28T14:45:31.383Z</time></trkpt><trkpt lat="40.3664217" lon="8.40452"><ele>360.33333333333337</ele><time>2026-03-28T14:45:32.383Z</time></trkpt><trkpt lat="40.36628" lon="8.4043233"><ele>361.6666666666667</ele><time>2026-03-28T14:45:33.383Z</time></trkpt><trkpt lat="40.366135" lon="8.40414"><ele>363.0</ele><time>2026-03-28T14:45:34.383Z</time></trkpt><trkpt lat="40.3659817" lon="8.4039733"><ele>363.0</ele><time>2026-03-28T14:45:35.383Z</time></trkpt><trkpt lat="40.3658117" lon="8.40384"><ele>363.0</ele><time>2026-03-28T14:45:36.383Z</time></trkpt><trkpt lat="40.365615" lon="8.4037267"><ele>363.0</ele><time>2026-03-28T14:45:37.383Z</time></trkpt><trkpt lat="40.3654083" lon="8.40364"><ele>364.6666666666667</ele><time>2026-03-28T14:45:38.383Z</time></trkpt><trkpt lat="40.3652117" lon="8.4035617"><ele>366.33333333333337</ele><time>2026-03-28T14:45:39.383Z</time></trkpt><trkpt lat="40.3650367" lon="8.40347"><ele>368.0</ele><time>2026-03-28T14:45:40.383Z</time></trkpt><trkpt lat="40.364885" lon="8.40337"><ele>368.0</ele><time>2026-03-28T14:45:41.383Z</time></trkpt><trkpt lat="40.36476" lon="8.40324"><ele>368.0</ele><time>2026-03-28T14:45:42.383Z</time></trkpt><trkpt lat="40.3646833" lon="8.40308"><ele>368.0</ele><time>2026-03-28T14:45:43.383Z</time></trkpt><trkpt lat="40.36465" lon="8.4028817"><ele>368.6666666666667</ele><time>2026-03-28T14:45:44.382Z</time></trkpt><trkpt lat="40.3646683" lon="8.4026617"><ele>369.3333333333333</ele><time>2026-03-28T14:45:45.383Z</time></trkpt><trkpt lat="40.3647333" lon="8.4024517"><ele>370.0</ele><time>2026-03-28T14:45:46.383Z</time></trkpt><trkpt lat="40.3648333" lon="8.4022667"><ele>361.66666666666663</ele><time>2026-03-28T14:45:47.382Z</time></trkpt><trkpt lat="40.3649633" lon="8.4021067"><ele>353.3333333333333</ele><time>2026-03-28T14:45:48.383Z</time></trkpt><trkpt lat="40.3651267" lon="8.40203"><ele>345.0</ele><time>2026-03-28T14:45:49.383Z</time></trkpt><trkpt lat="40.3653117" lon="8.401995"><ele>345.0</ele><time>2026-03-28T14:45:50.383Z</time></trkpt><trkpt lat="40.3655083" lon="8.4019833"><ele>345.0</ele><time>2026-03-28T14:45:51.383Z</time></trkpt><trkpt lat="40.3657067" lon="8.401975"><ele>345.0</ele><time>2026-03-28T14:45:52.383Z</time></trkpt><trkpt lat="40.365885" lon="8.40193"><ele>348.3333333333333</ele><time>2026-03-28T14:45:53.383Z</time></trkpt><trkpt lat="40.36604" lon="8.4018267"><ele>351.66666666666663</ele><time>2026-03-28T14:45:54.383Z</time></trkpt><trkpt lat="40.36618" lon="8.4016567"><ele>355.0</ele><time>2026-03-28T14:45:55.383Z</time></trkpt><trkpt lat="40.3663017" lon="8.4014967"><ele>352.0</ele><time>2026-03-28T14:45:56.382Z</time></trkpt><trkpt lat="40.3664383" lon="8.4013517"><ele>349.0</ele><time>2026-03-28T14:45:57.383Z</time></trkpt><trkpt lat="40.3665967" lon="8.401275"><ele>346.0</ele><time>2026-03-28T14:45:58.382Z</time></trkpt><trkpt lat="40.3667717" lon="8.4012517"><ele>346.0</ele><time>2026-03-28T14:45:59.383Z</time></trkpt><trkpt lat="40.3669583" lon="8.4012967"><ele>346.0</ele><time>2026-03-28T14:46:00.383Z</time></trkpt><trkpt lat="40.3671283" lon="8.4013833"><ele>346.0</ele><time>2026-03-28T14:46:01.383Z</time></trkpt><trkpt lat="40.3673033" lon="8.4014867"><ele>353.0</ele><time>2026-03-28T14:46:02.383Z</time></trkpt><trkpt lat="40.367485" lon="8.401585"><ele>360.0</ele><time>2026-03-28T14:46:03.382Z</time></trkpt><trkpt lat="40.36769" lon="8.40166"><ele>367.0</ele><time>2026-03-28T14:46:04.383Z</time></trkpt><trkpt lat="40.3679117" lon="8.4017167"><ele>366.0</ele><time>2026-03-28T14:46:05.383Z</time></trkpt><trkpt lat="40.3681433" lon="8.40173"><ele>365.0</ele><time>2026-03-28T14:46:06.383Z</time></trkpt><trkpt lat="40.368385" lon="8.4017133"><ele>365.0</ele><time>2026-03-28T14:46:07.382Z</time></trkpt><trkpt lat="40.3686267" lon="8.4016967"><ele>365.0</ele><time>2026-03-28T14:46:08.383Z</time></trkpt><trkpt lat="40.3688667" lon="8.40168"><ele>365.0</ele><time>2026-03-28T14:46:09.383Z</time></trkpt><trkpt lat="40.3691117" lon="8.401685"><ele>365.0</ele><time>2026-03-28T14:46:10.383Z</time></trkpt><trkpt lat="40.3693617" lon="8.4017017"><ele>365.0</ele><time>2026-03-28T14:46:11.382Z</time></trkpt><trkpt lat="40.369615" lon="8.4017267"><ele>365.0</ele><time>2026-03-28T14:46:12.383Z</time></trkpt><trkpt lat="40.3698683" lon="8.401755"><ele>362.0</ele><time>2026-03-28T14:46:13.383Z</time></trkpt><trkpt lat="40.37013" lon="8.401785"><ele>359.0</ele><time>2026-03-28T14:46:14.383Z</time></trkpt><trkpt lat="40.3703933" lon="8.4018183"><ele>359.0</ele><time>2026-03-28T14:46:15.383Z</time></trkpt><trkpt lat="40.3706483" lon="8.40183"><ele>359.0</ele><time>2026-03-28T14:46:16.383Z</time></trkpt><trkpt lat="40.3708967" lon="8.40186"><ele>359.0</ele><time>2026-03-28T14:46:17.383Z</time></trkpt><trkpt lat="40.3711367" lon="8.4018917"><ele>359.0</ele><time>2026-03-28T14:46:18.382Z</time></trkpt><trkpt lat="40.3713667" lon="8.4019217"><ele>357.0</ele><time>2026-03-28T14:46:19.383Z</time></trkpt><trkpt lat="40.3715917" lon="8.4019467"><ele>355.0</ele><time>2026-03-28T14:46:20.383Z</time></trkpt><trkpt lat="40.3718167" lon="8.401965"><ele>355.0</ele><time>2026-03-28T14:46:21.383Z</time></trkpt><trkpt lat="40.3720367" lon="8.40199"><ele>355.0</ele><time>2026-03-28T14:46:22.382Z</time></trkpt><trkpt lat="40.37224" lon="8.402015"><ele>355.0</ele><time>2026-03-28T14:46:23.383Z</time></trkpt><trkpt lat="40.372425" lon="8.402055"><ele>357.3333333333333</ele><time>2026-03-28T14:46:24.383Z</time></trkpt><trkpt lat="40.3725833" lon="8.402105"><ele>359.6666666666667</ele><time>2026-03-28T14:46:25.383Z</time></trkpt><trkpt lat="40.3727167" lon="8.4021867"><ele>362.0</ele><time>2026-03-28T14:46:26.383Z</time></trkpt><trkpt lat="40.3728117" lon="8.402335"><ele>366.0</ele><time>2026-03-28T14:46:27.383Z</time></trkpt><trkpt lat="40.3728767" lon="8.4025217"><ele>370.0</ele><time>2026-03-28T14:46:28.383Z</time></trkpt><trkpt lat="40.3729167" lon="8.4027267"><ele>374.0</ele><time>2026-03-28T14:46:29.383Z</time></trkpt><trkpt lat="40.3729533" lon="8.4029517"><ele>377.0</ele><time>2026-03-28T14:46:30.383Z</time></trkpt><trkpt lat="40.3729767" lon="8.4031933"><ele>380.0</ele><time>2026-03-28T14:46:31.383Z</time></trkpt><trkpt lat="40.3729933" lon="8.4034283"><ele>383.0</ele><time>2026-03-28T14:46:32.383Z</time></trkpt><trkpt lat="40.3729933" lon="8.4036517"><ele>383.33333333333337</ele><time>2026-03-28T14:46:33.383Z</time></trkpt><trkpt lat="40.3729817" lon="8.4038717"><ele>383.6666666666667</ele><time>2026-03-28T14:46:34.383Z</time></trkpt><trkpt lat="40.3729567" lon="8.4040783"><ele>384.0</ele><time>2026-03-28T14:46:35.383Z</time></trkpt><trkpt lat="40.3729567" lon="8.40428"><ele>384.0</ele><time>2026-03-28T14:46:36.382Z</time></trkpt><trkpt lat="40.37297" lon="8.4044867"><ele>384.0</ele><time>2026-03-28T14:46:37.383Z</time></trkpt><trkpt lat="40.3730083" lon="8.4046683"><ele>384.0</ele><time>2026-03-28T14:46:38.383Z</time></trkpt><trkpt lat="40.373085" lon="8.4048167"><ele>384.0</ele><time>2026-03-28T14:46:39.383Z</time></trkpt><trkpt lat="40.3731867" lon="8.4049583"><ele>378.3333333333333</ele><time>2026-03-28T14:46:40.382Z</time></trkpt><trkpt lat="40.373325" lon="8.4050667"><ele>372.66666666666663</ele><time>2026-03-28T14:46:41.383Z</time></trkpt><trkpt lat="40.3734783" lon="8.4051417"><ele>367.0</ele><time>2026-03-28T14:46:42.383Z</time></trkpt><trkpt lat="40.3736417" lon="8.4051717"><ele>367.0</ele><time>2026-03-28T14:46:43.382Z</time></trkpt><trkpt lat="40.3738017" lon="8.4051883"><ele>367.0</ele><time>2026-03-28T14:46:44.383Z</time></trkpt><trkpt lat="40.3739517" lon="8.40521"><ele>367.0</ele><time>2026-03-28T14:46:45.382Z</time></trkpt><trkpt lat="40.3740983" lon="8.4052317"><ele>363.0</ele><time>2026-03-28T14:46:46.383Z</time></trkpt><trkpt lat="40.3742333" lon="8.405265"><ele>359.0</ele><time>2026-03-28T14:46:47.383Z</time></trkpt><trkpt lat="40.374395" lon="8.4052967"><ele>355.0</ele><time>2026-03-28T14:46:48.382Z</time></trkpt><trkpt lat="40.3745517" lon="8.4053383"><ele>353.66666666666663</ele><time>2026-03-28T14:46:49.383Z</time></trkpt><trkpt lat="40.37471" lon="8.4053683"><ele>352.3333333333333</ele><time>2026-03-28T14:46:50.383Z</time></trkpt><trkpt lat="40.3748717" lon="8.405365"><ele>351.0</ele><time>2026-03-28T14:46:51.383Z</time></trkpt><trkpt lat="40.3750033" lon="8.4053467"><ele>351.0</ele><time>2026-03-28T14:46:52.383Z</time></trkpt><trkpt lat="40.3750983" lon="8.4053233"><ele>351.0</ele><time>2026-03-28T14:46:53.383Z</time></trkpt><trkpt lat="40.375165" lon="8.4053083"><ele>351.0</ele><time>2026-03-28T14:46:54.383Z</time></trkpt><trkpt lat="40.3752367" lon="8.4052683"><ele>351.0</ele><time>2026-03-28T14:46:56.383Z</time></trkpt><trkpt lat="40.3752267" lon="8.4051467"><ele>351.0</ele><time>2026-03-28T14:50:12.383Z</time></trkpt><trkpt lat="40.37525" lon="8.40505"><ele>351.0</ele><time>2026-03-28T14:50:13.383Z</time></trkpt><trkpt lat="40.3752883" lon="8.4049267"><ele>351.0</ele><time>2026-03-28T14:50:14.383Z</time></trkpt><trkpt lat="40.3753367" lon="8.404775"><ele>351.0</ele><time>2026-03-28T14:50:15.383Z</time></trkpt><trkpt lat="40.3754067" lon="8.4046033"><ele>351.0</ele><time>2026-03-28T14:50:16.383Z</time></trkpt><trkpt lat="40.375485" lon="8.4044467"><ele>351.0</ele><time>2026-03-28T14:50:17.382Z</time></trkpt><trkpt lat="40.3755767" lon="8.40433"><ele>350.5</ele><time>2026-03-28T14:50:18.383Z</time></trkpt><trkpt lat="40.3756817" lon="8.4042317"><ele>350.0</ele><time>2026-03-28T14:50:19.383Z</time></trkpt><trkpt lat="40.3758033" lon="8.4041483"><ele>349.5</ele><time>2026-03-28T14:50:20.383Z</time></trkpt><trkpt lat="40.37594" lon="8.4041083"><ele>349.0</ele><time>2026-03-28T14:50:21.383Z</time></trkpt><trkpt lat="40.3760867" lon="8.404095"><ele>349.0</ele><time>2026-03-28T14:50:22.383Z</time></trkpt><trkpt lat="40.3762567" lon="8.4040933"><ele>349.0</ele><time>2026-03-28T14:50:23.383Z</time></trkpt><trkpt lat="40.376435" lon="8.4041017"><ele>349.0</ele><time>2026-03-28T14:50:24.382Z</time></trkpt><trkpt lat="40.37661" lon="8.4041117"><ele>348.3333333333333</ele><time>2026-03-28T14:50:25.383Z</time></trkpt><trkpt lat="40.3767967" lon="8.40412"><ele>347.6666666666667</ele><time>2026-03-28T14:50:26.383Z</time></trkpt><trkpt lat="40.37698" lon="8.40412"><ele>347.0</ele><time>2026-03-28T14:50:27.383Z</time></trkpt><trkpt lat="40.3771533" lon="8.4041267"><ele>346.0</ele><time>2026-03-28T14:50:28.382Z</time></trkpt><trkpt lat="40.37732" lon="8.4041417"><ele>345.0</ele><time>2026-03-28T14:50:29.383Z</time></trkpt><trkpt lat="40.3774633" lon="8.4042017"><ele>344.0</ele><time>2026-03-28T14:50:30.383Z</time></trkpt><trkpt lat="40.3776" lon="8.4042967"><ele>344.0</ele><time>2026-03-28T14:50:31.383Z</time></trkpt><trkpt lat="40.377715" lon="8.404425"><ele>344.0</ele><time>2026-03-28T14:50:32.383Z</time></trkpt><trkpt lat="40.3778167" lon="8.4045867"><ele>344.0</ele><time>2026-03-28T14:50:33.383Z</time></trkpt><trkpt lat="40.377885" lon="8.4047917"><ele>345.33333333333337</ele><time>2026-03-28T14:50:34.383Z</time></trkpt><trkpt lat="40.377935" lon="8.4050067"><ele>346.6666666666667</ele><time>2026-03-28T14:50:35.383Z</time></trkpt><trkpt lat="40.3779767" lon="8.4052383"><ele>348.0</ele><time>2026-03-28T14:50:36.382Z</time></trkpt><trkpt lat="40.3780183" lon="8.4054617"><ele>338.6666666666667</ele><time>2026-03-28T14:50:37.383Z</time></trkpt><trkpt lat="40.37808" lon="8.40568"><ele>329.33333333333337</ele><time>2026-03-28T14:50:38.383Z</time></trkpt><trkpt lat="40.37816" lon="8.4058867"><ele>320.0</ele><time>2026-03-28T14:50:39.383Z</time></trkpt><trkpt lat="40.3782633" lon="8.4060567"><ele>320.0</ele><time>2026-03-28T14:50:40.382Z</time></trkpt><trkpt lat="40.3783767" lon="8.4061817"><ele>320.0</ele><time>2026-03-28T14:50:41.383Z</time></trkpt><trkpt lat="40.378525" lon="8.4062683"><ele>320.0</ele><time>2026-03-28T14:50:42.383Z</time></trkpt><trkpt lat="40.3786917" lon="8.4063183"><ele>318.6666666666667</ele><time>2026-03-28T14:50:43.383Z</time></trkpt><trkpt lat="40.3788617" lon="8.4063533"><ele>317.3333333333333</ele><time>2026-03-28T14:50:44.383Z</time></trkpt><trkpt lat="40.3790333" lon="8.4064033"><ele>316.0</ele><time>2026-03-28T14:50:45.383Z</time></trkpt><trkpt lat="40.3791733" lon="8.4064967"><ele>316.0</ele><time>2026-03-28T14:50:46.383Z</time></trkpt><trkpt lat="40.3793133" lon="8.406635"><ele>316.0</ele><time>2026-03-28T14:50:47.383Z</time></trkpt><trkpt lat="40.3794383" lon="8.4068217"><ele>316.0</ele><time>2026-03-28T14:50:48.383Z</time></trkpt><trkpt lat="40.3795717" lon="8.4070133"><ele>313.0</ele><time>2026-03-28T14:50:49.383Z</time></trkpt><trkpt lat="40.379695" lon="8.407205"><ele>310.0</ele><time>2026-03-28T14:50:50.383Z</time></trkpt><trkpt lat="40.379805" lon="8.40738"><ele>307.0</ele><time>2026-03-28T14:50:51.382Z</time></trkpt><trkpt lat="40.3799333" lon="8.4075133"><ele>307.0</ele><time>2026-03-28T14:50:52.383Z</time></trkpt><trkpt lat="40.38008" lon="8.4075933"><ele>307.0</ele><time>2026-03-28T14:50:53.382Z</time></trkpt><trkpt lat="40.3802367" lon="8.4076217"><ele>307.0</ele><time>2026-03-28T14:50:54.383Z</time></trkpt><trkpt lat="40.3803967" lon="8.407585"><ele>307.66666666666663</ele><time>2026-03-28T14:50:55.383Z</time></trkpt><trkpt lat="40.38056" lon="8.4075"><ele>308.3333333333333</ele><time>2026-03-28T14:50:56.382Z</time></trkpt><trkpt lat="40.3807" lon="8.40737"><ele>309.0</ele><time>2026-03-28T14:50:57.383Z</time></trkpt><trkpt lat="40.38082" lon="8.407205"><ele>302.3333333333333</ele><time>2026-03-28T14:50:58.383Z</time></trkpt><trkpt lat="40.3809117" lon="8.407015"><ele>295.66666666666663</ele><time>2026-03-28T14:50:59.383Z</time></trkpt><trkpt lat="40.3809917" lon="8.406785"><ele>289.0</ele><time>2026-03-28T14:51:00.383Z</time></trkpt><trkpt lat="40.3810767" lon="8.4065283"><ele>293.66666666666663</ele><time>2026-03-28T14:51:01.383Z</time></trkpt><trkpt lat="40.3811733" lon="8.406265"><ele>298.3333333333333</ele><time>2026-03-28T14:51:02.383Z</time></trkpt><trkpt lat="40.3812717" lon="8.40601"><ele>303.0</ele><time>2026-03-28T14:51:03.382Z</time></trkpt><trkpt lat="40.3813817" lon="8.4057467"><ele>303.0</ele><time>2026-03-28T14:51:04.383Z</time></trkpt><trkpt lat="40.3815117" lon="8.4054967"><ele>303.0</ele><time>2026-03-28T14:51:05.383Z</time></trkpt><trkpt lat="40.3816433" lon="8.4052483"><ele>292.0</ele><time>2026-03-28T14:51:06.383Z</time></trkpt><trkpt lat="40.38177" lon="8.4049983"><ele>281.0</ele><time>2026-03-28T14:51:07.383Z</time></trkpt><trkpt lat="40.3818933" lon="8.40474"><ele>280.6666666666667</ele><time>2026-03-28T14:51:08.382Z</time></trkpt><trkpt lat="40.3820217" lon="8.4045083"><ele>280.3333333333333</ele><time>2026-03-28T14:51:09.382Z</time></trkpt><trkpt lat="40.3821417" lon="8.4042583"><ele>280.0</ele><time>2026-03-28T14:51:10.383Z</time></trkpt><trkpt lat="40.3822633" lon="8.404035"><ele>280.0</ele><time>2026-03-28T14:51:11.382Z</time></trkpt><trkpt lat="40.3823833" lon="8.403855"><ele>280.0</ele><time>2026-03-28T14:51:12.382Z</time></trkpt><trkpt lat="40.3825133" lon="8.4037217"><ele>280.0</ele><time>2026-03-28T14:51:13.382Z</time></trkpt><trkpt lat="40.38265" lon="8.4036367"><ele>274.0</ele><time>2026-03-28T14:51:14.382Z</time></trkpt><trkpt lat="40.38279" lon="8.4035983"><ele>268.0</ele><time>2026-03-28T14:51:15.383Z</time></trkpt><trkpt lat="40.3829417" lon="8.4036217"><ele>262.0</ele><time>2026-03-28T14:51:16.383Z</time></trkpt><trkpt lat="40.3830817" lon="8.40369"><ele>256.0</ele><time>2026-03-28T14:51:17.383Z</time></trkpt><trkpt lat="40.3832167" lon="8.4038017"><ele>258.66666666666663</ele><time>2026-03-28T14:51:18.383Z</time></trkpt><trkpt lat="40.3833333" lon="8.4039417"><ele>261.3333333333333</ele><time>2026-03-28T14:51:19.383Z</time></trkpt><trkpt lat="40.38343" lon="8.404115"><ele>264.0</ele><time>2026-03-28T14:51:20.383Z</time></trkpt><trkpt lat="40.3835283" lon="8.4043033"><ele>264.0</ele><time>2026-03-28T14:51:21.383Z</time></trkpt><trkpt lat="40.38364" lon="8.404455"><ele>264.0</ele><time>2026-03-28T14:51:22.383Z</time></trkpt><trkpt lat="40.3837817" lon="8.4045467"><ele>264.0</ele><time>2026-03-28T14:51:23.382Z</time></trkpt><trkpt lat="40.3839483" lon="8.4045783"><ele>259.6666666666667</ele><time>2026-03-28T14:51:24.383Z</time></trkpt><trkpt lat="40.3841167" lon="8.40456"><ele>255.33333333333334</ele><time>2026-03-28T14:51:25.382Z</time></trkpt><trkpt lat="40.38429" lon="8.4044867"><ele>251.0</ele><time>2026-03-28T14:51:26.383Z</time></trkpt><trkpt lat="40.3844417" lon="8.4043517"><ele>251.0</ele><time>2026-03-28T14:51:27.383Z</time></trkpt><trkpt lat="40.384555" lon="8.4041817"><ele>251.0</ele><time>2026-03-28T14:51:28.383Z</time></trkpt><trkpt lat="40.38464" lon="8.404"><ele>251.0</ele><time>2026-03-28T14:51:29.383Z</time></trkpt><trkpt lat="40.384725" lon="8.40378"><ele>249.33333333333334</ele><time>2026-03-28T14:51:30.382Z</time></trkpt><trkpt lat="40.3848" lon="8.40357"><ele>247.66666666666669</ele><time>2026-03-28T14:51:31.383Z</time></trkpt><trkpt lat="40.3848883" lon="8.403375"><ele>246.0</ele><time>2026-03-28T14:51:32.383Z</time></trkpt><trkpt lat="40.3849667" lon="8.403205"><ele>246.0</ele><time>2026-03-28T14:51:33.383Z</time></trkpt><trkpt lat="40.385065" lon="8.4030567"><ele>246.0</ele><time>2026-03-28T14:51:34.382Z</time></trkpt><trkpt lat="40.3852067" lon="8.40296"><ele>246.0</ele><time>2026-03-28T14:51:35.382Z</time></trkpt><trkpt lat="40.3853683" lon="8.40291"><ele>239.0</ele><time>2026-03-28T14:51:36.382Z</time></trkpt><trkpt lat="40.385575" lon="8.4028967"><ele>232.0</ele><time>2026-03-28T14:51:37.383Z</time></trkpt><trkpt lat="40.3857983" lon="8.4028817"><ele>225.0</ele><time>2026-03-28T14:51:38.383Z</time></trkpt><trkpt lat="40.3860267" lon="8.4028533"><ele>225.0</ele><time>2026-03-28T14:51:39.383Z</time></trkpt><trkpt lat="40.386275" lon="8.4028283"><ele>225.0</ele><time>2026-03-28T14:51:40.383Z</time></trkpt><trkpt lat="40.386555" lon="8.4028067"><ele>219.5</ele><time>2026-03-28T14:51:41.382Z</time></trkpt><trkpt lat="40.38684" lon="8.4027967"><ele>214.0</ele><time>2026-03-28T14:51:42.383Z</time></trkpt><trkpt lat="40.38714" lon="8.4027883"><ele>215.0</ele><time>2026-03-28T14:51:43.383Z</time></trkpt><trkpt lat="40.38744" lon="8.4027817"><ele>216.0</ele><time>2026-03-28T14:51:44.383Z</time></trkpt><trkpt lat="40.3877517" lon="8.4027833"><ele>213.5</ele><time>2026-03-28T14:51:45.383Z</time></trkpt><trkpt lat="40.3880633" lon="8.4027817"><ele>211.0</ele><time>2026-03-28T14:51:46.383Z</time></trkpt><trkpt lat="40.38837" lon="8.4027967"><ele>211.0</ele><time>2026-03-28T14:51:47.383Z</time></trkpt><trkpt lat="40.38866" lon="8.4028117"><ele>211.0</ele><time>2026-03-28T14:51:48.383Z</time></trkpt><trkpt lat="40.3889283" lon="8.40281"><ele>211.0</ele><time>2026-03-28T14:51:49.383Z</time></trkpt><trkpt lat="40.389165" lon="8.402815"><ele>211.0</ele><time>2026-03-28T14:51:50.383Z</time></trkpt><trkpt lat="40.389365" lon="8.4028367"><ele>211.0</ele><time>2026-03-28T14:51:51.383Z</time></trkpt><trkpt lat="40.389535" lon="8.4028667"><ele>211.33333333333331</ele><time>2026-03-28T14:51:52.383Z</time></trkpt><trkpt lat="40.38969" lon="8.4029767"><ele>211.66666666666669</ele><time>2026-03-28T14:51:53.383Z</time></trkpt><trkpt lat="40.3898233" lon="8.4031"><ele>212.0</ele><time>2026-03-28T14:51:54.382Z</time></trkpt><trkpt lat="40.3899217" lon="8.4032483"><ele>216.66666666666669</ele><time>2026-03-28T14:51:55.382Z</time></trkpt><trkpt lat="40.38996" lon="8.4034367"><ele>221.33333333333331</ele><time>2026-03-28T14:51:56.383Z</time></trkpt><trkpt lat="40.389955" lon="8.4036433"><ele>226.0</ele><time>2026-03-28T14:51:57.382Z</time></trkpt><trkpt lat="40.3899483" lon="8.4038617"><ele>227.0</ele><time>2026-03-28T14:51:58.382Z</time></trkpt><trkpt lat="40.3899233" lon="8.404085"><ele>228.0</ele><time>2026-03-28T14:51:59.383Z</time></trkpt><trkpt lat="40.389935" lon="8.40431"><ele>229.0</ele><time>2026-03-28T14:52:00.382Z</time></trkpt><trkpt lat="40.38999" lon="8.4045383"><ele>231.33333333333331</ele><time>2026-03-28T14:52:01.383Z</time></trkpt><trkpt lat="40.39008" lon="8.40473"><ele>233.66666666666669</ele><time>2026-03-28T14:52:02.383Z</time></trkpt><trkpt lat="40.3901783" lon="8.4048917"><ele>236.0</ele><time>2026-03-28T14:52:03.383Z</time></trkpt><trkpt lat="40.3903167" lon="8.4049967"><ele>236.0</ele><time>2026-03-28T14:52:04.383Z</time></trkpt><trkpt lat="40.390475" lon="8.4050583"><ele>236.0</ele><time>2026-03-28T14:52:05.383Z</time></trkpt><trkpt lat="40.39064" lon="8.405075"><ele>236.0</ele><time>2026-03-28T14:52:06.383Z</time></trkpt><trkpt lat="40.3908283" lon="8.405035"><ele>235.0</ele><time>2026-03-28T14:52:07.382Z</time></trkpt><trkpt lat="40.3909883" lon="8.4049383"><ele>234.0</ele><time>2026-03-28T14:52:08.383Z</time></trkpt><trkpt lat="40.391115" lon="8.4047983"><ele>233.0</ele><time>2026-03-28T14:52:09.382Z</time></trkpt><trkpt lat="40.39123" lon="8.404645"><ele>226.0</ele><time>2026-03-28T14:52:10.382Z</time></trkpt><trkpt lat="40.3913517" lon="8.404505"><ele>219.0</ele><time>2026-03-28T14:52:11.383Z</time></trkpt><trkpt lat="40.3914917" lon="8.40443"><ele>212.0</ele><time>2026-03-28T14:52:12.383Z</time></trkpt><trkpt lat="40.3916633" lon="8.404425"><ele>212.0</ele><time>2026-03-28T14:52:13.382Z</time></trkpt><trkpt lat="40.3918483" lon="8.404475"><ele>212.0</ele><time>2026-03-28T14:52:14.383Z</time></trkpt><trkpt lat="40.3920317" lon="8.404565"><ele>212.0</ele><time>2026-03-28T14:52:15.383Z</time></trkpt><trkpt lat="40.3922383" lon="8.4046583"><ele>223.5</ele><time>2026-03-28T14:52:16.383Z</time></trkpt><trkpt lat="40.392475" lon="8.4047467"><ele>235.0</ele><time>2026-03-28T14:52:17.382Z</time></trkpt><trkpt lat="40.39269" lon="8.4048367"><ele>235.0</ele><time>2026-03-28T14:52:18.383Z</time></trkpt><trkpt lat="40.3929133" lon="8.4049083"><ele>235.0</ele><time>2026-03-28T14:52:19.383Z</time></trkpt><trkpt lat="40.3931467" lon="8.4049467"><ele>229.0</ele><time>2026-03-28T14:52:20.383Z</time></trkpt><trkpt lat="40.3933867" lon="8.40495"><ele>223.0</ele><time>2026-03-28T14:52:21.383Z</time></trkpt><trkpt lat="40.3936267" lon="8.4049367"><ele>222.5</ele><time>2026-03-28T14:52:22.383Z</time></trkpt><trkpt lat="40.39387" lon="8.4049083"><ele>222.0</ele><time>2026-03-28T14:52:23.382Z</time></trkpt><trkpt lat="40.3941233" lon="8.4048917"><ele>222.0</ele><time>2026-03-28T14:52:24.383Z</time></trkpt><trkpt lat="40.3943717" lon="8.404875"><ele>222.0</ele><time>2026-03-28T14:52:25.383Z</time></trkpt><trkpt lat="40.3946267" lon="8.4048767"><ele>221.5</ele><time>2026-03-28T14:52:26.383Z</time></trkpt><trkpt lat="40.3948767" lon="8.4048633"><ele>221.0</ele><time>2026-03-28T14:52:27.382Z</time></trkpt><trkpt lat="40.3951117" lon="8.40486"><ele>221.0</ele><time>2026-03-28T14:52:28.383Z</time></trkpt><trkpt lat="40.3953167" lon="8.40487"><ele>221.0</ele><time>2026-03-28T14:52:29.383Z</time></trkpt><trkpt lat="40.3955117" lon="8.4049067"><ele>221.0</ele><time>2026-03-28T14:52:30.382Z</time></trkpt><trkpt lat="40.3957033" lon="8.4049483"><ele>221.66666666666669</ele><time>2026-03-28T14:52:31.382Z</time></trkpt><trkpt lat="40.3958867" lon="8.404965"><ele>222.33333333333331</ele><time>2026-03-28T14:52:32.383Z</time></trkpt><trkpt lat="40.3960717" lon="8.4049383"><ele>223.0</ele><time>2026-03-28T14:52:33.382Z</time></trkpt><trkpt lat="40.3962283" lon="8.4048517"><ele>224.0</ele><time>2026-03-28T14:52:34.382Z</time></trkpt><trkpt lat="40.3963517" lon="8.4046933"><ele>225.0</ele><time>2026-03-28T14:52:35.383Z</time></trkpt><trkpt lat="40.3964633" lon="8.4044783"><ele>226.0</ele><time>2026-03-28T14:52:36.382Z</time></trkpt><trkpt lat="40.39657" lon="8.4042517"><ele>221.66666666666666</ele><time>2026-03-28T14:52:37.383Z</time></trkpt><trkpt lat="40.3966833" lon="8.404035"><ele>217.33333333333331</ele><time>2026-03-28T14:52:38.383Z</time></trkpt><trkpt lat="40.3967917" lon="8.4038367"><ele>213.0</ele><time>2026-03-28T14:52:39.383Z</time></trkpt><trkpt lat="40.3969033" lon="8.4036567"><ele>211.66666666666669</ele><time>2026-03-28T14:52:40.383Z</time></trkpt><trkpt lat="40.397035" lon="8.4035167"><ele>210.33333333333334</ele><time>2026-03-28T14:52:41.383Z</time></trkpt><trkpt lat="40.397195" lon="8.403405"><ele>209.0</ele><time>2026-03-28T14:52:42.382Z</time></trkpt><trkpt lat="40.3973517" lon="8.4033217"><ele>212.0</ele><time>2026-03-28T14:52:43.383Z</time></trkpt><trkpt lat="40.3975283" lon="8.4032683"><ele>215.0</ele><time>2026-03-28T14:52:44.383Z</time></trkpt><trkpt lat="40.39772" lon="8.40325"><ele>218.0</ele><time>2026-03-28T14:52:45.383Z</time></trkpt><trkpt lat="40.397895" lon="8.4032467"><ele>214.0</ele><time>2026-03-28T14:52:46.383Z</time></trkpt><trkpt lat="40.3980567" lon="8.4032783"><ele>210.0</ele><time>2026-03-28T14:52:47.383Z</time></trkpt><trkpt lat="40.3981933" lon="8.403325"><ele>206.0</ele><time>2026-03-28T14:52:48.383Z</time></trkpt><trkpt lat="40.3983333" lon="8.4034067"><ele>206.0</ele><time>2026-03-28T14:52:49.383Z</time></trkpt><trkpt lat="40.3984583" lon="8.4035017"><ele>206.0</ele><time>2026-03-28T14:52:50.383Z</time></trkpt><trkpt lat="40.3985633" lon="8.4036267"><ele>206.0</ele><time>2026-03-28T14:52:51.383Z</time></trkpt><trkpt lat="40.3986583" lon="8.4037783"><ele>206.0</ele><time>2026-03-28T14:52:52.383Z</time></trkpt><trkpt lat="40.3987417" lon="8.4039567"><ele>202.33333333333334</ele><time>2026-03-28T14:52:53.383Z</time></trkpt><trkpt lat="40.3988" lon="8.40415"><ele>198.66666666666669</ele><time>2026-03-28T14:52:54.383Z</time></trkpt><trkpt lat="40.3988233" lon="8.404365"><ele>195.0</ele><time>2026-03-28T14:52:55.383Z</time></trkpt><trkpt lat="40.398835" lon="8.4045867"><ele>195.66666666666669</ele><time>2026-03-28T14:52:56.383Z</time></trkpt><trkpt lat="40.3988533" lon="8.4048417"><ele>196.33333333333334</ele><time>2026-03-28T14:52:57.383Z</time></trkpt><trkpt lat="40.3988967" lon="8.4051083"><ele>197.0</ele><time>2026-03-28T14:52:58.383Z</time></trkpt><trkpt lat="40.3989667" lon="8.4053883"><ele>203.5</ele><time>2026-03-28T14:52:59.382Z</time></trkpt><trkpt lat="40.399035" lon="8.4056717"><ele>210.0</ele><time>2026-03-28T14:53:00.383Z</time></trkpt><trkpt lat="40.3990967" lon="8.4059533"><ele>210.0</ele><time>2026-03-28T14:53:01.383Z</time></trkpt><trkpt lat="40.3991333" lon="8.4062433"><ele>210.0</ele><time>2026-03-28T14:53:02.383Z</time></trkpt><trkpt lat="40.3991683" lon="8.4065283"><ele>210.0</ele><time>2026-03-28T14:53:03.383Z</time></trkpt><trkpt lat="40.3991883" lon="8.4067967"><ele>210.0</ele><time>2026-03-28T14:53:04.383Z</time></trkpt><trkpt lat="40.3991983" lon="8.4070467"><ele>210.0</ele><time>2026-03-28T14:53:05.383Z</time></trkpt><trkpt lat="40.3991733" lon="8.40728"><ele>210.0</ele><time>2026-03-28T14:53:06.383Z</time></trkpt><trkpt lat="40.3990933" lon="8.4074717"><ele>210.0</ele><time>2026-03-28T14:53:07.383Z</time></trkpt><trkpt lat="40.3989717" lon="8.4076367"><ele>210.0</ele><time>2026-03-28T14:53:08.382Z</time></trkpt><trkpt lat="40.3988067" lon="8.4077717"><ele>210.0</ele><time>2026-03-28T14:53:09.383Z</time></trkpt><trkpt lat="40.3986183" lon="8.4078617"><ele>210.66666666666669</ele><time>2026-03-28T14:53:10.383Z</time></trkpt><trkpt lat="40.39843" lon="8.4079517"><ele>211.33333333333334</ele><time>2026-03-28T14:53:11.383Z</time></trkpt><trkpt lat="40.3982667" lon="8.4080717"><ele>212.0</ele><time>2026-03-28T14:53:12.383Z</time></trkpt><trkpt lat="40.3981267" lon="8.4082233"><ele>212.0</ele><time>2026-03-28T14:53:13.383Z</time></trkpt><trkpt lat="40.398005" lon="8.4084067"><ele>212.0</ele><time>2026-03-28T14:53:14.383Z</time></trkpt><trkpt lat="40.3979283" lon="8.408615"><ele>212.0</ele><time>2026-03-28T14:53:15.383Z</time></trkpt><trkpt lat="40.397875" lon="8.4088283"><ele>216.0</ele><time>2026-03-28T14:53:16.383Z</time></trkpt><trkpt lat="40.39787" lon="8.4090483"><ele>220.0</ele><time>2026-03-28T14:53:17.383Z</time></trkpt><trkpt lat="40.39789" lon="8.409285"><ele>224.0</ele><time>2026-03-28T14:53:18.383Z</time></trkpt><trkpt lat="40.3979567" lon="8.4095033"><ele>216.66666666666669</ele><time>2026-03-28T14:53:19.383Z</time></trkpt><trkpt lat="40.39809" lon="8.4097283"><ele>209.33333333333331</ele><time>2026-03-28T14:53:20.382Z</time></trkpt><trkpt lat="40.3982333" lon="8.409955"><ele>202.0</ele><time>2026-03-28T14:53:21.383Z</time></trkpt><trkpt lat="40.3983867" lon="8.4101833"><ele>202.0</ele><time>2026-03-28T14:53:22.383Z</time></trkpt><trkpt lat="40.39854" lon="8.410405"><ele>202.0</ele><time>2026-03-28T14:53:23.383Z</time></trkpt><trkpt lat="40.398675" lon="8.4106183"><ele>202.0</ele><time>2026-03-28T14:53:24.383Z</time></trkpt><trkpt lat="40.3988" lon="8.4107867"><ele>199.25</ele><time>2026-03-28T14:53:25.382Z</time></trkpt><trkpt lat="40.3989167" lon="8.4109167"><ele>196.5</ele><time>2026-03-28T14:53:26.383Z</time></trkpt><trkpt lat="40.3990283" lon="8.4110117"><ele>193.75</ele><time>2026-03-28T14:53:27.383Z</time></trkpt><trkpt lat="40.39916" lon="8.411075"><ele>191.0</ele><time>2026-03-28T14:53:28.383Z</time></trkpt><trkpt lat="40.3993333" lon="8.4111"><ele>191.0</ele><time>2026-03-28T14:53:29.383Z</time></trkpt><trkpt lat="40.3995283" lon="8.4111233"><ele>191.0</ele><time>2026-03-28T14:53:30.382Z</time></trkpt><trkpt lat="40.399725" lon="8.4111417"><ele>191.0</ele><time>2026-03-28T14:53:31.383Z</time></trkpt><trkpt lat="40.3999233" lon="8.4111517"><ele>187.33333333333331</ele><time>2026-03-28T14:53:32.383Z</time></trkpt><trkpt lat="40.4000917" lon="8.4111383"><ele>183.66666666666666</ele><time>2026-03-28T14:53:33.383Z</time></trkpt><trkpt lat="40.4002733" lon="8.411045"><ele>180.0</ele><time>2026-03-28T14:53:34.383Z</time></trkpt><trkpt lat="40.40044" lon="8.4108883"><ele>184.0</ele><time>2026-03-28T14:53:35.383Z</time></trkpt><trkpt lat="40.4006183" lon="8.41068"><ele>188.0</ele><time>2026-03-28T14:53:36.383Z</time></trkpt><trkpt lat="40.4007967" lon="8.4104583"><ele>178.5</ele><time>2026-03-28T14:53:37.382Z</time></trkpt><trkpt lat="40.4009783" lon="8.4102483"><ele>169.0</ele><time>2026-03-28T14:53:38.383Z</time></trkpt><trkpt lat="40.4011617" lon="8.41003"><ele>165.0</ele><time>2026-03-28T14:53:39.383Z</time></trkpt><trkpt lat="40.401345" lon="8.4098183"><ele>161.0</ele><time>2026-03-28T14:53:40.383Z</time></trkpt><trkpt lat="40.4015283" lon="8.4096167"><ele>161.0</ele><time>2026-03-28T14:53:41.383Z</time></trkpt><trkpt lat="40.4017017" lon="8.4094167"><ele>161.0</ele><time>2026-03-28T14:53:42.382Z</time></trkpt><trkpt lat="40.4018533" lon="8.4092567"><ele>161.0</ele><time>2026-03-28T14:53:43.383Z</time></trkpt><trkpt lat="40.402005" lon="8.4091233"><ele>164.0</ele><time>2026-03-28T14:53:44.383Z</time></trkpt><trkpt lat="40.40217" lon="8.40903"><ele>167.0</ele><time>2026-03-28T14:53:45.383Z</time></trkpt><trkpt lat="40.40234" lon="8.4089983"><ele>170.0</ele><time>2026-03-28T14:53:46.382Z</time></trkpt><trkpt lat="40.402515" lon="8.4090333"><ele>170.0</ele><time>2026-03-28T14:53:47.382Z</time></trkpt><trkpt lat="40.402685" lon="8.4091367"><ele>170.0</ele><time>2026-03-28T14:53:48.383Z</time></trkpt><trkpt lat="40.4028517" lon="8.4092667"><ele>170.0</ele><time>2026-03-28T14:53:49.383Z</time></trkpt><trkpt lat="40.4029983" lon="8.4094267"><ele>167.0</ele><time>2026-03-28T14:53:50.383Z</time></trkpt><trkpt lat="40.4031267" lon="8.4096"><ele>164.0</ele><time>2026-03-28T14:53:51.383Z</time></trkpt><trkpt lat="40.4032367" lon="8.4097917"><ele>161.0</ele><time>2026-03-28T14:53:52.382Z</time></trkpt><trkpt lat="40.4033417" lon="8.4100267"><ele>161.0</ele><time>2026-03-28T14:53:53.383Z</time></trkpt><trkpt lat="40.4034517" lon="8.4102783"><ele>161.0</ele><time>2026-03-28T14:53:54.383Z</time></trkpt><trkpt lat="40.4035633" lon="8.4105367"><ele>161.0</ele><time>2026-03-28T14:53:55.383Z</time></trkpt><trkpt lat="40.4036767" lon="8.4107783"><ele>164.0</ele><time>2026-03-28T14:53:56.383Z</time></trkpt><trkpt lat="40.403765" lon="8.4110217"><ele>167.0</ele><time>2026-03-28T14:53:57.383Z</time></trkpt><trkpt lat="40.4038483" lon="8.4112667"><ele>170.0</ele><time>2026-03-28T14:53:58.383Z</time></trkpt><trkpt lat="40.4039383" lon="8.4115017"><ele>162.33333333333331</ele><time>2026-03-28T14:53:59.382Z</time></trkpt><trkpt lat="40.404055" lon="8.4117233"><ele>154.66666666666666</ele><time>2026-03-28T14:54:00.383Z</time></trkpt><trkpt lat="40.4042117" lon="8.41192"><ele>147.0</ele><time>2026-03-28T14:54:01.383Z</time></trkpt><trkpt lat="40.4043917" lon="8.4121"><ele>147.0</ele><time>2026-03-28T14:54:02.383Z</time></trkpt><trkpt lat="40.4045933" lon="8.4122683"><ele>147.0</ele><time>2026-03-28T14:54:03.383Z</time></trkpt><trkpt lat="40.4047983" lon="8.412425"><ele>147.0</ele><time>2026-03-28T14:54:04.383Z</time></trkpt><trkpt lat="40.4050033" lon="8.4126067"><ele>147.0</ele><time>2026-03-28T14:54:05.383Z</time></trkpt><trkpt lat="40.4051983" lon="8.4127983"><ele>147.0</ele><time>2026-03-28T14:54:06.382Z</time></trkpt><trkpt lat="40.4053783" lon="8.41298"><ele>147.0</ele><time>2026-03-28T14:54:07.383Z</time></trkpt><trkpt lat="40.405535" lon="8.4131633"><ele>147.0</ele><time>2026-03-28T14:54:08.383Z</time></trkpt><trkpt lat="40.40567" lon="8.4133383"><ele>146.0</ele><time>2026-03-28T14:54:09.383Z</time></trkpt><trkpt lat="40.4058067" lon="8.4134783"><ele>145.0</ele><time>2026-03-28T14:54:10.382Z</time></trkpt><trkpt lat="40.4059417" lon="8.4135767"><ele>144.0</ele><time>2026-03-28T14:54:11.383Z</time></trkpt><trkpt lat="40.4060983" lon="8.41362"><ele>144.0</ele><time>2026-03-28T14:54:12.383Z</time></trkpt><trkpt lat="40.4062667" lon="8.4136167"><ele>144.0</ele><time>2026-03-28T14:54:13.383Z</time></trkpt><trkpt lat="40.4064583" lon="8.4135617"><ele>144.0</ele><time>2026-03-28T14:54:14.383Z</time></trkpt><trkpt lat="40.4066317" lon="8.4134567"><ele>143.33333333333334</ele><time>2026-03-28T14:54:15.383Z</time></trkpt><trkpt lat="40.406775" lon="8.4133083"><ele>142.66666666666669</ele><time>2026-03-28T14:54:16.383Z</time></trkpt><trkpt lat="40.4069183" lon="8.413115"><ele>142.0</ele><time>2026-03-28T14:54:17.382Z</time></trkpt><trkpt lat="40.4070367" lon="8.4128983"><ele>142.0</ele><time>2026-03-28T14:54:18.383Z</time></trkpt><trkpt lat="40.4071483" lon="8.412675"><ele>142.0</ele><time>2026-03-28T14:54:19.383Z</time></trkpt><trkpt lat="40.4072717" lon="8.4124367"><ele>142.0</ele><time>2026-03-28T14:54:20.383Z</time></trkpt><trkpt lat="40.40739" lon="8.4121983"><ele>149.0</ele><time>2026-03-28T14:54:21.382Z</time></trkpt><trkpt lat="40.40752" lon="8.4119717"><ele>156.0</ele><time>2026-03-28T14:54:22.382Z</time></trkpt><trkpt lat="40.4076433" lon="8.411745"><ele>163.0</ele><time>2026-03-28T14:54:23.383Z</time></trkpt><trkpt lat="40.407765" lon="8.411525"><ele>159.66666666666669</ele><time>2026-03-28T14:54:24.383Z</time></trkpt><trkpt lat="40.4078767" lon="8.4113117"><ele>156.33333333333334</ele><time>2026-03-28T14:54:25.383Z</time></trkpt><trkpt lat="40.4079667" lon="8.4111083"><ele>153.0</ele><time>2026-03-28T14:54:26.383Z</time></trkpt><trkpt lat="40.4080317" lon="8.4108933"><ele>161.0</ele><time>2026-03-28T14:54:27.382Z</time></trkpt><trkpt lat="40.4080633" lon="8.4106483"><ele>169.0</ele><time>2026-03-28T14:54:28.383Z</time></trkpt><trkpt lat="40.4080617" lon="8.4104"><ele>177.0</ele><time>2026-03-28T14:54:29.383Z</time></trkpt><trkpt lat="40.4080133" lon="8.4101717"><ele>176.0</ele><time>2026-03-28T14:54:30.383Z</time></trkpt><trkpt lat="40.40795" lon="8.4099433"><ele>175.0</ele><time>2026-03-28T14:54:31.382Z</time></trkpt><trkpt lat="40.4078467" lon="8.4097167"><ele>174.0</ele><time>2026-03-28T14:54:32.382Z</time></trkpt><trkpt lat="40.4077317" lon="8.4095017"><ele>174.0</ele><time>2026-03-28T14:54:33.383Z</time></trkpt><trkpt lat="40.40764" lon="8.4092817"><ele>174.0</ele><time>2026-03-28T14:54:34.382Z</time></trkpt><trkpt lat="40.4075833" lon="8.4090467"><ele>174.0</ele><time>2026-03-28T14:54:35.383Z</time></trkpt><trkpt lat="40.4075583" lon="8.408805"><ele>175.33333333333334</ele><time>2026-03-28T14:54:36.383Z</time></trkpt><trkpt lat="40.407565" lon="8.4085633"><ele>176.66666666666669</ele><time>2026-03-28T14:54:37.383Z</time></trkpt><trkpt lat="40.407615" lon="8.4083333"><ele>178.0</ele><time>2026-03-28T14:54:38.383Z</time></trkpt><trkpt lat="40.4076967" lon="8.4081267"><ele>176.0</ele><time>2026-03-28T14:54:39.383Z</time></trkpt><trkpt lat="40.40781" lon="8.40795"><ele>174.0</ele><time>2026-03-28T14:54:40.383Z</time></trkpt><trkpt lat="40.4079483" lon="8.4078"><ele>172.0</ele><time>2026-03-28T14:54:41.382Z</time></trkpt><trkpt lat="40.40812" lon="8.4076633"><ele>178.66666666666669</ele><time>2026-03-28T14:54:42.383Z</time></trkpt><trkpt lat="40.40829" lon="8.4075483"><ele>185.33333333333334</ele><time>2026-03-28T14:54:43.383Z</time></trkpt><trkpt lat="40.4084833" lon="8.407435"><ele>192.0</ele><time>2026-03-28T14:54:44.383Z</time></trkpt><trkpt lat="40.4086783" lon="8.4073283"><ele>190.0</ele><time>2026-03-28T14:54:45.382Z</time></trkpt><trkpt lat="40.4088683" lon="8.40721"><ele>188.0</ele><time>2026-03-28T14:54:46.382Z</time></trkpt><trkpt lat="40.4090583" lon="8.4070917"><ele>186.0</ele><time>2026-03-28T14:54:47.382Z</time></trkpt><trkpt lat="40.409245" lon="8.4069717"><ele>186.0</ele><time>2026-03-28T14:54:48.383Z</time></trkpt><trkpt lat="40.409415" lon="8.4068833"><ele>186.0</ele><time>2026-03-28T14:54:49.383Z</time></trkpt><trkpt lat="40.4095833" lon="8.4068317"><ele>186.0</ele><time>2026-03-28T14:54:50.383Z</time></trkpt><trkpt lat="40.4097567" lon="8.4068333"><ele>188.0</ele><time>2026-03-28T14:54:51.383Z</time></trkpt><trkpt lat="40.4099417" lon="8.4068583"><ele>190.0</ele><time>2026-03-28T14:54:52.383Z</time></trkpt><trkpt lat="40.410135" lon="8.4068817"><ele>192.0</ele><time>2026-03-28T14:54:53.383Z</time></trkpt><trkpt lat="40.4103267" lon="8.40692"><ele>195.0</ele><time>2026-03-28T14:54:54.382Z</time></trkpt><trkpt lat="40.4105317" lon="8.406975"><ele>198.0</ele><time>2026-03-28T14:54:55.383Z</time></trkpt><trkpt lat="40.410745" lon="8.4070367"><ele>201.0</ele><time>2026-03-28T14:54:56.382Z</time></trkpt><trkpt lat="40.4109583" lon="8.4070867"><ele>201.0</ele><time>2026-03-28T14:54:57.383Z</time></trkpt><trkpt lat="40.4111667" lon="8.40716"><ele>201.0</ele><time>2026-03-28T14:54:58.382Z</time></trkpt><trkpt lat="40.411375" lon="8.4072533"><ele>201.0</ele><time>2026-03-28T14:54:59.383Z</time></trkpt><trkpt lat="40.4115983" lon="8.407335"><ele>208.66666666666669</ele><time>2026-03-28T14:55:00.383Z</time></trkpt><trkpt lat="40.4118" lon="8.4074083"><ele>216.33333333333334</ele><time>2026-03-28T14:55:01.383Z</time></trkpt><trkpt lat="40.4119967" lon="8.407485"><ele>224.0</ele><time>2026-03-28T14:55:02.382Z</time></trkpt><trkpt lat="40.4121733" lon="8.40756"><ele>224.66666666666669</ele><time>2026-03-28T14:55:03.383Z</time></trkpt><trkpt lat="40.41236" lon="8.4076183"><ele>225.33333333333331</ele><time>2026-03-28T14:55:04.382Z</time></trkpt><trkpt lat="40.4125667" lon="8.4076467"><ele>226.0</ele><time>2026-03-28T14:55:05.382Z</time></trkpt><trkpt lat="40.4127717" lon="8.4076317"><ele>226.0</ele><time>2026-03-28T14:55:06.383Z</time></trkpt><trkpt lat="40.4129733" lon="8.407585"><ele>226.0</ele><time>2026-03-28T14:55:07.383Z</time></trkpt><trkpt lat="40.41318" lon="8.407545"><ele>226.0</ele><time>2026-03-28T14:55:08.382Z</time></trkpt><trkpt lat="40.4133683" lon="8.407505"><ele>227.33333333333331</ele><time>2026-03-28T14:55:09.383Z</time></trkpt><trkpt lat="40.413555" lon="8.4074817"><ele>228.66666666666669</ele><time>2026-03-28T14:55:10.383Z</time></trkpt><trkpt lat="40.413735" lon="8.4074733"><ele>230.0</ele><time>2026-03-28T14:55:11.383Z</time></trkpt><trkpt lat="40.4139083" lon="8.4075"><ele>231.33333333333334</ele><time>2026-03-28T14:55:12.383Z</time></trkpt><trkpt lat="40.4140717" lon="8.407575"><ele>232.66666666666669</ele><time>2026-03-28T14:55:13.382Z</time></trkpt><trkpt lat="40.4142433" lon="8.4076883"><ele>234.0</ele><time>2026-03-28T14:55:14.383Z</time></trkpt><trkpt lat="40.4144317" lon="8.4078"><ele>234.0</ele><time>2026-03-28T14:55:15.382Z</time></trkpt><trkpt lat="40.4146233" lon="8.407915"><ele>234.0</ele><time>2026-03-28T14:55:16.382Z</time></trkpt><trkpt lat="40.4148267" lon="8.4079967"><ele>234.0</ele><time>2026-03-28T14:55:17.383Z</time></trkpt><trkpt lat="40.415055" lon="8.4080633"><ele>237.0</ele><time>2026-03-28T14:55:18.383Z</time></trkpt><trkpt lat="40.415265" lon="8.408125"><ele>240.0</ele><time>2026-03-28T14:55:19.383Z</time></trkpt><trkpt lat="40.415495" lon="8.4081733"><ele>243.0</ele><time>2026-03-28T14:55:20.382Z</time></trkpt><trkpt lat="40.415715" lon="8.4082317"><ele>243.0</ele><time>2026-03-28T14:55:21.383Z</time></trkpt><trkpt lat="40.4159183" lon="8.4082833"><ele>243.0</ele><time>2026-03-28T14:55:22.383Z</time></trkpt><trkpt lat="40.4161117" lon="8.408335"><ele>243.0</ele><time>2026-03-28T14:55:23.383Z</time></trkpt><trkpt lat="40.4162917" lon="8.408375"><ele>243.66666666666669</ele><time>2026-03-28T14:55:24.383Z</time></trkpt><trkpt lat="40.4164667" lon="8.408375"><ele>244.33333333333334</ele><time>2026-03-28T14:55:25.383Z</time></trkpt><trkpt lat="40.416645" lon="8.4083367"><ele>245.0</ele><time>2026-03-28T14:55:26.383Z</time></trkpt><trkpt lat="40.4167983" lon="8.4082633"><ele>245.0</ele><time>2026-03-28T14:55:27.383Z</time></trkpt><trkpt lat="40.4169283" lon="8.4081183"><ele>245.0</ele><time>2026-03-28T14:55:28.383Z</time></trkpt><trkpt lat="40.417015" lon="8.4079333"><ele>245.0</ele><time>2026-03-28T14:55:29.383Z</time></trkpt><trkpt lat="40.41709" lon="8.40773"><ele>245.66666666666669</ele><time>2026-03-28T14:55:30.383Z</time></trkpt><trkpt lat="40.4171633" lon="8.4075267"><ele>246.33333333333331</ele><time>2026-03-28T14:55:31.383Z</time></trkpt><trkpt lat="40.4172617" lon="8.4073283"><ele>247.0</ele><time>2026-03-28T14:55:32.383Z</time></trkpt><trkpt lat="40.41739" lon="8.4071383"><ele>238.0</ele><time>2026-03-28T14:55:33.383Z</time></trkpt><trkpt lat="40.417535" lon="8.4069733"><ele>229.0</ele><time>2026-03-28T14:55:34.383Z</time></trkpt><trkpt lat="40.4177017" lon="8.4068483"><ele>220.0</ele><time>2026-03-28T14:55:35.383Z</time></trkpt><trkpt lat="40.417875" lon="8.40676"><ele>224.0</ele><time>2026-03-28T14:55:36.383Z</time></trkpt><trkpt lat="40.4180533" lon="8.4067033"><ele>228.0</ele><time>2026-03-28T14:55:37.383Z</time></trkpt><trkpt lat="40.41823" lon="8.4067"><ele>232.0</ele><time>2026-03-28T14:55:38.382Z</time></trkpt><trkpt lat="40.4184333" lon="8.406715"><ele>232.0</ele><time>2026-03-28T14:55:39.383Z</time></trkpt><trkpt lat="40.4186233" lon="8.4067883"><ele>232.0</ele><time>2026-03-28T14:55:40.383Z</time></trkpt><trkpt lat="40.4188" lon="8.4068667"><ele>232.0</ele><time>2026-03-28T14:55:41.382Z</time></trkpt><trkpt lat="40.4189567" lon="8.4069567"><ele>227.33333333333331</ele><time>2026-03-28T14:55:42.383Z</time></trkpt><trkpt lat="40.4191083" lon="8.407015"><ele>222.66666666666669</ele><time>2026-03-28T14:55:43.383Z</time></trkpt><trkpt lat="40.4192767" lon="8.4069933"><ele>218.0</ele><time>2026-03-28T14:55:44.383Z</time></trkpt><trkpt lat="40.4194567" lon="8.4069083"><ele>218.0</ele><time>2026-03-28T14:55:45.383Z</time></trkpt><trkpt lat="40.419645" lon="8.4068033"><ele>218.0</ele><time>2026-03-28T14:55:46.382Z</time></trkpt><trkpt lat="40.4198233" lon="8.4067183"><ele>218.0</ele><time>2026-03-28T14:55:47.382Z</time></trkpt><trkpt lat="40.4199933" lon="8.4066783"><ele>218.33333333333334</ele><time>2026-03-28T14:55:48.383Z</time></trkpt><trkpt lat="40.4201567" lon="8.406685"><ele>218.66666666666669</ele><time>2026-03-28T14:55:49.383Z</time></trkpt><trkpt lat="40.42032" lon="8.406725"><ele>219.0</ele><time>2026-03-28T14:55:50.383Z</time></trkpt><trkpt lat="40.4204717" lon="8.4067983"><ele>217.0</ele><time>2026-03-28T14:55:51.383Z</time></trkpt><trkpt lat="40.4206233" lon="8.4068867"><ele>215.0</ele><time>2026-03-28T14:55:52.383Z</time></trkpt><trkpt lat="40.4207967" lon="8.4069867"><ele>213.0</ele><time>2026-03-28T14:55:53.382Z</time></trkpt><trkpt lat="40.4209867" lon="8.4070767"><ele>213.0</ele><time>2026-03-28T14:55:54.382Z</time></trkpt><trkpt lat="40.421175" lon="8.4071417"><ele>213.0</ele><time>2026-03-28T14:55:55.383Z</time></trkpt><trkpt lat="40.4213517" lon="8.4071867"><ele>213.0</ele><time>2026-03-28T14:55:56.383Z</time></trkpt><trkpt lat="40.421525" lon="8.40722"><ele>222.33333333333331</ele><time>2026-03-28T14:55:57.382Z</time></trkpt><trkpt lat="40.4216833" lon="8.4072583"><ele>231.66666666666666</ele><time>2026-03-28T14:55:58.382Z</time></trkpt><trkpt lat="40.421835" lon="8.4072683"><ele>241.0</ele><time>2026-03-28T14:55:59.382Z</time></trkpt><trkpt lat="40.421975" lon="8.4072567"><ele>241.0</ele><time>2026-03-28T14:56:00.383Z</time></trkpt><trkpt lat="40.4221233" lon="8.4072"><ele>241.0</ele><time>2026-03-28T14:56:01.383Z</time></trkpt><trkpt lat="40.4222517" lon="8.4070967"><ele>241.0</ele><time>2026-03-28T14:56:02.382Z</time></trkpt><trkpt lat="40.42235" lon="8.406955"><ele>239.66666666666666</ele><time>2026-03-28T14:56:03.383Z</time></trkpt><trkpt lat="40.4224333" lon="8.4067733"><ele>238.33333333333331</ele><time>2026-03-28T14:56:04.383Z</time></trkpt><trkpt lat="40.4225" lon="8.4065583"><ele>237.0</ele><time>2026-03-28T14:56:05.382Z</time></trkpt><trkpt lat="40.4225617" lon="8.406315"><ele>235.0</ele><time>2026-03-28T14:56:06.383Z</time></trkpt><trkpt lat="40.4226217" lon="8.4060533"><ele>233.0</ele><time>2026-03-28T14:56:07.383Z</time></trkpt><trkpt lat="40.4226883" lon="8.4057817"><ele>231.0</ele><time>2026-03-28T14:56:08.383Z</time></trkpt><trkpt lat="40.422765" lon="8.4055083"><ele>230.33333333333331</ele><time>2026-03-28T14:56:09.383Z</time></trkpt><trkpt lat="40.4228417" lon="8.405235"><ele>229.66666666666666</ele><time>2026-03-28T14:56:10.382Z</time></trkpt><trkpt lat="40.4229167" lon="8.4049567"><ele>229.0</ele><time>2026-03-28T14:56:11.382Z</time></trkpt><trkpt lat="40.422995" lon="8.4046867"><ele>229.33333333333331</ele><time>2026-03-28T14:56:12.383Z</time></trkpt><trkpt lat="40.4230867" lon="8.4044567"><ele>229.66666666666669</ele><time>2026-03-28T14:56:13.383Z</time></trkpt><trkpt lat="40.42318" lon="8.404255"><ele>230.0</ele><time>2026-03-28T14:56:14.383Z</time></trkpt><trkpt lat="40.4232983" lon="8.4040567"><ele>230.0</ele><time>2026-03-28T14:56:15.383Z</time></trkpt><trkpt lat="40.4234317" lon="8.4038617"><ele>230.0</ele><time>2026-03-28T14:56:16.382Z</time></trkpt><trkpt lat="40.423585" lon="8.403665"><ele>230.0</ele><time>2026-03-28T14:56:17.383Z</time></trkpt><trkpt lat="40.4237417" lon="8.403475"><ele>232.0</ele><time>2026-03-28T14:56:18.383Z</time></trkpt><trkpt lat="40.4239" lon="8.403275"><ele>234.0</ele><time>2026-03-28T14:56:19.382Z</time></trkpt><trkpt lat="40.4240483" lon="8.403085"><ele>236.0</ele><time>2026-03-28T14:56:20.383Z</time></trkpt><trkpt lat="40.4241983" lon="8.4029117"><ele>226.33333333333334</ele><time>2026-03-28T14:56:21.383Z</time></trkpt><trkpt lat="40.4243383" lon="8.40273"><ele>216.66666666666669</ele><time>2026-03-28T14:56:22.383Z</time></trkpt><trkpt lat="40.4244767" lon="8.4025717"><ele>207.0</ele><time>2026-03-28T14:56:23.382Z</time></trkpt><trkpt lat="40.424625" lon="8.4024383"><ele>212.33333333333331</ele><time>2026-03-28T14:56:24.382Z</time></trkpt><trkpt lat="40.4248067" lon="8.402325"><ele>217.66666666666666</ele><time>2026-03-28T14:56:25.383Z</time></trkpt><trkpt lat="40.424995" lon="8.4022367"><ele>223.0</ele><time>2026-03-28T14:56:26.383Z</time></trkpt><trkpt lat="40.4251867" lon="8.4021767"><ele>214.0</ele><time>2026-03-28T14:56:27.383Z</time></trkpt><trkpt lat="40.4254017" lon="8.4021483"><ele>205.0</ele><time>2026-03-28T14:56:28.383Z</time></trkpt><trkpt lat="40.425605" lon="8.402155"><ele>196.0</ele><time>2026-03-28T14:56:29.382Z</time></trkpt><trkpt lat="40.42581" lon="8.4021483"><ele>196.0</ele><time>2026-03-28T14:56:30.383Z</time></trkpt><trkpt lat="40.4260133" lon="8.4021633"><ele>196.0</ele><time>2026-03-28T14:56:31.383Z</time></trkpt><trkpt lat="40.4262267" lon="8.4021833"><ele>196.0</ele><time>2026-03-28T14:56:32.382Z</time></trkpt><trkpt lat="40.426435" lon="8.4021983"><ele>194.0</ele><time>2026-03-28T14:56:33.382Z</time></trkpt><trkpt lat="40.4266583" lon="8.4021967"><ele>192.0</ele><time>2026-03-28T14:56:34.382Z</time></trkpt><trkpt lat="40.4268733" lon="8.4021817"><ele>190.0</ele><time>2026-03-28T14:56:35.383Z</time></trkpt><trkpt lat="40.4270817" lon="8.402135"><ele>190.66666666666669</ele><time>2026-03-28T14:56:36.383Z</time></trkpt><trkpt lat="40.4272917" lon="8.40206"><ele>191.33333333333334</ele><time>2026-03-28T14:56:37.383Z</time></trkpt><trkpt lat="40.4274917" lon="8.401965"><ele>192.0</ele><time>2026-03-28T14:56:38.383Z</time></trkpt><trkpt lat="40.4276783" lon="8.4018683"><ele>192.0</ele><time>2026-03-28T14:56:39.383Z</time></trkpt><trkpt lat="40.4278633" lon="8.40178"><ele>192.0</ele><time>2026-03-28T14:56:40.383Z</time></trkpt><trkpt lat="40.428045" lon="8.4017033"><ele>192.0</ele><time>2026-03-28T14:56:41.383Z</time></trkpt><trkpt lat="40.4282283" lon="8.4016417"><ele>193.66666666666669</ele><time>2026-03-28T14:56:42.383Z</time></trkpt><trkpt lat="40.42842" lon="8.4016017"><ele>195.33333333333334</ele><time>2026-03-28T14:56:43.382Z</time></trkpt><trkpt lat="40.4286267" lon="8.4015783"><ele>197.0</ele><time>2026-03-28T14:56:44.383Z</time></trkpt><trkpt lat="40.428835" lon="8.401595"><ele>193.66666666666669</ele><time>2026-03-28T14:56:45.383Z</time></trkpt><trkpt lat="40.4290517" lon="8.4016067"><ele>190.33333333333334</ele><time>2026-03-28T14:56:46.383Z</time></trkpt><trkpt lat="40.4292767" lon="8.4016233"><ele>187.0</ele><time>2026-03-28T14:56:47.383Z</time></trkpt><trkpt lat="40.4294833" lon="8.40165"><ele>185.0</ele><time>2026-03-28T14:56:48.383Z</time></trkpt><trkpt lat="40.4296917" lon="8.40168"><ele>183.0</ele><time>2026-03-28T14:56:49.383Z</time></trkpt><trkpt lat="40.429885" lon="8.4017117"><ele>181.0</ele><time>2026-03-28T14:56:50.382Z</time></trkpt><trkpt lat="40.4300867" lon="8.401745"><ele>181.0</ele><time>2026-03-28T14:56:51.383Z</time></trkpt><trkpt lat="40.4302983" lon="8.40178"><ele>181.0</ele><time>2026-03-28T14:56:52.383Z</time></trkpt><trkpt lat="40.4305167" lon="8.4018083"><ele>181.0</ele><time>2026-03-28T14:56:53.383Z</time></trkpt><trkpt lat="40.43072" lon="8.4018317"><ele>177.33333333333334</ele><time>2026-03-28T14:56:54.383Z</time></trkpt><trkpt lat="40.4309183" lon="8.401875"><ele>173.66666666666666</ele><time>2026-03-28T14:56:55.383Z</time></trkpt><trkpt lat="40.4311267" lon="8.4019367"><ele>170.0</ele><time>2026-03-28T14:56:56.383Z</time></trkpt><trkpt lat="40.431315" lon="8.4020233"><ele>171.33333333333331</ele><time>2026-03-28T14:56:57.383Z</time></trkpt><trkpt lat="40.4314967" lon="8.4021167"><ele>172.66666666666666</ele><time>2026-03-28T14:56:58.383Z</time></trkpt><trkpt lat="40.4316833" lon="8.40222"><ele>174.0</ele><time>2026-03-28T14:56:59.383Z</time></trkpt><trkpt lat="40.4318733" lon="8.4023417"><ele>174.0</ele><time>2026-03-28T14:57:00.383Z</time></trkpt><trkpt lat="40.4320633" lon="8.4024717"><ele>174.0</ele><time>2026-03-28T14:57:01.383Z</time></trkpt><trkpt lat="40.4322433" lon="8.4026"><ele>174.0</ele><time>2026-03-28T14:57:02.382Z</time></trkpt><trkpt lat="40.4324017" lon="8.4027367"><ele>173.0</ele><time>2026-03-28T14:57:03.382Z</time></trkpt><trkpt lat="40.43255" lon="8.4028767"><ele>172.0</ele><time>2026-03-28T14:57:04.383Z</time></trkpt><trkpt lat="40.4326783" lon="8.4030483"><ele>171.0</ele><time>2026-03-28T14:57:05.383Z</time></trkpt><trkpt lat="40.4328" lon="8.403245"><ele>171.0</ele><time>2026-03-28T14:57:06.382Z</time></trkpt><trkpt lat="40.4329217" lon="8.4034667"><ele>171.0</ele><time>2026-03-28T14:57:07.383Z</time></trkpt><trkpt lat="40.4330483" lon="8.4036933"><ele>171.0</ele><time>2026-03-28T14:57:08.383Z</time></trkpt><trkpt lat="40.43317" lon="8.4039233"><ele>165.33333333333334</ele><time>2026-03-28T14:57:09.383Z</time></trkpt><trkpt lat="40.4332967" lon="8.404135"><ele>159.66666666666669</ele><time>2026-03-28T14:57:10.383Z</time></trkpt><trkpt lat="40.4334183" lon="8.404345"><ele>154.0</ele><time>2026-03-28T14:57:11.383Z</time></trkpt><trkpt lat="40.4335167" lon="8.4045667"><ele>159.66666666666669</ele><time>2026-03-28T14:57:12.383Z</time></trkpt><trkpt lat="40.4335833" lon="8.4048183"><ele>165.33333333333334</ele><time>2026-03-28T14:57:13.383Z</time></trkpt><trkpt lat="40.4336333" lon="8.4050767"><ele>171.0</ele><time>2026-03-28T14:57:14.383Z</time></trkpt><trkpt lat="40.4336717" lon="8.4053333"><ele>174.33333333333334</ele><time>2026-03-28T14:57:15.383Z</time></trkpt><trkpt lat="40.4337167" lon="8.4055767"><ele>177.66666666666669</ele><time>2026-03-28T14:57:16.383Z</time></trkpt><trkpt lat="40.4337617" lon="8.4057933"><ele>181.0</ele><time>2026-03-28T14:57:17.382Z</time></trkpt><trkpt lat="40.4338433" lon="8.4060067"><ele>175.33333333333334</ele><time>2026-03-28T14:57:18.383Z</time></trkpt><trkpt lat="40.4339533" lon="8.4061917"><ele>169.66666666666666</ele><time>2026-03-28T14:57:19.383Z</time></trkpt><trkpt lat="40.4340883" lon="8.40635"><ele>164.0</ele><time>2026-03-28T14:57:20.383Z</time></trkpt><trkpt lat="40.434245" lon="8.4064767"><ele>164.0</ele><time>2026-03-28T14:57:21.383Z</time></trkpt><trkpt lat="40.434425" lon="8.4065667"><ele>164.0</ele><time>2026-03-28T14:57:22.383Z</time></trkpt><trkpt lat="40.4346117" lon="8.40663"><ele>164.0</ele><time>2026-03-28T14:57:23.383Z</time></trkpt><trkpt lat="40.4347933" lon="8.4066617"><ele>155.66666666666666</ele><time>2026-03-28T14:57:24.383Z</time></trkpt><trkpt lat="40.4349733" lon="8.4066433"><ele>147.33333333333334</ele><time>2026-03-28T14:57:25.383Z</time></trkpt><trkpt lat="40.435155" lon="8.4065933"><ele>139.0</ele><time>2026-03-28T14:57:26.383Z</time></trkpt><trkpt lat="40.43533" lon="8.4065"><ele>142.33333333333334</ele><time>2026-03-28T14:57:27.382Z</time></trkpt><trkpt lat="40.4354783" lon="8.4063667"><ele>145.66666666666666</ele><time>2026-03-28T14:57:28.383Z</time></trkpt><trkpt lat="40.43559" lon="8.40621"><ele>149.0</ele><time>2026-03-28T14:57:29.383Z</time></trkpt><trkpt lat="40.4356833" lon="8.40603"><ele>149.33333333333331</ele><time>2026-03-28T14:57:30.383Z</time></trkpt><trkpt lat="40.4357417" lon="8.405835"><ele>149.66666666666666</ele><time>2026-03-28T14:57:31.383Z</time></trkpt><trkpt lat="40.43577" lon="8.4056233"><ele>150.0</ele><time>2026-03-28T14:57:32.383Z</time></trkpt><trkpt lat="40.4357633" lon="8.40539"><ele>150.66666666666666</ele><time>2026-03-28T14:57:33.382Z</time></trkpt><trkpt lat="40.4357433" lon="8.4051533"><ele>151.33333333333331</ele><time>2026-03-28T14:57:34.383Z</time></trkpt><trkpt lat="40.43572" lon="8.4048983"><ele>152.0</ele><time>2026-03-28T14:57:35.383Z</time></trkpt><trkpt lat="40.435715" lon="8.40462"><ele>150.0</ele><time>2026-03-28T14:57:36.383Z</time></trkpt><trkpt lat="40.4357267" lon="8.4043183"><ele>148.0</ele><time>2026-03-28T14:57:37.383Z</time></trkpt><trkpt lat="40.435735" lon="8.404005"><ele>144.5</ele><time>2026-03-28T14:57:38.382Z</time></trkpt><trkpt lat="40.4357417" lon="8.40369"><ele>141.0</ele><time>2026-03-28T14:57:39.383Z</time></trkpt><trkpt lat="40.4357567" lon="8.403375"><ele>141.0</ele><time>2026-03-28T14:57:40.383Z</time></trkpt><trkpt lat="40.4357783" lon="8.4030617"><ele>141.0</ele><time>2026-03-28T14:57:41.383Z</time></trkpt><trkpt lat="40.4357967" lon="8.40275"><ele>138.33333333333334</ele><time>2026-03-28T14:57:42.383Z</time></trkpt><trkpt lat="40.435825" lon="8.4024467"><ele>135.66666666666669</ele><time>2026-03-28T14:57:43.382Z</time></trkpt><trkpt lat="40.4358567" lon="8.402165"><ele>133.0</ele><time>2026-03-28T14:57:44.383Z</time></trkpt><trkpt lat="40.4358917" lon="8.401895"><ele>130.66666666666669</ele><time>2026-03-28T14:57:45.383Z</time></trkpt><trkpt lat="40.4359533" lon="8.4016233"><ele>128.33333333333334</ele><time>2026-03-28T14:57:46.383Z</time></trkpt><trkpt lat="40.4360183" lon="8.4013533"><ele>126.0</ele><time>2026-03-28T14:57:47.383Z</time></trkpt><trkpt lat="40.4360883" lon="8.4010783"><ele>121.0</ele><time>2026-03-28T14:57:48.383Z</time></trkpt><trkpt lat="40.436155" lon="8.4008033"><ele>116.0</ele><time>2026-03-28T14:57:49.382Z</time></trkpt><trkpt lat="40.43621" lon="8.40053"><ele>111.0</ele><time>2026-03-28T14:57:50.382Z</time></trkpt><trkpt lat="40.43628" lon="8.4002667"><ele>114.0</ele><time>2026-03-28T14:57:51.383Z</time></trkpt><trkpt lat="40.436345" lon="8.4000033"><ele>117.0</ele><time>2026-03-28T14:57:52.383Z</time></trkpt><trkpt lat="40.4364217" lon="8.39977"><ele>120.0</ele><time>2026-03-28T14:57:53.383Z</time></trkpt><trkpt lat="40.4365083" lon="8.3995683"><ele>120.0</ele><time>2026-03-28T14:57:54.383Z</time></trkpt><trkpt lat="40.4366183" lon="8.3993983"><ele>120.0</ele><time>2026-03-28T14:57:55.383Z</time></trkpt><trkpt lat="40.4367583" lon="8.3992717"><ele>120.0</ele><time>2026-03-28T14:57:56.383Z</time></trkpt><trkpt lat="40.436915" lon="8.39917"><ele>120.0</ele><time>2026-03-28T14:57:57.383Z</time></trkpt><trkpt lat="40.43709" lon="8.39912"><ele>120.0</ele><time>2026-03-28T14:57:58.383Z</time></trkpt><trkpt lat="40.4372883" lon="8.3991183"><ele>120.0</ele><time>2026-03-28T14:57:59.383Z</time></trkpt><trkpt lat="40.43749" lon="8.3991733"><ele>115.33333333333334</ele><time>2026-03-28T14:58:00.383Z</time></trkpt><trkpt lat="40.4376933" lon="8.3992317"><ele>110.66666666666667</ele><time>2026-03-28T14:58:01.383Z</time></trkpt><trkpt lat="40.4379217" lon="8.3993067"><ele>106.0</ele><time>2026-03-28T14:58:02.383Z</time></trkpt><trkpt lat="40.4381417" lon="8.3993683"><ele>103.5</ele><time>2026-03-28T14:58:03.383Z</time></trkpt><trkpt lat="40.4383683" lon="8.3994217"><ele>101.0</ele><time>2026-03-28T14:58:04.383Z</time></trkpt><trkpt lat="40.4385933" lon="8.3994717"><ele>97.5</ele><time>2026-03-28T14:58:05.383Z</time></trkpt><trkpt lat="40.4388183" lon="8.39953"><ele>94.0</ele><time>2026-03-28T14:58:06.383Z</time></trkpt><trkpt lat="40.4390383" lon="8.3995867"><ele>94.0</ele><time>2026-03-28T14:58:07.383Z</time></trkpt><trkpt lat="40.4392567" lon="8.3996383"><ele>94.0</ele><time>2026-03-28T14:58:08.382Z</time></trkpt><trkpt lat="40.4394767" lon="8.3996833"><ele>94.0</ele><time>2026-03-28T14:58:09.383Z</time></trkpt><trkpt lat="40.4396833" lon="8.3997267"><ele>97.33333333333333</ele><time>2026-03-28T14:58:10.382Z</time></trkpt><trkpt lat="40.4398967" lon="8.3997617"><ele>100.66666666666666</ele><time>2026-03-28T14:58:11.383Z</time></trkpt><trkpt lat="40.4401017" lon="8.39981"><ele>104.0</ele><time>2026-03-28T14:58:12.383Z</time></trkpt><trkpt lat="40.4402983" lon="8.39986"><ele>102.66666666666666</ele><time>2026-03-28T14:58:13.383Z</time></trkpt><trkpt lat="40.44049" lon="8.399855"><ele>101.33333333333334</ele><time>2026-03-28T14:58:14.383Z</time></trkpt><trkpt lat="40.44067" lon="8.3998333"><ele>100.0</ele><time>2026-03-28T14:58:15.383Z</time></trkpt><trkpt lat="40.44083" lon="8.3997633"><ele>97.33333333333334</ele><time>2026-03-28T14:58:16.383Z</time></trkpt><trkpt lat="40.4409683" lon="8.3996417"><ele>94.66666666666667</ele><time>2026-03-28T14:58:17.382Z</time></trkpt><trkpt lat="40.4410767" lon="8.3994717"><ele>92.0</ele><time>2026-03-28T14:58:18.383Z</time></trkpt><trkpt lat="40.441145" lon="8.3992683"><ele>92.0</ele><time>2026-03-28T14:58:19.383Z</time></trkpt><trkpt lat="40.4411967" lon="8.3990283"><ele>92.0</ele><time>2026-03-28T14:58:20.383Z</time></trkpt><trkpt lat="40.441235" lon="8.3987733"><ele>92.0</ele><time>2026-03-28T14:58:21.383Z</time></trkpt><trkpt lat="40.4412217" lon="8.398505"><ele>90.66666666666667</ele><time>2026-03-28T14:58:22.383Z</time></trkpt><trkpt lat="40.4411917" lon="8.39823"><ele>89.33333333333333</ele><time>2026-03-28T14:58:23.382Z</time></trkpt><trkpt lat="40.4411317" lon="8.397935"><ele>88.0</ele><time>2026-03-28T14:58:24.383Z</time></trkpt><trkpt lat="40.44106" lon="8.39765"><ele>91.0</ele><time>2026-03-28T14:58:25.383Z</time></trkpt><trkpt lat="40.4409867" lon="8.3973683"><ele>94.0</ele><time>2026-03-28T14:58:26.382Z</time></trkpt><trkpt lat="40.4409333" lon="8.397115"><ele>97.0</ele><time>2026-03-28T14:58:27.383Z</time></trkpt><trkpt lat="40.4409117" lon="8.3968633"><ele>95.66666666666667</ele><time>2026-03-28T14:58:28.382Z</time></trkpt><trkpt lat="40.4409183" lon="8.39662"><ele>94.33333333333334</ele><time>2026-03-28T14:58:29.383Z</time></trkpt><trkpt lat="40.4409467" lon="8.3963667"><ele>93.0</ele><time>2026-03-28T14:58:30.383Z</time></trkpt><trkpt lat="40.4410117" lon="8.39612"><ele>93.0</ele><time>2026-03-28T14:58:31.383Z</time></trkpt><trkpt lat="40.4411083" lon="8.3958983"><ele>93.0</ele><time>2026-03-28T14:58:32.383Z</time></trkpt><trkpt lat="40.44122" lon="8.3957133"><ele>93.0</ele><time>2026-03-28T14:58:33.383Z</time></trkpt><trkpt lat="40.4413517" lon="8.3955467"><ele>92.66666666666667</ele><time>2026-03-28T14:58:34.382Z</time></trkpt><trkpt lat="40.4415117" lon="8.3953967"><ele>92.33333333333334</ele><time>2026-03-28T14:58:35.383Z</time></trkpt><trkpt lat="40.4416967" lon="8.3953383"><ele>92.0</ele><time>2026-03-28T14:58:36.383Z</time></trkpt><trkpt lat="40.4418933" lon="8.395275"><ele>92.0</ele><time>2026-03-28T14:58:37.383Z</time></trkpt><trkpt lat="40.4421033" lon="8.3952917"><ele>92.0</ele><time>2026-03-28T14:58:38.383Z</time></trkpt><trkpt lat="40.4423233" lon="8.395385"><ele>92.0</ele><time>2026-03-28T14:58:39.383Z</time></trkpt><trkpt lat="40.4425317" lon="8.3954233"><ele>100.66666666666667</ele><time>2026-03-28T14:58:40.383Z</time></trkpt><trkpt lat="40.4427217" lon="8.3954117"><ele>109.33333333333334</ele><time>2026-03-28T14:58:41.383Z</time></trkpt><trkpt lat="40.442885" lon="8.3953433"><ele>118.0</ele><time>2026-03-28T14:58:42.383Z</time></trkpt><trkpt lat="40.4430317" lon="8.3952167"><ele>125.33333333333334</ele><time>2026-03-28T14:58:43.383Z</time></trkpt><trkpt lat="40.4431517" lon="8.395035"><ele>132.66666666666666</ele><time>2026-03-28T14:58:44.383Z</time></trkpt><trkpt lat="40.4432283" lon="8.3947917"><ele>140.0</ele><time>2026-03-28T14:58:45.383Z</time></trkpt><trkpt lat="40.4432683" lon="8.3945183"><ele>140.0</ele><time>2026-03-28T14:58:46.383Z</time></trkpt><trkpt lat="40.4433633" lon="8.3942867"><ele>140.0</ele><time>2026-03-28T14:58:47.383Z</time></trkpt><trkpt lat="40.4434717" lon="8.3940833"><ele>140.0</ele><time>2026-03-28T14:58:48.382Z</time></trkpt><trkpt lat="40.4436217" lon="8.3938833"><ele>139.33333333333331</ele><time>2026-03-28T14:58:49.383Z</time></trkpt><trkpt lat="40.443795" lon="8.3937167"><ele>138.66666666666666</ele><time>2026-03-28T14:58:50.383Z</time></trkpt><trkpt lat="40.4439817" lon="8.3935617"><ele>138.0</ele><time>2026-03-28T14:58:51.383Z</time></trkpt><trkpt lat="40.444165" lon="8.3934267"><ele>138.0</ele><time>2026-03-28T14:58:52.383Z</time></trkpt><trkpt lat="40.444345" lon="8.3933383"><ele>138.0</ele><time>2026-03-28T14:58:53.383Z</time></trkpt><trkpt lat="40.4445483" lon="8.3932883"><ele>138.0</ele><time>2026-03-28T14:58:54.382Z</time></trkpt><trkpt lat="40.44476" lon="8.39327"><ele>144.0</ele><time>2026-03-28T14:58:55.383Z</time></trkpt><trkpt lat="40.44498" lon="8.393245"><ele>150.0</ele><time>2026-03-28T14:58:56.383Z</time></trkpt><trkpt lat="40.4451833" lon="8.3932033"><ele>156.0</ele><time>2026-03-28T14:58:57.383Z</time></trkpt><trkpt lat="40.4453883" lon="8.39315"><ele>162.66666666666666</ele><time>2026-03-28T14:58:58.383Z</time></trkpt><trkpt lat="40.4455717" lon="8.3930483"><ele>169.33333333333331</ele><time>2026-03-28T14:58:59.383Z</time></trkpt><trkpt lat="40.4457217" lon="8.3929033"><ele>176.0</ele><time>2026-03-28T14:59:00.382Z</time></trkpt><trkpt lat="40.4458767" lon="8.3927667"><ele>165.33333333333331</ele><time>2026-03-28T14:59:01.383Z</time></trkpt><trkpt lat="40.4460417" lon="8.392665"><ele>154.66666666666666</ele><time>2026-03-28T14:59:02.383Z</time></trkpt><trkpt lat="40.446215" lon="8.392595"><ele>144.0</ele><time>2026-03-28T14:59:03.383Z</time></trkpt><trkpt lat="40.4464083" lon="8.3925683"><ele>144.0</ele><time>2026-03-28T14:59:04.383Z</time></trkpt><trkpt lat="40.4466183" lon="8.3925667"><ele>144.0</ele><time>2026-03-28T14:59:05.383Z</time></trkpt><trkpt lat="40.4468283" lon="8.3925967"><ele>144.0</ele><time>2026-03-28T14:59:06.382Z</time></trkpt><trkpt lat="40.4470467" lon="8.39263"><ele>140.0</ele><time>2026-03-28T14:59:07.383Z</time></trkpt><trkpt lat="40.4472417" lon="8.3926867"><ele>136.0</ele><time>2026-03-28T14:59:08.383Z</time></trkpt><trkpt lat="40.4474217" lon="8.392745"><ele>132.0</ele><time>2026-03-28T14:59:09.383Z</time></trkpt><trkpt lat="40.4476033" lon="8.3928083"><ele>132.0</ele><time>2026-03-28T14:59:10.383Z</time></trkpt><trkpt lat="40.4477983" lon="8.3928017"><ele>132.0</ele><time>2026-03-28T14:59:11.383Z</time></trkpt><trkpt lat="40.4479767" lon="8.39275"><ele>132.0</ele><time>2026-03-28T14:59:12.383Z</time></trkpt><trkpt lat="40.4481517" lon="8.3927083"><ele>133.0</ele><time>2026-03-28T14:59:13.382Z</time></trkpt><trkpt lat="40.448335" lon="8.3927133"><ele>134.0</ele><time>2026-03-28T14:59:14.383Z</time></trkpt><trkpt lat="40.4484933" lon="8.3927317"><ele>135.0</ele><time>2026-03-28T14:59:15.382Z</time></trkpt><trkpt lat="40.4486467" lon="8.3927483"><ele>135.0</ele><time>2026-03-28T14:59:16.383Z</time></trkpt><trkpt lat="40.4487733" lon="8.392685"><ele>135.0</ele><time>2026-03-28T14:59:17.383Z</time></trkpt><trkpt lat="40.4488683" lon="8.392565"><ele>135.0</ele><time>2026-03-28T14:59:18.383Z</time></trkpt><trkpt lat="40.448955" lon="8.3923767"><ele>135.0</ele><time>2026-03-28T14:59:19.383Z</time></trkpt><trkpt lat="40.44903" lon="8.39214"><ele>131.33333333333334</ele><time>2026-03-28T14:59:20.382Z</time></trkpt><trkpt lat="40.4491033" lon="8.391915"><ele>127.66666666666667</ele><time>2026-03-28T14:59:21.382Z</time></trkpt><trkpt lat="40.4491883" lon="8.3917283"><ele>124.0</ele><time>2026-03-28T14:59:22.383Z</time></trkpt><trkpt lat="40.44928" lon="8.3915917"><ele>124.0</ele><time>2026-03-28T14:59:23.383Z</time></trkpt><trkpt lat="40.44939" lon="8.391465"><ele>124.0</ele><time>2026-03-28T14:59:24.383Z</time></trkpt><trkpt lat="40.44955" lon="8.39138"><ele>124.0</ele><time>2026-03-28T14:59:25.383Z</time></trkpt><trkpt lat="40.4496883" lon="8.39127"><ele>121.66666666666667</ele><time>2026-03-28T14:59:26.382Z</time></trkpt><trkpt lat="40.4498117" lon="8.3911283"><ele>119.33333333333334</ele><time>2026-03-28T14:59:27.383Z</time></trkpt><trkpt lat="40.449945" lon="8.3910017"><ele>117.0</ele><time>2026-03-28T14:59:28.383Z</time></trkpt><trkpt lat="40.4500917" lon="8.3908733"><ele>117.0</ele><time>2026-03-28T14:59:29.383Z</time></trkpt><trkpt lat="40.4502633" lon="8.390775"><ele>117.0</ele><time>2026-03-28T14:59:30.383Z</time></trkpt><trkpt lat="40.45045" lon="8.3906467"><ele>117.0</ele><time>2026-03-28T14:59:31.383Z</time></trkpt><trkpt lat="40.4506433" lon="8.3905183"><ele>109.33333333333333</ele><time>2026-03-28T14:59:32.382Z</time></trkpt><trkpt lat="40.4508283" lon="8.3904167"><ele>101.66666666666666</ele><time>2026-03-28T14:59:33.383Z</time></trkpt><trkpt lat="40.4510133" lon="8.390335"><ele>94.0</ele><time>2026-03-28T14:59:34.383Z</time></trkpt><trkpt lat="40.4511833" lon="8.39027"><ele>100.33333333333333</ele><time>2026-03-28T14:59:35.383Z</time></trkpt><trkpt lat="40.4513567" lon="8.3901883"><ele>106.66666666666666</ele><time>2026-03-28T14:59:36.383Z</time></trkpt><trkpt lat="40.4515083" lon="8.390095"><ele>113.0</ele><time>2026-03-28T14:59:37.383Z</time></trkpt><trkpt lat="40.4516267" lon="8.38995"><ele>113.0</ele><time>2026-03-28T14:59:38.382Z</time></trkpt><trkpt lat="40.451705" lon="8.3897717"><ele>113.0</ele><time>2026-03-28T14:59:39.383Z</time></trkpt><trkpt lat="40.451745" lon="8.3895683"><ele>113.0</ele><time>2026-03-28T14:59:40.383Z</time></trkpt><trkpt lat="40.4517633" lon="8.3893367"><ele>107.0</ele><time>2026-03-28T14:59:41.383Z</time></trkpt><trkpt lat="40.4517967" lon="8.3891283"><ele>101.0</ele><time>2026-03-28T14:59:42.382Z</time></trkpt><trkpt lat="40.45185" lon="8.388945"><ele>95.0</ele><time>2026-03-28T14:59:43.383Z</time></trkpt><trkpt lat="40.451935" lon="8.3888167"><ele>89.0</ele><time>2026-03-28T14:59:44.383Z</time></trkpt><trkpt lat="40.4520433" lon="8.3887383"><ele>86.33333333333334</ele><time>2026-03-28T14:59:45.383Z</time></trkpt><trkpt lat="40.4521883" lon="8.388735"><ele>83.66666666666667</ele><time>2026-03-28T14:59:46.383Z</time></trkpt><trkpt lat="40.4523717" lon="8.3887967"><ele>81.0</ele><time>2026-03-28T14:59:47.382Z</time></trkpt><trkpt lat="40.4525817" lon="8.3888533"><ele>83.33333333333333</ele><time>2026-03-28T14:59:48.383Z</time></trkpt><trkpt lat="40.4527917" lon="8.3888717"><ele>85.66666666666666</ele><time>2026-03-28T14:59:49.382Z</time></trkpt><trkpt lat="40.4529717" lon="8.388835"><ele>88.0</ele><time>2026-03-28T14:59:50.382Z</time></trkpt><trkpt lat="40.45315" lon="8.3887467"><ele>88.0</ele><time>2026-03-28T14:59:51.383Z</time></trkpt><trkpt lat="40.4533183" lon="8.3886267"><ele>88.0</ele><time>2026-03-28T14:59:52.383Z</time></trkpt><trkpt lat="40.4534933" lon="8.3884867"><ele>88.0</ele><time>2026-03-28T14:59:53.383Z</time></trkpt><trkpt lat="40.4536467" lon="8.3883167"><ele>88.0</ele><time>2026-03-28T14:59:54.383Z</time></trkpt><trkpt lat="40.4537817" lon="8.38812"><ele>88.0</ele><time>2026-03-28T14:59:55.383Z</time></trkpt><trkpt lat="40.453885" lon="8.3879067"><ele>88.0</ele><time>2026-03-28T14:59:56.382Z</time></trkpt><trkpt lat="40.4540017" lon="8.3877417"><ele>84.66666666666666</ele><time>2026-03-28T14:59:57.383Z</time></trkpt><trkpt lat="40.4541483" lon="8.3876033"><ele>81.33333333333333</ele><time>2026-03-28T14:59:58.383Z</time></trkpt><trkpt lat="40.4543033" lon="8.3875167"><ele>78.0</ele><time>2026-03-28T14:59:59.383Z</time></trkpt><trkpt lat="40.454495" lon="8.3874617"><ele>84.0</ele><time>2026-03-28T15:00:00.383Z</time></trkpt><trkpt lat="40.4547133" lon="8.387395"><ele>90.0</ele><time>2026-03-28T15:00:01.383Z</time></trkpt><trkpt lat="40.45494" lon="8.38731"><ele>90.0</ele><time>2026-03-28T15:00:02.383Z</time></trkpt><trkpt lat="40.45517" lon="8.3872233"><ele>90.0</ele><time>2026-03-28T15:00:03.383Z</time></trkpt><trkpt lat="40.455415" lon="8.387145"><ele>78.5</ele><time>2026-03-28T15:00:04.383Z</time></trkpt><trkpt lat="40.4556633" lon="8.3870583"><ele>67.0</ele><time>2026-03-28T15:00:05.383Z</time></trkpt><trkpt lat="40.4559067" lon="8.386965"><ele>67.0</ele><time>2026-03-28T15:00:06.383Z</time></trkpt><trkpt lat="40.4561383" lon="8.38686"><ele>67.0</ele><time>2026-03-28T15:00:07.382Z</time></trkpt><trkpt lat="40.456365" lon="8.3867583"><ele>69.0</ele><time>2026-03-28T15:00:08.383Z</time></trkpt><trkpt lat="40.4565917" lon="8.3866633"><ele>71.0</ele><time>2026-03-28T15:00:09.382Z</time></trkpt><trkpt lat="40.4568167" lon="8.3865817"><ele>71.0</ele><time>2026-03-28T15:00:10.383Z</time></trkpt><trkpt lat="40.4570483" lon="8.3865183"><ele>71.0</ele><time>2026-03-28T15:00:11.382Z</time></trkpt><trkpt lat="40.4572867" lon="8.386475"><ele>72.0</ele><time>2026-03-28T15:00:12.383Z</time></trkpt><trkpt lat="40.4575333" lon="8.3864483"><ele>73.0</ele><time>2026-03-28T15:00:13.383Z</time></trkpt><trkpt lat="40.4577883" lon="8.3864367"><ele>80.5</ele><time>2026-03-28T15:00:14.383Z</time></trkpt><trkpt lat="40.4580267" lon="8.386395"><ele>88.0</ele><time>2026-03-28T15:00:15.383Z</time></trkpt><trkpt lat="40.4582417" lon="8.386315"><ele>72.5</ele><time>2026-03-28T15:00:16.383Z</time></trkpt><trkpt lat="40.458435" lon="8.386175"><ele>57.0</ele><time>2026-03-28T15:00:17.383Z</time></trkpt><trkpt lat="40.45863" lon="8.3859833"><ele>62.33333333333333</ele><time>2026-03-28T15:00:18.383Z</time></trkpt><trkpt lat="40.4588183" lon="8.3858133"><ele>67.66666666666666</ele><time>2026-03-28T15:00:19.383Z</time></trkpt><trkpt lat="40.4589933" lon="8.385705"><ele>73.0</ele><time>2026-03-28T15:00:20.382Z</time></trkpt><trkpt lat="40.4591683" lon="8.38566"><ele>73.0</ele><time>2026-03-28T15:00:21.383Z</time></trkpt><trkpt lat="40.4593417" lon="8.3856667"><ele>73.0</ele><time>2026-03-28T15:00:22.383Z</time></trkpt><trkpt lat="40.4595267" lon="8.3857083"><ele>73.0</ele><time>2026-03-28T15:00:23.382Z</time></trkpt><trkpt lat="40.45974" lon="8.3857467"><ele>72.0</ele><time>2026-03-28T15:00:24.383Z</time></trkpt><trkpt lat="40.45994" lon="8.3857983"><ele>71.0</ele><time>2026-03-28T15:00:25.382Z</time></trkpt><trkpt lat="40.46011" lon="8.3858683"><ele>70.0</ele><time>2026-03-28T15:00:26.383Z</time></trkpt><trkpt lat="40.4602633" lon="8.3859867"><ele>70.0</ele><time>2026-03-28T15:00:27.383Z</time></trkpt><trkpt lat="40.46038" lon="8.3861283"><ele>70.0</ele><time>2026-03-28T15:00:28.383Z</time></trkpt><trkpt lat="40.4605" lon="8.386235"><ele>70.0</ele><time>2026-03-28T15:00:29.383Z</time></trkpt><trkpt lat="40.4606283" lon="8.386295"><ele>70.0</ele><time>2026-03-28T15:00:30.382Z</time></trkpt><trkpt lat="40.4607767" lon="8.3862733"><ele>67.33333333333333</ele><time>2026-03-28T15:00:31.383Z</time></trkpt><trkpt lat="40.4609167" lon="8.38618"><ele>64.66666666666667</ele><time>2026-03-28T15:00:32.383Z</time></trkpt><trkpt lat="40.461055" lon="8.386025"><ele>62.0</ele><time>2026-03-28T15:00:33.383Z</time></trkpt><trkpt lat="40.4612" lon="8.3858883"><ele>62.333333333333336</ele><time>2026-03-28T15:00:34.383Z</time></trkpt><trkpt lat="40.4613483" lon="8.3857917"><ele>62.66666666666667</ele><time>2026-03-28T15:00:35.383Z</time></trkpt><trkpt lat="40.4615267" lon="8.3857567"><ele>63.0</ele><time>2026-03-28T15:00:36.383Z</time></trkpt><trkpt lat="40.4617133" lon="8.3857617"><ele>63.0</ele><time>2026-03-28T15:00:37.383Z</time></trkpt><trkpt lat="40.46192" lon="8.38578"><ele>63.0</ele><time>2026-03-28T15:00:38.382Z</time></trkpt><trkpt lat="40.4621383" lon="8.385805"><ele>63.0</ele><time>2026-03-28T15:00:39.382Z</time></trkpt><trkpt lat="40.4623533" lon="8.385825"><ele>65.0</ele><time>2026-03-28T15:00:40.382Z</time></trkpt><trkpt lat="40.462585" lon="8.3858517"><ele>67.0</ele><time>2026-03-28T15:00:41.383Z</time></trkpt><trkpt lat="40.4628267" lon="8.3858633"><ele>67.0</ele><time>2026-03-28T15:00:42.382Z</time></trkpt><trkpt lat="40.4630717" lon="8.3858467"><ele>67.0</ele><time>2026-03-28T15:00:43.383Z</time></trkpt><trkpt lat="40.4633183" lon="8.385815"><ele>67.0</ele><time>2026-03-28T15:00:44.383Z</time></trkpt><trkpt lat="40.4635617" lon="8.3857433"><ele>67.0</ele><time>2026-03-28T15:00:45.383Z</time></trkpt><trkpt lat="40.46379" lon="8.385675"><ele>69.0</ele><time>2026-03-28T15:00:46.383Z</time></trkpt><trkpt lat="40.464025" lon="8.3856083"><ele>71.0</ele><time>2026-03-28T15:00:47.383Z</time></trkpt><trkpt lat="40.46427" lon="8.3855533"><ele>61.5</ele><time>2026-03-28T15:00:48.382Z</time></trkpt><trkpt lat="40.464515" lon="8.3854817"><ele>52.0</ele><time>2026-03-28T15:00:49.382Z</time></trkpt><trkpt lat="40.4647333" lon="8.38542"><ele>52.0</ele><time>2026-03-28T15:00:50.383Z</time></trkpt><trkpt lat="40.464955" lon="8.3853667"><ele>52.0</ele><time>2026-03-28T15:00:51.383Z</time></trkpt><trkpt lat="40.4651567" lon="8.3852983"><ele>52.0</ele><time>2026-03-28T15:00:52.383Z</time></trkpt><trkpt lat="40.4653617" lon="8.3852217"><ele>54.0</ele><time>2026-03-28T15:00:53.382Z</time></trkpt><trkpt lat="40.4655633" lon="8.3851383"><ele>56.0</ele><time>2026-03-28T15:00:54.383Z</time></trkpt><trkpt lat="40.4657467" lon="8.3850283"><ele>58.0</ele><time>2026-03-28T15:00:55.383Z</time></trkpt><trkpt lat="40.46594" lon="8.3848967"><ele>58.0</ele><time>2026-03-28T15:00:56.383Z</time></trkpt><trkpt lat="40.4661183" lon="8.3847583"><ele>58.0</ele><time>2026-03-28T15:00:57.383Z</time></trkpt><trkpt lat="40.4662733" lon="8.3845717"><ele>58.0</ele><time>2026-03-28T15:00:58.382Z</time></trkpt><trkpt lat="40.4664183" lon="8.3843617"><ele>56.5</ele><time>2026-03-28T15:00:59.383Z</time></trkpt><trkpt lat="40.4665583" lon="8.3841183"><ele>55.0</ele><time>2026-03-28T15:01:00.382Z</time></trkpt><trkpt lat="40.4667033" lon="8.38387"><ele>46.5</ele><time>2026-03-28T15:01:01.383Z</time></trkpt><trkpt lat="40.4668583" lon="8.3836283"><ele>38.0</ele><time>2026-03-28T15:01:02.382Z</time></trkpt><trkpt lat="40.4670167" lon="8.3834033"><ele>46.5</ele><time>2026-03-28T15:01:03.383Z</time></trkpt><trkpt lat="40.4671933" lon="8.383205"><ele>55.0</ele><time>2026-03-28T15:01:04.383Z</time></trkpt><trkpt lat="40.4673833" lon="8.383015"><ele>49.666666666666664</ele><time>2026-03-28T15:01:05.382Z</time></trkpt><trkpt lat="40.467575" lon="8.382845"><ele>44.33333333333333</ele><time>2026-03-28T15:01:06.383Z</time></trkpt><trkpt lat="40.4677517" lon="8.3826817"><ele>39.0</ele><time>2026-03-28T15:01:07.382Z</time></trkpt><trkpt lat="40.4679067" lon="8.3825017"><ele>40.0</ele><time>2026-03-28T15:01:08.383Z</time></trkpt><trkpt lat="40.4680533" lon="8.3822867"><ele>41.0</ele><time>2026-03-28T15:01:09.383Z</time></trkpt><trkpt lat="40.4681717" lon="8.382055"><ele>42.0</ele><time>2026-03-28T15:01:10.383Z</time></trkpt><trkpt lat="40.4682717" lon="8.381795"><ele>42.0</ele><time>2026-03-28T15:01:11.383Z</time></trkpt><trkpt lat="40.46838" lon="8.3815267"><ele>42.0</ele><time>2026-03-28T15:01:12.383Z</time></trkpt><trkpt lat="40.4685117" lon="8.3812933"><ele>39.333333333333336</ele><time>2026-03-28T15:01:13.383Z</time></trkpt><trkpt lat="40.4686617" lon="8.3810733"><ele>36.66666666666667</ele><time>2026-03-28T15:01:14.383Z</time></trkpt><trkpt lat="40.4688317" lon="8.3809217"><ele>34.0</ele><time>2026-03-28T15:01:15.383Z</time></trkpt><trkpt lat="40.469015" lon="8.380825"><ele>34.0</ele><time>2026-03-28T15:01:16.383Z</time></trkpt><trkpt lat="40.469215" lon="8.3807717"><ele>34.0</ele><time>2026-03-28T15:01:17.383Z</time></trkpt><trkpt lat="40.4693983" lon="8.3807667"><ele>34.0</ele><time>2026-03-28T15:01:18.382Z</time></trkpt><trkpt lat="40.4695683" lon="8.38084"><ele>33.66666666666667</ele><time>2026-03-28T15:01:19.383Z</time></trkpt><trkpt lat="40.4697217" lon="8.380955"><ele>33.333333333333336</ele><time>2026-03-28T15:01:20.383Z</time></trkpt><trkpt lat="40.4698517" lon="8.3811"><ele>33.0</ele><time>2026-03-28T15:01:21.383Z</time></trkpt><trkpt lat="40.4699283" lon="8.3812933"><ele>40.0</ele><time>2026-03-28T15:01:22.383Z</time></trkpt><trkpt lat="40.46997" lon="8.3815117"><ele>47.0</ele><time>2026-03-28T15:01:23.383Z</time></trkpt><trkpt lat="40.4700367" lon="8.381685"><ele>54.0</ele><time>2026-03-28T15:01:24.383Z</time></trkpt><trkpt lat="40.4701367" lon="8.3818167"><ele>54.0</ele><time>2026-03-28T15:01:25.383Z</time></trkpt><trkpt lat="40.47026" lon="8.381875"><ele>54.0</ele><time>2026-03-28T15:01:26.383Z</time></trkpt><trkpt lat="40.470395" lon="8.381865"><ele>54.0</ele><time>2026-03-28T15:01:27.383Z</time></trkpt><trkpt lat="40.4705433" lon="8.38181"><ele>54.0</ele><time>2026-03-28T15:01:28.383Z</time></trkpt><trkpt lat="40.4706983" lon="8.3817333"><ele>54.33333333333333</ele><time>2026-03-28T15:01:29.383Z</time></trkpt><trkpt lat="40.4708483" lon="8.38162"><ele>54.666666666666664</ele><time>2026-03-28T15:01:30.383Z</time></trkpt><trkpt lat="40.4710067" lon="8.3815033"><ele>55.0</ele><time>2026-03-28T15:01:31.383Z</time></trkpt><trkpt lat="40.4711617" lon="8.3813967"><ele>47.33333333333333</ele><time>2026-03-28T15:01:32.382Z</time></trkpt><trkpt lat="40.4713367" lon="8.3813233"><ele>39.666666666666664</ele><time>2026-03-28T15:01:33.383Z</time></trkpt><trkpt lat="40.4715367" lon="8.3812817"><ele>32.0</ele><time>2026-03-28T15:01:34.383Z</time></trkpt><trkpt lat="40.4717567" lon="8.3812467"><ele>32.0</ele><time>2026-03-28T15:01:35.383Z</time></trkpt><trkpt lat="40.4719983" lon="8.381215"><ele>32.0</ele><time>2026-03-28T15:01:36.383Z</time></trkpt><trkpt lat="40.4722317" lon="8.3811733"><ele>35.5</ele><time>2026-03-28T15:01:37.383Z</time></trkpt><trkpt lat="40.4724667" lon="8.381135"><ele>39.0</ele><time>2026-03-28T15:01:38.383Z</time></trkpt><trkpt lat="40.4726967" lon="8.381095"><ele>39.0</ele><time>2026-03-28T15:01:39.383Z</time></trkpt><trkpt lat="40.4729067" lon="8.3810617"><ele>39.0</ele><time>2026-03-28T15:01:40.383Z</time></trkpt><trkpt lat="40.4731267" lon="8.38105"><ele>39.0</ele><time>2026-03-28T15:01:41.382Z</time></trkpt><trkpt lat="40.473325" lon="8.3810833"><ele>40.0</ele><time>2026-03-28T15:01:42.383Z</time></trkpt><trkpt lat="40.47353" lon="8.38114"><ele>41.0</ele><time>2026-03-28T15:01:43.383Z</time></trkpt><trkpt lat="40.4737583" lon="8.38119"><ele>42.0</ele><time>2026-03-28T15:01:44.383Z</time></trkpt><trkpt lat="40.47397" lon="8.381195"><ele>43.666666666666664</ele><time>2026-03-28T15:01:45.383Z</time></trkpt><trkpt lat="40.4741733" lon="8.3811533"><ele>45.33333333333333</ele><time>2026-03-28T15:01:46.383Z</time></trkpt><trkpt lat="40.4743867" lon="8.38109"><ele>47.0</ele><time>2026-03-28T15:01:47.383Z</time></trkpt><trkpt lat="40.4745917" lon="8.3810217"><ele>48.33333333333333</ele><time>2026-03-28T15:01:48.383Z</time></trkpt><trkpt lat="40.4747833" lon="8.3809633"><ele>49.666666666666664</ele><time>2026-03-28T15:01:49.383Z</time></trkpt><trkpt lat="40.4749567" lon="8.3809033"><ele>51.0</ele><time>2026-03-28T15:01:50.382Z</time></trkpt><trkpt lat="40.4751067" lon="8.3808517"><ele>51.0</ele><time>2026-03-28T15:01:51.383Z</time></trkpt><trkpt lat="40.4752317" lon="8.3807867"><ele>51.0</ele><time>2026-03-28T15:01:52.383Z</time></trkpt><trkpt lat="40.4753367" lon="8.3806933"><ele>51.0</ele><time>2026-03-28T15:01:53.383Z</time></trkpt><trkpt lat="40.475435" lon="8.3805933"><ele>51.0</ele><time>2026-03-28T15:01:54.383Z</time></trkpt><trkpt lat="40.4755167" lon="8.380495"><ele>49.25</ele><time>2026-03-28T15:01:55.383Z</time></trkpt><trkpt lat="40.4756133" lon="8.3804033"><ele>47.5</ele><time>2026-03-28T15:01:56.382Z</time></trkpt><trkpt lat="40.4757217" lon="8.3803133"><ele>45.75</ele><time>2026-03-28T15:01:57.382Z</time></trkpt><trkpt lat="40.4758283" lon="8.38024"><ele>44.0</ele><time>2026-03-28T15:01:58.382Z</time></trkpt><trkpt lat="40.4759283" lon="8.3801633"><ele>44.0</ele><time>2026-03-28T15:01:59.383Z</time></trkpt><trkpt lat="40.47603" lon="8.380095"><ele>44.0</ele><time>2026-03-28T15:02:00.383Z</time></trkpt><trkpt lat="40.4761317" lon="8.3800433"><ele>44.0</ele><time>2026-03-28T15:02:01.383Z</time></trkpt><trkpt lat="40.476225" lon="8.3800167"><ele>44.0</ele><time>2026-03-28T15:02:02.383Z</time></trkpt><trkpt lat="40.4763333" lon="8.3800017"><ele>44.0</ele><time>2026-03-28T15:02:03.383Z</time></trkpt><trkpt lat="40.4764467" lon="8.3799867"><ele>45.2</ele><time>2026-03-28T15:02:04.383Z</time></trkpt><trkpt lat="40.4765617" lon="8.3799817"><ele>46.400000000000006</ele><time>2026-03-28T15:02:05.383Z</time></trkpt><trkpt lat="40.476675" lon="8.3799767"><ele>47.6</ele><time>2026-03-28T15:02:06.383Z</time></trkpt><trkpt lat="40.47679" lon="8.3799683"><ele>48.8</ele><time>2026-03-28T15:02:07.383Z</time></trkpt><trkpt lat="40.4768933" lon="8.3799483"><ele>50.0</ele><time>2026-03-28T15:02:08.382Z</time></trkpt><trkpt lat="40.4770083" lon="8.3799217"><ele>49.5</ele><time>2026-03-28T15:02:09.383Z</time></trkpt><trkpt lat="40.47712" lon="8.3798867"><ele>49.0</ele><time>2026-03-28T15:02:10.383Z</time></trkpt><trkpt lat="40.4772267" lon="8.3798467"><ele>48.5</ele><time>2026-03-28T15:02:11.383Z</time></trkpt><trkpt lat="40.4773333" lon="8.3797717"><ele>48.0</ele><time>2026-03-28T15:02:12.382Z</time></trkpt><trkpt lat="40.4774317" lon="8.379645"><ele>48.0</ele><time>2026-03-28T15:02:13.383Z</time></trkpt><trkpt lat="40.4775517" lon="8.3794733"><ele>48.0</ele><time>2026-03-28T15:02:14.382Z</time></trkpt><trkpt lat="40.47768" lon="8.3792983"><ele>48.0</ele><time>2026-03-28T15:02:15.382Z</time></trkpt><trkpt lat="40.4778383" lon="8.379135"><ele>46.0</ele><time>2026-03-28T15:02:16.382Z</time></trkpt><trkpt lat="40.478005" lon="8.378955"><ele>44.0</ele><time>2026-03-28T15:02:17.383Z</time></trkpt><trkpt lat="40.4781517" lon="8.3787717"><ele>42.0</ele><time>2026-03-28T15:02:18.382Z</time></trkpt><trkpt lat="40.47829" lon="8.3785967"><ele>42.0</ele><time>2026-03-28T15:02:19.383Z</time></trkpt><trkpt lat="40.4784383" lon="8.3784383"><ele>42.0</ele><time>2026-03-28T15:02:20.383Z</time></trkpt><trkpt lat="40.478605" lon="8.378295"><ele>42.0</ele><time>2026-03-28T15:02:21.383Z</time></trkpt><trkpt lat="40.4787683" lon="8.3781867"><ele>45.0</ele><time>2026-03-28T15:02:22.383Z</time></trkpt><trkpt lat="40.4789717" lon="8.3781033"><ele>48.0</ele><time>2026-03-28T15:02:23.383Z</time></trkpt><trkpt lat="40.4791683" lon="8.3780283"><ele>51.0</ele><time>2026-03-28T15:02:24.383Z</time></trkpt><trkpt lat="40.4793817" lon="8.3779467"><ele>44.333333333333336</ele><time>2026-03-28T15:02:25.382Z</time></trkpt><trkpt lat="40.47959" lon="8.377875"><ele>37.66666666666667</ele><time>2026-03-28T15:02:26.382Z</time></trkpt><trkpt lat="40.4798" lon="8.3778167"><ele>31.0</ele><time>2026-03-28T15:02:27.383Z</time></trkpt><trkpt lat="40.4800217" lon="8.3777583"><ele>31.0</ele><time>2026-03-28T15:02:28.383Z</time></trkpt><trkpt lat="40.4802467" lon="8.3777033"><ele>31.0</ele><time>2026-03-28T15:02:29.383Z</time></trkpt><trkpt lat="40.4804783" lon="8.3776683"><ele>29.5</ele><time>2026-03-28T15:02:30.383Z</time></trkpt><trkpt lat="40.48071" lon="8.37765"><ele>28.0</ele><time>2026-03-28T15:02:31.383Z</time></trkpt><trkpt lat="40.48095" lon="8.3776717"><ele>28.0</ele><time>2026-03-28T15:02:32.383Z</time></trkpt><trkpt lat="40.4811883" lon="8.3777117"><ele>28.0</ele><time>2026-03-28T15:02:33.383Z</time></trkpt><trkpt lat="40.4814333" lon="8.37774"><ele>29.0</ele><time>2026-03-28T15:02:34.383Z</time></trkpt><trkpt lat="40.4816733" lon="8.377785"><ele>30.0</ele><time>2026-03-28T15:02:35.382Z</time></trkpt><trkpt lat="40.4819133" lon="8.3778333"><ele>32.0</ele><time>2026-03-28T15:02:36.383Z</time></trkpt><trkpt lat="40.48214" lon="8.3778817"><ele>34.0</ele><time>2026-03-28T15:02:37.382Z</time></trkpt><trkpt lat="40.4823667" lon="8.37793"><ele>34.0</ele><time>2026-03-28T15:02:38.383Z</time></trkpt><trkpt lat="40.482595" lon="8.3779517"><ele>34.0</ele><time>2026-03-28T15:02:39.382Z</time></trkpt><trkpt lat="40.4828067" lon="8.3779483"><ele>34.0</ele><time>2026-03-28T15:02:40.382Z</time></trkpt><trkpt lat="40.4830317" lon="8.377915"><ele>35.5</ele><time>2026-03-28T15:02:41.382Z</time></trkpt><trkpt lat="40.4832433" lon="8.3778417"><ele>37.0</ele><time>2026-03-28T15:02:42.383Z</time></trkpt><trkpt lat="40.483465" lon="8.3777317"><ele>37.0</ele><time>2026-03-28T15:02:43.383Z</time></trkpt><trkpt lat="40.4836717" lon="8.3775933"><ele>37.0</ele><time>2026-03-28T15:02:44.383Z</time></trkpt><trkpt lat="40.4838533" lon="8.3774567"><ele>37.0</ele><time>2026-03-28T15:02:45.382Z</time></trkpt><trkpt lat="40.4840367" lon="8.377335"><ele>36.66666666666667</ele><time>2026-03-28T15:02:46.383Z</time></trkpt><trkpt lat="40.4842183" lon="8.377225"><ele>36.333333333333336</ele><time>2026-03-28T15:02:47.383Z</time></trkpt><trkpt lat="40.4844" lon="8.37717"><ele>36.0</ele><time>2026-03-28T15:02:48.382Z</time></trkpt><trkpt lat="40.4845733" lon="8.37716"><ele>36.333333333333336</ele><time>2026-03-28T15:02:49.383Z</time></trkpt><trkpt lat="40.4847567" lon="8.3771917"><ele>36.66666666666667</ele><time>2026-03-28T15:02:50.383Z</time></trkpt><trkpt lat="40.4849333" lon="8.3772933"><ele>37.0</ele><time>2026-03-28T15:02:51.383Z</time></trkpt><trkpt lat="40.4850767" lon="8.3774283"><ele>37.0</ele><time>2026-03-28T15:02:52.383Z</time></trkpt><trkpt lat="40.4852083" lon="8.3775983"><ele>37.0</ele><time>2026-03-28T15:02:53.383Z</time></trkpt><trkpt lat="40.4853267" lon="8.3777933"><ele>37.0</ele><time>2026-03-28T15:02:54.383Z</time></trkpt><trkpt lat="40.4854183" lon="8.3779883"><ele>38.0</ele><time>2026-03-28T15:02:55.383Z</time></trkpt><trkpt lat="40.4855117" lon="8.3781933"><ele>39.0</ele><time>2026-03-28T15:02:56.383Z</time></trkpt><trkpt lat="40.48562" lon="8.3783667"><ele>40.0</ele><time>2026-03-28T15:02:57.383Z</time></trkpt><trkpt lat="40.485735" lon="8.3784783"><ele>40.0</ele><time>2026-03-28T15:02:58.383Z</time></trkpt><trkpt lat="40.4858933" lon="8.3785217"><ele>40.0</ele><time>2026-03-28T15:02:59.382Z</time></trkpt><trkpt lat="40.4860767" lon="8.3785067"><ele>40.0</ele><time>2026-03-28T15:03:00.383Z</time></trkpt><trkpt lat="40.4862533" lon="8.3784483"><ele>39.333333333333336</ele><time>2026-03-28T15:03:01.382Z</time></trkpt><trkpt lat="40.48644" lon="8.3783683"><ele>38.666666666666664</ele><time>2026-03-28T15:03:02.383Z</time></trkpt><trkpt lat="40.48662" lon="8.3782583"><ele>38.0</ele><time>2026-03-28T15:03:03.383Z</time></trkpt><trkpt lat="40.486785" lon="8.3781283"><ele>35.33333333333333</ele><time>2026-03-28T15:03:04.383Z</time></trkpt><trkpt lat="40.4869133" lon="8.37797"><ele>32.666666666666664</ele><time>2026-03-28T15:03:05.383Z</time></trkpt><trkpt lat="40.4869917" lon="8.37777"><ele>30.0</ele><time>2026-03-28T15:03:06.382Z</time></trkpt><trkpt lat="40.4870333" lon="8.37754"><ele>30.0</ele><time>2026-03-28T15:03:07.383Z</time></trkpt><trkpt lat="40.487075" lon="8.3772867"><ele>30.0</ele><time>2026-03-28T15:03:08.383Z</time></trkpt><trkpt lat="40.4871433" lon="8.3770417"><ele>30.0</ele><time>2026-03-28T15:03:09.383Z</time></trkpt><trkpt lat="40.48724" lon="8.3768267"><ele>31.666666666666664</ele><time>2026-03-28T15:03:10.383Z</time></trkpt><trkpt lat="40.4873633" lon="8.37664"><ele>33.33333333333333</ele><time>2026-03-28T15:03:11.383Z</time></trkpt><trkpt lat="40.48752" lon="8.3764733"><ele>35.0</ele><time>2026-03-28T15:03:12.383Z</time></trkpt><trkpt lat="40.4876983" lon="8.3763233"><ele>32.666666666666664</ele><time>2026-03-28T15:03:13.382Z</time></trkpt><trkpt lat="40.4878983" lon="8.3761717"><ele>30.333333333333336</ele><time>2026-03-28T15:03:14.383Z</time></trkpt><trkpt lat="40.4880883" lon="8.37604"><ele>28.0</ele><time>2026-03-28T15:03:15.383Z</time></trkpt><trkpt lat="40.4882567" lon="8.3759283"><ele>28.0</ele><time>2026-03-28T15:03:16.382Z</time></trkpt><trkpt lat="40.488425" lon="8.375855"><ele>28.0</ele><time>2026-03-28T15:03:17.383Z</time></trkpt><trkpt lat="40.4885817" lon="8.37583"><ele>28.0</ele><time>2026-03-28T15:03:18.383Z</time></trkpt><trkpt lat="40.48874" lon="8.375855"><ele>28.5</ele><time>2026-03-28T15:03:19.383Z</time></trkpt><trkpt lat="40.48887" lon="8.375935"><ele>29.0</ele><time>2026-03-28T15:03:20.383Z</time></trkpt><trkpt lat="40.4889717" lon="8.3760467"><ele>29.5</ele><time>2026-03-28T15:03:21.383Z</time></trkpt><trkpt lat="40.4890567" lon="8.3761883"><ele>30.0</ele><time>2026-03-28T15:03:22.383Z</time></trkpt><trkpt lat="40.489125" lon="8.3763683"><ele>32.333333333333336</ele><time>2026-03-28T15:03:23.382Z</time></trkpt><trkpt lat="40.4891717" lon="8.3765517"><ele>34.66666666666667</ele><time>2026-03-28T15:03:24.383Z</time></trkpt><trkpt lat="40.489205" lon="8.3767467"><ele>37.0</ele><time>2026-03-28T15:03:25.382Z</time></trkpt><trkpt lat="40.48923" lon="8.3769433"><ele>37.0</ele><time>2026-03-28T15:03:26.383Z</time></trkpt><trkpt lat="40.489255" lon="8.3771233"><ele>37.0</ele><time>2026-03-28T15:03:27.383Z</time></trkpt><trkpt lat="40.4892817" lon="8.3773067"><ele>37.0</ele><time>2026-03-28T15:03:28.383Z</time></trkpt><trkpt lat="40.4893067" lon="8.3774733"><ele>37.0</ele><time>2026-03-28T15:03:29.383Z</time></trkpt><trkpt lat="40.48934" lon="8.3776267"><ele>39.25</ele><time>2026-03-28T15:03:30.383Z</time></trkpt><trkpt lat="40.4893883" lon="8.3777517"><ele>41.5</ele><time>2026-03-28T15:03:31.383Z</time></trkpt><trkpt lat="40.4894617" lon="8.3778767"><ele>43.75</ele><time>2026-03-28T15:03:32.383Z</time></trkpt><trkpt lat="40.4895433" lon="8.3779883"><ele>46.0</ele><time>2026-03-28T15:03:33.383Z</time></trkpt><trkpt lat="40.4896217" lon="8.3780917"><ele>47.199999999999996</ele><time>2026-03-28T15:03:34.383Z</time></trkpt><trkpt lat="40.4896883" lon="8.37819"><ele>48.4</ele><time>2026-03-28T15:03:35.383Z</time></trkpt><trkpt lat="40.4897533" lon="8.3782817"><ele>49.6</ele><time>2026-03-28T15:03:36.382Z</time></trkpt><trkpt lat="40.4898217" lon="8.3783817"><ele>50.8</ele><time>2026-03-28T15:03:37.383Z</time></trkpt><trkpt lat="40.4898967" lon="8.3784533"><ele>52.0</ele><time>2026-03-28T15:03:38.383Z</time></trkpt><trkpt lat="40.489985" lon="8.3785067"><ele>52.0</ele><time>2026-03-28T15:03:39.382Z</time></trkpt><trkpt lat="40.4900833" lon="8.3785433"><ele>52.0</ele><time>2026-03-28T15:03:40.383Z</time></trkpt><trkpt lat="40.4901833" lon="8.3785583"><ele>52.0</ele><time>2026-03-28T15:03:41.383Z</time></trkpt><trkpt lat="40.4902817" lon="8.3785533"><ele>52.0</ele><time>2026-03-28T15:03:42.383Z</time></trkpt><trkpt lat="40.4903733" lon="8.3785217"><ele>52.0</ele><time>2026-03-28T15:03:43.383Z</time></trkpt><trkpt lat="40.490475" lon="8.3784733"><ele>55.5</ele><time>2026-03-28T15:03:44.383Z</time></trkpt><trkpt lat="40.4905683" lon="8.3783967"><ele>59.0</ele><time>2026-03-28T15:03:45.383Z</time></trkpt><trkpt lat="40.4906633" lon="8.3782917"><ele>62.5</ele><time>2026-03-28T15:03:46.383Z</time></trkpt><trkpt lat="40.4907517" lon="8.3781717"><ele>66.0</ele><time>2026-03-28T15:03:47.383Z</time></trkpt><trkpt lat="40.4908167" lon="8.37803"><ele>64.0</ele><time>2026-03-28T15:03:48.383Z</time></trkpt><trkpt lat="40.4908617" lon="8.377855"><ele>62.0</ele><time>2026-03-28T15:03:49.382Z</time></trkpt><trkpt lat="40.4908633" lon="8.3776717"><ele>60.0</ele><time>2026-03-28T15:03:50.383Z</time></trkpt><trkpt lat="40.4908267" lon="8.3774883"><ele>58.0</ele><time>2026-03-28T15:03:51.383Z</time></trkpt><trkpt lat="40.4907683" lon="8.377305"><ele>59.0</ele><time>2026-03-28T15:03:52.383Z</time></trkpt><trkpt lat="40.4906933" lon="8.3771267"><ele>60.0</ele><time>2026-03-28T15:03:53.383Z</time></trkpt><trkpt lat="40.4906083" lon="8.376945"><ele>61.0</ele><time>2026-03-28T15:03:54.383Z</time></trkpt><trkpt lat="40.4905233" lon="8.37676"><ele>61.0</ele><time>2026-03-28T15:03:55.383Z</time></trkpt><trkpt lat="40.49044" lon="8.376595"><ele>61.0</ele><time>2026-03-28T15:03:56.383Z</time></trkpt><trkpt lat="40.490385" lon="8.376435"><ele>61.0</ele><time>2026-03-28T15:03:57.382Z</time></trkpt><trkpt lat="40.49035" lon="8.3762817"><ele>61.0</ele><time>2026-03-28T15:03:58.383Z</time></trkpt><trkpt lat="40.4903333" lon="8.3761183"><ele>61.25</ele><time>2026-03-28T15:03:59.382Z</time></trkpt><trkpt lat="40.49033" lon="8.3759533"><ele>61.5</ele><time>2026-03-28T15:04:00.383Z</time></trkpt><trkpt lat="40.4903683" lon="8.3757783"><ele>61.75</ele><time>2026-03-28T15:04:01.383Z</time></trkpt><trkpt lat="40.49044" lon="8.3756017"><ele>62.0</ele><time>2026-03-28T15:04:02.383Z</time></trkpt><trkpt lat="40.490525" lon="8.3754417"><ele>55.333333333333336</ele><time>2026-03-28T15:04:03.383Z</time></trkpt><trkpt lat="40.4906333" lon="8.3752933"><ele>48.66666666666667</ele><time>2026-03-28T15:04:04.383Z</time></trkpt><trkpt lat="40.4907733" lon="8.3751683"><ele>42.0</ele><time>2026-03-28T15:04:05.383Z</time></trkpt><trkpt lat="40.490935" lon="8.3750383"><ele>42.0</ele><time>2026-03-28T15:04:06.383Z</time></trkpt><trkpt lat="40.49111" lon="8.3748933"><ele>42.0</ele><time>2026-03-28T15:04:07.383Z</time></trkpt><trkpt lat="40.491295" lon="8.3747483"><ele>42.0</ele><time>2026-03-28T15:04:08.383Z</time></trkpt><trkpt lat="40.4914817" lon="8.374595"><ele>38.666666666666664</ele><time>2026-03-28T15:04:09.383Z</time></trkpt><trkpt lat="40.491665" lon="8.3744583"><ele>35.33333333333333</ele><time>2026-03-28T15:04:10.383Z</time></trkpt><trkpt lat="40.49184" lon="8.3743217"><ele>32.0</ele><time>2026-03-28T15:04:11.383Z</time></trkpt><trkpt lat="40.4920067" lon="8.374185"><ele>34.33333333333333</ele><time>2026-03-28T15:04:12.383Z</time></trkpt><trkpt lat="40.492185" lon="8.3740833"><ele>36.666666666666664</ele><time>2026-03-28T15:04:13.383Z</time></trkpt><trkpt lat="40.4923867" lon="8.3740167"><ele>39.0</ele><time>2026-03-28T15:04:14.383Z</time></trkpt><trkpt lat="40.4925933" lon="8.373975"><ele>39.0</ele><time>2026-03-28T15:04:15.383Z</time></trkpt><trkpt lat="40.4927983" lon="8.3739417"><ele>39.0</ele><time>2026-03-28T15:04:16.382Z</time></trkpt><trkpt lat="40.4929767" lon="8.373895"><ele>39.0</ele><time>2026-03-28T15:04:17.383Z</time></trkpt><trkpt lat="40.49315" lon="8.3738017"><ele>36.333333333333336</ele><time>2026-03-28T15:04:18.383Z</time></trkpt><trkpt lat="40.493295" lon="8.3736467"><ele>33.66666666666667</ele><time>2026-03-28T15:04:19.383Z</time></trkpt><trkpt lat="40.4934333" lon="8.3734417"><ele>31.0</ele><time>2026-03-28T15:04:20.383Z</time></trkpt><trkpt lat="40.49358" lon="8.37321"><ele>28.5</ele><time>2026-03-28T15:04:21.382Z</time></trkpt><trkpt lat="40.49373" lon="8.3729767"><ele>26.0</ele><time>2026-03-28T15:04:22.383Z</time></trkpt><trkpt lat="40.493885" lon="8.372755"><ele>26.0</ele><time>2026-03-28T15:04:23.383Z</time></trkpt><trkpt lat="40.4940367" lon="8.3725267"><ele>26.0</ele><time>2026-03-28T15:04:24.382Z</time></trkpt><trkpt lat="40.4941983" lon="8.3723533"><ele>26.0</ele><time>2026-03-28T15:04:25.383Z</time></trkpt><trkpt lat="40.4943517" lon="8.3722117"><ele>24.0</ele><time>2026-03-28T15:04:26.383Z</time></trkpt><trkpt lat="40.4945333" lon="8.3721083"><ele>22.0</ele><time>2026-03-28T15:04:27.383Z</time></trkpt><trkpt lat="40.49474" lon="8.371995"><ele>20.0</ele><time>2026-03-28T15:04:28.382Z</time></trkpt><trkpt lat="40.4949667" lon="8.3718867"><ele>20.0</ele><time>2026-03-28T15:04:29.383Z</time></trkpt><trkpt lat="40.4952117" lon="8.37177"><ele>20.0</ele><time>2026-03-28T15:04:30.383Z</time></trkpt><trkpt lat="40.4954733" lon="8.3716517"><ele>19.5</ele><time>2026-03-28T15:04:31.383Z</time></trkpt><trkpt lat="40.495735" lon="8.3715483"><ele>19.0</ele><time>2026-03-28T15:04:32.383Z</time></trkpt><trkpt lat="40.49599" lon="8.37145"><ele>17.5</ele><time>2026-03-28T15:04:33.383Z</time></trkpt><trkpt lat="40.4962417" lon="8.3713483"><ele>16.0</ele><time>2026-03-28T15:04:34.383Z</time></trkpt><trkpt lat="40.4964883" lon="8.371255"><ele>16.0</ele><time>2026-03-28T15:04:35.383Z</time></trkpt><trkpt lat="40.4967117" lon="8.3711717"><ele>16.0</ele><time>2026-03-28T15:04:36.383Z</time></trkpt><trkpt lat="40.49692" lon="8.371095"><ele>16.0</ele><time>2026-03-28T15:04:37.383Z</time></trkpt><trkpt lat="40.4970867" lon="8.3710217"><ele>16.75</ele><time>2026-03-28T15:04:38.382Z</time></trkpt><trkpt lat="40.4972167" lon="8.3709317"><ele>17.5</ele><time>2026-03-28T15:04:39.382Z</time></trkpt><trkpt lat="40.4973117" lon="8.37081"><ele>18.25</ele><time>2026-03-28T15:04:40.383Z</time></trkpt><trkpt lat="40.4973583" lon="8.3706417"><ele>19.0</ele><time>2026-03-28T15:04:41.382Z</time></trkpt><trkpt lat="40.497385" lon="8.3704417"><ele>17.0</ele><time>2026-03-28T15:04:42.383Z</time></trkpt><trkpt lat="40.4974033" lon="8.3702033"><ele>15.0</ele><time>2026-03-28T15:04:43.382Z</time></trkpt><trkpt lat="40.4974383" lon="8.369925"><ele>13.0</ele><time>2026-03-28T15:04:44.383Z</time></trkpt><trkpt lat="40.4974767" lon="8.3696383"><ele>11.0</ele><time>2026-03-28T15:04:45.383Z</time></trkpt><trkpt lat="40.4975283" lon="8.3693367"><ele>9.0</ele><time>2026-03-28T15:04:46.383Z</time></trkpt><trkpt lat="40.4975733" lon="8.3690283"><ele>9.5</ele><time>2026-03-28T15:04:47.383Z</time></trkpt><trkpt lat="40.49762" lon="8.36872"><ele>10.0</ele><time>2026-03-28T15:04:48.383Z</time></trkpt><trkpt lat="40.4976667" lon="8.3684467"><ele>10.0</ele><time>2026-03-28T15:04:49.383Z</time></trkpt><trkpt lat="40.4977117" lon="8.3682167"><ele>10.0</ele><time>2026-03-28T15:04:50.383Z</time></trkpt><trkpt lat="40.497785" lon="8.36806"><ele>10.0</ele><time>2026-03-28T15:04:51.383Z</time></trkpt><trkpt lat="40.4978733" lon="8.3679483"><ele>10.0</ele><time>2026-03-28T15:04:52.382Z</time></trkpt><trkpt lat="40.498" lon="8.36791"><ele>11.0</ele><time>2026-03-28T15:04:53.383Z</time></trkpt><trkpt lat="40.4981283" lon="8.3679367"><ele>12.0</ele><time>2026-03-28T15:04:54.383Z</time></trkpt><trkpt lat="40.498265" lon="8.3679917"><ele>13.0</ele><time>2026-03-28T15:04:55.382Z</time></trkpt><trkpt lat="40.498415" lon="8.368055"><ele>14.0</ele><time>2026-03-28T15:04:56.383Z</time></trkpt><trkpt lat="40.4985633" lon="8.3681033"><ele>14.0</ele><time>2026-03-28T15:04:57.383Z</time></trkpt><trkpt lat="40.498725" lon="8.36812"><ele>14.0</ele><time>2026-03-28T15:04:58.383Z</time></trkpt><trkpt lat="40.4988817" lon="8.36812"><ele>14.0</ele><time>2026-03-28T15:04:59.383Z</time></trkpt><trkpt lat="40.49904" lon="8.3680817"><ele>20.666666666666668</ele><time>2026-03-28T15:05:00.383Z</time></trkpt><trkpt lat="40.4991817" lon="8.367985"><ele>27.333333333333336</ele><time>2026-03-28T15:05:01.383Z</time></trkpt><trkpt lat="40.4993017" lon="8.3678517"><ele>34.0</ele><time>2026-03-28T15:05:02.382Z</time></trkpt><trkpt lat="40.4993883" lon="8.3676883"><ele>34.0</ele><time>2026-03-28T15:05:03.383Z</time></trkpt><trkpt lat="40.4994433" lon="8.36748"><ele>34.0</ele><time>2026-03-28T15:05:04.383Z</time></trkpt><trkpt lat="40.4994717" lon="8.36726"><ele>34.0</ele><time>2026-03-28T15:05:05.383Z</time></trkpt><trkpt lat="40.4994917" lon="8.3670267"><ele>31.666666666666668</ele><time>2026-03-28T15:05:06.382Z</time></trkpt><trkpt lat="40.4995233" lon="8.3668033"><ele>29.333333333333336</ele><time>2026-03-28T15:05:07.383Z</time></trkpt><trkpt lat="40.4995633" lon="8.366595"><ele>27.0</ele><time>2026-03-28T15:05:08.383Z</time></trkpt><trkpt lat="40.4996233" lon="8.3664033"><ele>34.66666666666667</ele><time>2026-03-28T15:05:09.382Z</time></trkpt><trkpt lat="40.49975" lon="8.3662433"><ele>42.333333333333336</ele><time>2026-03-28T15:05:10.382Z</time></trkpt><trkpt lat="40.4998833" lon="8.366115"><ele>50.0</ele><time>2026-03-28T15:05:11.382Z</time></trkpt><trkpt lat="40.5000583" lon="8.3660067"><ele>50.0</ele><time>2026-03-28T15:05:12.383Z</time></trkpt><trkpt lat="40.5002417" lon="8.365905"><ele>50.0</ele><time>2026-03-28T15:05:13.383Z</time></trkpt><trkpt lat="40.5004283" lon="8.365795"><ele>50.0</ele><time>2026-03-28T15:05:14.383Z</time></trkpt><trkpt lat="40.50062" lon="8.3656617"><ele>57.0</ele><time>2026-03-28T15:05:15.383Z</time></trkpt><trkpt lat="40.500805" lon="8.3655233"><ele>64.0</ele><time>2026-03-28T15:05:16.383Z</time></trkpt><trkpt lat="40.50099" lon="8.3653717"><ele>71.0</ele><time>2026-03-28T15:05:17.382Z</time></trkpt><trkpt lat="40.5011517" lon="8.3652217"><ele>68.66666666666667</ele><time>2026-03-28T15:05:18.383Z</time></trkpt><trkpt lat="40.50129" lon="8.36505"><ele>66.33333333333333</ele><time>2026-03-28T15:05:19.383Z</time></trkpt><trkpt lat="40.501405" lon="8.36485"><ele>64.0</ele><time>2026-03-28T15:05:20.382Z</time></trkpt><trkpt lat="40.5014867" lon="8.3646117"><ele>64.0</ele><time>2026-03-28T15:05:21.382Z</time></trkpt><trkpt lat="40.5015667" lon="8.3643583"><ele>64.0</ele><time>2026-03-28T15:05:22.383Z</time></trkpt><trkpt lat="40.5016417" lon="8.36409"><ele>64.0</ele><time>2026-03-28T15:05:23.383Z</time></trkpt><trkpt lat="40.5017167" lon="8.3638067"><ele>67.5</ele><time>2026-03-28T15:05:24.383Z</time></trkpt><trkpt lat="40.5017883" lon="8.3635217"><ele>71.0</ele><time>2026-03-28T15:05:25.383Z</time></trkpt><trkpt lat="40.5018583" lon="8.3632317"><ele>75.0</ele><time>2026-03-28T15:05:26.383Z</time></trkpt><trkpt lat="40.5019217" lon="8.3629317"><ele>79.0</ele><time>2026-03-28T15:05:27.383Z</time></trkpt><trkpt lat="40.5019833" lon="8.362625"><ele>79.0</ele><time>2026-03-28T15:05:28.383Z</time></trkpt><trkpt lat="40.5020533" lon="8.362325"><ele>79.0</ele><time>2026-03-28T15:05:29.383Z</time></trkpt><trkpt lat="40.5021233" lon="8.3620433"><ele>74.0</ele><time>2026-03-28T15:05:30.383Z</time></trkpt><trkpt lat="40.5021833" lon="8.36179"><ele>69.0</ele><time>2026-03-28T15:05:31.383Z</time></trkpt><trkpt lat="40.5022467" lon="8.3615383"><ele>64.0</ele><time>2026-03-28T15:05:32.383Z</time></trkpt><trkpt lat="40.5022983" lon="8.361305"><ele>64.0</ele><time>2026-03-28T15:05:33.382Z</time></trkpt><trkpt lat="40.502345" lon="8.3610883"><ele>64.0</ele><time>2026-03-28T15:05:34.383Z</time></trkpt><trkpt lat="40.5023817" lon="8.36086"><ele>64.0</ele><time>2026-03-28T15:05:35.382Z</time></trkpt><trkpt lat="40.502425" lon="8.3606233"><ele>65.66666666666666</ele><time>2026-03-28T15:05:36.382Z</time></trkpt><trkpt lat="40.50245" lon="8.360375"><ele>67.33333333333333</ele><time>2026-03-28T15:05:37.383Z</time></trkpt><trkpt lat="40.5024767" lon="8.3601417"><ele>69.0</ele><time>2026-03-28T15:05:38.383Z</time></trkpt><trkpt lat="40.5025067" lon="8.3599117"><ele>71.0</ele><time>2026-03-28T15:05:39.382Z</time></trkpt><trkpt lat="40.5025567" lon="8.3596833"><ele>73.0</ele><time>2026-03-28T15:05:40.382Z</time></trkpt><trkpt lat="40.5026117" lon="8.3594467"><ele>75.0</ele><time>2026-03-28T15:05:41.383Z</time></trkpt><trkpt lat="40.502695" lon="8.359215"><ele>75.0</ele><time>2026-03-28T15:05:42.382Z</time></trkpt><trkpt lat="40.50279" lon="8.3589783"><ele>75.0</ele><time>2026-03-28T15:05:43.382Z</time></trkpt><trkpt lat="40.502885" lon="8.3587517"><ele>75.0</ele><time>2026-03-28T15:05:44.382Z</time></trkpt><trkpt lat="40.50298" lon="8.3585383"><ele>71.66666666666667</ele><time>2026-03-28T15:05:45.383Z</time></trkpt><trkpt lat="40.5030583" lon="8.358355"><ele>68.33333333333334</ele><time>2026-03-28T15:05:46.383Z</time></trkpt><trkpt lat="40.5031683" lon="8.3581933"><ele>65.0</ele><time>2026-03-28T15:05:47.383Z</time></trkpt><trkpt lat="40.5033033" lon="8.3580683"><ele>64.66666666666667</ele><time>2026-03-28T15:05:48.383Z</time></trkpt><trkpt lat="40.50346" lon="8.35799"><ele>64.33333333333333</ele><time>2026-03-28T15:05:49.383Z</time></trkpt><trkpt lat="40.5036467" lon="8.3579183"><ele>64.0</ele><time>2026-03-28T15:05:50.383Z</time></trkpt><trkpt lat="40.5038367" lon="8.3578633"><ele>64.0</ele><time>2026-03-28T15:05:51.382Z</time></trkpt><trkpt lat="40.5040383" lon="8.3577933"><ele>64.0</ele><time>2026-03-28T15:05:52.383Z</time></trkpt><trkpt lat="40.5042367" lon="8.35773"><ele>64.0</ele><time>2026-03-28T15:05:53.383Z</time></trkpt><trkpt lat="40.504445" lon="8.3576367"><ele>62.5</ele><time>2026-03-28T15:05:54.383Z</time></trkpt><trkpt lat="40.5046567" lon="8.357535"><ele>61.0</ele><time>2026-03-28T15:05:55.382Z</time></trkpt><trkpt lat="40.5048683" lon="8.357425"><ele>61.0</ele><time>2026-03-28T15:05:56.382Z</time></trkpt><trkpt lat="40.5050667" lon="8.3572983"><ele>61.0</ele><time>2026-03-28T15:05:57.383Z</time></trkpt><trkpt lat="40.50527" lon="8.3571483"><ele>59.0</ele><time>2026-03-28T15:05:58.383Z</time></trkpt><trkpt lat="40.505465" lon="8.356995"><ele>57.0</ele><time>2026-03-28T15:05:59.382Z</time></trkpt><trkpt lat="40.5056717" lon="8.3568517"><ele>57.0</ele><time>2026-03-28T15:06:00.383Z</time></trkpt><trkpt lat="40.5058683" lon="8.3567133"><ele>57.0</ele><time>2026-03-28T15:06:01.382Z</time></trkpt><trkpt lat="40.50606" lon="8.3566033"><ele>57.0</ele><time>2026-03-28T15:06:02.382Z</time></trkpt><trkpt lat="40.5062467" lon="8.35652"><ele>56.5</ele><time>2026-03-28T15:06:03.383Z</time></trkpt><trkpt lat="40.5064633" lon="8.356465"><ele>56.0</ele><time>2026-03-28T15:06:04.382Z</time></trkpt><trkpt lat="40.5066933" lon="8.3564467"><ele>56.0</ele><time>2026-03-28T15:06:05.382Z</time></trkpt><trkpt lat="40.50692" lon="8.3564483"><ele>56.0</ele><time>2026-03-28T15:06:06.383Z</time></trkpt><trkpt lat="40.507155" lon="8.3564683"><ele>57.5</ele><time>2026-03-28T15:06:07.383Z</time></trkpt><trkpt lat="40.5074033" lon="8.3565"><ele>59.0</ele><time>2026-03-28T15:06:08.383Z</time></trkpt><trkpt lat="40.5076583" lon="8.3565283"><ele>61.0</ele><time>2026-03-28T15:06:09.383Z</time></trkpt><trkpt lat="40.5079183" lon="8.3565617"><ele>63.0</ele><time>2026-03-28T15:06:10.383Z</time></trkpt><trkpt lat="40.508185" lon="8.3565767"><ele>63.0</ele><time>2026-03-28T15:06:11.383Z</time></trkpt><trkpt lat="40.50845" lon="8.35659"><ele>63.0</ele><time>2026-03-28T15:06:12.382Z</time></trkpt><trkpt lat="40.5087" lon="8.3565983"><ele>65.5</ele><time>2026-03-28T15:06:13.383Z</time></trkpt><trkpt lat="40.508945" lon="8.3566083"><ele>68.0</ele><time>2026-03-28T15:06:14.383Z</time></trkpt><trkpt lat="40.5091783" lon="8.3566233"><ele>68.0</ele><time>2026-03-28T15:06:15.383Z</time></trkpt><trkpt lat="40.5094" lon="8.3566417"><ele>68.0</ele><time>2026-03-28T15:06:16.383Z</time></trkpt><trkpt lat="40.509605" lon="8.3566583"><ele>68.0</ele><time>2026-03-28T15:06:17.382Z</time></trkpt><trkpt lat="40.50981" lon="8.3566633"><ele>70.66666666666667</ele><time>2026-03-28T15:06:18.383Z</time></trkpt><trkpt lat="40.5100133" lon="8.3566483"><ele>73.33333333333333</ele><time>2026-03-28T15:06:19.382Z</time></trkpt><trkpt lat="40.5101817" lon="8.3565817"><ele>76.0</ele><time>2026-03-28T15:06:20.383Z</time></trkpt><trkpt lat="40.51034" lon="8.3564567"><ele>79.0</ele><time>2026-03-28T15:06:21.383Z</time></trkpt><trkpt lat="40.510495" lon="8.3563083"><ele>82.0</ele><time>2026-03-28T15:06:22.382Z</time></trkpt><trkpt lat="40.51066" lon="8.3561483"><ele>85.0</ele><time>2026-03-28T15:06:23.382Z</time></trkpt><trkpt lat="40.5108117" lon="8.355995"><ele>85.0</ele><time>2026-03-28T15:06:24.383Z</time></trkpt><trkpt lat="40.5109783" lon="8.3558317"><ele>85.0</ele><time>2026-03-28T15:06:25.383Z</time></trkpt><trkpt lat="40.5111567" lon="8.3556667"><ele>85.0</ele><time>2026-03-28T15:06:26.383Z</time></trkpt><trkpt lat="40.5113317" lon="8.3554883"><ele>88.0</ele><time>2026-03-28T15:06:27.383Z</time></trkpt><trkpt lat="40.5114967" lon="8.3553233"><ele>91.0</ele><time>2026-03-28T15:06:28.383Z</time></trkpt><trkpt lat="40.5116567" lon="8.3551433"><ele>94.0</ele><time>2026-03-28T15:06:29.382Z</time></trkpt><trkpt lat="40.5118067" lon="8.3549417"><ele>94.0</ele><time>2026-03-28T15:06:30.383Z</time></trkpt><trkpt lat="40.5119433" lon="8.3547117"><ele>94.0</ele><time>2026-03-28T15:06:31.383Z</time></trkpt><trkpt lat="40.5120667" lon="8.3544633"><ele>94.0</ele><time>2026-03-28T15:06:32.383Z</time></trkpt><trkpt lat="40.5121967" lon="8.3542133"><ele>99.5</ele><time>2026-03-28T15:06:33.383Z</time></trkpt><trkpt lat="40.5123267" lon="8.3539583"><ele>105.0</ele><time>2026-03-28T15:06:34.383Z</time></trkpt><trkpt lat="40.5124517" lon="8.353715"><ele>106.66666666666666</ele><time>2026-03-28T15:06:35.383Z</time></trkpt><trkpt lat="40.5125567" lon="8.3534817"><ele>108.33333333333333</ele><time>2026-03-28T15:06:36.383Z</time></trkpt><trkpt lat="40.5126633" lon="8.3532633"><ele>110.0</ele><time>2026-03-28T15:06:37.382Z</time></trkpt><trkpt lat="40.5127383" lon="8.3530583"><ele>111.0</ele><time>2026-03-28T15:06:38.382Z</time></trkpt><trkpt lat="40.5127983" lon="8.352855"><ele>112.0</ele><time>2026-03-28T15:06:39.383Z</time></trkpt><trkpt lat="40.5128133" lon="8.352635"><ele>113.0</ele><time>2026-03-28T15:06:40.383Z</time></trkpt><trkpt lat="40.5127883" lon="8.3524117"><ele>112.0</ele><time>2026-03-28T15:06:41.382Z</time></trkpt><trkpt lat="40.5127417" lon="8.35217"><ele>111.0</ele><time>2026-03-28T15:06:42.383Z</time></trkpt><trkpt lat="40.5126983" lon="8.35191"><ele>110.0</ele><time>2026-03-28T15:06:43.383Z</time></trkpt><trkpt lat="40.512645" lon="8.351635"><ele>107.5</ele><time>2026-03-28T15:06:44.383Z</time></trkpt><trkpt lat="40.5125883" lon="8.351335"><ele>105.0</ele><time>2026-03-28T15:06:45.383Z</time></trkpt><trkpt lat="40.5125383" lon="8.3510183"><ele>105.0</ele><time>2026-03-28T15:06:46.383Z</time></trkpt><trkpt lat="40.5124967" lon="8.3507033"><ele>105.0</ele><time>2026-03-28T15:06:47.382Z</time></trkpt><trkpt lat="40.5124533" lon="8.3503817"><ele>105.5</ele><time>2026-03-28T15:06:48.382Z</time></trkpt><trkpt lat="40.5124067" lon="8.350055"><ele>106.0</ele><time>2026-03-28T15:06:49.383Z</time></trkpt><trkpt lat="40.5123533" lon="8.349725"><ele>105.5</ele><time>2026-03-28T15:06:50.383Z</time></trkpt><trkpt lat="40.5123083" lon="8.3494033"><ele>105.0</ele><time>2026-03-28T15:06:51.383Z</time></trkpt><trkpt lat="40.5122667" lon="8.3491"><ele>104.0</ele><time>2026-03-28T15:06:52.382Z</time></trkpt><trkpt lat="40.512235" lon="8.3488117"><ele>103.0</ele><time>2026-03-28T15:06:53.383Z</time></trkpt><trkpt lat="40.5122117" lon="8.3485433"><ele>102.0</ele><time>2026-03-28T15:06:54.383Z</time></trkpt><trkpt lat="40.5122" lon="8.34827"><ele>101.66666666666666</ele><time>2026-03-28T15:06:55.382Z</time></trkpt><trkpt lat="40.512215" lon="8.347975"><ele>101.33333333333333</ele><time>2026-03-28T15:06:56.383Z</time></trkpt><trkpt lat="40.5122567" lon="8.3476917"><ele>101.0</ele><time>2026-03-28T15:06:57.382Z</time></trkpt><trkpt lat="40.512295" lon="8.3474067"><ele>100.33333333333333</ele><time>2026-03-28T15:06:58.383Z</time></trkpt><trkpt lat="40.512335" lon="8.3471267"><ele>99.66666666666666</ele><time>2026-03-28T15:06:59.383Z</time></trkpt><trkpt lat="40.5123633" lon="8.3468483"><ele>99.0</ele><time>2026-03-28T15:07:00.382Z</time></trkpt><trkpt lat="40.512405" lon="8.346575"><ele>99.0</ele><time>2026-03-28T15:07:01.382Z</time></trkpt><trkpt lat="40.5124567" lon="8.3463267"><ele>99.0</ele><time>2026-03-28T15:07:02.383Z</time></trkpt><trkpt lat="40.5125233" lon="8.3460917"><ele>99.0</ele><time>2026-03-28T15:07:03.383Z</time></trkpt><trkpt lat="40.5126117" lon="8.34587"><ele>99.0</ele><time>2026-03-28T15:07:04.383Z</time></trkpt><trkpt lat="40.5127183" lon="8.34564"><ele>99.0</ele><time>2026-03-28T15:07:05.383Z</time></trkpt><trkpt lat="40.51285" lon="8.3454117"><ele>99.0</ele><time>2026-03-28T15:07:06.383Z</time></trkpt><trkpt lat="40.5129883" lon="8.3451717"><ele>99.0</ele><time>2026-03-28T15:07:07.383Z</time></trkpt><trkpt lat="40.5131367" lon="8.34492"><ele>99.0</ele><time>2026-03-28T15:07:08.383Z</time></trkpt><trkpt lat="40.5132917" lon="8.3446633"><ele>97.0</ele><time>2026-03-28T15:07:09.383Z</time></trkpt><trkpt lat="40.5134367" lon="8.34441"><ele>95.0</ele><time>2026-03-28T15:07:10.382Z</time></trkpt><trkpt lat="40.513575" lon="8.3441583"><ele>95.0</ele><time>2026-03-28T15:07:11.383Z</time></trkpt><trkpt lat="40.5137117" lon="8.3439133"><ele>95.0</ele><time>2026-03-28T15:07:12.383Z</time></trkpt><trkpt lat="40.51384" lon="8.3436767"><ele>95.33333333333334</ele><time>2026-03-28T15:07:13.383Z</time></trkpt><trkpt lat="40.51397" lon="8.3434383"><ele>95.66666666666667</ele><time>2026-03-28T15:07:14.382Z</time></trkpt><trkpt lat="40.514115" lon="8.3432233"><ele>96.0</ele><time>2026-03-28T15:07:15.383Z</time></trkpt><trkpt lat="40.514265" lon="8.3430517"><ele>95.33333333333333</ele><time>2026-03-28T15:07:16.383Z</time></trkpt><trkpt lat="40.5144233" lon="8.34292"><ele>94.66666666666666</ele><time>2026-03-28T15:07:17.383Z</time></trkpt><trkpt lat="40.51461" lon="8.3427983"><ele>94.0</ele><time>2026-03-28T15:07:18.382Z</time></trkpt><trkpt lat="40.514825" lon="8.3426933"><ele>94.0</ele><time>2026-03-28T15:07:19.382Z</time></trkpt><trkpt lat="40.5150267" lon="8.3425817"><ele>94.0</ele><time>2026-03-28T15:07:20.383Z</time></trkpt><trkpt lat="40.5152283" lon="8.3424567"><ele>94.0</ele><time>2026-03-28T15:07:21.382Z</time></trkpt><trkpt lat="40.5154167" lon="8.3423567"><ele>94.33333333333333</ele><time>2026-03-28T15:07:22.383Z</time></trkpt><trkpt lat="40.5156233" lon="8.3422933"><ele>94.66666666666667</ele><time>2026-03-28T15:07:23.382Z</time></trkpt><trkpt lat="40.5158317" lon="8.3422667"><ele>95.0</ele><time>2026-03-28T15:07:24.383Z</time></trkpt><trkpt lat="40.5160483" lon="8.3422617"><ele>94.0</ele><time>2026-03-28T15:07:25.382Z</time></trkpt><trkpt lat="40.5162867" lon="8.3422667"><ele>93.0</ele><time>2026-03-28T15:07:26.383Z</time></trkpt><trkpt lat="40.5165333" lon="8.342265"><ele>93.0</ele><time>2026-03-28T15:07:27.383Z</time></trkpt><trkpt lat="40.5167767" lon="8.3422733"><ele>93.0</ele><time>2026-03-28T15:07:28.383Z</time></trkpt><trkpt lat="40.51702" lon="8.3422883"><ele>93.0</ele><time>2026-03-28T15:07:29.383Z</time></trkpt><trkpt lat="40.517275" lon="8.34229"><ele>93.0</ele><time>2026-03-28T15:07:30.382Z</time></trkpt><trkpt lat="40.5175233" lon="8.342295"><ele>93.0</ele><time>2026-03-28T15:07:31.383Z</time></trkpt><trkpt lat="40.5177667" lon="8.3423"><ele>93.0</ele><time>2026-03-28T15:07:32.383Z</time></trkpt><trkpt lat="40.5180033" lon="8.3422983"><ele>93.0</ele><time>2026-03-28T15:07:33.382Z</time></trkpt><trkpt lat="40.5182383" lon="8.342295"><ele>93.0</ele><time>2026-03-28T15:07:34.383Z</time></trkpt><trkpt lat="40.5184683" lon="8.3423067"><ele>93.0</ele><time>2026-03-28T15:07:35.383Z</time></trkpt><trkpt lat="40.5186983" lon="8.342335"><ele>93.0</ele><time>2026-03-28T15:07:36.383Z</time></trkpt><trkpt lat="40.5189417" lon="8.34235"><ele>92.5</ele><time>2026-03-28T15:07:37.383Z</time></trkpt><trkpt lat="40.51918" lon="8.3423967"><ele>92.0</ele><time>2026-03-28T15:07:38.382Z</time></trkpt><trkpt lat="40.5193917" lon="8.3424533"><ele>90.66666666666667</ele><time>2026-03-28T15:07:39.383Z</time></trkpt><trkpt lat="40.519595" lon="8.3424967"><ele>89.33333333333333</ele><time>2026-03-28T15:07:40.383Z</time></trkpt><trkpt lat="40.5197883" lon="8.342525"><ele>88.0</ele><time>2026-03-28T15:07:41.383Z</time></trkpt><trkpt lat="40.5199783" lon="8.3425083"><ele>88.0</ele><time>2026-03-28T15:07:42.383Z</time></trkpt><trkpt lat="40.520165" lon="8.3424567"><ele>88.0</ele><time>2026-03-28T15:07:43.383Z</time></trkpt><trkpt lat="40.5203533" lon="8.34234"><ele>88.0</ele><time>2026-03-28T15:07:44.382Z</time></trkpt><trkpt lat="40.52054" lon="8.3422017"><ele>85.33333333333333</ele><time>2026-03-28T15:07:45.383Z</time></trkpt><trkpt lat="40.5207233" lon="8.3420733"><ele>82.66666666666667</ele><time>2026-03-28T15:07:46.383Z</time></trkpt><trkpt lat="40.5209017" lon="8.3419433"><ele>80.0</ele><time>2026-03-28T15:07:47.383Z</time></trkpt><trkpt lat="40.5210633" lon="8.3418033"><ele>80.0</ele><time>2026-03-28T15:07:48.383Z</time></trkpt><trkpt lat="40.5212133" lon="8.3416217"><ele>80.0</ele><time>2026-03-28T15:07:49.383Z</time></trkpt><trkpt lat="40.5213533" lon="8.341405"><ele>80.0</ele><time>2026-03-28T15:07:50.382Z</time></trkpt><trkpt lat="40.5214833" lon="8.3411617"><ele>78.0</ele><time>2026-03-28T15:07:51.383Z</time></trkpt><trkpt lat="40.521625" lon="8.3409"><ele>76.0</ele><time>2026-03-28T15:07:52.383Z</time></trkpt><trkpt lat="40.52178" lon="8.34062"><ele>75.5</ele><time>2026-03-28T15:07:53.383Z</time></trkpt><trkpt lat="40.5219383" lon="8.3403367"><ele>75.0</ele><time>2026-03-28T15:07:54.382Z</time></trkpt><trkpt lat="40.522095" lon="8.340055"><ele>73.5</ele><time>2026-03-28T15:07:55.383Z</time></trkpt><trkpt lat="40.5222417" lon="8.3397933"><ele>72.0</ele><time>2026-03-28T15:07:56.383Z</time></trkpt><trkpt lat="40.522385" lon="8.3395317"><ele>70.0</ele><time>2026-03-28T15:07:57.383Z</time></trkpt><trkpt lat="40.522525" lon="8.3392783"><ele>68.0</ele><time>2026-03-28T15:07:58.383Z</time></trkpt><trkpt lat="40.5226583" lon="8.3390283"><ele>67.5</ele><time>2026-03-28T15:07:59.382Z</time></trkpt><trkpt lat="40.5227817" lon="8.33878"><ele>67.0</ele><time>2026-03-28T15:08:00.383Z</time></trkpt><trkpt lat="40.5229217" lon="8.3385433"><ele>64.66666666666666</ele><time>2026-03-28T15:08:01.383Z</time></trkpt><trkpt lat="40.5230517" lon="8.338315"><ele>62.33333333333333</ele><time>2026-03-28T15:08:02.383Z</time></trkpt><trkpt lat="40.5231767" lon="8.33809"><ele>60.0</ele><time>2026-03-28T15:08:03.383Z</time></trkpt><trkpt lat="40.5232883" lon="8.3378783"><ele>59.0</ele><time>2026-03-28T15:08:04.382Z</time></trkpt><trkpt lat="40.5233983" lon="8.33767"><ele>58.0</ele><time>2026-03-28T15:08:05.383Z</time></trkpt><trkpt lat="40.52349" lon="8.3374733"><ele>57.0</ele><time>2026-03-28T15:08:06.383Z</time></trkpt><trkpt lat="40.5235633" lon="8.337265"><ele>56.0</ele><time>2026-03-28T15:08:07.383Z</time></trkpt><trkpt lat="40.5236217" lon="8.3370483"><ele>55.0</ele><time>2026-03-28T15:08:08.383Z</time></trkpt><trkpt lat="40.52365" lon="8.336785"><ele>54.0</ele><time>2026-03-28T15:08:09.383Z</time></trkpt><trkpt lat="40.5236633" lon="8.336505"><ele>51.5</ele><time>2026-03-28T15:08:10.383Z</time></trkpt><trkpt lat="40.52366" lon="8.336215"><ele>49.0</ele><time>2026-03-28T15:08:11.383Z</time></trkpt><trkpt lat="40.5236583" lon="8.3359083"><ele>49.0</ele><time>2026-03-28T15:08:12.383Z</time></trkpt><trkpt lat="40.523655" lon="8.3356167"><ele>49.0</ele><time>2026-03-28T15:08:13.383Z</time></trkpt><trkpt lat="40.5236333" lon="8.3353383"><ele>49.0</ele><time>2026-03-28T15:08:14.383Z</time></trkpt><trkpt lat="40.5236017" lon="8.3350867"><ele>45.666666666666664</ele><time>2026-03-28T15:08:15.383Z</time></trkpt><trkpt lat="40.5235317" lon="8.3348633"><ele>42.33333333333333</ele><time>2026-03-28T15:08:16.382Z</time></trkpt><trkpt lat="40.52344" lon="8.3346733"><ele>39.0</ele><time>2026-03-28T15:08:17.383Z</time></trkpt><trkpt lat="40.5233083" lon="8.3344817"><ele>36.333333333333336</ele><time>2026-03-28T15:08:18.382Z</time></trkpt><trkpt lat="40.5231933" lon="8.33431"><ele>33.66666666666667</ele><time>2026-03-28T15:08:19.383Z</time></trkpt><trkpt lat="40.523095" lon="8.3341367"><ele>31.0</ele><time>2026-03-28T15:08:20.383Z</time></trkpt><trkpt lat="40.5230333" lon="8.3339833"><ele>28.75</ele><time>2026-03-28T15:08:21.383Z</time></trkpt><trkpt lat="40.5230233" lon="8.333815"><ele>26.5</ele><time>2026-03-28T15:08:22.383Z</time></trkpt><trkpt lat="40.5230633" lon="8.3336467"><ele>24.25</ele><time>2026-03-28T15:08:23.383Z</time></trkpt><trkpt lat="40.5231417" lon="8.33348"><ele>22.0</ele><time>2026-03-28T15:08:24.382Z</time></trkpt><trkpt lat="40.5232483" lon="8.3332933"><ele>22.0</ele><time>2026-03-28T15:08:25.383Z</time></trkpt><trkpt lat="40.52336" lon="8.3330917"><ele>22.0</ele><time>2026-03-28T15:08:26.383Z</time></trkpt><trkpt lat="40.5234833" lon="8.3329083"><ele>22.0</ele><time>2026-03-28T15:08:27.383Z</time></trkpt><trkpt lat="40.523635" lon="8.3327667"><ele>21.0</ele><time>2026-03-28T15:08:28.383Z</time></trkpt><trkpt lat="40.5238167" lon="8.3326633"><ele>20.0</ele><time>2026-03-28T15:08:29.383Z</time></trkpt><trkpt lat="40.5240133" lon="8.3325933"><ele>19.0</ele><time>2026-03-28T15:08:30.383Z</time></trkpt><trkpt lat="40.5242117" lon="8.3325"><ele>19.0</ele><time>2026-03-28T15:08:31.383Z</time></trkpt><trkpt lat="40.5244117" lon="8.3323833"><ele>19.0</ele><time>2026-03-28T15:08:32.382Z</time></trkpt><trkpt lat="40.5246167" lon="8.3322483"><ele>19.0</ele><time>2026-03-28T15:08:33.382Z</time></trkpt><trkpt lat="40.5248317" lon="8.3320883"><ele>16.5</ele><time>2026-03-28T15:08:34.383Z</time></trkpt><trkpt lat="40.5250417" lon="8.3319067"><ele>14.0</ele><time>2026-03-28T15:08:35.383Z</time></trkpt><trkpt lat="40.52525" lon="8.331715"><ele>13.5</ele><time>2026-03-28T15:08:36.383Z</time></trkpt><trkpt lat="40.5254567" lon="8.3315117"><ele>13.0</ele><time>2026-03-28T15:08:37.383Z</time></trkpt><trkpt lat="40.525645" lon="8.3312883"><ele>13.0</ele><time>2026-03-28T15:08:38.382Z</time></trkpt><trkpt lat="40.5258167" lon="8.33107"><ele>13.0</ele><time>2026-03-28T15:08:39.382Z</time></trkpt><trkpt lat="40.5259783" lon="8.3308933"><ele>13.0</ele><time>2026-03-28T15:08:40.383Z</time></trkpt><trkpt lat="40.5261483" lon="8.3307683"><ele>20.0</ele><time>2026-03-28T15:08:41.383Z</time></trkpt><trkpt lat="40.526335" lon="8.33069"><ele>27.0</ele><time>2026-03-28T15:08:42.383Z</time></trkpt><trkpt lat="40.5265283" lon="8.3306467"><ele>34.0</ele><time>2026-03-28T15:08:43.383Z</time></trkpt><trkpt lat="40.52674" lon="8.3306"><ele>30.0</ele><time>2026-03-28T15:08:44.383Z</time></trkpt><trkpt lat="40.5269517" lon="8.3305167"><ele>26.0</ele><time>2026-03-28T15:08:45.383Z</time></trkpt><trkpt lat="40.5271783" lon="8.3304183"><ele>26.0</ele><time>2026-03-28T15:08:46.383Z</time></trkpt><trkpt lat="40.5273883" lon="8.3303067"><ele>26.0</ele><time>2026-03-28T15:08:47.383Z</time></trkpt><trkpt lat="40.527595" lon="8.33017"><ele>26.0</ele><time>2026-03-28T15:08:48.383Z</time></trkpt><trkpt lat="40.527795" lon="8.3300067"><ele>26.0</ele><time>2026-03-28T15:08:49.383Z</time></trkpt><trkpt lat="40.52798" lon="8.3298383"><ele>26.333333333333332</ele><time>2026-03-28T15:08:50.382Z</time></trkpt><trkpt lat="40.5281417" lon="8.3296683"><ele>26.666666666666664</ele><time>2026-03-28T15:08:51.383Z</time></trkpt><trkpt lat="40.5282967" lon="8.3295083"><ele>27.0</ele><time>2026-03-28T15:08:52.383Z</time></trkpt><trkpt lat="40.528425" lon="8.32934"><ele>27.0</ele><time>2026-03-28T15:08:53.383Z</time></trkpt><trkpt lat="40.52852" lon="8.329155"><ele>27.0</ele><time>2026-03-28T15:08:54.382Z</time></trkpt><trkpt lat="40.5286133" lon="8.3289683"><ele>27.0</ele><time>2026-03-28T15:08:55.383Z</time></trkpt><trkpt lat="40.5287183" lon="8.3288083"><ele>24.5</ele><time>2026-03-28T15:08:56.383Z</time></trkpt><trkpt lat="40.5288267" lon="8.3287033"><ele>22.0</ele><time>2026-03-28T15:08:57.383Z</time></trkpt><trkpt lat="40.52896" lon="8.328675"><ele>19.5</ele><time>2026-03-28T15:08:58.383Z</time></trkpt><trkpt lat="40.5291233" lon="8.3287267"><ele>17.0</ele><time>2026-03-28T15:08:59.383Z</time></trkpt><trkpt lat="40.5292833" lon="8.3287933"><ele>17.0</ele><time>2026-03-28T15:09:00.383Z</time></trkpt><trkpt lat="40.5294467" lon="8.3288217"><ele>17.0</ele><time>2026-03-28T15:09:01.383Z</time></trkpt><trkpt lat="40.52958" lon="8.3288017"><ele>17.0</ele><time>2026-03-28T15:09:02.382Z</time></trkpt><trkpt lat="40.5296983" lon="8.3287183"><ele>17.0</ele><time>2026-03-28T15:09:03.383Z</time></trkpt><trkpt lat="40.5298067" lon="8.3285667"><ele>17.666666666666668</ele><time>2026-03-28T15:09:04.383Z</time></trkpt><trkpt lat="40.52992" lon="8.3283767"><ele>18.333333333333332</ele><time>2026-03-28T15:09:05.383Z</time></trkpt><trkpt lat="40.5300633" lon="8.3281633"><ele>19.0</ele><time>2026-03-28T15:09:06.383Z</time></trkpt><trkpt lat="40.5302183" lon="8.3279383"><ele>19.0</ele><time>2026-03-28T15:09:07.383Z</time></trkpt><trkpt lat="40.5303683" lon="8.3277067"><ele>19.0</ele><time>2026-03-28T15:09:08.382Z</time></trkpt><trkpt lat="40.5305067" lon="8.3274967"><ele>19.0</ele><time>2026-03-28T15:09:09.383Z</time></trkpt><trkpt lat="40.530645" lon="8.3273233"><ele>17.666666666666664</ele><time>2026-03-28T15:09:10.382Z</time></trkpt><trkpt lat="40.530795" lon="8.32719"><ele>16.333333333333332</ele><time>2026-03-28T15:09:11.382Z</time></trkpt><trkpt lat="40.5309633" lon="8.3270933"><ele>15.0</ele><time>2026-03-28T15:09:12.383Z</time></trkpt><trkpt lat="40.53116" lon="8.3270183"><ele>18.333333333333336</ele><time>2026-03-28T15:09:13.383Z</time></trkpt><trkpt lat="40.5313683" lon="8.3269633"><ele>21.666666666666668</ele><time>2026-03-28T15:09:14.383Z</time></trkpt><trkpt lat="40.5315783" lon="8.3268983"><ele>25.0</ele><time>2026-03-28T15:09:15.383Z</time></trkpt><trkpt lat="40.5317883" lon="8.3268367"><ele>25.0</ele><time>2026-03-28T15:09:16.383Z</time></trkpt><trkpt lat="40.5320067" lon="8.3268183"><ele>25.0</ele><time>2026-03-28T15:09:17.382Z</time></trkpt><trkpt lat="40.5322183" lon="8.3268333"><ele>25.0</ele><time>2026-03-28T15:09:18.383Z</time></trkpt><trkpt lat="40.5324333" lon="8.326875"><ele>25.0</ele><time>2026-03-28T15:09:19.382Z</time></trkpt><trkpt lat="40.5326517" lon="8.32689"><ele>25.0</ele><time>2026-03-28T15:09:20.383Z</time></trkpt><trkpt lat="40.532875" lon="8.3268567"><ele>25.0</ele><time>2026-03-28T15:09:21.382Z</time></trkpt><trkpt lat="40.5331083" lon="8.326775"><ele>27.0</ele><time>2026-03-28T15:09:22.382Z</time></trkpt><trkpt lat="40.5333467" lon="8.326665"><ele>29.0</ele><time>2026-03-28T15:09:23.383Z</time></trkpt><trkpt lat="40.5335767" lon="8.3265567"><ele>32.0</ele><time>2026-03-28T15:09:24.383Z</time></trkpt><trkpt lat="40.5338217" lon="8.32647"><ele>35.0</ele><time>2026-03-28T15:09:25.383Z</time></trkpt><trkpt lat="40.5340767" lon="8.326375"><ele>27.0</ele><time>2026-03-28T15:09:26.383Z</time></trkpt><trkpt lat="40.534335" lon="8.3262683"><ele>19.0</ele><time>2026-03-28T15:09:27.383Z</time></trkpt><trkpt lat="40.5345817" lon="8.326185"><ele>19.0</ele><time>2026-03-28T15:09:28.382Z</time></trkpt><trkpt lat="40.5348117" lon="8.326105"><ele>19.0</ele><time>2026-03-28T15:09:29.383Z</time></trkpt><trkpt lat="40.5350417" lon="8.3260267"><ele>19.0</ele><time>2026-03-28T15:09:30.383Z</time></trkpt><trkpt lat="40.5352667" lon="8.32594"><ele>19.0</ele><time>2026-03-28T15:09:31.383Z</time></trkpt><trkpt lat="40.5354767" lon="8.325865"><ele>21.666666666666664</ele><time>2026-03-28T15:09:32.383Z</time></trkpt><trkpt lat="40.5356867" lon="8.3257917"><ele>24.333333333333332</ele><time>2026-03-28T15:09:33.383Z</time></trkpt><trkpt lat="40.5358833" lon="8.325725"><ele>27.0</ele><time>2026-03-28T15:09:34.383Z</time></trkpt><trkpt lat="40.5360733" lon="8.32566"><ele>26.666666666666664</ele><time>2026-03-28T15:09:35.382Z</time></trkpt><trkpt lat="40.5362467" lon="8.3255783"><ele>26.333333333333332</ele><time>2026-03-28T15:09:36.383Z</time></trkpt><trkpt lat="40.5363833" lon="8.32545"><ele>26.0</ele><time>2026-03-28T15:09:37.383Z</time></trkpt><trkpt lat="40.5364833" lon="8.32526"><ele>26.0</ele><time>2026-03-28T15:09:38.383Z</time></trkpt><trkpt lat="40.536555" lon="8.3250317"><ele>26.0</ele><time>2026-03-28T15:09:39.383Z</time></trkpt><trkpt lat="40.5366267" lon="8.3247867"><ele>26.0</ele><time>2026-03-28T15:09:40.383Z</time></trkpt><trkpt lat="40.5366967" lon="8.3245483"><ele>21.333333333333332</ele><time>2026-03-28T15:09:41.382Z</time></trkpt><trkpt lat="40.53677" lon="8.3243317"><ele>16.666666666666664</ele><time>2026-03-28T15:09:42.382Z</time></trkpt><trkpt lat="40.5368683" lon="8.3241517"><ele>12.0</ele><time>2026-03-28T15:09:43.383Z</time></trkpt><trkpt lat="40.5369667" lon="8.3240083"><ele>9.666666666666666</ele><time>2026-03-28T15:09:44.383Z</time></trkpt><trkpt lat="40.5370917" lon="8.323905"><ele>7.333333333333334</ele><time>2026-03-28T15:09:45.383Z</time></trkpt><trkpt lat="40.5372467" lon="8.32385"><ele>5.0</ele><time>2026-03-28T15:09:46.383Z</time></trkpt><trkpt lat="40.537425" lon="8.32383"><ele>5.0</ele><time>2026-03-28T15:09:47.383Z</time></trkpt><trkpt lat="40.5376117" lon="8.323865"><ele>5.0</ele><time>2026-03-28T15:09:48.383Z</time></trkpt><trkpt lat="40.5378" lon="8.3239317"><ele>5.0</ele><time>2026-03-28T15:09:49.382Z</time></trkpt><trkpt lat="40.537995" lon="8.3240233"><ele>7.333333333333334</ele><time>2026-03-28T15:09:50.382Z</time></trkpt><trkpt lat="40.5381967" lon="8.3240967"><ele>9.666666666666666</ele><time>2026-03-28T15:09:51.383Z</time></trkpt><trkpt lat="40.5383917" lon="8.3241633"><ele>12.0</ele><time>2026-03-28T15:09:52.383Z</time></trkpt><trkpt lat="40.5385817" lon="8.3242283"><ele>11.666666666666666</ele><time>2026-03-28T15:09:53.382Z</time></trkpt><trkpt lat="40.5387767" lon="8.324285"><ele>11.333333333333332</ele><time>2026-03-28T15:09:54.383Z</time></trkpt><trkpt lat="40.5389583" lon="8.3243417"><ele>11.0</ele><time>2026-03-28T15:09:55.383Z</time></trkpt><trkpt lat="40.53913" lon="8.324375"><ele>11.0</ele><time>2026-03-28T15:09:56.383Z</time></trkpt><trkpt lat="40.5393083" lon="8.3243517"><ele>11.0</ele><time>2026-03-28T15:09:57.383Z</time></trkpt><trkpt lat="40.539485" lon="8.3242733"><ele>11.0</ele><time>2026-03-28T15:09:58.383Z</time></trkpt><trkpt lat="40.5396833" lon="8.3241433"><ele>8.0</ele><time>2026-03-28T15:09:59.383Z</time></trkpt><trkpt lat="40.5398767" lon="8.3239967"><ele>5.0</ele><time>2026-03-28T15:10:00.383Z</time></trkpt><trkpt lat="40.5400883" lon="8.323835"><ele>5.0</ele><time>2026-03-28T15:10:01.383Z</time></trkpt><trkpt lat="40.5403117" lon="8.3236717"><ele>5.0</ele><time>2026-03-28T15:10:02.383Z</time></trkpt><trkpt lat="40.54053" lon="8.32351"><ele>12.5</ele><time>2026-03-28T15:10:03.383Z</time></trkpt><trkpt lat="40.5407317" lon="8.32336"><ele>20.0</ele><time>2026-03-28T15:10:04.382Z</time></trkpt><trkpt lat="40.5409217" lon="8.3231933"><ele>20.5</ele><time>2026-03-28T15:10:05.382Z</time></trkpt><trkpt lat="40.5410867" lon="8.3229983"><ele>21.0</ele><time>2026-03-28T15:10:06.383Z</time></trkpt><trkpt lat="40.5412383" lon="8.3227683"><ele>21.0</ele><time>2026-03-28T15:10:07.382Z</time></trkpt><trkpt lat="40.5413717" lon="8.322535"><ele>21.0</ele><time>2026-03-28T15:10:08.383Z</time></trkpt><trkpt lat="40.5414967" lon="8.3223083"><ele>21.0</ele><time>2026-03-28T15:10:09.383Z</time></trkpt><trkpt lat="40.5416017" lon="8.3221183"><ele>17.25</ele><time>2026-03-28T15:10:10.382Z</time></trkpt><trkpt lat="40.5417067" lon="8.3219783"><ele>13.5</ele><time>2026-03-28T15:10:11.383Z</time></trkpt><trkpt lat="40.5418333" lon="8.3219217"><ele>9.75</ele><time>2026-03-28T15:10:12.383Z</time></trkpt><trkpt lat="40.541955" lon="8.3219183"><ele>6.0</ele><time>2026-03-28T15:10:13.383Z</time></trkpt><trkpt lat="40.542075" lon="8.3219467"><ele>5.2</ele><time>2026-03-28T15:10:14.383Z</time></trkpt><trkpt lat="40.54219" lon="8.322"><ele>4.3999999999999995</ele><time>2026-03-28T15:10:15.383Z</time></trkpt><trkpt lat="40.5422733" lon="8.3220967"><ele>3.6</ele><time>2026-03-28T15:10:16.382Z</time></trkpt><trkpt lat="40.54233" lon="8.3222217"><ele>2.8</ele><time>2026-03-28T15:10:17.383Z</time></trkpt><trkpt lat="40.5423567" lon="8.32235"><ele>2.0</ele><time>2026-03-28T15:10:18.383Z</time></trkpt><trkpt lat="40.54238" lon="8.3224867"><ele>3.6</ele><time>2026-03-28T15:10:19.383Z</time></trkpt><trkpt lat="40.5424133" lon="8.3226083"><ele>5.2</ele><time>2026-03-28T15:10:20.382Z</time></trkpt><trkpt lat="40.54247" lon="8.3227183"><ele>6.8</ele><time>2026-03-28T15:10:21.383Z</time></trkpt><trkpt lat="40.5425383" lon="8.322815"><ele>8.4</ele><time>2026-03-28T15:10:22.383Z</time></trkpt><trkpt lat="40.5426083" lon="8.322915"><ele>10.0</ele><time>2026-03-28T15:10:23.383Z</time></trkpt><trkpt lat="40.5426933" lon="8.32299"><ele>10.0</ele><time>2026-03-28T15:10:24.383Z</time></trkpt><trkpt lat="40.5427933" lon="8.32305"><ele>10.0</ele><time>2026-03-28T15:10:25.382Z</time></trkpt><trkpt lat="40.5428983" lon="8.3230917"><ele>10.0</ele><time>2026-03-28T15:10:26.383Z</time></trkpt><trkpt lat="40.5430033" lon="8.3231233"><ele>10.0</ele><time>2026-03-28T15:10:27.383Z</time></trkpt><trkpt lat="40.543115" lon="8.3231317"><ele>10.0</ele><time>2026-03-28T15:10:28.383Z</time></trkpt><trkpt lat="40.5432217" lon="8.3231317"><ele>9.6</ele><time>2026-03-28T15:10:29.383Z</time></trkpt><trkpt lat="40.5433233" lon="8.3231083"><ele>9.2</ele><time>2026-03-28T15:10:30.383Z</time></trkpt><trkpt lat="40.54342" lon="8.32307"><ele>8.8</ele><time>2026-03-28T15:10:31.382Z</time></trkpt><trkpt lat="40.543505" lon="8.3229967"><ele>8.4</ele><time>2026-03-28T15:10:32.383Z</time></trkpt><trkpt lat="40.5435883" lon="8.3229083"><ele>8.0</ele><time>2026-03-28T15:10:33.383Z</time></trkpt><trkpt lat="40.5436783" lon="8.3228017"><ele>9.0</ele><time>2026-03-28T15:10:34.382Z</time></trkpt><trkpt lat="40.5437567" lon="8.322685"><ele>10.0</ele><time>2026-03-28T15:10:35.382Z</time></trkpt><trkpt lat="40.5438233" lon="8.322565"><ele>11.0</ele><time>2026-03-28T15:10:36.383Z</time></trkpt><trkpt lat="40.543875" lon="8.3224433"><ele>12.0</ele><time>2026-03-28T15:10:37.383Z</time></trkpt><trkpt lat="40.543905" lon="8.3223183"><ele>13.0</ele><time>2026-03-28T15:10:38.383Z</time></trkpt><trkpt lat="40.5439233" lon="8.3221967"><ele>13.0</ele><time>2026-03-28T15:10:39.383Z</time></trkpt><trkpt lat="40.5439333" lon="8.32209"><ele>13.0</ele><time>2026-03-28T15:10:40.383Z</time></trkpt><trkpt lat="40.543935" lon="8.3219767"><ele>13.0</ele><time>2026-03-28T15:10:41.383Z</time></trkpt><trkpt lat="40.5439533" lon="8.3218467"><ele>13.0</ele><time>2026-03-28T15:10:42.383Z</time></trkpt><trkpt lat="40.5439883" lon="8.321725"><ele>13.0</ele><time>2026-03-28T15:10:43.383Z</time></trkpt><trkpt lat="40.54405" lon="8.3215967"><ele>13.0</ele><time>2026-03-28T15:10:44.383Z</time></trkpt><trkpt lat="40.544125" lon="8.321485"><ele>13.0</ele><time>2026-03-28T15:10:45.383Z</time></trkpt><trkpt lat="40.5442117" lon="8.3213983"><ele>13.0</ele><time>2026-03-28T15:10:46.383Z</time></trkpt><trkpt lat="40.544305" lon="8.3213683"><ele>13.0</ele><time>2026-03-28T15:10:47.383Z</time></trkpt><trkpt lat="40.54441" lon="8.3213567"><ele>13.0</ele><time>2026-03-28T15:10:48.383Z</time></trkpt><trkpt lat="40.5445133" lon="8.3213667"><ele>12.600000000000001</ele><time>2026-03-28T15:10:49.383Z</time></trkpt><trkpt lat="40.544605" lon="8.3213967"><ele>12.200000000000001</ele><time>2026-03-28T15:10:50.383Z</time></trkpt><trkpt lat="40.544695" lon="8.3214383"><ele>11.8</ele><time>2026-03-28T15:10:51.383Z</time></trkpt><trkpt lat="40.5447833" lon="8.3214933"><ele>11.4</ele><time>2026-03-28T15:10:52.383Z</time></trkpt><trkpt lat="40.5448633" lon="8.3215533"><ele>11.0</ele><time>2026-03-28T15:10:53.383Z</time></trkpt><trkpt lat="40.5449383" lon="8.32162"><ele>11.0</ele><time>2026-03-28T15:10:54.383Z</time></trkpt><trkpt lat="40.545015" lon="8.3217"><ele>11.0</ele><time>2026-03-28T15:10:55.383Z</time></trkpt><trkpt lat="40.5451" lon="8.321785"><ele>11.0</ele><time>2026-03-28T15:10:56.382Z</time></trkpt><trkpt lat="40.5451967" lon="8.3218633"><ele>11.0</ele><time>2026-03-28T15:10:57.383Z</time></trkpt><trkpt lat="40.5453083" lon="8.3219233"><ele>11.0</ele><time>2026-03-28T15:10:58.383Z</time></trkpt><trkpt lat="40.5454183" lon="8.3219817"><ele>10.75</ele><time>2026-03-28T15:10:59.383Z</time></trkpt><trkpt lat="40.5455333" lon="8.3220267"><ele>10.5</ele><time>2026-03-28T15:11:00.383Z</time></trkpt><trkpt lat="40.5456467" lon="8.322065"><ele>10.25</ele><time>2026-03-28T15:11:01.383Z</time></trkpt><trkpt lat="40.5457533" lon="8.322105"><ele>10.0</ele><time>2026-03-28T15:11:02.383Z</time></trkpt><trkpt lat="40.5458667" lon="8.3221433"><ele>10.0</ele><time>2026-03-28T15:11:03.383Z</time></trkpt><trkpt lat="40.54597" lon="8.3221933"><ele>10.0</ele><time>2026-03-28T15:11:04.383Z</time></trkpt><trkpt lat="40.5460867" lon="8.322245"><ele>10.0</ele><time>2026-03-28T15:11:05.383Z</time></trkpt><trkpt lat="40.5461983" lon="8.3222933"><ele>10.0</ele><time>2026-03-28T15:11:06.383Z</time></trkpt><trkpt lat="40.5463067" lon="8.32235"><ele>11.8</ele><time>2026-03-28T15:11:07.383Z</time></trkpt><trkpt lat="40.5464183" lon="8.322405"><ele>13.6</ele><time>2026-03-28T15:11:08.382Z</time></trkpt><trkpt lat="40.5465267" lon="8.32247"><ele>15.399999999999999</ele><time>2026-03-28T15:11:09.383Z</time></trkpt><trkpt lat="40.5466117" lon="8.32255"><ele>17.2</ele><time>2026-03-28T15:11:10.382Z</time></trkpt><trkpt lat="40.546705" lon="8.32261"><ele>19.0</ele><time>2026-03-28T15:11:11.383Z</time></trkpt><trkpt lat="40.5467933" lon="8.322675"><ele>19.0</ele><time>2026-03-28T15:11:12.383Z</time></trkpt><trkpt lat="40.546875" lon="8.3227367"><ele>19.0</ele><time>2026-03-28T15:11:13.383Z</time></trkpt><trkpt lat="40.54695" lon="8.3227967"><ele>19.0</ele><time>2026-03-28T15:11:14.383Z</time></trkpt><trkpt lat="40.547025" lon="8.3228567"><ele>19.0</ele><time>2026-03-28T15:11:15.383Z</time></trkpt><trkpt lat="40.5470967" lon="8.3229183"><ele>19.0</ele><time>2026-03-28T15:11:16.382Z</time></trkpt><trkpt lat="40.5471583" lon="8.32298"><ele>19.0</ele><time>2026-03-28T15:11:17.383Z</time></trkpt><trkpt lat="40.5472183" lon="8.3230533"><ele>19.166666666666664</ele><time>2026-03-28T15:11:18.383Z</time></trkpt><trkpt lat="40.5472767" lon="8.3231117"><ele>19.333333333333332</ele><time>2026-03-28T15:11:19.383Z</time></trkpt><trkpt lat="40.54734" lon="8.3231417"><ele>19.5</ele><time>2026-03-28T15:11:20.383Z</time></trkpt><trkpt lat="40.547405" lon="8.3231383"><ele>19.666666666666668</ele><time>2026-03-28T15:11:21.382Z</time></trkpt><trkpt lat="40.5475" lon="8.3230433"><ele>19.833333333333336</ele><time>2026-03-28T15:11:23.383Z</time></trkpt><trkpt lat="40.54754" lon="8.3229567"><ele>20.0</ele><time>2026-03-28T15:11:24.383Z</time></trkpt><trkpt lat="40.5475883" lon="8.3228683"><ele>20.0</ele><time>2026-03-28T15:11:25.383Z</time></trkpt><trkpt lat="40.54765" lon="8.3227883"><ele>20.0</ele><time>2026-03-28T15:11:26.383Z</time></trkpt><trkpt lat="40.5477183" lon="8.3227083"><ele>20.0</ele><time>2026-03-28T15:11:27.383Z</time></trkpt><trkpt lat="40.547795" lon="8.32263"><ele>20.0</ele><time>2026-03-28T15:11:28.383Z</time></trkpt><trkpt lat="40.547875" lon="8.32256"><ele>20.0</ele><time>2026-03-28T15:11:29.382Z</time></trkpt><trkpt lat="40.54794" lon="8.3224833"><ele>20.2</ele><time>2026-03-28T15:11:30.383Z</time></trkpt><trkpt lat="40.5480017" lon="8.32239"><ele>20.4</ele><time>2026-03-28T15:11:31.383Z</time></trkpt><trkpt lat="40.5480533" lon="8.322295"><ele>20.6</ele><time>2026-03-28T15:11:32.383Z</time></trkpt><trkpt lat="40.5481017" lon="8.3221867"><ele>20.8</ele><time>2026-03-28T15:11:33.383Z</time></trkpt><trkpt lat="40.548135" lon="8.3220667"><ele>21.0</ele><time>2026-03-28T15:11:34.382Z</time></trkpt><trkpt lat="40.5481667" lon="8.3219433"><ele>21.0</ele><time>2026-03-28T15:11:35.383Z</time></trkpt><trkpt lat="40.5481983" lon="8.3218167"><ele>21.0</ele><time>2026-03-28T15:11:36.383Z</time></trkpt><trkpt lat="40.5482217" lon="8.3216983"><ele>21.0</ele><time>2026-03-28T15:11:37.383Z</time></trkpt><trkpt lat="40.548255" lon="8.3215867"><ele>21.0</ele><time>2026-03-28T15:11:38.383Z</time></trkpt><trkpt lat="40.5482867" lon="8.32147"><ele>21.0</ele><time>2026-03-28T15:11:39.383Z</time></trkpt><trkpt lat="40.548325" lon="8.3213567"><ele>19.400000000000002</ele><time>2026-03-28T15:11:40.383Z</time></trkpt><trkpt lat="40.5483717" lon="8.3212433"><ele>17.8</ele><time>2026-03-28T15:11:41.382Z</time></trkpt><trkpt lat="40.5484233" lon="8.321135"><ele>16.200000000000003</ele><time>2026-03-28T15:11:42.383Z</time></trkpt><trkpt lat="40.548495" lon="8.3210467"><ele>14.600000000000001</ele><time>2026-03-28T15:11:43.383Z</time></trkpt><trkpt lat="40.54856" lon="8.3210033"><ele>13.0</ele><time>2026-03-28T15:11:44.383Z</time></trkpt><trkpt lat="40.5486467" lon="8.3209717"><ele>12.166666666666666</ele><time>2026-03-28T15:11:45.383Z</time></trkpt><trkpt lat="40.5487383" lon="8.3209567"><ele>11.333333333333332</ele><time>2026-03-28T15:11:46.382Z</time></trkpt><trkpt lat="40.54883" lon="8.32096"><ele>10.5</ele><time>2026-03-28T15:11:47.383Z</time></trkpt><trkpt lat="40.5489183" lon="8.3209733"><ele>9.666666666666666</ele><time>2026-03-28T15:11:48.382Z</time></trkpt><trkpt lat="40.5490067" lon="8.3209867"><ele>8.833333333333332</ele><time>2026-03-28T15:11:49.383Z</time></trkpt><trkpt lat="40.5490917" lon="8.3210083"><ele>8.0</ele><time>2026-03-28T15:11:50.382Z</time></trkpt><trkpt lat="40.5491667" lon="8.32104"><ele>7.999999999999999</ele><time>2026-03-28T15:11:51.382Z</time></trkpt><trkpt lat="40.5492467" lon="8.3210633"><ele>8.0</ele><time>2026-03-28T15:11:52.383Z</time></trkpt><trkpt lat="40.54933" lon="8.3210817"><ele>8.0</ele><time>2026-03-28T15:11:53.383Z</time></trkpt><trkpt lat="40.5494183" lon="8.321085"><ele>8.0</ele><time>2026-03-28T15:11:54.383Z</time></trkpt><trkpt lat="40.54951" lon="8.3210783"><ele>7.999999999999999</ele><time>2026-03-28T15:11:55.382Z</time></trkpt><trkpt lat="40.5496067" lon="8.3210617"><ele>8.0</ele><time>2026-03-28T15:11:56.383Z</time></trkpt><trkpt lat="40.5497" lon="8.3210283"><ele>8.600000000000001</ele><time>2026-03-28T15:11:57.382Z</time></trkpt><trkpt lat="40.5497917" lon="8.320985"><ele>9.200000000000001</ele><time>2026-03-28T15:11:58.383Z</time></trkpt><trkpt lat="40.54988" lon="8.3209467"><ele>9.8</ele><time>2026-03-28T15:11:59.383Z</time></trkpt><trkpt lat="40.5499783" lon="8.3209067"><ele>10.4</ele><time>2026-03-28T15:12:00.383Z</time></trkpt><trkpt lat="40.5500733" lon="8.3208733"><ele>11.0</ele><time>2026-03-28T15:12:01.382Z</time></trkpt><trkpt lat="40.5501683" lon="8.3208333"><ele>11.0</ele><time>2026-03-28T15:12:02.383Z</time></trkpt><trkpt lat="40.5502567" lon="8.3207917"><ele>11.0</ele><time>2026-03-28T15:12:03.383Z</time></trkpt><trkpt lat="40.550355" lon="8.3207433"><ele>11.0</ele><time>2026-03-28T15:12:04.383Z</time></trkpt><trkpt lat="40.5504433" lon="8.3206767"><ele>11.0</ele><time>2026-03-28T15:12:05.383Z</time></trkpt><trkpt lat="40.5505233" lon="8.3205967"><ele>11.0</ele><time>2026-03-28T15:12:06.383Z</time></trkpt><trkpt lat="40.5505917" lon="8.3205"><ele>11.600000000000001</ele><time>2026-03-28T15:12:07.383Z</time></trkpt><trkpt lat="40.55066" lon="8.3204017"><ele>12.2</ele><time>2026-03-28T15:12:08.383Z</time></trkpt><trkpt lat="40.550715" lon="8.32029"><ele>12.799999999999999</ele><time>2026-03-28T15:12:09.382Z</time></trkpt><trkpt lat="40.550765" lon="8.3201683"><ele>13.399999999999999</ele><time>2026-03-28T15:12:10.383Z</time></trkpt><trkpt lat="40.5508067" lon="8.3200467"><ele>14.0</ele><time>2026-03-28T15:12:11.382Z</time></trkpt><trkpt lat="40.5508483" lon="8.3199267"><ele>14.0</ele><time>2026-03-28T15:12:12.382Z</time></trkpt><trkpt lat="40.5508867" lon="8.3198083"><ele>13.999999999999998</ele><time>2026-03-28T15:12:13.383Z</time></trkpt><trkpt lat="40.5509267" lon="8.3196933"><ele>13.999999999999998</ele><time>2026-03-28T15:12:14.383Z</time></trkpt><trkpt lat="40.55097" lon="8.3195817"><ele>14.0</ele><time>2026-03-28T15:12:15.383Z</time></trkpt><trkpt lat="40.55102" lon="8.3194683"><ele>14.0</ele><time>2026-03-28T15:12:16.383Z</time></trkpt><trkpt lat="40.5510667" lon="8.3193583"><ele>14.399999999999999</ele><time>2026-03-28T15:12:17.382Z</time></trkpt><trkpt lat="40.5511183" lon="8.3192567"><ele>14.799999999999999</ele><time>2026-03-28T15:12:18.383Z</time></trkpt><trkpt lat="40.5511733" lon="8.31917"><ele>15.200000000000001</ele><time>2026-03-28T15:12:19.383Z</time></trkpt><trkpt lat="40.5512417" lon="8.31907"><ele>15.600000000000001</ele><time>2026-03-28T15:12:20.383Z</time></trkpt><trkpt lat="40.5513233" lon="8.31897"><ele>16.0</ele><time>2026-03-28T15:12:21.383Z</time></trkpt><trkpt lat="40.55139" lon="8.3188983"><ele>13.999999999999998</ele><time>2026-03-28T15:12:22.383Z</time></trkpt><trkpt lat="40.55146" lon="8.3188517"><ele>12.0</ele><time>2026-03-28T15:12:23.383Z</time></trkpt><trkpt lat="40.55154" lon="8.3188417"><ele>10.0</ele><time>2026-03-28T15:12:24.383Z</time></trkpt><trkpt lat="40.5516233" lon="8.318835"><ele>8.0</ele><time>2026-03-28T15:12:25.383Z</time></trkpt><trkpt lat="40.5516933" lon="8.3188383"><ele>6.0</ele><time>2026-03-28T15:12:26.383Z</time></trkpt><trkpt lat="40.5517683" lon="8.318825"><ele>4.0</ele><time>2026-03-28T15:12:27.383Z</time></trkpt><trkpt lat="40.55184" lon="8.318795"><ele>3.9999999999999996</ele><time>2026-03-28T15:12:28.383Z</time></trkpt><trkpt lat="40.5519083" lon="8.3187383"><ele>4.0</ele><time>2026-03-28T15:12:29.383Z</time></trkpt><trkpt lat="40.5519667" lon="8.3186783"><ele>4.0</ele><time>2026-03-28T15:12:30.383Z</time></trkpt><trkpt lat="40.5520217" lon="8.3186067"><ele>4.0</ele><time>2026-03-28T15:12:31.383Z</time></trkpt><trkpt lat="40.5520817" lon="8.3185283"><ele>3.9999999999999996</ele><time>2026-03-28T15:12:32.382Z</time></trkpt><trkpt lat="40.5521383" lon="8.3184417"><ele>4.0</ele><time>2026-03-28T15:12:33.382Z</time></trkpt><trkpt lat="40.5521917" lon="8.31836"><ele>5.166666666666666</ele><time>2026-03-28T15:12:34.383Z</time></trkpt><trkpt lat="40.552235" lon="8.3182783"><ele>6.333333333333333</ele><time>2026-03-28T15:12:35.383Z</time></trkpt><trkpt lat="40.552275" lon="8.318195"><ele>7.5</ele><time>2026-03-28T15:12:36.383Z</time></trkpt><trkpt lat="40.55232" lon="8.3181233"><ele>8.666666666666666</ele><time>2026-03-28T15:12:37.383Z</time></trkpt><trkpt lat="40.5523767" lon="8.3180617"><ele>9.833333333333332</ele><time>2026-03-28T15:12:38.382Z</time></trkpt><trkpt lat="40.55243" lon="8.31801"><ele>11.0</ele><time>2026-03-28T15:12:39.382Z</time></trkpt><trkpt lat="40.552515" lon="8.3179433"><ele>11.0</ele><time>2026-03-28T15:12:41.383Z</time></trkpt><trkpt lat="40.5525783" lon="8.3178983"><ele>11.0</ele><time>2026-03-28T15:12:43.382Z</time></trkpt><trkpt lat="40.5526467" lon="8.3179133"><ele>11.0</ele><time>2026-03-28T15:12:45.383Z</time></trkpt><trkpt lat="40.552715" lon="8.3179883"><ele>11.0</ele><time>2026-03-28T15:12:47.383Z</time></trkpt><trkpt lat="40.5527983" lon="8.3180683"><ele>11.0</ele><time>2026-03-28T15:12:49.383Z</time></trkpt><trkpt lat="40.55288" lon="8.318165"><ele>11.0</ele><time>2026-03-28T15:12:51.382Z</time></trkpt><trkpt lat="40.5529317" lon="8.3182167"><ele>13.200000000000001</ele><time>2026-03-28T15:12:52.383Z</time></trkpt><trkpt lat="40.5529833" lon="8.318285"><ele>15.400000000000002</ele><time>2026-03-28T15:12:53.383Z</time></trkpt><trkpt lat="40.5530433" lon="8.3183417"><ele>17.6</ele><time>2026-03-28T15:12:54.383Z</time></trkpt><trkpt lat="40.5531533" lon="8.318445"><ele>19.8</ele><time>2026-03-28T15:12:56.383Z</time></trkpt><trkpt lat="40.5532367" lon="8.3185517"><ele>22.0</ele><time>2026-03-28T15:12:58.383Z</time></trkpt><trkpt lat="40.5533017" lon="8.3186267"><ele>22.0</ele><time>2026-03-28T15:13:00.383Z</time></trkpt><trkpt lat="40.5533733" lon="8.318685"><ele>22.0</ele><time>2026-03-28T15:13:03.383Z</time></trkpt><trkpt lat="40.5534633" lon="8.31864"><ele>22.0</ele><time>2026-03-28T15:13:05.383Z</time></trkpt><trkpt lat="40.5535117" lon="8.3185817"><ele>22.0</ele><time>2026-03-28T15:13:06.383Z</time></trkpt><trkpt lat="40.5535783" lon="8.3184783"><ele>22.0</ele><time>2026-03-28T15:13:07.382Z</time></trkpt><trkpt lat="40.55363" lon="8.318395"><ele>22.0</ele><time>2026-03-28T15:13:08.383Z</time></trkpt><trkpt lat="40.5536867" lon="8.318315"><ele>22.166666666666664</ele><time>2026-03-28T15:13:09.383Z</time></trkpt><trkpt lat="40.5537417" lon="8.3182283"><ele>22.333333333333332</ele><time>2026-03-28T15:13:10.383Z</time></trkpt><trkpt lat="40.5537983" lon="8.3181333"><ele>22.5</ele><time>2026-03-28T15:13:11.382Z</time></trkpt><trkpt lat="40.5538517" lon="8.31804"><ele>22.666666666666668</ele><time>2026-03-28T15:13:12.382Z</time></trkpt><trkpt lat="40.5539033" lon="8.3179617"><ele>22.833333333333336</ele><time>2026-03-28T15:13:13.383Z</time></trkpt><trkpt lat="40.553955" lon="8.3178917"><ele>23.0</ele><time>2026-03-28T15:13:14.382Z</time></trkpt><trkpt lat="40.5540117" lon="8.3178283"><ele>22.666666666666668</ele><time>2026-03-28T15:13:15.382Z</time></trkpt><trkpt lat="40.5540583" lon="8.3177617"><ele>22.333333333333336</ele><time>2026-03-28T15:13:16.383Z</time></trkpt><trkpt lat="40.554095" lon="8.317685"><ele>22.0</ele><time>2026-03-28T15:13:17.383Z</time></trkpt><trkpt lat="40.5541583" lon="8.3176467"><ele>21.666666666666668</ele><time>2026-03-28T15:13:18.382Z</time></trkpt><trkpt lat="40.554225" lon="8.3176017"><ele>21.333333333333332</ele><time>2026-03-28T15:13:19.383Z</time></trkpt><trkpt lat="40.5543067" lon="8.3175617"><ele>21.0</ele><time>2026-03-28T15:13:20.383Z</time></trkpt><trkpt lat="40.5543817" lon="8.3175167"><ele>21.0</ele><time>2026-03-28T15:13:21.382Z</time></trkpt><trkpt lat="40.5544467" lon="8.3174667"><ele>21.0</ele><time>2026-03-28T15:13:22.383Z</time></trkpt><trkpt lat="40.5545083" lon="8.31742"><ele>21.0</ele><time>2026-03-28T15:13:23.383Z</time></trkpt><trkpt lat="40.5545683" lon="8.3173683"><ele>21.0</ele><time>2026-03-28T15:13:24.383Z</time></trkpt><trkpt lat="40.5546333" lon="8.3173183"><ele>21.0</ele><time>2026-03-28T15:13:25.383Z</time></trkpt><trkpt lat="40.5547" lon="8.3172633"><ele>21.0</ele><time>2026-03-28T15:13:26.383Z</time></trkpt><trkpt lat="40.554765" lon="8.3172017"><ele>20.666666666666668</ele><time>2026-03-28T15:13:27.383Z</time></trkpt><trkpt lat="40.554835" lon="8.317155"><ele>20.333333333333332</ele><time>2026-03-28T15:13:28.382Z</time></trkpt><trkpt lat="40.5549167" lon="8.3170983"><ele>20.0</ele><time>2026-03-28T15:13:29.383Z</time></trkpt><trkpt lat="40.5549867" lon="8.31705"><ele>19.666666666666664</ele><time>2026-03-28T15:13:30.382Z</time></trkpt><trkpt lat="40.5550567" lon="8.3169767"><ele>19.333333333333332</ele><time>2026-03-28T15:13:31.382Z</time></trkpt><trkpt lat="40.555135" lon="8.3169283"><ele>19.0</ele><time>2026-03-28T15:13:32.383Z</time></trkpt><trkpt lat="40.5552033" lon="8.3168767"><ele>19.0</ele><time>2026-03-28T15:13:33.382Z</time></trkpt><trkpt lat="40.5552667" lon="8.316825"><ele>19.0</ele><time>2026-03-28T15:13:34.383Z</time></trkpt><trkpt lat="40.5553233" lon="8.3167767"><ele>19.0</ele><time>2026-03-28T15:13:35.383Z</time></trkpt><trkpt lat="40.5553817" lon="8.316725"><ele>19.0</ele><time>2026-03-28T15:13:36.383Z</time></trkpt><trkpt lat="40.55544" lon="8.3166717"><ele>19.0</ele><time>2026-03-28T15:13:37.383Z</time></trkpt><trkpt lat="40.5554833" lon="8.31659"><ele>19.0</ele><time>2026-03-28T15:13:38.382Z</time></trkpt><trkpt lat="40.555555" lon="8.3165"><ele>18.833333333333332</ele><time>2026-03-28T15:13:40.383Z</time></trkpt><trkpt lat="40.5556733" lon="8.31644"><ele>18.666666666666664</ele><time>2026-03-28T15:13:49.382Z</time></trkpt><trkpt lat="40.5557333" lon="8.31641"><ele>18.5</ele><time>2026-03-28T15:13:51.382Z</time></trkpt><trkpt lat="40.5557933" lon="8.3163767"><ele>18.333333333333332</ele><time>2026-03-28T15:13:52.383Z</time></trkpt><trkpt lat="40.5558583" lon="8.31634"><ele>18.166666666666668</ele><time>2026-03-28T15:13:53.383Z</time></trkpt><trkpt lat="40.5559233" lon="8.31629"><ele>18.0</ele><time>2026-03-28T15:13:54.383Z</time></trkpt><trkpt lat="40.55598" lon="8.31624"><ele>16.8</ele><time>2026-03-28T15:13:55.383Z</time></trkpt><trkpt lat="40.556045" lon="8.3161683"><ele>15.600000000000001</ele><time>2026-03-28T15:13:56.383Z</time></trkpt><trkpt lat="40.5561017" lon="8.316115"><ele>14.399999999999999</ele><time>2026-03-28T15:13:57.382Z</time></trkpt><trkpt lat="40.5561583" lon="8.3160517"><ele>13.2</ele><time>2026-03-28T15:13:58.383Z</time></trkpt><trkpt lat="40.5562417" lon="8.3159417"><ele>12.0</ele><time>2026-03-28T15:14:00.383Z</time></trkpt><trkpt lat="40.5563483" lon="8.3159"><ele>12.0</ele><time>2026-03-28T15:14:02.383Z</time></trkpt><trkpt lat="40.5564133" lon="8.3158567"><ele>12.0</ele><time>2026-03-28T15:14:04.383Z</time></trkpt><trkpt lat="40.5564033" lon="8.3157683"><ele>12.0</ele><time>2026-03-28T15:14:07.383Z</time></trkpt><trkpt lat="40.5564383" lon="8.3156867"><ele>12.0</ele><time>2026-03-28T15:14:10.383Z</time></trkpt><trkpt lat="40.5564483" lon="8.3156"><ele>12.0</ele><time>2026-03-28T15:14:13.382Z</time></trkpt></trkseg></trk></gpx>